<?xml version="1.0" encoding="UTF-8" standalone="no" ?>
<gpx xmlns="http://www.topografix.com/GPX/1/1" xmlns:xsi="http://www.w3.org/2001/XMLSchema-instance" xsi:schemaLocation="http://www.topografix.com/GPX/1/1 http://www.topografix.com/GPX/1/1/gpx.xsd" version="1.1" creator="VisuGPX - https://www.visugpx.com">
  <metadata>
    <name>Voie verte + retour par la  Suisse Normande</name>
  </metadata>
  <trk>
    <name><![CDATA[Voie verte + retour par la  Suisse Normande_1]]></name>
    <trkseg>
      <trkpt lat="49.18852" lon="-0.4008">
        <ele>51.2</ele>
        <time>2023-04-21T11:14:03Z</time>
      </trkpt>
      <trkpt lat="49.18852" lon="-0.40083">
        <ele>51.2</ele>
        <time>2023-04-21T11:14:04Z</time>
      </trkpt>
      <trkpt lat="49.18853" lon="-0.40085">
        <ele>51.4</ele>
        <time>2023-04-21T11:14:05Z</time>
      </trkpt>
      <trkpt lat="49.18854" lon="-0.40087">
        <ele>51.6</ele>
        <time>2023-04-21T11:14:06Z</time>
      </trkpt>
      <trkpt lat="49.18855" lon="-0.40089">
        <ele>51.6</ele>
        <time>2023-04-21T11:14:07Z</time>
      </trkpt>
      <trkpt lat="49.18857" lon="-0.40091">
        <ele>51.8</ele>
        <time>2023-04-21T11:14:08Z</time>
      </trkpt>
      <trkpt lat="49.18859" lon="-0.40092">
        <ele>52</ele>
        <time>2023-04-21T11:14:09Z</time>
      </trkpt>
      <trkpt lat="49.18861" lon="-0.40094">
        <ele>52</ele>
        <time>2023-04-21T11:14:10Z</time>
      </trkpt>
      <trkpt lat="49.18863" lon="-0.40096">
        <ele>52.2</ele>
        <time>2023-04-21T11:14:11Z</time>
      </trkpt>
      <trkpt lat="49.18865" lon="-0.40099">
        <ele>52.4</ele>
        <time>2023-04-21T11:14:12Z</time>
      </trkpt>
      <trkpt lat="49.18867" lon="-0.40101">
        <ele>52.6</ele>
        <time>2023-04-21T11:14:13Z</time>
      </trkpt>
      <trkpt lat="49.18869" lon="-0.40104">
        <ele>52.8</ele>
        <time>2023-04-21T11:14:14Z</time>
      </trkpt>
      <trkpt lat="49.18871" lon="-0.40107">
        <ele>52.8</ele>
        <time>2023-04-21T11:14:15Z</time>
      </trkpt>
      <trkpt lat="49.18873" lon="-0.4011">
        <ele>53</ele>
        <time>2023-04-21T11:14:16Z</time>
      </trkpt>
      <trkpt lat="49.18875" lon="-0.40113">
        <ele>53.2</ele>
        <time>2023-04-21T11:14:17Z</time>
      </trkpt>
      <trkpt lat="49.18876" lon="-0.40115">
        <ele>53.2</ele>
        <time>2023-04-21T11:14:18Z</time>
      </trkpt>
      <trkpt lat="49.18877" lon="-0.40116">
        <ele>53.2</ele>
        <time>2023-04-21T11:14:19Z</time>
      </trkpt>
      <trkpt lat="49.18877" lon="-0.40117">
        <ele>53.4</ele>
        <time>2023-04-21T11:14:20Z</time>
      </trkpt>
      <trkpt lat="49.18878" lon="-0.40118">
        <ele>53.4</ele>
        <time>2023-04-21T11:14:21Z</time>
      </trkpt>
      <trkpt lat="49.18878" lon="-0.40118">
        <ele>53.4</ele>
        <time>2023-04-21T11:14:22Z</time>
      </trkpt>
      <trkpt lat="49.18878" lon="-0.40118">
        <ele>53.4</ele>
        <time>2023-04-21T11:14:23Z</time>
      </trkpt>
      <trkpt lat="49.18878" lon="-0.40118">
        <ele>53.4</ele>
        <time>2023-04-21T11:14:24Z</time>
      </trkpt>
      <trkpt lat="49.18878" lon="-0.40118">
        <ele>53.4</ele>
        <time>2023-04-21T11:14:25Z</time>
      </trkpt>
      <trkpt lat="49.18878" lon="-0.40118">
        <ele>53.4</ele>
        <time>2023-04-21T11:14:26Z</time>
      </trkpt>
      <trkpt lat="49.18879" lon="-0.40118">
        <ele>53.4</ele>
        <time>2023-04-21T11:14:27Z</time>
      </trkpt>
      <trkpt lat="49.18879" lon="-0.40119">
        <ele>53.6</ele>
        <time>2023-04-21T11:14:28Z</time>
      </trkpt>
      <trkpt lat="49.1888" lon="-0.40119">
        <ele>53.6</ele>
        <time>2023-04-21T11:14:29Z</time>
      </trkpt>
      <trkpt lat="49.1888" lon="-0.4012">
        <ele>53.6</ele>
        <time>2023-04-21T11:14:30Z</time>
      </trkpt>
      <trkpt lat="49.18881" lon="-0.40121">
        <ele>53.6</ele>
        <time>2023-04-21T11:14:31Z</time>
      </trkpt>
      <trkpt lat="49.18882" lon="-0.40122">
        <ele>53.8</ele>
        <time>2023-04-21T11:14:32Z</time>
      </trkpt>
      <trkpt lat="49.18883" lon="-0.40122">
        <ele>53.8</ele>
        <time>2023-04-21T11:14:33Z</time>
      </trkpt>
      <trkpt lat="49.18883" lon="-0.40123">
        <ele>53.8</ele>
        <time>2023-04-21T11:14:34Z</time>
      </trkpt>
      <trkpt lat="49.18884" lon="-0.40123">
        <ele>53.8</ele>
        <time>2023-04-21T11:14:35Z</time>
      </trkpt>
      <trkpt lat="49.18884" lon="-0.40124">
        <ele>53.8</ele>
        <time>2023-04-21T11:14:36Z</time>
      </trkpt>
      <trkpt lat="49.18884" lon="-0.40124">
        <ele>53.8</ele>
        <time>2023-04-21T11:14:37Z</time>
      </trkpt>
      <trkpt lat="49.18884" lon="-0.40124">
        <ele>53.8</ele>
        <time>2023-04-21T11:14:38Z</time>
      </trkpt>
      <trkpt lat="49.18884" lon="-0.40124">
        <ele>54</ele>
        <time>2023-04-21T11:14:39Z</time>
      </trkpt>
      <trkpt lat="49.18885" lon="-0.40125">
        <ele>54</ele>
        <time>2023-04-21T11:14:40Z</time>
      </trkpt>
      <trkpt lat="49.18886" lon="-0.40126">
        <ele>54</ele>
        <time>2023-04-21T11:14:41Z</time>
      </trkpt>
      <trkpt lat="49.18886" lon="-0.40128">
        <ele>54</ele>
        <time>2023-04-21T11:14:42Z</time>
      </trkpt>
      <trkpt lat="49.18887" lon="-0.4013">
        <ele>54</ele>
        <time>2023-04-21T11:14:43Z</time>
      </trkpt>
      <trkpt lat="49.18886" lon="-0.40132">
        <ele>54</ele>
        <time>2023-04-21T11:14:44Z</time>
      </trkpt>
      <trkpt lat="49.18886" lon="-0.40135">
        <ele>54</ele>
        <time>2023-04-21T11:14:45Z</time>
      </trkpt>
      <trkpt lat="49.18885" lon="-0.40139">
        <ele>54</ele>
        <time>2023-04-21T11:14:46Z</time>
      </trkpt>
      <trkpt lat="49.18884" lon="-0.40142">
        <ele>54</ele>
        <time>2023-04-21T11:14:47Z</time>
      </trkpt>
      <trkpt lat="49.18883" lon="-0.40146">
        <ele>54</ele>
        <time>2023-04-21T11:14:48Z</time>
      </trkpt>
      <trkpt lat="49.18882" lon="-0.40151">
        <ele>53.8</ele>
        <time>2023-04-21T11:14:49Z</time>
      </trkpt>
      <trkpt lat="49.18881" lon="-0.40156">
        <ele>53.8</ele>
        <time>2023-04-21T11:14:50Z</time>
      </trkpt>
      <trkpt lat="49.1888" lon="-0.40161">
        <ele>53.8</ele>
        <time>2023-04-21T11:14:51Z</time>
      </trkpt>
      <trkpt lat="49.18879" lon="-0.40166">
        <ele>53.8</ele>
        <time>2023-04-21T11:14:52Z</time>
      </trkpt>
      <trkpt lat="49.18878" lon="-0.40172">
        <ele>53.8</ele>
        <time>2023-04-21T11:14:53Z</time>
      </trkpt>
      <trkpt lat="49.18877" lon="-0.40178">
        <ele>54</ele>
        <time>2023-04-21T11:14:54Z</time>
      </trkpt>
      <trkpt lat="49.18876" lon="-0.40185">
        <ele>54</ele>
        <time>2023-04-21T11:14:55Z</time>
      </trkpt>
      <trkpt lat="49.18875" lon="-0.40192">
        <ele>54</ele>
        <time>2023-04-21T11:14:56Z</time>
      </trkpt>
      <trkpt lat="49.18874" lon="-0.40199">
        <ele>54.2</ele>
        <time>2023-04-21T11:14:57Z</time>
      </trkpt>
      <trkpt lat="49.18874" lon="-0.40206">
        <ele>54.4</ele>
        <time>2023-04-21T11:14:58Z</time>
      </trkpt>
      <trkpt lat="49.18873" lon="-0.40211">
        <ele>54.6</ele>
        <time>2023-04-21T11:14:59Z</time>
      </trkpt>
      <trkpt lat="49.18873" lon="-0.40215">
        <ele>54.6</ele>
        <time>2023-04-21T11:15:00Z</time>
      </trkpt>
      <trkpt lat="49.18874" lon="-0.40218">
        <ele>54.8</ele>
        <time>2023-04-21T11:15:01Z</time>
      </trkpt>
      <trkpt lat="49.18874" lon="-0.40219">
        <ele>54.8</ele>
        <time>2023-04-21T11:15:02Z</time>
      </trkpt>
      <trkpt lat="49.18874" lon="-0.40221">
        <ele>54.8</ele>
        <time>2023-04-21T11:15:03Z</time>
      </trkpt>
      <trkpt lat="49.18874" lon="-0.40224">
        <ele>54.8</ele>
        <time>2023-04-21T11:15:04Z</time>
      </trkpt>
      <trkpt lat="49.18874" lon="-0.40229">
        <ele>55</ele>
        <time>2023-04-21T11:15:05Z</time>
      </trkpt>
      <trkpt lat="49.18873" lon="-0.40234">
        <ele>55</ele>
        <time>2023-04-21T11:15:06Z</time>
      </trkpt>
      <trkpt lat="49.18873" lon="-0.40239">
        <ele>55</ele>
        <time>2023-04-21T11:15:07Z</time>
      </trkpt>
      <trkpt lat="49.18872" lon="-0.40245">
        <ele>55.2</ele>
        <time>2023-04-21T11:15:08Z</time>
      </trkpt>
      <trkpt lat="49.18871" lon="-0.40252">
        <ele>55.2</ele>
        <time>2023-04-21T11:15:09Z</time>
      </trkpt>
      <trkpt lat="49.1887" lon="-0.40258">
        <ele>55.4</ele>
        <time>2023-04-21T11:15:10Z</time>
      </trkpt>
      <trkpt lat="49.18869" lon="-0.40264">
        <ele>55.6</ele>
        <time>2023-04-21T11:15:11Z</time>
      </trkpt>
      <trkpt lat="49.18868" lon="-0.40271">
        <ele>55.6</ele>
        <time>2023-04-21T11:15:12Z</time>
      </trkpt>
      <trkpt lat="49.18867" lon="-0.40277">
        <ele>55.8</ele>
        <time>2023-04-21T11:15:13Z</time>
      </trkpt>
      <trkpt lat="49.18867" lon="-0.40284">
        <ele>55.8</ele>
        <time>2023-04-21T11:15:14Z</time>
      </trkpt>
      <trkpt lat="49.18866" lon="-0.40291">
        <ele>56</ele>
        <time>2023-04-21T11:15:15Z</time>
      </trkpt>
      <trkpt lat="49.18865" lon="-0.40297">
        <ele>56</ele>
        <time>2023-04-21T11:15:16Z</time>
      </trkpt>
      <trkpt lat="49.18864" lon="-0.40304">
        <ele>56</ele>
        <time>2023-04-21T11:15:17Z</time>
      </trkpt>
      <trkpt lat="49.18863" lon="-0.4031">
        <ele>56.2</ele>
        <time>2023-04-21T11:15:18Z</time>
      </trkpt>
      <trkpt lat="49.18863" lon="-0.40317">
        <ele>56.4</ele>
        <time>2023-04-21T11:15:19Z</time>
      </trkpt>
      <trkpt lat="49.18862" lon="-0.40324">
        <ele>56.6</ele>
        <time>2023-04-21T11:15:20Z</time>
      </trkpt>
      <trkpt lat="49.18861" lon="-0.4033">
        <ele>56.6</ele>
        <time>2023-04-21T11:15:21Z</time>
      </trkpt>
      <trkpt lat="49.18861" lon="-0.40337">
        <ele>56.8</ele>
        <time>2023-04-21T11:15:22Z</time>
      </trkpt>
      <trkpt lat="49.1886" lon="-0.40343">
        <ele>56.8</ele>
        <time>2023-04-21T11:15:23Z</time>
      </trkpt>
      <trkpt lat="49.18859" lon="-0.4035">
        <ele>56.8</ele>
        <time>2023-04-21T11:15:24Z</time>
      </trkpt>
      <trkpt lat="49.18858" lon="-0.40357">
        <ele>57</ele>
        <time>2023-04-21T11:15:25Z</time>
      </trkpt>
      <trkpt lat="49.18857" lon="-0.40364">
        <ele>57</ele>
        <time>2023-04-21T11:15:26Z</time>
      </trkpt>
      <trkpt lat="49.18857" lon="-0.4037">
        <ele>57</ele>
        <time>2023-04-21T11:15:27Z</time>
      </trkpt>
      <trkpt lat="49.18856" lon="-0.40377">
        <ele>57</ele>
        <time>2023-04-21T11:15:28Z</time>
      </trkpt>
      <trkpt lat="49.18855" lon="-0.40384">
        <ele>57</ele>
        <time>2023-04-21T11:15:29Z</time>
      </trkpt>
      <trkpt lat="49.18854" lon="-0.40391">
        <ele>57</ele>
        <time>2023-04-21T11:15:30Z</time>
      </trkpt>
      <trkpt lat="49.18853" lon="-0.40398">
        <ele>57</ele>
        <time>2023-04-21T11:15:31Z</time>
      </trkpt>
      <trkpt lat="49.18852" lon="-0.40405">
        <ele>57.2</ele>
        <time>2023-04-21T11:15:32Z</time>
      </trkpt>
      <trkpt lat="49.18851" lon="-0.40412">
        <ele>57.2</ele>
        <time>2023-04-21T11:15:33Z</time>
      </trkpt>
      <trkpt lat="49.1885" lon="-0.4042">
        <ele>57.2</ele>
        <time>2023-04-21T11:15:34Z</time>
      </trkpt>
      <trkpt lat="49.1885" lon="-0.40427">
        <ele>57.6</ele>
        <time>2023-04-21T11:15:35Z</time>
      </trkpt>
      <trkpt lat="49.18849" lon="-0.40434">
        <ele>57.8</ele>
        <time>2023-04-21T11:15:36Z</time>
      </trkpt>
      <trkpt lat="49.18848" lon="-0.40441">
        <ele>58</ele>
        <time>2023-04-21T11:15:37Z</time>
      </trkpt>
      <trkpt lat="49.18847" lon="-0.40448">
        <ele>58</ele>
        <time>2023-04-21T11:15:38Z</time>
      </trkpt>
      <trkpt lat="49.18847" lon="-0.40455">
        <ele>58.2</ele>
        <time>2023-04-21T11:15:39Z</time>
      </trkpt>
      <trkpt lat="49.18846" lon="-0.40462">
        <ele>58.4</ele>
        <time>2023-04-21T11:15:40Z</time>
      </trkpt>
      <trkpt lat="49.18845" lon="-0.40468">
        <ele>58.6</ele>
        <time>2023-04-21T11:15:41Z</time>
      </trkpt>
      <trkpt lat="49.18844" lon="-0.40475">
        <ele>58.8</ele>
        <time>2023-04-21T11:15:42Z</time>
      </trkpt>
      <trkpt lat="49.18844" lon="-0.40481">
        <ele>59</ele>
        <time>2023-04-21T11:15:43Z</time>
      </trkpt>
      <trkpt lat="49.18843" lon="-0.40486">
        <ele>59</ele>
        <time>2023-04-21T11:15:44Z</time>
      </trkpt>
      <trkpt lat="49.18842" lon="-0.40492">
        <ele>59.2</ele>
        <time>2023-04-21T11:15:45Z</time>
      </trkpt>
      <trkpt lat="49.18841" lon="-0.40497">
        <ele>59.4</ele>
        <time>2023-04-21T11:15:46Z</time>
      </trkpt>
      <trkpt lat="49.18841" lon="-0.40502">
        <ele>59.4</ele>
        <time>2023-04-21T11:15:47Z</time>
      </trkpt>
      <trkpt lat="49.1884" lon="-0.40507">
        <ele>59.4</ele>
        <time>2023-04-21T11:15:48Z</time>
      </trkpt>
      <trkpt lat="49.1884" lon="-0.40512">
        <ele>59.4</ele>
        <time>2023-04-21T11:15:49Z</time>
      </trkpt>
      <trkpt lat="49.18839" lon="-0.40517">
        <ele>59.2</ele>
        <time>2023-04-21T11:15:50Z</time>
      </trkpt>
      <trkpt lat="49.18838" lon="-0.40521">
        <ele>59.2</ele>
        <time>2023-04-21T11:15:51Z</time>
      </trkpt>
      <trkpt lat="49.18838" lon="-0.40525">
        <ele>59.2</ele>
        <time>2023-04-21T11:15:52Z</time>
      </trkpt>
      <trkpt lat="49.18837" lon="-0.4053">
        <ele>59.2</ele>
        <time>2023-04-21T11:15:53Z</time>
      </trkpt>
      <trkpt lat="49.18837" lon="-0.40534">
        <ele>59.2</ele>
        <time>2023-04-21T11:15:54Z</time>
      </trkpt>
      <trkpt lat="49.18837" lon="-0.40538">
        <ele>59.2</ele>
        <time>2023-04-21T11:15:55Z</time>
      </trkpt>
      <trkpt lat="49.18837" lon="-0.40543">
        <ele>59.2</ele>
        <time>2023-04-21T11:15:56Z</time>
      </trkpt>
      <trkpt lat="49.18836" lon="-0.40547">
        <ele>59.2</ele>
        <time>2023-04-21T11:15:57Z</time>
      </trkpt>
      <trkpt lat="49.18836" lon="-0.40551">
        <ele>59.2</ele>
        <time>2023-04-21T11:15:58Z</time>
      </trkpt>
      <trkpt lat="49.18835" lon="-0.40556">
        <ele>59</ele>
        <time>2023-04-21T11:15:59Z</time>
      </trkpt>
      <trkpt lat="49.18834" lon="-0.4056">
        <ele>59</ele>
        <time>2023-04-21T11:16:00Z</time>
      </trkpt>
      <trkpt lat="49.18833" lon="-0.40565">
        <ele>59</ele>
        <time>2023-04-21T11:16:01Z</time>
      </trkpt>
      <trkpt lat="49.18831" lon="-0.40571">
        <ele>59</ele>
        <time>2023-04-21T11:16:02Z</time>
      </trkpt>
      <trkpt lat="49.1883" lon="-0.40576">
        <ele>58.8</ele>
        <time>2023-04-21T11:16:03Z</time>
      </trkpt>
      <trkpt lat="49.18827" lon="-0.4058">
        <ele>58.6</ele>
        <time>2023-04-21T11:16:04Z</time>
      </trkpt>
      <trkpt lat="49.18824" lon="-0.40583">
        <ele>58.4</ele>
        <time>2023-04-21T11:16:05Z</time>
      </trkpt>
      <trkpt lat="49.18819" lon="-0.40583">
        <ele>58.2</ele>
        <time>2023-04-21T11:16:06Z</time>
      </trkpt>
      <trkpt lat="49.18815" lon="-0.40583">
        <ele>58</ele>
        <time>2023-04-21T11:16:07Z</time>
      </trkpt>
      <trkpt lat="49.1881" lon="-0.40583">
        <ele>57.6</ele>
        <time>2023-04-21T11:16:08Z</time>
      </trkpt>
      <trkpt lat="49.18804" lon="-0.40584">
        <ele>57.2</ele>
        <time>2023-04-21T11:16:09Z</time>
      </trkpt>
      <trkpt lat="49.18799" lon="-0.40584">
        <ele>57</ele>
        <time>2023-04-21T11:16:10Z</time>
      </trkpt>
      <trkpt lat="49.18794" lon="-0.40585">
        <ele>56.6</ele>
        <time>2023-04-21T11:16:11Z</time>
      </trkpt>
      <trkpt lat="49.18789" lon="-0.40586">
        <ele>56.4</ele>
        <time>2023-04-21T11:16:12Z</time>
      </trkpt>
      <trkpt lat="49.18785" lon="-0.40586">
        <ele>56.2</ele>
        <time>2023-04-21T11:16:13Z</time>
      </trkpt>
      <trkpt lat="49.18782" lon="-0.40587">
        <ele>56</ele>
        <time>2023-04-21T11:16:14Z</time>
      </trkpt>
      <trkpt lat="49.18779" lon="-0.40588">
        <ele>55.8</ele>
        <time>2023-04-21T11:16:15Z</time>
      </trkpt>
      <trkpt lat="49.18777" lon="-0.40588">
        <ele>55.8</ele>
        <time>2023-04-21T11:16:16Z</time>
      </trkpt>
      <trkpt lat="49.18774" lon="-0.40587">
        <ele>55.6</ele>
        <time>2023-04-21T11:16:17Z</time>
      </trkpt>
      <trkpt lat="49.18773" lon="-0.40585">
        <ele>55.4</ele>
        <time>2023-04-21T11:16:18Z</time>
      </trkpt>
      <trkpt lat="49.18771" lon="-0.40581">
        <ele>55.2</ele>
        <time>2023-04-21T11:16:19Z</time>
      </trkpt>
      <trkpt lat="49.1877" lon="-0.40576">
        <ele>55</ele>
        <time>2023-04-21T11:16:20Z</time>
      </trkpt>
      <trkpt lat="49.18768" lon="-0.4057">
        <ele>55</ele>
        <time>2023-04-21T11:16:21Z</time>
      </trkpt>
      <trkpt lat="49.18767" lon="-0.40563">
        <ele>54.8</ele>
        <time>2023-04-21T11:16:22Z</time>
      </trkpt>
      <trkpt lat="49.18766" lon="-0.40555">
        <ele>54.8</ele>
        <time>2023-04-21T11:16:23Z</time>
      </trkpt>
      <trkpt lat="49.18764" lon="-0.40547">
        <ele>54.6</ele>
        <time>2023-04-21T11:16:24Z</time>
      </trkpt>
      <trkpt lat="49.18763" lon="-0.40538">
        <ele>54.2</ele>
        <time>2023-04-21T11:16:25Z</time>
      </trkpt>
      <trkpt lat="49.18761" lon="-0.40528">
        <ele>54</ele>
        <time>2023-04-21T11:16:26Z</time>
      </trkpt>
      <trkpt lat="49.18759" lon="-0.40519">
        <ele>54</ele>
        <time>2023-04-21T11:16:27Z</time>
      </trkpt>
      <trkpt lat="49.18757" lon="-0.40509">
        <ele>53.6</ele>
        <time>2023-04-21T11:16:28Z</time>
      </trkpt>
      <trkpt lat="49.18755" lon="-0.40498">
        <ele>53.2</ele>
        <time>2023-04-21T11:16:29Z</time>
      </trkpt>
      <trkpt lat="49.18752" lon="-0.40488">
        <ele>53</ele>
        <time>2023-04-21T11:16:30Z</time>
      </trkpt>
      <trkpt lat="49.1875" lon="-0.40478">
        <ele>52.6</ele>
        <time>2023-04-21T11:16:31Z</time>
      </trkpt>
      <trkpt lat="49.18748" lon="-0.40467">
        <ele>52</ele>
        <time>2023-04-21T11:16:32Z</time>
      </trkpt>
      <trkpt lat="49.18745" lon="-0.40457">
        <ele>51.8</ele>
        <time>2023-04-21T11:16:33Z</time>
      </trkpt>
      <trkpt lat="49.18743" lon="-0.40447">
        <ele>51.2</ele>
        <time>2023-04-21T11:16:34Z</time>
      </trkpt>
      <trkpt lat="49.18741" lon="-0.40438">
        <ele>51</ele>
        <time>2023-04-21T11:16:35Z</time>
      </trkpt>
      <trkpt lat="49.18738" lon="-0.40429">
        <ele>50.8</ele>
        <time>2023-04-21T11:16:36Z</time>
      </trkpt>
      <trkpt lat="49.18736" lon="-0.40421">
        <ele>50.4</ele>
        <time>2023-04-21T11:16:37Z</time>
      </trkpt>
      <trkpt lat="49.18735" lon="-0.40414">
        <ele>50.2</ele>
        <time>2023-04-21T11:16:38Z</time>
      </trkpt>
      <trkpt lat="49.18733" lon="-0.40408">
        <ele>50</ele>
        <time>2023-04-21T11:16:39Z</time>
      </trkpt>
      <trkpt lat="49.18732" lon="-0.40403">
        <ele>49.8</ele>
        <time>2023-04-21T11:16:40Z</time>
      </trkpt>
      <trkpt lat="49.18731" lon="-0.404">
        <ele>49.8</ele>
        <time>2023-04-21T11:16:41Z</time>
      </trkpt>
      <trkpt lat="49.1873" lon="-0.40397">
        <ele>49.6</ele>
        <time>2023-04-21T11:16:42Z</time>
      </trkpt>
      <trkpt lat="49.1873" lon="-0.40395">
        <ele>49.6</ele>
        <time>2023-04-21T11:16:43Z</time>
      </trkpt>
      <trkpt lat="49.18729" lon="-0.40393">
        <ele>49.6</ele>
        <time>2023-04-21T11:16:44Z</time>
      </trkpt>
      <trkpt lat="49.18728" lon="-0.40391">
        <ele>49.4</ele>
        <time>2023-04-21T11:16:45Z</time>
      </trkpt>
      <trkpt lat="49.18728" lon="-0.4039">
        <ele>49.4</ele>
        <time>2023-04-21T11:16:46Z</time>
      </trkpt>
      <trkpt lat="49.18727" lon="-0.40389">
        <ele>49.2</ele>
        <time>2023-04-21T11:16:47Z</time>
      </trkpt>
      <trkpt lat="49.18727" lon="-0.40388">
        <ele>49.2</ele>
        <time>2023-04-21T11:16:48Z</time>
      </trkpt>
      <trkpt lat="49.18726" lon="-0.40387">
        <ele>49.2</ele>
        <time>2023-04-21T11:16:49Z</time>
      </trkpt>
      <trkpt lat="49.18726" lon="-0.40385">
        <ele>49.2</ele>
        <time>2023-04-21T11:16:50Z</time>
      </trkpt>
      <trkpt lat="49.18726" lon="-0.40383">
        <ele>49.2</ele>
        <time>2023-04-21T11:16:51Z</time>
      </trkpt>
      <trkpt lat="49.18725" lon="-0.40381">
        <ele>49</ele>
        <time>2023-04-21T11:16:52Z</time>
      </trkpt>
      <trkpt lat="49.18724" lon="-0.40378">
        <ele>49</ele>
        <time>2023-04-21T11:16:53Z</time>
      </trkpt>
      <trkpt lat="49.18723" lon="-0.40377">
        <ele>49</ele>
        <time>2023-04-21T11:16:54Z</time>
      </trkpt>
      <trkpt lat="49.18721" lon="-0.40376">
        <ele>48.8</ele>
        <time>2023-04-21T11:16:55Z</time>
      </trkpt>
      <trkpt lat="49.18719" lon="-0.40376">
        <ele>48.8</ele>
        <time>2023-04-21T11:16:56Z</time>
      </trkpt>
      <trkpt lat="49.18716" lon="-0.40377">
        <ele>48.6</ele>
        <time>2023-04-21T11:16:57Z</time>
      </trkpt>
      <trkpt lat="49.18713" lon="-0.40379">
        <ele>48.6</ele>
        <time>2023-04-21T11:16:58Z</time>
      </trkpt>
      <trkpt lat="49.1871" lon="-0.40381">
        <ele>48.4</ele>
        <time>2023-04-21T11:16:59Z</time>
      </trkpt>
      <trkpt lat="49.18707" lon="-0.40383">
        <ele>48.2</ele>
        <time>2023-04-21T11:17:00Z</time>
      </trkpt>
      <trkpt lat="49.18703" lon="-0.40386">
        <ele>48.2</ele>
        <time>2023-04-21T11:17:01Z</time>
      </trkpt>
      <trkpt lat="49.187" lon="-0.40389">
        <ele>48</ele>
        <time>2023-04-21T11:17:02Z</time>
      </trkpt>
      <trkpt lat="49.18696" lon="-0.40392">
        <ele>48</ele>
        <time>2023-04-21T11:17:03Z</time>
      </trkpt>
      <trkpt lat="49.18692" lon="-0.40396">
        <ele>48</ele>
        <time>2023-04-21T11:17:04Z</time>
      </trkpt>
      <trkpt lat="49.18687" lon="-0.404">
        <ele>47.8</ele>
        <time>2023-04-21T11:17:05Z</time>
      </trkpt>
      <trkpt lat="49.18683" lon="-0.40404">
        <ele>47.6</ele>
        <time>2023-04-21T11:17:06Z</time>
      </trkpt>
      <trkpt lat="49.18678" lon="-0.40409">
        <ele>47.6</ele>
        <time>2023-04-21T11:17:07Z</time>
      </trkpt>
      <trkpt lat="49.18674" lon="-0.40414">
        <ele>47.2</ele>
        <time>2023-04-21T11:17:08Z</time>
      </trkpt>
      <trkpt lat="49.18669" lon="-0.40419">
        <ele>47</ele>
        <time>2023-04-21T11:17:09Z</time>
      </trkpt>
      <trkpt lat="49.18664" lon="-0.40424">
        <ele>46.8</ele>
        <time>2023-04-21T11:17:10Z</time>
      </trkpt>
      <trkpt lat="49.18659" lon="-0.4043">
        <ele>46.6</ele>
        <time>2023-04-21T11:17:11Z</time>
      </trkpt>
      <trkpt lat="49.18654" lon="-0.40435">
        <ele>46.2</ele>
        <time>2023-04-21T11:17:12Z</time>
      </trkpt>
      <trkpt lat="49.18649" lon="-0.40441">
        <ele>46</ele>
        <time>2023-04-21T11:17:13Z</time>
      </trkpt>
      <trkpt lat="49.18643" lon="-0.40446">
        <ele>46</ele>
        <time>2023-04-21T11:17:14Z</time>
      </trkpt>
      <trkpt lat="49.18638" lon="-0.40452">
        <ele>45.8</ele>
        <time>2023-04-21T11:17:15Z</time>
      </trkpt>
      <trkpt lat="49.18633" lon="-0.40458">
        <ele>45.6</ele>
        <time>2023-04-21T11:17:16Z</time>
      </trkpt>
      <trkpt lat="49.18627" lon="-0.40464">
        <ele>45.2</ele>
        <time>2023-04-21T11:17:17Z</time>
      </trkpt>
      <trkpt lat="49.18622" lon="-0.4047">
        <ele>45</ele>
        <time>2023-04-21T11:17:18Z</time>
      </trkpt>
      <trkpt lat="49.18616" lon="-0.40476">
        <ele>45</ele>
        <time>2023-04-21T11:17:19Z</time>
      </trkpt>
      <trkpt lat="49.18611" lon="-0.40482">
        <ele>44.8</ele>
        <time>2023-04-21T11:17:20Z</time>
      </trkpt>
      <trkpt lat="49.18605" lon="-0.40488">
        <ele>44.6</ele>
        <time>2023-04-21T11:17:21Z</time>
      </trkpt>
      <trkpt lat="49.186" lon="-0.40495">
        <ele>44.4</ele>
        <time>2023-04-21T11:17:22Z</time>
      </trkpt>
      <trkpt lat="49.18594" lon="-0.40502">
        <ele>44.2</ele>
        <time>2023-04-21T11:17:23Z</time>
      </trkpt>
      <trkpt lat="49.18589" lon="-0.40509">
        <ele>44.2</ele>
        <time>2023-04-21T11:17:24Z</time>
      </trkpt>
      <trkpt lat="49.18583" lon="-0.40516">
        <ele>44.2</ele>
        <time>2023-04-21T11:17:25Z</time>
      </trkpt>
      <trkpt lat="49.18578" lon="-0.40523">
        <ele>44.2</ele>
        <time>2023-04-21T11:17:26Z</time>
      </trkpt>
      <trkpt lat="49.18572" lon="-0.4053">
        <ele>44</ele>
        <time>2023-04-21T11:17:27Z</time>
      </trkpt>
      <trkpt lat="49.18567" lon="-0.40537">
        <ele>44</ele>
        <time>2023-04-21T11:17:28Z</time>
      </trkpt>
      <trkpt lat="49.18561" lon="-0.40543">
        <ele>44</ele>
        <time>2023-04-21T11:17:29Z</time>
      </trkpt>
      <trkpt lat="49.18556" lon="-0.4055">
        <ele>44</ele>
        <time>2023-04-21T11:17:30Z</time>
      </trkpt>
      <trkpt lat="49.18552" lon="-0.40557">
        <ele>44.2</ele>
        <time>2023-04-21T11:17:31Z</time>
      </trkpt>
      <trkpt lat="49.18548" lon="-0.40562">
        <ele>44.2</ele>
        <time>2023-04-21T11:17:32Z</time>
      </trkpt>
      <trkpt lat="49.18545" lon="-0.40566">
        <ele>44.2</ele>
        <time>2023-04-21T11:17:33Z</time>
      </trkpt>
      <trkpt lat="49.18542" lon="-0.40566">
        <ele>44.2</ele>
        <time>2023-04-21T11:17:34Z</time>
      </trkpt>
      <trkpt lat="49.18541" lon="-0.40565">
        <ele>44.2</ele>
        <time>2023-04-21T11:17:35Z</time>
      </trkpt>
      <trkpt lat="49.18542" lon="-0.40564">
        <ele>44.2</ele>
        <time>2023-04-21T11:17:36Z</time>
      </trkpt>
      <trkpt lat="49.18544" lon="-0.40563">
        <ele>44.2</ele>
        <time>2023-04-21T11:17:37Z</time>
      </trkpt>
      <trkpt lat="49.18546" lon="-0.40561">
        <ele>44.2</ele>
        <time>2023-04-21T11:17:38Z</time>
      </trkpt>
      <trkpt lat="49.18549" lon="-0.40558">
        <ele>44.2</ele>
        <time>2023-04-21T11:17:39Z</time>
      </trkpt>
      <trkpt lat="49.18552" lon="-0.40555">
        <ele>44.2</ele>
        <time>2023-04-21T11:17:40Z</time>
      </trkpt>
      <trkpt lat="49.18554" lon="-0.40552">
        <ele>44</ele>
        <time>2023-04-21T11:17:41Z</time>
      </trkpt>
      <trkpt lat="49.18557" lon="-0.40548">
        <ele>44</ele>
        <time>2023-04-21T11:17:42Z</time>
      </trkpt>
      <trkpt lat="49.1856" lon="-0.40544">
        <ele>44</ele>
        <time>2023-04-21T11:17:43Z</time>
      </trkpt>
      <trkpt lat="49.18562" lon="-0.40541">
        <ele>44</ele>
        <time>2023-04-21T11:17:44Z</time>
      </trkpt>
      <trkpt lat="49.18564" lon="-0.40537">
        <ele>44</ele>
        <time>2023-04-21T11:17:45Z</time>
      </trkpt>
      <trkpt lat="49.18566" lon="-0.40534">
        <ele>44</ele>
        <time>2023-04-21T11:17:46Z</time>
      </trkpt>
      <trkpt lat="49.18567" lon="-0.40532">
        <ele>44</ele>
        <time>2023-04-21T11:17:47Z</time>
      </trkpt>
      <trkpt lat="49.18568" lon="-0.40531">
        <ele>44</ele>
        <time>2023-04-21T11:17:48Z</time>
      </trkpt>
      <trkpt lat="49.18569" lon="-0.40532">
        <ele>44</ele>
        <time>2023-04-21T11:17:49Z</time>
      </trkpt>
      <trkpt lat="49.18568" lon="-0.40535">
        <ele>44</ele>
        <time>2023-04-21T11:17:50Z</time>
      </trkpt>
      <trkpt lat="49.18567" lon="-0.40538">
        <ele>44.2</ele>
        <time>2023-04-21T11:17:51Z</time>
      </trkpt>
      <trkpt lat="49.18566" lon="-0.40541">
        <ele>44.2</ele>
        <time>2023-04-21T11:17:52Z</time>
      </trkpt>
      <trkpt lat="49.18564" lon="-0.40542">
        <ele>44.2</ele>
        <time>2023-04-21T11:17:53Z</time>
      </trkpt>
      <trkpt lat="49.18564" lon="-0.40543">
        <ele>44.2</ele>
        <time>2023-04-21T11:17:54Z</time>
      </trkpt>
      <trkpt lat="49.18564" lon="-0.40543">
        <ele>44.2</ele>
        <time>2023-04-21T11:17:55Z</time>
      </trkpt>
      <trkpt lat="49.18561" lon="-0.40547">
        <ele>44.2</ele>
        <time>2023-04-21T11:20:54Z</time>
      </trkpt>
      <trkpt lat="49.18558" lon="-0.40551">
        <ele>44.2</ele>
        <time>2023-04-21T11:20:55Z</time>
      </trkpt>
      <trkpt lat="49.18554" lon="-0.40556">
        <ele>44.2</ele>
        <time>2023-04-21T11:20:56Z</time>
      </trkpt>
      <trkpt lat="49.1855" lon="-0.40561">
        <ele>44.2</ele>
        <time>2023-04-21T11:20:57Z</time>
      </trkpt>
      <trkpt lat="49.18546" lon="-0.40566">
        <ele>44.2</ele>
        <time>2023-04-21T11:20:58Z</time>
      </trkpt>
      <trkpt lat="49.18542" lon="-0.40571">
        <ele>44.2</ele>
        <time>2023-04-21T11:20:59Z</time>
      </trkpt>
      <trkpt lat="49.18538" lon="-0.40575">
        <ele>44.2</ele>
        <time>2023-04-21T11:21:00Z</time>
      </trkpt>
      <trkpt lat="49.18533" lon="-0.40578">
        <ele>44.2</ele>
        <time>2023-04-21T11:21:01Z</time>
      </trkpt>
      <trkpt lat="49.18528" lon="-0.40578">
        <ele>44.2</ele>
        <time>2023-04-21T11:21:02Z</time>
      </trkpt>
      <trkpt lat="49.18523" lon="-0.40575">
        <ele>44</ele>
        <time>2023-04-21T11:21:03Z</time>
      </trkpt>
      <trkpt lat="49.18519" lon="-0.40571">
        <ele>44</ele>
        <time>2023-04-21T11:21:04Z</time>
      </trkpt>
      <trkpt lat="49.18515" lon="-0.40565">
        <ele>43.8</ele>
        <time>2023-04-21T11:21:05Z</time>
      </trkpt>
      <trkpt lat="49.18511" lon="-0.40559">
        <ele>43.6</ele>
        <time>2023-04-21T11:21:06Z</time>
      </trkpt>
      <trkpt lat="49.18506" lon="-0.40553">
        <ele>43.4</ele>
        <time>2023-04-21T11:21:07Z</time>
      </trkpt>
      <trkpt lat="49.18502" lon="-0.40547">
        <ele>43.2</ele>
        <time>2023-04-21T11:21:08Z</time>
      </trkpt>
      <trkpt lat="49.18498" lon="-0.40541">
        <ele>43</ele>
        <time>2023-04-21T11:21:09Z</time>
      </trkpt>
      <trkpt lat="49.18493" lon="-0.40534">
        <ele>42.8</ele>
        <time>2023-04-21T11:21:10Z</time>
      </trkpt>
      <trkpt lat="49.18489" lon="-0.40528">
        <ele>42.6</ele>
        <time>2023-04-21T11:21:11Z</time>
      </trkpt>
      <trkpt lat="49.18484" lon="-0.40522">
        <ele>42.4</ele>
        <time>2023-04-21T11:21:12Z</time>
      </trkpt>
      <trkpt lat="49.18479" lon="-0.40515">
        <ele>42.2</ele>
        <time>2023-04-21T11:21:13Z</time>
      </trkpt>
      <trkpt lat="49.18475" lon="-0.40509">
        <ele>42</ele>
        <time>2023-04-21T11:21:14Z</time>
      </trkpt>
      <trkpt lat="49.1847" lon="-0.40502">
        <ele>42</ele>
        <time>2023-04-21T11:21:15Z</time>
      </trkpt>
      <trkpt lat="49.18465" lon="-0.40495">
        <ele>42</ele>
        <time>2023-04-21T11:21:16Z</time>
      </trkpt>
      <trkpt lat="49.18461" lon="-0.40488">
        <ele>42</ele>
        <time>2023-04-21T11:21:17Z</time>
      </trkpt>
      <trkpt lat="49.18456" lon="-0.40483">
        <ele>42</ele>
        <time>2023-04-21T11:21:18Z</time>
      </trkpt>
      <trkpt lat="49.18451" lon="-0.40481">
        <ele>42</ele>
        <time>2023-04-21T11:21:19Z</time>
      </trkpt>
      <trkpt lat="49.18445" lon="-0.40482">
        <ele>42</ele>
        <time>2023-04-21T11:21:20Z</time>
      </trkpt>
      <trkpt lat="49.18439" lon="-0.40484">
        <ele>42</ele>
        <time>2023-04-21T11:21:21Z</time>
      </trkpt>
      <trkpt lat="49.18434" lon="-0.40488">
        <ele>42</ele>
        <time>2023-04-21T11:21:22Z</time>
      </trkpt>
      <trkpt lat="49.18428" lon="-0.40492">
        <ele>42</ele>
        <time>2023-04-21T11:21:23Z</time>
      </trkpt>
      <trkpt lat="49.18422" lon="-0.40497">
        <ele>42</ele>
        <time>2023-04-21T11:21:24Z</time>
      </trkpt>
      <trkpt lat="49.18417" lon="-0.40502">
        <ele>42</ele>
        <time>2023-04-21T11:21:25Z</time>
      </trkpt>
      <trkpt lat="49.18411" lon="-0.40507">
        <ele>42</ele>
        <time>2023-04-21T11:21:26Z</time>
      </trkpt>
      <trkpt lat="49.18405" lon="-0.40512">
        <ele>42</ele>
        <time>2023-04-21T11:21:27Z</time>
      </trkpt>
      <trkpt lat="49.184" lon="-0.40517">
        <ele>42</ele>
        <time>2023-04-21T11:21:28Z</time>
      </trkpt>
      <trkpt lat="49.18394" lon="-0.40522">
        <ele>42</ele>
        <time>2023-04-21T11:21:29Z</time>
      </trkpt>
      <trkpt lat="49.18389" lon="-0.40527">
        <ele>42</ele>
        <time>2023-04-21T11:21:30Z</time>
      </trkpt>
      <trkpt lat="49.18383" lon="-0.40532">
        <ele>42</ele>
        <time>2023-04-21T11:21:31Z</time>
      </trkpt>
      <trkpt lat="49.18377" lon="-0.40537">
        <ele>42</ele>
        <time>2023-04-21T11:21:32Z</time>
      </trkpt>
      <trkpt lat="49.18372" lon="-0.40542">
        <ele>42</ele>
        <time>2023-04-21T11:21:33Z</time>
      </trkpt>
      <trkpt lat="49.18366" lon="-0.40547">
        <ele>42</ele>
        <time>2023-04-21T11:21:34Z</time>
      </trkpt>
      <trkpt lat="49.1836" lon="-0.40553">
        <ele>42.2</ele>
        <time>2023-04-21T11:21:35Z</time>
      </trkpt>
      <trkpt lat="49.18355" lon="-0.40558">
        <ele>42.2</ele>
        <time>2023-04-21T11:21:36Z</time>
      </trkpt>
      <trkpt lat="49.18349" lon="-0.40563">
        <ele>42.6</ele>
        <time>2023-04-21T11:21:37Z</time>
      </trkpt>
      <trkpt lat="49.18343" lon="-0.40569">
        <ele>42.6</ele>
        <time>2023-04-21T11:21:38Z</time>
      </trkpt>
      <trkpt lat="49.18338" lon="-0.40574">
        <ele>42.8</ele>
        <time>2023-04-21T11:21:39Z</time>
      </trkpt>
      <trkpt lat="49.18332" lon="-0.40579">
        <ele>43</ele>
        <time>2023-04-21T11:21:40Z</time>
      </trkpt>
      <trkpt lat="49.18326" lon="-0.40584">
        <ele>42.8</ele>
        <time>2023-04-21T11:21:41Z</time>
      </trkpt>
      <trkpt lat="49.18321" lon="-0.40589">
        <ele>42.4</ele>
        <time>2023-04-21T11:21:42Z</time>
      </trkpt>
      <trkpt lat="49.18316" lon="-0.40593">
        <ele>42.2</ele>
        <time>2023-04-21T11:21:43Z</time>
      </trkpt>
      <trkpt lat="49.18312" lon="-0.40597">
        <ele>42</ele>
        <time>2023-04-21T11:21:44Z</time>
      </trkpt>
      <trkpt lat="49.18307" lon="-0.40601">
        <ele>41.8</ele>
        <time>2023-04-21T11:21:45Z</time>
      </trkpt>
      <trkpt lat="49.18304" lon="-0.40604">
        <ele>41.6</ele>
        <time>2023-04-21T11:21:46Z</time>
      </trkpt>
      <trkpt lat="49.18301" lon="-0.40606">
        <ele>41.4</ele>
        <time>2023-04-21T11:21:47Z</time>
      </trkpt>
      <trkpt lat="49.18299" lon="-0.40608">
        <ele>41.2</ele>
        <time>2023-04-21T11:21:48Z</time>
      </trkpt>
      <trkpt lat="49.18298" lon="-0.40609">
        <ele>41.2</ele>
        <time>2023-04-21T11:21:49Z</time>
      </trkpt>
      <trkpt lat="49.18298" lon="-0.4061">
        <ele>41.2</ele>
        <time>2023-04-21T11:21:50Z</time>
      </trkpt>
      <trkpt lat="49.18298" lon="-0.40611">
        <ele>41.2</ele>
        <time>2023-04-21T11:21:51Z</time>
      </trkpt>
      <trkpt lat="49.18298" lon="-0.40612">
        <ele>41.2</ele>
        <time>2023-04-21T11:21:52Z</time>
      </trkpt>
      <trkpt lat="49.18297" lon="-0.40613">
        <ele>41</ele>
        <time>2023-04-21T11:21:53Z</time>
      </trkpt>
      <trkpt lat="49.18297" lon="-0.40613">
        <ele>41</ele>
        <time>2023-04-21T11:21:54Z</time>
      </trkpt>
      <trkpt lat="49.18297" lon="-0.40613">
        <ele>41</ele>
        <time>2023-04-21T11:21:55Z</time>
      </trkpt>
      <trkpt lat="49.18297" lon="-0.40613">
        <ele>41</ele>
        <time>2023-04-21T11:21:56Z</time>
      </trkpt>
      <trkpt lat="49.18297" lon="-0.40613">
        <ele>41</ele>
        <time>2023-04-21T11:21:57Z</time>
      </trkpt>
      <trkpt lat="49.18297" lon="-0.40613">
        <ele>41</ele>
        <time>2023-04-21T11:21:58Z</time>
      </trkpt>
      <trkpt lat="49.18297" lon="-0.40613">
        <ele>41</ele>
        <time>2023-04-21T11:21:59Z</time>
      </trkpt>
      <trkpt lat="49.18296" lon="-0.40613">
        <ele>41</ele>
        <time>2023-04-21T11:22:00Z</time>
      </trkpt>
      <trkpt lat="49.18294" lon="-0.40614">
        <ele>41</ele>
        <time>2023-04-21T11:22:01Z</time>
      </trkpt>
      <trkpt lat="49.18292" lon="-0.40613">
        <ele>41</ele>
        <time>2023-04-21T11:22:02Z</time>
      </trkpt>
      <trkpt lat="49.18289" lon="-0.40612">
        <ele>41</ele>
        <time>2023-04-21T11:22:03Z</time>
      </trkpt>
      <trkpt lat="49.18287" lon="-0.40608">
        <ele>41</ele>
        <time>2023-04-21T11:22:04Z</time>
      </trkpt>
      <trkpt lat="49.18285" lon="-0.40603">
        <ele>41</ele>
        <time>2023-04-21T11:22:05Z</time>
      </trkpt>
      <trkpt lat="49.18283" lon="-0.40597">
        <ele>41</ele>
        <time>2023-04-21T11:22:06Z</time>
      </trkpt>
      <trkpt lat="49.1828" lon="-0.40592">
        <ele>41</ele>
        <time>2023-04-21T11:22:07Z</time>
      </trkpt>
      <trkpt lat="49.18278" lon="-0.40585">
        <ele>41</ele>
        <time>2023-04-21T11:22:08Z</time>
      </trkpt>
      <trkpt lat="49.18276" lon="-0.40578">
        <ele>41</ele>
        <time>2023-04-21T11:22:09Z</time>
      </trkpt>
      <trkpt lat="49.18273" lon="-0.40571">
        <ele>41</ele>
        <time>2023-04-21T11:22:10Z</time>
      </trkpt>
      <trkpt lat="49.1827" lon="-0.40563">
        <ele>40.8</ele>
        <time>2023-04-21T11:22:11Z</time>
      </trkpt>
      <trkpt lat="49.18267" lon="-0.40555">
        <ele>40.8</ele>
        <time>2023-04-21T11:22:12Z</time>
      </trkpt>
      <trkpt lat="49.18265" lon="-0.40547">
        <ele>40.8</ele>
        <time>2023-04-21T11:22:13Z</time>
      </trkpt>
      <trkpt lat="49.18262" lon="-0.40539">
        <ele>40.8</ele>
        <time>2023-04-21T11:22:14Z</time>
      </trkpt>
      <trkpt lat="49.18259" lon="-0.4053">
        <ele>40.8</ele>
        <time>2023-04-21T11:22:15Z</time>
      </trkpt>
      <trkpt lat="49.18256" lon="-0.40521">
        <ele>41</ele>
        <time>2023-04-21T11:22:16Z</time>
      </trkpt>
      <trkpt lat="49.18253" lon="-0.40512">
        <ele>41</ele>
        <time>2023-04-21T11:22:17Z</time>
      </trkpt>
      <trkpt lat="49.18251" lon="-0.40503">
        <ele>41</ele>
        <time>2023-04-21T11:22:18Z</time>
      </trkpt>
      <trkpt lat="49.18248" lon="-0.40494">
        <ele>41</ele>
        <time>2023-04-21T11:22:19Z</time>
      </trkpt>
      <trkpt lat="49.18246" lon="-0.40485">
        <ele>41</ele>
        <time>2023-04-21T11:22:20Z</time>
      </trkpt>
      <trkpt lat="49.18243" lon="-0.40475">
        <ele>40.8</ele>
        <time>2023-04-21T11:22:21Z</time>
      </trkpt>
      <trkpt lat="49.1824" lon="-0.40466">
        <ele>40.8</ele>
        <time>2023-04-21T11:22:22Z</time>
      </trkpt>
      <trkpt lat="49.18238" lon="-0.40457">
        <ele>40.8</ele>
        <time>2023-04-21T11:22:23Z</time>
      </trkpt>
      <trkpt lat="49.18236" lon="-0.40448">
        <ele>40.8</ele>
        <time>2023-04-21T11:22:24Z</time>
      </trkpt>
      <trkpt lat="49.18233" lon="-0.40438">
        <ele>40.6</ele>
        <time>2023-04-21T11:22:25Z</time>
      </trkpt>
      <trkpt lat="49.18231" lon="-0.40428">
        <ele>40.6</ele>
        <time>2023-04-21T11:22:26Z</time>
      </trkpt>
      <trkpt lat="49.18229" lon="-0.40419">
        <ele>40.6</ele>
        <time>2023-04-21T11:22:27Z</time>
      </trkpt>
      <trkpt lat="49.18227" lon="-0.40409">
        <ele>40.4</ele>
        <time>2023-04-21T11:22:28Z</time>
      </trkpt>
      <trkpt lat="49.18225" lon="-0.40399">
        <ele>40.2</ele>
        <time>2023-04-21T11:22:29Z</time>
      </trkpt>
      <trkpt lat="49.18223" lon="-0.40389">
        <ele>40</ele>
        <time>2023-04-21T11:22:30Z</time>
      </trkpt>
      <trkpt lat="49.18221" lon="-0.4038">
        <ele>40</ele>
        <time>2023-04-21T11:22:31Z</time>
      </trkpt>
      <trkpt lat="49.18219" lon="-0.4037">
        <ele>40</ele>
        <time>2023-04-21T11:22:32Z</time>
      </trkpt>
      <trkpt lat="49.18217" lon="-0.4036">
        <ele>39.8</ele>
        <time>2023-04-21T11:22:33Z</time>
      </trkpt>
      <trkpt lat="49.18215" lon="-0.40351">
        <ele>39.8</ele>
        <time>2023-04-21T11:22:34Z</time>
      </trkpt>
      <trkpt lat="49.18213" lon="-0.40341">
        <ele>39.6</ele>
        <time>2023-04-21T11:22:35Z</time>
      </trkpt>
      <trkpt lat="49.18211" lon="-0.40331">
        <ele>39.6</ele>
        <time>2023-04-21T11:22:36Z</time>
      </trkpt>
      <trkpt lat="49.18209" lon="-0.40321">
        <ele>39.4</ele>
        <time>2023-04-21T11:22:37Z</time>
      </trkpt>
      <trkpt lat="49.18207" lon="-0.40311">
        <ele>39.4</ele>
        <time>2023-04-21T11:22:38Z</time>
      </trkpt>
      <trkpt lat="49.18205" lon="-0.40301">
        <ele>39.2</ele>
        <time>2023-04-21T11:22:39Z</time>
      </trkpt>
      <trkpt lat="49.18203" lon="-0.40292">
        <ele>39.2</ele>
        <time>2023-04-21T11:22:40Z</time>
      </trkpt>
      <trkpt lat="49.18201" lon="-0.40282">
        <ele>39.2</ele>
        <time>2023-04-21T11:22:41Z</time>
      </trkpt>
      <trkpt lat="49.182" lon="-0.40272">
        <ele>39.2</ele>
        <time>2023-04-21T11:22:42Z</time>
      </trkpt>
      <trkpt lat="49.18197" lon="-0.40262">
        <ele>39.2</ele>
        <time>2023-04-21T11:22:43Z</time>
      </trkpt>
      <trkpt lat="49.18196" lon="-0.40252">
        <ele>39.2</ele>
        <time>2023-04-21T11:22:44Z</time>
      </trkpt>
      <trkpt lat="49.18194" lon="-0.40243">
        <ele>39.2</ele>
        <time>2023-04-21T11:22:45Z</time>
      </trkpt>
      <trkpt lat="49.18191" lon="-0.40233">
        <ele>39.2</ele>
        <time>2023-04-21T11:22:46Z</time>
      </trkpt>
      <trkpt lat="49.1819" lon="-0.40224">
        <ele>39.2</ele>
        <time>2023-04-21T11:22:47Z</time>
      </trkpt>
      <trkpt lat="49.18188" lon="-0.40215">
        <ele>39.2</ele>
        <time>2023-04-21T11:22:48Z</time>
      </trkpt>
      <trkpt lat="49.18186" lon="-0.40206">
        <ele>39</ele>
        <time>2023-04-21T11:22:49Z</time>
      </trkpt>
      <trkpt lat="49.18184" lon="-0.40198">
        <ele>39</ele>
        <time>2023-04-21T11:22:50Z</time>
      </trkpt>
      <trkpt lat="49.18182" lon="-0.40192">
        <ele>39</ele>
        <time>2023-04-21T11:22:51Z</time>
      </trkpt>
      <trkpt lat="49.18179" lon="-0.40188">
        <ele>39</ele>
        <time>2023-04-21T11:22:52Z</time>
      </trkpt>
      <trkpt lat="49.18175" lon="-0.40185">
        <ele>39</ele>
        <time>2023-04-21T11:22:53Z</time>
      </trkpt>
      <trkpt lat="49.18173" lon="-0.4018">
        <ele>39</ele>
        <time>2023-04-21T11:22:54Z</time>
      </trkpt>
      <trkpt lat="49.18172" lon="-0.40174">
        <ele>39</ele>
        <time>2023-04-21T11:22:55Z</time>
      </trkpt>
      <trkpt lat="49.18169" lon="-0.40169">
        <ele>39</ele>
        <time>2023-04-21T11:22:56Z</time>
      </trkpt>
      <trkpt lat="49.18165" lon="-0.40166">
        <ele>39</ele>
        <time>2023-04-21T11:22:57Z</time>
      </trkpt>
      <trkpt lat="49.18161" lon="-0.40164">
        <ele>39</ele>
        <time>2023-04-21T11:22:58Z</time>
      </trkpt>
      <trkpt lat="49.18157" lon="-0.40162">
        <ele>39.2</ele>
        <time>2023-04-21T11:22:59Z</time>
      </trkpt>
      <trkpt lat="49.18152" lon="-0.40159">
        <ele>39.2</ele>
        <time>2023-04-21T11:23:00Z</time>
      </trkpt>
      <trkpt lat="49.18149" lon="-0.40155">
        <ele>39.4</ele>
        <time>2023-04-21T11:23:01Z</time>
      </trkpt>
      <trkpt lat="49.18145" lon="-0.40151">
        <ele>39.6</ele>
        <time>2023-04-21T11:23:02Z</time>
      </trkpt>
      <trkpt lat="49.18141" lon="-0.40147">
        <ele>39.6</ele>
        <time>2023-04-21T11:23:03Z</time>
      </trkpt>
      <trkpt lat="49.18137" lon="-0.40143">
        <ele>39.6</ele>
        <time>2023-04-21T11:23:04Z</time>
      </trkpt>
      <trkpt lat="49.18133" lon="-0.40138">
        <ele>39.8</ele>
        <time>2023-04-21T11:23:05Z</time>
      </trkpt>
      <trkpt lat="49.18129" lon="-0.40133">
        <ele>39.8</ele>
        <time>2023-04-21T11:23:06Z</time>
      </trkpt>
      <trkpt lat="49.18125" lon="-0.40128">
        <ele>39.8</ele>
        <time>2023-04-21T11:23:07Z</time>
      </trkpt>
      <trkpt lat="49.18122" lon="-0.40124">
        <ele>39.8</ele>
        <time>2023-04-21T11:23:08Z</time>
      </trkpt>
      <trkpt lat="49.18119" lon="-0.40121">
        <ele>39.8</ele>
        <time>2023-04-21T11:23:09Z</time>
      </trkpt>
      <trkpt lat="49.18116" lon="-0.40119">
        <ele>40</ele>
        <time>2023-04-21T11:23:10Z</time>
      </trkpt>
      <trkpt lat="49.18114" lon="-0.40116">
        <ele>40</ele>
        <time>2023-04-21T11:23:11Z</time>
      </trkpt>
      <trkpt lat="49.18111" lon="-0.40113">
        <ele>40</ele>
        <time>2023-04-21T11:23:12Z</time>
      </trkpt>
      <trkpt lat="49.18108" lon="-0.40108">
        <ele>40</ele>
        <time>2023-04-21T11:23:13Z</time>
      </trkpt>
      <trkpt lat="49.18104" lon="-0.40103">
        <ele>40</ele>
        <time>2023-04-21T11:23:14Z</time>
      </trkpt>
      <trkpt lat="49.181" lon="-0.40098">
        <ele>40</ele>
        <time>2023-04-21T11:23:15Z</time>
      </trkpt>
      <trkpt lat="49.18095" lon="-0.40092">
        <ele>40</ele>
        <time>2023-04-21T11:23:16Z</time>
      </trkpt>
      <trkpt lat="49.1809" lon="-0.40087">
        <ele>40</ele>
        <time>2023-04-21T11:23:17Z</time>
      </trkpt>
      <trkpt lat="49.18085" lon="-0.40082">
        <ele>40</ele>
        <time>2023-04-21T11:23:18Z</time>
      </trkpt>
      <trkpt lat="49.1808" lon="-0.40076">
        <ele>40</ele>
        <time>2023-04-21T11:23:19Z</time>
      </trkpt>
      <trkpt lat="49.18075" lon="-0.40071">
        <ele>40</ele>
        <time>2023-04-21T11:23:20Z</time>
      </trkpt>
      <trkpt lat="49.1807" lon="-0.40065">
        <ele>40.2</ele>
        <time>2023-04-21T11:23:21Z</time>
      </trkpt>
      <trkpt lat="49.18065" lon="-0.40059">
        <ele>40.2</ele>
        <time>2023-04-21T11:23:22Z</time>
      </trkpt>
      <trkpt lat="49.1806" lon="-0.40053">
        <ele>40.2</ele>
        <time>2023-04-21T11:23:23Z</time>
      </trkpt>
      <trkpt lat="49.18055" lon="-0.40047">
        <ele>40.2</ele>
        <time>2023-04-21T11:23:24Z</time>
      </trkpt>
      <trkpt lat="49.1805" lon="-0.40041">
        <ele>40.4</ele>
        <time>2023-04-21T11:23:25Z</time>
      </trkpt>
      <trkpt lat="49.18045" lon="-0.40035">
        <ele>40.6</ele>
        <time>2023-04-21T11:23:26Z</time>
      </trkpt>
      <trkpt lat="49.1804" lon="-0.40029">
        <ele>40.6</ele>
        <time>2023-04-21T11:23:27Z</time>
      </trkpt>
      <trkpt lat="49.18035" lon="-0.40023">
        <ele>40.6</ele>
        <time>2023-04-21T11:23:28Z</time>
      </trkpt>
      <trkpt lat="49.1803" lon="-0.40017">
        <ele>40.6</ele>
        <time>2023-04-21T11:23:29Z</time>
      </trkpt>
      <trkpt lat="49.18025" lon="-0.40012">
        <ele>40.8</ele>
        <time>2023-04-21T11:23:30Z</time>
      </trkpt>
      <trkpt lat="49.1802" lon="-0.40006">
        <ele>40.8</ele>
        <time>2023-04-21T11:23:31Z</time>
      </trkpt>
      <trkpt lat="49.18014" lon="-0.4">
        <ele>40.8</ele>
        <time>2023-04-21T11:23:32Z</time>
      </trkpt>
      <trkpt lat="49.18009" lon="-0.39995">
        <ele>40.8</ele>
        <time>2023-04-21T11:23:33Z</time>
      </trkpt>
      <trkpt lat="49.18004" lon="-0.39989">
        <ele>40.8</ele>
        <time>2023-04-21T11:23:34Z</time>
      </trkpt>
      <trkpt lat="49.17999" lon="-0.39984">
        <ele>40.8</ele>
        <time>2023-04-21T11:23:35Z</time>
      </trkpt>
      <trkpt lat="49.17993" lon="-0.39979">
        <ele>40.8</ele>
        <time>2023-04-21T11:23:36Z</time>
      </trkpt>
      <trkpt lat="49.17988" lon="-0.39973">
        <ele>40.8</ele>
        <time>2023-04-21T11:23:37Z</time>
      </trkpt>
      <trkpt lat="49.17982" lon="-0.39968">
        <ele>41</ele>
        <time>2023-04-21T11:23:38Z</time>
      </trkpt>
      <trkpt lat="49.17977" lon="-0.39963">
        <ele>41</ele>
        <time>2023-04-21T11:23:39Z</time>
      </trkpt>
      <trkpt lat="49.17971" lon="-0.39959">
        <ele>41</ele>
        <time>2023-04-21T11:23:40Z</time>
      </trkpt>
      <trkpt lat="49.17966" lon="-0.39954">
        <ele>41</ele>
        <time>2023-04-21T11:23:41Z</time>
      </trkpt>
      <trkpt lat="49.1796" lon="-0.39949">
        <ele>41.2</ele>
        <time>2023-04-21T11:23:42Z</time>
      </trkpt>
      <trkpt lat="49.17955" lon="-0.39945">
        <ele>41.4</ele>
        <time>2023-04-21T11:23:43Z</time>
      </trkpt>
      <trkpt lat="49.17949" lon="-0.3994">
        <ele>41.6</ele>
        <time>2023-04-21T11:23:44Z</time>
      </trkpt>
      <trkpt lat="49.17943" lon="-0.39936">
        <ele>41.8</ele>
        <time>2023-04-21T11:23:45Z</time>
      </trkpt>
      <trkpt lat="49.17938" lon="-0.39932">
        <ele>42</ele>
        <time>2023-04-21T11:23:46Z</time>
      </trkpt>
      <trkpt lat="49.17932" lon="-0.39927">
        <ele>42.2</ele>
        <time>2023-04-21T11:23:47Z</time>
      </trkpt>
      <trkpt lat="49.17926" lon="-0.39923">
        <ele>42.6</ele>
        <time>2023-04-21T11:23:48Z</time>
      </trkpt>
      <trkpt lat="49.1792" lon="-0.39919">
        <ele>42.8</ele>
        <time>2023-04-21T11:23:49Z</time>
      </trkpt>
      <trkpt lat="49.17914" lon="-0.39915">
        <ele>43</ele>
        <time>2023-04-21T11:23:50Z</time>
      </trkpt>
      <trkpt lat="49.17909" lon="-0.39911">
        <ele>43</ele>
        <time>2023-04-21T11:23:51Z</time>
      </trkpt>
      <trkpt lat="49.17903" lon="-0.39907">
        <ele>42.8</ele>
        <time>2023-04-21T11:23:52Z</time>
      </trkpt>
      <trkpt lat="49.17897" lon="-0.39904">
        <ele>42.6</ele>
        <time>2023-04-21T11:23:53Z</time>
      </trkpt>
      <trkpt lat="49.17891" lon="-0.399">
        <ele>42.6</ele>
        <time>2023-04-21T11:23:54Z</time>
      </trkpt>
      <trkpt lat="49.17885" lon="-0.39896">
        <ele>42.4</ele>
        <time>2023-04-21T11:23:55Z</time>
      </trkpt>
      <trkpt lat="49.1788" lon="-0.39891">
        <ele>42.2</ele>
        <time>2023-04-21T11:23:56Z</time>
      </trkpt>
      <trkpt lat="49.17874" lon="-0.39887">
        <ele>42</ele>
        <time>2023-04-21T11:23:57Z</time>
      </trkpt>
      <trkpt lat="49.17868" lon="-0.39883">
        <ele>42</ele>
        <time>2023-04-21T11:23:58Z</time>
      </trkpt>
      <trkpt lat="49.17863" lon="-0.39879">
        <ele>42</ele>
        <time>2023-04-21T11:23:59Z</time>
      </trkpt>
      <trkpt lat="49.17857" lon="-0.39875">
        <ele>41.8</ele>
        <time>2023-04-21T11:24:00Z</time>
      </trkpt>
      <trkpt lat="49.17851" lon="-0.39871">
        <ele>41.6</ele>
        <time>2023-04-21T11:24:01Z</time>
      </trkpt>
      <trkpt lat="49.17845" lon="-0.39866">
        <ele>41.4</ele>
        <time>2023-04-21T11:24:02Z</time>
      </trkpt>
      <trkpt lat="49.17839" lon="-0.39862">
        <ele>41.2</ele>
        <time>2023-04-21T11:24:03Z</time>
      </trkpt>
      <trkpt lat="49.17834" lon="-0.39858">
        <ele>41</ele>
        <time>2023-04-21T11:24:04Z</time>
      </trkpt>
      <trkpt lat="49.17828" lon="-0.39853">
        <ele>41</ele>
        <time>2023-04-21T11:24:05Z</time>
      </trkpt>
      <trkpt lat="49.17822" lon="-0.39849">
        <ele>41</ele>
        <time>2023-04-21T11:24:06Z</time>
      </trkpt>
      <trkpt lat="49.17816" lon="-0.39845">
        <ele>41</ele>
        <time>2023-04-21T11:24:07Z</time>
      </trkpt>
      <trkpt lat="49.1781" lon="-0.39841">
        <ele>41</ele>
        <time>2023-04-21T11:24:08Z</time>
      </trkpt>
      <trkpt lat="49.17804" lon="-0.39837">
        <ele>41</ele>
        <time>2023-04-21T11:24:09Z</time>
      </trkpt>
      <trkpt lat="49.17798" lon="-0.39833">
        <ele>41</ele>
        <time>2023-04-21T11:24:10Z</time>
      </trkpt>
      <trkpt lat="49.17792" lon="-0.3983">
        <ele>41</ele>
        <time>2023-04-21T11:24:11Z</time>
      </trkpt>
      <trkpt lat="49.17786" lon="-0.39826">
        <ele>41</ele>
        <time>2023-04-21T11:24:12Z</time>
      </trkpt>
      <trkpt lat="49.17781" lon="-0.39822">
        <ele>41</ele>
        <time>2023-04-21T11:24:13Z</time>
      </trkpt>
      <trkpt lat="49.17775" lon="-0.39817">
        <ele>41</ele>
        <time>2023-04-21T11:24:14Z</time>
      </trkpt>
      <trkpt lat="49.17769" lon="-0.39813">
        <ele>41</ele>
        <time>2023-04-21T11:24:15Z</time>
      </trkpt>
      <trkpt lat="49.17763" lon="-0.39808">
        <ele>41</ele>
        <time>2023-04-21T11:24:16Z</time>
      </trkpt>
      <trkpt lat="49.17757" lon="-0.39804">
        <ele>41</ele>
        <time>2023-04-21T11:24:17Z</time>
      </trkpt>
      <trkpt lat="49.17752" lon="-0.39799">
        <ele>41</ele>
        <time>2023-04-21T11:24:18Z</time>
      </trkpt>
      <trkpt lat="49.17746" lon="-0.39795">
        <ele>41</ele>
        <time>2023-04-21T11:24:19Z</time>
      </trkpt>
      <trkpt lat="49.17741" lon="-0.39791">
        <ele>41</ele>
        <time>2023-04-21T11:24:20Z</time>
      </trkpt>
      <trkpt lat="49.17736" lon="-0.39786">
        <ele>41</ele>
        <time>2023-04-21T11:24:21Z</time>
      </trkpt>
      <trkpt lat="49.17731" lon="-0.39782">
        <ele>41</ele>
        <time>2023-04-21T11:24:22Z</time>
      </trkpt>
      <trkpt lat="49.17726" lon="-0.39779">
        <ele>41</ele>
        <time>2023-04-21T11:24:23Z</time>
      </trkpt>
      <trkpt lat="49.17721" lon="-0.39778">
        <ele>41</ele>
        <time>2023-04-21T11:24:24Z</time>
      </trkpt>
      <trkpt lat="49.17716" lon="-0.39776">
        <ele>41</ele>
        <time>2023-04-21T11:24:25Z</time>
      </trkpt>
      <trkpt lat="49.17712" lon="-0.39771">
        <ele>41</ele>
        <time>2023-04-21T11:24:26Z</time>
      </trkpt>
      <trkpt lat="49.17709" lon="-0.39765">
        <ele>41</ele>
        <time>2023-04-21T11:24:27Z</time>
      </trkpt>
      <trkpt lat="49.17705" lon="-0.39759">
        <ele>41</ele>
        <time>2023-04-21T11:24:28Z</time>
      </trkpt>
      <trkpt lat="49.177" lon="-0.39754">
        <ele>41</ele>
        <time>2023-04-21T11:24:29Z</time>
      </trkpt>
      <trkpt lat="49.17695" lon="-0.39749">
        <ele>41</ele>
        <time>2023-04-21T11:24:30Z</time>
      </trkpt>
      <trkpt lat="49.1769" lon="-0.39745">
        <ele>41</ele>
        <time>2023-04-21T11:24:31Z</time>
      </trkpt>
      <trkpt lat="49.17685" lon="-0.39741">
        <ele>41</ele>
        <time>2023-04-21T11:24:32Z</time>
      </trkpt>
      <trkpt lat="49.1768" lon="-0.39736">
        <ele>41</ele>
        <time>2023-04-21T11:24:33Z</time>
      </trkpt>
      <trkpt lat="49.17675" lon="-0.39731">
        <ele>40.8</ele>
        <time>2023-04-21T11:24:34Z</time>
      </trkpt>
      <trkpt lat="49.1767" lon="-0.39726">
        <ele>40.8</ele>
        <time>2023-04-21T11:24:35Z</time>
      </trkpt>
      <trkpt lat="49.17665" lon="-0.39722">
        <ele>40.8</ele>
        <time>2023-04-21T11:24:36Z</time>
      </trkpt>
      <trkpt lat="49.17659" lon="-0.39717">
        <ele>40.6</ele>
        <time>2023-04-21T11:24:37Z</time>
      </trkpt>
      <trkpt lat="49.17654" lon="-0.39712">
        <ele>40.6</ele>
        <time>2023-04-21T11:24:38Z</time>
      </trkpt>
      <trkpt lat="49.17649" lon="-0.39707">
        <ele>40.6</ele>
        <time>2023-04-21T11:24:39Z</time>
      </trkpt>
      <trkpt lat="49.17643" lon="-0.39702">
        <ele>40.6</ele>
        <time>2023-04-21T11:24:40Z</time>
      </trkpt>
      <trkpt lat="49.17638" lon="-0.39697">
        <ele>40.6</ele>
        <time>2023-04-21T11:24:41Z</time>
      </trkpt>
      <trkpt lat="49.17632" lon="-0.39692">
        <ele>40.6</ele>
        <time>2023-04-21T11:24:42Z</time>
      </trkpt>
      <trkpt lat="49.17627" lon="-0.39687">
        <ele>40.6</ele>
        <time>2023-04-21T11:24:43Z</time>
      </trkpt>
      <trkpt lat="49.17621" lon="-0.39681">
        <ele>40.6</ele>
        <time>2023-04-21T11:24:44Z</time>
      </trkpt>
      <trkpt lat="49.17616" lon="-0.39676">
        <ele>40.8</ele>
        <time>2023-04-21T11:24:45Z</time>
      </trkpt>
      <trkpt lat="49.1761" lon="-0.39671">
        <ele>40.8</ele>
        <time>2023-04-21T11:24:46Z</time>
      </trkpt>
      <trkpt lat="49.17605" lon="-0.39665">
        <ele>40.8</ele>
        <time>2023-04-21T11:24:47Z</time>
      </trkpt>
      <trkpt lat="49.17599" lon="-0.39659">
        <ele>40.8</ele>
        <time>2023-04-21T11:24:48Z</time>
      </trkpt>
      <trkpt lat="49.17594" lon="-0.39654">
        <ele>40.8</ele>
        <time>2023-04-21T11:24:49Z</time>
      </trkpt>
      <trkpt lat="49.17588" lon="-0.39648">
        <ele>40.8</ele>
        <time>2023-04-21T11:24:50Z</time>
      </trkpt>
      <trkpt lat="49.17583" lon="-0.39642">
        <ele>40.8</ele>
        <time>2023-04-21T11:24:51Z</time>
      </trkpt>
      <trkpt lat="49.17577" lon="-0.39637">
        <ele>40.6</ele>
        <time>2023-04-21T11:24:52Z</time>
      </trkpt>
      <trkpt lat="49.17572" lon="-0.39631">
        <ele>40.4</ele>
        <time>2023-04-21T11:24:53Z</time>
      </trkpt>
      <trkpt lat="49.17566" lon="-0.39625">
        <ele>40.2</ele>
        <time>2023-04-21T11:24:54Z</time>
      </trkpt>
      <trkpt lat="49.1756" lon="-0.3962">
        <ele>40.2</ele>
        <time>2023-04-21T11:24:55Z</time>
      </trkpt>
      <trkpt lat="49.17555" lon="-0.39614">
        <ele>40</ele>
        <time>2023-04-21T11:24:56Z</time>
      </trkpt>
      <trkpt lat="49.1755" lon="-0.39609">
        <ele>40</ele>
        <time>2023-04-21T11:24:57Z</time>
      </trkpt>
      <trkpt lat="49.17544" lon="-0.39603">
        <ele>39.8</ele>
        <time>2023-04-21T11:24:58Z</time>
      </trkpt>
      <trkpt lat="49.17539" lon="-0.39598">
        <ele>39.6</ele>
        <time>2023-04-21T11:24:59Z</time>
      </trkpt>
      <trkpt lat="49.17533" lon="-0.39592">
        <ele>39.6</ele>
        <time>2023-04-21T11:25:00Z</time>
      </trkpt>
      <trkpt lat="49.17528" lon="-0.39586">
        <ele>39.4</ele>
        <time>2023-04-21T11:25:01Z</time>
      </trkpt>
      <trkpt lat="49.17523" lon="-0.39581">
        <ele>39.2</ele>
        <time>2023-04-21T11:25:02Z</time>
      </trkpt>
      <trkpt lat="49.17517" lon="-0.39575">
        <ele>39</ele>
        <time>2023-04-21T11:25:03Z</time>
      </trkpt>
      <trkpt lat="49.17512" lon="-0.3957">
        <ele>39</ele>
        <time>2023-04-21T11:25:04Z</time>
      </trkpt>
      <trkpt lat="49.17506" lon="-0.39564">
        <ele>39</ele>
        <time>2023-04-21T11:25:05Z</time>
      </trkpt>
      <trkpt lat="49.17501" lon="-0.39559">
        <ele>38.8</ele>
        <time>2023-04-21T11:25:06Z</time>
      </trkpt>
      <trkpt lat="49.17495" lon="-0.39553">
        <ele>38.6</ele>
        <time>2023-04-21T11:25:07Z</time>
      </trkpt>
      <trkpt lat="49.17489" lon="-0.39548">
        <ele>38.4</ele>
        <time>2023-04-21T11:25:08Z</time>
      </trkpt>
      <trkpt lat="49.17484" lon="-0.39542">
        <ele>38.2</ele>
        <time>2023-04-21T11:25:09Z</time>
      </trkpt>
      <trkpt lat="49.17478" lon="-0.39536">
        <ele>38.2</ele>
        <time>2023-04-21T11:25:10Z</time>
      </trkpt>
      <trkpt lat="49.17473" lon="-0.3953">
        <ele>38</ele>
        <time>2023-04-21T11:25:11Z</time>
      </trkpt>
      <trkpt lat="49.17467" lon="-0.39524">
        <ele>38</ele>
        <time>2023-04-21T11:25:12Z</time>
      </trkpt>
      <trkpt lat="49.17462" lon="-0.39518">
        <ele>38</ele>
        <time>2023-04-21T11:25:13Z</time>
      </trkpt>
      <trkpt lat="49.17456" lon="-0.39513">
        <ele>38</ele>
        <time>2023-04-21T11:25:14Z</time>
      </trkpt>
      <trkpt lat="49.17451" lon="-0.39507">
        <ele>38</ele>
        <time>2023-04-21T11:25:15Z</time>
      </trkpt>
      <trkpt lat="49.17445" lon="-0.39502">
        <ele>38</ele>
        <time>2023-04-21T11:25:16Z</time>
      </trkpt>
      <trkpt lat="49.1744" lon="-0.39496">
        <ele>38</ele>
        <time>2023-04-21T11:25:17Z</time>
      </trkpt>
      <trkpt lat="49.17434" lon="-0.3949">
        <ele>38</ele>
        <time>2023-04-21T11:25:18Z</time>
      </trkpt>
      <trkpt lat="49.17428" lon="-0.39485">
        <ele>38</ele>
        <time>2023-04-21T11:25:19Z</time>
      </trkpt>
      <trkpt lat="49.17423" lon="-0.39479">
        <ele>38</ele>
        <time>2023-04-21T11:25:20Z</time>
      </trkpt>
      <trkpt lat="49.17417" lon="-0.39473">
        <ele>38</ele>
        <time>2023-04-21T11:25:21Z</time>
      </trkpt>
      <trkpt lat="49.17412" lon="-0.39467">
        <ele>38</ele>
        <time>2023-04-21T11:25:22Z</time>
      </trkpt>
      <trkpt lat="49.17406" lon="-0.39462">
        <ele>38</ele>
        <time>2023-04-21T11:25:23Z</time>
      </trkpt>
      <trkpt lat="49.174" lon="-0.39456">
        <ele>38</ele>
        <time>2023-04-21T11:25:24Z</time>
      </trkpt>
      <trkpt lat="49.17395" lon="-0.3945">
        <ele>38</ele>
        <time>2023-04-21T11:25:25Z</time>
      </trkpt>
      <trkpt lat="49.17389" lon="-0.39444">
        <ele>38</ele>
        <time>2023-04-21T11:25:26Z</time>
      </trkpt>
      <trkpt lat="49.17384" lon="-0.39439">
        <ele>38</ele>
        <time>2023-04-21T11:25:27Z</time>
      </trkpt>
      <trkpt lat="49.17378" lon="-0.39433">
        <ele>38</ele>
        <time>2023-04-21T11:25:28Z</time>
      </trkpt>
      <trkpt lat="49.17373" lon="-0.39428">
        <ele>38</ele>
        <time>2023-04-21T11:25:29Z</time>
      </trkpt>
      <trkpt lat="49.17367" lon="-0.39422">
        <ele>38</ele>
        <time>2023-04-21T11:25:30Z</time>
      </trkpt>
      <trkpt lat="49.17362" lon="-0.39417">
        <ele>38</ele>
        <time>2023-04-21T11:25:31Z</time>
      </trkpt>
      <trkpt lat="49.17357" lon="-0.39412">
        <ele>38</ele>
        <time>2023-04-21T11:25:32Z</time>
      </trkpt>
      <trkpt lat="49.17352" lon="-0.39408">
        <ele>38</ele>
        <time>2023-04-21T11:25:33Z</time>
      </trkpt>
      <trkpt lat="49.17347" lon="-0.39403">
        <ele>38</ele>
        <time>2023-04-21T11:25:34Z</time>
      </trkpt>
      <trkpt lat="49.17342" lon="-0.39399">
        <ele>38</ele>
        <time>2023-04-21T11:25:35Z</time>
      </trkpt>
      <trkpt lat="49.17337" lon="-0.39395">
        <ele>38</ele>
        <time>2023-04-21T11:25:36Z</time>
      </trkpt>
      <trkpt lat="49.17333" lon="-0.39391">
        <ele>38</ele>
        <time>2023-04-21T11:25:37Z</time>
      </trkpt>
      <trkpt lat="49.17329" lon="-0.39388">
        <ele>38</ele>
        <time>2023-04-21T11:25:38Z</time>
      </trkpt>
      <trkpt lat="49.17325" lon="-0.39386">
        <ele>38.2</ele>
        <time>2023-04-21T11:25:39Z</time>
      </trkpt>
      <trkpt lat="49.17321" lon="-0.39384">
        <ele>38.2</ele>
        <time>2023-04-21T11:25:40Z</time>
      </trkpt>
      <trkpt lat="49.17319" lon="-0.39383">
        <ele>38.2</ele>
        <time>2023-04-21T11:25:41Z</time>
      </trkpt>
      <trkpt lat="49.17317" lon="-0.39382">
        <ele>38.2</ele>
        <time>2023-04-21T11:25:42Z</time>
      </trkpt>
      <trkpt lat="49.17317" lon="-0.39381">
        <ele>38.2</ele>
        <time>2023-04-21T11:25:43Z</time>
      </trkpt>
      <trkpt lat="49.17317" lon="-0.39381">
        <ele>38.2</ele>
        <time>2023-04-21T11:25:44Z</time>
      </trkpt>
      <trkpt lat="49.17317" lon="-0.39381">
        <ele>38.2</ele>
        <time>2023-04-21T11:25:45Z</time>
      </trkpt>
      <trkpt lat="49.17317" lon="-0.39381">
        <ele>38.2</ele>
        <time>2023-04-21T11:25:46Z</time>
      </trkpt>
      <trkpt lat="49.17317" lon="-0.39381">
        <ele>38.2</ele>
        <time>2023-04-21T11:25:47Z</time>
      </trkpt>
      <trkpt lat="49.17317" lon="-0.39381">
        <ele>38.2</ele>
        <time>2023-04-21T11:25:48Z</time>
      </trkpt>
      <trkpt lat="49.17317" lon="-0.39381">
        <ele>38.2</ele>
        <time>2023-04-21T11:25:49Z</time>
      </trkpt>
      <trkpt lat="49.17317" lon="-0.39381">
        <ele>38.2</ele>
        <time>2023-04-21T11:25:50Z</time>
      </trkpt>
      <trkpt lat="49.17317" lon="-0.39381">
        <ele>38.2</ele>
        <time>2023-04-21T11:25:51Z</time>
      </trkpt>
      <trkpt lat="49.17317" lon="-0.39381">
        <ele>38.2</ele>
        <time>2023-04-21T11:25:52Z</time>
      </trkpt>
      <trkpt lat="49.17317" lon="-0.39381">
        <ele>38.2</ele>
        <time>2023-04-21T11:25:53Z</time>
      </trkpt>
      <trkpt lat="49.17317" lon="-0.39381">
        <ele>38.2</ele>
        <time>2023-04-21T11:25:54Z</time>
      </trkpt>
      <trkpt lat="49.17317" lon="-0.39381">
        <ele>38.2</ele>
        <time>2023-04-21T11:25:55Z</time>
      </trkpt>
      <trkpt lat="49.17317" lon="-0.39381">
        <ele>38.2</ele>
        <time>2023-04-21T11:25:56Z</time>
      </trkpt>
      <trkpt lat="49.17317" lon="-0.39381">
        <ele>38.2</ele>
        <time>2023-04-21T11:25:57Z</time>
      </trkpt>
      <trkpt lat="49.17317" lon="-0.39381">
        <ele>38.2</ele>
        <time>2023-04-21T11:25:58Z</time>
      </trkpt>
      <trkpt lat="49.17317" lon="-0.39381">
        <ele>38.2</ele>
        <time>2023-04-21T11:25:59Z</time>
      </trkpt>
      <trkpt lat="49.17317" lon="-0.39382">
        <ele>38.2</ele>
        <time>2023-04-21T11:26:00Z</time>
      </trkpt>
      <trkpt lat="49.17317" lon="-0.39382">
        <ele>38.2</ele>
        <time>2023-04-21T11:26:01Z</time>
      </trkpt>
      <trkpt lat="49.17317" lon="-0.39381">
        <ele>38.2</ele>
        <time>2023-04-21T11:26:02Z</time>
      </trkpt>
      <trkpt lat="49.17316" lon="-0.39381">
        <ele>38.2</ele>
        <time>2023-04-21T11:26:03Z</time>
      </trkpt>
      <trkpt lat="49.17314" lon="-0.39379">
        <ele>38.4</ele>
        <time>2023-04-21T11:26:04Z</time>
      </trkpt>
      <trkpt lat="49.17312" lon="-0.39377">
        <ele>38.4</ele>
        <time>2023-04-21T11:26:05Z</time>
      </trkpt>
      <trkpt lat="49.17311" lon="-0.39375">
        <ele>38.4</ele>
        <time>2023-04-21T11:26:06Z</time>
      </trkpt>
      <trkpt lat="49.17309" lon="-0.39371">
        <ele>38.4</ele>
        <time>2023-04-21T11:26:07Z</time>
      </trkpt>
      <trkpt lat="49.17307" lon="-0.39366">
        <ele>38.4</ele>
        <time>2023-04-21T11:26:08Z</time>
      </trkpt>
      <trkpt lat="49.17304" lon="-0.39362">
        <ele>38.6</ele>
        <time>2023-04-21T11:26:09Z</time>
      </trkpt>
      <trkpt lat="49.17301" lon="-0.39357">
        <ele>38.6</ele>
        <time>2023-04-21T11:26:10Z</time>
      </trkpt>
      <trkpt lat="49.17298" lon="-0.39353">
        <ele>38.6</ele>
        <time>2023-04-21T11:26:11Z</time>
      </trkpt>
      <trkpt lat="49.17294" lon="-0.3935">
        <ele>38.6</ele>
        <time>2023-04-21T11:26:12Z</time>
      </trkpt>
      <trkpt lat="49.1729" lon="-0.39348">
        <ele>38.6</ele>
        <time>2023-04-21T11:26:13Z</time>
      </trkpt>
      <trkpt lat="49.17285" lon="-0.39345">
        <ele>38.8</ele>
        <time>2023-04-21T11:26:14Z</time>
      </trkpt>
      <trkpt lat="49.1728" lon="-0.39343">
        <ele>38.8</ele>
        <time>2023-04-21T11:26:15Z</time>
      </trkpt>
      <trkpt lat="49.17276" lon="-0.3934">
        <ele>38.8</ele>
        <time>2023-04-21T11:26:16Z</time>
      </trkpt>
      <trkpt lat="49.17271" lon="-0.39337">
        <ele>38.8</ele>
        <time>2023-04-21T11:26:17Z</time>
      </trkpt>
      <trkpt lat="49.17266" lon="-0.39333">
        <ele>38.8</ele>
        <time>2023-04-21T11:26:18Z</time>
      </trkpt>
      <trkpt lat="49.17261" lon="-0.39328">
        <ele>38.8</ele>
        <time>2023-04-21T11:26:19Z</time>
      </trkpt>
      <trkpt lat="49.17257" lon="-0.39323">
        <ele>38.8</ele>
        <time>2023-04-21T11:26:20Z</time>
      </trkpt>
      <trkpt lat="49.17253" lon="-0.39317">
        <ele>38.8</ele>
        <time>2023-04-21T11:26:21Z</time>
      </trkpt>
      <trkpt lat="49.1725" lon="-0.39311">
        <ele>38.8</ele>
        <time>2023-04-21T11:26:22Z</time>
      </trkpt>
      <trkpt lat="49.17246" lon="-0.39304">
        <ele>38.6</ele>
        <time>2023-04-21T11:26:23Z</time>
      </trkpt>
      <trkpt lat="49.17242" lon="-0.39298">
        <ele>38.6</ele>
        <time>2023-04-21T11:26:24Z</time>
      </trkpt>
      <trkpt lat="49.17239" lon="-0.39292">
        <ele>38.4</ele>
        <time>2023-04-21T11:26:25Z</time>
      </trkpt>
      <trkpt lat="49.17235" lon="-0.39286">
        <ele>38.2</ele>
        <time>2023-04-21T11:26:26Z</time>
      </trkpt>
      <trkpt lat="49.17232" lon="-0.39279">
        <ele>38.2</ele>
        <time>2023-04-21T11:26:27Z</time>
      </trkpt>
      <trkpt lat="49.17228" lon="-0.39272">
        <ele>38</ele>
        <time>2023-04-21T11:26:28Z</time>
      </trkpt>
      <trkpt lat="49.17225" lon="-0.39265">
        <ele>38</ele>
        <time>2023-04-21T11:26:29Z</time>
      </trkpt>
      <trkpt lat="49.17221" lon="-0.39258">
        <ele>37.8</ele>
        <time>2023-04-21T11:26:30Z</time>
      </trkpt>
      <trkpt lat="49.17218" lon="-0.39251">
        <ele>37.6</ele>
        <time>2023-04-21T11:26:31Z</time>
      </trkpt>
      <trkpt lat="49.17214" lon="-0.39244">
        <ele>37.8</ele>
        <time>2023-04-21T11:26:32Z</time>
      </trkpt>
      <trkpt lat="49.1721" lon="-0.39236">
        <ele>37.8</ele>
        <time>2023-04-21T11:26:33Z</time>
      </trkpt>
      <trkpt lat="49.17206" lon="-0.39229">
        <ele>37.8</ele>
        <time>2023-04-21T11:26:34Z</time>
      </trkpt>
      <trkpt lat="49.17203" lon="-0.39223">
        <ele>38</ele>
        <time>2023-04-21T11:26:35Z</time>
      </trkpt>
      <trkpt lat="49.17199" lon="-0.39215">
        <ele>38</ele>
        <time>2023-04-21T11:26:36Z</time>
      </trkpt>
      <trkpt lat="49.17196" lon="-0.39208">
        <ele>38</ele>
        <time>2023-04-21T11:26:37Z</time>
      </trkpt>
      <trkpt lat="49.17192" lon="-0.39201">
        <ele>38</ele>
        <time>2023-04-21T11:26:38Z</time>
      </trkpt>
      <trkpt lat="49.17188" lon="-0.39195">
        <ele>38</ele>
        <time>2023-04-21T11:26:39Z</time>
      </trkpt>
      <trkpt lat="49.17185" lon="-0.39187">
        <ele>38</ele>
        <time>2023-04-21T11:26:40Z</time>
      </trkpt>
      <trkpt lat="49.17181" lon="-0.3918">
        <ele>38.2</ele>
        <time>2023-04-21T11:26:41Z</time>
      </trkpt>
      <trkpt lat="49.17178" lon="-0.39173">
        <ele>38.2</ele>
        <time>2023-04-21T11:26:42Z</time>
      </trkpt>
      <trkpt lat="49.17175" lon="-0.39166">
        <ele>38.2</ele>
        <time>2023-04-21T11:26:43Z</time>
      </trkpt>
      <trkpt lat="49.17172" lon="-0.39158">
        <ele>38.2</ele>
        <time>2023-04-21T11:26:44Z</time>
      </trkpt>
      <trkpt lat="49.17169" lon="-0.39151">
        <ele>38.4</ele>
        <time>2023-04-21T11:26:45Z</time>
      </trkpt>
      <trkpt lat="49.17166" lon="-0.39143">
        <ele>38.6</ele>
        <time>2023-04-21T11:26:46Z</time>
      </trkpt>
      <trkpt lat="49.17163" lon="-0.39135">
        <ele>38.8</ele>
        <time>2023-04-21T11:26:47Z</time>
      </trkpt>
      <trkpt lat="49.17159" lon="-0.39128">
        <ele>39</ele>
        <time>2023-04-21T11:26:48Z</time>
      </trkpt>
      <trkpt lat="49.17156" lon="-0.3912">
        <ele>39</ele>
        <time>2023-04-21T11:26:49Z</time>
      </trkpt>
      <trkpt lat="49.17153" lon="-0.39112">
        <ele>39</ele>
        <time>2023-04-21T11:26:50Z</time>
      </trkpt>
      <trkpt lat="49.17149" lon="-0.39105">
        <ele>39.2</ele>
        <time>2023-04-21T11:26:51Z</time>
      </trkpt>
      <trkpt lat="49.17146" lon="-0.39097">
        <ele>39.2</ele>
        <time>2023-04-21T11:26:52Z</time>
      </trkpt>
      <trkpt lat="49.17142" lon="-0.3909">
        <ele>39.2</ele>
        <time>2023-04-21T11:26:53Z</time>
      </trkpt>
      <trkpt lat="49.17137" lon="-0.39082">
        <ele>39.2</ele>
        <time>2023-04-21T11:26:54Z</time>
      </trkpt>
      <trkpt lat="49.17133" lon="-0.39074">
        <ele>39</ele>
        <time>2023-04-21T11:26:55Z</time>
      </trkpt>
      <trkpt lat="49.17129" lon="-0.39067">
        <ele>38.6</ele>
        <time>2023-04-21T11:26:56Z</time>
      </trkpt>
      <trkpt lat="49.17124" lon="-0.39058">
        <ele>38.2</ele>
        <time>2023-04-21T11:26:57Z</time>
      </trkpt>
      <trkpt lat="49.1712" lon="-0.3905">
        <ele>37.8</ele>
        <time>2023-04-21T11:26:58Z</time>
      </trkpt>
      <trkpt lat="49.17115" lon="-0.39041">
        <ele>37.4</ele>
        <time>2023-04-21T11:26:59Z</time>
      </trkpt>
      <trkpt lat="49.17109" lon="-0.39033">
        <ele>37</ele>
        <time>2023-04-21T11:27:00Z</time>
      </trkpt>
      <trkpt lat="49.17104" lon="-0.39024">
        <ele>36.6</ele>
        <time>2023-04-21T11:27:01Z</time>
      </trkpt>
      <trkpt lat="49.17097" lon="-0.39015">
        <ele>36</ele>
        <time>2023-04-21T11:27:02Z</time>
      </trkpt>
      <trkpt lat="49.17091" lon="-0.39005">
        <ele>35.6</ele>
        <time>2023-04-21T11:27:03Z</time>
      </trkpt>
      <trkpt lat="49.17085" lon="-0.38996">
        <ele>35</ele>
        <time>2023-04-21T11:27:04Z</time>
      </trkpt>
      <trkpt lat="49.17078" lon="-0.38986">
        <ele>34.2</ele>
        <time>2023-04-21T11:27:05Z</time>
      </trkpt>
      <trkpt lat="49.17071" lon="-0.38977">
        <ele>33.6</ele>
        <time>2023-04-21T11:27:06Z</time>
      </trkpt>
      <trkpt lat="49.17063" lon="-0.38967">
        <ele>32.8</ele>
        <time>2023-04-21T11:27:07Z</time>
      </trkpt>
      <trkpt lat="49.17056" lon="-0.38957">
        <ele>31.8</ele>
        <time>2023-04-21T11:27:08Z</time>
      </trkpt>
      <trkpt lat="49.17048" lon="-0.38946">
        <ele>31.2</ele>
        <time>2023-04-21T11:27:09Z</time>
      </trkpt>
      <trkpt lat="49.17039" lon="-0.38936">
        <ele>30.2</ele>
        <time>2023-04-21T11:27:10Z</time>
      </trkpt>
      <trkpt lat="49.17031" lon="-0.38926">
        <ele>29.2</ele>
        <time>2023-04-21T11:27:11Z</time>
      </trkpt>
      <trkpt lat="49.17023" lon="-0.38916">
        <ele>28.4</ele>
        <time>2023-04-21T11:27:12Z</time>
      </trkpt>
      <trkpt lat="49.17016" lon="-0.38906">
        <ele>27.4</ele>
        <time>2023-04-21T11:27:13Z</time>
      </trkpt>
      <trkpt lat="49.17008" lon="-0.38896">
        <ele>26.6</ele>
        <time>2023-04-21T11:27:14Z</time>
      </trkpt>
      <trkpt lat="49.17001" lon="-0.38887">
        <ele>25.6</ele>
        <time>2023-04-21T11:27:15Z</time>
      </trkpt>
      <trkpt lat="49.16994" lon="-0.3888">
        <ele>24.8</ele>
        <time>2023-04-21T11:27:16Z</time>
      </trkpt>
      <trkpt lat="49.16988" lon="-0.38872">
        <ele>23.8</ele>
        <time>2023-04-21T11:27:17Z</time>
      </trkpt>
      <trkpt lat="49.16984" lon="-0.38863">
        <ele>23.2</ele>
        <time>2023-04-21T11:27:18Z</time>
      </trkpt>
      <trkpt lat="49.1698" lon="-0.38856">
        <ele>22.6</ele>
        <time>2023-04-21T11:27:19Z</time>
      </trkpt>
      <trkpt lat="49.16976" lon="-0.38854">
        <ele>22.2</ele>
        <time>2023-04-21T11:27:20Z</time>
      </trkpt>
      <trkpt lat="49.16971" lon="-0.38855">
        <ele>21.8</ele>
        <time>2023-04-21T11:27:21Z</time>
      </trkpt>
      <trkpt lat="49.16966" lon="-0.38859">
        <ele>21.6</ele>
        <time>2023-04-21T11:27:22Z</time>
      </trkpt>
      <trkpt lat="49.16961" lon="-0.38863">
        <ele>21.2</ele>
        <time>2023-04-21T11:27:23Z</time>
      </trkpt>
      <trkpt lat="49.16955" lon="-0.38868">
        <ele>20.8</ele>
        <time>2023-04-21T11:27:24Z</time>
      </trkpt>
      <trkpt lat="49.16948" lon="-0.38871">
        <ele>20.6</ele>
        <time>2023-04-21T11:27:25Z</time>
      </trkpt>
      <trkpt lat="49.16941" lon="-0.38874">
        <ele>20</ele>
        <time>2023-04-21T11:27:26Z</time>
      </trkpt>
      <trkpt lat="49.16934" lon="-0.38877">
        <ele>19.6</ele>
        <time>2023-04-21T11:27:27Z</time>
      </trkpt>
      <trkpt lat="49.16927" lon="-0.38879">
        <ele>19</ele>
        <time>2023-04-21T11:27:28Z</time>
      </trkpt>
      <trkpt lat="49.16921" lon="-0.38882">
        <ele>18.6</ele>
        <time>2023-04-21T11:27:29Z</time>
      </trkpt>
      <trkpt lat="49.16916" lon="-0.38885">
        <ele>18.2</ele>
        <time>2023-04-21T11:27:30Z</time>
      </trkpt>
      <trkpt lat="49.16912" lon="-0.38887">
        <ele>17.8</ele>
        <time>2023-04-21T11:27:31Z</time>
      </trkpt>
      <trkpt lat="49.16908" lon="-0.38888">
        <ele>17.8</ele>
        <time>2023-04-21T11:27:32Z</time>
      </trkpt>
      <trkpt lat="49.16905" lon="-0.3889">
        <ele>17.4</ele>
        <time>2023-04-21T11:27:33Z</time>
      </trkpt>
      <trkpt lat="49.16901" lon="-0.38892">
        <ele>17.2</ele>
        <time>2023-04-21T11:27:34Z</time>
      </trkpt>
      <trkpt lat="49.16897" lon="-0.38894">
        <ele>16.8</ele>
        <time>2023-04-21T11:27:35Z</time>
      </trkpt>
      <trkpt lat="49.16893" lon="-0.38897">
        <ele>16.6</ele>
        <time>2023-04-21T11:27:36Z</time>
      </trkpt>
      <trkpt lat="49.1689" lon="-0.38899">
        <ele>16.4</ele>
        <time>2023-04-21T11:27:37Z</time>
      </trkpt>
      <trkpt lat="49.16887" lon="-0.38899">
        <ele>16.2</ele>
        <time>2023-04-21T11:27:38Z</time>
      </trkpt>
      <trkpt lat="49.16884" lon="-0.38898">
        <ele>15.8</ele>
        <time>2023-04-21T11:27:39Z</time>
      </trkpt>
      <trkpt lat="49.16882" lon="-0.38896">
        <ele>15.6</ele>
        <time>2023-04-21T11:27:40Z</time>
      </trkpt>
      <trkpt lat="49.16882" lon="-0.38893">
        <ele>15.6</ele>
        <time>2023-04-21T11:27:41Z</time>
      </trkpt>
      <trkpt lat="49.16882" lon="-0.38889">
        <ele>15.6</ele>
        <time>2023-04-21T11:27:42Z</time>
      </trkpt>
      <trkpt lat="49.16882" lon="-0.38885">
        <ele>15.6</ele>
        <time>2023-04-21T11:27:43Z</time>
      </trkpt>
      <trkpt lat="49.16883" lon="-0.3888">
        <ele>15.6</ele>
        <time>2023-04-21T11:27:44Z</time>
      </trkpt>
      <trkpt lat="49.16883" lon="-0.38875">
        <ele>15.4</ele>
        <time>2023-04-21T11:27:45Z</time>
      </trkpt>
      <trkpt lat="49.16883" lon="-0.38871">
        <ele>15.4</ele>
        <time>2023-04-21T11:27:46Z</time>
      </trkpt>
      <trkpt lat="49.16881" lon="-0.38868">
        <ele>15.2</ele>
        <time>2023-04-21T11:27:47Z</time>
      </trkpt>
      <trkpt lat="49.16878" lon="-0.38866">
        <ele>14.8</ele>
        <time>2023-04-21T11:27:48Z</time>
      </trkpt>
      <trkpt lat="49.16875" lon="-0.38864">
        <ele>14.6</ele>
        <time>2023-04-21T11:27:49Z</time>
      </trkpt>
      <trkpt lat="49.1687" lon="-0.38863">
        <ele>14.2</ele>
        <time>2023-04-21T11:27:50Z</time>
      </trkpt>
      <trkpt lat="49.16865" lon="-0.38862">
        <ele>13.8</ele>
        <time>2023-04-21T11:27:51Z</time>
      </trkpt>
      <trkpt lat="49.1686" lon="-0.3886">
        <ele>13.4</ele>
        <time>2023-04-21T11:27:52Z</time>
      </trkpt>
      <trkpt lat="49.16855" lon="-0.38857">
        <ele>12.8</ele>
        <time>2023-04-21T11:27:53Z</time>
      </trkpt>
      <trkpt lat="49.16849" lon="-0.38854">
        <ele>12.4</ele>
        <time>2023-04-21T11:27:54Z</time>
      </trkpt>
      <trkpt lat="49.16843" lon="-0.3885">
        <ele>11.8</ele>
        <time>2023-04-21T11:27:55Z</time>
      </trkpt>
      <trkpt lat="49.16836" lon="-0.38847">
        <ele>11.4</ele>
        <time>2023-04-21T11:27:56Z</time>
      </trkpt>
      <trkpt lat="49.1683" lon="-0.38845">
        <ele>11</ele>
        <time>2023-04-21T11:27:57Z</time>
      </trkpt>
      <trkpt lat="49.16824" lon="-0.38843">
        <ele>10.6</ele>
        <time>2023-04-21T11:27:58Z</time>
      </trkpt>
      <trkpt lat="49.1682" lon="-0.38841">
        <ele>10.6</ele>
        <time>2023-04-21T11:27:59Z</time>
      </trkpt>
      <trkpt lat="49.16817" lon="-0.38836">
        <ele>10.2</ele>
        <time>2023-04-21T11:28:00Z</time>
      </trkpt>
      <trkpt lat="49.16814" lon="-0.38829">
        <ele>10</ele>
        <time>2023-04-21T11:28:01Z</time>
      </trkpt>
      <trkpt lat="49.16812" lon="-0.38821">
        <ele>9.8</ele>
        <time>2023-04-21T11:28:02Z</time>
      </trkpt>
      <trkpt lat="49.1681" lon="-0.38812">
        <ele>9.6</ele>
        <time>2023-04-21T11:28:03Z</time>
      </trkpt>
      <trkpt lat="49.16807" lon="-0.38803">
        <ele>9.4</ele>
        <time>2023-04-21T11:28:04Z</time>
      </trkpt>
      <trkpt lat="49.16804" lon="-0.38794">
        <ele>8.8</ele>
        <time>2023-04-21T11:28:05Z</time>
      </trkpt>
      <trkpt lat="49.168" lon="-0.38785">
        <ele>8.6</ele>
        <time>2023-04-21T11:28:06Z</time>
      </trkpt>
      <trkpt lat="49.16797" lon="-0.38776">
        <ele>8.4</ele>
        <time>2023-04-21T11:28:07Z</time>
      </trkpt>
      <trkpt lat="49.16793" lon="-0.38767">
        <ele>8</ele>
        <time>2023-04-21T11:28:08Z</time>
      </trkpt>
      <trkpt lat="49.1679" lon="-0.38758">
        <ele>7.6</ele>
        <time>2023-04-21T11:28:09Z</time>
      </trkpt>
      <trkpt lat="49.16786" lon="-0.3875">
        <ele>7.2</ele>
        <time>2023-04-21T11:28:10Z</time>
      </trkpt>
      <trkpt lat="49.16783" lon="-0.38742">
        <ele>6.8</ele>
        <time>2023-04-21T11:28:11Z</time>
      </trkpt>
      <trkpt lat="49.16779" lon="-0.38733">
        <ele>6.6</ele>
        <time>2023-04-21T11:28:12Z</time>
      </trkpt>
      <trkpt lat="49.16775" lon="-0.38725">
        <ele>6.2</ele>
        <time>2023-04-21T11:28:13Z</time>
      </trkpt>
      <trkpt lat="49.16771" lon="-0.38716">
        <ele>6</ele>
        <time>2023-04-21T11:28:14Z</time>
      </trkpt>
      <trkpt lat="49.16767" lon="-0.38708">
        <ele>5.6</ele>
        <time>2023-04-21T11:28:15Z</time>
      </trkpt>
      <trkpt lat="49.16763" lon="-0.387">
        <ele>5.6</ele>
        <time>2023-04-21T11:28:16Z</time>
      </trkpt>
      <trkpt lat="49.16759" lon="-0.38693">
        <ele>5.4</ele>
        <time>2023-04-21T11:28:17Z</time>
      </trkpt>
      <trkpt lat="49.16755" lon="-0.38685">
        <ele>5.2</ele>
        <time>2023-04-21T11:28:18Z</time>
      </trkpt>
      <trkpt lat="49.16752" lon="-0.38676">
        <ele>5</ele>
        <time>2023-04-21T11:28:19Z</time>
      </trkpt>
      <trkpt lat="49.16749" lon="-0.38668">
        <ele>5</ele>
        <time>2023-04-21T11:28:20Z</time>
      </trkpt>
      <trkpt lat="49.16747" lon="-0.38658">
        <ele>5</ele>
        <time>2023-04-21T11:28:21Z</time>
      </trkpt>
      <trkpt lat="49.16746" lon="-0.38648">
        <ele>4.8</ele>
        <time>2023-04-21T11:28:22Z</time>
      </trkpt>
      <trkpt lat="49.16745" lon="-0.38638">
        <ele>4.6</ele>
        <time>2023-04-21T11:28:23Z</time>
      </trkpt>
      <trkpt lat="49.16744" lon="-0.38629">
        <ele>4.6</ele>
        <time>2023-04-21T11:28:24Z</time>
      </trkpt>
      <trkpt lat="49.16744" lon="-0.38619">
        <ele>4.6</ele>
        <time>2023-04-21T11:28:25Z</time>
      </trkpt>
      <trkpt lat="49.16744" lon="-0.38609">
        <ele>4.4</ele>
        <time>2023-04-21T11:28:26Z</time>
      </trkpt>
      <trkpt lat="49.16745" lon="-0.38599">
        <ele>4.4</ele>
        <time>2023-04-21T11:28:27Z</time>
      </trkpt>
      <trkpt lat="49.16745" lon="-0.38589">
        <ele>4</ele>
        <time>2023-04-21T11:28:28Z</time>
      </trkpt>
      <trkpt lat="49.16746" lon="-0.38579">
        <ele>4.2</ele>
        <time>2023-04-21T11:28:29Z</time>
      </trkpt>
      <trkpt lat="49.16746" lon="-0.38569">
        <ele>4.6</ele>
        <time>2023-04-21T11:28:30Z</time>
      </trkpt>
      <trkpt lat="49.16746" lon="-0.3856">
        <ele>5</ele>
        <time>2023-04-21T11:28:31Z</time>
      </trkpt>
      <trkpt lat="49.16746" lon="-0.3855">
        <ele>5.2</ele>
        <time>2023-04-21T11:28:32Z</time>
      </trkpt>
      <trkpt lat="49.16745" lon="-0.3854">
        <ele>5.6</ele>
        <time>2023-04-21T11:28:33Z</time>
      </trkpt>
      <trkpt lat="49.16743" lon="-0.38531">
        <ele>6</ele>
        <time>2023-04-21T11:28:34Z</time>
      </trkpt>
      <trkpt lat="49.16741" lon="-0.38522">
        <ele>6.2</ele>
        <time>2023-04-21T11:28:35Z</time>
      </trkpt>
      <trkpt lat="49.16739" lon="-0.38513">
        <ele>6.4</ele>
        <time>2023-04-21T11:28:36Z</time>
      </trkpt>
      <trkpt lat="49.16736" lon="-0.38505">
        <ele>6.6</ele>
        <time>2023-04-21T11:28:37Z</time>
      </trkpt>
      <trkpt lat="49.16732" lon="-0.38497">
        <ele>6.8</ele>
        <time>2023-04-21T11:28:38Z</time>
      </trkpt>
      <trkpt lat="49.16729" lon="-0.3849">
        <ele>6.8</ele>
        <time>2023-04-21T11:28:39Z</time>
      </trkpt>
      <trkpt lat="49.16725" lon="-0.38483">
        <ele>6.8</ele>
        <time>2023-04-21T11:28:40Z</time>
      </trkpt>
      <trkpt lat="49.16722" lon="-0.38478">
        <ele>6.8</ele>
        <time>2023-04-21T11:28:41Z</time>
      </trkpt>
      <trkpt lat="49.16719" lon="-0.38476">
        <ele>6.6</ele>
        <time>2023-04-21T11:28:42Z</time>
      </trkpt>
      <trkpt lat="49.16716" lon="-0.38476">
        <ele>6.6</ele>
        <time>2023-04-21T11:28:43Z</time>
      </trkpt>
      <trkpt lat="49.16713" lon="-0.38479">
        <ele>6.6</ele>
        <time>2023-04-21T11:28:44Z</time>
      </trkpt>
      <trkpt lat="49.16711" lon="-0.38483">
        <ele>6.6</ele>
        <time>2023-04-21T11:28:45Z</time>
      </trkpt>
      <trkpt lat="49.16708" lon="-0.38487">
        <ele>6.6</ele>
        <time>2023-04-21T11:28:46Z</time>
      </trkpt>
      <trkpt lat="49.16705" lon="-0.38492">
        <ele>6.6</ele>
        <time>2023-04-21T11:28:47Z</time>
      </trkpt>
      <trkpt lat="49.16703" lon="-0.38496">
        <ele>6.6</ele>
        <time>2023-04-21T11:28:48Z</time>
      </trkpt>
      <trkpt lat="49.16699" lon="-0.38501">
        <ele>6.4</ele>
        <time>2023-04-21T11:28:49Z</time>
      </trkpt>
      <trkpt lat="49.16696" lon="-0.38505">
        <ele>6.4</ele>
        <time>2023-04-21T11:28:50Z</time>
      </trkpt>
      <trkpt lat="49.16693" lon="-0.38509">
        <ele>6</ele>
        <time>2023-04-21T11:28:51Z</time>
      </trkpt>
      <trkpt lat="49.16688" lon="-0.38513">
        <ele>6</ele>
        <time>2023-04-21T11:28:52Z</time>
      </trkpt>
      <trkpt lat="49.16684" lon="-0.38517">
        <ele>6</ele>
        <time>2023-04-21T11:28:53Z</time>
      </trkpt>
      <trkpt lat="49.1668" lon="-0.38521">
        <ele>5.8</ele>
        <time>2023-04-21T11:28:54Z</time>
      </trkpt>
      <trkpt lat="49.16675" lon="-0.38525">
        <ele>5.6</ele>
        <time>2023-04-21T11:28:55Z</time>
      </trkpt>
      <trkpt lat="49.16671" lon="-0.38529">
        <ele>5.6</ele>
        <time>2023-04-21T11:28:56Z</time>
      </trkpt>
      <trkpt lat="49.16666" lon="-0.38532">
        <ele>5.6</ele>
        <time>2023-04-21T11:28:57Z</time>
      </trkpt>
      <trkpt lat="49.16661" lon="-0.38535">
        <ele>5.6</ele>
        <time>2023-04-21T11:28:58Z</time>
      </trkpt>
      <trkpt lat="49.16656" lon="-0.38538">
        <ele>5.6</ele>
        <time>2023-04-21T11:28:59Z</time>
      </trkpt>
      <trkpt lat="49.16651" lon="-0.3854">
        <ele>5.6</ele>
        <time>2023-04-21T11:29:00Z</time>
      </trkpt>
      <trkpt lat="49.16646" lon="-0.38541">
        <ele>5.6</ele>
        <time>2023-04-21T11:29:01Z</time>
      </trkpt>
      <trkpt lat="49.1664" lon="-0.38541">
        <ele>5.6</ele>
        <time>2023-04-21T11:29:02Z</time>
      </trkpt>
      <trkpt lat="49.16634" lon="-0.38541">
        <ele>5.6</ele>
        <time>2023-04-21T11:29:03Z</time>
      </trkpt>
      <trkpt lat="49.16628" lon="-0.38543">
        <ele>5.6</ele>
        <time>2023-04-21T11:29:04Z</time>
      </trkpt>
      <trkpt lat="49.16622" lon="-0.38547">
        <ele>5.6</ele>
        <time>2023-04-21T11:29:05Z</time>
      </trkpt>
      <trkpt lat="49.16617" lon="-0.38552">
        <ele>5.6</ele>
        <time>2023-04-21T11:29:06Z</time>
      </trkpt>
      <trkpt lat="49.16611" lon="-0.38557">
        <ele>5.6</ele>
        <time>2023-04-21T11:29:07Z</time>
      </trkpt>
      <trkpt lat="49.16606" lon="-0.38561">
        <ele>5.6</ele>
        <time>2023-04-21T11:29:08Z</time>
      </trkpt>
      <trkpt lat="49.166" lon="-0.38565">
        <ele>5.6</ele>
        <time>2023-04-21T11:29:09Z</time>
      </trkpt>
      <trkpt lat="49.16595" lon="-0.38567">
        <ele>5.6</ele>
        <time>2023-04-21T11:29:10Z</time>
      </trkpt>
      <trkpt lat="49.16589" lon="-0.38569">
        <ele>5.8</ele>
        <time>2023-04-21T11:29:11Z</time>
      </trkpt>
      <trkpt lat="49.16584" lon="-0.38572">
        <ele>6</ele>
        <time>2023-04-21T11:29:12Z</time>
      </trkpt>
      <trkpt lat="49.16581" lon="-0.38575">
        <ele>5.8</ele>
        <time>2023-04-21T11:29:13Z</time>
      </trkpt>
      <trkpt lat="49.1658" lon="-0.3858">
        <ele>6</ele>
        <time>2023-04-21T11:29:14Z</time>
      </trkpt>
      <trkpt lat="49.16582" lon="-0.38586">
        <ele>6</ele>
        <time>2023-04-21T11:29:15Z</time>
      </trkpt>
      <trkpt lat="49.16584" lon="-0.38591">
        <ele>6</ele>
        <time>2023-04-21T11:29:16Z</time>
      </trkpt>
      <trkpt lat="49.16586" lon="-0.38597">
        <ele>6</ele>
        <time>2023-04-21T11:29:17Z</time>
      </trkpt>
      <trkpt lat="49.16589" lon="-0.38602">
        <ele>6</ele>
        <time>2023-04-21T11:29:18Z</time>
      </trkpt>
      <trkpt lat="49.16593" lon="-0.38608">
        <ele>6</ele>
        <time>2023-04-21T11:29:19Z</time>
      </trkpt>
      <trkpt lat="49.16596" lon="-0.38615">
        <ele>6</ele>
        <time>2023-04-21T11:29:20Z</time>
      </trkpt>
      <trkpt lat="49.166" lon="-0.38622">
        <ele>6</ele>
        <time>2023-04-21T11:29:21Z</time>
      </trkpt>
      <trkpt lat="49.16602" lon="-0.38629">
        <ele>6</ele>
        <time>2023-04-21T11:29:22Z</time>
      </trkpt>
      <trkpt lat="49.16603" lon="-0.38637">
        <ele>6</ele>
        <time>2023-04-21T11:29:23Z</time>
      </trkpt>
      <trkpt lat="49.16603" lon="-0.38644">
        <ele>6</ele>
        <time>2023-04-21T11:29:24Z</time>
      </trkpt>
      <trkpt lat="49.16601" lon="-0.38652">
        <ele>6</ele>
        <time>2023-04-21T11:29:25Z</time>
      </trkpt>
      <trkpt lat="49.16598" lon="-0.38659">
        <ele>6</ele>
        <time>2023-04-21T11:29:26Z</time>
      </trkpt>
      <trkpt lat="49.16595" lon="-0.38666">
        <ele>6</ele>
        <time>2023-04-21T11:29:27Z</time>
      </trkpt>
      <trkpt lat="49.16592" lon="-0.38673">
        <ele>6</ele>
        <time>2023-04-21T11:29:28Z</time>
      </trkpt>
      <trkpt lat="49.16589" lon="-0.3868">
        <ele>6</ele>
        <time>2023-04-21T11:29:29Z</time>
      </trkpt>
      <trkpt lat="49.16586" lon="-0.38688">
        <ele>6</ele>
        <time>2023-04-21T11:29:30Z</time>
      </trkpt>
      <trkpt lat="49.16583" lon="-0.38696">
        <ele>6</ele>
        <time>2023-04-21T11:29:31Z</time>
      </trkpt>
      <trkpt lat="49.16581" lon="-0.38704">
        <ele>6</ele>
        <time>2023-04-21T11:29:32Z</time>
      </trkpt>
      <trkpt lat="49.16579" lon="-0.38712">
        <ele>6</ele>
        <time>2023-04-21T11:29:33Z</time>
      </trkpt>
      <trkpt lat="49.16578" lon="-0.3872">
        <ele>5.8</ele>
        <time>2023-04-21T11:29:34Z</time>
      </trkpt>
      <trkpt lat="49.16576" lon="-0.38728">
        <ele>5.8</ele>
        <time>2023-04-21T11:29:35Z</time>
      </trkpt>
      <trkpt lat="49.16575" lon="-0.38736">
        <ele>5.8</ele>
        <time>2023-04-21T11:29:36Z</time>
      </trkpt>
      <trkpt lat="49.16573" lon="-0.38743">
        <ele>5.8</ele>
        <time>2023-04-21T11:29:37Z</time>
      </trkpt>
      <trkpt lat="49.16571" lon="-0.38749">
        <ele>5.6</ele>
        <time>2023-04-21T11:29:38Z</time>
      </trkpt>
      <trkpt lat="49.16567" lon="-0.38752">
        <ele>5.6</ele>
        <time>2023-04-21T11:29:39Z</time>
      </trkpt>
      <trkpt lat="49.16563" lon="-0.3875">
        <ele>5.6</ele>
        <time>2023-04-21T11:29:40Z</time>
      </trkpt>
      <trkpt lat="49.1656" lon="-0.38745">
        <ele>5.4</ele>
        <time>2023-04-21T11:29:41Z</time>
      </trkpt>
      <trkpt lat="49.16559" lon="-0.38738">
        <ele>5.4</ele>
        <time>2023-04-21T11:29:42Z</time>
      </trkpt>
      <trkpt lat="49.16559" lon="-0.38732">
        <ele>5.4</ele>
        <time>2023-04-21T11:29:43Z</time>
      </trkpt>
      <trkpt lat="49.1656" lon="-0.38724">
        <ele>5.4</ele>
        <time>2023-04-21T11:29:44Z</time>
      </trkpt>
      <trkpt lat="49.1656" lon="-0.38717">
        <ele>5.4</ele>
        <time>2023-04-21T11:29:45Z</time>
      </trkpt>
      <trkpt lat="49.1656" lon="-0.38709">
        <ele>5.4</ele>
        <time>2023-04-21T11:29:46Z</time>
      </trkpt>
      <trkpt lat="49.1656" lon="-0.38702">
        <ele>5.4</ele>
        <time>2023-04-21T11:29:47Z</time>
      </trkpt>
      <trkpt lat="49.1656" lon="-0.38694">
        <ele>5.4</ele>
        <time>2023-04-21T11:29:48Z</time>
      </trkpt>
      <trkpt lat="49.1656" lon="-0.38687">
        <ele>5.2</ele>
        <time>2023-04-21T11:29:49Z</time>
      </trkpt>
      <trkpt lat="49.1656" lon="-0.38679">
        <ele>5.2</ele>
        <time>2023-04-21T11:29:50Z</time>
      </trkpt>
      <trkpt lat="49.1656" lon="-0.38671">
        <ele>5.2</ele>
        <time>2023-04-21T11:29:51Z</time>
      </trkpt>
      <trkpt lat="49.1656" lon="-0.38662">
        <ele>5.2</ele>
        <time>2023-04-21T11:29:52Z</time>
      </trkpt>
      <trkpt lat="49.16559" lon="-0.38654">
        <ele>5</ele>
        <time>2023-04-21T11:29:53Z</time>
      </trkpt>
      <trkpt lat="49.16559" lon="-0.38645">
        <ele>5</ele>
        <time>2023-04-21T11:29:54Z</time>
      </trkpt>
      <trkpt lat="49.16559" lon="-0.38636">
        <ele>5</ele>
        <time>2023-04-21T11:29:55Z</time>
      </trkpt>
      <trkpt lat="49.16559" lon="-0.38627">
        <ele>5</ele>
        <time>2023-04-21T11:29:56Z</time>
      </trkpt>
      <trkpt lat="49.16559" lon="-0.38618">
        <ele>5</ele>
        <time>2023-04-21T11:29:57Z</time>
      </trkpt>
      <trkpt lat="49.16559" lon="-0.3861">
        <ele>5</ele>
        <time>2023-04-21T11:29:58Z</time>
      </trkpt>
      <trkpt lat="49.16559" lon="-0.38601">
        <ele>5</ele>
        <time>2023-04-21T11:29:59Z</time>
      </trkpt>
      <trkpt lat="49.16559" lon="-0.38592">
        <ele>5</ele>
        <time>2023-04-21T11:30:00Z</time>
      </trkpt>
      <trkpt lat="49.16559" lon="-0.38583">
        <ele>5</ele>
        <time>2023-04-21T11:30:01Z</time>
      </trkpt>
      <trkpt lat="49.16559" lon="-0.38574">
        <ele>5</ele>
        <time>2023-04-21T11:30:02Z</time>
      </trkpt>
      <trkpt lat="49.16559" lon="-0.38565">
        <ele>5</ele>
        <time>2023-04-21T11:30:03Z</time>
      </trkpt>
      <trkpt lat="49.16559" lon="-0.38556">
        <ele>5</ele>
        <time>2023-04-21T11:30:04Z</time>
      </trkpt>
      <trkpt lat="49.16559" lon="-0.38547">
        <ele>5</ele>
        <time>2023-04-21T11:30:05Z</time>
      </trkpt>
      <trkpt lat="49.16559" lon="-0.38538">
        <ele>5</ele>
        <time>2023-04-21T11:30:06Z</time>
      </trkpt>
      <trkpt lat="49.16559" lon="-0.38529">
        <ele>5</ele>
        <time>2023-04-21T11:30:07Z</time>
      </trkpt>
      <trkpt lat="49.16559" lon="-0.3852">
        <ele>5</ele>
        <time>2023-04-21T11:30:08Z</time>
      </trkpt>
      <trkpt lat="49.16558" lon="-0.38511">
        <ele>5</ele>
        <time>2023-04-21T11:30:09Z</time>
      </trkpt>
      <trkpt lat="49.16558" lon="-0.38502">
        <ele>5</ele>
        <time>2023-04-21T11:30:10Z</time>
      </trkpt>
      <trkpt lat="49.16558" lon="-0.38493">
        <ele>5</ele>
        <time>2023-04-21T11:30:11Z</time>
      </trkpt>
      <trkpt lat="49.16558" lon="-0.38484">
        <ele>5</ele>
        <time>2023-04-21T11:30:12Z</time>
      </trkpt>
      <trkpt lat="49.16558" lon="-0.38475">
        <ele>5</ele>
        <time>2023-04-21T11:30:13Z</time>
      </trkpt>
      <trkpt lat="49.16558" lon="-0.38466">
        <ele>5</ele>
        <time>2023-04-21T11:30:14Z</time>
      </trkpt>
      <trkpt lat="49.16557" lon="-0.38457">
        <ele>5</ele>
        <time>2023-04-21T11:30:15Z</time>
      </trkpt>
      <trkpt lat="49.16557" lon="-0.38448">
        <ele>5</ele>
        <time>2023-04-21T11:30:16Z</time>
      </trkpt>
      <trkpt lat="49.16557" lon="-0.38439">
        <ele>5</ele>
        <time>2023-04-21T11:30:17Z</time>
      </trkpt>
      <trkpt lat="49.16557" lon="-0.3843">
        <ele>5</ele>
        <time>2023-04-21T11:30:18Z</time>
      </trkpt>
      <trkpt lat="49.16557" lon="-0.38421">
        <ele>5</ele>
        <time>2023-04-21T11:30:19Z</time>
      </trkpt>
      <trkpt lat="49.16557" lon="-0.38412">
        <ele>5</ele>
        <time>2023-04-21T11:30:20Z</time>
      </trkpt>
      <trkpt lat="49.16556" lon="-0.38403">
        <ele>5</ele>
        <time>2023-04-21T11:30:21Z</time>
      </trkpt>
      <trkpt lat="49.16556" lon="-0.38394">
        <ele>5</ele>
        <time>2023-04-21T11:30:22Z</time>
      </trkpt>
      <trkpt lat="49.16556" lon="-0.38385">
        <ele>5</ele>
        <time>2023-04-21T11:30:23Z</time>
      </trkpt>
      <trkpt lat="49.16556" lon="-0.38376">
        <ele>5.2</ele>
        <time>2023-04-21T11:30:24Z</time>
      </trkpt>
      <trkpt lat="49.16556" lon="-0.38367">
        <ele>5.2</ele>
        <time>2023-04-21T11:30:25Z</time>
      </trkpt>
      <trkpt lat="49.16556" lon="-0.38358">
        <ele>5.2</ele>
        <time>2023-04-21T11:30:26Z</time>
      </trkpt>
      <trkpt lat="49.16556" lon="-0.38348">
        <ele>5.4</ele>
        <time>2023-04-21T11:30:27Z</time>
      </trkpt>
      <trkpt lat="49.16556" lon="-0.38339">
        <ele>5.4</ele>
        <time>2023-04-21T11:30:28Z</time>
      </trkpt>
      <trkpt lat="49.16556" lon="-0.3833">
        <ele>5.4</ele>
        <time>2023-04-21T11:30:29Z</time>
      </trkpt>
      <trkpt lat="49.16555" lon="-0.38321">
        <ele>5.4</ele>
        <time>2023-04-21T11:30:30Z</time>
      </trkpt>
      <trkpt lat="49.16555" lon="-0.38311">
        <ele>5.2</ele>
        <time>2023-04-21T11:30:31Z</time>
      </trkpt>
      <trkpt lat="49.16555" lon="-0.38302">
        <ele>5.2</ele>
        <time>2023-04-21T11:30:32Z</time>
      </trkpt>
      <trkpt lat="49.16555" lon="-0.38293">
        <ele>5.2</ele>
        <time>2023-04-21T11:30:33Z</time>
      </trkpt>
      <trkpt lat="49.16555" lon="-0.38283">
        <ele>5</ele>
        <time>2023-04-21T11:30:34Z</time>
      </trkpt>
      <trkpt lat="49.16555" lon="-0.38274">
        <ele>5</ele>
        <time>2023-04-21T11:30:35Z</time>
      </trkpt>
      <trkpt lat="49.16555" lon="-0.38264">
        <ele>5</ele>
        <time>2023-04-21T11:30:36Z</time>
      </trkpt>
      <trkpt lat="49.16555" lon="-0.38255">
        <ele>5</ele>
        <time>2023-04-21T11:30:37Z</time>
      </trkpt>
      <trkpt lat="49.16555" lon="-0.38246">
        <ele>5</ele>
        <time>2023-04-21T11:30:38Z</time>
      </trkpt>
      <trkpt lat="49.16555" lon="-0.38236">
        <ele>5</ele>
        <time>2023-04-21T11:30:39Z</time>
      </trkpt>
      <trkpt lat="49.16555" lon="-0.38226">
        <ele>5.2</ele>
        <time>2023-04-21T11:30:40Z</time>
      </trkpt>
      <trkpt lat="49.16555" lon="-0.38217">
        <ele>5.2</ele>
        <time>2023-04-21T11:30:41Z</time>
      </trkpt>
      <trkpt lat="49.16555" lon="-0.38207">
        <ele>5.4</ele>
        <time>2023-04-21T11:30:42Z</time>
      </trkpt>
      <trkpt lat="49.16555" lon="-0.38198">
        <ele>5.4</ele>
        <time>2023-04-21T11:30:43Z</time>
      </trkpt>
      <trkpt lat="49.16555" lon="-0.38188">
        <ele>5.6</ele>
        <time>2023-04-21T11:30:44Z</time>
      </trkpt>
      <trkpt lat="49.16555" lon="-0.38178">
        <ele>5.6</ele>
        <time>2023-04-21T11:30:45Z</time>
      </trkpt>
      <trkpt lat="49.16555" lon="-0.38168">
        <ele>5.6</ele>
        <time>2023-04-21T11:30:46Z</time>
      </trkpt>
      <trkpt lat="49.16555" lon="-0.38159">
        <ele>5.6</ele>
        <time>2023-04-21T11:30:47Z</time>
      </trkpt>
      <trkpt lat="49.16555" lon="-0.38149">
        <ele>5.4</ele>
        <time>2023-04-21T11:30:48Z</time>
      </trkpt>
      <trkpt lat="49.16555" lon="-0.38139">
        <ele>5.4</ele>
        <time>2023-04-21T11:30:49Z</time>
      </trkpt>
      <trkpt lat="49.16555" lon="-0.38129">
        <ele>5.2</ele>
        <time>2023-04-21T11:30:50Z</time>
      </trkpt>
      <trkpt lat="49.16555" lon="-0.38119">
        <ele>5</ele>
        <time>2023-04-21T11:30:51Z</time>
      </trkpt>
      <trkpt lat="49.16556" lon="-0.3811">
        <ele>5</ele>
        <time>2023-04-21T11:30:52Z</time>
      </trkpt>
      <trkpt lat="49.16556" lon="-0.381">
        <ele>5</ele>
        <time>2023-04-21T11:30:53Z</time>
      </trkpt>
      <trkpt lat="49.16556" lon="-0.38091">
        <ele>4.8</ele>
        <time>2023-04-21T11:30:54Z</time>
      </trkpt>
      <trkpt lat="49.16556" lon="-0.38081">
        <ele>4.6</ele>
        <time>2023-04-21T11:30:55Z</time>
      </trkpt>
      <trkpt lat="49.16557" lon="-0.38071">
        <ele>4.6</ele>
        <time>2023-04-21T11:30:56Z</time>
      </trkpt>
      <trkpt lat="49.16557" lon="-0.38062">
        <ele>4.8</ele>
        <time>2023-04-21T11:30:57Z</time>
      </trkpt>
      <trkpt lat="49.16558" lon="-0.38052">
        <ele>4.8</ele>
        <time>2023-04-21T11:30:58Z</time>
      </trkpt>
      <trkpt lat="49.16558" lon="-0.38042">
        <ele>4.8</ele>
        <time>2023-04-21T11:30:59Z</time>
      </trkpt>
      <trkpt lat="49.16559" lon="-0.38033">
        <ele>4.8</ele>
        <time>2023-04-21T11:31:00Z</time>
      </trkpt>
      <trkpt lat="49.16559" lon="-0.38024">
        <ele>4.8</ele>
        <time>2023-04-21T11:31:01Z</time>
      </trkpt>
      <trkpt lat="49.1656" lon="-0.38015">
        <ele>4.8</ele>
        <time>2023-04-21T11:31:02Z</time>
      </trkpt>
      <trkpt lat="49.16561" lon="-0.38005">
        <ele>4.8</ele>
        <time>2023-04-21T11:31:03Z</time>
      </trkpt>
      <trkpt lat="49.16562" lon="-0.37996">
        <ele>4.6</ele>
        <time>2023-04-21T11:31:04Z</time>
      </trkpt>
      <trkpt lat="49.16563" lon="-0.37987">
        <ele>4.6</ele>
        <time>2023-04-21T11:31:05Z</time>
      </trkpt>
      <trkpt lat="49.16564" lon="-0.37978">
        <ele>4.6</ele>
        <time>2023-04-21T11:31:06Z</time>
      </trkpt>
      <trkpt lat="49.16565" lon="-0.37969">
        <ele>4.6</ele>
        <time>2023-04-21T11:31:07Z</time>
      </trkpt>
      <trkpt lat="49.16566" lon="-0.3796">
        <ele>4.4</ele>
        <time>2023-04-21T11:31:08Z</time>
      </trkpt>
      <trkpt lat="49.16567" lon="-0.37952">
        <ele>4.2</ele>
        <time>2023-04-21T11:31:09Z</time>
      </trkpt>
      <trkpt lat="49.16568" lon="-0.37943">
        <ele>4</ele>
        <time>2023-04-21T11:31:10Z</time>
      </trkpt>
      <trkpt lat="49.16569" lon="-0.37934">
        <ele>4</ele>
        <time>2023-04-21T11:31:11Z</time>
      </trkpt>
      <trkpt lat="49.1657" lon="-0.37925">
        <ele>4</ele>
        <time>2023-04-21T11:31:12Z</time>
      </trkpt>
      <trkpt lat="49.16571" lon="-0.37917">
        <ele>3.8</ele>
        <time>2023-04-21T11:31:13Z</time>
      </trkpt>
      <trkpt lat="49.16573" lon="-0.37908">
        <ele>3.8</ele>
        <time>2023-04-21T11:31:14Z</time>
      </trkpt>
      <trkpt lat="49.16574" lon="-0.37899">
        <ele>3.8</ele>
        <time>2023-04-21T11:31:15Z</time>
      </trkpt>
      <trkpt lat="49.16576" lon="-0.3789">
        <ele>3.8</ele>
        <time>2023-04-21T11:31:16Z</time>
      </trkpt>
      <trkpt lat="49.16578" lon="-0.37881">
        <ele>3.8</ele>
        <time>2023-04-21T11:31:17Z</time>
      </trkpt>
      <trkpt lat="49.16579" lon="-0.37872">
        <ele>3.8</ele>
        <time>2023-04-21T11:31:18Z</time>
      </trkpt>
      <trkpt lat="49.16581" lon="-0.37863">
        <ele>3.8</ele>
        <time>2023-04-21T11:31:19Z</time>
      </trkpt>
      <trkpt lat="49.16583" lon="-0.37854">
        <ele>3.8</ele>
        <time>2023-04-21T11:31:20Z</time>
      </trkpt>
      <trkpt lat="49.16585" lon="-0.37846">
        <ele>3.8</ele>
        <time>2023-04-21T11:31:21Z</time>
      </trkpt>
      <trkpt lat="49.16586" lon="-0.37837">
        <ele>4</ele>
        <time>2023-04-21T11:31:22Z</time>
      </trkpt>
      <trkpt lat="49.16587" lon="-0.37829">
        <ele>4</ele>
        <time>2023-04-21T11:31:23Z</time>
      </trkpt>
      <trkpt lat="49.16587" lon="-0.3782">
        <ele>4</ele>
        <time>2023-04-21T11:31:24Z</time>
      </trkpt>
      <trkpt lat="49.16585" lon="-0.37813">
        <ele>4</ele>
        <time>2023-04-21T11:31:25Z</time>
      </trkpt>
      <trkpt lat="49.16582" lon="-0.37807">
        <ele>4</ele>
        <time>2023-04-21T11:31:26Z</time>
      </trkpt>
      <trkpt lat="49.16577" lon="-0.37802">
        <ele>4</ele>
        <time>2023-04-21T11:31:27Z</time>
      </trkpt>
      <trkpt lat="49.16573" lon="-0.37796">
        <ele>4</ele>
        <time>2023-04-21T11:31:28Z</time>
      </trkpt>
      <trkpt lat="49.16569" lon="-0.37788">
        <ele>4</ele>
        <time>2023-04-21T11:31:29Z</time>
      </trkpt>
      <trkpt lat="49.16565" lon="-0.3778">
        <ele>4</ele>
        <time>2023-04-21T11:31:30Z</time>
      </trkpt>
      <trkpt lat="49.16561" lon="-0.37772">
        <ele>4</ele>
        <time>2023-04-21T11:31:31Z</time>
      </trkpt>
      <trkpt lat="49.16557" lon="-0.37763">
        <ele>3.8</ele>
        <time>2023-04-21T11:31:32Z</time>
      </trkpt>
      <trkpt lat="49.16552" lon="-0.37756">
        <ele>3.8</ele>
        <time>2023-04-21T11:31:33Z</time>
      </trkpt>
      <trkpt lat="49.16547" lon="-0.37749">
        <ele>3.6</ele>
        <time>2023-04-21T11:31:34Z</time>
      </trkpt>
      <trkpt lat="49.16542" lon="-0.37744">
        <ele>3.4</ele>
        <time>2023-04-21T11:31:35Z</time>
      </trkpt>
      <trkpt lat="49.16536" lon="-0.37739">
        <ele>3.2</ele>
        <time>2023-04-21T11:31:36Z</time>
      </trkpt>
      <trkpt lat="49.1653" lon="-0.37736">
        <ele>3.2</ele>
        <time>2023-04-21T11:31:37Z</time>
      </trkpt>
      <trkpt lat="49.16524" lon="-0.37734">
        <ele>3.2</ele>
        <time>2023-04-21T11:31:38Z</time>
      </trkpt>
      <trkpt lat="49.16517" lon="-0.37732">
        <ele>3</ele>
        <time>2023-04-21T11:31:39Z</time>
      </trkpt>
      <trkpt lat="49.16511" lon="-0.3773">
        <ele>3</ele>
        <time>2023-04-21T11:31:40Z</time>
      </trkpt>
      <trkpt lat="49.16505" lon="-0.3773">
        <ele>3</ele>
        <time>2023-04-21T11:31:41Z</time>
      </trkpt>
      <trkpt lat="49.16498" lon="-0.37729">
        <ele>3</ele>
        <time>2023-04-21T11:31:42Z</time>
      </trkpt>
      <trkpt lat="49.16492" lon="-0.37728">
        <ele>3.6</ele>
        <time>2023-04-21T11:31:43Z</time>
      </trkpt>
      <trkpt lat="49.16485" lon="-0.37728">
        <ele>4</ele>
        <time>2023-04-21T11:31:44Z</time>
      </trkpt>
      <trkpt lat="49.16479" lon="-0.37728">
        <ele>4.6</ele>
        <time>2023-04-21T11:31:45Z</time>
      </trkpt>
      <trkpt lat="49.16472" lon="-0.37727">
        <ele>5</ele>
        <time>2023-04-21T11:31:46Z</time>
      </trkpt>
      <trkpt lat="49.16466" lon="-0.37727">
        <ele>5.6</ele>
        <time>2023-04-21T11:31:47Z</time>
      </trkpt>
      <trkpt lat="49.16459" lon="-0.37726">
        <ele>6</ele>
        <time>2023-04-21T11:31:48Z</time>
      </trkpt>
      <trkpt lat="49.16452" lon="-0.37725">
        <ele>6.6</ele>
        <time>2023-04-21T11:31:49Z</time>
      </trkpt>
      <trkpt lat="49.16445" lon="-0.37724">
        <ele>7</ele>
        <time>2023-04-21T11:31:50Z</time>
      </trkpt>
      <trkpt lat="49.16438" lon="-0.37724">
        <ele>7.6</ele>
        <time>2023-04-21T11:31:51Z</time>
      </trkpt>
      <trkpt lat="49.16432" lon="-0.37723">
        <ele>8</ele>
        <time>2023-04-21T11:31:52Z</time>
      </trkpt>
      <trkpt lat="49.16425" lon="-0.37723">
        <ele>8.4</ele>
        <time>2023-04-21T11:31:53Z</time>
      </trkpt>
      <trkpt lat="49.16418" lon="-0.37722">
        <ele>8.8</ele>
        <time>2023-04-21T11:31:54Z</time>
      </trkpt>
      <trkpt lat="49.16411" lon="-0.37723">
        <ele>9.2</ele>
        <time>2023-04-21T11:31:55Z</time>
      </trkpt>
      <trkpt lat="49.16405" lon="-0.37723">
        <ele>9.6</ele>
        <time>2023-04-21T11:31:56Z</time>
      </trkpt>
      <trkpt lat="49.16398" lon="-0.37725">
        <ele>9.8</ele>
        <time>2023-04-21T11:31:57Z</time>
      </trkpt>
      <trkpt lat="49.16391" lon="-0.37726">
        <ele>10.2</ele>
        <time>2023-04-21T11:31:58Z</time>
      </trkpt>
      <trkpt lat="49.16385" lon="-0.37728">
        <ele>10.6</ele>
        <time>2023-04-21T11:31:59Z</time>
      </trkpt>
      <trkpt lat="49.16378" lon="-0.3773">
        <ele>10.8</ele>
        <time>2023-04-21T11:32:00Z</time>
      </trkpt>
      <trkpt lat="49.16371" lon="-0.37733">
        <ele>11.2</ele>
        <time>2023-04-21T11:32:01Z</time>
      </trkpt>
      <trkpt lat="49.16365" lon="-0.37735">
        <ele>11.6</ele>
        <time>2023-04-21T11:32:02Z</time>
      </trkpt>
      <trkpt lat="49.16358" lon="-0.37738">
        <ele>11.8</ele>
        <time>2023-04-21T11:32:03Z</time>
      </trkpt>
      <trkpt lat="49.16352" lon="-0.3774">
        <ele>12.2</ele>
        <time>2023-04-21T11:32:04Z</time>
      </trkpt>
      <trkpt lat="49.16346" lon="-0.37742">
        <ele>12.4</ele>
        <time>2023-04-21T11:32:05Z</time>
      </trkpt>
      <trkpt lat="49.16339" lon="-0.37745">
        <ele>12.6</ele>
        <time>2023-04-21T11:32:06Z</time>
      </trkpt>
      <trkpt lat="49.16333" lon="-0.37746">
        <ele>12.8</ele>
        <time>2023-04-21T11:32:07Z</time>
      </trkpt>
      <trkpt lat="49.16326" lon="-0.37747">
        <ele>12.6</ele>
        <time>2023-04-21T11:32:08Z</time>
      </trkpt>
      <trkpt lat="49.16321" lon="-0.37747">
        <ele>12.4</ele>
        <time>2023-04-21T11:32:09Z</time>
      </trkpt>
      <trkpt lat="49.16317" lon="-0.37743">
        <ele>12.2</ele>
        <time>2023-04-21T11:32:10Z</time>
      </trkpt>
      <trkpt lat="49.16315" lon="-0.37737">
        <ele>11.8</ele>
        <time>2023-04-21T11:32:11Z</time>
      </trkpt>
      <trkpt lat="49.16315" lon="-0.37731">
        <ele>11.8</ele>
        <time>2023-04-21T11:32:12Z</time>
      </trkpt>
      <trkpt lat="49.16317" lon="-0.37725">
        <ele>11.6</ele>
        <time>2023-04-21T11:32:13Z</time>
      </trkpt>
      <trkpt lat="49.1632" lon="-0.37719">
        <ele>11.6</ele>
        <time>2023-04-21T11:32:14Z</time>
      </trkpt>
      <trkpt lat="49.16324" lon="-0.37714">
        <ele>11.4</ele>
        <time>2023-04-21T11:32:15Z</time>
      </trkpt>
      <trkpt lat="49.16327" lon="-0.37707">
        <ele>11.4</ele>
        <time>2023-04-21T11:32:16Z</time>
      </trkpt>
      <trkpt lat="49.16331" lon="-0.377">
        <ele>11.2</ele>
        <time>2023-04-21T11:32:17Z</time>
      </trkpt>
      <trkpt lat="49.16334" lon="-0.37693">
        <ele>10.8</ele>
        <time>2023-04-21T11:32:18Z</time>
      </trkpt>
      <trkpt lat="49.16337" lon="-0.37685">
        <ele>10.6</ele>
        <time>2023-04-21T11:32:19Z</time>
      </trkpt>
      <trkpt lat="49.1634" lon="-0.37677">
        <ele>10</ele>
        <time>2023-04-21T11:32:20Z</time>
      </trkpt>
      <trkpt lat="49.16343" lon="-0.3767">
        <ele>9.6</ele>
        <time>2023-04-21T11:32:21Z</time>
      </trkpt>
      <trkpt lat="49.16346" lon="-0.37662">
        <ele>9.2</ele>
        <time>2023-04-21T11:32:22Z</time>
      </trkpt>
      <trkpt lat="49.16349" lon="-0.37655">
        <ele>8.6</ele>
        <time>2023-04-21T11:32:23Z</time>
      </trkpt>
      <trkpt lat="49.16352" lon="-0.37647">
        <ele>8.4</ele>
        <time>2023-04-21T11:32:24Z</time>
      </trkpt>
      <trkpt lat="49.16355" lon="-0.3764">
        <ele>8</ele>
        <time>2023-04-21T11:32:25Z</time>
      </trkpt>
      <trkpt lat="49.16358" lon="-0.37632">
        <ele>7.6</ele>
        <time>2023-04-21T11:32:26Z</time>
      </trkpt>
      <trkpt lat="49.16361" lon="-0.37625">
        <ele>7.4</ele>
        <time>2023-04-21T11:32:27Z</time>
      </trkpt>
      <trkpt lat="49.16363" lon="-0.37618">
        <ele>7</ele>
        <time>2023-04-21T11:32:28Z</time>
      </trkpt>
      <trkpt lat="49.16365" lon="-0.3761">
        <ele>6.8</ele>
        <time>2023-04-21T11:32:29Z</time>
      </trkpt>
      <trkpt lat="49.16366" lon="-0.37603">
        <ele>6.6</ele>
        <time>2023-04-21T11:32:30Z</time>
      </trkpt>
      <trkpt lat="49.16367" lon="-0.37597">
        <ele>6.4</ele>
        <time>2023-04-21T11:32:31Z</time>
      </trkpt>
      <trkpt lat="49.16368" lon="-0.37591">
        <ele>6</ele>
        <time>2023-04-21T11:32:32Z</time>
      </trkpt>
      <trkpt lat="49.16368" lon="-0.37586">
        <ele>6</ele>
        <time>2023-04-21T11:32:33Z</time>
      </trkpt>
      <trkpt lat="49.16367" lon="-0.37583">
        <ele>6</ele>
        <time>2023-04-21T11:32:34Z</time>
      </trkpt>
      <trkpt lat="49.16365" lon="-0.3758">
        <ele>6</ele>
        <time>2023-04-21T11:32:35Z</time>
      </trkpt>
      <trkpt lat="49.16363" lon="-0.3758">
        <ele>6.4</ele>
        <time>2023-04-21T11:32:36Z</time>
      </trkpt>
      <trkpt lat="49.1636" lon="-0.37581">
        <ele>6.4</ele>
        <time>2023-04-21T11:32:37Z</time>
      </trkpt>
      <trkpt lat="49.16357" lon="-0.37585">
        <ele>6.6</ele>
        <time>2023-04-21T11:32:38Z</time>
      </trkpt>
      <trkpt lat="49.16354" lon="-0.37587">
        <ele>6.8</ele>
        <time>2023-04-21T11:32:39Z</time>
      </trkpt>
      <trkpt lat="49.16351" lon="-0.37588">
        <ele>7</ele>
        <time>2023-04-21T11:32:40Z</time>
      </trkpt>
      <trkpt lat="49.16348" lon="-0.37589">
        <ele>7.2</ele>
        <time>2023-04-21T11:32:41Z</time>
      </trkpt>
      <trkpt lat="49.16345" lon="-0.37592">
        <ele>7.6</ele>
        <time>2023-04-21T11:32:42Z</time>
      </trkpt>
      <trkpt lat="49.16342" lon="-0.37595">
        <ele>7.8</ele>
        <time>2023-04-21T11:32:43Z</time>
      </trkpt>
      <trkpt lat="49.16338" lon="-0.37596">
        <ele>8</ele>
        <time>2023-04-21T11:32:44Z</time>
      </trkpt>
      <trkpt lat="49.16333" lon="-0.37598">
        <ele>8.4</ele>
        <time>2023-04-21T11:32:45Z</time>
      </trkpt>
      <trkpt lat="49.16329" lon="-0.376">
        <ele>8.4</ele>
        <time>2023-04-21T11:32:46Z</time>
      </trkpt>
      <trkpt lat="49.16325" lon="-0.37603">
        <ele>8.2</ele>
        <time>2023-04-21T11:32:47Z</time>
      </trkpt>
      <trkpt lat="49.16321" lon="-0.37605">
        <ele>8.2</ele>
        <time>2023-04-21T11:32:48Z</time>
      </trkpt>
      <trkpt lat="49.16316" lon="-0.37608">
        <ele>8.2</ele>
        <time>2023-04-21T11:32:49Z</time>
      </trkpt>
      <trkpt lat="49.16311" lon="-0.37611">
        <ele>8.2</ele>
        <time>2023-04-21T11:32:50Z</time>
      </trkpt>
      <trkpt lat="49.16306" lon="-0.37615">
        <ele>8</ele>
        <time>2023-04-21T11:32:51Z</time>
      </trkpt>
      <trkpt lat="49.163" lon="-0.37619">
        <ele>8</ele>
        <time>2023-04-21T11:32:52Z</time>
      </trkpt>
      <trkpt lat="49.16294" lon="-0.37622">
        <ele>8</ele>
        <time>2023-04-21T11:32:53Z</time>
      </trkpt>
      <trkpt lat="49.16288" lon="-0.37626">
        <ele>8</ele>
        <time>2023-04-21T11:32:54Z</time>
      </trkpt>
      <trkpt lat="49.16282" lon="-0.37629">
        <ele>8</ele>
        <time>2023-04-21T11:32:55Z</time>
      </trkpt>
      <trkpt lat="49.16276" lon="-0.37633">
        <ele>8</ele>
        <time>2023-04-21T11:32:56Z</time>
      </trkpt>
      <trkpt lat="49.1627" lon="-0.37637">
        <ele>8</ele>
        <time>2023-04-21T11:32:57Z</time>
      </trkpt>
      <trkpt lat="49.16264" lon="-0.3764">
        <ele>8</ele>
        <time>2023-04-21T11:32:58Z</time>
      </trkpt>
      <trkpt lat="49.16258" lon="-0.37644">
        <ele>8.2</ele>
        <time>2023-04-21T11:32:59Z</time>
      </trkpt>
      <trkpt lat="49.16252" lon="-0.37648">
        <ele>8.2</ele>
        <time>2023-04-21T11:33:00Z</time>
      </trkpt>
      <trkpt lat="49.16246" lon="-0.37652">
        <ele>8.2</ele>
        <time>2023-04-21T11:33:01Z</time>
      </trkpt>
      <trkpt lat="49.1624" lon="-0.37656">
        <ele>8</ele>
        <time>2023-04-21T11:33:02Z</time>
      </trkpt>
      <trkpt lat="49.16234" lon="-0.3766">
        <ele>8</ele>
        <time>2023-04-21T11:33:03Z</time>
      </trkpt>
      <trkpt lat="49.16227" lon="-0.37664">
        <ele>7.8</ele>
        <time>2023-04-21T11:33:04Z</time>
      </trkpt>
      <trkpt lat="49.16221" lon="-0.37668">
        <ele>7.6</ele>
        <time>2023-04-21T11:33:05Z</time>
      </trkpt>
      <trkpt lat="49.16215" lon="-0.37672">
        <ele>7.4</ele>
        <time>2023-04-21T11:33:06Z</time>
      </trkpt>
      <trkpt lat="49.16208" lon="-0.37676">
        <ele>7.2</ele>
        <time>2023-04-21T11:33:07Z</time>
      </trkpt>
      <trkpt lat="49.16202" lon="-0.3768">
        <ele>7</ele>
        <time>2023-04-21T11:33:08Z</time>
      </trkpt>
      <trkpt lat="49.16196" lon="-0.37684">
        <ele>6.6</ele>
        <time>2023-04-21T11:33:09Z</time>
      </trkpt>
      <trkpt lat="49.16189" lon="-0.37688">
        <ele>6.6</ele>
        <time>2023-04-21T11:33:10Z</time>
      </trkpt>
      <trkpt lat="49.16183" lon="-0.37692">
        <ele>6.4</ele>
        <time>2023-04-21T11:33:11Z</time>
      </trkpt>
      <trkpt lat="49.16176" lon="-0.37696">
        <ele>6</ele>
        <time>2023-04-21T11:33:12Z</time>
      </trkpt>
      <trkpt lat="49.1617" lon="-0.377">
        <ele>6</ele>
        <time>2023-04-21T11:33:13Z</time>
      </trkpt>
      <trkpt lat="49.16164" lon="-0.37704">
        <ele>6</ele>
        <time>2023-04-21T11:33:14Z</time>
      </trkpt>
      <trkpt lat="49.16157" lon="-0.37708">
        <ele>6</ele>
        <time>2023-04-21T11:33:15Z</time>
      </trkpt>
      <trkpt lat="49.16151" lon="-0.37712">
        <ele>6</ele>
        <time>2023-04-21T11:33:16Z</time>
      </trkpt>
      <trkpt lat="49.16144" lon="-0.37716">
        <ele>6.2</ele>
        <time>2023-04-21T11:33:17Z</time>
      </trkpt>
      <trkpt lat="49.16138" lon="-0.3772">
        <ele>6.4</ele>
        <time>2023-04-21T11:33:18Z</time>
      </trkpt>
      <trkpt lat="49.16132" lon="-0.37724">
        <ele>6.4</ele>
        <time>2023-04-21T11:33:19Z</time>
      </trkpt>
      <trkpt lat="49.16125" lon="-0.37728">
        <ele>6.6</ele>
        <time>2023-04-21T11:33:20Z</time>
      </trkpt>
      <trkpt lat="49.16119" lon="-0.37732">
        <ele>6.6</ele>
        <time>2023-04-21T11:33:21Z</time>
      </trkpt>
      <trkpt lat="49.16112" lon="-0.37736">
        <ele>6.6</ele>
        <time>2023-04-21T11:33:22Z</time>
      </trkpt>
      <trkpt lat="49.16106" lon="-0.3774">
        <ele>6.8</ele>
        <time>2023-04-21T11:33:23Z</time>
      </trkpt>
      <trkpt lat="49.16099" lon="-0.37744">
        <ele>7</ele>
        <time>2023-04-21T11:33:24Z</time>
      </trkpt>
      <trkpt lat="49.16092" lon="-0.37748">
        <ele>7</ele>
        <time>2023-04-21T11:33:25Z</time>
      </trkpt>
      <trkpt lat="49.16086" lon="-0.37752">
        <ele>7</ele>
        <time>2023-04-21T11:33:26Z</time>
      </trkpt>
      <trkpt lat="49.16079" lon="-0.37756">
        <ele>7</ele>
        <time>2023-04-21T11:33:27Z</time>
      </trkpt>
      <trkpt lat="49.16072" lon="-0.3776">
        <ele>7</ele>
        <time>2023-04-21T11:33:28Z</time>
      </trkpt>
      <trkpt lat="49.16066" lon="-0.37764">
        <ele>7</ele>
        <time>2023-04-21T11:33:29Z</time>
      </trkpt>
      <trkpt lat="49.16059" lon="-0.37768">
        <ele>7</ele>
        <time>2023-04-21T11:33:30Z</time>
      </trkpt>
      <trkpt lat="49.16052" lon="-0.37772">
        <ele>7</ele>
        <time>2023-04-21T11:33:31Z</time>
      </trkpt>
      <trkpt lat="49.16046" lon="-0.37776">
        <ele>7</ele>
        <time>2023-04-21T11:33:32Z</time>
      </trkpt>
      <trkpt lat="49.16039" lon="-0.3778">
        <ele>7</ele>
        <time>2023-04-21T11:33:33Z</time>
      </trkpt>
      <trkpt lat="49.16032" lon="-0.37785">
        <ele>7</ele>
        <time>2023-04-21T11:33:34Z</time>
      </trkpt>
      <trkpt lat="49.16026" lon="-0.37789">
        <ele>7</ele>
        <time>2023-04-21T11:33:35Z</time>
      </trkpt>
      <trkpt lat="49.16019" lon="-0.37793">
        <ele>7</ele>
        <time>2023-04-21T11:33:36Z</time>
      </trkpt>
      <trkpt lat="49.16012" lon="-0.37797">
        <ele>7</ele>
        <time>2023-04-21T11:33:37Z</time>
      </trkpt>
      <trkpt lat="49.16006" lon="-0.37802">
        <ele>7.2</ele>
        <time>2023-04-21T11:33:38Z</time>
      </trkpt>
      <trkpt lat="49.15999" lon="-0.37806">
        <ele>7.4</ele>
        <time>2023-04-21T11:33:39Z</time>
      </trkpt>
      <trkpt lat="49.15992" lon="-0.3781">
        <ele>7.6</ele>
        <time>2023-04-21T11:33:40Z</time>
      </trkpt>
      <trkpt lat="49.15986" lon="-0.37814">
        <ele>7.6</ele>
        <time>2023-04-21T11:33:41Z</time>
      </trkpt>
      <trkpt lat="49.15979" lon="-0.37818">
        <ele>7.6</ele>
        <time>2023-04-21T11:33:42Z</time>
      </trkpt>
      <trkpt lat="49.15972" lon="-0.37822">
        <ele>7.8</ele>
        <time>2023-04-21T11:33:43Z</time>
      </trkpt>
      <trkpt lat="49.15966" lon="-0.37826">
        <ele>7.8</ele>
        <time>2023-04-21T11:33:44Z</time>
      </trkpt>
      <trkpt lat="49.15959" lon="-0.3783">
        <ele>8</ele>
        <time>2023-04-21T11:33:45Z</time>
      </trkpt>
      <trkpt lat="49.15953" lon="-0.37834">
        <ele>8</ele>
        <time>2023-04-21T11:33:46Z</time>
      </trkpt>
      <trkpt lat="49.15946" lon="-0.37838">
        <ele>7.8</ele>
        <time>2023-04-21T11:33:47Z</time>
      </trkpt>
      <trkpt lat="49.15939" lon="-0.37842">
        <ele>7.8</ele>
        <time>2023-04-21T11:33:48Z</time>
      </trkpt>
      <trkpt lat="49.15933" lon="-0.37846">
        <ele>7.6</ele>
        <time>2023-04-21T11:33:49Z</time>
      </trkpt>
      <trkpt lat="49.15926" lon="-0.3785">
        <ele>7.6</ele>
        <time>2023-04-21T11:33:50Z</time>
      </trkpt>
      <trkpt lat="49.1592" lon="-0.37854">
        <ele>7.6</ele>
        <time>2023-04-21T11:33:51Z</time>
      </trkpt>
      <trkpt lat="49.15913" lon="-0.37858">
        <ele>7.6</ele>
        <time>2023-04-21T11:33:52Z</time>
      </trkpt>
      <trkpt lat="49.15907" lon="-0.37862">
        <ele>7.6</ele>
        <time>2023-04-21T11:33:53Z</time>
      </trkpt>
      <trkpt lat="49.159" lon="-0.37866">
        <ele>7.6</ele>
        <time>2023-04-21T11:33:54Z</time>
      </trkpt>
      <trkpt lat="49.15894" lon="-0.37871">
        <ele>7.6</ele>
        <time>2023-04-21T11:33:55Z</time>
      </trkpt>
      <trkpt lat="49.15887" lon="-0.37875">
        <ele>7.6</ele>
        <time>2023-04-21T11:33:56Z</time>
      </trkpt>
      <trkpt lat="49.15881" lon="-0.37879">
        <ele>7.6</ele>
        <time>2023-04-21T11:33:57Z</time>
      </trkpt>
      <trkpt lat="49.15874" lon="-0.37883">
        <ele>7.6</ele>
        <time>2023-04-21T11:33:58Z</time>
      </trkpt>
      <trkpt lat="49.15868" lon="-0.37887">
        <ele>7.6</ele>
        <time>2023-04-21T11:33:59Z</time>
      </trkpt>
      <trkpt lat="49.15861" lon="-0.37891">
        <ele>7.6</ele>
        <time>2023-04-21T11:34:00Z</time>
      </trkpt>
      <trkpt lat="49.15854" lon="-0.37895">
        <ele>7.6</ele>
        <time>2023-04-21T11:34:01Z</time>
      </trkpt>
      <trkpt lat="49.15848" lon="-0.37899">
        <ele>7.8</ele>
        <time>2023-04-21T11:34:02Z</time>
      </trkpt>
      <trkpt lat="49.15841" lon="-0.37904">
        <ele>7.8</ele>
        <time>2023-04-21T11:34:03Z</time>
      </trkpt>
      <trkpt lat="49.15834" lon="-0.37908">
        <ele>7.8</ele>
        <time>2023-04-21T11:34:04Z</time>
      </trkpt>
      <trkpt lat="49.15827" lon="-0.37912">
        <ele>7.6</ele>
        <time>2023-04-21T11:34:05Z</time>
      </trkpt>
      <trkpt lat="49.15821" lon="-0.37916">
        <ele>7.6</ele>
        <time>2023-04-21T11:34:06Z</time>
      </trkpt>
      <trkpt lat="49.15814" lon="-0.37921">
        <ele>7.6</ele>
        <time>2023-04-21T11:34:07Z</time>
      </trkpt>
      <trkpt lat="49.15807" lon="-0.37925">
        <ele>7.6</ele>
        <time>2023-04-21T11:34:08Z</time>
      </trkpt>
      <trkpt lat="49.158" lon="-0.37929">
        <ele>7.4</ele>
        <time>2023-04-21T11:34:09Z</time>
      </trkpt>
      <trkpt lat="49.15794" lon="-0.37933">
        <ele>7.4</ele>
        <time>2023-04-21T11:34:10Z</time>
      </trkpt>
      <trkpt lat="49.15787" lon="-0.37937">
        <ele>7.4</ele>
        <time>2023-04-21T11:34:11Z</time>
      </trkpt>
      <trkpt lat="49.1578" lon="-0.37941">
        <ele>7.2</ele>
        <time>2023-04-21T11:34:12Z</time>
      </trkpt>
      <trkpt lat="49.15774" lon="-0.37945">
        <ele>7.2</ele>
        <time>2023-04-21T11:34:13Z</time>
      </trkpt>
      <trkpt lat="49.15767" lon="-0.37947">
        <ele>7</ele>
        <time>2023-04-21T11:34:14Z</time>
      </trkpt>
      <trkpt lat="49.15761" lon="-0.37946">
        <ele>7</ele>
        <time>2023-04-21T11:34:15Z</time>
      </trkpt>
      <trkpt lat="49.15756" lon="-0.37942">
        <ele>6.6</ele>
        <time>2023-04-21T11:34:16Z</time>
      </trkpt>
      <trkpt lat="49.1575" lon="-0.37939">
        <ele>6.6</ele>
        <time>2023-04-21T11:34:17Z</time>
      </trkpt>
      <trkpt lat="49.15744" lon="-0.37939">
        <ele>6.6</ele>
        <time>2023-04-21T11:34:18Z</time>
      </trkpt>
      <trkpt lat="49.15738" lon="-0.37943">
        <ele>6.6</ele>
        <time>2023-04-21T11:34:19Z</time>
      </trkpt>
      <trkpt lat="49.15733" lon="-0.37947">
        <ele>6.8</ele>
        <time>2023-04-21T11:34:20Z</time>
      </trkpt>
      <trkpt lat="49.15727" lon="-0.37953">
        <ele>7</ele>
        <time>2023-04-21T11:34:21Z</time>
      </trkpt>
      <trkpt lat="49.15721" lon="-0.37958">
        <ele>7.2</ele>
        <time>2023-04-21T11:34:22Z</time>
      </trkpt>
      <trkpt lat="49.15714" lon="-0.37966">
        <ele>7.4</ele>
        <time>2023-04-21T11:34:23Z</time>
      </trkpt>
      <trkpt lat="49.15708" lon="-0.37974">
        <ele>7.6</ele>
        <time>2023-04-21T11:34:24Z</time>
      </trkpt>
      <trkpt lat="49.15701" lon="-0.37983">
        <ele>8.2</ele>
        <time>2023-04-21T11:34:25Z</time>
      </trkpt>
      <trkpt lat="49.15695" lon="-0.37994">
        <ele>8.6</ele>
        <time>2023-04-21T11:34:26Z</time>
      </trkpt>
      <trkpt lat="49.1569" lon="-0.38006">
        <ele>8.6</ele>
        <time>2023-04-21T11:34:27Z</time>
      </trkpt>
      <trkpt lat="49.15686" lon="-0.38017">
        <ele>8.4</ele>
        <time>2023-04-21T11:34:28Z</time>
      </trkpt>
      <trkpt lat="49.1568" lon="-0.38028">
        <ele>8.2</ele>
        <time>2023-04-21T11:34:29Z</time>
      </trkpt>
      <trkpt lat="49.15673" lon="-0.38035">
        <ele>8.2</ele>
        <time>2023-04-21T11:34:30Z</time>
      </trkpt>
      <trkpt lat="49.15665" lon="-0.38038">
        <ele>8</ele>
        <time>2023-04-21T11:34:31Z</time>
      </trkpt>
      <trkpt lat="49.15657" lon="-0.38036">
        <ele>7.8</ele>
        <time>2023-04-21T11:34:32Z</time>
      </trkpt>
      <trkpt lat="49.15649" lon="-0.38034">
        <ele>7.6</ele>
        <time>2023-04-21T11:34:33Z</time>
      </trkpt>
      <trkpt lat="49.15641" lon="-0.38032">
        <ele>7.4</ele>
        <time>2023-04-21T11:34:34Z</time>
      </trkpt>
      <trkpt lat="49.15634" lon="-0.38029">
        <ele>7</ele>
        <time>2023-04-21T11:34:35Z</time>
      </trkpt>
      <trkpt lat="49.15626" lon="-0.38026">
        <ele>6.6</ele>
        <time>2023-04-21T11:34:36Z</time>
      </trkpt>
      <trkpt lat="49.15618" lon="-0.38023">
        <ele>6.4</ele>
        <time>2023-04-21T11:34:37Z</time>
      </trkpt>
      <trkpt lat="49.1561" lon="-0.3802">
        <ele>6</ele>
        <time>2023-04-21T11:34:38Z</time>
      </trkpt>
      <trkpt lat="49.15602" lon="-0.38017">
        <ele>5.8</ele>
        <time>2023-04-21T11:34:39Z</time>
      </trkpt>
      <trkpt lat="49.15594" lon="-0.38014">
        <ele>5.6</ele>
        <time>2023-04-21T11:34:40Z</time>
      </trkpt>
      <trkpt lat="49.15587" lon="-0.38011">
        <ele>5.2</ele>
        <time>2023-04-21T11:34:41Z</time>
      </trkpt>
      <trkpt lat="49.15579" lon="-0.38008">
        <ele>5</ele>
        <time>2023-04-21T11:34:42Z</time>
      </trkpt>
      <trkpt lat="49.15571" lon="-0.38006">
        <ele>5</ele>
        <time>2023-04-21T11:34:43Z</time>
      </trkpt>
      <trkpt lat="49.15563" lon="-0.38003">
        <ele>5</ele>
        <time>2023-04-21T11:34:44Z</time>
      </trkpt>
      <trkpt lat="49.15556" lon="-0.38">
        <ele>5</ele>
        <time>2023-04-21T11:34:45Z</time>
      </trkpt>
      <trkpt lat="49.15548" lon="-0.37997">
        <ele>5</ele>
        <time>2023-04-21T11:34:46Z</time>
      </trkpt>
      <trkpt lat="49.1554" lon="-0.37994">
        <ele>5</ele>
        <time>2023-04-21T11:34:47Z</time>
      </trkpt>
      <trkpt lat="49.15533" lon="-0.3799">
        <ele>4.8</ele>
        <time>2023-04-21T11:34:48Z</time>
      </trkpt>
      <trkpt lat="49.15525" lon="-0.37987">
        <ele>4.8</ele>
        <time>2023-04-21T11:34:49Z</time>
      </trkpt>
      <trkpt lat="49.15517" lon="-0.37983">
        <ele>4.8</ele>
        <time>2023-04-21T11:34:50Z</time>
      </trkpt>
      <trkpt lat="49.1551" lon="-0.3798">
        <ele>4.6</ele>
        <time>2023-04-21T11:34:51Z</time>
      </trkpt>
      <trkpt lat="49.15502" lon="-0.37979">
        <ele>4.6</ele>
        <time>2023-04-21T11:34:52Z</time>
      </trkpt>
      <trkpt lat="49.15496" lon="-0.37984">
        <ele>4.8</ele>
        <time>2023-04-21T11:34:53Z</time>
      </trkpt>
      <trkpt lat="49.15491" lon="-0.37992">
        <ele>5</ele>
        <time>2023-04-21T11:34:54Z</time>
      </trkpt>
      <trkpt lat="49.15487" lon="-0.38002">
        <ele>5</ele>
        <time>2023-04-21T11:34:55Z</time>
      </trkpt>
      <trkpt lat="49.15484" lon="-0.38012">
        <ele>5</ele>
        <time>2023-04-21T11:34:56Z</time>
      </trkpt>
      <trkpt lat="49.1548" lon="-0.38022">
        <ele>5</ele>
        <time>2023-04-21T11:34:57Z</time>
      </trkpt>
      <trkpt lat="49.15475" lon="-0.38033">
        <ele>5</ele>
        <time>2023-04-21T11:34:58Z</time>
      </trkpt>
      <trkpt lat="49.15471" lon="-0.38042">
        <ele>5</ele>
        <time>2023-04-21T11:34:59Z</time>
      </trkpt>
      <trkpt lat="49.15466" lon="-0.38052">
        <ele>5</ele>
        <time>2023-04-21T11:35:00Z</time>
      </trkpt>
      <trkpt lat="49.15462" lon="-0.38062">
        <ele>5</ele>
        <time>2023-04-21T11:35:01Z</time>
      </trkpt>
      <trkpt lat="49.15457" lon="-0.38073">
        <ele>5</ele>
        <time>2023-04-21T11:35:02Z</time>
      </trkpt>
      <trkpt lat="49.15453" lon="-0.38083">
        <ele>5</ele>
        <time>2023-04-21T11:35:03Z</time>
      </trkpt>
      <trkpt lat="49.15448" lon="-0.38093">
        <ele>5</ele>
        <time>2023-04-21T11:35:04Z</time>
      </trkpt>
      <trkpt lat="49.15444" lon="-0.38103">
        <ele>5</ele>
        <time>2023-04-21T11:35:05Z</time>
      </trkpt>
      <trkpt lat="49.1544" lon="-0.38113">
        <ele>5</ele>
        <time>2023-04-21T11:35:06Z</time>
      </trkpt>
      <trkpt lat="49.15435" lon="-0.38123">
        <ele>5</ele>
        <time>2023-04-21T11:35:07Z</time>
      </trkpt>
      <trkpt lat="49.1543" lon="-0.38132">
        <ele>5</ele>
        <time>2023-04-21T11:35:08Z</time>
      </trkpt>
      <trkpt lat="49.15424" lon="-0.3814">
        <ele>5</ele>
        <time>2023-04-21T11:35:09Z</time>
      </trkpt>
      <trkpt lat="49.15417" lon="-0.38147">
        <ele>5</ele>
        <time>2023-04-21T11:35:10Z</time>
      </trkpt>
      <trkpt lat="49.15411" lon="-0.38154">
        <ele>5</ele>
        <time>2023-04-21T11:35:11Z</time>
      </trkpt>
      <trkpt lat="49.15404" lon="-0.3816">
        <ele>5</ele>
        <time>2023-04-21T11:35:12Z</time>
      </trkpt>
      <trkpt lat="49.15398" lon="-0.38166">
        <ele>5</ele>
        <time>2023-04-21T11:35:13Z</time>
      </trkpt>
      <trkpt lat="49.15391" lon="-0.38172">
        <ele>5</ele>
        <time>2023-04-21T11:35:14Z</time>
      </trkpt>
      <trkpt lat="49.15385" lon="-0.38178">
        <ele>5</ele>
        <time>2023-04-21T11:35:15Z</time>
      </trkpt>
      <trkpt lat="49.15379" lon="-0.38184">
        <ele>5</ele>
        <time>2023-04-21T11:35:16Z</time>
      </trkpt>
      <trkpt lat="49.15374" lon="-0.3819">
        <ele>5</ele>
        <time>2023-04-21T11:35:17Z</time>
      </trkpt>
      <trkpt lat="49.15368" lon="-0.38195">
        <ele>5</ele>
        <time>2023-04-21T11:35:18Z</time>
      </trkpt>
      <trkpt lat="49.15362" lon="-0.38199">
        <ele>5</ele>
        <time>2023-04-21T11:35:19Z</time>
      </trkpt>
      <trkpt lat="49.15356" lon="-0.38203">
        <ele>5</ele>
        <time>2023-04-21T11:35:20Z</time>
      </trkpt>
      <trkpt lat="49.1535" lon="-0.38207">
        <ele>5</ele>
        <time>2023-04-21T11:35:21Z</time>
      </trkpt>
      <trkpt lat="49.15344" lon="-0.38211">
        <ele>5</ele>
        <time>2023-04-21T11:35:22Z</time>
      </trkpt>
      <trkpt lat="49.15338" lon="-0.38215">
        <ele>5</ele>
        <time>2023-04-21T11:35:23Z</time>
      </trkpt>
      <trkpt lat="49.15332" lon="-0.38219">
        <ele>5</ele>
        <time>2023-04-21T11:35:24Z</time>
      </trkpt>
      <trkpt lat="49.15327" lon="-0.38223">
        <ele>5</ele>
        <time>2023-04-21T11:35:25Z</time>
      </trkpt>
      <trkpt lat="49.15321" lon="-0.38226">
        <ele>5</ele>
        <time>2023-04-21T11:35:26Z</time>
      </trkpt>
      <trkpt lat="49.15316" lon="-0.3823">
        <ele>5</ele>
        <time>2023-04-21T11:35:27Z</time>
      </trkpt>
      <trkpt lat="49.1531" lon="-0.38234">
        <ele>5</ele>
        <time>2023-04-21T11:35:28Z</time>
      </trkpt>
      <trkpt lat="49.15305" lon="-0.38237">
        <ele>5</ele>
        <time>2023-04-21T11:35:29Z</time>
      </trkpt>
      <trkpt lat="49.153" lon="-0.3824">
        <ele>5</ele>
        <time>2023-04-21T11:35:30Z</time>
      </trkpt>
      <trkpt lat="49.15295" lon="-0.38244">
        <ele>5</ele>
        <time>2023-04-21T11:35:31Z</time>
      </trkpt>
      <trkpt lat="49.15289" lon="-0.38247">
        <ele>5</ele>
        <time>2023-04-21T11:35:32Z</time>
      </trkpt>
      <trkpt lat="49.15284" lon="-0.3825">
        <ele>5</ele>
        <time>2023-04-21T11:35:33Z</time>
      </trkpt>
      <trkpt lat="49.15279" lon="-0.38253">
        <ele>5</ele>
        <time>2023-04-21T11:35:34Z</time>
      </trkpt>
      <trkpt lat="49.15273" lon="-0.38255">
        <ele>5</ele>
        <time>2023-04-21T11:35:35Z</time>
      </trkpt>
      <trkpt lat="49.15268" lon="-0.38258">
        <ele>5</ele>
        <time>2023-04-21T11:35:36Z</time>
      </trkpt>
      <trkpt lat="49.15263" lon="-0.3826">
        <ele>5</ele>
        <time>2023-04-21T11:35:37Z</time>
      </trkpt>
      <trkpt lat="49.15257" lon="-0.38262">
        <ele>5</ele>
        <time>2023-04-21T11:35:38Z</time>
      </trkpt>
      <trkpt lat="49.15253" lon="-0.38264">
        <ele>5</ele>
        <time>2023-04-21T11:35:39Z</time>
      </trkpt>
      <trkpt lat="49.15248" lon="-0.38266">
        <ele>5</ele>
        <time>2023-04-21T11:35:40Z</time>
      </trkpt>
      <trkpt lat="49.15243" lon="-0.38268">
        <ele>5.2</ele>
        <time>2023-04-21T11:35:41Z</time>
      </trkpt>
      <trkpt lat="49.15239" lon="-0.38271">
        <ele>5.4</ele>
        <time>2023-04-21T11:35:42Z</time>
      </trkpt>
      <trkpt lat="49.15235" lon="-0.38274">
        <ele>5.4</ele>
        <time>2023-04-21T11:35:43Z</time>
      </trkpt>
      <trkpt lat="49.1523" lon="-0.38278">
        <ele>5.6</ele>
        <time>2023-04-21T11:35:44Z</time>
      </trkpt>
      <trkpt lat="49.15225" lon="-0.38281">
        <ele>5.6</ele>
        <time>2023-04-21T11:35:45Z</time>
      </trkpt>
      <trkpt lat="49.15221" lon="-0.38284">
        <ele>5.6</ele>
        <time>2023-04-21T11:35:46Z</time>
      </trkpt>
      <trkpt lat="49.15216" lon="-0.38288">
        <ele>5.8</ele>
        <time>2023-04-21T11:35:47Z</time>
      </trkpt>
      <trkpt lat="49.15211" lon="-0.38291">
        <ele>6</ele>
        <time>2023-04-21T11:35:48Z</time>
      </trkpt>
      <trkpt lat="49.15206" lon="-0.38295">
        <ele>6</ele>
        <time>2023-04-21T11:35:49Z</time>
      </trkpt>
      <trkpt lat="49.152" lon="-0.38299">
        <ele>6.2</ele>
        <time>2023-04-21T11:35:50Z</time>
      </trkpt>
      <trkpt lat="49.15195" lon="-0.38305">
        <ele>6.4</ele>
        <time>2023-04-21T11:35:51Z</time>
      </trkpt>
      <trkpt lat="49.1519" lon="-0.38311">
        <ele>6.4</ele>
        <time>2023-04-21T11:35:52Z</time>
      </trkpt>
      <trkpt lat="49.15186" lon="-0.38318">
        <ele>6.6</ele>
        <time>2023-04-21T11:35:53Z</time>
      </trkpt>
      <trkpt lat="49.1518" lon="-0.38323">
        <ele>6.6</ele>
        <time>2023-04-21T11:35:54Z</time>
      </trkpt>
      <trkpt lat="49.15175" lon="-0.38328">
        <ele>6.8</ele>
        <time>2023-04-21T11:35:55Z</time>
      </trkpt>
      <trkpt lat="49.1517" lon="-0.38333">
        <ele>7</ele>
        <time>2023-04-21T11:35:56Z</time>
      </trkpt>
      <trkpt lat="49.15164" lon="-0.38337">
        <ele>6.8</ele>
        <time>2023-04-21T11:35:57Z</time>
      </trkpt>
      <trkpt lat="49.15159" lon="-0.3834">
        <ele>6.6</ele>
        <time>2023-04-21T11:35:58Z</time>
      </trkpt>
      <trkpt lat="49.15153" lon="-0.38344">
        <ele>6.4</ele>
        <time>2023-04-21T11:35:59Z</time>
      </trkpt>
      <trkpt lat="49.15147" lon="-0.38348">
        <ele>6</ele>
        <time>2023-04-21T11:36:00Z</time>
      </trkpt>
      <trkpt lat="49.1514" lon="-0.38353">
        <ele>6</ele>
        <time>2023-04-21T11:36:01Z</time>
      </trkpt>
      <trkpt lat="49.15134" lon="-0.38357">
        <ele>5.6</ele>
        <time>2023-04-21T11:36:02Z</time>
      </trkpt>
      <trkpt lat="49.15127" lon="-0.38362">
        <ele>5.6</ele>
        <time>2023-04-21T11:36:03Z</time>
      </trkpt>
      <trkpt lat="49.15119" lon="-0.38367">
        <ele>5.4</ele>
        <time>2023-04-21T11:36:04Z</time>
      </trkpt>
      <trkpt lat="49.15112" lon="-0.38372">
        <ele>5</ele>
        <time>2023-04-21T11:36:05Z</time>
      </trkpt>
      <trkpt lat="49.15105" lon="-0.38376">
        <ele>5</ele>
        <time>2023-04-21T11:36:06Z</time>
      </trkpt>
      <trkpt lat="49.15097" lon="-0.38381">
        <ele>4.8</ele>
        <time>2023-04-21T11:36:07Z</time>
      </trkpt>
      <trkpt lat="49.15089" lon="-0.38386">
        <ele>4.6</ele>
        <time>2023-04-21T11:36:08Z</time>
      </trkpt>
      <trkpt lat="49.15081" lon="-0.38391">
        <ele>4.6</ele>
        <time>2023-04-21T11:36:09Z</time>
      </trkpt>
      <trkpt lat="49.15073" lon="-0.38397">
        <ele>4.6</ele>
        <time>2023-04-21T11:36:10Z</time>
      </trkpt>
      <trkpt lat="49.15065" lon="-0.38403">
        <ele>4.6</ele>
        <time>2023-04-21T11:36:11Z</time>
      </trkpt>
      <trkpt lat="49.15058" lon="-0.38409">
        <ele>4.6</ele>
        <time>2023-04-21T11:36:12Z</time>
      </trkpt>
      <trkpt lat="49.1505" lon="-0.38415">
        <ele>4.8</ele>
        <time>2023-04-21T11:36:13Z</time>
      </trkpt>
      <trkpt lat="49.15042" lon="-0.38421">
        <ele>5</ele>
        <time>2023-04-21T11:36:14Z</time>
      </trkpt>
      <trkpt lat="49.15035" lon="-0.38426">
        <ele>5.4</ele>
        <time>2023-04-21T11:36:15Z</time>
      </trkpt>
      <trkpt lat="49.15027" lon="-0.38432">
        <ele>5.6</ele>
        <time>2023-04-21T11:36:16Z</time>
      </trkpt>
      <trkpt lat="49.15019" lon="-0.38436">
        <ele>6</ele>
        <time>2023-04-21T11:36:17Z</time>
      </trkpt>
      <trkpt lat="49.15011" lon="-0.38441">
        <ele>6.2</ele>
        <time>2023-04-21T11:36:18Z</time>
      </trkpt>
      <trkpt lat="49.15003" lon="-0.38446">
        <ele>6.6</ele>
        <time>2023-04-21T11:36:19Z</time>
      </trkpt>
      <trkpt lat="49.14996" lon="-0.3845">
        <ele>6.6</ele>
        <time>2023-04-21T11:36:20Z</time>
      </trkpt>
      <trkpt lat="49.14988" lon="-0.38455">
        <ele>6.6</ele>
        <time>2023-04-21T11:36:21Z</time>
      </trkpt>
      <trkpt lat="49.14981" lon="-0.3846">
        <ele>6.6</ele>
        <time>2023-04-21T11:36:22Z</time>
      </trkpt>
      <trkpt lat="49.14973" lon="-0.38465">
        <ele>6.6</ele>
        <time>2023-04-21T11:36:23Z</time>
      </trkpt>
      <trkpt lat="49.14966" lon="-0.38469">
        <ele>6.6</ele>
        <time>2023-04-21T11:36:24Z</time>
      </trkpt>
      <trkpt lat="49.14958" lon="-0.38474">
        <ele>6.6</ele>
        <time>2023-04-21T11:36:25Z</time>
      </trkpt>
      <trkpt lat="49.14951" lon="-0.38478">
        <ele>6.6</ele>
        <time>2023-04-21T11:36:26Z</time>
      </trkpt>
      <trkpt lat="49.14944" lon="-0.38482">
        <ele>6.4</ele>
        <time>2023-04-21T11:36:27Z</time>
      </trkpt>
      <trkpt lat="49.14937" lon="-0.38487">
        <ele>6.4</ele>
        <time>2023-04-21T11:36:28Z</time>
      </trkpt>
      <trkpt lat="49.14929" lon="-0.38491">
        <ele>6.2</ele>
        <time>2023-04-21T11:36:29Z</time>
      </trkpt>
      <trkpt lat="49.14922" lon="-0.38495">
        <ele>6</ele>
        <time>2023-04-21T11:36:30Z</time>
      </trkpt>
      <trkpt lat="49.14915" lon="-0.38499">
        <ele>6</ele>
        <time>2023-04-21T11:36:31Z</time>
      </trkpt>
      <trkpt lat="49.14908" lon="-0.38503">
        <ele>5.8</ele>
        <time>2023-04-21T11:36:32Z</time>
      </trkpt>
      <trkpt lat="49.14901" lon="-0.38507">
        <ele>5.6</ele>
        <time>2023-04-21T11:36:33Z</time>
      </trkpt>
      <trkpt lat="49.14894" lon="-0.38511">
        <ele>5.6</ele>
        <time>2023-04-21T11:36:34Z</time>
      </trkpt>
      <trkpt lat="49.14887" lon="-0.38515">
        <ele>5.4</ele>
        <time>2023-04-21T11:36:35Z</time>
      </trkpt>
      <trkpt lat="49.1488" lon="-0.38519">
        <ele>5.4</ele>
        <time>2023-04-21T11:36:36Z</time>
      </trkpt>
      <trkpt lat="49.14873" lon="-0.38523">
        <ele>5.2</ele>
        <time>2023-04-21T11:36:37Z</time>
      </trkpt>
      <trkpt lat="49.14866" lon="-0.38528">
        <ele>5</ele>
        <time>2023-04-21T11:36:38Z</time>
      </trkpt>
      <trkpt lat="49.1486" lon="-0.38532">
        <ele>5</ele>
        <time>2023-04-21T11:36:39Z</time>
      </trkpt>
      <trkpt lat="49.14853" lon="-0.38537">
        <ele>5</ele>
        <time>2023-04-21T11:36:40Z</time>
      </trkpt>
      <trkpt lat="49.14846" lon="-0.38542">
        <ele>5</ele>
        <time>2023-04-21T11:36:41Z</time>
      </trkpt>
      <trkpt lat="49.1484" lon="-0.38547">
        <ele>5</ele>
        <time>2023-04-21T11:36:42Z</time>
      </trkpt>
      <trkpt lat="49.14833" lon="-0.38552">
        <ele>5</ele>
        <time>2023-04-21T11:36:43Z</time>
      </trkpt>
      <trkpt lat="49.14826" lon="-0.38556">
        <ele>5</ele>
        <time>2023-04-21T11:36:44Z</time>
      </trkpt>
      <trkpt lat="49.14819" lon="-0.38561">
        <ele>5</ele>
        <time>2023-04-21T11:36:45Z</time>
      </trkpt>
      <trkpt lat="49.14812" lon="-0.38565">
        <ele>4.8</ele>
        <time>2023-04-21T11:36:46Z</time>
      </trkpt>
      <trkpt lat="49.14805" lon="-0.3857">
        <ele>4.6</ele>
        <time>2023-04-21T11:36:47Z</time>
      </trkpt>
      <trkpt lat="49.14799" lon="-0.38574">
        <ele>4.6</ele>
        <time>2023-04-21T11:36:48Z</time>
      </trkpt>
      <trkpt lat="49.14792" lon="-0.38578">
        <ele>4.6</ele>
        <time>2023-04-21T11:36:49Z</time>
      </trkpt>
      <trkpt lat="49.14785" lon="-0.38582">
        <ele>4.4</ele>
        <time>2023-04-21T11:36:50Z</time>
      </trkpt>
      <trkpt lat="49.14779" lon="-0.38586">
        <ele>4.4</ele>
        <time>2023-04-21T11:36:51Z</time>
      </trkpt>
      <trkpt lat="49.14772" lon="-0.38591">
        <ele>4.4</ele>
        <time>2023-04-21T11:36:52Z</time>
      </trkpt>
      <trkpt lat="49.14766" lon="-0.38595">
        <ele>4.4</ele>
        <time>2023-04-21T11:36:53Z</time>
      </trkpt>
      <trkpt lat="49.1476" lon="-0.386">
        <ele>4.4</ele>
        <time>2023-04-21T11:36:54Z</time>
      </trkpt>
      <trkpt lat="49.14753" lon="-0.38604">
        <ele>4.4</ele>
        <time>2023-04-21T11:36:55Z</time>
      </trkpt>
      <trkpt lat="49.14747" lon="-0.38608">
        <ele>4.4</ele>
        <time>2023-04-21T11:36:56Z</time>
      </trkpt>
      <trkpt lat="49.14741" lon="-0.38613">
        <ele>4.6</ele>
        <time>2023-04-21T11:36:57Z</time>
      </trkpt>
      <trkpt lat="49.14734" lon="-0.38618">
        <ele>4.6</ele>
        <time>2023-04-21T11:36:58Z</time>
      </trkpt>
      <trkpt lat="49.14728" lon="-0.38622">
        <ele>5</ele>
        <time>2023-04-21T11:36:59Z</time>
      </trkpt>
      <trkpt lat="49.14721" lon="-0.38627">
        <ele>5</ele>
        <time>2023-04-21T11:37:00Z</time>
      </trkpt>
      <trkpt lat="49.14715" lon="-0.38632">
        <ele>5.2</ele>
        <time>2023-04-21T11:37:01Z</time>
      </trkpt>
      <trkpt lat="49.14708" lon="-0.38636">
        <ele>5.4</ele>
        <time>2023-04-21T11:37:02Z</time>
      </trkpt>
      <trkpt lat="49.14701" lon="-0.38641">
        <ele>5.6</ele>
        <time>2023-04-21T11:37:03Z</time>
      </trkpt>
      <trkpt lat="49.14695" lon="-0.38646">
        <ele>5.6</ele>
        <time>2023-04-21T11:37:04Z</time>
      </trkpt>
      <trkpt lat="49.14688" lon="-0.38651">
        <ele>5.6</ele>
        <time>2023-04-21T11:37:05Z</time>
      </trkpt>
      <trkpt lat="49.14681" lon="-0.38656">
        <ele>5.8</ele>
        <time>2023-04-21T11:37:06Z</time>
      </trkpt>
      <trkpt lat="49.14675" lon="-0.38661">
        <ele>6</ele>
        <time>2023-04-21T11:37:07Z</time>
      </trkpt>
      <trkpt lat="49.14668" lon="-0.38666">
        <ele>6</ele>
        <time>2023-04-21T11:37:08Z</time>
      </trkpt>
      <trkpt lat="49.14662" lon="-0.38671">
        <ele>5.8</ele>
        <time>2023-04-21T11:37:09Z</time>
      </trkpt>
      <trkpt lat="49.14656" lon="-0.38676">
        <ele>5.6</ele>
        <time>2023-04-21T11:37:10Z</time>
      </trkpt>
      <trkpt lat="49.14649" lon="-0.38681">
        <ele>5.4</ele>
        <time>2023-04-21T11:37:11Z</time>
      </trkpt>
      <trkpt lat="49.14643" lon="-0.38687">
        <ele>5.4</ele>
        <time>2023-04-21T11:37:12Z</time>
      </trkpt>
      <trkpt lat="49.14636" lon="-0.38692">
        <ele>5</ele>
        <time>2023-04-21T11:37:13Z</time>
      </trkpt>
      <trkpt lat="49.1463" lon="-0.38697">
        <ele>5</ele>
        <time>2023-04-21T11:37:14Z</time>
      </trkpt>
      <trkpt lat="49.14624" lon="-0.38702">
        <ele>4.8</ele>
        <time>2023-04-21T11:37:15Z</time>
      </trkpt>
      <trkpt lat="49.14617" lon="-0.38707">
        <ele>4.6</ele>
        <time>2023-04-21T11:37:16Z</time>
      </trkpt>
      <trkpt lat="49.14611" lon="-0.38712">
        <ele>4.6</ele>
        <time>2023-04-21T11:37:17Z</time>
      </trkpt>
      <trkpt lat="49.14604" lon="-0.38717">
        <ele>4.4</ele>
        <time>2023-04-21T11:37:18Z</time>
      </trkpt>
      <trkpt lat="49.14598" lon="-0.38722">
        <ele>4.2</ele>
        <time>2023-04-21T11:37:19Z</time>
      </trkpt>
      <trkpt lat="49.14592" lon="-0.38727">
        <ele>4</ele>
        <time>2023-04-21T11:37:20Z</time>
      </trkpt>
      <trkpt lat="49.14585" lon="-0.38732">
        <ele>4</ele>
        <time>2023-04-21T11:37:21Z</time>
      </trkpt>
      <trkpt lat="49.14579" lon="-0.38737">
        <ele>4</ele>
        <time>2023-04-21T11:37:22Z</time>
      </trkpt>
      <trkpt lat="49.14573" lon="-0.38742">
        <ele>4</ele>
        <time>2023-04-21T11:37:23Z</time>
      </trkpt>
      <trkpt lat="49.14566" lon="-0.38748">
        <ele>4</ele>
        <time>2023-04-21T11:37:24Z</time>
      </trkpt>
      <trkpt lat="49.1456" lon="-0.38753">
        <ele>4</ele>
        <time>2023-04-21T11:37:25Z</time>
      </trkpt>
      <trkpt lat="49.14554" lon="-0.38758">
        <ele>4</ele>
        <time>2023-04-21T11:37:26Z</time>
      </trkpt>
      <trkpt lat="49.14548" lon="-0.38764">
        <ele>4</ele>
        <time>2023-04-21T11:37:27Z</time>
      </trkpt>
      <trkpt lat="49.14542" lon="-0.38769">
        <ele>4</ele>
        <time>2023-04-21T11:37:28Z</time>
      </trkpt>
      <trkpt lat="49.14536" lon="-0.38774">
        <ele>4</ele>
        <time>2023-04-21T11:37:29Z</time>
      </trkpt>
      <trkpt lat="49.14529" lon="-0.3878">
        <ele>4</ele>
        <time>2023-04-21T11:37:30Z</time>
      </trkpt>
      <trkpt lat="49.14523" lon="-0.38785">
        <ele>4</ele>
        <time>2023-04-21T11:37:31Z</time>
      </trkpt>
      <trkpt lat="49.14517" lon="-0.3879">
        <ele>4</ele>
        <time>2023-04-21T11:37:32Z</time>
      </trkpt>
      <trkpt lat="49.14511" lon="-0.38795">
        <ele>4</ele>
        <time>2023-04-21T11:37:33Z</time>
      </trkpt>
      <trkpt lat="49.14505" lon="-0.38801">
        <ele>4</ele>
        <time>2023-04-21T11:37:34Z</time>
      </trkpt>
      <trkpt lat="49.14499" lon="-0.38806">
        <ele>4</ele>
        <time>2023-04-21T11:37:35Z</time>
      </trkpt>
      <trkpt lat="49.14493" lon="-0.38811">
        <ele>4</ele>
        <time>2023-04-21T11:37:36Z</time>
      </trkpt>
      <trkpt lat="49.14487" lon="-0.38817">
        <ele>4.2</ele>
        <time>2023-04-21T11:37:37Z</time>
      </trkpt>
      <trkpt lat="49.1448" lon="-0.38823">
        <ele>4.2</ele>
        <time>2023-04-21T11:37:38Z</time>
      </trkpt>
      <trkpt lat="49.14474" lon="-0.38829">
        <ele>4.4</ele>
        <time>2023-04-21T11:37:39Z</time>
      </trkpt>
      <trkpt lat="49.14468" lon="-0.38835">
        <ele>4.4</ele>
        <time>2023-04-21T11:37:40Z</time>
      </trkpt>
      <trkpt lat="49.14462" lon="-0.38842">
        <ele>4.4</ele>
        <time>2023-04-21T11:37:41Z</time>
      </trkpt>
      <trkpt lat="49.14457" lon="-0.38849">
        <ele>4.4</ele>
        <time>2023-04-21T11:37:42Z</time>
      </trkpt>
      <trkpt lat="49.14452" lon="-0.38856">
        <ele>4.4</ele>
        <time>2023-04-21T11:37:43Z</time>
      </trkpt>
      <trkpt lat="49.14448" lon="-0.38864">
        <ele>4.4</ele>
        <time>2023-04-21T11:37:44Z</time>
      </trkpt>
      <trkpt lat="49.14444" lon="-0.38871">
        <ele>4.4</ele>
        <time>2023-04-21T11:37:45Z</time>
      </trkpt>
      <trkpt lat="49.1444" lon="-0.38877">
        <ele>4.4</ele>
        <time>2023-04-21T11:37:46Z</time>
      </trkpt>
      <trkpt lat="49.14436" lon="-0.38882">
        <ele>4.6</ele>
        <time>2023-04-21T11:37:47Z</time>
      </trkpt>
      <trkpt lat="49.14432" lon="-0.38886">
        <ele>4.6</ele>
        <time>2023-04-21T11:37:48Z</time>
      </trkpt>
      <trkpt lat="49.14427" lon="-0.38889">
        <ele>4.6</ele>
        <time>2023-04-21T11:37:49Z</time>
      </trkpt>
      <trkpt lat="49.14422" lon="-0.38891">
        <ele>5</ele>
        <time>2023-04-21T11:37:50Z</time>
      </trkpt>
      <trkpt lat="49.14416" lon="-0.38895">
        <ele>5</ele>
        <time>2023-04-21T11:37:51Z</time>
      </trkpt>
      <trkpt lat="49.1441" lon="-0.38898">
        <ele>5</ele>
        <time>2023-04-21T11:37:52Z</time>
      </trkpt>
      <trkpt lat="49.14404" lon="-0.38901">
        <ele>4.8</ele>
        <time>2023-04-21T11:37:53Z</time>
      </trkpt>
      <trkpt lat="49.14398" lon="-0.38905">
        <ele>4.6</ele>
        <time>2023-04-21T11:37:54Z</time>
      </trkpt>
      <trkpt lat="49.14392" lon="-0.38909">
        <ele>4.6</ele>
        <time>2023-04-21T11:37:55Z</time>
      </trkpt>
      <trkpt lat="49.14385" lon="-0.38913">
        <ele>4.6</ele>
        <time>2023-04-21T11:37:56Z</time>
      </trkpt>
      <trkpt lat="49.14379" lon="-0.38918">
        <ele>4.6</ele>
        <time>2023-04-21T11:37:57Z</time>
      </trkpt>
      <trkpt lat="49.14372" lon="-0.38923">
        <ele>4.4</ele>
        <time>2023-04-21T11:37:58Z</time>
      </trkpt>
      <trkpt lat="49.14365" lon="-0.3893">
        <ele>4.4</ele>
        <time>2023-04-21T11:37:59Z</time>
      </trkpt>
      <trkpt lat="49.14359" lon="-0.38936">
        <ele>4.2</ele>
        <time>2023-04-21T11:38:00Z</time>
      </trkpt>
      <trkpt lat="49.14352" lon="-0.38943">
        <ele>4.2</ele>
        <time>2023-04-21T11:38:01Z</time>
      </trkpt>
      <trkpt lat="49.14345" lon="-0.3895">
        <ele>4</ele>
        <time>2023-04-21T11:38:02Z</time>
      </trkpt>
      <trkpt lat="49.14338" lon="-0.38957">
        <ele>4</ele>
        <time>2023-04-21T11:38:03Z</time>
      </trkpt>
      <trkpt lat="49.14332" lon="-0.38963">
        <ele>4</ele>
        <time>2023-04-21T11:38:04Z</time>
      </trkpt>
      <trkpt lat="49.14325" lon="-0.3897">
        <ele>4</ele>
        <time>2023-04-21T11:38:05Z</time>
      </trkpt>
      <trkpt lat="49.14318" lon="-0.38977">
        <ele>4.2</ele>
        <time>2023-04-21T11:38:06Z</time>
      </trkpt>
      <trkpt lat="49.14312" lon="-0.38983">
        <ele>4.4</ele>
        <time>2023-04-21T11:38:07Z</time>
      </trkpt>
      <trkpt lat="49.14305" lon="-0.3899">
        <ele>4.4</ele>
        <time>2023-04-21T11:38:08Z</time>
      </trkpt>
      <trkpt lat="49.14299" lon="-0.38997">
        <ele>4.4</ele>
        <time>2023-04-21T11:38:09Z</time>
      </trkpt>
      <trkpt lat="49.14293" lon="-0.39004">
        <ele>4.4</ele>
        <time>2023-04-21T11:38:10Z</time>
      </trkpt>
      <trkpt lat="49.14286" lon="-0.3901">
        <ele>4.4</ele>
        <time>2023-04-21T11:38:11Z</time>
      </trkpt>
      <trkpt lat="49.1428" lon="-0.39017">
        <ele>4.4</ele>
        <time>2023-04-21T11:38:12Z</time>
      </trkpt>
      <trkpt lat="49.14273" lon="-0.39024">
        <ele>4.4</ele>
        <time>2023-04-21T11:38:13Z</time>
      </trkpt>
      <trkpt lat="49.14267" lon="-0.3903">
        <ele>4.4</ele>
        <time>2023-04-21T11:38:14Z</time>
      </trkpt>
      <trkpt lat="49.1426" lon="-0.39037">
        <ele>4.4</ele>
        <time>2023-04-21T11:38:15Z</time>
      </trkpt>
      <trkpt lat="49.14254" lon="-0.39044">
        <ele>4.4</ele>
        <time>2023-04-21T11:38:16Z</time>
      </trkpt>
      <trkpt lat="49.14247" lon="-0.39051">
        <ele>4.4</ele>
        <time>2023-04-21T11:38:17Z</time>
      </trkpt>
      <trkpt lat="49.14241" lon="-0.39058">
        <ele>4.4</ele>
        <time>2023-04-21T11:38:18Z</time>
      </trkpt>
      <trkpt lat="49.14234" lon="-0.39064">
        <ele>4.4</ele>
        <time>2023-04-21T11:38:19Z</time>
      </trkpt>
      <trkpt lat="49.14228" lon="-0.39071">
        <ele>4.4</ele>
        <time>2023-04-21T11:38:20Z</time>
      </trkpt>
      <trkpt lat="49.14222" lon="-0.39077">
        <ele>4.4</ele>
        <time>2023-04-21T11:38:21Z</time>
      </trkpt>
      <trkpt lat="49.14216" lon="-0.39083">
        <ele>4.4</ele>
        <time>2023-04-21T11:38:22Z</time>
      </trkpt>
      <trkpt lat="49.1421" lon="-0.39089">
        <ele>4.4</ele>
        <time>2023-04-21T11:38:23Z</time>
      </trkpt>
      <trkpt lat="49.14204" lon="-0.39096">
        <ele>4.4</ele>
        <time>2023-04-21T11:38:24Z</time>
      </trkpt>
      <trkpt lat="49.14199" lon="-0.39103">
        <ele>4.2</ele>
        <time>2023-04-21T11:38:25Z</time>
      </trkpt>
      <trkpt lat="49.14193" lon="-0.39109">
        <ele>4.2</ele>
        <time>2023-04-21T11:38:26Z</time>
      </trkpt>
      <trkpt lat="49.14187" lon="-0.39115">
        <ele>4</ele>
        <time>2023-04-21T11:38:27Z</time>
      </trkpt>
      <trkpt lat="49.14181" lon="-0.39122">
        <ele>4</ele>
        <time>2023-04-21T11:38:28Z</time>
      </trkpt>
      <trkpt lat="49.14175" lon="-0.39128">
        <ele>4</ele>
        <time>2023-04-21T11:38:29Z</time>
      </trkpt>
      <trkpt lat="49.14169" lon="-0.39134">
        <ele>3.8</ele>
        <time>2023-04-21T11:38:30Z</time>
      </trkpt>
      <trkpt lat="49.14163" lon="-0.3914">
        <ele>3.8</ele>
        <time>2023-04-21T11:38:31Z</time>
      </trkpt>
      <trkpt lat="49.14157" lon="-0.39146">
        <ele>3.8</ele>
        <time>2023-04-21T11:38:32Z</time>
      </trkpt>
      <trkpt lat="49.14151" lon="-0.39152">
        <ele>3.8</ele>
        <time>2023-04-21T11:38:33Z</time>
      </trkpt>
      <trkpt lat="49.14145" lon="-0.39158">
        <ele>3.8</ele>
        <time>2023-04-21T11:38:34Z</time>
      </trkpt>
      <trkpt lat="49.14139" lon="-0.39164">
        <ele>3.8</ele>
        <time>2023-04-21T11:38:35Z</time>
      </trkpt>
      <trkpt lat="49.14133" lon="-0.3917">
        <ele>3.8</ele>
        <time>2023-04-21T11:38:36Z</time>
      </trkpt>
      <trkpt lat="49.14127" lon="-0.39176">
        <ele>4</ele>
        <time>2023-04-21T11:38:37Z</time>
      </trkpt>
      <trkpt lat="49.14122" lon="-0.39182">
        <ele>4</ele>
        <time>2023-04-21T11:38:38Z</time>
      </trkpt>
      <trkpt lat="49.14116" lon="-0.39188">
        <ele>4.2</ele>
        <time>2023-04-21T11:38:39Z</time>
      </trkpt>
      <trkpt lat="49.1411" lon="-0.39194">
        <ele>4.2</ele>
        <time>2023-04-21T11:38:40Z</time>
      </trkpt>
      <trkpt lat="49.14104" lon="-0.392">
        <ele>4.4</ele>
        <time>2023-04-21T11:38:41Z</time>
      </trkpt>
      <trkpt lat="49.14098" lon="-0.39206">
        <ele>4.4</ele>
        <time>2023-04-21T11:38:42Z</time>
      </trkpt>
      <trkpt lat="49.14092" lon="-0.39212">
        <ele>4.4</ele>
        <time>2023-04-21T11:38:43Z</time>
      </trkpt>
      <trkpt lat="49.14086" lon="-0.39218">
        <ele>4.4</ele>
        <time>2023-04-21T11:38:44Z</time>
      </trkpt>
      <trkpt lat="49.1408" lon="-0.39224">
        <ele>4.4</ele>
        <time>2023-04-21T11:38:45Z</time>
      </trkpt>
      <trkpt lat="49.14074" lon="-0.39229">
        <ele>4.4</ele>
        <time>2023-04-21T11:38:46Z</time>
      </trkpt>
      <trkpt lat="49.14068" lon="-0.39234">
        <ele>4.6</ele>
        <time>2023-04-21T11:38:47Z</time>
      </trkpt>
      <trkpt lat="49.14062" lon="-0.39239">
        <ele>4.6</ele>
        <time>2023-04-21T11:38:48Z</time>
      </trkpt>
      <trkpt lat="49.14057" lon="-0.39244">
        <ele>4.4</ele>
        <time>2023-04-21T11:38:49Z</time>
      </trkpt>
      <trkpt lat="49.14053" lon="-0.39248">
        <ele>4.4</ele>
        <time>2023-04-21T11:38:50Z</time>
      </trkpt>
      <trkpt lat="49.14048" lon="-0.39254">
        <ele>4.4</ele>
        <time>2023-04-21T11:38:51Z</time>
      </trkpt>
      <trkpt lat="49.14044" lon="-0.39259">
        <ele>4.4</ele>
        <time>2023-04-21T11:38:52Z</time>
      </trkpt>
      <trkpt lat="49.14039" lon="-0.39264">
        <ele>4.4</ele>
        <time>2023-04-21T11:38:53Z</time>
      </trkpt>
      <trkpt lat="49.14034" lon="-0.3927">
        <ele>4.2</ele>
        <time>2023-04-21T11:38:54Z</time>
      </trkpt>
      <trkpt lat="49.14029" lon="-0.39275">
        <ele>4.2</ele>
        <time>2023-04-21T11:38:55Z</time>
      </trkpt>
      <trkpt lat="49.14024" lon="-0.39281">
        <ele>4</ele>
        <time>2023-04-21T11:38:56Z</time>
      </trkpt>
      <trkpt lat="49.14018" lon="-0.39286">
        <ele>4</ele>
        <time>2023-04-21T11:38:57Z</time>
      </trkpt>
      <trkpt lat="49.14012" lon="-0.39292">
        <ele>4</ele>
        <time>2023-04-21T11:38:58Z</time>
      </trkpt>
      <trkpt lat="49.14007" lon="-0.39298">
        <ele>3.8</ele>
        <time>2023-04-21T11:38:59Z</time>
      </trkpt>
      <trkpt lat="49.14001" lon="-0.39305">
        <ele>3.8</ele>
        <time>2023-04-21T11:39:00Z</time>
      </trkpt>
      <trkpt lat="49.13995" lon="-0.39311">
        <ele>3.8</ele>
        <time>2023-04-21T11:39:01Z</time>
      </trkpt>
      <trkpt lat="49.13989" lon="-0.39317">
        <ele>3.8</ele>
        <time>2023-04-21T11:39:02Z</time>
      </trkpt>
      <trkpt lat="49.13983" lon="-0.39323">
        <ele>4</ele>
        <time>2023-04-21T11:39:03Z</time>
      </trkpt>
      <trkpt lat="49.13977" lon="-0.39329">
        <ele>4</ele>
        <time>2023-04-21T11:39:04Z</time>
      </trkpt>
      <trkpt lat="49.13972" lon="-0.39335">
        <ele>4</ele>
        <time>2023-04-21T11:39:05Z</time>
      </trkpt>
      <trkpt lat="49.13966" lon="-0.3934">
        <ele>4.2</ele>
        <time>2023-04-21T11:39:06Z</time>
      </trkpt>
      <trkpt lat="49.1396" lon="-0.39346">
        <ele>4.4</ele>
        <time>2023-04-21T11:39:07Z</time>
      </trkpt>
      <trkpt lat="49.13955" lon="-0.39352">
        <ele>4.6</ele>
        <time>2023-04-21T11:39:08Z</time>
      </trkpt>
      <trkpt lat="49.13949" lon="-0.39358">
        <ele>4.8</ele>
        <time>2023-04-21T11:39:09Z</time>
      </trkpt>
      <trkpt lat="49.13943" lon="-0.39364">
        <ele>5</ele>
        <time>2023-04-21T11:39:10Z</time>
      </trkpt>
      <trkpt lat="49.13938" lon="-0.39371">
        <ele>5</ele>
        <time>2023-04-21T11:39:11Z</time>
      </trkpt>
      <trkpt lat="49.13932" lon="-0.39377">
        <ele>5</ele>
        <time>2023-04-21T11:39:12Z</time>
      </trkpt>
      <trkpt lat="49.13927" lon="-0.39383">
        <ele>5.2</ele>
        <time>2023-04-21T11:39:13Z</time>
      </trkpt>
      <trkpt lat="49.13921" lon="-0.39389">
        <ele>5.2</ele>
        <time>2023-04-21T11:39:14Z</time>
      </trkpt>
      <trkpt lat="49.13915" lon="-0.39395">
        <ele>5.4</ele>
        <time>2023-04-21T11:39:15Z</time>
      </trkpt>
      <trkpt lat="49.1391" lon="-0.39401">
        <ele>5.6</ele>
        <time>2023-04-21T11:39:16Z</time>
      </trkpt>
      <trkpt lat="49.13904" lon="-0.39407">
        <ele>5.6</ele>
        <time>2023-04-21T11:39:17Z</time>
      </trkpt>
      <trkpt lat="49.13898" lon="-0.39412">
        <ele>5.6</ele>
        <time>2023-04-21T11:39:18Z</time>
      </trkpt>
      <trkpt lat="49.13893" lon="-0.39418">
        <ele>6</ele>
        <time>2023-04-21T11:39:19Z</time>
      </trkpt>
      <trkpt lat="49.13887" lon="-0.39424">
        <ele>6.2</ele>
        <time>2023-04-21T11:39:20Z</time>
      </trkpt>
      <trkpt lat="49.13881" lon="-0.3943">
        <ele>6.4</ele>
        <time>2023-04-21T11:39:21Z</time>
      </trkpt>
      <trkpt lat="49.13876" lon="-0.39436">
        <ele>6.6</ele>
        <time>2023-04-21T11:39:22Z</time>
      </trkpt>
      <trkpt lat="49.13871" lon="-0.39442">
        <ele>6.6</ele>
        <time>2023-04-21T11:39:23Z</time>
      </trkpt>
      <trkpt lat="49.13865" lon="-0.39448">
        <ele>6.8</ele>
        <time>2023-04-21T11:39:24Z</time>
      </trkpt>
      <trkpt lat="49.1386" lon="-0.39454">
        <ele>7</ele>
        <time>2023-04-21T11:39:25Z</time>
      </trkpt>
      <trkpt lat="49.13854" lon="-0.39459">
        <ele>7</ele>
        <time>2023-04-21T11:39:26Z</time>
      </trkpt>
      <trkpt lat="49.13849" lon="-0.39465">
        <ele>6.8</ele>
        <time>2023-04-21T11:39:27Z</time>
      </trkpt>
      <trkpt lat="49.13844" lon="-0.3947">
        <ele>6.6</ele>
        <time>2023-04-21T11:39:28Z</time>
      </trkpt>
      <trkpt lat="49.13838" lon="-0.39476">
        <ele>6.6</ele>
        <time>2023-04-21T11:39:29Z</time>
      </trkpt>
      <trkpt lat="49.13833" lon="-0.39482">
        <ele>6.4</ele>
        <time>2023-04-21T11:39:30Z</time>
      </trkpt>
      <trkpt lat="49.13828" lon="-0.39488">
        <ele>6.4</ele>
        <time>2023-04-21T11:39:31Z</time>
      </trkpt>
      <trkpt lat="49.13824" lon="-0.39494">
        <ele>6</ele>
        <time>2023-04-21T11:39:32Z</time>
      </trkpt>
      <trkpt lat="49.13819" lon="-0.39498">
        <ele>6</ele>
        <time>2023-04-21T11:39:33Z</time>
      </trkpt>
      <trkpt lat="49.13814" lon="-0.395">
        <ele>5.8</ele>
        <time>2023-04-21T11:39:34Z</time>
      </trkpt>
      <trkpt lat="49.13809" lon="-0.39499">
        <ele>5.6</ele>
        <time>2023-04-21T11:39:35Z</time>
      </trkpt>
      <trkpt lat="49.13805" lon="-0.39496">
        <ele>5.8</ele>
        <time>2023-04-21T11:39:36Z</time>
      </trkpt>
      <trkpt lat="49.138" lon="-0.39495">
        <ele>5.8</ele>
        <time>2023-04-21T11:39:37Z</time>
      </trkpt>
      <trkpt lat="49.13796" lon="-0.39497">
        <ele>5.6</ele>
        <time>2023-04-21T11:39:38Z</time>
      </trkpt>
      <trkpt lat="49.13793" lon="-0.39501">
        <ele>5.6</ele>
        <time>2023-04-21T11:39:39Z</time>
      </trkpt>
      <trkpt lat="49.13789" lon="-0.39505">
        <ele>5.4</ele>
        <time>2023-04-21T11:39:40Z</time>
      </trkpt>
      <trkpt lat="49.13785" lon="-0.3951">
        <ele>5.4</ele>
        <time>2023-04-21T11:39:41Z</time>
      </trkpt>
      <trkpt lat="49.13781" lon="-0.39514">
        <ele>5</ele>
        <time>2023-04-21T11:39:42Z</time>
      </trkpt>
      <trkpt lat="49.13777" lon="-0.39519">
        <ele>5</ele>
        <time>2023-04-21T11:39:43Z</time>
      </trkpt>
      <trkpt lat="49.13772" lon="-0.39524">
        <ele>5</ele>
        <time>2023-04-21T11:39:44Z</time>
      </trkpt>
      <trkpt lat="49.13768" lon="-0.39528">
        <ele>4.8</ele>
        <time>2023-04-21T11:39:45Z</time>
      </trkpt>
      <trkpt lat="49.13763" lon="-0.39533">
        <ele>4.6</ele>
        <time>2023-04-21T11:39:46Z</time>
      </trkpt>
      <trkpt lat="49.13759" lon="-0.39538">
        <ele>4.6</ele>
        <time>2023-04-21T11:39:47Z</time>
      </trkpt>
      <trkpt lat="49.13754" lon="-0.39543">
        <ele>4.6</ele>
        <time>2023-04-21T11:39:48Z</time>
      </trkpt>
      <trkpt lat="49.13749" lon="-0.39548">
        <ele>4.6</ele>
        <time>2023-04-21T11:39:49Z</time>
      </trkpt>
      <trkpt lat="49.13745" lon="-0.39552">
        <ele>4.6</ele>
        <time>2023-04-21T11:39:50Z</time>
      </trkpt>
      <trkpt lat="49.1374" lon="-0.39557">
        <ele>4.8</ele>
        <time>2023-04-21T11:39:51Z</time>
      </trkpt>
      <trkpt lat="49.13735" lon="-0.39562">
        <ele>5</ele>
        <time>2023-04-21T11:39:52Z</time>
      </trkpt>
      <trkpt lat="49.1373" lon="-0.39567">
        <ele>5.2</ele>
        <time>2023-04-21T11:39:53Z</time>
      </trkpt>
      <trkpt lat="49.13725" lon="-0.39572">
        <ele>5.4</ele>
        <time>2023-04-21T11:39:54Z</time>
      </trkpt>
      <trkpt lat="49.1372" lon="-0.39577">
        <ele>5.6</ele>
        <time>2023-04-21T11:39:55Z</time>
      </trkpt>
      <trkpt lat="49.13715" lon="-0.39582">
        <ele>5.6</ele>
        <time>2023-04-21T11:39:56Z</time>
      </trkpt>
      <trkpt lat="49.1371" lon="-0.39588">
        <ele>6</ele>
        <time>2023-04-21T11:39:57Z</time>
      </trkpt>
      <trkpt lat="49.13705" lon="-0.39594">
        <ele>6.2</ele>
        <time>2023-04-21T11:39:58Z</time>
      </trkpt>
      <trkpt lat="49.13699" lon="-0.39599">
        <ele>6.6</ele>
        <time>2023-04-21T11:39:59Z</time>
      </trkpt>
      <trkpt lat="49.13694" lon="-0.39605">
        <ele>6.6</ele>
        <time>2023-04-21T11:40:00Z</time>
      </trkpt>
      <trkpt lat="49.13689" lon="-0.39611">
        <ele>7</ele>
        <time>2023-04-21T11:40:01Z</time>
      </trkpt>
      <trkpt lat="49.13684" lon="-0.39617">
        <ele>7</ele>
        <time>2023-04-21T11:40:02Z</time>
      </trkpt>
      <trkpt lat="49.13678" lon="-0.39623">
        <ele>7.2</ele>
        <time>2023-04-21T11:40:03Z</time>
      </trkpt>
      <trkpt lat="49.13673" lon="-0.39628">
        <ele>7.4</ele>
        <time>2023-04-21T11:40:04Z</time>
      </trkpt>
      <trkpt lat="49.13668" lon="-0.39634">
        <ele>7.4</ele>
        <time>2023-04-21T11:40:05Z</time>
      </trkpt>
      <trkpt lat="49.13663" lon="-0.3964">
        <ele>7.4</ele>
        <time>2023-04-21T11:40:06Z</time>
      </trkpt>
      <trkpt lat="49.13658" lon="-0.39645">
        <ele>7.4</ele>
        <time>2023-04-21T11:40:07Z</time>
      </trkpt>
      <trkpt lat="49.13653" lon="-0.39651">
        <ele>7.4</ele>
        <time>2023-04-21T11:40:08Z</time>
      </trkpt>
      <trkpt lat="49.13648" lon="-0.39656">
        <ele>7.4</ele>
        <time>2023-04-21T11:40:09Z</time>
      </trkpt>
      <trkpt lat="49.13643" lon="-0.39662">
        <ele>7.4</ele>
        <time>2023-04-21T11:40:10Z</time>
      </trkpt>
      <trkpt lat="49.13638" lon="-0.39667">
        <ele>7.4</ele>
        <time>2023-04-21T11:40:11Z</time>
      </trkpt>
      <trkpt lat="49.13632" lon="-0.39673">
        <ele>7.4</ele>
        <time>2023-04-21T11:40:12Z</time>
      </trkpt>
      <trkpt lat="49.13627" lon="-0.39678">
        <ele>7.4</ele>
        <time>2023-04-21T11:40:13Z</time>
      </trkpt>
      <trkpt lat="49.13622" lon="-0.39683">
        <ele>7.2</ele>
        <time>2023-04-21T11:40:14Z</time>
      </trkpt>
      <trkpt lat="49.13617" lon="-0.39689">
        <ele>7.2</ele>
        <time>2023-04-21T11:40:15Z</time>
      </trkpt>
      <trkpt lat="49.13611" lon="-0.39694">
        <ele>7.2</ele>
        <time>2023-04-21T11:40:16Z</time>
      </trkpt>
      <trkpt lat="49.13606" lon="-0.397">
        <ele>7.2</ele>
        <time>2023-04-21T11:40:17Z</time>
      </trkpt>
      <trkpt lat="49.13601" lon="-0.39706">
        <ele>7.2</ele>
        <time>2023-04-21T11:40:18Z</time>
      </trkpt>
      <trkpt lat="49.13595" lon="-0.39711">
        <ele>7.4</ele>
        <time>2023-04-21T11:40:19Z</time>
      </trkpt>
      <trkpt lat="49.1359" lon="-0.39717">
        <ele>7.4</ele>
        <time>2023-04-21T11:40:20Z</time>
      </trkpt>
      <trkpt lat="49.13584" lon="-0.39723">
        <ele>7.4</ele>
        <time>2023-04-21T11:40:21Z</time>
      </trkpt>
      <trkpt lat="49.13579" lon="-0.39729">
        <ele>7.4</ele>
        <time>2023-04-21T11:40:22Z</time>
      </trkpt>
      <trkpt lat="49.13573" lon="-0.39734">
        <ele>7.6</ele>
        <time>2023-04-21T11:40:23Z</time>
      </trkpt>
      <trkpt lat="49.13568" lon="-0.3974">
        <ele>7.6</ele>
        <time>2023-04-21T11:40:24Z</time>
      </trkpt>
      <trkpt lat="49.13562" lon="-0.39746">
        <ele>7.8</ele>
        <time>2023-04-21T11:40:25Z</time>
      </trkpt>
      <trkpt lat="49.13557" lon="-0.39752">
        <ele>8</ele>
        <time>2023-04-21T11:40:26Z</time>
      </trkpt>
      <trkpt lat="49.13551" lon="-0.39757">
        <ele>8</ele>
        <time>2023-04-21T11:40:27Z</time>
      </trkpt>
      <trkpt lat="49.13546" lon="-0.39763">
        <ele>8.2</ele>
        <time>2023-04-21T11:40:28Z</time>
      </trkpt>
      <trkpt lat="49.13541" lon="-0.39769">
        <ele>8.2</ele>
        <time>2023-04-21T11:40:29Z</time>
      </trkpt>
      <trkpt lat="49.13535" lon="-0.39774">
        <ele>8.4</ele>
        <time>2023-04-21T11:40:30Z</time>
      </trkpt>
      <trkpt lat="49.1353" lon="-0.3978">
        <ele>8.4</ele>
        <time>2023-04-21T11:40:31Z</time>
      </trkpt>
      <trkpt lat="49.13525" lon="-0.39785">
        <ele>8.4</ele>
        <time>2023-04-21T11:40:32Z</time>
      </trkpt>
      <trkpt lat="49.13519" lon="-0.39791">
        <ele>8.4</ele>
        <time>2023-04-21T11:40:33Z</time>
      </trkpt>
      <trkpt lat="49.13514" lon="-0.39796">
        <ele>8.6</ele>
        <time>2023-04-21T11:40:34Z</time>
      </trkpt>
      <trkpt lat="49.13509" lon="-0.39801">
        <ele>8.6</ele>
        <time>2023-04-21T11:40:35Z</time>
      </trkpt>
      <trkpt lat="49.13504" lon="-0.39807">
        <ele>8.6</ele>
        <time>2023-04-21T11:40:36Z</time>
      </trkpt>
      <trkpt lat="49.13499" lon="-0.39812">
        <ele>8.6</ele>
        <time>2023-04-21T11:40:37Z</time>
      </trkpt>
      <trkpt lat="49.13493" lon="-0.39818">
        <ele>8.8</ele>
        <time>2023-04-21T11:40:38Z</time>
      </trkpt>
      <trkpt lat="49.13488" lon="-0.39824">
        <ele>8.8</ele>
        <time>2023-04-21T11:40:39Z</time>
      </trkpt>
      <trkpt lat="49.13483" lon="-0.39829">
        <ele>9.2</ele>
        <time>2023-04-21T11:40:40Z</time>
      </trkpt>
      <trkpt lat="49.13477" lon="-0.39835">
        <ele>9.4</ele>
        <time>2023-04-21T11:40:41Z</time>
      </trkpt>
      <trkpt lat="49.13472" lon="-0.39841">
        <ele>9.6</ele>
        <time>2023-04-21T11:40:42Z</time>
      </trkpt>
      <trkpt lat="49.13466" lon="-0.39847">
        <ele>9.8</ele>
        <time>2023-04-21T11:40:43Z</time>
      </trkpt>
      <trkpt lat="49.13461" lon="-0.39852">
        <ele>9.8</ele>
        <time>2023-04-21T11:40:44Z</time>
      </trkpt>
      <trkpt lat="49.13455" lon="-0.39858">
        <ele>10.2</ele>
        <time>2023-04-21T11:40:45Z</time>
      </trkpt>
      <trkpt lat="49.1345" lon="-0.39863">
        <ele>10.2</ele>
        <time>2023-04-21T11:40:46Z</time>
      </trkpt>
      <trkpt lat="49.13444" lon="-0.39868">
        <ele>10.2</ele>
        <time>2023-04-21T11:40:47Z</time>
      </trkpt>
      <trkpt lat="49.13439" lon="-0.39874">
        <ele>10.2</ele>
        <time>2023-04-21T11:40:48Z</time>
      </trkpt>
      <trkpt lat="49.13433" lon="-0.39879">
        <ele>10.2</ele>
        <time>2023-04-21T11:40:49Z</time>
      </trkpt>
      <trkpt lat="49.13428" lon="-0.39884">
        <ele>10.2</ele>
        <time>2023-04-21T11:40:50Z</time>
      </trkpt>
      <trkpt lat="49.13422" lon="-0.3989">
        <ele>10.2</ele>
        <time>2023-04-21T11:40:51Z</time>
      </trkpt>
      <trkpt lat="49.13417" lon="-0.39896">
        <ele>10</ele>
        <time>2023-04-21T11:40:52Z</time>
      </trkpt>
      <trkpt lat="49.13411" lon="-0.39902">
        <ele>9.8</ele>
        <time>2023-04-21T11:40:53Z</time>
      </trkpt>
      <trkpt lat="49.13406" lon="-0.39909">
        <ele>9.8</ele>
        <time>2023-04-21T11:40:54Z</time>
      </trkpt>
      <trkpt lat="49.13401" lon="-0.39915">
        <ele>9.8</ele>
        <time>2023-04-21T11:40:55Z</time>
      </trkpt>
      <trkpt lat="49.13395" lon="-0.39921">
        <ele>9.8</ele>
        <time>2023-04-21T11:40:56Z</time>
      </trkpt>
      <trkpt lat="49.1339" lon="-0.39927">
        <ele>10.2</ele>
        <time>2023-04-21T11:40:57Z</time>
      </trkpt>
      <trkpt lat="49.13385" lon="-0.39933">
        <ele>10.2</ele>
        <time>2023-04-21T11:40:58Z</time>
      </trkpt>
      <trkpt lat="49.13379" lon="-0.39939">
        <ele>10.4</ele>
        <time>2023-04-21T11:40:59Z</time>
      </trkpt>
      <trkpt lat="49.13373" lon="-0.39945">
        <ele>10.4</ele>
        <time>2023-04-21T11:41:00Z</time>
      </trkpt>
      <trkpt lat="49.13368" lon="-0.39951">
        <ele>10.6</ele>
        <time>2023-04-21T11:41:01Z</time>
      </trkpt>
      <trkpt lat="49.13362" lon="-0.39956">
        <ele>10.6</ele>
        <time>2023-04-21T11:41:02Z</time>
      </trkpt>
      <trkpt lat="49.13356" lon="-0.39962">
        <ele>10.6</ele>
        <time>2023-04-21T11:41:03Z</time>
      </trkpt>
      <trkpt lat="49.13351" lon="-0.39968">
        <ele>10.6</ele>
        <time>2023-04-21T11:41:04Z</time>
      </trkpt>
      <trkpt lat="49.13345" lon="-0.39974">
        <ele>10.6</ele>
        <time>2023-04-21T11:41:05Z</time>
      </trkpt>
      <trkpt lat="49.13339" lon="-0.3998">
        <ele>10.6</ele>
        <time>2023-04-21T11:41:06Z</time>
      </trkpt>
      <trkpt lat="49.13334" lon="-0.39986">
        <ele>10.6</ele>
        <time>2023-04-21T11:41:07Z</time>
      </trkpt>
      <trkpt lat="49.13328" lon="-0.39992">
        <ele>10.6</ele>
        <time>2023-04-21T11:41:08Z</time>
      </trkpt>
      <trkpt lat="49.13322" lon="-0.39998">
        <ele>10.4</ele>
        <time>2023-04-21T11:41:09Z</time>
      </trkpt>
      <trkpt lat="49.13317" lon="-0.40004">
        <ele>10.6</ele>
        <time>2023-04-21T11:41:10Z</time>
      </trkpt>
      <trkpt lat="49.13311" lon="-0.4001">
        <ele>10.6</ele>
        <time>2023-04-21T11:41:11Z</time>
      </trkpt>
      <trkpt lat="49.13306" lon="-0.40016">
        <ele>10.6</ele>
        <time>2023-04-21T11:41:12Z</time>
      </trkpt>
      <trkpt lat="49.133" lon="-0.40022">
        <ele>10.6</ele>
        <time>2023-04-21T11:41:13Z</time>
      </trkpt>
      <trkpt lat="49.13294" lon="-0.40028">
        <ele>10.6</ele>
        <time>2023-04-21T11:41:14Z</time>
      </trkpt>
      <trkpt lat="49.13289" lon="-0.40034">
        <ele>10.8</ele>
        <time>2023-04-21T11:41:15Z</time>
      </trkpt>
      <trkpt lat="49.13283" lon="-0.4004">
        <ele>10.6</ele>
        <time>2023-04-21T11:41:16Z</time>
      </trkpt>
      <trkpt lat="49.13277" lon="-0.40046">
        <ele>10.6</ele>
        <time>2023-04-21T11:41:17Z</time>
      </trkpt>
      <trkpt lat="49.13272" lon="-0.40052">
        <ele>10.6</ele>
        <time>2023-04-21T11:41:18Z</time>
      </trkpt>
      <trkpt lat="49.13266" lon="-0.40057">
        <ele>10.6</ele>
        <time>2023-04-21T11:41:19Z</time>
      </trkpt>
      <trkpt lat="49.1326" lon="-0.40063">
        <ele>10.6</ele>
        <time>2023-04-21T11:41:20Z</time>
      </trkpt>
      <trkpt lat="49.13255" lon="-0.40069">
        <ele>10.4</ele>
        <time>2023-04-21T11:41:21Z</time>
      </trkpt>
      <trkpt lat="49.13249" lon="-0.40074">
        <ele>10.4</ele>
        <time>2023-04-21T11:41:22Z</time>
      </trkpt>
      <trkpt lat="49.13243" lon="-0.4008">
        <ele>10.2</ele>
        <time>2023-04-21T11:41:23Z</time>
      </trkpt>
      <trkpt lat="49.13237" lon="-0.40086">
        <ele>9.8</ele>
        <time>2023-04-21T11:41:24Z</time>
      </trkpt>
      <trkpt lat="49.13231" lon="-0.40091">
        <ele>9.6</ele>
        <time>2023-04-21T11:41:25Z</time>
      </trkpt>
      <trkpt lat="49.13226" lon="-0.40097">
        <ele>9.6</ele>
        <time>2023-04-21T11:41:26Z</time>
      </trkpt>
      <trkpt lat="49.1322" lon="-0.40102">
        <ele>9.4</ele>
        <time>2023-04-21T11:41:27Z</time>
      </trkpt>
      <trkpt lat="49.13214" lon="-0.40107">
        <ele>9.2</ele>
        <time>2023-04-21T11:41:28Z</time>
      </trkpt>
      <trkpt lat="49.13208" lon="-0.40112">
        <ele>9</ele>
        <time>2023-04-21T11:41:29Z</time>
      </trkpt>
      <trkpt lat="49.13202" lon="-0.40116">
        <ele>8.8</ele>
        <time>2023-04-21T11:41:30Z</time>
      </trkpt>
      <trkpt lat="49.13195" lon="-0.40121">
        <ele>8.6</ele>
        <time>2023-04-21T11:41:31Z</time>
      </trkpt>
      <trkpt lat="49.13189" lon="-0.40126">
        <ele>8.6</ele>
        <time>2023-04-21T11:41:32Z</time>
      </trkpt>
      <trkpt lat="49.13183" lon="-0.40131">
        <ele>8.4</ele>
        <time>2023-04-21T11:41:33Z</time>
      </trkpt>
      <trkpt lat="49.13176" lon="-0.40136">
        <ele>8.2</ele>
        <time>2023-04-21T11:41:34Z</time>
      </trkpt>
      <trkpt lat="49.1317" lon="-0.4014">
        <ele>8</ele>
        <time>2023-04-21T11:41:35Z</time>
      </trkpt>
      <trkpt lat="49.13163" lon="-0.40145">
        <ele>8</ele>
        <time>2023-04-21T11:41:36Z</time>
      </trkpt>
      <trkpt lat="49.13157" lon="-0.4015">
        <ele>8</ele>
        <time>2023-04-21T11:41:37Z</time>
      </trkpt>
      <trkpt lat="49.13151" lon="-0.40154">
        <ele>8</ele>
        <time>2023-04-21T11:41:38Z</time>
      </trkpt>
      <trkpt lat="49.13145" lon="-0.40158">
        <ele>8.2</ele>
        <time>2023-04-21T11:41:39Z</time>
      </trkpt>
      <trkpt lat="49.13139" lon="-0.40161">
        <ele>8.2</ele>
        <time>2023-04-21T11:41:40Z</time>
      </trkpt>
      <trkpt lat="49.13133" lon="-0.40165">
        <ele>8.4</ele>
        <time>2023-04-21T11:41:41Z</time>
      </trkpt>
      <trkpt lat="49.13127" lon="-0.40168">
        <ele>8.4</ele>
        <time>2023-04-21T11:41:42Z</time>
      </trkpt>
      <trkpt lat="49.13121" lon="-0.40172">
        <ele>8.6</ele>
        <time>2023-04-21T11:41:43Z</time>
      </trkpt>
      <trkpt lat="49.13114" lon="-0.40175">
        <ele>8.6</ele>
        <time>2023-04-21T11:41:44Z</time>
      </trkpt>
      <trkpt lat="49.13107" lon="-0.40179">
        <ele>8.8</ele>
        <time>2023-04-21T11:41:45Z</time>
      </trkpt>
      <trkpt lat="49.13101" lon="-0.40183">
        <ele>8.8</ele>
        <time>2023-04-21T11:41:46Z</time>
      </trkpt>
      <trkpt lat="49.13094" lon="-0.40186">
        <ele>9</ele>
        <time>2023-04-21T11:41:47Z</time>
      </trkpt>
      <trkpt lat="49.13087" lon="-0.4019">
        <ele>9.2</ele>
        <time>2023-04-21T11:41:48Z</time>
      </trkpt>
      <trkpt lat="49.1308" lon="-0.40193">
        <ele>9.2</ele>
        <time>2023-04-21T11:41:49Z</time>
      </trkpt>
      <trkpt lat="49.13074" lon="-0.40196">
        <ele>9.2</ele>
        <time>2023-04-21T11:41:50Z</time>
      </trkpt>
      <trkpt lat="49.13067" lon="-0.40199">
        <ele>9.2</ele>
        <time>2023-04-21T11:41:51Z</time>
      </trkpt>
      <trkpt lat="49.13061" lon="-0.40202">
        <ele>9.4</ele>
        <time>2023-04-21T11:41:52Z</time>
      </trkpt>
      <trkpt lat="49.13054" lon="-0.40205">
        <ele>9.4</ele>
        <time>2023-04-21T11:41:53Z</time>
      </trkpt>
      <trkpt lat="49.13047" lon="-0.40207">
        <ele>9.4</ele>
        <time>2023-04-21T11:41:54Z</time>
      </trkpt>
      <trkpt lat="49.13041" lon="-0.40209">
        <ele>9.6</ele>
        <time>2023-04-21T11:41:55Z</time>
      </trkpt>
      <trkpt lat="49.13034" lon="-0.40211">
        <ele>9.6</ele>
        <time>2023-04-21T11:41:56Z</time>
      </trkpt>
      <trkpt lat="49.13028" lon="-0.40214">
        <ele>9.6</ele>
        <time>2023-04-21T11:41:57Z</time>
      </trkpt>
      <trkpt lat="49.13021" lon="-0.40217">
        <ele>9.6</ele>
        <time>2023-04-21T11:41:58Z</time>
      </trkpt>
      <trkpt lat="49.13015" lon="-0.4022">
        <ele>9.6</ele>
        <time>2023-04-21T11:41:59Z</time>
      </trkpt>
      <trkpt lat="49.13009" lon="-0.40222">
        <ele>9.8</ele>
        <time>2023-04-21T11:42:00Z</time>
      </trkpt>
      <trkpt lat="49.13003" lon="-0.40224">
        <ele>9.8</ele>
        <time>2023-04-21T11:42:01Z</time>
      </trkpt>
      <trkpt lat="49.12997" lon="-0.40225">
        <ele>9.8</ele>
        <time>2023-04-21T11:42:02Z</time>
      </trkpt>
      <trkpt lat="49.1299" lon="-0.40226">
        <ele>9.6</ele>
        <time>2023-04-21T11:42:03Z</time>
      </trkpt>
      <trkpt lat="49.12984" lon="-0.40228">
        <ele>9.6</ele>
        <time>2023-04-21T11:42:04Z</time>
      </trkpt>
      <trkpt lat="49.12978" lon="-0.4023">
        <ele>9.4</ele>
        <time>2023-04-21T11:42:05Z</time>
      </trkpt>
      <trkpt lat="49.12972" lon="-0.40232">
        <ele>9.2</ele>
        <time>2023-04-21T11:42:06Z</time>
      </trkpt>
      <trkpt lat="49.12966" lon="-0.40233">
        <ele>9</ele>
        <time>2023-04-21T11:42:07Z</time>
      </trkpt>
      <trkpt lat="49.1296" lon="-0.40234">
        <ele>8.8</ele>
        <time>2023-04-21T11:42:08Z</time>
      </trkpt>
      <trkpt lat="49.12954" lon="-0.40234">
        <ele>8.6</ele>
        <time>2023-04-21T11:42:09Z</time>
      </trkpt>
      <trkpt lat="49.12948" lon="-0.40234">
        <ele>8.6</ele>
        <time>2023-04-21T11:42:10Z</time>
      </trkpt>
      <trkpt lat="49.12942" lon="-0.40234">
        <ele>8.4</ele>
        <time>2023-04-21T11:42:11Z</time>
      </trkpt>
      <trkpt lat="49.12936" lon="-0.40234">
        <ele>8.4</ele>
        <time>2023-04-21T11:42:12Z</time>
      </trkpt>
      <trkpt lat="49.1293" lon="-0.40234">
        <ele>8.2</ele>
        <time>2023-04-21T11:42:13Z</time>
      </trkpt>
      <trkpt lat="49.12924" lon="-0.40234">
        <ele>8.2</ele>
        <time>2023-04-21T11:42:14Z</time>
      </trkpt>
      <trkpt lat="49.12918" lon="-0.40234">
        <ele>8</ele>
        <time>2023-04-21T11:42:15Z</time>
      </trkpt>
      <trkpt lat="49.12911" lon="-0.40235">
        <ele>8</ele>
        <time>2023-04-21T11:42:16Z</time>
      </trkpt>
      <trkpt lat="49.12905" lon="-0.40235">
        <ele>8</ele>
        <time>2023-04-21T11:42:17Z</time>
      </trkpt>
      <trkpt lat="49.12898" lon="-0.40236">
        <ele>7.8</ele>
        <time>2023-04-21T11:42:18Z</time>
      </trkpt>
      <trkpt lat="49.12891" lon="-0.40236">
        <ele>7.8</ele>
        <time>2023-04-21T11:42:19Z</time>
      </trkpt>
      <trkpt lat="49.12884" lon="-0.40237">
        <ele>7.8</ele>
        <time>2023-04-21T11:42:20Z</time>
      </trkpt>
      <trkpt lat="49.12878" lon="-0.40237">
        <ele>7.8</ele>
        <time>2023-04-21T11:42:21Z</time>
      </trkpt>
      <trkpt lat="49.12871" lon="-0.40238">
        <ele>7.6</ele>
        <time>2023-04-21T11:42:22Z</time>
      </trkpt>
      <trkpt lat="49.12864" lon="-0.40238">
        <ele>7.6</ele>
        <time>2023-04-21T11:42:23Z</time>
      </trkpt>
      <trkpt lat="49.12857" lon="-0.40238">
        <ele>7.6</ele>
        <time>2023-04-21T11:42:24Z</time>
      </trkpt>
      <trkpt lat="49.12851" lon="-0.40238">
        <ele>7.6</ele>
        <time>2023-04-21T11:42:25Z</time>
      </trkpt>
      <trkpt lat="49.12844" lon="-0.40238">
        <ele>7.6</ele>
        <time>2023-04-21T11:42:26Z</time>
      </trkpt>
      <trkpt lat="49.12837" lon="-0.40238">
        <ele>7.6</ele>
        <time>2023-04-21T11:42:27Z</time>
      </trkpt>
      <trkpt lat="49.12831" lon="-0.40237">
        <ele>7.8</ele>
        <time>2023-04-21T11:42:28Z</time>
      </trkpt>
      <trkpt lat="49.12825" lon="-0.40237">
        <ele>8</ele>
        <time>2023-04-21T11:42:29Z</time>
      </trkpt>
      <trkpt lat="49.12818" lon="-0.40236">
        <ele>8.2</ele>
        <time>2023-04-21T11:42:30Z</time>
      </trkpt>
      <trkpt lat="49.12812" lon="-0.40235">
        <ele>8.4</ele>
        <time>2023-04-21T11:42:31Z</time>
      </trkpt>
      <trkpt lat="49.12806" lon="-0.40234">
        <ele>8.6</ele>
        <time>2023-04-21T11:42:32Z</time>
      </trkpt>
      <trkpt lat="49.128" lon="-0.40233">
        <ele>8.6</ele>
        <time>2023-04-21T11:42:33Z</time>
      </trkpt>
      <trkpt lat="49.12794" lon="-0.40232">
        <ele>8.8</ele>
        <time>2023-04-21T11:42:34Z</time>
      </trkpt>
      <trkpt lat="49.12787" lon="-0.40231">
        <ele>9</ele>
        <time>2023-04-21T11:42:35Z</time>
      </trkpt>
      <trkpt lat="49.12781" lon="-0.40229">
        <ele>9.2</ele>
        <time>2023-04-21T11:42:36Z</time>
      </trkpt>
      <trkpt lat="49.12775" lon="-0.40228">
        <ele>9.4</ele>
        <time>2023-04-21T11:42:37Z</time>
      </trkpt>
      <trkpt lat="49.12769" lon="-0.40227">
        <ele>9.6</ele>
        <time>2023-04-21T11:42:38Z</time>
      </trkpt>
      <trkpt lat="49.12763" lon="-0.40225">
        <ele>9.6</ele>
        <time>2023-04-21T11:42:39Z</time>
      </trkpt>
      <trkpt lat="49.12757" lon="-0.40223">
        <ele>9.8</ele>
        <time>2023-04-21T11:42:40Z</time>
      </trkpt>
      <trkpt lat="49.12751" lon="-0.40222">
        <ele>10</ele>
        <time>2023-04-21T11:42:41Z</time>
      </trkpt>
      <trkpt lat="49.12745" lon="-0.4022">
        <ele>10.2</ele>
        <time>2023-04-21T11:42:42Z</time>
      </trkpt>
      <trkpt lat="49.12739" lon="-0.40218">
        <ele>10.2</ele>
        <time>2023-04-21T11:42:43Z</time>
      </trkpt>
      <trkpt lat="49.12733" lon="-0.40216">
        <ele>10.2</ele>
        <time>2023-04-21T11:42:44Z</time>
      </trkpt>
      <trkpt lat="49.12727" lon="-0.40215">
        <ele>10.2</ele>
        <time>2023-04-21T11:42:45Z</time>
      </trkpt>
      <trkpt lat="49.12721" lon="-0.40215">
        <ele>10.4</ele>
        <time>2023-04-21T11:42:46Z</time>
      </trkpt>
      <trkpt lat="49.12715" lon="-0.40216">
        <ele>10.2</ele>
        <time>2023-04-21T11:42:47Z</time>
      </trkpt>
      <trkpt lat="49.12709" lon="-0.40218">
        <ele>10.2</ele>
        <time>2023-04-21T11:42:48Z</time>
      </trkpt>
      <trkpt lat="49.12703" lon="-0.40218">
        <ele>10.2</ele>
        <time>2023-04-21T11:42:49Z</time>
      </trkpt>
      <trkpt lat="49.12698" lon="-0.40217">
        <ele>10.2</ele>
        <time>2023-04-21T11:42:50Z</time>
      </trkpt>
      <trkpt lat="49.12692" lon="-0.40215">
        <ele>10.2</ele>
        <time>2023-04-21T11:42:51Z</time>
      </trkpt>
      <trkpt lat="49.12686" lon="-0.40213">
        <ele>10.4</ele>
        <time>2023-04-21T11:42:52Z</time>
      </trkpt>
      <trkpt lat="49.12681" lon="-0.4021">
        <ele>10.4</ele>
        <time>2023-04-21T11:42:53Z</time>
      </trkpt>
      <trkpt lat="49.12675" lon="-0.40208">
        <ele>10.6</ele>
        <time>2023-04-21T11:42:54Z</time>
      </trkpt>
      <trkpt lat="49.12669" lon="-0.40205">
        <ele>10.6</ele>
        <time>2023-04-21T11:42:55Z</time>
      </trkpt>
      <trkpt lat="49.12663" lon="-0.40203">
        <ele>10.6</ele>
        <time>2023-04-21T11:42:56Z</time>
      </trkpt>
      <trkpt lat="49.12657" lon="-0.402">
        <ele>10.4</ele>
        <time>2023-04-21T11:42:57Z</time>
      </trkpt>
      <trkpt lat="49.12651" lon="-0.40198">
        <ele>10.4</ele>
        <time>2023-04-21T11:42:58Z</time>
      </trkpt>
      <trkpt lat="49.12645" lon="-0.40195">
        <ele>10.2</ele>
        <time>2023-04-21T11:42:59Z</time>
      </trkpt>
      <trkpt lat="49.12639" lon="-0.40192">
        <ele>10</ele>
        <time>2023-04-21T11:43:00Z</time>
      </trkpt>
      <trkpt lat="49.12633" lon="-0.40189">
        <ele>9.8</ele>
        <time>2023-04-21T11:43:01Z</time>
      </trkpt>
      <trkpt lat="49.12627" lon="-0.40185">
        <ele>9.6</ele>
        <time>2023-04-21T11:43:02Z</time>
      </trkpt>
      <trkpt lat="49.12622" lon="-0.40182">
        <ele>9.6</ele>
        <time>2023-04-21T11:43:03Z</time>
      </trkpt>
      <trkpt lat="49.12616" lon="-0.40179">
        <ele>9.4</ele>
        <time>2023-04-21T11:43:04Z</time>
      </trkpt>
      <trkpt lat="49.1261" lon="-0.40175">
        <ele>9.2</ele>
        <time>2023-04-21T11:43:05Z</time>
      </trkpt>
      <trkpt lat="49.12604" lon="-0.40172">
        <ele>8.8</ele>
        <time>2023-04-21T11:43:06Z</time>
      </trkpt>
      <trkpt lat="49.12598" lon="-0.40168">
        <ele>8.6</ele>
        <time>2023-04-21T11:43:07Z</time>
      </trkpt>
      <trkpt lat="49.12593" lon="-0.40165">
        <ele>8.6</ele>
        <time>2023-04-21T11:43:08Z</time>
      </trkpt>
      <trkpt lat="49.12587" lon="-0.40161">
        <ele>8.2</ele>
        <time>2023-04-21T11:43:09Z</time>
      </trkpt>
      <trkpt lat="49.12581" lon="-0.40157">
        <ele>8.2</ele>
        <time>2023-04-21T11:43:10Z</time>
      </trkpt>
      <trkpt lat="49.12575" lon="-0.40153">
        <ele>8.4</ele>
        <time>2023-04-21T11:43:11Z</time>
      </trkpt>
      <trkpt lat="49.12569" lon="-0.40149">
        <ele>8.6</ele>
        <time>2023-04-21T11:43:12Z</time>
      </trkpt>
      <trkpt lat="49.12564" lon="-0.40145">
        <ele>8.6</ele>
        <time>2023-04-21T11:43:13Z</time>
      </trkpt>
      <trkpt lat="49.12558" lon="-0.40141">
        <ele>8.8</ele>
        <time>2023-04-21T11:43:14Z</time>
      </trkpt>
      <trkpt lat="49.12551" lon="-0.40137">
        <ele>9</ele>
        <time>2023-04-21T11:43:15Z</time>
      </trkpt>
      <trkpt lat="49.12545" lon="-0.40132">
        <ele>9</ele>
        <time>2023-04-21T11:43:16Z</time>
      </trkpt>
      <trkpt lat="49.12539" lon="-0.40128">
        <ele>9.2</ele>
        <time>2023-04-21T11:43:17Z</time>
      </trkpt>
      <trkpt lat="49.12533" lon="-0.40124">
        <ele>9.2</ele>
        <time>2023-04-21T11:43:18Z</time>
      </trkpt>
      <trkpt lat="49.12527" lon="-0.4012">
        <ele>9.2</ele>
        <time>2023-04-21T11:43:19Z</time>
      </trkpt>
      <trkpt lat="49.12521" lon="-0.40116">
        <ele>9</ele>
        <time>2023-04-21T11:43:20Z</time>
      </trkpt>
      <trkpt lat="49.12515" lon="-0.40112">
        <ele>9</ele>
        <time>2023-04-21T11:43:21Z</time>
      </trkpt>
      <trkpt lat="49.12509" lon="-0.40107">
        <ele>8.8</ele>
        <time>2023-04-21T11:43:22Z</time>
      </trkpt>
      <trkpt lat="49.12503" lon="-0.40104">
        <ele>8.6</ele>
        <time>2023-04-21T11:43:23Z</time>
      </trkpt>
      <trkpt lat="49.12498" lon="-0.401">
        <ele>8.8</ele>
        <time>2023-04-21T11:43:24Z</time>
      </trkpt>
      <trkpt lat="49.12492" lon="-0.40095">
        <ele>9</ele>
        <time>2023-04-21T11:43:25Z</time>
      </trkpt>
      <trkpt lat="49.12486" lon="-0.40092">
        <ele>9.2</ele>
        <time>2023-04-21T11:43:26Z</time>
      </trkpt>
      <trkpt lat="49.1248" lon="-0.40088">
        <ele>9.4</ele>
        <time>2023-04-21T11:43:27Z</time>
      </trkpt>
      <trkpt lat="49.12475" lon="-0.40084">
        <ele>9.6</ele>
        <time>2023-04-21T11:43:28Z</time>
      </trkpt>
      <trkpt lat="49.12469" lon="-0.4008">
        <ele>9.8</ele>
        <time>2023-04-21T11:43:29Z</time>
      </trkpt>
      <trkpt lat="49.12463" lon="-0.40076">
        <ele>10</ele>
        <time>2023-04-21T11:43:30Z</time>
      </trkpt>
      <trkpt lat="49.12457" lon="-0.40072">
        <ele>10.2</ele>
        <time>2023-04-21T11:43:31Z</time>
      </trkpt>
      <trkpt lat="49.12452" lon="-0.40069">
        <ele>10.4</ele>
        <time>2023-04-21T11:43:32Z</time>
      </trkpt>
      <trkpt lat="49.12447" lon="-0.40066">
        <ele>10.6</ele>
        <time>2023-04-21T11:43:33Z</time>
      </trkpt>
      <trkpt lat="49.12442" lon="-0.40063">
        <ele>10.6</ele>
        <time>2023-04-21T11:43:34Z</time>
      </trkpt>
      <trkpt lat="49.12436" lon="-0.40059">
        <ele>10.6</ele>
        <time>2023-04-21T11:43:35Z</time>
      </trkpt>
      <trkpt lat="49.1243" lon="-0.40055">
        <ele>10.6</ele>
        <time>2023-04-21T11:43:36Z</time>
      </trkpt>
      <trkpt lat="49.12424" lon="-0.4005">
        <ele>10.6</ele>
        <time>2023-04-21T11:43:37Z</time>
      </trkpt>
      <trkpt lat="49.12418" lon="-0.40046">
        <ele>10.6</ele>
        <time>2023-04-21T11:43:38Z</time>
      </trkpt>
      <trkpt lat="49.12412" lon="-0.40042">
        <ele>10.8</ele>
        <time>2023-04-21T11:43:39Z</time>
      </trkpt>
      <trkpt lat="49.12406" lon="-0.40038">
        <ele>11.2</ele>
        <time>2023-04-21T11:43:40Z</time>
      </trkpt>
      <trkpt lat="49.12401" lon="-0.40034">
        <ele>11.4</ele>
        <time>2023-04-21T11:43:41Z</time>
      </trkpt>
      <trkpt lat="49.12395" lon="-0.40029">
        <ele>11.6</ele>
        <time>2023-04-21T11:43:42Z</time>
      </trkpt>
      <trkpt lat="49.12389" lon="-0.40025">
        <ele>11.8</ele>
        <time>2023-04-21T11:43:43Z</time>
      </trkpt>
      <trkpt lat="49.12384" lon="-0.40021">
        <ele>12.2</ele>
        <time>2023-04-21T11:43:44Z</time>
      </trkpt>
      <trkpt lat="49.12378" lon="-0.40016">
        <ele>12.4</ele>
        <time>2023-04-21T11:43:45Z</time>
      </trkpt>
      <trkpt lat="49.12372" lon="-0.40012">
        <ele>12.6</ele>
        <time>2023-04-21T11:43:46Z</time>
      </trkpt>
      <trkpt lat="49.12367" lon="-0.40007">
        <ele>12.6</ele>
        <time>2023-04-21T11:43:47Z</time>
      </trkpt>
      <trkpt lat="49.12361" lon="-0.40003">
        <ele>12.8</ele>
        <time>2023-04-21T11:43:48Z</time>
      </trkpt>
      <trkpt lat="49.12356" lon="-0.39998">
        <ele>13.2</ele>
        <time>2023-04-21T11:43:49Z</time>
      </trkpt>
      <trkpt lat="49.1235" lon="-0.39994">
        <ele>13.4</ele>
        <time>2023-04-21T11:43:50Z</time>
      </trkpt>
      <trkpt lat="49.12344" lon="-0.3999">
        <ele>13.6</ele>
        <time>2023-04-21T11:43:51Z</time>
      </trkpt>
      <trkpt lat="49.12339" lon="-0.39986">
        <ele>13.8</ele>
        <time>2023-04-21T11:43:52Z</time>
      </trkpt>
      <trkpt lat="49.12333" lon="-0.39982">
        <ele>14.2</ele>
        <time>2023-04-21T11:43:53Z</time>
      </trkpt>
      <trkpt lat="49.12328" lon="-0.39978">
        <ele>14.4</ele>
        <time>2023-04-21T11:43:54Z</time>
      </trkpt>
      <trkpt lat="49.12323" lon="-0.39974">
        <ele>14.4</ele>
        <time>2023-04-21T11:43:55Z</time>
      </trkpt>
      <trkpt lat="49.12317" lon="-0.39969">
        <ele>14.6</ele>
        <time>2023-04-21T11:43:56Z</time>
      </trkpt>
      <trkpt lat="49.12312" lon="-0.39965">
        <ele>14.6</ele>
        <time>2023-04-21T11:43:57Z</time>
      </trkpt>
      <trkpt lat="49.12307" lon="-0.3996">
        <ele>14.8</ele>
        <time>2023-04-21T11:43:58Z</time>
      </trkpt>
      <trkpt lat="49.12301" lon="-0.39956">
        <ele>15</ele>
        <time>2023-04-21T11:43:59Z</time>
      </trkpt>
      <trkpt lat="49.12296" lon="-0.39951">
        <ele>15.2</ele>
        <time>2023-04-21T11:44:00Z</time>
      </trkpt>
      <trkpt lat="49.12291" lon="-0.39946">
        <ele>15.4</ele>
        <time>2023-04-21T11:44:01Z</time>
      </trkpt>
      <trkpt lat="49.12286" lon="-0.39941">
        <ele>15.4</ele>
        <time>2023-04-21T11:44:02Z</time>
      </trkpt>
      <trkpt lat="49.12282" lon="-0.39936">
        <ele>15.6</ele>
        <time>2023-04-21T11:44:03Z</time>
      </trkpt>
      <trkpt lat="49.12277" lon="-0.3993">
        <ele>15.6</ele>
        <time>2023-04-21T11:44:04Z</time>
      </trkpt>
      <trkpt lat="49.12273" lon="-0.39925">
        <ele>15.6</ele>
        <time>2023-04-21T11:44:05Z</time>
      </trkpt>
      <trkpt lat="49.12269" lon="-0.3992">
        <ele>15.8</ele>
        <time>2023-04-21T11:44:06Z</time>
      </trkpt>
      <trkpt lat="49.12265" lon="-0.39915">
        <ele>15.8</ele>
        <time>2023-04-21T11:44:07Z</time>
      </trkpt>
      <trkpt lat="49.1226" lon="-0.3991">
        <ele>16</ele>
        <time>2023-04-21T11:44:08Z</time>
      </trkpt>
      <trkpt lat="49.12255" lon="-0.39904">
        <ele>16.2</ele>
        <time>2023-04-21T11:44:09Z</time>
      </trkpt>
      <trkpt lat="49.1225" lon="-0.39899">
        <ele>16.4</ele>
        <time>2023-04-21T11:44:10Z</time>
      </trkpt>
      <trkpt lat="49.12244" lon="-0.39893">
        <ele>16.4</ele>
        <time>2023-04-21T11:44:11Z</time>
      </trkpt>
      <trkpt lat="49.12239" lon="-0.39888">
        <ele>16.6</ele>
        <time>2023-04-21T11:44:12Z</time>
      </trkpt>
      <trkpt lat="49.12233" lon="-0.39882">
        <ele>16.6</ele>
        <time>2023-04-21T11:44:13Z</time>
      </trkpt>
      <trkpt lat="49.12227" lon="-0.39876">
        <ele>16.6</ele>
        <time>2023-04-21T11:44:14Z</time>
      </trkpt>
      <trkpt lat="49.12222" lon="-0.3987">
        <ele>16.8</ele>
        <time>2023-04-21T11:44:15Z</time>
      </trkpt>
      <trkpt lat="49.12216" lon="-0.39864">
        <ele>16.8</ele>
        <time>2023-04-21T11:44:16Z</time>
      </trkpt>
      <trkpt lat="49.12211" lon="-0.39858">
        <ele>17</ele>
        <time>2023-04-21T11:44:17Z</time>
      </trkpt>
      <trkpt lat="49.12205" lon="-0.39851">
        <ele>17.2</ele>
        <time>2023-04-21T11:44:18Z</time>
      </trkpt>
      <trkpt lat="49.12199" lon="-0.39845">
        <ele>17.2</ele>
        <time>2023-04-21T11:44:19Z</time>
      </trkpt>
      <trkpt lat="49.12193" lon="-0.39838">
        <ele>17.6</ele>
        <time>2023-04-21T11:44:20Z</time>
      </trkpt>
      <trkpt lat="49.12188" lon="-0.39832">
        <ele>17.8</ele>
        <time>2023-04-21T11:44:21Z</time>
      </trkpt>
      <trkpt lat="49.12182" lon="-0.39825">
        <ele>17.8</ele>
        <time>2023-04-21T11:44:22Z</time>
      </trkpt>
      <trkpt lat="49.12177" lon="-0.39818">
        <ele>17.8</ele>
        <time>2023-04-21T11:44:23Z</time>
      </trkpt>
      <trkpt lat="49.12172" lon="-0.3981">
        <ele>17.6</ele>
        <time>2023-04-21T11:44:24Z</time>
      </trkpt>
      <trkpt lat="49.12167" lon="-0.39804">
        <ele>17.6</ele>
        <time>2023-04-21T11:44:25Z</time>
      </trkpt>
      <trkpt lat="49.12162" lon="-0.39797">
        <ele>17.6</ele>
        <time>2023-04-21T11:44:26Z</time>
      </trkpt>
      <trkpt lat="49.12157" lon="-0.39791">
        <ele>17.4</ele>
        <time>2023-04-21T11:44:27Z</time>
      </trkpt>
      <trkpt lat="49.12153" lon="-0.39785">
        <ele>17.4</ele>
        <time>2023-04-21T11:44:28Z</time>
      </trkpt>
      <trkpt lat="49.12148" lon="-0.39779">
        <ele>17.4</ele>
        <time>2023-04-21T11:44:29Z</time>
      </trkpt>
      <trkpt lat="49.12143" lon="-0.39774">
        <ele>17.4</ele>
        <time>2023-04-21T11:44:30Z</time>
      </trkpt>
      <trkpt lat="49.12137" lon="-0.39768">
        <ele>17.6</ele>
        <time>2023-04-21T11:44:31Z</time>
      </trkpt>
      <trkpt lat="49.12132" lon="-0.39763">
        <ele>17.6</ele>
        <time>2023-04-21T11:44:32Z</time>
      </trkpt>
      <trkpt lat="49.12127" lon="-0.39757">
        <ele>17.6</ele>
        <time>2023-04-21T11:44:33Z</time>
      </trkpt>
      <trkpt lat="49.12122" lon="-0.39752">
        <ele>17.8</ele>
        <time>2023-04-21T11:44:34Z</time>
      </trkpt>
      <trkpt lat="49.12117" lon="-0.39746">
        <ele>17.8</ele>
        <time>2023-04-21T11:44:35Z</time>
      </trkpt>
      <trkpt lat="49.12112" lon="-0.3974">
        <ele>17.8</ele>
        <time>2023-04-21T11:44:36Z</time>
      </trkpt>
      <trkpt lat="49.12107" lon="-0.39734">
        <ele>17.8</ele>
        <time>2023-04-21T11:44:37Z</time>
      </trkpt>
      <trkpt lat="49.12103" lon="-0.39727">
        <ele>17.8</ele>
        <time>2023-04-21T11:44:38Z</time>
      </trkpt>
      <trkpt lat="49.12098" lon="-0.3972">
        <ele>17.8</ele>
        <time>2023-04-21T11:44:39Z</time>
      </trkpt>
      <trkpt lat="49.12094" lon="-0.39713">
        <ele>17.8</ele>
        <time>2023-04-21T11:44:40Z</time>
      </trkpt>
      <trkpt lat="49.1209" lon="-0.39705">
        <ele>17.6</ele>
        <time>2023-04-21T11:44:41Z</time>
      </trkpt>
      <trkpt lat="49.12085" lon="-0.39697">
        <ele>17.2</ele>
        <time>2023-04-21T11:44:42Z</time>
      </trkpt>
      <trkpt lat="49.12081" lon="-0.39689">
        <ele>17.2</ele>
        <time>2023-04-21T11:44:43Z</time>
      </trkpt>
      <trkpt lat="49.12075" lon="-0.39682">
        <ele>17.2</ele>
        <time>2023-04-21T11:44:44Z</time>
      </trkpt>
      <trkpt lat="49.1207" lon="-0.39677">
        <ele>17.2</ele>
        <time>2023-04-21T11:44:45Z</time>
      </trkpt>
      <trkpt lat="49.12065" lon="-0.3967">
        <ele>17</ele>
        <time>2023-04-21T11:44:46Z</time>
      </trkpt>
      <trkpt lat="49.1206" lon="-0.39664">
        <ele>17.2</ele>
        <time>2023-04-21T11:44:47Z</time>
      </trkpt>
      <trkpt lat="49.12055" lon="-0.39657">
        <ele>17.2</ele>
        <time>2023-04-21T11:44:48Z</time>
      </trkpt>
      <trkpt lat="49.1205" lon="-0.3965">
        <ele>17.2</ele>
        <time>2023-04-21T11:44:49Z</time>
      </trkpt>
      <trkpt lat="49.12045" lon="-0.39643">
        <ele>17.2</ele>
        <time>2023-04-21T11:44:50Z</time>
      </trkpt>
      <trkpt lat="49.1204" lon="-0.39637">
        <ele>17.2</ele>
        <time>2023-04-21T11:44:51Z</time>
      </trkpt>
      <trkpt lat="49.12036" lon="-0.3963">
        <ele>17.4</ele>
        <time>2023-04-21T11:44:52Z</time>
      </trkpt>
      <trkpt lat="49.12031" lon="-0.39623">
        <ele>17.4</ele>
        <time>2023-04-21T11:44:53Z</time>
      </trkpt>
      <trkpt lat="49.12026" lon="-0.39616">
        <ele>17.2</ele>
        <time>2023-04-21T11:44:54Z</time>
      </trkpt>
      <trkpt lat="49.1202" lon="-0.39609">
        <ele>17.2</ele>
        <time>2023-04-21T11:44:55Z</time>
      </trkpt>
      <trkpt lat="49.12015" lon="-0.39601">
        <ele>17.2</ele>
        <time>2023-04-21T11:44:56Z</time>
      </trkpt>
      <trkpt lat="49.1201" lon="-0.39594">
        <ele>17.2</ele>
        <time>2023-04-21T11:44:57Z</time>
      </trkpt>
      <trkpt lat="49.12006" lon="-0.39587">
        <ele>17</ele>
        <time>2023-04-21T11:44:58Z</time>
      </trkpt>
      <trkpt lat="49.12001" lon="-0.3958">
        <ele>17</ele>
        <time>2023-04-21T11:44:59Z</time>
      </trkpt>
      <trkpt lat="49.11996" lon="-0.39573">
        <ele>17.2</ele>
        <time>2023-04-21T11:45:00Z</time>
      </trkpt>
      <trkpt lat="49.11992" lon="-0.39567">
        <ele>17.2</ele>
        <time>2023-04-21T11:45:01Z</time>
      </trkpt>
      <trkpt lat="49.11988" lon="-0.3956">
        <ele>17.4</ele>
        <time>2023-04-21T11:45:02Z</time>
      </trkpt>
      <trkpt lat="49.11983" lon="-0.39554">
        <ele>17.6</ele>
        <time>2023-04-21T11:45:03Z</time>
      </trkpt>
      <trkpt lat="49.11979" lon="-0.39547">
        <ele>17.8</ele>
        <time>2023-04-21T11:45:04Z</time>
      </trkpt>
      <trkpt lat="49.11975" lon="-0.39541">
        <ele>17.8</ele>
        <time>2023-04-21T11:45:05Z</time>
      </trkpt>
      <trkpt lat="49.11971" lon="-0.39534">
        <ele>18</ele>
        <time>2023-04-21T11:45:06Z</time>
      </trkpt>
      <trkpt lat="49.11967" lon="-0.39527">
        <ele>18.2</ele>
        <time>2023-04-21T11:45:07Z</time>
      </trkpt>
      <trkpt lat="49.11963" lon="-0.3952">
        <ele>18.2</ele>
        <time>2023-04-21T11:45:08Z</time>
      </trkpt>
      <trkpt lat="49.11959" lon="-0.39513">
        <ele>18.6</ele>
        <time>2023-04-21T11:45:09Z</time>
      </trkpt>
      <trkpt lat="49.11954" lon="-0.39506">
        <ele>18.6</ele>
        <time>2023-04-21T11:45:10Z</time>
      </trkpt>
      <trkpt lat="49.1195" lon="-0.39499">
        <ele>18.8</ele>
        <time>2023-04-21T11:45:11Z</time>
      </trkpt>
      <trkpt lat="49.11945" lon="-0.39492">
        <ele>18.8</ele>
        <time>2023-04-21T11:45:12Z</time>
      </trkpt>
      <trkpt lat="49.1194" lon="-0.39485">
        <ele>18.6</ele>
        <time>2023-04-21T11:45:13Z</time>
      </trkpt>
      <trkpt lat="49.11935" lon="-0.39478">
        <ele>18.6</ele>
        <time>2023-04-21T11:45:14Z</time>
      </trkpt>
      <trkpt lat="49.11931" lon="-0.39471">
        <ele>18.4</ele>
        <time>2023-04-21T11:45:15Z</time>
      </trkpt>
      <trkpt lat="49.11926" lon="-0.39464">
        <ele>18.2</ele>
        <time>2023-04-21T11:45:16Z</time>
      </trkpt>
      <trkpt lat="49.11922" lon="-0.39456">
        <ele>18.2</ele>
        <time>2023-04-21T11:45:17Z</time>
      </trkpt>
      <trkpt lat="49.11917" lon="-0.39449">
        <ele>18.2</ele>
        <time>2023-04-21T11:45:18Z</time>
      </trkpt>
      <trkpt lat="49.11913" lon="-0.39442">
        <ele>18.2</ele>
        <time>2023-04-21T11:45:19Z</time>
      </trkpt>
      <trkpt lat="49.11908" lon="-0.39435">
        <ele>18</ele>
        <time>2023-04-21T11:45:20Z</time>
      </trkpt>
      <trkpt lat="49.11904" lon="-0.39428">
        <ele>18</ele>
        <time>2023-04-21T11:45:21Z</time>
      </trkpt>
      <trkpt lat="49.11899" lon="-0.3942">
        <ele>17.8</ele>
        <time>2023-04-21T11:45:22Z</time>
      </trkpt>
      <trkpt lat="49.11895" lon="-0.39413">
        <ele>17.8</ele>
        <time>2023-04-21T11:45:23Z</time>
      </trkpt>
      <trkpt lat="49.1189" lon="-0.39406">
        <ele>17.6</ele>
        <time>2023-04-21T11:45:24Z</time>
      </trkpt>
      <trkpt lat="49.11885" lon="-0.39398">
        <ele>17.2</ele>
        <time>2023-04-21T11:45:25Z</time>
      </trkpt>
      <trkpt lat="49.11881" lon="-0.39391">
        <ele>17</ele>
        <time>2023-04-21T11:45:26Z</time>
      </trkpt>
      <trkpt lat="49.11876" lon="-0.39384">
        <ele>16.8</ele>
        <time>2023-04-21T11:45:27Z</time>
      </trkpt>
      <trkpt lat="49.11871" lon="-0.39377">
        <ele>16.6</ele>
        <time>2023-04-21T11:45:28Z</time>
      </trkpt>
      <trkpt lat="49.11865" lon="-0.39369">
        <ele>16.6</ele>
        <time>2023-04-21T11:45:29Z</time>
      </trkpt>
      <trkpt lat="49.1186" lon="-0.39362">
        <ele>16.6</ele>
        <time>2023-04-21T11:45:30Z</time>
      </trkpt>
      <trkpt lat="49.11854" lon="-0.39355">
        <ele>16.6</ele>
        <time>2023-04-21T11:45:31Z</time>
      </trkpt>
      <trkpt lat="49.11849" lon="-0.39348">
        <ele>16.6</ele>
        <time>2023-04-21T11:45:32Z</time>
      </trkpt>
      <trkpt lat="49.11843" lon="-0.3934">
        <ele>16.6</ele>
        <time>2023-04-21T11:45:33Z</time>
      </trkpt>
      <trkpt lat="49.11838" lon="-0.39332">
        <ele>16.6</ele>
        <time>2023-04-21T11:45:34Z</time>
      </trkpt>
      <trkpt lat="49.11832" lon="-0.39325">
        <ele>16.6</ele>
        <time>2023-04-21T11:45:35Z</time>
      </trkpt>
      <trkpt lat="49.11827" lon="-0.39317">
        <ele>16.2</ele>
        <time>2023-04-21T11:45:36Z</time>
      </trkpt>
      <trkpt lat="49.11822" lon="-0.39309">
        <ele>15.8</ele>
        <time>2023-04-21T11:45:37Z</time>
      </trkpt>
      <trkpt lat="49.11816" lon="-0.39301">
        <ele>15.4</ele>
        <time>2023-04-21T11:45:38Z</time>
      </trkpt>
      <trkpt lat="49.11811" lon="-0.39293">
        <ele>15</ele>
        <time>2023-04-21T11:45:39Z</time>
      </trkpt>
      <trkpt lat="49.11805" lon="-0.39286">
        <ele>14.6</ele>
        <time>2023-04-21T11:45:40Z</time>
      </trkpt>
      <trkpt lat="49.118" lon="-0.39279">
        <ele>14.4</ele>
        <time>2023-04-21T11:45:41Z</time>
      </trkpt>
      <trkpt lat="49.11794" lon="-0.39271">
        <ele>13.8</ele>
        <time>2023-04-21T11:45:42Z</time>
      </trkpt>
      <trkpt lat="49.11788" lon="-0.39264">
        <ele>13.6</ele>
        <time>2023-04-21T11:45:43Z</time>
      </trkpt>
      <trkpt lat="49.11783" lon="-0.39257">
        <ele>13</ele>
        <time>2023-04-21T11:45:44Z</time>
      </trkpt>
      <trkpt lat="49.11777" lon="-0.39249">
        <ele>12.6</ele>
        <time>2023-04-21T11:45:45Z</time>
      </trkpt>
      <trkpt lat="49.11771" lon="-0.39242">
        <ele>12.4</ele>
        <time>2023-04-21T11:45:46Z</time>
      </trkpt>
      <trkpt lat="49.11766" lon="-0.39235">
        <ele>11.8</ele>
        <time>2023-04-21T11:45:47Z</time>
      </trkpt>
      <trkpt lat="49.1176" lon="-0.39227">
        <ele>11.6</ele>
        <time>2023-04-21T11:45:48Z</time>
      </trkpt>
      <trkpt lat="49.11755" lon="-0.3922">
        <ele>11.2</ele>
        <time>2023-04-21T11:45:49Z</time>
      </trkpt>
      <trkpt lat="49.11749" lon="-0.39213">
        <ele>10.6</ele>
        <time>2023-04-21T11:45:50Z</time>
      </trkpt>
      <trkpt lat="49.11743" lon="-0.39206">
        <ele>10.2</ele>
        <time>2023-04-21T11:45:51Z</time>
      </trkpt>
      <trkpt lat="49.11737" lon="-0.39199">
        <ele>9.6</ele>
        <time>2023-04-21T11:45:52Z</time>
      </trkpt>
      <trkpt lat="49.11731" lon="-0.39194">
        <ele>9.2</ele>
        <time>2023-04-21T11:45:53Z</time>
      </trkpt>
      <trkpt lat="49.11724" lon="-0.39189">
        <ele>8.8</ele>
        <time>2023-04-21T11:45:54Z</time>
      </trkpt>
      <trkpt lat="49.11717" lon="-0.39184">
        <ele>8.6</ele>
        <time>2023-04-21T11:45:55Z</time>
      </trkpt>
      <trkpt lat="49.1171" lon="-0.3918">
        <ele>8.2</ele>
        <time>2023-04-21T11:45:56Z</time>
      </trkpt>
      <trkpt lat="49.11702" lon="-0.39174">
        <ele>7.8</ele>
        <time>2023-04-21T11:45:57Z</time>
      </trkpt>
      <trkpt lat="49.11695" lon="-0.39168">
        <ele>7.4</ele>
        <time>2023-04-21T11:45:58Z</time>
      </trkpt>
      <trkpt lat="49.11687" lon="-0.3916">
        <ele>7.2</ele>
        <time>2023-04-21T11:45:59Z</time>
      </trkpt>
      <trkpt lat="49.11679" lon="-0.39152">
        <ele>7</ele>
        <time>2023-04-21T11:46:00Z</time>
      </trkpt>
      <trkpt lat="49.11671" lon="-0.39144">
        <ele>7</ele>
        <time>2023-04-21T11:46:01Z</time>
      </trkpt>
      <trkpt lat="49.11663" lon="-0.39136">
        <ele>7</ele>
        <time>2023-04-21T11:46:02Z</time>
      </trkpt>
      <trkpt lat="49.11655" lon="-0.39127">
        <ele>6.8</ele>
        <time>2023-04-21T11:46:03Z</time>
      </trkpt>
      <trkpt lat="49.11648" lon="-0.39119">
        <ele>6.6</ele>
        <time>2023-04-21T11:46:04Z</time>
      </trkpt>
      <trkpt lat="49.1164" lon="-0.39111">
        <ele>6.6</ele>
        <time>2023-04-21T11:46:05Z</time>
      </trkpt>
      <trkpt lat="49.11633" lon="-0.39103">
        <ele>6.4</ele>
        <time>2023-04-21T11:46:06Z</time>
      </trkpt>
      <trkpt lat="49.11625" lon="-0.39095">
        <ele>6</ele>
        <time>2023-04-21T11:46:07Z</time>
      </trkpt>
      <trkpt lat="49.11618" lon="-0.39087">
        <ele>6</ele>
        <time>2023-04-21T11:46:08Z</time>
      </trkpt>
      <trkpt lat="49.11611" lon="-0.39079">
        <ele>5.6</ele>
        <time>2023-04-21T11:46:09Z</time>
      </trkpt>
      <trkpt lat="49.11604" lon="-0.39072">
        <ele>5.4</ele>
        <time>2023-04-21T11:46:10Z</time>
      </trkpt>
      <trkpt lat="49.11597" lon="-0.39064">
        <ele>5</ele>
        <time>2023-04-21T11:46:11Z</time>
      </trkpt>
      <trkpt lat="49.1159" lon="-0.39056">
        <ele>4.8</ele>
        <time>2023-04-21T11:46:12Z</time>
      </trkpt>
      <trkpt lat="49.11583" lon="-0.39049">
        <ele>4.6</ele>
        <time>2023-04-21T11:46:13Z</time>
      </trkpt>
      <trkpt lat="49.11576" lon="-0.39041">
        <ele>4.6</ele>
        <time>2023-04-21T11:46:14Z</time>
      </trkpt>
      <trkpt lat="49.11569" lon="-0.39034">
        <ele>4.8</ele>
        <time>2023-04-21T11:46:15Z</time>
      </trkpt>
      <trkpt lat="49.11562" lon="-0.39027">
        <ele>4.8</ele>
        <time>2023-04-21T11:46:16Z</time>
      </trkpt>
      <trkpt lat="49.11556" lon="-0.3902">
        <ele>5</ele>
        <time>2023-04-21T11:46:17Z</time>
      </trkpt>
      <trkpt lat="49.11549" lon="-0.39013">
        <ele>5</ele>
        <time>2023-04-21T11:46:18Z</time>
      </trkpt>
      <trkpt lat="49.11543" lon="-0.39007">
        <ele>5</ele>
        <time>2023-04-21T11:46:19Z</time>
      </trkpt>
      <trkpt lat="49.11537" lon="-0.39001">
        <ele>5</ele>
        <time>2023-04-21T11:46:20Z</time>
      </trkpt>
      <trkpt lat="49.11532" lon="-0.38995">
        <ele>5.4</ele>
        <time>2023-04-21T11:46:21Z</time>
      </trkpt>
      <trkpt lat="49.11526" lon="-0.3899">
        <ele>5.6</ele>
        <time>2023-04-21T11:46:22Z</time>
      </trkpt>
      <trkpt lat="49.11521" lon="-0.38985">
        <ele>5.8</ele>
        <time>2023-04-21T11:46:23Z</time>
      </trkpt>
      <trkpt lat="49.11517" lon="-0.3898">
        <ele>6</ele>
        <time>2023-04-21T11:46:24Z</time>
      </trkpt>
      <trkpt lat="49.11512" lon="-0.38976">
        <ele>6.2</ele>
        <time>2023-04-21T11:46:25Z</time>
      </trkpt>
      <trkpt lat="49.11508" lon="-0.38972">
        <ele>6.4</ele>
        <time>2023-04-21T11:46:26Z</time>
      </trkpt>
      <trkpt lat="49.11505" lon="-0.38968">
        <ele>6.6</ele>
        <time>2023-04-21T11:46:27Z</time>
      </trkpt>
      <trkpt lat="49.11502" lon="-0.38965">
        <ele>6.8</ele>
        <time>2023-04-21T11:46:28Z</time>
      </trkpt>
      <trkpt lat="49.11498" lon="-0.38963">
        <ele>7</ele>
        <time>2023-04-21T11:46:29Z</time>
      </trkpt>
      <trkpt lat="49.11495" lon="-0.38961">
        <ele>7</ele>
        <time>2023-04-21T11:46:30Z</time>
      </trkpt>
      <trkpt lat="49.11492" lon="-0.38959">
        <ele>7</ele>
        <time>2023-04-21T11:46:31Z</time>
      </trkpt>
      <trkpt lat="49.1149" lon="-0.38957">
        <ele>7</ele>
        <time>2023-04-21T11:46:32Z</time>
      </trkpt>
      <trkpt lat="49.11488" lon="-0.38954">
        <ele>7.2</ele>
        <time>2023-04-21T11:46:33Z</time>
      </trkpt>
      <trkpt lat="49.11485" lon="-0.38952">
        <ele>7.2</ele>
        <time>2023-04-21T11:46:34Z</time>
      </trkpt>
      <trkpt lat="49.11482" lon="-0.3895">
        <ele>7.2</ele>
        <time>2023-04-21T11:46:35Z</time>
      </trkpt>
      <trkpt lat="49.11478" lon="-0.38948">
        <ele>7.4</ele>
        <time>2023-04-21T11:46:36Z</time>
      </trkpt>
      <trkpt lat="49.11474" lon="-0.38946">
        <ele>7.4</ele>
        <time>2023-04-21T11:46:37Z</time>
      </trkpt>
      <trkpt lat="49.11468" lon="-0.38942">
        <ele>7.4</ele>
        <time>2023-04-21T11:46:38Z</time>
      </trkpt>
      <trkpt lat="49.11463" lon="-0.38938">
        <ele>7.4</ele>
        <time>2023-04-21T11:46:39Z</time>
      </trkpt>
      <trkpt lat="49.11458" lon="-0.38934">
        <ele>7.4</ele>
        <time>2023-04-21T11:46:40Z</time>
      </trkpt>
      <trkpt lat="49.11452" lon="-0.3893">
        <ele>7.4</ele>
        <time>2023-04-21T11:46:41Z</time>
      </trkpt>
      <trkpt lat="49.11447" lon="-0.38927">
        <ele>7.4</ele>
        <time>2023-04-21T11:46:42Z</time>
      </trkpt>
      <trkpt lat="49.11441" lon="-0.38925">
        <ele>7.4</ele>
        <time>2023-04-21T11:46:43Z</time>
      </trkpt>
      <trkpt lat="49.11436" lon="-0.38924">
        <ele>7.4</ele>
        <time>2023-04-21T11:46:44Z</time>
      </trkpt>
      <trkpt lat="49.1143" lon="-0.38922">
        <ele>7.2</ele>
        <time>2023-04-21T11:46:45Z</time>
      </trkpt>
      <trkpt lat="49.11425" lon="-0.38919">
        <ele>7</ele>
        <time>2023-04-21T11:46:46Z</time>
      </trkpt>
      <trkpt lat="49.11419" lon="-0.38916">
        <ele>7</ele>
        <time>2023-04-21T11:46:47Z</time>
      </trkpt>
      <trkpt lat="49.11414" lon="-0.38913">
        <ele>7</ele>
        <time>2023-04-21T11:46:48Z</time>
      </trkpt>
      <trkpt lat="49.11409" lon="-0.38909">
        <ele>7.2</ele>
        <time>2023-04-21T11:46:49Z</time>
      </trkpt>
      <trkpt lat="49.11403" lon="-0.38905">
        <ele>7.4</ele>
        <time>2023-04-21T11:46:50Z</time>
      </trkpt>
      <trkpt lat="49.11398" lon="-0.389">
        <ele>7.4</ele>
        <time>2023-04-21T11:46:51Z</time>
      </trkpt>
      <trkpt lat="49.11392" lon="-0.38896">
        <ele>7.6</ele>
        <time>2023-04-21T11:46:52Z</time>
      </trkpt>
      <trkpt lat="49.11386" lon="-0.38892">
        <ele>7.6</ele>
        <time>2023-04-21T11:46:53Z</time>
      </trkpt>
      <trkpt lat="49.1138" lon="-0.38887">
        <ele>7.6</ele>
        <time>2023-04-21T11:46:54Z</time>
      </trkpt>
      <trkpt lat="49.11374" lon="-0.38883">
        <ele>7.8</ele>
        <time>2023-04-21T11:46:55Z</time>
      </trkpt>
      <trkpt lat="49.11368" lon="-0.38878">
        <ele>8</ele>
        <time>2023-04-21T11:46:56Z</time>
      </trkpt>
      <trkpt lat="49.11363" lon="-0.38874">
        <ele>8</ele>
        <time>2023-04-21T11:46:57Z</time>
      </trkpt>
      <trkpt lat="49.11357" lon="-0.38869">
        <ele>8</ele>
        <time>2023-04-21T11:46:58Z</time>
      </trkpt>
      <trkpt lat="49.11351" lon="-0.38864">
        <ele>8.2</ele>
        <time>2023-04-21T11:46:59Z</time>
      </trkpt>
      <trkpt lat="49.11345" lon="-0.38859">
        <ele>8.2</ele>
        <time>2023-04-21T11:47:00Z</time>
      </trkpt>
      <trkpt lat="49.1134" lon="-0.38854">
        <ele>8.2</ele>
        <time>2023-04-21T11:47:01Z</time>
      </trkpt>
      <trkpt lat="49.11334" lon="-0.38848">
        <ele>8.2</ele>
        <time>2023-04-21T11:47:02Z</time>
      </trkpt>
      <trkpt lat="49.11328" lon="-0.38842">
        <ele>8.2</ele>
        <time>2023-04-21T11:47:03Z</time>
      </trkpt>
      <trkpt lat="49.11323" lon="-0.38836">
        <ele>8</ele>
        <time>2023-04-21T11:47:04Z</time>
      </trkpt>
      <trkpt lat="49.11317" lon="-0.3883">
        <ele>8</ele>
        <time>2023-04-21T11:47:05Z</time>
      </trkpt>
      <trkpt lat="49.11312" lon="-0.38824">
        <ele>8</ele>
        <time>2023-04-21T11:47:06Z</time>
      </trkpt>
      <trkpt lat="49.11307" lon="-0.38818">
        <ele>8</ele>
        <time>2023-04-21T11:47:07Z</time>
      </trkpt>
      <trkpt lat="49.11301" lon="-0.38812">
        <ele>8</ele>
        <time>2023-04-21T11:47:08Z</time>
      </trkpt>
      <trkpt lat="49.11295" lon="-0.38807">
        <ele>8</ele>
        <time>2023-04-21T11:47:09Z</time>
      </trkpt>
      <trkpt lat="49.11289" lon="-0.38802">
        <ele>8</ele>
        <time>2023-04-21T11:47:10Z</time>
      </trkpt>
      <trkpt lat="49.11282" lon="-0.38797">
        <ele>8.2</ele>
        <time>2023-04-21T11:47:11Z</time>
      </trkpt>
      <trkpt lat="49.11276" lon="-0.38793">
        <ele>8.2</ele>
        <time>2023-04-21T11:47:12Z</time>
      </trkpt>
      <trkpt lat="49.1127" lon="-0.38788">
        <ele>8.4</ele>
        <time>2023-04-21T11:47:13Z</time>
      </trkpt>
      <trkpt lat="49.11264" lon="-0.38783">
        <ele>8.4</ele>
        <time>2023-04-21T11:47:14Z</time>
      </trkpt>
      <trkpt lat="49.11258" lon="-0.38779">
        <ele>8.6</ele>
        <time>2023-04-21T11:47:15Z</time>
      </trkpt>
      <trkpt lat="49.11252" lon="-0.38774">
        <ele>8.6</ele>
        <time>2023-04-21T11:47:16Z</time>
      </trkpt>
      <trkpt lat="49.11247" lon="-0.3877">
        <ele>8.8</ele>
        <time>2023-04-21T11:47:17Z</time>
      </trkpt>
      <trkpt lat="49.11241" lon="-0.38765">
        <ele>8.8</ele>
        <time>2023-04-21T11:47:18Z</time>
      </trkpt>
      <trkpt lat="49.11235" lon="-0.38761">
        <ele>8.8</ele>
        <time>2023-04-21T11:47:19Z</time>
      </trkpt>
      <trkpt lat="49.11229" lon="-0.38757">
        <ele>8.8</ele>
        <time>2023-04-21T11:47:20Z</time>
      </trkpt>
      <trkpt lat="49.11223" lon="-0.38752">
        <ele>9</ele>
        <time>2023-04-21T11:47:21Z</time>
      </trkpt>
      <trkpt lat="49.11217" lon="-0.38748">
        <ele>9</ele>
        <time>2023-04-21T11:47:22Z</time>
      </trkpt>
      <trkpt lat="49.11211" lon="-0.38744">
        <ele>9</ele>
        <time>2023-04-21T11:47:23Z</time>
      </trkpt>
      <trkpt lat="49.11205" lon="-0.38739">
        <ele>9</ele>
        <time>2023-04-21T11:47:24Z</time>
      </trkpt>
      <trkpt lat="49.11199" lon="-0.38735">
        <ele>9</ele>
        <time>2023-04-21T11:47:25Z</time>
      </trkpt>
      <trkpt lat="49.11192" lon="-0.38731">
        <ele>9</ele>
        <time>2023-04-21T11:47:26Z</time>
      </trkpt>
      <trkpt lat="49.11187" lon="-0.38726">
        <ele>9</ele>
        <time>2023-04-21T11:47:27Z</time>
      </trkpt>
      <trkpt lat="49.11181" lon="-0.38722">
        <ele>9</ele>
        <time>2023-04-21T11:47:28Z</time>
      </trkpt>
      <trkpt lat="49.11175" lon="-0.38718">
        <ele>9</ele>
        <time>2023-04-21T11:47:29Z</time>
      </trkpt>
      <trkpt lat="49.11169" lon="-0.38714">
        <ele>9</ele>
        <time>2023-04-21T11:47:30Z</time>
      </trkpt>
      <trkpt lat="49.11163" lon="-0.38711">
        <ele>9</ele>
        <time>2023-04-21T11:47:31Z</time>
      </trkpt>
      <trkpt lat="49.11157" lon="-0.38707">
        <ele>8.8</ele>
        <time>2023-04-21T11:47:32Z</time>
      </trkpt>
      <trkpt lat="49.1115" lon="-0.38704">
        <ele>8.8</ele>
        <time>2023-04-21T11:47:33Z</time>
      </trkpt>
      <trkpt lat="49.11144" lon="-0.38701">
        <ele>8.8</ele>
        <time>2023-04-21T11:47:34Z</time>
      </trkpt>
      <trkpt lat="49.11137" lon="-0.38698">
        <ele>8.6</ele>
        <time>2023-04-21T11:47:35Z</time>
      </trkpt>
      <trkpt lat="49.11129" lon="-0.38695">
        <ele>8.6</ele>
        <time>2023-04-21T11:47:36Z</time>
      </trkpt>
      <trkpt lat="49.11122" lon="-0.38692">
        <ele>8.4</ele>
        <time>2023-04-21T11:47:37Z</time>
      </trkpt>
      <trkpt lat="49.11115" lon="-0.38689">
        <ele>8.4</ele>
        <time>2023-04-21T11:47:38Z</time>
      </trkpt>
      <trkpt lat="49.11109" lon="-0.38685">
        <ele>8.2</ele>
        <time>2023-04-21T11:47:39Z</time>
      </trkpt>
      <trkpt lat="49.11102" lon="-0.38682">
        <ele>8</ele>
        <time>2023-04-21T11:47:40Z</time>
      </trkpt>
      <trkpt lat="49.11095" lon="-0.38679">
        <ele>7.6</ele>
        <time>2023-04-21T11:47:41Z</time>
      </trkpt>
      <trkpt lat="49.11088" lon="-0.38676">
        <ele>7.4</ele>
        <time>2023-04-21T11:47:42Z</time>
      </trkpt>
      <trkpt lat="49.11081" lon="-0.38673">
        <ele>7.4</ele>
        <time>2023-04-21T11:47:43Z</time>
      </trkpt>
      <trkpt lat="49.11074" lon="-0.3867">
        <ele>7.6</ele>
        <time>2023-04-21T11:47:44Z</time>
      </trkpt>
      <trkpt lat="49.11067" lon="-0.38667">
        <ele>7.8</ele>
        <time>2023-04-21T11:47:45Z</time>
      </trkpt>
      <trkpt lat="49.1106" lon="-0.38664">
        <ele>8.2</ele>
        <time>2023-04-21T11:47:46Z</time>
      </trkpt>
      <trkpt lat="49.11053" lon="-0.38661">
        <ele>8.4</ele>
        <time>2023-04-21T11:47:47Z</time>
      </trkpt>
      <trkpt lat="49.11047" lon="-0.38657">
        <ele>8.6</ele>
        <time>2023-04-21T11:47:48Z</time>
      </trkpt>
      <trkpt lat="49.11041" lon="-0.38651">
        <ele>8.6</ele>
        <time>2023-04-21T11:47:49Z</time>
      </trkpt>
      <trkpt lat="49.11035" lon="-0.38644">
        <ele>8.6</ele>
        <time>2023-04-21T11:47:50Z</time>
      </trkpt>
      <trkpt lat="49.11029" lon="-0.38637">
        <ele>8.6</ele>
        <time>2023-04-21T11:47:51Z</time>
      </trkpt>
      <trkpt lat="49.11023" lon="-0.38632">
        <ele>8.6</ele>
        <time>2023-04-21T11:47:52Z</time>
      </trkpt>
      <trkpt lat="49.11017" lon="-0.38627">
        <ele>8.6</ele>
        <time>2023-04-21T11:47:53Z</time>
      </trkpt>
      <trkpt lat="49.1101" lon="-0.38624">
        <ele>8.6</ele>
        <time>2023-04-21T11:47:54Z</time>
      </trkpt>
      <trkpt lat="49.11004" lon="-0.3862">
        <ele>8.6</ele>
        <time>2023-04-21T11:47:55Z</time>
      </trkpt>
      <trkpt lat="49.10996" lon="-0.38618">
        <ele>8.8</ele>
        <time>2023-04-21T11:47:56Z</time>
      </trkpt>
      <trkpt lat="49.10989" lon="-0.38616">
        <ele>9</ele>
        <time>2023-04-21T11:47:57Z</time>
      </trkpt>
      <trkpt lat="49.10982" lon="-0.38614">
        <ele>9.4</ele>
        <time>2023-04-21T11:47:58Z</time>
      </trkpt>
      <trkpt lat="49.10975" lon="-0.38613">
        <ele>9.6</ele>
        <time>2023-04-21T11:47:59Z</time>
      </trkpt>
      <trkpt lat="49.10968" lon="-0.38612">
        <ele>9.8</ele>
        <time>2023-04-21T11:48:00Z</time>
      </trkpt>
      <trkpt lat="49.10961" lon="-0.3861">
        <ele>10</ele>
        <time>2023-04-21T11:48:01Z</time>
      </trkpt>
      <trkpt lat="49.10954" lon="-0.38609">
        <ele>10.2</ele>
        <time>2023-04-21T11:48:02Z</time>
      </trkpt>
      <trkpt lat="49.10947" lon="-0.38607">
        <ele>10.4</ele>
        <time>2023-04-21T11:48:03Z</time>
      </trkpt>
      <trkpt lat="49.1094" lon="-0.38605">
        <ele>10.6</ele>
        <time>2023-04-21T11:48:04Z</time>
      </trkpt>
      <trkpt lat="49.10932" lon="-0.38602">
        <ele>10.6</ele>
        <time>2023-04-21T11:48:05Z</time>
      </trkpt>
      <trkpt lat="49.10926" lon="-0.38598">
        <ele>10.6</ele>
        <time>2023-04-21T11:48:06Z</time>
      </trkpt>
      <trkpt lat="49.10919" lon="-0.38594">
        <ele>10.6</ele>
        <time>2023-04-21T11:48:07Z</time>
      </trkpt>
      <trkpt lat="49.10913" lon="-0.38589">
        <ele>10.6</ele>
        <time>2023-04-21T11:48:08Z</time>
      </trkpt>
      <trkpt lat="49.10907" lon="-0.38584">
        <ele>10.6</ele>
        <time>2023-04-21T11:48:09Z</time>
      </trkpt>
      <trkpt lat="49.109" lon="-0.38581">
        <ele>10.6</ele>
        <time>2023-04-21T11:48:10Z</time>
      </trkpt>
      <trkpt lat="49.10892" lon="-0.38577">
        <ele>10.6</ele>
        <time>2023-04-21T11:48:11Z</time>
      </trkpt>
      <trkpt lat="49.10884" lon="-0.38574">
        <ele>10.8</ele>
        <time>2023-04-21T11:48:12Z</time>
      </trkpt>
      <trkpt lat="49.10877" lon="-0.38572">
        <ele>11</ele>
        <time>2023-04-21T11:48:13Z</time>
      </trkpt>
      <trkpt lat="49.10869" lon="-0.3857">
        <ele>11.2</ele>
        <time>2023-04-21T11:48:14Z</time>
      </trkpt>
      <trkpt lat="49.10861" lon="-0.38568">
        <ele>11.2</ele>
        <time>2023-04-21T11:48:15Z</time>
      </trkpt>
      <trkpt lat="49.10854" lon="-0.38566">
        <ele>11.4</ele>
        <time>2023-04-21T11:48:16Z</time>
      </trkpt>
      <trkpt lat="49.10847" lon="-0.38564">
        <ele>11.6</ele>
        <time>2023-04-21T11:48:17Z</time>
      </trkpt>
      <trkpt lat="49.1084" lon="-0.38563">
        <ele>11.6</ele>
        <time>2023-04-21T11:48:18Z</time>
      </trkpt>
      <trkpt lat="49.10833" lon="-0.38561">
        <ele>11.6</ele>
        <time>2023-04-21T11:48:19Z</time>
      </trkpt>
      <trkpt lat="49.10826" lon="-0.3856">
        <ele>11.8</ele>
        <time>2023-04-21T11:48:20Z</time>
      </trkpt>
      <trkpt lat="49.1082" lon="-0.38559">
        <ele>11.8</ele>
        <time>2023-04-21T11:48:21Z</time>
      </trkpt>
      <trkpt lat="49.10813" lon="-0.38558">
        <ele>12.2</ele>
        <time>2023-04-21T11:48:22Z</time>
      </trkpt>
      <trkpt lat="49.10806" lon="-0.38557">
        <ele>12.2</ele>
        <time>2023-04-21T11:48:23Z</time>
      </trkpt>
      <trkpt lat="49.108" lon="-0.38556">
        <ele>12.4</ele>
        <time>2023-04-21T11:48:24Z</time>
      </trkpt>
      <trkpt lat="49.10794" lon="-0.38554">
        <ele>12.4</ele>
        <time>2023-04-21T11:48:25Z</time>
      </trkpt>
      <trkpt lat="49.10788" lon="-0.38552">
        <ele>12.4</ele>
        <time>2023-04-21T11:48:26Z</time>
      </trkpt>
      <trkpt lat="49.10782" lon="-0.3855">
        <ele>12.4</ele>
        <time>2023-04-21T11:48:27Z</time>
      </trkpt>
      <trkpt lat="49.10775" lon="-0.38549">
        <ele>12.6</ele>
        <time>2023-04-21T11:48:28Z</time>
      </trkpt>
      <trkpt lat="49.10768" lon="-0.38549">
        <ele>12.6</ele>
        <time>2023-04-21T11:48:29Z</time>
      </trkpt>
      <trkpt lat="49.10761" lon="-0.38548">
        <ele>12.8</ele>
        <time>2023-04-21T11:48:30Z</time>
      </trkpt>
      <trkpt lat="49.10755" lon="-0.38547">
        <ele>12.8</ele>
        <time>2023-04-21T11:48:31Z</time>
      </trkpt>
      <trkpt lat="49.10748" lon="-0.38545">
        <ele>12.8</ele>
        <time>2023-04-21T11:48:32Z</time>
      </trkpt>
      <trkpt lat="49.10741" lon="-0.38543">
        <ele>12.6</ele>
        <time>2023-04-21T11:48:33Z</time>
      </trkpt>
      <trkpt lat="49.10734" lon="-0.38541">
        <ele>12.6</ele>
        <time>2023-04-21T11:48:34Z</time>
      </trkpt>
      <trkpt lat="49.10726" lon="-0.38538">
        <ele>12.6</ele>
        <time>2023-04-21T11:48:35Z</time>
      </trkpt>
      <trkpt lat="49.10719" lon="-0.38536">
        <ele>12.4</ele>
        <time>2023-04-21T11:48:36Z</time>
      </trkpt>
      <trkpt lat="49.10712" lon="-0.38533">
        <ele>12.2</ele>
        <time>2023-04-21T11:48:37Z</time>
      </trkpt>
      <trkpt lat="49.10706" lon="-0.38529">
        <ele>11.8</ele>
        <time>2023-04-21T11:48:38Z</time>
      </trkpt>
      <trkpt lat="49.107" lon="-0.38524">
        <ele>11.4</ele>
        <time>2023-04-21T11:48:39Z</time>
      </trkpt>
      <trkpt lat="49.10694" lon="-0.3852">
        <ele>11</ele>
        <time>2023-04-21T11:48:40Z</time>
      </trkpt>
      <trkpt lat="49.10688" lon="-0.38516">
        <ele>10.6</ele>
        <time>2023-04-21T11:48:41Z</time>
      </trkpt>
      <trkpt lat="49.10682" lon="-0.38513">
        <ele>10.4</ele>
        <time>2023-04-21T11:48:42Z</time>
      </trkpt>
      <trkpt lat="49.10676" lon="-0.3851">
        <ele>10.2</ele>
        <time>2023-04-21T11:48:43Z</time>
      </trkpt>
      <trkpt lat="49.1067" lon="-0.38508">
        <ele>9.8</ele>
        <time>2023-04-21T11:48:44Z</time>
      </trkpt>
      <trkpt lat="49.10665" lon="-0.38506">
        <ele>9.6</ele>
        <time>2023-04-21T11:48:45Z</time>
      </trkpt>
      <trkpt lat="49.10659" lon="-0.38505">
        <ele>9.6</ele>
        <time>2023-04-21T11:48:46Z</time>
      </trkpt>
      <trkpt lat="49.10654" lon="-0.38503">
        <ele>9.6</ele>
        <time>2023-04-21T11:48:47Z</time>
      </trkpt>
      <trkpt lat="49.10648" lon="-0.38502">
        <ele>9.4</ele>
        <time>2023-04-21T11:48:48Z</time>
      </trkpt>
      <trkpt lat="49.10643" lon="-0.38501">
        <ele>9.4</ele>
        <time>2023-04-21T11:48:49Z</time>
      </trkpt>
      <trkpt lat="49.10637" lon="-0.38499">
        <ele>9.4</ele>
        <time>2023-04-21T11:48:50Z</time>
      </trkpt>
      <trkpt lat="49.10631" lon="-0.38497">
        <ele>9.4</ele>
        <time>2023-04-21T11:48:51Z</time>
      </trkpt>
      <trkpt lat="49.10626" lon="-0.38494">
        <ele>9.4</ele>
        <time>2023-04-21T11:48:52Z</time>
      </trkpt>
      <trkpt lat="49.1062" lon="-0.38492">
        <ele>9.6</ele>
        <time>2023-04-21T11:48:53Z</time>
      </trkpt>
      <trkpt lat="49.10614" lon="-0.38489">
        <ele>9.6</ele>
        <time>2023-04-21T11:48:54Z</time>
      </trkpt>
      <trkpt lat="49.10608" lon="-0.38487">
        <ele>9.6</ele>
        <time>2023-04-21T11:48:55Z</time>
      </trkpt>
      <trkpt lat="49.10602" lon="-0.38485">
        <ele>9.6</ele>
        <time>2023-04-21T11:48:56Z</time>
      </trkpt>
      <trkpt lat="49.10596" lon="-0.38484">
        <ele>9.6</ele>
        <time>2023-04-21T11:48:57Z</time>
      </trkpt>
      <trkpt lat="49.1059" lon="-0.38484">
        <ele>9.6</ele>
        <time>2023-04-21T11:48:58Z</time>
      </trkpt>
      <trkpt lat="49.10584" lon="-0.38485">
        <ele>9.8</ele>
        <time>2023-04-21T11:48:59Z</time>
      </trkpt>
      <trkpt lat="49.10578" lon="-0.38486">
        <ele>9.8</ele>
        <time>2023-04-21T11:49:00Z</time>
      </trkpt>
      <trkpt lat="49.10572" lon="-0.38487">
        <ele>10</ele>
        <time>2023-04-21T11:49:01Z</time>
      </trkpt>
      <trkpt lat="49.10566" lon="-0.38487">
        <ele>10.2</ele>
        <time>2023-04-21T11:49:02Z</time>
      </trkpt>
      <trkpt lat="49.1056" lon="-0.38487">
        <ele>10.2</ele>
        <time>2023-04-21T11:49:03Z</time>
      </trkpt>
      <trkpt lat="49.10553" lon="-0.38486">
        <ele>10.4</ele>
        <time>2023-04-21T11:49:04Z</time>
      </trkpt>
      <trkpt lat="49.10547" lon="-0.38484">
        <ele>10.4</ele>
        <time>2023-04-21T11:49:05Z</time>
      </trkpt>
      <trkpt lat="49.10541" lon="-0.38481">
        <ele>10.6</ele>
        <time>2023-04-21T11:49:06Z</time>
      </trkpt>
      <trkpt lat="49.10535" lon="-0.38478">
        <ele>10.6</ele>
        <time>2023-04-21T11:49:07Z</time>
      </trkpt>
      <trkpt lat="49.10529" lon="-0.38475">
        <ele>10.6</ele>
        <time>2023-04-21T11:49:08Z</time>
      </trkpt>
      <trkpt lat="49.10523" lon="-0.38472">
        <ele>10.8</ele>
        <time>2023-04-21T11:49:09Z</time>
      </trkpt>
      <trkpt lat="49.10516" lon="-0.38471">
        <ele>11</ele>
        <time>2023-04-21T11:49:10Z</time>
      </trkpt>
      <trkpt lat="49.1051" lon="-0.3847">
        <ele>11.2</ele>
        <time>2023-04-21T11:49:11Z</time>
      </trkpt>
      <trkpt lat="49.10503" lon="-0.3847">
        <ele>11.4</ele>
        <time>2023-04-21T11:49:12Z</time>
      </trkpt>
      <trkpt lat="49.10497" lon="-0.38471">
        <ele>11.4</ele>
        <time>2023-04-21T11:49:13Z</time>
      </trkpt>
      <trkpt lat="49.1049" lon="-0.38472">
        <ele>11.4</ele>
        <time>2023-04-21T11:49:14Z</time>
      </trkpt>
      <trkpt lat="49.10483" lon="-0.38474">
        <ele>11.2</ele>
        <time>2023-04-21T11:49:15Z</time>
      </trkpt>
      <trkpt lat="49.10477" lon="-0.38475">
        <ele>11.2</ele>
        <time>2023-04-21T11:49:16Z</time>
      </trkpt>
      <trkpt lat="49.1047" lon="-0.38476">
        <ele>11.2</ele>
        <time>2023-04-21T11:49:17Z</time>
      </trkpt>
      <trkpt lat="49.10463" lon="-0.38475">
        <ele>11.2</ele>
        <time>2023-04-21T11:49:18Z</time>
      </trkpt>
      <trkpt lat="49.10457" lon="-0.38474">
        <ele>11.2</ele>
        <time>2023-04-21T11:49:19Z</time>
      </trkpt>
      <trkpt lat="49.1045" lon="-0.38472">
        <ele>11.2</ele>
        <time>2023-04-21T11:49:20Z</time>
      </trkpt>
      <trkpt lat="49.10443" lon="-0.38472">
        <ele>11.2</ele>
        <time>2023-04-21T11:49:21Z</time>
      </trkpt>
      <trkpt lat="49.10437" lon="-0.38475">
        <ele>11</ele>
        <time>2023-04-21T11:49:22Z</time>
      </trkpt>
      <trkpt lat="49.10431" lon="-0.38479">
        <ele>10.8</ele>
        <time>2023-04-21T11:49:23Z</time>
      </trkpt>
      <trkpt lat="49.10424" lon="-0.38486">
        <ele>10.6</ele>
        <time>2023-04-21T11:49:24Z</time>
      </trkpt>
      <trkpt lat="49.10418" lon="-0.38493">
        <ele>10.4</ele>
        <time>2023-04-21T11:49:25Z</time>
      </trkpt>
      <trkpt lat="49.10413" lon="-0.385">
        <ele>10.2</ele>
        <time>2023-04-21T11:49:26Z</time>
      </trkpt>
      <trkpt lat="49.10407" lon="-0.38507">
        <ele>10.6</ele>
        <time>2023-04-21T11:49:27Z</time>
      </trkpt>
      <trkpt lat="49.10401" lon="-0.38513">
        <ele>10.8</ele>
        <time>2023-04-21T11:49:28Z</time>
      </trkpt>
      <trkpt lat="49.10395" lon="-0.38519">
        <ele>11</ele>
        <time>2023-04-21T11:49:29Z</time>
      </trkpt>
      <trkpt lat="49.10388" lon="-0.38524">
        <ele>11.4</ele>
        <time>2023-04-21T11:49:30Z</time>
      </trkpt>
      <trkpt lat="49.10381" lon="-0.38529">
        <ele>11.4</ele>
        <time>2023-04-21T11:49:31Z</time>
      </trkpt>
      <trkpt lat="49.10374" lon="-0.38533">
        <ele>11.6</ele>
        <time>2023-04-21T11:49:32Z</time>
      </trkpt>
      <trkpt lat="49.10367" lon="-0.38537">
        <ele>11.6</ele>
        <time>2023-04-21T11:49:33Z</time>
      </trkpt>
      <trkpt lat="49.1036" lon="-0.38541">
        <ele>11.8</ele>
        <time>2023-04-21T11:49:34Z</time>
      </trkpt>
      <trkpt lat="49.10353" lon="-0.38545">
        <ele>11.8</ele>
        <time>2023-04-21T11:49:35Z</time>
      </trkpt>
      <trkpt lat="49.10346" lon="-0.38548">
        <ele>12</ele>
        <time>2023-04-21T11:49:36Z</time>
      </trkpt>
      <trkpt lat="49.10339" lon="-0.38552">
        <ele>12</ele>
        <time>2023-04-21T11:49:37Z</time>
      </trkpt>
      <trkpt lat="49.10332" lon="-0.38556">
        <ele>12</ele>
        <time>2023-04-21T11:49:38Z</time>
      </trkpt>
      <trkpt lat="49.10326" lon="-0.38559">
        <ele>11.8</ele>
        <time>2023-04-21T11:49:39Z</time>
      </trkpt>
      <trkpt lat="49.10319" lon="-0.38562">
        <ele>11.8</ele>
        <time>2023-04-21T11:49:40Z</time>
      </trkpt>
      <trkpt lat="49.10312" lon="-0.38566">
        <ele>11.6</ele>
        <time>2023-04-21T11:49:41Z</time>
      </trkpt>
      <trkpt lat="49.10306" lon="-0.38569">
        <ele>11.6</ele>
        <time>2023-04-21T11:49:42Z</time>
      </trkpt>
      <trkpt lat="49.10299" lon="-0.38573">
        <ele>11.4</ele>
        <time>2023-04-21T11:49:43Z</time>
      </trkpt>
      <trkpt lat="49.10293" lon="-0.38576">
        <ele>11.2</ele>
        <time>2023-04-21T11:49:44Z</time>
      </trkpt>
      <trkpt lat="49.10287" lon="-0.3858">
        <ele>10.8</ele>
        <time>2023-04-21T11:49:45Z</time>
      </trkpt>
      <trkpt lat="49.1028" lon="-0.38585">
        <ele>10.8</ele>
        <time>2023-04-21T11:49:46Z</time>
      </trkpt>
      <trkpt lat="49.10274" lon="-0.38589">
        <ele>10.8</ele>
        <time>2023-04-21T11:49:47Z</time>
      </trkpt>
      <trkpt lat="49.10268" lon="-0.38594">
        <ele>10.8</ele>
        <time>2023-04-21T11:49:48Z</time>
      </trkpt>
      <trkpt lat="49.10262" lon="-0.386">
        <ele>10.8</ele>
        <time>2023-04-21T11:49:49Z</time>
      </trkpt>
      <trkpt lat="49.10256" lon="-0.38605">
        <ele>10.6</ele>
        <time>2023-04-21T11:49:50Z</time>
      </trkpt>
      <trkpt lat="49.1025" lon="-0.38611">
        <ele>10.6</ele>
        <time>2023-04-21T11:49:51Z</time>
      </trkpt>
      <trkpt lat="49.10244" lon="-0.38616">
        <ele>10.8</ele>
        <time>2023-04-21T11:49:52Z</time>
      </trkpt>
      <trkpt lat="49.10238" lon="-0.38622">
        <ele>11</ele>
        <time>2023-04-21T11:49:53Z</time>
      </trkpt>
      <trkpt lat="49.10231" lon="-0.38627">
        <ele>11.2</ele>
        <time>2023-04-21T11:49:54Z</time>
      </trkpt>
      <trkpt lat="49.10225" lon="-0.38632">
        <ele>11.2</ele>
        <time>2023-04-21T11:49:55Z</time>
      </trkpt>
      <trkpt lat="49.10219" lon="-0.38637">
        <ele>11.2</ele>
        <time>2023-04-21T11:49:56Z</time>
      </trkpt>
      <trkpt lat="49.10213" lon="-0.38643">
        <ele>11</ele>
        <time>2023-04-21T11:49:57Z</time>
      </trkpt>
      <trkpt lat="49.10207" lon="-0.38648">
        <ele>10.8</ele>
        <time>2023-04-21T11:49:58Z</time>
      </trkpt>
      <trkpt lat="49.10201" lon="-0.38653">
        <ele>10.6</ele>
        <time>2023-04-21T11:49:59Z</time>
      </trkpt>
      <trkpt lat="49.10195" lon="-0.38658">
        <ele>10.4</ele>
        <time>2023-04-21T11:50:00Z</time>
      </trkpt>
      <trkpt lat="49.10189" lon="-0.38663">
        <ele>9.8</ele>
        <time>2023-04-21T11:50:01Z</time>
      </trkpt>
      <trkpt lat="49.10183" lon="-0.38669">
        <ele>9.6</ele>
        <time>2023-04-21T11:50:02Z</time>
      </trkpt>
      <trkpt lat="49.10177" lon="-0.38674">
        <ele>9.6</ele>
        <time>2023-04-21T11:50:03Z</time>
      </trkpt>
      <trkpt lat="49.10171" lon="-0.38679">
        <ele>9.6</ele>
        <time>2023-04-21T11:50:04Z</time>
      </trkpt>
      <trkpt lat="49.10166" lon="-0.38685">
        <ele>9.6</ele>
        <time>2023-04-21T11:50:05Z</time>
      </trkpt>
      <trkpt lat="49.10163" lon="-0.38692">
        <ele>10</ele>
        <time>2023-04-21T11:50:06Z</time>
      </trkpt>
      <trkpt lat="49.10161" lon="-0.38701">
        <ele>10.2</ele>
        <time>2023-04-21T11:50:07Z</time>
      </trkpt>
      <trkpt lat="49.10162" lon="-0.38708">
        <ele>10.6</ele>
        <time>2023-04-21T11:50:08Z</time>
      </trkpt>
      <trkpt lat="49.10162" lon="-0.38715">
        <ele>10.6</ele>
        <time>2023-04-21T11:50:09Z</time>
      </trkpt>
      <trkpt lat="49.10161" lon="-0.38722">
        <ele>10.8</ele>
        <time>2023-04-21T11:50:10Z</time>
      </trkpt>
      <trkpt lat="49.10159" lon="-0.38727">
        <ele>11</ele>
        <time>2023-04-21T11:50:11Z</time>
      </trkpt>
      <trkpt lat="49.10155" lon="-0.38732">
        <ele>11</ele>
        <time>2023-04-21T11:50:12Z</time>
      </trkpt>
      <trkpt lat="49.10151" lon="-0.38736">
        <ele>11</ele>
        <time>2023-04-21T11:50:13Z</time>
      </trkpt>
      <trkpt lat="49.10146" lon="-0.38741">
        <ele>10.8</ele>
        <time>2023-04-21T11:50:14Z</time>
      </trkpt>
      <trkpt lat="49.10141" lon="-0.38745">
        <ele>10.6</ele>
        <time>2023-04-21T11:50:15Z</time>
      </trkpt>
      <trkpt lat="49.10137" lon="-0.3875">
        <ele>10.6</ele>
        <time>2023-04-21T11:50:16Z</time>
      </trkpt>
      <trkpt lat="49.10132" lon="-0.38755">
        <ele>10.6</ele>
        <time>2023-04-21T11:50:17Z</time>
      </trkpt>
      <trkpt lat="49.10128" lon="-0.3876">
        <ele>10.6</ele>
        <time>2023-04-21T11:50:18Z</time>
      </trkpt>
      <trkpt lat="49.10123" lon="-0.38765">
        <ele>10.4</ele>
        <time>2023-04-21T11:50:19Z</time>
      </trkpt>
      <trkpt lat="49.10118" lon="-0.38771">
        <ele>10.4</ele>
        <time>2023-04-21T11:50:20Z</time>
      </trkpt>
      <trkpt lat="49.10113" lon="-0.38777">
        <ele>10.4</ele>
        <time>2023-04-21T11:50:21Z</time>
      </trkpt>
      <trkpt lat="49.10108" lon="-0.38782">
        <ele>10.2</ele>
        <time>2023-04-21T11:50:22Z</time>
      </trkpt>
      <trkpt lat="49.10103" lon="-0.38788">
        <ele>10.2</ele>
        <time>2023-04-21T11:50:23Z</time>
      </trkpt>
      <trkpt lat="49.10099" lon="-0.38794">
        <ele>10</ele>
        <time>2023-04-21T11:50:24Z</time>
      </trkpt>
      <trkpt lat="49.10094" lon="-0.38801">
        <ele>9.8</ele>
        <time>2023-04-21T11:50:25Z</time>
      </trkpt>
      <trkpt lat="49.10089" lon="-0.38807">
        <ele>9.6</ele>
        <time>2023-04-21T11:50:26Z</time>
      </trkpt>
      <trkpt lat="49.10084" lon="-0.38814">
        <ele>9.6</ele>
        <time>2023-04-21T11:50:27Z</time>
      </trkpt>
      <trkpt lat="49.10079" lon="-0.38821">
        <ele>9.6</ele>
        <time>2023-04-21T11:50:28Z</time>
      </trkpt>
      <trkpt lat="49.10074" lon="-0.38828">
        <ele>9.6</ele>
        <time>2023-04-21T11:50:29Z</time>
      </trkpt>
      <trkpt lat="49.10069" lon="-0.38835">
        <ele>9.6</ele>
        <time>2023-04-21T11:50:30Z</time>
      </trkpt>
      <trkpt lat="49.10064" lon="-0.38842">
        <ele>9.8</ele>
        <time>2023-04-21T11:50:31Z</time>
      </trkpt>
      <trkpt lat="49.10059" lon="-0.38849">
        <ele>10.2</ele>
        <time>2023-04-21T11:50:32Z</time>
      </trkpt>
      <trkpt lat="49.10054" lon="-0.38856">
        <ele>10.2</ele>
        <time>2023-04-21T11:50:33Z</time>
      </trkpt>
      <trkpt lat="49.10049" lon="-0.38863">
        <ele>10.4</ele>
        <time>2023-04-21T11:50:34Z</time>
      </trkpt>
      <trkpt lat="49.10045" lon="-0.3887">
        <ele>10.4</ele>
        <time>2023-04-21T11:50:35Z</time>
      </trkpt>
      <trkpt lat="49.1004" lon="-0.38877">
        <ele>10.6</ele>
        <time>2023-04-21T11:50:36Z</time>
      </trkpt>
      <trkpt lat="49.10036" lon="-0.38884">
        <ele>10.6</ele>
        <time>2023-04-21T11:50:37Z</time>
      </trkpt>
      <trkpt lat="49.10031" lon="-0.38891">
        <ele>10.6</ele>
        <time>2023-04-21T11:50:38Z</time>
      </trkpt>
      <trkpt lat="49.10027" lon="-0.38898">
        <ele>10.6</ele>
        <time>2023-04-21T11:50:39Z</time>
      </trkpt>
      <trkpt lat="49.10023" lon="-0.38905">
        <ele>10.6</ele>
        <time>2023-04-21T11:50:40Z</time>
      </trkpt>
      <trkpt lat="49.10018" lon="-0.38912">
        <ele>10.6</ele>
        <time>2023-04-21T11:50:41Z</time>
      </trkpt>
      <trkpt lat="49.10014" lon="-0.38919">
        <ele>10.8</ele>
        <time>2023-04-21T11:50:42Z</time>
      </trkpt>
      <trkpt lat="49.1001" lon="-0.38926">
        <ele>11.2</ele>
        <time>2023-04-21T11:50:43Z</time>
      </trkpt>
      <trkpt lat="49.10006" lon="-0.38933">
        <ele>11.6</ele>
        <time>2023-04-21T11:50:44Z</time>
      </trkpt>
      <trkpt lat="49.10002" lon="-0.3894">
        <ele>11.8</ele>
        <time>2023-04-21T11:50:45Z</time>
      </trkpt>
      <trkpt lat="49.09998" lon="-0.38947">
        <ele>12.2</ele>
        <time>2023-04-21T11:50:46Z</time>
      </trkpt>
      <trkpt lat="49.09994" lon="-0.38954">
        <ele>12.6</ele>
        <time>2023-04-21T11:50:47Z</time>
      </trkpt>
      <trkpt lat="49.09991" lon="-0.38962">
        <ele>12.8</ele>
        <time>2023-04-21T11:50:48Z</time>
      </trkpt>
      <trkpt lat="49.09987" lon="-0.38969">
        <ele>13.2</ele>
        <time>2023-04-21T11:50:49Z</time>
      </trkpt>
      <trkpt lat="49.09983" lon="-0.38977">
        <ele>13.4</ele>
        <time>2023-04-21T11:50:50Z</time>
      </trkpt>
      <trkpt lat="49.09979" lon="-0.38984">
        <ele>13.6</ele>
        <time>2023-04-21T11:50:51Z</time>
      </trkpt>
      <trkpt lat="49.09976" lon="-0.38992">
        <ele>13.6</ele>
        <time>2023-04-21T11:50:52Z</time>
      </trkpt>
      <trkpt lat="49.09972" lon="-0.39">
        <ele>13.6</ele>
        <time>2023-04-21T11:50:53Z</time>
      </trkpt>
      <trkpt lat="49.09969" lon="-0.39007">
        <ele>13.8</ele>
        <time>2023-04-21T11:50:54Z</time>
      </trkpt>
      <trkpt lat="49.09965" lon="-0.39015">
        <ele>14.2</ele>
        <time>2023-04-21T11:50:55Z</time>
      </trkpt>
      <trkpt lat="49.09962" lon="-0.39023">
        <ele>14.4</ele>
        <time>2023-04-21T11:50:56Z</time>
      </trkpt>
      <trkpt lat="49.09958" lon="-0.3903">
        <ele>14.6</ele>
        <time>2023-04-21T11:50:57Z</time>
      </trkpt>
      <trkpt lat="49.09955" lon="-0.39038">
        <ele>14.6</ele>
        <time>2023-04-21T11:50:58Z</time>
      </trkpt>
      <trkpt lat="49.09952" lon="-0.39046">
        <ele>14.8</ele>
        <time>2023-04-21T11:50:59Z</time>
      </trkpt>
      <trkpt lat="49.09948" lon="-0.39054">
        <ele>14.8</ele>
        <time>2023-04-21T11:51:00Z</time>
      </trkpt>
      <trkpt lat="49.09945" lon="-0.39062">
        <ele>14.8</ele>
        <time>2023-04-21T11:51:01Z</time>
      </trkpt>
      <trkpt lat="49.09942" lon="-0.39071">
        <ele>15</ele>
        <time>2023-04-21T11:51:02Z</time>
      </trkpt>
      <trkpt lat="49.09939" lon="-0.39079">
        <ele>15</ele>
        <time>2023-04-21T11:51:03Z</time>
      </trkpt>
      <trkpt lat="49.09936" lon="-0.39087">
        <ele>15.2</ele>
        <time>2023-04-21T11:51:04Z</time>
      </trkpt>
      <trkpt lat="49.09932" lon="-0.39096">
        <ele>15.4</ele>
        <time>2023-04-21T11:51:05Z</time>
      </trkpt>
      <trkpt lat="49.09929" lon="-0.39105">
        <ele>15.6</ele>
        <time>2023-04-21T11:51:06Z</time>
      </trkpt>
      <trkpt lat="49.09926" lon="-0.39113">
        <ele>16</ele>
        <time>2023-04-21T11:51:07Z</time>
      </trkpt>
      <trkpt lat="49.09924" lon="-0.39122">
        <ele>16.2</ele>
        <time>2023-04-21T11:51:08Z</time>
      </trkpt>
      <trkpt lat="49.09921" lon="-0.39131">
        <ele>16.6</ele>
        <time>2023-04-21T11:51:09Z</time>
      </trkpt>
      <trkpt lat="49.09918" lon="-0.3914">
        <ele>16.8</ele>
        <time>2023-04-21T11:51:10Z</time>
      </trkpt>
      <trkpt lat="49.09915" lon="-0.39149">
        <ele>17.2</ele>
        <time>2023-04-21T11:51:11Z</time>
      </trkpt>
      <trkpt lat="49.09912" lon="-0.39158">
        <ele>17.8</ele>
        <time>2023-04-21T11:51:12Z</time>
      </trkpt>
      <trkpt lat="49.09909" lon="-0.39168">
        <ele>18</ele>
        <time>2023-04-21T11:51:13Z</time>
      </trkpt>
      <trkpt lat="49.09907" lon="-0.39177">
        <ele>18.2</ele>
        <time>2023-04-21T11:51:14Z</time>
      </trkpt>
      <trkpt lat="49.09904" lon="-0.39186">
        <ele>18.4</ele>
        <time>2023-04-21T11:51:15Z</time>
      </trkpt>
      <trkpt lat="49.09901" lon="-0.39195">
        <ele>18.6</ele>
        <time>2023-04-21T11:51:16Z</time>
      </trkpt>
      <trkpt lat="49.09899" lon="-0.39204">
        <ele>18.8</ele>
        <time>2023-04-21T11:51:17Z</time>
      </trkpt>
      <trkpt lat="49.09896" lon="-0.39214">
        <ele>18.8</ele>
        <time>2023-04-21T11:51:18Z</time>
      </trkpt>
      <trkpt lat="49.09893" lon="-0.39223">
        <ele>19</ele>
        <time>2023-04-21T11:51:19Z</time>
      </trkpt>
      <trkpt lat="49.09891" lon="-0.39232">
        <ele>19</ele>
        <time>2023-04-21T11:51:20Z</time>
      </trkpt>
      <trkpt lat="49.09888" lon="-0.39241">
        <ele>19.2</ele>
        <time>2023-04-21T11:51:21Z</time>
      </trkpt>
      <trkpt lat="49.09886" lon="-0.3925">
        <ele>19.2</ele>
        <time>2023-04-21T11:51:22Z</time>
      </trkpt>
      <trkpt lat="49.09883" lon="-0.3926">
        <ele>19.2</ele>
        <time>2023-04-21T11:51:23Z</time>
      </trkpt>
      <trkpt lat="49.09881" lon="-0.39269">
        <ele>19.4</ele>
        <time>2023-04-21T11:51:24Z</time>
      </trkpt>
      <trkpt lat="49.09879" lon="-0.39277">
        <ele>19.6</ele>
        <time>2023-04-21T11:51:25Z</time>
      </trkpt>
      <trkpt lat="49.09876" lon="-0.39286">
        <ele>19.6</ele>
        <time>2023-04-21T11:51:26Z</time>
      </trkpt>
      <trkpt lat="49.09874" lon="-0.39295">
        <ele>19.8</ele>
        <time>2023-04-21T11:51:27Z</time>
      </trkpt>
      <trkpt lat="49.09871" lon="-0.39304">
        <ele>19.8</ele>
        <time>2023-04-21T11:51:28Z</time>
      </trkpt>
      <trkpt lat="49.09869" lon="-0.39313">
        <ele>19.8</ele>
        <time>2023-04-21T11:51:29Z</time>
      </trkpt>
      <trkpt lat="49.09866" lon="-0.39321">
        <ele>20</ele>
        <time>2023-04-21T11:51:30Z</time>
      </trkpt>
      <trkpt lat="49.09864" lon="-0.3933">
        <ele>20.2</ele>
        <time>2023-04-21T11:51:31Z</time>
      </trkpt>
      <trkpt lat="49.09862" lon="-0.39338">
        <ele>20.2</ele>
        <time>2023-04-21T11:51:32Z</time>
      </trkpt>
      <trkpt lat="49.0986" lon="-0.39347">
        <ele>20.4</ele>
        <time>2023-04-21T11:51:33Z</time>
      </trkpt>
      <trkpt lat="49.09857" lon="-0.39355">
        <ele>20.6</ele>
        <time>2023-04-21T11:51:34Z</time>
      </trkpt>
      <trkpt lat="49.09855" lon="-0.39363">
        <ele>20.8</ele>
        <time>2023-04-21T11:51:35Z</time>
      </trkpt>
      <trkpt lat="49.09853" lon="-0.39371">
        <ele>21</ele>
        <time>2023-04-21T11:51:36Z</time>
      </trkpt>
      <trkpt lat="49.09851" lon="-0.39379">
        <ele>21.2</ele>
        <time>2023-04-21T11:51:37Z</time>
      </trkpt>
      <trkpt lat="49.09849" lon="-0.39386">
        <ele>21.2</ele>
        <time>2023-04-21T11:51:38Z</time>
      </trkpt>
      <trkpt lat="49.09847" lon="-0.39394">
        <ele>21.4</ele>
        <time>2023-04-21T11:51:39Z</time>
      </trkpt>
      <trkpt lat="49.09845" lon="-0.39402">
        <ele>21.6</ele>
        <time>2023-04-21T11:51:40Z</time>
      </trkpt>
      <trkpt lat="49.09843" lon="-0.39409">
        <ele>21.6</ele>
        <time>2023-04-21T11:51:41Z</time>
      </trkpt>
      <trkpt lat="49.09841" lon="-0.39417">
        <ele>21.8</ele>
        <time>2023-04-21T11:51:42Z</time>
      </trkpt>
      <trkpt lat="49.09839" lon="-0.39424">
        <ele>21.4</ele>
        <time>2023-04-21T11:51:43Z</time>
      </trkpt>
      <trkpt lat="49.09836" lon="-0.39432">
        <ele>21.2</ele>
        <time>2023-04-21T11:51:44Z</time>
      </trkpt>
      <trkpt lat="49.09834" lon="-0.3944">
        <ele>20.8</ele>
        <time>2023-04-21T11:51:45Z</time>
      </trkpt>
      <trkpt lat="49.09832" lon="-0.39447">
        <ele>20.6</ele>
        <time>2023-04-21T11:51:46Z</time>
      </trkpt>
      <trkpt lat="49.09831" lon="-0.39455">
        <ele>20.6</ele>
        <time>2023-04-21T11:51:47Z</time>
      </trkpt>
      <trkpt lat="49.0983" lon="-0.39462">
        <ele>20.6</ele>
        <time>2023-04-21T11:51:48Z</time>
      </trkpt>
      <trkpt lat="49.09828" lon="-0.39469">
        <ele>20.6</ele>
        <time>2023-04-21T11:51:49Z</time>
      </trkpt>
      <trkpt lat="49.09827" lon="-0.39476">
        <ele>20.4</ele>
        <time>2023-04-21T11:51:50Z</time>
      </trkpt>
      <trkpt lat="49.09825" lon="-0.39484">
        <ele>20.2</ele>
        <time>2023-04-21T11:51:51Z</time>
      </trkpt>
      <trkpt lat="49.09823" lon="-0.39492">
        <ele>20.2</ele>
        <time>2023-04-21T11:51:52Z</time>
      </trkpt>
      <trkpt lat="49.09821" lon="-0.395">
        <ele>20</ele>
        <time>2023-04-21T11:51:53Z</time>
      </trkpt>
      <trkpt lat="49.09819" lon="-0.39507">
        <ele>19.6</ele>
        <time>2023-04-21T11:51:54Z</time>
      </trkpt>
      <trkpt lat="49.09816" lon="-0.39516">
        <ele>19.2</ele>
        <time>2023-04-21T11:51:55Z</time>
      </trkpt>
      <trkpt lat="49.09814" lon="-0.39524">
        <ele>18.8</ele>
        <time>2023-04-21T11:51:56Z</time>
      </trkpt>
      <trkpt lat="49.09812" lon="-0.39532">
        <ele>18.6</ele>
        <time>2023-04-21T11:51:57Z</time>
      </trkpt>
      <trkpt lat="49.0981" lon="-0.3954">
        <ele>18.2</ele>
        <time>2023-04-21T11:51:58Z</time>
      </trkpt>
      <trkpt lat="49.09807" lon="-0.39548">
        <ele>17.8</ele>
        <time>2023-04-21T11:51:59Z</time>
      </trkpt>
      <trkpt lat="49.09805" lon="-0.39556">
        <ele>17.2</ele>
        <time>2023-04-21T11:52:00Z</time>
      </trkpt>
      <trkpt lat="49.09802" lon="-0.39565">
        <ele>17</ele>
        <time>2023-04-21T11:52:01Z</time>
      </trkpt>
      <trkpt lat="49.098" lon="-0.39573">
        <ele>16.6</ele>
        <time>2023-04-21T11:52:02Z</time>
      </trkpt>
      <trkpt lat="49.09797" lon="-0.39581">
        <ele>16.2</ele>
        <time>2023-04-21T11:52:03Z</time>
      </trkpt>
      <trkpt lat="49.09795" lon="-0.39589">
        <ele>15.8</ele>
        <time>2023-04-21T11:52:04Z</time>
      </trkpt>
      <trkpt lat="49.09792" lon="-0.39598">
        <ele>15.4</ele>
        <time>2023-04-21T11:52:05Z</time>
      </trkpt>
      <trkpt lat="49.0979" lon="-0.39606">
        <ele>14.8</ele>
        <time>2023-04-21T11:52:06Z</time>
      </trkpt>
      <trkpt lat="49.09787" lon="-0.39614">
        <ele>14.4</ele>
        <time>2023-04-21T11:52:07Z</time>
      </trkpt>
      <trkpt lat="49.09785" lon="-0.39622">
        <ele>13.8</ele>
        <time>2023-04-21T11:52:08Z</time>
      </trkpt>
      <trkpt lat="49.09782" lon="-0.3963">
        <ele>13.6</ele>
        <time>2023-04-21T11:52:09Z</time>
      </trkpt>
      <trkpt lat="49.0978" lon="-0.39639">
        <ele>13</ele>
        <time>2023-04-21T11:52:10Z</time>
      </trkpt>
      <trkpt lat="49.09777" lon="-0.39647">
        <ele>12.6</ele>
        <time>2023-04-21T11:52:11Z</time>
      </trkpt>
      <trkpt lat="49.09774" lon="-0.39655">
        <ele>12.2</ele>
        <time>2023-04-21T11:52:12Z</time>
      </trkpt>
      <trkpt lat="49.09772" lon="-0.39663">
        <ele>11.6</ele>
        <time>2023-04-21T11:52:13Z</time>
      </trkpt>
      <trkpt lat="49.0977" lon="-0.39671">
        <ele>11.4</ele>
        <time>2023-04-21T11:52:14Z</time>
      </trkpt>
      <trkpt lat="49.09767" lon="-0.39679">
        <ele>11.2</ele>
        <time>2023-04-21T11:52:15Z</time>
      </trkpt>
      <trkpt lat="49.09765" lon="-0.39688">
        <ele>11.2</ele>
        <time>2023-04-21T11:52:16Z</time>
      </trkpt>
      <trkpt lat="49.09762" lon="-0.39696">
        <ele>10.8</ele>
        <time>2023-04-21T11:52:17Z</time>
      </trkpt>
      <trkpt lat="49.0976" lon="-0.39704">
        <ele>10.8</ele>
        <time>2023-04-21T11:52:18Z</time>
      </trkpt>
      <trkpt lat="49.09758" lon="-0.39713">
        <ele>10.8</ele>
        <time>2023-04-21T11:52:19Z</time>
      </trkpt>
      <trkpt lat="49.09756" lon="-0.39722">
        <ele>10.8</ele>
        <time>2023-04-21T11:52:20Z</time>
      </trkpt>
      <trkpt lat="49.09754" lon="-0.3973">
        <ele>10.8</ele>
        <time>2023-04-21T11:52:21Z</time>
      </trkpt>
      <trkpt lat="49.09752" lon="-0.39739">
        <ele>10.8</ele>
        <time>2023-04-21T11:52:22Z</time>
      </trkpt>
      <trkpt lat="49.0975" lon="-0.39748">
        <ele>11</ele>
        <time>2023-04-21T11:52:23Z</time>
      </trkpt>
      <trkpt lat="49.09748" lon="-0.39756">
        <ele>11.4</ele>
        <time>2023-04-21T11:52:24Z</time>
      </trkpt>
      <trkpt lat="49.09746" lon="-0.39765">
        <ele>11.6</ele>
        <time>2023-04-21T11:52:25Z</time>
      </trkpt>
      <trkpt lat="49.09743" lon="-0.39774">
        <ele>12</ele>
        <time>2023-04-21T11:52:26Z</time>
      </trkpt>
      <trkpt lat="49.09741" lon="-0.39783">
        <ele>12.4</ele>
        <time>2023-04-21T11:52:27Z</time>
      </trkpt>
      <trkpt lat="49.09739" lon="-0.39791">
        <ele>12.8</ele>
        <time>2023-04-21T11:52:28Z</time>
      </trkpt>
      <trkpt lat="49.09737" lon="-0.398">
        <ele>13.2</ele>
        <time>2023-04-21T11:52:29Z</time>
      </trkpt>
      <trkpt lat="49.09735" lon="-0.39809">
        <ele>13.6</ele>
        <time>2023-04-21T11:52:30Z</time>
      </trkpt>
      <trkpt lat="49.09733" lon="-0.39818">
        <ele>13.8</ele>
        <time>2023-04-21T11:52:31Z</time>
      </trkpt>
      <trkpt lat="49.09732" lon="-0.39827">
        <ele>14.2</ele>
        <time>2023-04-21T11:52:32Z</time>
      </trkpt>
      <trkpt lat="49.0973" lon="-0.39836">
        <ele>14.4</ele>
        <time>2023-04-21T11:52:33Z</time>
      </trkpt>
      <trkpt lat="49.09729" lon="-0.39845">
        <ele>14.6</ele>
        <time>2023-04-21T11:52:34Z</time>
      </trkpt>
      <trkpt lat="49.09727" lon="-0.39854">
        <ele>14.6</ele>
        <time>2023-04-21T11:52:35Z</time>
      </trkpt>
      <trkpt lat="49.09726" lon="-0.39864">
        <ele>14.8</ele>
        <time>2023-04-21T11:52:36Z</time>
      </trkpt>
      <trkpt lat="49.09725" lon="-0.39873">
        <ele>15</ele>
        <time>2023-04-21T11:52:37Z</time>
      </trkpt>
      <trkpt lat="49.09724" lon="-0.39882">
        <ele>15.2</ele>
        <time>2023-04-21T11:52:38Z</time>
      </trkpt>
      <trkpt lat="49.09723" lon="-0.39892">
        <ele>15.2</ele>
        <time>2023-04-21T11:52:39Z</time>
      </trkpt>
      <trkpt lat="49.09722" lon="-0.39901">
        <ele>15.4</ele>
        <time>2023-04-21T11:52:40Z</time>
      </trkpt>
      <trkpt lat="49.09722" lon="-0.3991">
        <ele>15.4</ele>
        <time>2023-04-21T11:52:41Z</time>
      </trkpt>
      <trkpt lat="49.09721" lon="-0.3992">
        <ele>15.4</ele>
        <time>2023-04-21T11:52:42Z</time>
      </trkpt>
      <trkpt lat="49.09721" lon="-0.39929">
        <ele>15.4</ele>
        <time>2023-04-21T11:52:43Z</time>
      </trkpt>
      <trkpt lat="49.0972" lon="-0.39939">
        <ele>15.2</ele>
        <time>2023-04-21T11:52:44Z</time>
      </trkpt>
      <trkpt lat="49.0972" lon="-0.39948">
        <ele>15.2</ele>
        <time>2023-04-21T11:52:45Z</time>
      </trkpt>
      <trkpt lat="49.0972" lon="-0.39958">
        <ele>15</ele>
        <time>2023-04-21T11:52:46Z</time>
      </trkpt>
      <trkpt lat="49.09719" lon="-0.39967">
        <ele>14.8</ele>
        <time>2023-04-21T11:52:47Z</time>
      </trkpt>
      <trkpt lat="49.09719" lon="-0.39977">
        <ele>14.8</ele>
        <time>2023-04-21T11:52:48Z</time>
      </trkpt>
      <trkpt lat="49.09719" lon="-0.39987">
        <ele>14.6</ele>
        <time>2023-04-21T11:52:49Z</time>
      </trkpt>
      <trkpt lat="49.09719" lon="-0.39997">
        <ele>14.6</ele>
        <time>2023-04-21T11:52:50Z</time>
      </trkpt>
      <trkpt lat="49.0972" lon="-0.40007">
        <ele>14.6</ele>
        <time>2023-04-21T11:52:51Z</time>
      </trkpt>
      <trkpt lat="49.0972" lon="-0.40017">
        <ele>15</ele>
        <time>2023-04-21T11:52:52Z</time>
      </trkpt>
      <trkpt lat="49.0972" lon="-0.40027">
        <ele>15.4</ele>
        <time>2023-04-21T11:52:53Z</time>
      </trkpt>
      <trkpt lat="49.0972" lon="-0.40037">
        <ele>15.6</ele>
        <time>2023-04-21T11:52:54Z</time>
      </trkpt>
      <trkpt lat="49.0972" lon="-0.40047">
        <ele>15.8</ele>
        <time>2023-04-21T11:52:55Z</time>
      </trkpt>
      <trkpt lat="49.09721" lon="-0.40058">
        <ele>16.2</ele>
        <time>2023-04-21T11:52:56Z</time>
      </trkpt>
      <trkpt lat="49.09721" lon="-0.40068">
        <ele>16.6</ele>
        <time>2023-04-21T11:52:57Z</time>
      </trkpt>
      <trkpt lat="49.09721" lon="-0.40078">
        <ele>16.8</ele>
        <time>2023-04-21T11:52:58Z</time>
      </trkpt>
      <trkpt lat="49.09721" lon="-0.40088">
        <ele>17.2</ele>
        <time>2023-04-21T11:52:59Z</time>
      </trkpt>
      <trkpt lat="49.09721" lon="-0.40098">
        <ele>17.2</ele>
        <time>2023-04-21T11:53:00Z</time>
      </trkpt>
      <trkpt lat="49.09722" lon="-0.40108">
        <ele>17.2</ele>
        <time>2023-04-21T11:53:01Z</time>
      </trkpt>
      <trkpt lat="49.09722" lon="-0.40118">
        <ele>17.2</ele>
        <time>2023-04-21T11:53:02Z</time>
      </trkpt>
      <trkpt lat="49.09722" lon="-0.40128">
        <ele>17.4</ele>
        <time>2023-04-21T11:53:03Z</time>
      </trkpt>
      <trkpt lat="49.09722" lon="-0.40139">
        <ele>17.4</ele>
        <time>2023-04-21T11:53:04Z</time>
      </trkpt>
      <trkpt lat="49.09723" lon="-0.40149">
        <ele>17.6</ele>
        <time>2023-04-21T11:53:05Z</time>
      </trkpt>
      <trkpt lat="49.09723" lon="-0.40159">
        <ele>17.6</ele>
        <time>2023-04-21T11:53:06Z</time>
      </trkpt>
      <trkpt lat="49.09723" lon="-0.40169">
        <ele>17.6</ele>
        <time>2023-04-21T11:53:07Z</time>
      </trkpt>
      <trkpt lat="49.09724" lon="-0.40179">
        <ele>17.6</ele>
        <time>2023-04-21T11:53:08Z</time>
      </trkpt>
      <trkpt lat="49.09724" lon="-0.4019">
        <ele>17.2</ele>
        <time>2023-04-21T11:53:09Z</time>
      </trkpt>
      <trkpt lat="49.09724" lon="-0.402">
        <ele>17.2</ele>
        <time>2023-04-21T11:53:10Z</time>
      </trkpt>
      <trkpt lat="49.09724" lon="-0.40211">
        <ele>17</ele>
        <time>2023-04-21T11:53:11Z</time>
      </trkpt>
      <trkpt lat="49.09725" lon="-0.40221">
        <ele>16.8</ele>
        <time>2023-04-21T11:53:12Z</time>
      </trkpt>
      <trkpt lat="49.09725" lon="-0.40232">
        <ele>16.8</ele>
        <time>2023-04-21T11:53:13Z</time>
      </trkpt>
      <trkpt lat="49.09725" lon="-0.40242">
        <ele>16.6</ele>
        <time>2023-04-21T11:53:14Z</time>
      </trkpt>
      <trkpt lat="49.09726" lon="-0.40253">
        <ele>16.4</ele>
        <time>2023-04-21T11:53:15Z</time>
      </trkpt>
      <trkpt lat="49.09726" lon="-0.40264">
        <ele>16.2</ele>
        <time>2023-04-21T11:53:16Z</time>
      </trkpt>
      <trkpt lat="49.09726" lon="-0.40274">
        <ele>15.8</ele>
        <time>2023-04-21T11:53:17Z</time>
      </trkpt>
      <trkpt lat="49.09727" lon="-0.40285">
        <ele>15.6</ele>
        <time>2023-04-21T11:53:18Z</time>
      </trkpt>
      <trkpt lat="49.09727" lon="-0.40295">
        <ele>15.4</ele>
        <time>2023-04-21T11:53:19Z</time>
      </trkpt>
      <trkpt lat="49.09728" lon="-0.40305">
        <ele>15.2</ele>
        <time>2023-04-21T11:53:20Z</time>
      </trkpt>
      <trkpt lat="49.09728" lon="-0.40315">
        <ele>15</ele>
        <time>2023-04-21T11:53:21Z</time>
      </trkpt>
      <trkpt lat="49.09728" lon="-0.40325">
        <ele>14.6</ele>
        <time>2023-04-21T11:53:22Z</time>
      </trkpt>
      <trkpt lat="49.09729" lon="-0.40335">
        <ele>14.6</ele>
        <time>2023-04-21T11:53:23Z</time>
      </trkpt>
      <trkpt lat="49.09729" lon="-0.40345">
        <ele>14.4</ele>
        <time>2023-04-21T11:53:24Z</time>
      </trkpt>
      <trkpt lat="49.09729" lon="-0.40355">
        <ele>14.2</ele>
        <time>2023-04-21T11:53:25Z</time>
      </trkpt>
      <trkpt lat="49.0973" lon="-0.40364">
        <ele>14.2</ele>
        <time>2023-04-21T11:53:26Z</time>
      </trkpt>
      <trkpt lat="49.0973" lon="-0.40374">
        <ele>13.8</ele>
        <time>2023-04-21T11:53:27Z</time>
      </trkpt>
      <trkpt lat="49.09731" lon="-0.40384">
        <ele>13.8</ele>
        <time>2023-04-21T11:53:28Z</time>
      </trkpt>
      <trkpt lat="49.09731" lon="-0.40393">
        <ele>13.6</ele>
        <time>2023-04-21T11:53:29Z</time>
      </trkpt>
      <trkpt lat="49.09731" lon="-0.40403">
        <ele>13.6</ele>
        <time>2023-04-21T11:53:30Z</time>
      </trkpt>
      <trkpt lat="49.09731" lon="-0.40413">
        <ele>13.4</ele>
        <time>2023-04-21T11:53:31Z</time>
      </trkpt>
      <trkpt lat="49.09732" lon="-0.40423">
        <ele>13.4</ele>
        <time>2023-04-21T11:53:32Z</time>
      </trkpt>
      <trkpt lat="49.09732" lon="-0.40432">
        <ele>13.2</ele>
        <time>2023-04-21T11:53:33Z</time>
      </trkpt>
      <trkpt lat="49.09732" lon="-0.40442">
        <ele>13.2</ele>
        <time>2023-04-21T11:53:34Z</time>
      </trkpt>
      <trkpt lat="49.09732" lon="-0.40452">
        <ele>13.2</ele>
        <time>2023-04-21T11:53:35Z</time>
      </trkpt>
      <trkpt lat="49.09732" lon="-0.40462">
        <ele>13.2</ele>
        <time>2023-04-21T11:53:36Z</time>
      </trkpt>
      <trkpt lat="49.09732" lon="-0.40472">
        <ele>13</ele>
        <time>2023-04-21T11:53:37Z</time>
      </trkpt>
      <trkpt lat="49.09732" lon="-0.40482">
        <ele>13</ele>
        <time>2023-04-21T11:53:38Z</time>
      </trkpt>
      <trkpt lat="49.09732" lon="-0.40492">
        <ele>12.8</ele>
        <time>2023-04-21T11:53:39Z</time>
      </trkpt>
      <trkpt lat="49.09732" lon="-0.40502">
        <ele>12.8</ele>
        <time>2023-04-21T11:53:40Z</time>
      </trkpt>
      <trkpt lat="49.09732" lon="-0.40513">
        <ele>12.8</ele>
        <time>2023-04-21T11:53:41Z</time>
      </trkpt>
      <trkpt lat="49.09732" lon="-0.40523">
        <ele>12.8</ele>
        <time>2023-04-21T11:53:42Z</time>
      </trkpt>
      <trkpt lat="49.09732" lon="-0.40533">
        <ele>12.8</ele>
        <time>2023-04-21T11:53:43Z</time>
      </trkpt>
      <trkpt lat="49.09731" lon="-0.40543">
        <ele>12.6</ele>
        <time>2023-04-21T11:53:44Z</time>
      </trkpt>
      <trkpt lat="49.09731" lon="-0.40554">
        <ele>12.6</ele>
        <time>2023-04-21T11:53:45Z</time>
      </trkpt>
      <trkpt lat="49.09731" lon="-0.40564">
        <ele>12.6</ele>
        <time>2023-04-21T11:53:46Z</time>
      </trkpt>
      <trkpt lat="49.09731" lon="-0.40574">
        <ele>12.6</ele>
        <time>2023-04-21T11:53:47Z</time>
      </trkpt>
      <trkpt lat="49.0973" lon="-0.40585">
        <ele>12.6</ele>
        <time>2023-04-21T11:53:48Z</time>
      </trkpt>
      <trkpt lat="49.0973" lon="-0.40595">
        <ele>12.6</ele>
        <time>2023-04-21T11:53:49Z</time>
      </trkpt>
      <trkpt lat="49.09729" lon="-0.40606">
        <ele>12.6</ele>
        <time>2023-04-21T11:53:50Z</time>
      </trkpt>
      <trkpt lat="49.09728" lon="-0.40616">
        <ele>12.6</ele>
        <time>2023-04-21T11:53:51Z</time>
      </trkpt>
      <trkpt lat="49.09728" lon="-0.40626">
        <ele>12.6</ele>
        <time>2023-04-21T11:53:52Z</time>
      </trkpt>
      <trkpt lat="49.09726" lon="-0.40637">
        <ele>12.6</ele>
        <time>2023-04-21T11:53:53Z</time>
      </trkpt>
      <trkpt lat="49.09725" lon="-0.40647">
        <ele>12.6</ele>
        <time>2023-04-21T11:53:54Z</time>
      </trkpt>
      <trkpt lat="49.09724" lon="-0.40658">
        <ele>12.6</ele>
        <time>2023-04-21T11:53:55Z</time>
      </trkpt>
      <trkpt lat="49.09723" lon="-0.40668">
        <ele>12.6</ele>
        <time>2023-04-21T11:53:56Z</time>
      </trkpt>
      <trkpt lat="49.09722" lon="-0.40678">
        <ele>12.8</ele>
        <time>2023-04-21T11:53:57Z</time>
      </trkpt>
      <trkpt lat="49.09721" lon="-0.40689">
        <ele>13.2</ele>
        <time>2023-04-21T11:53:58Z</time>
      </trkpt>
      <trkpt lat="49.09719" lon="-0.40699">
        <ele>13.4</ele>
        <time>2023-04-21T11:53:59Z</time>
      </trkpt>
      <trkpt lat="49.09718" lon="-0.40709">
        <ele>13.6</ele>
        <time>2023-04-21T11:54:00Z</time>
      </trkpt>
      <trkpt lat="49.09717" lon="-0.40719">
        <ele>13.8</ele>
        <time>2023-04-21T11:54:01Z</time>
      </trkpt>
      <trkpt lat="49.09715" lon="-0.40729">
        <ele>14.2</ele>
        <time>2023-04-21T11:54:02Z</time>
      </trkpt>
      <trkpt lat="49.09714" lon="-0.40739">
        <ele>14.4</ele>
        <time>2023-04-21T11:54:03Z</time>
      </trkpt>
      <trkpt lat="49.09712" lon="-0.40749">
        <ele>14.6</ele>
        <time>2023-04-21T11:54:04Z</time>
      </trkpt>
      <trkpt lat="49.0971" lon="-0.40759">
        <ele>14.6</ele>
        <time>2023-04-21T11:54:05Z</time>
      </trkpt>
      <trkpt lat="49.09708" lon="-0.40769">
        <ele>14.4</ele>
        <time>2023-04-21T11:54:06Z</time>
      </trkpt>
      <trkpt lat="49.09707" lon="-0.40779">
        <ele>14.4</ele>
        <time>2023-04-21T11:54:07Z</time>
      </trkpt>
      <trkpt lat="49.09705" lon="-0.40789">
        <ele>14.2</ele>
        <time>2023-04-21T11:54:08Z</time>
      </trkpt>
      <trkpt lat="49.09703" lon="-0.40799">
        <ele>14.2</ele>
        <time>2023-04-21T11:54:09Z</time>
      </trkpt>
      <trkpt lat="49.09701" lon="-0.40809">
        <ele>14.2</ele>
        <time>2023-04-21T11:54:10Z</time>
      </trkpt>
      <trkpt lat="49.09699" lon="-0.40819">
        <ele>14.2</ele>
        <time>2023-04-21T11:54:11Z</time>
      </trkpt>
      <trkpt lat="49.09697" lon="-0.40829">
        <ele>14.2</ele>
        <time>2023-04-21T11:54:12Z</time>
      </trkpt>
      <trkpt lat="49.09695" lon="-0.40839">
        <ele>14.2</ele>
        <time>2023-04-21T11:54:13Z</time>
      </trkpt>
      <trkpt lat="49.09692" lon="-0.40848">
        <ele>14.4</ele>
        <time>2023-04-21T11:54:14Z</time>
      </trkpt>
      <trkpt lat="49.0969" lon="-0.40857">
        <ele>14.4</ele>
        <time>2023-04-21T11:54:15Z</time>
      </trkpt>
      <trkpt lat="49.09688" lon="-0.40866">
        <ele>14.6</ele>
        <time>2023-04-21T11:54:16Z</time>
      </trkpt>
      <trkpt lat="49.09685" lon="-0.40874">
        <ele>14.6</ele>
        <time>2023-04-21T11:54:17Z</time>
      </trkpt>
      <trkpt lat="49.09683" lon="-0.40881">
        <ele>14.6</ele>
        <time>2023-04-21T11:54:18Z</time>
      </trkpt>
      <trkpt lat="49.0968" lon="-0.40889">
        <ele>14.8</ele>
        <time>2023-04-21T11:54:19Z</time>
      </trkpt>
      <trkpt lat="49.09678" lon="-0.40897">
        <ele>14.6</ele>
        <time>2023-04-21T11:54:20Z</time>
      </trkpt>
      <trkpt lat="49.09677" lon="-0.40906">
        <ele>14.6</ele>
        <time>2023-04-21T11:54:21Z</time>
      </trkpt>
      <trkpt lat="49.09675" lon="-0.40915">
        <ele>14.4</ele>
        <time>2023-04-21T11:54:22Z</time>
      </trkpt>
      <trkpt lat="49.09673" lon="-0.40924">
        <ele>14.6</ele>
        <time>2023-04-21T11:54:23Z</time>
      </trkpt>
      <trkpt lat="49.09671" lon="-0.40932">
        <ele>14.6</ele>
        <time>2023-04-21T11:54:24Z</time>
      </trkpt>
      <trkpt lat="49.09668" lon="-0.40941">
        <ele>14.6</ele>
        <time>2023-04-21T11:54:25Z</time>
      </trkpt>
      <trkpt lat="49.09666" lon="-0.4095">
        <ele>14.6</ele>
        <time>2023-04-21T11:54:26Z</time>
      </trkpt>
      <trkpt lat="49.09663" lon="-0.40959">
        <ele>14.8</ele>
        <time>2023-04-21T11:54:27Z</time>
      </trkpt>
      <trkpt lat="49.09661" lon="-0.40967">
        <ele>15</ele>
        <time>2023-04-21T11:54:28Z</time>
      </trkpt>
      <trkpt lat="49.09658" lon="-0.40976">
        <ele>15.2</ele>
        <time>2023-04-21T11:54:29Z</time>
      </trkpt>
      <trkpt lat="49.09656" lon="-0.40984">
        <ele>15.4</ele>
        <time>2023-04-21T11:54:30Z</time>
      </trkpt>
      <trkpt lat="49.09653" lon="-0.40993">
        <ele>15.6</ele>
        <time>2023-04-21T11:54:31Z</time>
      </trkpt>
      <trkpt lat="49.0965" lon="-0.41001">
        <ele>15.8</ele>
        <time>2023-04-21T11:54:32Z</time>
      </trkpt>
      <trkpt lat="49.09647" lon="-0.4101">
        <ele>15.8</ele>
        <time>2023-04-21T11:54:33Z</time>
      </trkpt>
      <trkpt lat="49.09644" lon="-0.41018">
        <ele>15.8</ele>
        <time>2023-04-21T11:54:34Z</time>
      </trkpt>
      <trkpt lat="49.09641" lon="-0.41027">
        <ele>15.8</ele>
        <time>2023-04-21T11:54:35Z</time>
      </trkpt>
      <trkpt lat="49.09638" lon="-0.41035">
        <ele>15.8</ele>
        <time>2023-04-21T11:54:36Z</time>
      </trkpt>
      <trkpt lat="49.09634" lon="-0.41043">
        <ele>15.8</ele>
        <time>2023-04-21T11:54:37Z</time>
      </trkpt>
      <trkpt lat="49.09631" lon="-0.41052">
        <ele>16</ele>
        <time>2023-04-21T11:54:38Z</time>
      </trkpt>
      <trkpt lat="49.09628" lon="-0.4106">
        <ele>16</ele>
        <time>2023-04-21T11:54:39Z</time>
      </trkpt>
      <trkpt lat="49.09624" lon="-0.41069">
        <ele>16.2</ele>
        <time>2023-04-21T11:54:40Z</time>
      </trkpt>
      <trkpt lat="49.09621" lon="-0.41077">
        <ele>16.2</ele>
        <time>2023-04-21T11:54:41Z</time>
      </trkpt>
      <trkpt lat="49.09617" lon="-0.41086">
        <ele>16.2</ele>
        <time>2023-04-21T11:54:42Z</time>
      </trkpt>
      <trkpt lat="49.09614" lon="-0.41094">
        <ele>16.6</ele>
        <time>2023-04-21T11:54:43Z</time>
      </trkpt>
      <trkpt lat="49.0961" lon="-0.41103">
        <ele>16.8</ele>
        <time>2023-04-21T11:54:44Z</time>
      </trkpt>
      <trkpt lat="49.09606" lon="-0.41111">
        <ele>16.8</ele>
        <time>2023-04-21T11:54:45Z</time>
      </trkpt>
      <trkpt lat="49.09603" lon="-0.41119">
        <ele>17</ele>
        <time>2023-04-21T11:54:46Z</time>
      </trkpt>
      <trkpt lat="49.09599" lon="-0.41127">
        <ele>17.2</ele>
        <time>2023-04-21T11:54:47Z</time>
      </trkpt>
      <trkpt lat="49.09595" lon="-0.41135">
        <ele>17.2</ele>
        <time>2023-04-21T11:54:48Z</time>
      </trkpt>
      <trkpt lat="49.09591" lon="-0.41144">
        <ele>17.2</ele>
        <time>2023-04-21T11:54:49Z</time>
      </trkpt>
      <trkpt lat="49.09587" lon="-0.41152">
        <ele>17.2</ele>
        <time>2023-04-21T11:54:50Z</time>
      </trkpt>
      <trkpt lat="49.09582" lon="-0.41161">
        <ele>17.2</ele>
        <time>2023-04-21T11:54:51Z</time>
      </trkpt>
      <trkpt lat="49.09578" lon="-0.41169">
        <ele>17.4</ele>
        <time>2023-04-21T11:54:52Z</time>
      </trkpt>
      <trkpt lat="49.09574" lon="-0.41177">
        <ele>17.6</ele>
        <time>2023-04-21T11:54:53Z</time>
      </trkpt>
      <trkpt lat="49.09569" lon="-0.41186">
        <ele>17.8</ele>
        <time>2023-04-21T11:54:54Z</time>
      </trkpt>
      <trkpt lat="49.09564" lon="-0.41194">
        <ele>17.8</ele>
        <time>2023-04-21T11:54:55Z</time>
      </trkpt>
      <trkpt lat="49.0956" lon="-0.41202">
        <ele>18</ele>
        <time>2023-04-21T11:54:56Z</time>
      </trkpt>
      <trkpt lat="49.09555" lon="-0.4121">
        <ele>18.2</ele>
        <time>2023-04-21T11:54:57Z</time>
      </trkpt>
      <trkpt lat="49.09551" lon="-0.41218">
        <ele>18.2</ele>
        <time>2023-04-21T11:54:58Z</time>
      </trkpt>
      <trkpt lat="49.09547" lon="-0.41226">
        <ele>18.4</ele>
        <time>2023-04-21T11:54:59Z</time>
      </trkpt>
      <trkpt lat="49.09542" lon="-0.41234">
        <ele>18.6</ele>
        <time>2023-04-21T11:55:00Z</time>
      </trkpt>
      <trkpt lat="49.09538" lon="-0.41242">
        <ele>18.8</ele>
        <time>2023-04-21T11:55:01Z</time>
      </trkpt>
      <trkpt lat="49.09533" lon="-0.4125">
        <ele>18.8</ele>
        <time>2023-04-21T11:55:02Z</time>
      </trkpt>
      <trkpt lat="49.09529" lon="-0.41258">
        <ele>18.8</ele>
        <time>2023-04-21T11:55:03Z</time>
      </trkpt>
      <trkpt lat="49.09524" lon="-0.41266">
        <ele>18.6</ele>
        <time>2023-04-21T11:55:04Z</time>
      </trkpt>
      <trkpt lat="49.0952" lon="-0.41273">
        <ele>18.2</ele>
        <time>2023-04-21T11:55:05Z</time>
      </trkpt>
      <trkpt lat="49.09515" lon="-0.41281">
        <ele>17.8</ele>
        <time>2023-04-21T11:55:06Z</time>
      </trkpt>
      <trkpt lat="49.09511" lon="-0.41289">
        <ele>17.6</ele>
        <time>2023-04-21T11:55:07Z</time>
      </trkpt>
      <trkpt lat="49.09506" lon="-0.41297">
        <ele>17.2</ele>
        <time>2023-04-21T11:55:08Z</time>
      </trkpt>
      <trkpt lat="49.09502" lon="-0.41305">
        <ele>16.6</ele>
        <time>2023-04-21T11:55:09Z</time>
      </trkpt>
      <trkpt lat="49.09497" lon="-0.41314">
        <ele>16.2</ele>
        <time>2023-04-21T11:55:10Z</time>
      </trkpt>
      <trkpt lat="49.09492" lon="-0.41322">
        <ele>16.2</ele>
        <time>2023-04-21T11:55:11Z</time>
      </trkpt>
      <trkpt lat="49.09488" lon="-0.4133">
        <ele>16</ele>
        <time>2023-04-21T11:55:12Z</time>
      </trkpt>
      <trkpt lat="49.09483" lon="-0.41338">
        <ele>16.2</ele>
        <time>2023-04-21T11:55:13Z</time>
      </trkpt>
      <trkpt lat="49.09479" lon="-0.41346">
        <ele>16.6</ele>
        <time>2023-04-21T11:55:14Z</time>
      </trkpt>
      <trkpt lat="49.09474" lon="-0.41354">
        <ele>16.8</ele>
        <time>2023-04-21T11:55:15Z</time>
      </trkpt>
      <trkpt lat="49.0947" lon="-0.41362">
        <ele>17.2</ele>
        <time>2023-04-21T11:55:16Z</time>
      </trkpt>
      <trkpt lat="49.09465" lon="-0.4137">
        <ele>17.2</ele>
        <time>2023-04-21T11:55:17Z</time>
      </trkpt>
      <trkpt lat="49.09461" lon="-0.41378">
        <ele>17.6</ele>
        <time>2023-04-21T11:55:18Z</time>
      </trkpt>
      <trkpt lat="49.09456" lon="-0.41386">
        <ele>17.8</ele>
        <time>2023-04-21T11:55:19Z</time>
      </trkpt>
      <trkpt lat="49.09452" lon="-0.41394">
        <ele>17.8</ele>
        <time>2023-04-21T11:55:20Z</time>
      </trkpt>
      <trkpt lat="49.09447" lon="-0.41402">
        <ele>18.2</ele>
        <time>2023-04-21T11:55:21Z</time>
      </trkpt>
      <trkpt lat="49.09442" lon="-0.4141">
        <ele>18.2</ele>
        <time>2023-04-21T11:55:22Z</time>
      </trkpt>
      <trkpt lat="49.09438" lon="-0.41418">
        <ele>18.4</ele>
        <time>2023-04-21T11:55:23Z</time>
      </trkpt>
      <trkpt lat="49.09433" lon="-0.41426">
        <ele>18.2</ele>
        <time>2023-04-21T11:55:24Z</time>
      </trkpt>
      <trkpt lat="49.09429" lon="-0.41434">
        <ele>18.2</ele>
        <time>2023-04-21T11:55:25Z</time>
      </trkpt>
      <trkpt lat="49.09424" lon="-0.41443">
        <ele>17.8</ele>
        <time>2023-04-21T11:55:26Z</time>
      </trkpt>
      <trkpt lat="49.09419" lon="-0.41451">
        <ele>17.6</ele>
        <time>2023-04-21T11:55:27Z</time>
      </trkpt>
      <trkpt lat="49.09415" lon="-0.41459">
        <ele>17.2</ele>
        <time>2023-04-21T11:55:28Z</time>
      </trkpt>
      <trkpt lat="49.0941" lon="-0.41467">
        <ele>17.2</ele>
        <time>2023-04-21T11:55:29Z</time>
      </trkpt>
      <trkpt lat="49.09406" lon="-0.41475">
        <ele>17</ele>
        <time>2023-04-21T11:55:30Z</time>
      </trkpt>
      <trkpt lat="49.09401" lon="-0.41483">
        <ele>16.8</ele>
        <time>2023-04-21T11:55:31Z</time>
      </trkpt>
      <trkpt lat="49.09396" lon="-0.41491">
        <ele>16.8</ele>
        <time>2023-04-21T11:55:32Z</time>
      </trkpt>
      <trkpt lat="49.09392" lon="-0.41499">
        <ele>16.8</ele>
        <time>2023-04-21T11:55:33Z</time>
      </trkpt>
      <trkpt lat="49.09387" lon="-0.41508">
        <ele>17</ele>
        <time>2023-04-21T11:55:34Z</time>
      </trkpt>
      <trkpt lat="49.09383" lon="-0.41516">
        <ele>17.2</ele>
        <time>2023-04-21T11:55:35Z</time>
      </trkpt>
      <trkpt lat="49.09378" lon="-0.41524">
        <ele>17.2</ele>
        <time>2023-04-21T11:55:36Z</time>
      </trkpt>
      <trkpt lat="49.09373" lon="-0.41532">
        <ele>17</ele>
        <time>2023-04-21T11:55:37Z</time>
      </trkpt>
      <trkpt lat="49.09369" lon="-0.41541">
        <ele>16.8</ele>
        <time>2023-04-21T11:55:38Z</time>
      </trkpt>
      <trkpt lat="49.09364" lon="-0.41549">
        <ele>16.8</ele>
        <time>2023-04-21T11:55:39Z</time>
      </trkpt>
      <trkpt lat="49.09359" lon="-0.41557">
        <ele>16.6</ele>
        <time>2023-04-21T11:55:40Z</time>
      </trkpt>
      <trkpt lat="49.09355" lon="-0.41565">
        <ele>16.4</ele>
        <time>2023-04-21T11:55:41Z</time>
      </trkpt>
      <trkpt lat="49.0935" lon="-0.41574">
        <ele>16.2</ele>
        <time>2023-04-21T11:55:42Z</time>
      </trkpt>
      <trkpt lat="49.09345" lon="-0.41582">
        <ele>15.8</ele>
        <time>2023-04-21T11:55:43Z</time>
      </trkpt>
      <trkpt lat="49.09341" lon="-0.41591">
        <ele>15.8</ele>
        <time>2023-04-21T11:55:44Z</time>
      </trkpt>
      <trkpt lat="49.09336" lon="-0.41599">
        <ele>15.6</ele>
        <time>2023-04-21T11:55:45Z</time>
      </trkpt>
      <trkpt lat="49.09331" lon="-0.41607">
        <ele>15.6</ele>
        <time>2023-04-21T11:55:46Z</time>
      </trkpt>
      <trkpt lat="49.09327" lon="-0.41616">
        <ele>15.6</ele>
        <time>2023-04-21T11:55:47Z</time>
      </trkpt>
      <trkpt lat="49.09322" lon="-0.41624">
        <ele>15.6</ele>
        <time>2023-04-21T11:55:48Z</time>
      </trkpt>
      <trkpt lat="49.09318" lon="-0.41633">
        <ele>15.6</ele>
        <time>2023-04-21T11:55:49Z</time>
      </trkpt>
      <trkpt lat="49.09313" lon="-0.41641">
        <ele>15.6</ele>
        <time>2023-04-21T11:55:50Z</time>
      </trkpt>
      <trkpt lat="49.09308" lon="-0.41649">
        <ele>15.6</ele>
        <time>2023-04-21T11:55:51Z</time>
      </trkpt>
      <trkpt lat="49.09304" lon="-0.41658">
        <ele>15.6</ele>
        <time>2023-04-21T11:55:52Z</time>
      </trkpt>
      <trkpt lat="49.09299" lon="-0.41666">
        <ele>15.6</ele>
        <time>2023-04-21T11:55:53Z</time>
      </trkpt>
      <trkpt lat="49.09294" lon="-0.41675">
        <ele>15.8</ele>
        <time>2023-04-21T11:55:54Z</time>
      </trkpt>
      <trkpt lat="49.09289" lon="-0.41683">
        <ele>16.2</ele>
        <time>2023-04-21T11:55:55Z</time>
      </trkpt>
      <trkpt lat="49.09285" lon="-0.41691">
        <ele>16.2</ele>
        <time>2023-04-21T11:55:56Z</time>
      </trkpt>
      <trkpt lat="49.0928" lon="-0.417">
        <ele>16.2</ele>
        <time>2023-04-21T11:55:57Z</time>
      </trkpt>
      <trkpt lat="49.09275" lon="-0.41708">
        <ele>16.2</ele>
        <time>2023-04-21T11:55:58Z</time>
      </trkpt>
      <trkpt lat="49.09271" lon="-0.41716">
        <ele>16.2</ele>
        <time>2023-04-21T11:55:59Z</time>
      </trkpt>
      <trkpt lat="49.09266" lon="-0.41724">
        <ele>16</ele>
        <time>2023-04-21T11:56:00Z</time>
      </trkpt>
      <trkpt lat="49.09261" lon="-0.41733">
        <ele>15.6</ele>
        <time>2023-04-21T11:56:01Z</time>
      </trkpt>
      <trkpt lat="49.09256" lon="-0.41741">
        <ele>15.4</ele>
        <time>2023-04-21T11:56:02Z</time>
      </trkpt>
      <trkpt lat="49.09252" lon="-0.41749">
        <ele>15</ele>
        <time>2023-04-21T11:56:03Z</time>
      </trkpt>
      <trkpt lat="49.09247" lon="-0.41757">
        <ele>15.2</ele>
        <time>2023-04-21T11:56:04Z</time>
      </trkpt>
      <trkpt lat="49.09242" lon="-0.41765">
        <ele>15.6</ele>
        <time>2023-04-21T11:56:05Z</time>
      </trkpt>
      <trkpt lat="49.09238" lon="-0.41773">
        <ele>15.8</ele>
        <time>2023-04-21T11:56:06Z</time>
      </trkpt>
      <trkpt lat="49.09233" lon="-0.41781">
        <ele>16.2</ele>
        <time>2023-04-21T11:56:07Z</time>
      </trkpt>
      <trkpt lat="49.09228" lon="-0.41789">
        <ele>16.4</ele>
        <time>2023-04-21T11:56:08Z</time>
      </trkpt>
      <trkpt lat="49.09223" lon="-0.41797">
        <ele>16.6</ele>
        <time>2023-04-21T11:56:09Z</time>
      </trkpt>
      <trkpt lat="49.09218" lon="-0.41805">
        <ele>16.8</ele>
        <time>2023-04-21T11:56:10Z</time>
      </trkpt>
      <trkpt lat="49.09213" lon="-0.41813">
        <ele>16.8</ele>
        <time>2023-04-21T11:56:11Z</time>
      </trkpt>
      <trkpt lat="49.09208" lon="-0.41821">
        <ele>16.8</ele>
        <time>2023-04-21T11:56:12Z</time>
      </trkpt>
      <trkpt lat="49.09203" lon="-0.41829">
        <ele>16.8</ele>
        <time>2023-04-21T11:56:13Z</time>
      </trkpt>
      <trkpt lat="49.09198" lon="-0.41837">
        <ele>17</ele>
        <time>2023-04-21T11:56:14Z</time>
      </trkpt>
      <trkpt lat="49.09193" lon="-0.41846">
        <ele>17</ele>
        <time>2023-04-21T11:56:15Z</time>
      </trkpt>
      <trkpt lat="49.09188" lon="-0.41854">
        <ele>16.8</ele>
        <time>2023-04-21T11:56:16Z</time>
      </trkpt>
      <trkpt lat="49.09182" lon="-0.41862">
        <ele>16.8</ele>
        <time>2023-04-21T11:56:17Z</time>
      </trkpt>
      <trkpt lat="49.09177" lon="-0.4187">
        <ele>16.2</ele>
        <time>2023-04-21T11:56:18Z</time>
      </trkpt>
      <trkpt lat="49.09172" lon="-0.41878">
        <ele>15.8</ele>
        <time>2023-04-21T11:56:19Z</time>
      </trkpt>
      <trkpt lat="49.09167" lon="-0.41887">
        <ele>15.4</ele>
        <time>2023-04-21T11:56:20Z</time>
      </trkpt>
      <trkpt lat="49.09161" lon="-0.41895">
        <ele>15</ele>
        <time>2023-04-21T11:56:21Z</time>
      </trkpt>
      <trkpt lat="49.09156" lon="-0.41903">
        <ele>14.6</ele>
        <time>2023-04-21T11:56:22Z</time>
      </trkpt>
      <trkpt lat="49.09151" lon="-0.41911">
        <ele>14.6</ele>
        <time>2023-04-21T11:56:23Z</time>
      </trkpt>
      <trkpt lat="49.09145" lon="-0.41919">
        <ele>14.6</ele>
        <time>2023-04-21T11:56:24Z</time>
      </trkpt>
      <trkpt lat="49.0914" lon="-0.41928">
        <ele>14.8</ele>
        <time>2023-04-21T11:56:25Z</time>
      </trkpt>
      <trkpt lat="49.09135" lon="-0.41936">
        <ele>15.2</ele>
        <time>2023-04-21T11:56:26Z</time>
      </trkpt>
      <trkpt lat="49.0913" lon="-0.41944">
        <ele>15.6</ele>
        <time>2023-04-21T11:56:27Z</time>
      </trkpt>
      <trkpt lat="49.09124" lon="-0.41952">
        <ele>15.8</ele>
        <time>2023-04-21T11:56:28Z</time>
      </trkpt>
      <trkpt lat="49.09119" lon="-0.41961">
        <ele>16</ele>
        <time>2023-04-21T11:56:29Z</time>
      </trkpt>
      <trkpt lat="49.09114" lon="-0.41969">
        <ele>16.2</ele>
        <time>2023-04-21T11:56:30Z</time>
      </trkpt>
      <trkpt lat="49.09109" lon="-0.41977">
        <ele>16.2</ele>
        <time>2023-04-21T11:56:31Z</time>
      </trkpt>
      <trkpt lat="49.09103" lon="-0.41985">
        <ele>16.2</ele>
        <time>2023-04-21T11:56:32Z</time>
      </trkpt>
      <trkpt lat="49.09098" lon="-0.41994">
        <ele>16.2</ele>
        <time>2023-04-21T11:56:33Z</time>
      </trkpt>
      <trkpt lat="49.09093" lon="-0.42002">
        <ele>16.2</ele>
        <time>2023-04-21T11:56:34Z</time>
      </trkpt>
      <trkpt lat="49.09087" lon="-0.42011">
        <ele>16.2</ele>
        <time>2023-04-21T11:56:35Z</time>
      </trkpt>
      <trkpt lat="49.09082" lon="-0.42019">
        <ele>16</ele>
        <time>2023-04-21T11:56:36Z</time>
      </trkpt>
      <trkpt lat="49.09076" lon="-0.42028">
        <ele>16.2</ele>
        <time>2023-04-21T11:56:37Z</time>
      </trkpt>
      <trkpt lat="49.0907" lon="-0.42036">
        <ele>16.2</ele>
        <time>2023-04-21T11:56:38Z</time>
      </trkpt>
      <trkpt lat="49.09065" lon="-0.42045">
        <ele>16.2</ele>
        <time>2023-04-21T11:56:39Z</time>
      </trkpt>
      <trkpt lat="49.09059" lon="-0.42053">
        <ele>16.2</ele>
        <time>2023-04-21T11:56:40Z</time>
      </trkpt>
      <trkpt lat="49.09053" lon="-0.42061">
        <ele>16.2</ele>
        <time>2023-04-21T11:56:41Z</time>
      </trkpt>
      <trkpt lat="49.09048" lon="-0.42069">
        <ele>16</ele>
        <time>2023-04-21T11:56:42Z</time>
      </trkpt>
      <trkpt lat="49.09042" lon="-0.42076">
        <ele>16</ele>
        <time>2023-04-21T11:56:43Z</time>
      </trkpt>
      <trkpt lat="49.09036" lon="-0.42083">
        <ele>15.8</ele>
        <time>2023-04-21T11:56:44Z</time>
      </trkpt>
      <trkpt lat="49.09031" lon="-0.4209">
        <ele>16.2</ele>
        <time>2023-04-21T11:56:45Z</time>
      </trkpt>
      <trkpt lat="49.09026" lon="-0.42097">
        <ele>16.2</ele>
        <time>2023-04-21T11:56:46Z</time>
      </trkpt>
      <trkpt lat="49.09021" lon="-0.42104">
        <ele>16.2</ele>
        <time>2023-04-21T11:56:47Z</time>
      </trkpt>
      <trkpt lat="49.09016" lon="-0.4211">
        <ele>16</ele>
        <time>2023-04-21T11:56:48Z</time>
      </trkpt>
      <trkpt lat="49.0901" lon="-0.42116">
        <ele>15.8</ele>
        <time>2023-04-21T11:56:49Z</time>
      </trkpt>
      <trkpt lat="49.09005" lon="-0.42123">
        <ele>15.6</ele>
        <time>2023-04-21T11:56:50Z</time>
      </trkpt>
      <trkpt lat="49.09" lon="-0.42129">
        <ele>15.2</ele>
        <time>2023-04-21T11:56:51Z</time>
      </trkpt>
      <trkpt lat="49.08994" lon="-0.42135">
        <ele>15.2</ele>
        <time>2023-04-21T11:56:52Z</time>
      </trkpt>
      <trkpt lat="49.08989" lon="-0.4214">
        <ele>15</ele>
        <time>2023-04-21T11:56:53Z</time>
      </trkpt>
      <trkpt lat="49.08984" lon="-0.42146">
        <ele>14.8</ele>
        <time>2023-04-21T11:56:54Z</time>
      </trkpt>
      <trkpt lat="49.08978" lon="-0.42152">
        <ele>14.8</ele>
        <time>2023-04-21T11:56:55Z</time>
      </trkpt>
      <trkpt lat="49.08973" lon="-0.42158">
        <ele>14.6</ele>
        <time>2023-04-21T11:56:56Z</time>
      </trkpt>
      <trkpt lat="49.08967" lon="-0.42163">
        <ele>14.6</ele>
        <time>2023-04-21T11:56:57Z</time>
      </trkpt>
      <trkpt lat="49.08962" lon="-0.42169">
        <ele>14.6</ele>
        <time>2023-04-21T11:56:58Z</time>
      </trkpt>
      <trkpt lat="49.08956" lon="-0.42175">
        <ele>14.6</ele>
        <time>2023-04-21T11:56:59Z</time>
      </trkpt>
      <trkpt lat="49.08951" lon="-0.4218">
        <ele>14.6</ele>
        <time>2023-04-21T11:57:00Z</time>
      </trkpt>
      <trkpt lat="49.08945" lon="-0.42185">
        <ele>14.6</ele>
        <time>2023-04-21T11:57:01Z</time>
      </trkpt>
      <trkpt lat="49.08939" lon="-0.42191">
        <ele>14.4</ele>
        <time>2023-04-21T11:57:02Z</time>
      </trkpt>
      <trkpt lat="49.08934" lon="-0.42196">
        <ele>14.2</ele>
        <time>2023-04-21T11:57:03Z</time>
      </trkpt>
      <trkpt lat="49.08928" lon="-0.42201">
        <ele>13.8</ele>
        <time>2023-04-21T11:57:04Z</time>
      </trkpt>
      <trkpt lat="49.08922" lon="-0.42206">
        <ele>13.6</ele>
        <time>2023-04-21T11:57:05Z</time>
      </trkpt>
      <trkpt lat="49.08915" lon="-0.42211">
        <ele>13.4</ele>
        <time>2023-04-21T11:57:06Z</time>
      </trkpt>
      <trkpt lat="49.08909" lon="-0.42216">
        <ele>13.4</ele>
        <time>2023-04-21T11:57:07Z</time>
      </trkpt>
      <trkpt lat="49.08903" lon="-0.42221">
        <ele>13.4</ele>
        <time>2023-04-21T11:57:08Z</time>
      </trkpt>
      <trkpt lat="49.08897" lon="-0.42225">
        <ele>13.4</ele>
        <time>2023-04-21T11:57:09Z</time>
      </trkpt>
      <trkpt lat="49.0889" lon="-0.4223">
        <ele>13.4</ele>
        <time>2023-04-21T11:57:10Z</time>
      </trkpt>
      <trkpt lat="49.08884" lon="-0.42234">
        <ele>13.6</ele>
        <time>2023-04-21T11:57:11Z</time>
      </trkpt>
      <trkpt lat="49.08877" lon="-0.42239">
        <ele>13.6</ele>
        <time>2023-04-21T11:57:12Z</time>
      </trkpt>
      <trkpt lat="49.08871" lon="-0.42244">
        <ele>13.6</ele>
        <time>2023-04-21T11:57:13Z</time>
      </trkpt>
      <trkpt lat="49.08864" lon="-0.42248">
        <ele>13.6</ele>
        <time>2023-04-21T11:57:14Z</time>
      </trkpt>
      <trkpt lat="49.08858" lon="-0.42253">
        <ele>13.8</ele>
        <time>2023-04-21T11:57:15Z</time>
      </trkpt>
      <trkpt lat="49.08851" lon="-0.42257">
        <ele>14.2</ele>
        <time>2023-04-21T11:57:16Z</time>
      </trkpt>
      <trkpt lat="49.08844" lon="-0.42261">
        <ele>14.4</ele>
        <time>2023-04-21T11:57:17Z</time>
      </trkpt>
      <trkpt lat="49.08837" lon="-0.42266">
        <ele>14.4</ele>
        <time>2023-04-21T11:57:18Z</time>
      </trkpt>
      <trkpt lat="49.08831" lon="-0.4227">
        <ele>14.6</ele>
        <time>2023-04-21T11:57:19Z</time>
      </trkpt>
      <trkpt lat="49.08824" lon="-0.42274">
        <ele>14.6</ele>
        <time>2023-04-21T11:57:20Z</time>
      </trkpt>
      <trkpt lat="49.08817" lon="-0.42278">
        <ele>14.8</ele>
        <time>2023-04-21T11:57:21Z</time>
      </trkpt>
      <trkpt lat="49.0881" lon="-0.42281">
        <ele>14.8</ele>
        <time>2023-04-21T11:57:22Z</time>
      </trkpt>
      <trkpt lat="49.08803" lon="-0.42285">
        <ele>15</ele>
        <time>2023-04-21T11:57:23Z</time>
      </trkpt>
      <trkpt lat="49.08796" lon="-0.42288">
        <ele>15.2</ele>
        <time>2023-04-21T11:57:24Z</time>
      </trkpt>
      <trkpt lat="49.08789" lon="-0.42292">
        <ele>15.2</ele>
        <time>2023-04-21T11:57:25Z</time>
      </trkpt>
      <trkpt lat="49.08782" lon="-0.42295">
        <ele>15.2</ele>
        <time>2023-04-21T11:57:26Z</time>
      </trkpt>
      <trkpt lat="49.08775" lon="-0.42298">
        <ele>15.2</ele>
        <time>2023-04-21T11:57:27Z</time>
      </trkpt>
      <trkpt lat="49.08768" lon="-0.42301">
        <ele>15.2</ele>
        <time>2023-04-21T11:57:28Z</time>
      </trkpt>
      <trkpt lat="49.08761" lon="-0.42304">
        <ele>15.4</ele>
        <time>2023-04-21T11:57:29Z</time>
      </trkpt>
      <trkpt lat="49.08754" lon="-0.42307">
        <ele>15.2</ele>
        <time>2023-04-21T11:57:30Z</time>
      </trkpt>
      <trkpt lat="49.08747" lon="-0.4231">
        <ele>15.2</ele>
        <time>2023-04-21T11:57:31Z</time>
      </trkpt>
      <trkpt lat="49.08739" lon="-0.42313">
        <ele>15.2</ele>
        <time>2023-04-21T11:57:32Z</time>
      </trkpt>
      <trkpt lat="49.08732" lon="-0.42316">
        <ele>15.2</ele>
        <time>2023-04-21T11:57:33Z</time>
      </trkpt>
      <trkpt lat="49.08725" lon="-0.42318">
        <ele>15.4</ele>
        <time>2023-04-21T11:57:34Z</time>
      </trkpt>
      <trkpt lat="49.08718" lon="-0.42319">
        <ele>15.4</ele>
        <time>2023-04-21T11:57:35Z</time>
      </trkpt>
      <trkpt lat="49.08712" lon="-0.42319">
        <ele>15.6</ele>
        <time>2023-04-21T11:57:36Z</time>
      </trkpt>
      <trkpt lat="49.08705" lon="-0.42318">
        <ele>16.2</ele>
        <time>2023-04-21T11:57:37Z</time>
      </trkpt>
      <trkpt lat="49.08699" lon="-0.42318">
        <ele>16.6</ele>
        <time>2023-04-21T11:57:38Z</time>
      </trkpt>
      <trkpt lat="49.08692" lon="-0.4232">
        <ele>16.6</ele>
        <time>2023-04-21T11:57:39Z</time>
      </trkpt>
      <trkpt lat="49.08685" lon="-0.42323">
        <ele>16.6</ele>
        <time>2023-04-21T11:57:40Z</time>
      </trkpt>
      <trkpt lat="49.08679" lon="-0.42326">
        <ele>16.4</ele>
        <time>2023-04-21T11:57:41Z</time>
      </trkpt>
      <trkpt lat="49.08673" lon="-0.42328">
        <ele>16.6</ele>
        <time>2023-04-21T11:57:42Z</time>
      </trkpt>
      <trkpt lat="49.08667" lon="-0.42329">
        <ele>16.6</ele>
        <time>2023-04-21T11:57:43Z</time>
      </trkpt>
      <trkpt lat="49.08661" lon="-0.42331">
        <ele>16.6</ele>
        <time>2023-04-21T11:57:44Z</time>
      </trkpt>
      <trkpt lat="49.08654" lon="-0.42333">
        <ele>16.6</ele>
        <time>2023-04-21T11:57:45Z</time>
      </trkpt>
      <trkpt lat="49.08647" lon="-0.42336">
        <ele>16.6</ele>
        <time>2023-04-21T11:57:46Z</time>
      </trkpt>
      <trkpt lat="49.08641" lon="-0.42339">
        <ele>16.6</ele>
        <time>2023-04-21T11:57:47Z</time>
      </trkpt>
      <trkpt lat="49.08634" lon="-0.42341">
        <ele>16.6</ele>
        <time>2023-04-21T11:57:48Z</time>
      </trkpt>
      <trkpt lat="49.08628" lon="-0.42344">
        <ele>16.6</ele>
        <time>2023-04-21T11:57:49Z</time>
      </trkpt>
      <trkpt lat="49.08622" lon="-0.42347">
        <ele>16.6</ele>
        <time>2023-04-21T11:57:50Z</time>
      </trkpt>
      <trkpt lat="49.08616" lon="-0.4235">
        <ele>16.6</ele>
        <time>2023-04-21T11:57:51Z</time>
      </trkpt>
      <trkpt lat="49.08611" lon="-0.42352">
        <ele>16.8</ele>
        <time>2023-04-21T11:57:52Z</time>
      </trkpt>
      <trkpt lat="49.08605" lon="-0.42354">
        <ele>16.8</ele>
        <time>2023-04-21T11:57:53Z</time>
      </trkpt>
      <trkpt lat="49.086" lon="-0.42356">
        <ele>16.8</ele>
        <time>2023-04-21T11:57:54Z</time>
      </trkpt>
      <trkpt lat="49.08595" lon="-0.42357">
        <ele>16.8</ele>
        <time>2023-04-21T11:57:55Z</time>
      </trkpt>
      <trkpt lat="49.0859" lon="-0.42359">
        <ele>16.8</ele>
        <time>2023-04-21T11:57:56Z</time>
      </trkpt>
      <trkpt lat="49.08585" lon="-0.4236">
        <ele>17</ele>
        <time>2023-04-21T11:57:57Z</time>
      </trkpt>
      <trkpt lat="49.08579" lon="-0.42362">
        <ele>17</ele>
        <time>2023-04-21T11:57:58Z</time>
      </trkpt>
      <trkpt lat="49.08574" lon="-0.42363">
        <ele>17</ele>
        <time>2023-04-21T11:57:59Z</time>
      </trkpt>
      <trkpt lat="49.08569" lon="-0.42364">
        <ele>17</ele>
        <time>2023-04-21T11:58:00Z</time>
      </trkpt>
      <trkpt lat="49.08564" lon="-0.42365">
        <ele>17</ele>
        <time>2023-04-21T11:58:01Z</time>
      </trkpt>
      <trkpt lat="49.0856" lon="-0.42366">
        <ele>17</ele>
        <time>2023-04-21T11:58:02Z</time>
      </trkpt>
      <trkpt lat="49.08556" lon="-0.42368">
        <ele>17</ele>
        <time>2023-04-21T11:58:03Z</time>
      </trkpt>
      <trkpt lat="49.08553" lon="-0.42369">
        <ele>16.8</ele>
        <time>2023-04-21T11:58:04Z</time>
      </trkpt>
      <trkpt lat="49.0855" lon="-0.4237">
        <ele>16.8</ele>
        <time>2023-04-21T11:58:05Z</time>
      </trkpt>
      <trkpt lat="49.08547" lon="-0.42371">
        <ele>16.8</ele>
        <time>2023-04-21T11:58:06Z</time>
      </trkpt>
      <trkpt lat="49.08545" lon="-0.42373">
        <ele>16.8</ele>
        <time>2023-04-21T11:58:07Z</time>
      </trkpt>
      <trkpt lat="49.08542" lon="-0.42374">
        <ele>16.6</ele>
        <time>2023-04-21T11:58:08Z</time>
      </trkpt>
      <trkpt lat="49.08539" lon="-0.42375">
        <ele>16.6</ele>
        <time>2023-04-21T11:58:09Z</time>
      </trkpt>
      <trkpt lat="49.08536" lon="-0.42375">
        <ele>16.6</ele>
        <time>2023-04-21T11:58:10Z</time>
      </trkpt>
      <trkpt lat="49.08534" lon="-0.42374">
        <ele>16.8</ele>
        <time>2023-04-21T11:58:11Z</time>
      </trkpt>
      <trkpt lat="49.08532" lon="-0.42374">
        <ele>16.8</ele>
        <time>2023-04-21T11:58:12Z</time>
      </trkpt>
      <trkpt lat="49.0853" lon="-0.42374">
        <ele>16.8</ele>
        <time>2023-04-21T11:58:13Z</time>
      </trkpt>
      <trkpt lat="49.08527" lon="-0.42376">
        <ele>16.6</ele>
        <time>2023-04-21T11:58:14Z</time>
      </trkpt>
      <trkpt lat="49.08523" lon="-0.42378">
        <ele>16.4</ele>
        <time>2023-04-21T11:58:15Z</time>
      </trkpt>
      <trkpt lat="49.08519" lon="-0.42379">
        <ele>16.2</ele>
        <time>2023-04-21T11:58:16Z</time>
      </trkpt>
      <trkpt lat="49.08514" lon="-0.42381">
        <ele>16.2</ele>
        <time>2023-04-21T11:58:17Z</time>
      </trkpt>
      <trkpt lat="49.08508" lon="-0.42382">
        <ele>16.2</ele>
        <time>2023-04-21T11:58:18Z</time>
      </trkpt>
      <trkpt lat="49.08502" lon="-0.42383">
        <ele>16</ele>
        <time>2023-04-21T11:58:19Z</time>
      </trkpt>
      <trkpt lat="49.08497" lon="-0.42385">
        <ele>15.8</ele>
        <time>2023-04-21T11:58:20Z</time>
      </trkpt>
      <trkpt lat="49.08491" lon="-0.42387">
        <ele>15.4</ele>
        <time>2023-04-21T11:58:21Z</time>
      </trkpt>
      <trkpt lat="49.08485" lon="-0.42389">
        <ele>15</ele>
        <time>2023-04-21T11:58:22Z</time>
      </trkpt>
      <trkpt lat="49.08479" lon="-0.42392">
        <ele>14.6</ele>
        <time>2023-04-21T11:58:23Z</time>
      </trkpt>
      <trkpt lat="49.08474" lon="-0.42394">
        <ele>14.2</ele>
        <time>2023-04-21T11:58:24Z</time>
      </trkpt>
      <trkpt lat="49.08468" lon="-0.42396">
        <ele>13.8</ele>
        <time>2023-04-21T11:58:25Z</time>
      </trkpt>
      <trkpt lat="49.08463" lon="-0.42398">
        <ele>13.6</ele>
        <time>2023-04-21T11:58:26Z</time>
      </trkpt>
      <trkpt lat="49.08458" lon="-0.42399">
        <ele>13.2</ele>
        <time>2023-04-21T11:58:27Z</time>
      </trkpt>
      <trkpt lat="49.08452" lon="-0.42401">
        <ele>12.8</ele>
        <time>2023-04-21T11:58:28Z</time>
      </trkpt>
      <trkpt lat="49.08447" lon="-0.42403">
        <ele>12.4</ele>
        <time>2023-04-21T11:58:29Z</time>
      </trkpt>
      <trkpt lat="49.08441" lon="-0.42406">
        <ele>12</ele>
        <time>2023-04-21T11:58:30Z</time>
      </trkpt>
      <trkpt lat="49.08435" lon="-0.42408">
        <ele>11.6</ele>
        <time>2023-04-21T11:58:31Z</time>
      </trkpt>
      <trkpt lat="49.08429" lon="-0.42411">
        <ele>11.2</ele>
        <time>2023-04-21T11:58:32Z</time>
      </trkpt>
      <trkpt lat="49.08423" lon="-0.42413">
        <ele>10.6</ele>
        <time>2023-04-21T11:58:33Z</time>
      </trkpt>
      <trkpt lat="49.08417" lon="-0.42416">
        <ele>10.2</ele>
        <time>2023-04-21T11:58:34Z</time>
      </trkpt>
      <trkpt lat="49.08411" lon="-0.42418">
        <ele>10.2</ele>
        <time>2023-04-21T11:58:35Z</time>
      </trkpt>
      <trkpt lat="49.08405" lon="-0.42421">
        <ele>10.4</ele>
        <time>2023-04-21T11:58:36Z</time>
      </trkpt>
      <trkpt lat="49.08399" lon="-0.42423">
        <ele>10.6</ele>
        <time>2023-04-21T11:58:37Z</time>
      </trkpt>
      <trkpt lat="49.08393" lon="-0.42425">
        <ele>10.8</ele>
        <time>2023-04-21T11:58:38Z</time>
      </trkpt>
      <trkpt lat="49.08387" lon="-0.42428">
        <ele>10.8</ele>
        <time>2023-04-21T11:58:39Z</time>
      </trkpt>
      <trkpt lat="49.0838" lon="-0.42431">
        <ele>11.2</ele>
        <time>2023-04-21T11:58:40Z</time>
      </trkpt>
      <trkpt lat="49.08373" lon="-0.42434">
        <ele>11.2</ele>
        <time>2023-04-21T11:58:41Z</time>
      </trkpt>
      <trkpt lat="49.08366" lon="-0.42438">
        <ele>11.4</ele>
        <time>2023-04-21T11:58:42Z</time>
      </trkpt>
      <trkpt lat="49.08359" lon="-0.42441">
        <ele>11.4</ele>
        <time>2023-04-21T11:58:43Z</time>
      </trkpt>
      <trkpt lat="49.08352" lon="-0.42445">
        <ele>11.6</ele>
        <time>2023-04-21T11:58:44Z</time>
      </trkpt>
      <trkpt lat="49.08346" lon="-0.42448">
        <ele>11.6</ele>
        <time>2023-04-21T11:58:45Z</time>
      </trkpt>
      <trkpt lat="49.08339" lon="-0.42452">
        <ele>11.6</ele>
        <time>2023-04-21T11:58:46Z</time>
      </trkpt>
      <trkpt lat="49.08332" lon="-0.42455">
        <ele>11.6</ele>
        <time>2023-04-21T11:58:47Z</time>
      </trkpt>
      <trkpt lat="49.08325" lon="-0.42458">
        <ele>12.2</ele>
        <time>2023-04-21T11:58:48Z</time>
      </trkpt>
      <trkpt lat="49.08319" lon="-0.42461">
        <ele>12.6</ele>
        <time>2023-04-21T11:58:49Z</time>
      </trkpt>
      <trkpt lat="49.08313" lon="-0.42463">
        <ele>12.8</ele>
        <time>2023-04-21T11:58:50Z</time>
      </trkpt>
      <trkpt lat="49.08306" lon="-0.42466">
        <ele>13.2</ele>
        <time>2023-04-21T11:58:51Z</time>
      </trkpt>
      <trkpt lat="49.083" lon="-0.42468">
        <ele>13.4</ele>
        <time>2023-04-21T11:58:52Z</time>
      </trkpt>
      <trkpt lat="49.08294" lon="-0.42471">
        <ele>13.6</ele>
        <time>2023-04-21T11:58:53Z</time>
      </trkpt>
      <trkpt lat="49.08287" lon="-0.42473">
        <ele>13.8</ele>
        <time>2023-04-21T11:58:54Z</time>
      </trkpt>
      <trkpt lat="49.08281" lon="-0.42476">
        <ele>14</ele>
        <time>2023-04-21T11:58:55Z</time>
      </trkpt>
      <trkpt lat="49.08275" lon="-0.42478">
        <ele>14.2</ele>
        <time>2023-04-21T11:58:56Z</time>
      </trkpt>
      <trkpt lat="49.08269" lon="-0.4248">
        <ele>14.4</ele>
        <time>2023-04-21T11:58:57Z</time>
      </trkpt>
      <trkpt lat="49.08264" lon="-0.42482">
        <ele>14.4</ele>
        <time>2023-04-21T11:58:58Z</time>
      </trkpt>
      <trkpt lat="49.08259" lon="-0.42486">
        <ele>14.4</ele>
        <time>2023-04-21T11:58:59Z</time>
      </trkpt>
      <trkpt lat="49.08254" lon="-0.4249">
        <ele>14</ele>
        <time>2023-04-21T11:59:00Z</time>
      </trkpt>
      <trkpt lat="49.08249" lon="-0.42497">
        <ele>13.6</ele>
        <time>2023-04-21T11:59:01Z</time>
      </trkpt>
      <trkpt lat="49.08243" lon="-0.42503">
        <ele>13.6</ele>
        <time>2023-04-21T11:59:02Z</time>
      </trkpt>
      <trkpt lat="49.08237" lon="-0.42507">
        <ele>14</ele>
        <time>2023-04-21T11:59:03Z</time>
      </trkpt>
      <trkpt lat="49.08231" lon="-0.4251">
        <ele>14.4</ele>
        <time>2023-04-21T11:59:04Z</time>
      </trkpt>
      <trkpt lat="49.08224" lon="-0.42514">
        <ele>14.6</ele>
        <time>2023-04-21T11:59:05Z</time>
      </trkpt>
      <trkpt lat="49.08218" lon="-0.42517">
        <ele>15.2</ele>
        <time>2023-04-21T11:59:06Z</time>
      </trkpt>
      <trkpt lat="49.08211" lon="-0.4252">
        <ele>15.4</ele>
        <time>2023-04-21T11:59:07Z</time>
      </trkpt>
      <trkpt lat="49.08205" lon="-0.42523">
        <ele>15.6</ele>
        <time>2023-04-21T11:59:08Z</time>
      </trkpt>
      <trkpt lat="49.08199" lon="-0.42525">
        <ele>15.8</ele>
        <time>2023-04-21T11:59:09Z</time>
      </trkpt>
      <trkpt lat="49.08193" lon="-0.42527">
        <ele>16.2</ele>
        <time>2023-04-21T11:59:10Z</time>
      </trkpt>
      <trkpt lat="49.08187" lon="-0.4253">
        <ele>16.2</ele>
        <time>2023-04-21T11:59:11Z</time>
      </trkpt>
      <trkpt lat="49.08181" lon="-0.42532">
        <ele>16.4</ele>
        <time>2023-04-21T11:59:12Z</time>
      </trkpt>
      <trkpt lat="49.08175" lon="-0.42535">
        <ele>16.4</ele>
        <time>2023-04-21T11:59:13Z</time>
      </trkpt>
      <trkpt lat="49.08169" lon="-0.42538">
        <ele>16.4</ele>
        <time>2023-04-21T11:59:14Z</time>
      </trkpt>
      <trkpt lat="49.08163" lon="-0.42541">
        <ele>16.4</ele>
        <time>2023-04-21T11:59:15Z</time>
      </trkpt>
      <trkpt lat="49.08157" lon="-0.42545">
        <ele>16.6</ele>
        <time>2023-04-21T11:59:16Z</time>
      </trkpt>
      <trkpt lat="49.0815" lon="-0.42548">
        <ele>16.8</ele>
        <time>2023-04-21T11:59:17Z</time>
      </trkpt>
      <trkpt lat="49.08144" lon="-0.42552">
        <ele>16.8</ele>
        <time>2023-04-21T11:59:18Z</time>
      </trkpt>
      <trkpt lat="49.08137" lon="-0.42555">
        <ele>17.2</ele>
        <time>2023-04-21T11:59:19Z</time>
      </trkpt>
      <trkpt lat="49.08131" lon="-0.42559">
        <ele>17.2</ele>
        <time>2023-04-21T11:59:20Z</time>
      </trkpt>
      <trkpt lat="49.08124" lon="-0.42563">
        <ele>17.4</ele>
        <time>2023-04-21T11:59:21Z</time>
      </trkpt>
      <trkpt lat="49.08118" lon="-0.42567">
        <ele>17.6</ele>
        <time>2023-04-21T11:59:22Z</time>
      </trkpt>
      <trkpt lat="49.08111" lon="-0.42571">
        <ele>17.8</ele>
        <time>2023-04-21T11:59:23Z</time>
      </trkpt>
      <trkpt lat="49.08105" lon="-0.42575">
        <ele>17.8</ele>
        <time>2023-04-21T11:59:24Z</time>
      </trkpt>
      <trkpt lat="49.08098" lon="-0.42579">
        <ele>18</ele>
        <time>2023-04-21T11:59:25Z</time>
      </trkpt>
      <trkpt lat="49.08092" lon="-0.42582">
        <ele>18.2</ele>
        <time>2023-04-21T11:59:26Z</time>
      </trkpt>
      <trkpt lat="49.08085" lon="-0.42586">
        <ele>18.6</ele>
        <time>2023-04-21T11:59:27Z</time>
      </trkpt>
      <trkpt lat="49.08079" lon="-0.4259">
        <ele>18.6</ele>
        <time>2023-04-21T11:59:28Z</time>
      </trkpt>
      <trkpt lat="49.08073" lon="-0.42594">
        <ele>18.8</ele>
        <time>2023-04-21T11:59:29Z</time>
      </trkpt>
      <trkpt lat="49.08066" lon="-0.42598">
        <ele>18.8</ele>
        <time>2023-04-21T11:59:30Z</time>
      </trkpt>
      <trkpt lat="49.0806" lon="-0.42601">
        <ele>18.8</ele>
        <time>2023-04-21T11:59:31Z</time>
      </trkpt>
      <trkpt lat="49.08054" lon="-0.42606">
        <ele>18.8</ele>
        <time>2023-04-21T11:59:32Z</time>
      </trkpt>
      <trkpt lat="49.08047" lon="-0.4261">
        <ele>18.6</ele>
        <time>2023-04-21T11:59:33Z</time>
      </trkpt>
      <trkpt lat="49.08041" lon="-0.42614">
        <ele>18.6</ele>
        <time>2023-04-21T11:59:34Z</time>
      </trkpt>
      <trkpt lat="49.08034" lon="-0.42619">
        <ele>18.2</ele>
        <time>2023-04-21T11:59:35Z</time>
      </trkpt>
      <trkpt lat="49.08028" lon="-0.42623">
        <ele>18.2</ele>
        <time>2023-04-21T11:59:36Z</time>
      </trkpt>
      <trkpt lat="49.08022" lon="-0.42627">
        <ele>17.8</ele>
        <time>2023-04-21T11:59:37Z</time>
      </trkpt>
      <trkpt lat="49.08015" lon="-0.42631">
        <ele>17.8</ele>
        <time>2023-04-21T11:59:38Z</time>
      </trkpt>
      <trkpt lat="49.08009" lon="-0.42635">
        <ele>17.6</ele>
        <time>2023-04-21T11:59:39Z</time>
      </trkpt>
      <trkpt lat="49.08003" lon="-0.42638">
        <ele>17.2</ele>
        <time>2023-04-21T11:59:40Z</time>
      </trkpt>
      <trkpt lat="49.07997" lon="-0.42642">
        <ele>17.2</ele>
        <time>2023-04-21T11:59:41Z</time>
      </trkpt>
      <trkpt lat="49.0799" lon="-0.42646">
        <ele>17</ele>
        <time>2023-04-21T11:59:42Z</time>
      </trkpt>
      <trkpt lat="49.07984" lon="-0.42649">
        <ele>16.8</ele>
        <time>2023-04-21T11:59:43Z</time>
      </trkpt>
      <trkpt lat="49.07978" lon="-0.42653">
        <ele>16.8</ele>
        <time>2023-04-21T11:59:44Z</time>
      </trkpt>
      <trkpt lat="49.07971" lon="-0.42657">
        <ele>16.6</ele>
        <time>2023-04-21T11:59:45Z</time>
      </trkpt>
      <trkpt lat="49.07965" lon="-0.42661">
        <ele>16.6</ele>
        <time>2023-04-21T11:59:46Z</time>
      </trkpt>
      <trkpt lat="49.07958" lon="-0.42665">
        <ele>16.2</ele>
        <time>2023-04-21T11:59:47Z</time>
      </trkpt>
      <trkpt lat="49.07952" lon="-0.42669">
        <ele>16.2</ele>
        <time>2023-04-21T11:59:48Z</time>
      </trkpt>
      <trkpt lat="49.07945" lon="-0.42673">
        <ele>16.2</ele>
        <time>2023-04-21T11:59:49Z</time>
      </trkpt>
      <trkpt lat="49.07938" lon="-0.42677">
        <ele>16.2</ele>
        <time>2023-04-21T11:59:50Z</time>
      </trkpt>
      <trkpt lat="49.07932" lon="-0.42681">
        <ele>16.2</ele>
        <time>2023-04-21T11:59:51Z</time>
      </trkpt>
      <trkpt lat="49.07925" lon="-0.42686">
        <ele>16.2</ele>
        <time>2023-04-21T11:59:52Z</time>
      </trkpt>
      <trkpt lat="49.07918" lon="-0.4269">
        <ele>15.8</ele>
        <time>2023-04-21T11:59:53Z</time>
      </trkpt>
      <trkpt lat="49.07912" lon="-0.42694">
        <ele>15.8</ele>
        <time>2023-04-21T11:59:54Z</time>
      </trkpt>
      <trkpt lat="49.07905" lon="-0.42698">
        <ele>15.8</ele>
        <time>2023-04-21T11:59:55Z</time>
      </trkpt>
      <trkpt lat="49.07898" lon="-0.42702">
        <ele>15.8</ele>
        <time>2023-04-21T11:59:56Z</time>
      </trkpt>
      <trkpt lat="49.07892" lon="-0.42706">
        <ele>15.8</ele>
        <time>2023-04-21T11:59:57Z</time>
      </trkpt>
      <trkpt lat="49.07885" lon="-0.4271">
        <ele>15.6</ele>
        <time>2023-04-21T11:59:58Z</time>
      </trkpt>
      <trkpt lat="49.07879" lon="-0.42714">
        <ele>15.6</ele>
        <time>2023-04-21T11:59:59Z</time>
      </trkpt>
      <trkpt lat="49.07872" lon="-0.42718">
        <ele>15.6</ele>
        <time>2023-04-21T12:00:00Z</time>
      </trkpt>
      <trkpt lat="49.07865" lon="-0.42722">
        <ele>15.4</ele>
        <time>2023-04-21T12:00:01Z</time>
      </trkpt>
      <trkpt lat="49.07859" lon="-0.42726">
        <ele>15.2</ele>
        <time>2023-04-21T12:00:02Z</time>
      </trkpt>
      <trkpt lat="49.07852" lon="-0.4273">
        <ele>15.2</ele>
        <time>2023-04-21T12:00:03Z</time>
      </trkpt>
      <trkpt lat="49.07845" lon="-0.42734">
        <ele>14.8</ele>
        <time>2023-04-21T12:00:04Z</time>
      </trkpt>
      <trkpt lat="49.07839" lon="-0.42738">
        <ele>14.6</ele>
        <time>2023-04-21T12:00:05Z</time>
      </trkpt>
      <trkpt lat="49.07832" lon="-0.42742">
        <ele>14.4</ele>
        <time>2023-04-21T12:00:06Z</time>
      </trkpt>
      <trkpt lat="49.07826" lon="-0.42746">
        <ele>14.6</ele>
        <time>2023-04-21T12:00:07Z</time>
      </trkpt>
      <trkpt lat="49.07819" lon="-0.4275">
        <ele>14.6</ele>
        <time>2023-04-21T12:00:08Z</time>
      </trkpt>
      <trkpt lat="49.07813" lon="-0.42754">
        <ele>15</ele>
        <time>2023-04-21T12:00:09Z</time>
      </trkpt>
      <trkpt lat="49.07806" lon="-0.42758">
        <ele>15.4</ele>
        <time>2023-04-21T12:00:10Z</time>
      </trkpt>
      <trkpt lat="49.078" lon="-0.42762">
        <ele>15.6</ele>
        <time>2023-04-21T12:00:11Z</time>
      </trkpt>
      <trkpt lat="49.07793" lon="-0.42766">
        <ele>15.8</ele>
        <time>2023-04-21T12:00:12Z</time>
      </trkpt>
      <trkpt lat="49.07786" lon="-0.4277">
        <ele>16.2</ele>
        <time>2023-04-21T12:00:13Z</time>
      </trkpt>
      <trkpt lat="49.0778" lon="-0.42774">
        <ele>16.2</ele>
        <time>2023-04-21T12:00:14Z</time>
      </trkpt>
      <trkpt lat="49.07773" lon="-0.42778">
        <ele>16.2</ele>
        <time>2023-04-21T12:00:15Z</time>
      </trkpt>
      <trkpt lat="49.07767" lon="-0.42782">
        <ele>16.2</ele>
        <time>2023-04-21T12:00:16Z</time>
      </trkpt>
      <trkpt lat="49.0776" lon="-0.42786">
        <ele>16.2</ele>
        <time>2023-04-21T12:00:17Z</time>
      </trkpt>
      <trkpt lat="49.07754" lon="-0.4279">
        <ele>16</ele>
        <time>2023-04-21T12:00:18Z</time>
      </trkpt>
      <trkpt lat="49.07747" lon="-0.42795">
        <ele>15.8</ele>
        <time>2023-04-21T12:00:19Z</time>
      </trkpt>
      <trkpt lat="49.0774" lon="-0.42799">
        <ele>15.8</ele>
        <time>2023-04-21T12:00:20Z</time>
      </trkpt>
      <trkpt lat="49.07734" lon="-0.42803">
        <ele>15.8</ele>
        <time>2023-04-21T12:00:21Z</time>
      </trkpt>
      <trkpt lat="49.07727" lon="-0.42807">
        <ele>15.6</ele>
        <time>2023-04-21T12:00:22Z</time>
      </trkpt>
      <trkpt lat="49.07721" lon="-0.42811">
        <ele>15.6</ele>
        <time>2023-04-21T12:00:23Z</time>
      </trkpt>
      <trkpt lat="49.07714" lon="-0.42815">
        <ele>15.6</ele>
        <time>2023-04-21T12:00:24Z</time>
      </trkpt>
      <trkpt lat="49.07707" lon="-0.42819">
        <ele>15.4</ele>
        <time>2023-04-21T12:00:25Z</time>
      </trkpt>
      <trkpt lat="49.07701" lon="-0.42823">
        <ele>15.4</ele>
        <time>2023-04-21T12:00:26Z</time>
      </trkpt>
      <trkpt lat="49.07694" lon="-0.42827">
        <ele>15.2</ele>
        <time>2023-04-21T12:00:27Z</time>
      </trkpt>
      <trkpt lat="49.07687" lon="-0.42831">
        <ele>14.8</ele>
        <time>2023-04-21T12:00:28Z</time>
      </trkpt>
      <trkpt lat="49.07681" lon="-0.42835">
        <ele>14.8</ele>
        <time>2023-04-21T12:00:29Z</time>
      </trkpt>
      <trkpt lat="49.07674" lon="-0.42839">
        <ele>15.2</ele>
        <time>2023-04-21T12:00:30Z</time>
      </trkpt>
      <trkpt lat="49.07668" lon="-0.42843">
        <ele>15.4</ele>
        <time>2023-04-21T12:00:31Z</time>
      </trkpt>
      <trkpt lat="49.07661" lon="-0.42847">
        <ele>15.8</ele>
        <time>2023-04-21T12:00:32Z</time>
      </trkpt>
      <trkpt lat="49.07654" lon="-0.42851">
        <ele>16.2</ele>
        <time>2023-04-21T12:00:33Z</time>
      </trkpt>
      <trkpt lat="49.07648" lon="-0.42855">
        <ele>16.6</ele>
        <time>2023-04-21T12:00:34Z</time>
      </trkpt>
      <trkpt lat="49.07641" lon="-0.42859">
        <ele>16.8</ele>
        <time>2023-04-21T12:00:35Z</time>
      </trkpt>
      <trkpt lat="49.07634" lon="-0.42863">
        <ele>17</ele>
        <time>2023-04-21T12:00:36Z</time>
      </trkpt>
      <trkpt lat="49.07628" lon="-0.42867">
        <ele>17.2</ele>
        <time>2023-04-21T12:00:37Z</time>
      </trkpt>
      <trkpt lat="49.07621" lon="-0.42871">
        <ele>17.2</ele>
        <time>2023-04-21T12:00:38Z</time>
      </trkpt>
      <trkpt lat="49.07615" lon="-0.42875">
        <ele>17.2</ele>
        <time>2023-04-21T12:00:39Z</time>
      </trkpt>
      <trkpt lat="49.07608" lon="-0.42879">
        <ele>17.2</ele>
        <time>2023-04-21T12:00:40Z</time>
      </trkpt>
      <trkpt lat="49.07602" lon="-0.42883">
        <ele>17.2</ele>
        <time>2023-04-21T12:00:41Z</time>
      </trkpt>
      <trkpt lat="49.07595" lon="-0.42887">
        <ele>17</ele>
        <time>2023-04-21T12:00:42Z</time>
      </trkpt>
      <trkpt lat="49.07589" lon="-0.4289">
        <ele>16.8</ele>
        <time>2023-04-21T12:00:43Z</time>
      </trkpt>
      <trkpt lat="49.07583" lon="-0.42894">
        <ele>16.6</ele>
        <time>2023-04-21T12:00:44Z</time>
      </trkpt>
      <trkpt lat="49.07576" lon="-0.42898">
        <ele>16.8</ele>
        <time>2023-04-21T12:00:45Z</time>
      </trkpt>
      <trkpt lat="49.0757" lon="-0.42902">
        <ele>16.8</ele>
        <time>2023-04-21T12:00:46Z</time>
      </trkpt>
      <trkpt lat="49.07563" lon="-0.42906">
        <ele>17</ele>
        <time>2023-04-21T12:00:47Z</time>
      </trkpt>
      <trkpt lat="49.07557" lon="-0.4291">
        <ele>17.2</ele>
        <time>2023-04-21T12:00:48Z</time>
      </trkpt>
      <trkpt lat="49.0755" lon="-0.42914">
        <ele>17.4</ele>
        <time>2023-04-21T12:00:49Z</time>
      </trkpt>
      <trkpt lat="49.07543" lon="-0.42918">
        <ele>17.8</ele>
        <time>2023-04-21T12:00:50Z</time>
      </trkpt>
      <trkpt lat="49.07537" lon="-0.42922">
        <ele>18.2</ele>
        <time>2023-04-21T12:00:51Z</time>
      </trkpt>
      <trkpt lat="49.0753" lon="-0.42926">
        <ele>18.4</ele>
        <time>2023-04-21T12:00:52Z</time>
      </trkpt>
      <trkpt lat="49.07524" lon="-0.4293">
        <ele>18.6</ele>
        <time>2023-04-21T12:00:53Z</time>
      </trkpt>
      <trkpt lat="49.07517" lon="-0.42934">
        <ele>18.8</ele>
        <time>2023-04-21T12:00:54Z</time>
      </trkpt>
      <trkpt lat="49.0751" lon="-0.42939">
        <ele>18.8</ele>
        <time>2023-04-21T12:00:55Z</time>
      </trkpt>
      <trkpt lat="49.07504" lon="-0.42943">
        <ele>18.8</ele>
        <time>2023-04-21T12:00:56Z</time>
      </trkpt>
      <trkpt lat="49.07497" lon="-0.42947">
        <ele>18.8</ele>
        <time>2023-04-21T12:00:57Z</time>
      </trkpt>
      <trkpt lat="49.0749" lon="-0.42951">
        <ele>18.8</ele>
        <time>2023-04-21T12:00:58Z</time>
      </trkpt>
      <trkpt lat="49.07484" lon="-0.42955">
        <ele>19.2</ele>
        <time>2023-04-21T12:00:59Z</time>
      </trkpt>
      <trkpt lat="49.07477" lon="-0.42959">
        <ele>19.2</ele>
        <time>2023-04-21T12:01:00Z</time>
      </trkpt>
      <trkpt lat="49.07471" lon="-0.42963">
        <ele>19.2</ele>
        <time>2023-04-21T12:01:01Z</time>
      </trkpt>
      <trkpt lat="49.07464" lon="-0.42967">
        <ele>19.2</ele>
        <time>2023-04-21T12:01:02Z</time>
      </trkpt>
      <trkpt lat="49.07457" lon="-0.4297">
        <ele>19.2</ele>
        <time>2023-04-21T12:01:03Z</time>
      </trkpt>
      <trkpt lat="49.07451" lon="-0.42974">
        <ele>19.2</ele>
        <time>2023-04-21T12:01:04Z</time>
      </trkpt>
      <trkpt lat="49.07444" lon="-0.42978">
        <ele>19.2</ele>
        <time>2023-04-21T12:01:05Z</time>
      </trkpt>
      <trkpt lat="49.07438" lon="-0.42982">
        <ele>19</ele>
        <time>2023-04-21T12:01:06Z</time>
      </trkpt>
      <trkpt lat="49.07432" lon="-0.42986">
        <ele>18.8</ele>
        <time>2023-04-21T12:01:07Z</time>
      </trkpt>
      <trkpt lat="49.07425" lon="-0.42989">
        <ele>18.6</ele>
        <time>2023-04-21T12:01:08Z</time>
      </trkpt>
      <trkpt lat="49.07419" lon="-0.42993">
        <ele>18.2</ele>
        <time>2023-04-21T12:01:09Z</time>
      </trkpt>
      <trkpt lat="49.07412" lon="-0.42997">
        <ele>18.4</ele>
        <time>2023-04-21T12:01:10Z</time>
      </trkpt>
      <trkpt lat="49.07406" lon="-0.43001">
        <ele>18.8</ele>
        <time>2023-04-21T12:01:11Z</time>
      </trkpt>
      <trkpt lat="49.074" lon="-0.43005">
        <ele>19.4</ele>
        <time>2023-04-21T12:01:12Z</time>
      </trkpt>
      <trkpt lat="49.07393" lon="-0.43009">
        <ele>19.8</ele>
        <time>2023-04-21T12:01:13Z</time>
      </trkpt>
      <trkpt lat="49.07387" lon="-0.43012">
        <ele>20.6</ele>
        <time>2023-04-21T12:01:14Z</time>
      </trkpt>
      <trkpt lat="49.07381" lon="-0.43016">
        <ele>20.8</ele>
        <time>2023-04-21T12:01:15Z</time>
      </trkpt>
      <trkpt lat="49.07374" lon="-0.4302">
        <ele>21.2</ele>
        <time>2023-04-21T12:01:16Z</time>
      </trkpt>
      <trkpt lat="49.07368" lon="-0.43025">
        <ele>21.6</ele>
        <time>2023-04-21T12:01:17Z</time>
      </trkpt>
      <trkpt lat="49.07362" lon="-0.43029">
        <ele>21.8</ele>
        <time>2023-04-21T12:01:18Z</time>
      </trkpt>
      <trkpt lat="49.07356" lon="-0.43033">
        <ele>21.8</ele>
        <time>2023-04-21T12:01:19Z</time>
      </trkpt>
      <trkpt lat="49.07349" lon="-0.43037">
        <ele>21.8</ele>
        <time>2023-04-21T12:01:20Z</time>
      </trkpt>
      <trkpt lat="49.07343" lon="-0.43042">
        <ele>21.8</ele>
        <time>2023-04-21T12:01:21Z</time>
      </trkpt>
      <trkpt lat="49.07337" lon="-0.43046">
        <ele>21.8</ele>
        <time>2023-04-21T12:01:22Z</time>
      </trkpt>
      <trkpt lat="49.07331" lon="-0.43051">
        <ele>21.4</ele>
        <time>2023-04-21T12:01:23Z</time>
      </trkpt>
      <trkpt lat="49.07325" lon="-0.43055">
        <ele>20.8</ele>
        <time>2023-04-21T12:01:24Z</time>
      </trkpt>
      <trkpt lat="49.07319" lon="-0.4306">
        <ele>20.4</ele>
        <time>2023-04-21T12:01:25Z</time>
      </trkpt>
      <trkpt lat="49.07313" lon="-0.43065">
        <ele>19.8</ele>
        <time>2023-04-21T12:01:26Z</time>
      </trkpt>
      <trkpt lat="49.07307" lon="-0.43069">
        <ele>19.4</ele>
        <time>2023-04-21T12:01:27Z</time>
      </trkpt>
      <trkpt lat="49.07302" lon="-0.43074">
        <ele>19</ele>
        <time>2023-04-21T12:01:28Z</time>
      </trkpt>
      <trkpt lat="49.07296" lon="-0.43079">
        <ele>18.6</ele>
        <time>2023-04-21T12:01:29Z</time>
      </trkpt>
      <trkpt lat="49.0729" lon="-0.43084">
        <ele>18.2</ele>
        <time>2023-04-21T12:01:30Z</time>
      </trkpt>
      <trkpt lat="49.07284" lon="-0.43088">
        <ele>18.2</ele>
        <time>2023-04-21T12:01:31Z</time>
      </trkpt>
      <trkpt lat="49.07278" lon="-0.43094">
        <ele>18.2</ele>
        <time>2023-04-21T12:01:32Z</time>
      </trkpt>
      <trkpt lat="49.07273" lon="-0.43098">
        <ele>18.2</ele>
        <time>2023-04-21T12:01:33Z</time>
      </trkpt>
      <trkpt lat="49.07267" lon="-0.43104">
        <ele>18</ele>
        <time>2023-04-21T12:01:34Z</time>
      </trkpt>
      <trkpt lat="49.07261" lon="-0.43109">
        <ele>17.8</ele>
        <time>2023-04-21T12:01:35Z</time>
      </trkpt>
      <trkpt lat="49.07255" lon="-0.43114">
        <ele>17.8</ele>
        <time>2023-04-21T12:01:36Z</time>
      </trkpt>
      <trkpt lat="49.0725" lon="-0.43119">
        <ele>17.6</ele>
        <time>2023-04-21T12:01:37Z</time>
      </trkpt>
      <trkpt lat="49.07244" lon="-0.43125">
        <ele>18.2</ele>
        <time>2023-04-21T12:01:38Z</time>
      </trkpt>
      <trkpt lat="49.07239" lon="-0.4313">
        <ele>18.6</ele>
        <time>2023-04-21T12:01:39Z</time>
      </trkpt>
      <trkpt lat="49.07233" lon="-0.43136">
        <ele>19</ele>
        <time>2023-04-21T12:01:40Z</time>
      </trkpt>
      <trkpt lat="49.07227" lon="-0.43141">
        <ele>19.2</ele>
        <time>2023-04-21T12:01:41Z</time>
      </trkpt>
      <trkpt lat="49.07222" lon="-0.43147">
        <ele>19.6</ele>
        <time>2023-04-21T12:01:42Z</time>
      </trkpt>
      <trkpt lat="49.07216" lon="-0.43153">
        <ele>19.8</ele>
        <time>2023-04-21T12:01:43Z</time>
      </trkpt>
      <trkpt lat="49.0721" lon="-0.43159">
        <ele>19.8</ele>
        <time>2023-04-21T12:01:44Z</time>
      </trkpt>
      <trkpt lat="49.07205" lon="-0.43165">
        <ele>19.8</ele>
        <time>2023-04-21T12:01:45Z</time>
      </trkpt>
      <trkpt lat="49.07199" lon="-0.43171">
        <ele>19.8</ele>
        <time>2023-04-21T12:01:46Z</time>
      </trkpt>
      <trkpt lat="49.07194" lon="-0.43177">
        <ele>20</ele>
        <time>2023-04-21T12:01:47Z</time>
      </trkpt>
      <trkpt lat="49.07188" lon="-0.43183">
        <ele>20</ele>
        <time>2023-04-21T12:01:48Z</time>
      </trkpt>
      <trkpt lat="49.07182" lon="-0.43189">
        <ele>19.8</ele>
        <time>2023-04-21T12:01:49Z</time>
      </trkpt>
      <trkpt lat="49.07177" lon="-0.43195">
        <ele>19.8</ele>
        <time>2023-04-21T12:01:50Z</time>
      </trkpt>
      <trkpt lat="49.07171" lon="-0.43201">
        <ele>19.2</ele>
        <time>2023-04-21T12:01:51Z</time>
      </trkpt>
      <trkpt lat="49.07166" lon="-0.43207">
        <ele>18.8</ele>
        <time>2023-04-21T12:01:52Z</time>
      </trkpt>
      <trkpt lat="49.0716" lon="-0.43213">
        <ele>19.2</ele>
        <time>2023-04-21T12:01:53Z</time>
      </trkpt>
      <trkpt lat="49.07155" lon="-0.43219">
        <ele>19.2</ele>
        <time>2023-04-21T12:01:54Z</time>
      </trkpt>
      <trkpt lat="49.0715" lon="-0.43225">
        <ele>19.2</ele>
        <time>2023-04-21T12:01:55Z</time>
      </trkpt>
      <trkpt lat="49.07144" lon="-0.43231">
        <ele>19.4</ele>
        <time>2023-04-21T12:01:56Z</time>
      </trkpt>
      <trkpt lat="49.07139" lon="-0.43237">
        <ele>19.4</ele>
        <time>2023-04-21T12:01:57Z</time>
      </trkpt>
      <trkpt lat="49.07133" lon="-0.43243">
        <ele>19.2</ele>
        <time>2023-04-21T12:01:58Z</time>
      </trkpt>
      <trkpt lat="49.07128" lon="-0.43249">
        <ele>19.2</ele>
        <time>2023-04-21T12:01:59Z</time>
      </trkpt>
      <trkpt lat="49.07122" lon="-0.43255">
        <ele>19.6</ele>
        <time>2023-04-21T12:02:00Z</time>
      </trkpt>
      <trkpt lat="49.07117" lon="-0.43261">
        <ele>19.8</ele>
        <time>2023-04-21T12:02:01Z</time>
      </trkpt>
      <trkpt lat="49.07111" lon="-0.43267">
        <ele>20</ele>
        <time>2023-04-21T12:02:02Z</time>
      </trkpt>
      <trkpt lat="49.07105" lon="-0.43273">
        <ele>20</ele>
        <time>2023-04-21T12:02:03Z</time>
      </trkpt>
      <trkpt lat="49.071" lon="-0.43279">
        <ele>19.8</ele>
        <time>2023-04-21T12:02:04Z</time>
      </trkpt>
      <trkpt lat="49.07094" lon="-0.43285">
        <ele>19.6</ele>
        <time>2023-04-21T12:02:05Z</time>
      </trkpt>
      <trkpt lat="49.07089" lon="-0.43291">
        <ele>19.2</ele>
        <time>2023-04-21T12:02:06Z</time>
      </trkpt>
      <trkpt lat="49.07083" lon="-0.43297">
        <ele>18.6</ele>
        <time>2023-04-21T12:02:07Z</time>
      </trkpt>
      <trkpt lat="49.07078" lon="-0.43303">
        <ele>18.8</ele>
        <time>2023-04-21T12:02:08Z</time>
      </trkpt>
      <trkpt lat="49.07073" lon="-0.43309">
        <ele>18.8</ele>
        <time>2023-04-21T12:02:09Z</time>
      </trkpt>
      <trkpt lat="49.07068" lon="-0.43314">
        <ele>19</ele>
        <time>2023-04-21T12:02:10Z</time>
      </trkpt>
      <trkpt lat="49.07063" lon="-0.4332">
        <ele>19.2</ele>
        <time>2023-04-21T12:02:11Z</time>
      </trkpt>
      <trkpt lat="49.07057" lon="-0.43325">
        <ele>19.2</ele>
        <time>2023-04-21T12:02:12Z</time>
      </trkpt>
      <trkpt lat="49.07053" lon="-0.4333">
        <ele>19.2</ele>
        <time>2023-04-21T12:02:13Z</time>
      </trkpt>
      <trkpt lat="49.07048" lon="-0.43336">
        <ele>19.6</ele>
        <time>2023-04-21T12:02:14Z</time>
      </trkpt>
      <trkpt lat="49.07043" lon="-0.43341">
        <ele>20.2</ele>
        <time>2023-04-21T12:02:15Z</time>
      </trkpt>
      <trkpt lat="49.07038" lon="-0.43346">
        <ele>20.8</ele>
        <time>2023-04-21T12:02:16Z</time>
      </trkpt>
      <trkpt lat="49.07033" lon="-0.43351">
        <ele>21.2</ele>
        <time>2023-04-21T12:02:17Z</time>
      </trkpt>
      <trkpt lat="49.07028" lon="-0.43357">
        <ele>21.2</ele>
        <time>2023-04-21T12:02:18Z</time>
      </trkpt>
      <trkpt lat="49.07023" lon="-0.43362">
        <ele>21.4</ele>
        <time>2023-04-21T12:02:19Z</time>
      </trkpt>
      <trkpt lat="49.07018" lon="-0.43367">
        <ele>21.2</ele>
        <time>2023-04-21T12:02:20Z</time>
      </trkpt>
      <trkpt lat="49.07013" lon="-0.43373">
        <ele>21.2</ele>
        <time>2023-04-21T12:02:21Z</time>
      </trkpt>
      <trkpt lat="49.07008" lon="-0.43378">
        <ele>20.8</ele>
        <time>2023-04-21T12:02:22Z</time>
      </trkpt>
      <trkpt lat="49.07003" lon="-0.43383">
        <ele>20.2</ele>
        <time>2023-04-21T12:02:23Z</time>
      </trkpt>
      <trkpt lat="49.06998" lon="-0.43388">
        <ele>19.8</ele>
        <time>2023-04-21T12:02:24Z</time>
      </trkpt>
      <trkpt lat="49.06993" lon="-0.43394">
        <ele>19.6</ele>
        <time>2023-04-21T12:02:25Z</time>
      </trkpt>
      <trkpt lat="49.06989" lon="-0.43399">
        <ele>19.2</ele>
        <time>2023-04-21T12:02:26Z</time>
      </trkpt>
      <trkpt lat="49.06984" lon="-0.43404">
        <ele>19.2</ele>
        <time>2023-04-21T12:02:27Z</time>
      </trkpt>
      <trkpt lat="49.06979" lon="-0.43409">
        <ele>19</ele>
        <time>2023-04-21T12:02:28Z</time>
      </trkpt>
      <trkpt lat="49.06974" lon="-0.43414">
        <ele>18.8</ele>
        <time>2023-04-21T12:02:29Z</time>
      </trkpt>
      <trkpt lat="49.06969" lon="-0.43419">
        <ele>19.2</ele>
        <time>2023-04-21T12:02:30Z</time>
      </trkpt>
      <trkpt lat="49.06964" lon="-0.43424">
        <ele>19.6</ele>
        <time>2023-04-21T12:02:31Z</time>
      </trkpt>
      <trkpt lat="49.06959" lon="-0.43429">
        <ele>19.8</ele>
        <time>2023-04-21T12:02:32Z</time>
      </trkpt>
      <trkpt lat="49.06954" lon="-0.43434">
        <ele>20.2</ele>
        <time>2023-04-21T12:02:33Z</time>
      </trkpt>
      <trkpt lat="49.06949" lon="-0.43439">
        <ele>20.4</ele>
        <time>2023-04-21T12:02:34Z</time>
      </trkpt>
      <trkpt lat="49.06944" lon="-0.43444">
        <ele>20.6</ele>
        <time>2023-04-21T12:02:35Z</time>
      </trkpt>
      <trkpt lat="49.06939" lon="-0.43449">
        <ele>20.6</ele>
        <time>2023-04-21T12:02:36Z</time>
      </trkpt>
      <trkpt lat="49.06934" lon="-0.43454">
        <ele>20.6</ele>
        <time>2023-04-21T12:02:37Z</time>
      </trkpt>
      <trkpt lat="49.06929" lon="-0.43459">
        <ele>20.2</ele>
        <time>2023-04-21T12:02:38Z</time>
      </trkpt>
      <trkpt lat="49.06924" lon="-0.43464">
        <ele>20.2</ele>
        <time>2023-04-21T12:02:39Z</time>
      </trkpt>
      <trkpt lat="49.06919" lon="-0.43469">
        <ele>19.8</ele>
        <time>2023-04-21T12:02:40Z</time>
      </trkpt>
      <trkpt lat="49.06914" lon="-0.43474">
        <ele>19.8</ele>
        <time>2023-04-21T12:02:41Z</time>
      </trkpt>
      <trkpt lat="49.06909" lon="-0.43478">
        <ele>20.6</ele>
        <time>2023-04-21T12:02:42Z</time>
      </trkpt>
      <trkpt lat="49.06904" lon="-0.43483">
        <ele>21.2</ele>
        <time>2023-04-21T12:02:43Z</time>
      </trkpt>
      <trkpt lat="49.06899" lon="-0.43488">
        <ele>21.8</ele>
        <time>2023-04-21T12:02:44Z</time>
      </trkpt>
      <trkpt lat="49.06895" lon="-0.43493">
        <ele>22.6</ele>
        <time>2023-04-21T12:02:45Z</time>
      </trkpt>
      <trkpt lat="49.0689" lon="-0.43498">
        <ele>23.2</ele>
        <time>2023-04-21T12:02:46Z</time>
      </trkpt>
      <trkpt lat="49.06885" lon="-0.43503">
        <ele>24.2</ele>
        <time>2023-04-21T12:02:47Z</time>
      </trkpt>
      <trkpt lat="49.0688" lon="-0.43508">
        <ele>24.8</ele>
        <time>2023-04-21T12:02:48Z</time>
      </trkpt>
      <trkpt lat="49.06875" lon="-0.43513">
        <ele>25.6</ele>
        <time>2023-04-21T12:02:49Z</time>
      </trkpt>
      <trkpt lat="49.06871" lon="-0.43518">
        <ele>26</ele>
        <time>2023-04-21T12:02:50Z</time>
      </trkpt>
      <trkpt lat="49.06866" lon="-0.43524">
        <ele>26.4</ele>
        <time>2023-04-21T12:02:51Z</time>
      </trkpt>
      <trkpt lat="49.06861" lon="-0.43529">
        <ele>26.8</ele>
        <time>2023-04-21T12:02:52Z</time>
      </trkpt>
      <trkpt lat="49.06856" lon="-0.43534">
        <ele>26.8</ele>
        <time>2023-04-21T12:02:53Z</time>
      </trkpt>
      <trkpt lat="49.06852" lon="-0.4354">
        <ele>26.8</ele>
        <time>2023-04-21T12:02:54Z</time>
      </trkpt>
      <trkpt lat="49.06847" lon="-0.43546">
        <ele>26.8</ele>
        <time>2023-04-21T12:02:55Z</time>
      </trkpt>
      <trkpt lat="49.06842" lon="-0.43551">
        <ele>26.6</ele>
        <time>2023-04-21T12:02:56Z</time>
      </trkpt>
      <trkpt lat="49.06838" lon="-0.43557">
        <ele>26.2</ele>
        <time>2023-04-21T12:02:57Z</time>
      </trkpt>
      <trkpt lat="49.06833" lon="-0.43563">
        <ele>25.6</ele>
        <time>2023-04-21T12:02:58Z</time>
      </trkpt>
      <trkpt lat="49.06829" lon="-0.43569">
        <ele>25.2</ele>
        <time>2023-04-21T12:02:59Z</time>
      </trkpt>
      <trkpt lat="49.06825" lon="-0.43576">
        <ele>25.2</ele>
        <time>2023-04-21T12:03:00Z</time>
      </trkpt>
      <trkpt lat="49.0682" lon="-0.43582">
        <ele>25</ele>
        <time>2023-04-21T12:03:01Z</time>
      </trkpt>
      <trkpt lat="49.06816" lon="-0.43588">
        <ele>25.2</ele>
        <time>2023-04-21T12:03:02Z</time>
      </trkpt>
      <trkpt lat="49.06812" lon="-0.43594">
        <ele>25.6</ele>
        <time>2023-04-21T12:03:03Z</time>
      </trkpt>
      <trkpt lat="49.06807" lon="-0.43601">
        <ele>25.8</ele>
        <time>2023-04-21T12:03:04Z</time>
      </trkpt>
      <trkpt lat="49.06803" lon="-0.43607">
        <ele>26</ele>
        <time>2023-04-21T12:03:05Z</time>
      </trkpt>
      <trkpt lat="49.06799" lon="-0.43613">
        <ele>26.2</ele>
        <time>2023-04-21T12:03:06Z</time>
      </trkpt>
      <trkpt lat="49.06795" lon="-0.4362">
        <ele>26.2</ele>
        <time>2023-04-21T12:03:07Z</time>
      </trkpt>
      <trkpt lat="49.06791" lon="-0.43626">
        <ele>26.2</ele>
        <time>2023-04-21T12:03:08Z</time>
      </trkpt>
      <trkpt lat="49.06787" lon="-0.43633">
        <ele>26.2</ele>
        <time>2023-04-21T12:03:09Z</time>
      </trkpt>
      <trkpt lat="49.06783" lon="-0.4364">
        <ele>26</ele>
        <time>2023-04-21T12:03:10Z</time>
      </trkpt>
      <trkpt lat="49.06779" lon="-0.43646">
        <ele>25.8</ele>
        <time>2023-04-21T12:03:11Z</time>
      </trkpt>
      <trkpt lat="49.06775" lon="-0.43653">
        <ele>25.6</ele>
        <time>2023-04-21T12:03:12Z</time>
      </trkpt>
      <trkpt lat="49.06771" lon="-0.4366">
        <ele>25.2</ele>
        <time>2023-04-21T12:03:13Z</time>
      </trkpt>
      <trkpt lat="49.06766" lon="-0.43666">
        <ele>24.8</ele>
        <time>2023-04-21T12:03:14Z</time>
      </trkpt>
      <trkpt lat="49.06762" lon="-0.43673">
        <ele>24.8</ele>
        <time>2023-04-21T12:03:15Z</time>
      </trkpt>
      <trkpt lat="49.06758" lon="-0.4368">
        <ele>24.8</ele>
        <time>2023-04-21T12:03:16Z</time>
      </trkpt>
      <trkpt lat="49.06754" lon="-0.43686">
        <ele>24.6</ele>
        <time>2023-04-21T12:03:17Z</time>
      </trkpt>
      <trkpt lat="49.0675" lon="-0.43693">
        <ele>24.2</ele>
        <time>2023-04-21T12:03:18Z</time>
      </trkpt>
      <trkpt lat="49.06746" lon="-0.437">
        <ele>24.2</ele>
        <time>2023-04-21T12:03:19Z</time>
      </trkpt>
      <trkpt lat="49.06742" lon="-0.43707">
        <ele>24.2</ele>
        <time>2023-04-21T12:03:20Z</time>
      </trkpt>
      <trkpt lat="49.06738" lon="-0.43713">
        <ele>24.2</ele>
        <time>2023-04-21T12:03:21Z</time>
      </trkpt>
      <trkpt lat="49.06734" lon="-0.4372">
        <ele>24.2</ele>
        <time>2023-04-21T12:03:22Z</time>
      </trkpt>
      <trkpt lat="49.0673" lon="-0.43727">
        <ele>24.4</ele>
        <time>2023-04-21T12:03:23Z</time>
      </trkpt>
      <trkpt lat="49.06726" lon="-0.43733">
        <ele>24.4</ele>
        <time>2023-04-21T12:03:24Z</time>
      </trkpt>
      <trkpt lat="49.06722" lon="-0.4374">
        <ele>24.6</ele>
        <time>2023-04-21T12:03:25Z</time>
      </trkpt>
      <trkpt lat="49.06718" lon="-0.43746">
        <ele>24.6</ele>
        <time>2023-04-21T12:03:26Z</time>
      </trkpt>
      <trkpt lat="49.06714" lon="-0.43753">
        <ele>24.8</ele>
        <time>2023-04-21T12:03:27Z</time>
      </trkpt>
      <trkpt lat="49.0671" lon="-0.4376">
        <ele>25.2</ele>
        <time>2023-04-21T12:03:28Z</time>
      </trkpt>
      <trkpt lat="49.06706" lon="-0.43766">
        <ele>25.6</ele>
        <time>2023-04-21T12:03:29Z</time>
      </trkpt>
      <trkpt lat="49.06702" lon="-0.43773">
        <ele>25.8</ele>
        <time>2023-04-21T12:03:30Z</time>
      </trkpt>
      <trkpt lat="49.06698" lon="-0.43779">
        <ele>25.8</ele>
        <time>2023-04-21T12:03:31Z</time>
      </trkpt>
      <trkpt lat="49.06694" lon="-0.43786">
        <ele>26</ele>
        <time>2023-04-21T12:03:32Z</time>
      </trkpt>
      <trkpt lat="49.0669" lon="-0.43793">
        <ele>26.2</ele>
        <time>2023-04-21T12:03:33Z</time>
      </trkpt>
      <trkpt lat="49.06686" lon="-0.43799">
        <ele>26.2</ele>
        <time>2023-04-21T12:03:34Z</time>
      </trkpt>
      <trkpt lat="49.06682" lon="-0.43806">
        <ele>26</ele>
        <time>2023-04-21T12:03:35Z</time>
      </trkpt>
      <trkpt lat="49.06679" lon="-0.43812">
        <ele>25.8</ele>
        <time>2023-04-21T12:03:36Z</time>
      </trkpt>
      <trkpt lat="49.06675" lon="-0.43819">
        <ele>25.8</ele>
        <time>2023-04-21T12:03:37Z</time>
      </trkpt>
      <trkpt lat="49.06671" lon="-0.43825">
        <ele>25.6</ele>
        <time>2023-04-21T12:03:38Z</time>
      </trkpt>
      <trkpt lat="49.06667" lon="-0.43832">
        <ele>25.2</ele>
        <time>2023-04-21T12:03:39Z</time>
      </trkpt>
      <trkpt lat="49.06663" lon="-0.43838">
        <ele>25</ele>
        <time>2023-04-21T12:03:40Z</time>
      </trkpt>
      <trkpt lat="49.06659" lon="-0.43845">
        <ele>24.8</ele>
        <time>2023-04-21T12:03:41Z</time>
      </trkpt>
      <trkpt lat="49.06655" lon="-0.43851">
        <ele>24.6</ele>
        <time>2023-04-21T12:03:42Z</time>
      </trkpt>
      <trkpt lat="49.06651" lon="-0.43858">
        <ele>24.2</ele>
        <time>2023-04-21T12:03:43Z</time>
      </trkpt>
      <trkpt lat="49.06647" lon="-0.43864">
        <ele>23.8</ele>
        <time>2023-04-21T12:03:44Z</time>
      </trkpt>
      <trkpt lat="49.06643" lon="-0.4387">
        <ele>23.2</ele>
        <time>2023-04-21T12:03:45Z</time>
      </trkpt>
      <trkpt lat="49.06639" lon="-0.43877">
        <ele>22.8</ele>
        <time>2023-04-21T12:03:46Z</time>
      </trkpt>
      <trkpt lat="49.06636" lon="-0.43883">
        <ele>22.4</ele>
        <time>2023-04-21T12:03:47Z</time>
      </trkpt>
      <trkpt lat="49.06632" lon="-0.43889">
        <ele>21.8</ele>
        <time>2023-04-21T12:03:48Z</time>
      </trkpt>
      <trkpt lat="49.06628" lon="-0.43895">
        <ele>21.2</ele>
        <time>2023-04-21T12:03:49Z</time>
      </trkpt>
      <trkpt lat="49.06624" lon="-0.43902">
        <ele>20.8</ele>
        <time>2023-04-21T12:03:50Z</time>
      </trkpt>
      <trkpt lat="49.0662" lon="-0.43908">
        <ele>20.2</ele>
        <time>2023-04-21T12:03:51Z</time>
      </trkpt>
      <trkpt lat="49.06616" lon="-0.43914">
        <ele>19.6</ele>
        <time>2023-04-21T12:03:52Z</time>
      </trkpt>
      <trkpt lat="49.06612" lon="-0.4392">
        <ele>19.2</ele>
        <time>2023-04-21T12:03:53Z</time>
      </trkpt>
      <trkpt lat="49.06608" lon="-0.43925">
        <ele>18.8</ele>
        <time>2023-04-21T12:03:54Z</time>
      </trkpt>
      <trkpt lat="49.06604" lon="-0.43931">
        <ele>18.8</ele>
        <time>2023-04-21T12:03:55Z</time>
      </trkpt>
      <trkpt lat="49.066" lon="-0.43938">
        <ele>18.4</ele>
        <time>2023-04-21T12:03:56Z</time>
      </trkpt>
      <trkpt lat="49.06596" lon="-0.43944">
        <ele>18.2</ele>
        <time>2023-04-21T12:03:57Z</time>
      </trkpt>
      <trkpt lat="49.06592" lon="-0.4395">
        <ele>17.8</ele>
        <time>2023-04-21T12:03:58Z</time>
      </trkpt>
      <trkpt lat="49.06588" lon="-0.43956">
        <ele>17.6</ele>
        <time>2023-04-21T12:03:59Z</time>
      </trkpt>
      <trkpt lat="49.06585" lon="-0.43962">
        <ele>17.2</ele>
        <time>2023-04-21T12:04:00Z</time>
      </trkpt>
      <trkpt lat="49.06581" lon="-0.43969">
        <ele>16.6</ele>
        <time>2023-04-21T12:04:01Z</time>
      </trkpt>
      <trkpt lat="49.06577" lon="-0.43975">
        <ele>16.2</ele>
        <time>2023-04-21T12:04:02Z</time>
      </trkpt>
      <trkpt lat="49.06574" lon="-0.43982">
        <ele>15.6</ele>
        <time>2023-04-21T12:04:03Z</time>
      </trkpt>
      <trkpt lat="49.0657" lon="-0.43989">
        <ele>15.2</ele>
        <time>2023-04-21T12:04:04Z</time>
      </trkpt>
      <trkpt lat="49.06567" lon="-0.43996">
        <ele>14.6</ele>
        <time>2023-04-21T12:04:05Z</time>
      </trkpt>
      <trkpt lat="49.06563" lon="-0.44002">
        <ele>14.4</ele>
        <time>2023-04-21T12:04:06Z</time>
      </trkpt>
      <trkpt lat="49.0656" lon="-0.44009">
        <ele>15.2</ele>
        <time>2023-04-21T12:04:07Z</time>
      </trkpt>
      <trkpt lat="49.06556" lon="-0.44015">
        <ele>15.6</ele>
        <time>2023-04-21T12:04:08Z</time>
      </trkpt>
      <trkpt lat="49.06552" lon="-0.44022">
        <ele>16.2</ele>
        <time>2023-04-21T12:04:09Z</time>
      </trkpt>
      <trkpt lat="49.06548" lon="-0.44029">
        <ele>16.8</ele>
        <time>2023-04-21T12:04:10Z</time>
      </trkpt>
      <trkpt lat="49.06545" lon="-0.44035">
        <ele>17.6</ele>
        <time>2023-04-21T12:04:11Z</time>
      </trkpt>
      <trkpt lat="49.06541" lon="-0.44042">
        <ele>18</ele>
        <time>2023-04-21T12:04:12Z</time>
      </trkpt>
      <trkpt lat="49.06538" lon="-0.44049">
        <ele>18.6</ele>
        <time>2023-04-21T12:04:13Z</time>
      </trkpt>
      <trkpt lat="49.06534" lon="-0.44056">
        <ele>19.2</ele>
        <time>2023-04-21T12:04:14Z</time>
      </trkpt>
      <trkpt lat="49.06531" lon="-0.44063">
        <ele>19.8</ele>
        <time>2023-04-21T12:04:15Z</time>
      </trkpt>
      <trkpt lat="49.06527" lon="-0.4407">
        <ele>20.2</ele>
        <time>2023-04-21T12:04:16Z</time>
      </trkpt>
      <trkpt lat="49.06524" lon="-0.44076">
        <ele>20.8</ele>
        <time>2023-04-21T12:04:17Z</time>
      </trkpt>
      <trkpt lat="49.0652" lon="-0.44083">
        <ele>21.2</ele>
        <time>2023-04-21T12:04:18Z</time>
      </trkpt>
      <trkpt lat="49.06517" lon="-0.44089">
        <ele>21.8</ele>
        <time>2023-04-21T12:04:19Z</time>
      </trkpt>
      <trkpt lat="49.06514" lon="-0.44096">
        <ele>22.2</ele>
        <time>2023-04-21T12:04:20Z</time>
      </trkpt>
      <trkpt lat="49.06511" lon="-0.44102">
        <ele>22.8</ele>
        <time>2023-04-21T12:04:21Z</time>
      </trkpt>
      <trkpt lat="49.06509" lon="-0.44109">
        <ele>23.4</ele>
        <time>2023-04-21T12:04:22Z</time>
      </trkpt>
      <trkpt lat="49.06507" lon="-0.44115">
        <ele>23.8</ele>
        <time>2023-04-21T12:04:23Z</time>
      </trkpt>
      <trkpt lat="49.06505" lon="-0.44121">
        <ele>24.4</ele>
        <time>2023-04-21T12:04:24Z</time>
      </trkpt>
      <trkpt lat="49.06502" lon="-0.44128">
        <ele>24.8</ele>
        <time>2023-04-21T12:04:25Z</time>
      </trkpt>
      <trkpt lat="49.065" lon="-0.44134">
        <ele>25.2</ele>
        <time>2023-04-21T12:04:26Z</time>
      </trkpt>
      <trkpt lat="49.06497" lon="-0.44141">
        <ele>25.8</ele>
        <time>2023-04-21T12:04:27Z</time>
      </trkpt>
      <trkpt lat="49.06495" lon="-0.44148">
        <ele>26.2</ele>
        <time>2023-04-21T12:04:28Z</time>
      </trkpt>
      <trkpt lat="49.06492" lon="-0.44155">
        <ele>26.6</ele>
        <time>2023-04-21T12:04:29Z</time>
      </trkpt>
      <trkpt lat="49.0649" lon="-0.44162">
        <ele>27</ele>
        <time>2023-04-21T12:04:30Z</time>
      </trkpt>
      <trkpt lat="49.06488" lon="-0.4417">
        <ele>27.2</ele>
        <time>2023-04-21T12:04:31Z</time>
      </trkpt>
      <trkpt lat="49.06485" lon="-0.44177">
        <ele>27.8</ele>
        <time>2023-04-21T12:04:32Z</time>
      </trkpt>
      <trkpt lat="49.06483" lon="-0.44184">
        <ele>28</ele>
        <time>2023-04-21T12:04:33Z</time>
      </trkpt>
      <trkpt lat="49.06481" lon="-0.44192">
        <ele>28.4</ele>
        <time>2023-04-21T12:04:34Z</time>
      </trkpt>
      <trkpt lat="49.06478" lon="-0.442">
        <ele>28.8</ele>
        <time>2023-04-21T12:04:35Z</time>
      </trkpt>
      <trkpt lat="49.06476" lon="-0.44208">
        <ele>29.2</ele>
        <time>2023-04-21T12:04:36Z</time>
      </trkpt>
      <trkpt lat="49.06475" lon="-0.44216">
        <ele>29.6</ele>
        <time>2023-04-21T12:04:37Z</time>
      </trkpt>
      <trkpt lat="49.06473" lon="-0.44224">
        <ele>30</ele>
        <time>2023-04-21T12:04:38Z</time>
      </trkpt>
      <trkpt lat="49.06471" lon="-0.44232">
        <ele>30.2</ele>
        <time>2023-04-21T12:04:39Z</time>
      </trkpt>
      <trkpt lat="49.06469" lon="-0.4424">
        <ele>30.8</ele>
        <time>2023-04-21T12:04:40Z</time>
      </trkpt>
      <trkpt lat="49.06468" lon="-0.44248">
        <ele>31.2</ele>
        <time>2023-04-21T12:04:41Z</time>
      </trkpt>
      <trkpt lat="49.06466" lon="-0.44256">
        <ele>31.6</ele>
        <time>2023-04-21T12:04:42Z</time>
      </trkpt>
      <trkpt lat="49.06464" lon="-0.44265">
        <ele>31.8</ele>
        <time>2023-04-21T12:04:43Z</time>
      </trkpt>
      <trkpt lat="49.06463" lon="-0.44273">
        <ele>32.2</ele>
        <time>2023-04-21T12:04:44Z</time>
      </trkpt>
      <trkpt lat="49.06461" lon="-0.44282">
        <ele>32.8</ele>
        <time>2023-04-21T12:04:45Z</time>
      </trkpt>
      <trkpt lat="49.0646" lon="-0.44291">
        <ele>33</ele>
        <time>2023-04-21T12:04:46Z</time>
      </trkpt>
      <trkpt lat="49.06458" lon="-0.443">
        <ele>33.6</ele>
        <time>2023-04-21T12:04:47Z</time>
      </trkpt>
      <trkpt lat="49.06457" lon="-0.44309">
        <ele>34</ele>
        <time>2023-04-21T12:04:48Z</time>
      </trkpt>
      <trkpt lat="49.06456" lon="-0.44318">
        <ele>34.4</ele>
        <time>2023-04-21T12:04:49Z</time>
      </trkpt>
      <trkpt lat="49.06455" lon="-0.44327">
        <ele>34.8</ele>
        <time>2023-04-21T12:04:50Z</time>
      </trkpt>
      <trkpt lat="49.06454" lon="-0.44336">
        <ele>35</ele>
        <time>2023-04-21T12:04:51Z</time>
      </trkpt>
      <trkpt lat="49.06453" lon="-0.44345">
        <ele>35</ele>
        <time>2023-04-21T12:04:52Z</time>
      </trkpt>
      <trkpt lat="49.06452" lon="-0.44355">
        <ele>35</ele>
        <time>2023-04-21T12:04:53Z</time>
      </trkpt>
      <trkpt lat="49.06451" lon="-0.44364">
        <ele>35</ele>
        <time>2023-04-21T12:04:54Z</time>
      </trkpt>
      <trkpt lat="49.0645" lon="-0.44373">
        <ele>35</ele>
        <time>2023-04-21T12:04:55Z</time>
      </trkpt>
      <trkpt lat="49.0645" lon="-0.44383">
        <ele>35</ele>
        <time>2023-04-21T12:04:56Z</time>
      </trkpt>
      <trkpt lat="49.06449" lon="-0.44393">
        <ele>35.2</ele>
        <time>2023-04-21T12:04:57Z</time>
      </trkpt>
      <trkpt lat="49.06449" lon="-0.44402">
        <ele>35.2</ele>
        <time>2023-04-21T12:04:58Z</time>
      </trkpt>
      <trkpt lat="49.06449" lon="-0.44412">
        <ele>35.2</ele>
        <time>2023-04-21T12:04:59Z</time>
      </trkpt>
      <trkpt lat="49.06449" lon="-0.44422">
        <ele>34.8</ele>
        <time>2023-04-21T12:05:00Z</time>
      </trkpt>
      <trkpt lat="49.06449" lon="-0.44432">
        <ele>34</ele>
        <time>2023-04-21T12:05:01Z</time>
      </trkpt>
      <trkpt lat="49.06449" lon="-0.44442">
        <ele>33.4</ele>
        <time>2023-04-21T12:05:02Z</time>
      </trkpt>
      <trkpt lat="49.06449" lon="-0.44452">
        <ele>32.8</ele>
        <time>2023-04-21T12:05:03Z</time>
      </trkpt>
      <trkpt lat="49.0645" lon="-0.44462">
        <ele>32</ele>
        <time>2023-04-21T12:05:04Z</time>
      </trkpt>
      <trkpt lat="49.0645" lon="-0.44472">
        <ele>31.6</ele>
        <time>2023-04-21T12:05:05Z</time>
      </trkpt>
      <trkpt lat="49.06451" lon="-0.44482">
        <ele>30.8</ele>
        <time>2023-04-21T12:05:06Z</time>
      </trkpt>
      <trkpt lat="49.06452" lon="-0.44492">
        <ele>30.2</ele>
        <time>2023-04-21T12:05:07Z</time>
      </trkpt>
      <trkpt lat="49.06453" lon="-0.44502">
        <ele>29.8</ele>
        <time>2023-04-21T12:05:08Z</time>
      </trkpt>
      <trkpt lat="49.06453" lon="-0.44512">
        <ele>28.8</ele>
        <time>2023-04-21T12:05:09Z</time>
      </trkpt>
      <trkpt lat="49.06454" lon="-0.44522">
        <ele>27.8</ele>
        <time>2023-04-21T12:05:10Z</time>
      </trkpt>
      <trkpt lat="49.06455" lon="-0.44532">
        <ele>27</ele>
        <time>2023-04-21T12:05:11Z</time>
      </trkpt>
      <trkpt lat="49.06456" lon="-0.44543">
        <ele>26</ele>
        <time>2023-04-21T12:05:12Z</time>
      </trkpt>
      <trkpt lat="49.06456" lon="-0.44553">
        <ele>25</ele>
        <time>2023-04-21T12:05:13Z</time>
      </trkpt>
      <trkpt lat="49.06457" lon="-0.44563">
        <ele>24.2</ele>
        <time>2023-04-21T12:05:14Z</time>
      </trkpt>
      <trkpt lat="49.06458" lon="-0.44573">
        <ele>23.2</ele>
        <time>2023-04-21T12:05:15Z</time>
      </trkpt>
      <trkpt lat="49.06459" lon="-0.44582">
        <ele>22.2</ele>
        <time>2023-04-21T12:05:16Z</time>
      </trkpt>
      <trkpt lat="49.0646" lon="-0.44592">
        <ele>22.4</ele>
        <time>2023-04-21T12:05:17Z</time>
      </trkpt>
      <trkpt lat="49.06462" lon="-0.44602">
        <ele>22.8</ele>
        <time>2023-04-21T12:05:18Z</time>
      </trkpt>
      <trkpt lat="49.06464" lon="-0.44611">
        <ele>23</ele>
        <time>2023-04-21T12:05:19Z</time>
      </trkpt>
      <trkpt lat="49.06465" lon="-0.4462">
        <ele>23.2</ele>
        <time>2023-04-21T12:05:20Z</time>
      </trkpt>
      <trkpt lat="49.06467" lon="-0.4463">
        <ele>23.4</ele>
        <time>2023-04-21T12:05:21Z</time>
      </trkpt>
      <trkpt lat="49.06469" lon="-0.44639">
        <ele>23.4</ele>
        <time>2023-04-21T12:05:22Z</time>
      </trkpt>
      <trkpt lat="49.06471" lon="-0.44649">
        <ele>23.4</ele>
        <time>2023-04-21T12:05:23Z</time>
      </trkpt>
      <trkpt lat="49.06473" lon="-0.44658">
        <ele>23.2</ele>
        <time>2023-04-21T12:05:24Z</time>
      </trkpt>
      <trkpt lat="49.06475" lon="-0.44668">
        <ele>23.2</ele>
        <time>2023-04-21T12:05:25Z</time>
      </trkpt>
      <trkpt lat="49.06476" lon="-0.44678">
        <ele>24.2</ele>
        <time>2023-04-21T12:05:26Z</time>
      </trkpt>
      <trkpt lat="49.06478" lon="-0.44688">
        <ele>24.8</ele>
        <time>2023-04-21T12:05:27Z</time>
      </trkpt>
      <trkpt lat="49.0648" lon="-0.44698">
        <ele>25.8</ele>
        <time>2023-04-21T12:05:28Z</time>
      </trkpt>
      <trkpt lat="49.06482" lon="-0.44708">
        <ele>26.4</ele>
        <time>2023-04-21T12:05:29Z</time>
      </trkpt>
      <trkpt lat="49.06483" lon="-0.44718">
        <ele>27.2</ele>
        <time>2023-04-21T12:05:30Z</time>
      </trkpt>
      <trkpt lat="49.06485" lon="-0.44728">
        <ele>27.8</ele>
        <time>2023-04-21T12:05:31Z</time>
      </trkpt>
      <trkpt lat="49.06487" lon="-0.44738">
        <ele>28.4</ele>
        <time>2023-04-21T12:05:32Z</time>
      </trkpt>
      <trkpt lat="49.06488" lon="-0.44749">
        <ele>29</ele>
        <time>2023-04-21T12:05:33Z</time>
      </trkpt>
      <trkpt lat="49.0649" lon="-0.44759">
        <ele>29.6</ele>
        <time>2023-04-21T12:05:34Z</time>
      </trkpt>
      <trkpt lat="49.06491" lon="-0.44769">
        <ele>30.2</ele>
        <time>2023-04-21T12:05:35Z</time>
      </trkpt>
      <trkpt lat="49.06493" lon="-0.44779">
        <ele>30.8</ele>
        <time>2023-04-21T12:05:36Z</time>
      </trkpt>
      <trkpt lat="49.06494" lon="-0.44789">
        <ele>31.4</ele>
        <time>2023-04-21T12:05:37Z</time>
      </trkpt>
      <trkpt lat="49.06496" lon="-0.44799">
        <ele>31.8</ele>
        <time>2023-04-21T12:05:38Z</time>
      </trkpt>
      <trkpt lat="49.06497" lon="-0.4481">
        <ele>32.6</ele>
        <time>2023-04-21T12:05:39Z</time>
      </trkpt>
      <trkpt lat="49.06499" lon="-0.4482">
        <ele>33</ele>
        <time>2023-04-21T12:05:40Z</time>
      </trkpt>
      <trkpt lat="49.06501" lon="-0.4483">
        <ele>33.6</ele>
        <time>2023-04-21T12:05:41Z</time>
      </trkpt>
      <trkpt lat="49.06502" lon="-0.4484">
        <ele>33.8</ele>
        <time>2023-04-21T12:05:42Z</time>
      </trkpt>
      <trkpt lat="49.06504" lon="-0.44851">
        <ele>33.8</ele>
        <time>2023-04-21T12:05:43Z</time>
      </trkpt>
      <trkpt lat="49.06505" lon="-0.44861">
        <ele>34</ele>
        <time>2023-04-21T12:05:44Z</time>
      </trkpt>
      <trkpt lat="49.06507" lon="-0.44872">
        <ele>34</ele>
        <time>2023-04-21T12:05:45Z</time>
      </trkpt>
      <trkpt lat="49.06508" lon="-0.44883">
        <ele>34</ele>
        <time>2023-04-21T12:05:46Z</time>
      </trkpt>
      <trkpt lat="49.0651" lon="-0.44893">
        <ele>34</ele>
        <time>2023-04-21T12:05:47Z</time>
      </trkpt>
      <trkpt lat="49.06511" lon="-0.44904">
        <ele>34.2</ele>
        <time>2023-04-21T12:05:48Z</time>
      </trkpt>
      <trkpt lat="49.06512" lon="-0.44915">
        <ele>34.4</ele>
        <time>2023-04-21T12:05:49Z</time>
      </trkpt>
      <trkpt lat="49.06513" lon="-0.44926">
        <ele>34.2</ele>
        <time>2023-04-21T12:05:50Z</time>
      </trkpt>
      <trkpt lat="49.06513" lon="-0.44937">
        <ele>34.2</ele>
        <time>2023-04-21T12:05:51Z</time>
      </trkpt>
      <trkpt lat="49.06514" lon="-0.44948">
        <ele>34.2</ele>
        <time>2023-04-21T12:05:52Z</time>
      </trkpt>
      <trkpt lat="49.06514" lon="-0.44959">
        <ele>34.4</ele>
        <time>2023-04-21T12:05:53Z</time>
      </trkpt>
      <trkpt lat="49.06514" lon="-0.4497">
        <ele>34.6</ele>
        <time>2023-04-21T12:05:54Z</time>
      </trkpt>
      <trkpt lat="49.06514" lon="-0.44981">
        <ele>34.6</ele>
        <time>2023-04-21T12:05:55Z</time>
      </trkpt>
      <trkpt lat="49.06513" lon="-0.44992">
        <ele>34.8</ele>
        <time>2023-04-21T12:05:56Z</time>
      </trkpt>
      <trkpt lat="49.06513" lon="-0.45003">
        <ele>34.8</ele>
        <time>2023-04-21T12:05:57Z</time>
      </trkpt>
      <trkpt lat="49.06512" lon="-0.45014">
        <ele>34.4</ele>
        <time>2023-04-21T12:05:58Z</time>
      </trkpt>
      <trkpt lat="49.06511" lon="-0.45025">
        <ele>34</ele>
        <time>2023-04-21T12:05:59Z</time>
      </trkpt>
      <trkpt lat="49.06511" lon="-0.45036">
        <ele>33.6</ele>
        <time>2023-04-21T12:06:00Z</time>
      </trkpt>
      <trkpt lat="49.0651" lon="-0.45047">
        <ele>33</ele>
        <time>2023-04-21T12:06:01Z</time>
      </trkpt>
      <trkpt lat="49.06509" lon="-0.45058">
        <ele>32.8</ele>
        <time>2023-04-21T12:06:02Z</time>
      </trkpt>
      <trkpt lat="49.06508" lon="-0.4507">
        <ele>32.2</ele>
        <time>2023-04-21T12:06:03Z</time>
      </trkpt>
      <trkpt lat="49.06506" lon="-0.45081">
        <ele>32</ele>
        <time>2023-04-21T12:06:04Z</time>
      </trkpt>
      <trkpt lat="49.06504" lon="-0.45093">
        <ele>31.2</ele>
        <time>2023-04-21T12:06:05Z</time>
      </trkpt>
      <trkpt lat="49.06502" lon="-0.45104">
        <ele>30.4</ele>
        <time>2023-04-21T12:06:06Z</time>
      </trkpt>
      <trkpt lat="49.06499" lon="-0.45116">
        <ele>29.8</ele>
        <time>2023-04-21T12:06:07Z</time>
      </trkpt>
      <trkpt lat="49.06496" lon="-0.45129">
        <ele>29.4</ele>
        <time>2023-04-21T12:06:08Z</time>
      </trkpt>
      <trkpt lat="49.06493" lon="-0.45141">
        <ele>29.2</ele>
        <time>2023-04-21T12:06:09Z</time>
      </trkpt>
      <trkpt lat="49.0649" lon="-0.45153">
        <ele>28.8</ele>
        <time>2023-04-21T12:06:10Z</time>
      </trkpt>
      <trkpt lat="49.06487" lon="-0.45165">
        <ele>28.6</ele>
        <time>2023-04-21T12:06:11Z</time>
      </trkpt>
      <trkpt lat="49.06485" lon="-0.45176">
        <ele>28.4</ele>
        <time>2023-04-21T12:06:12Z</time>
      </trkpt>
      <trkpt lat="49.06482" lon="-0.45188">
        <ele>28.4</ele>
        <time>2023-04-21T12:06:13Z</time>
      </trkpt>
      <trkpt lat="49.06478" lon="-0.452">
        <ele>28.6</ele>
        <time>2023-04-21T12:06:14Z</time>
      </trkpt>
      <trkpt lat="49.06475" lon="-0.45213">
        <ele>28.6</ele>
        <time>2023-04-21T12:06:15Z</time>
      </trkpt>
      <trkpt lat="49.06471" lon="-0.45225">
        <ele>28.8</ele>
        <time>2023-04-21T12:06:16Z</time>
      </trkpt>
      <trkpt lat="49.06468" lon="-0.45237">
        <ele>28.8</ele>
        <time>2023-04-21T12:06:17Z</time>
      </trkpt>
      <trkpt lat="49.06464" lon="-0.4525">
        <ele>28.8</ele>
        <time>2023-04-21T12:06:18Z</time>
      </trkpt>
      <trkpt lat="49.06461" lon="-0.45262">
        <ele>29.6</ele>
        <time>2023-04-21T12:06:19Z</time>
      </trkpt>
      <trkpt lat="49.06458" lon="-0.45274">
        <ele>30</ele>
        <time>2023-04-21T12:06:20Z</time>
      </trkpt>
      <trkpt lat="49.06455" lon="-0.45286">
        <ele>30.4</ele>
        <time>2023-04-21T12:06:21Z</time>
      </trkpt>
      <trkpt lat="49.06452" lon="-0.45298">
        <ele>30.8</ele>
        <time>2023-04-21T12:06:22Z</time>
      </trkpt>
      <trkpt lat="49.06448" lon="-0.4531">
        <ele>30.8</ele>
        <time>2023-04-21T12:06:23Z</time>
      </trkpt>
      <trkpt lat="49.06445" lon="-0.45321">
        <ele>31</ele>
        <time>2023-04-21T12:06:24Z</time>
      </trkpt>
      <trkpt lat="49.06442" lon="-0.45333">
        <ele>31</ele>
        <time>2023-04-21T12:06:25Z</time>
      </trkpt>
      <trkpt lat="49.06438" lon="-0.45345">
        <ele>30.8</ele>
        <time>2023-04-21T12:06:26Z</time>
      </trkpt>
      <trkpt lat="49.06435" lon="-0.45357">
        <ele>30.6</ele>
        <time>2023-04-21T12:06:27Z</time>
      </trkpt>
      <trkpt lat="49.06432" lon="-0.45369">
        <ele>30.2</ele>
        <time>2023-04-21T12:06:28Z</time>
      </trkpt>
      <trkpt lat="49.06429" lon="-0.45381">
        <ele>29.6</ele>
        <time>2023-04-21T12:06:29Z</time>
      </trkpt>
      <trkpt lat="49.06426" lon="-0.45393">
        <ele>28.8</ele>
        <time>2023-04-21T12:06:30Z</time>
      </trkpt>
      <trkpt lat="49.06423" lon="-0.45405">
        <ele>27.8</ele>
        <time>2023-04-21T12:06:31Z</time>
      </trkpt>
      <trkpt lat="49.06421" lon="-0.45417">
        <ele>26.8</ele>
        <time>2023-04-21T12:06:32Z</time>
      </trkpt>
      <trkpt lat="49.06418" lon="-0.45429">
        <ele>25.8</ele>
        <time>2023-04-21T12:06:33Z</time>
      </trkpt>
      <trkpt lat="49.06415" lon="-0.45441">
        <ele>25.6</ele>
        <time>2023-04-21T12:06:34Z</time>
      </trkpt>
      <trkpt lat="49.06411" lon="-0.45454">
        <ele>25.4</ele>
        <time>2023-04-21T12:06:35Z</time>
      </trkpt>
      <trkpt lat="49.06407" lon="-0.45466">
        <ele>25.2</ele>
        <time>2023-04-21T12:06:36Z</time>
      </trkpt>
      <trkpt lat="49.06404" lon="-0.45479">
        <ele>25.2</ele>
        <time>2023-04-21T12:06:37Z</time>
      </trkpt>
      <trkpt lat="49.06399" lon="-0.45492">
        <ele>25.2</ele>
        <time>2023-04-21T12:06:38Z</time>
      </trkpt>
      <trkpt lat="49.06395" lon="-0.45505">
        <ele>25.2</ele>
        <time>2023-04-21T12:06:39Z</time>
      </trkpt>
      <trkpt lat="49.06391" lon="-0.45518">
        <ele>25.4</ele>
        <time>2023-04-21T12:06:40Z</time>
      </trkpt>
      <trkpt lat="49.06387" lon="-0.45531">
        <ele>25.6</ele>
        <time>2023-04-21T12:06:41Z</time>
      </trkpt>
      <trkpt lat="49.06383" lon="-0.45544">
        <ele>25.8</ele>
        <time>2023-04-21T12:06:42Z</time>
      </trkpt>
      <trkpt lat="49.06378" lon="-0.45556">
        <ele>25.8</ele>
        <time>2023-04-21T12:06:43Z</time>
      </trkpt>
      <trkpt lat="49.06374" lon="-0.45569">
        <ele>25.8</ele>
        <time>2023-04-21T12:06:44Z</time>
      </trkpt>
      <trkpt lat="49.0637" lon="-0.45581">
        <ele>25.8</ele>
        <time>2023-04-21T12:06:45Z</time>
      </trkpt>
      <trkpt lat="49.06365" lon="-0.45593">
        <ele>25.8</ele>
        <time>2023-04-21T12:06:46Z</time>
      </trkpt>
      <trkpt lat="49.0636" lon="-0.45605">
        <ele>25.6</ele>
        <time>2023-04-21T12:06:47Z</time>
      </trkpt>
      <trkpt lat="49.06356" lon="-0.45617">
        <ele>25.6</ele>
        <time>2023-04-21T12:06:48Z</time>
      </trkpt>
      <trkpt lat="49.06351" lon="-0.45628">
        <ele>25.2</ele>
        <time>2023-04-21T12:06:49Z</time>
      </trkpt>
      <trkpt lat="49.06346" lon="-0.4564">
        <ele>25</ele>
        <time>2023-04-21T12:06:50Z</time>
      </trkpt>
      <trkpt lat="49.06341" lon="-0.45651">
        <ele>24.8</ele>
        <time>2023-04-21T12:06:51Z</time>
      </trkpt>
      <trkpt lat="49.06335" lon="-0.45662">
        <ele>24.2</ele>
        <time>2023-04-21T12:06:52Z</time>
      </trkpt>
      <trkpt lat="49.0633" lon="-0.45673">
        <ele>23.8</ele>
        <time>2023-04-21T12:06:53Z</time>
      </trkpt>
      <trkpt lat="49.06324" lon="-0.45684">
        <ele>23.8</ele>
        <time>2023-04-21T12:06:54Z</time>
      </trkpt>
      <trkpt lat="49.06318" lon="-0.45695">
        <ele>23.6</ele>
        <time>2023-04-21T12:06:55Z</time>
      </trkpt>
      <trkpt lat="49.06312" lon="-0.45705">
        <ele>23.4</ele>
        <time>2023-04-21T12:06:56Z</time>
      </trkpt>
      <trkpt lat="49.06306" lon="-0.45715">
        <ele>23.2</ele>
        <time>2023-04-21T12:06:57Z</time>
      </trkpt>
      <trkpt lat="49.06299" lon="-0.45726">
        <ele>22.8</ele>
        <time>2023-04-21T12:06:58Z</time>
      </trkpt>
      <trkpt lat="49.06293" lon="-0.45736">
        <ele>22.6</ele>
        <time>2023-04-21T12:06:59Z</time>
      </trkpt>
      <trkpt lat="49.06286" lon="-0.45745">
        <ele>22.2</ele>
        <time>2023-04-21T12:07:00Z</time>
      </trkpt>
      <trkpt lat="49.06279" lon="-0.45754">
        <ele>21.8</ele>
        <time>2023-04-21T12:07:01Z</time>
      </trkpt>
      <trkpt lat="49.06273" lon="-0.45763">
        <ele>22</ele>
        <time>2023-04-21T12:07:02Z</time>
      </trkpt>
      <trkpt lat="49.06266" lon="-0.45772">
        <ele>21.8</ele>
        <time>2023-04-21T12:07:03Z</time>
      </trkpt>
      <trkpt lat="49.06259" lon="-0.45781">
        <ele>21.8</ele>
        <time>2023-04-21T12:07:04Z</time>
      </trkpt>
      <trkpt lat="49.06253" lon="-0.45789">
        <ele>21.6</ele>
        <time>2023-04-21T12:07:05Z</time>
      </trkpt>
      <trkpt lat="49.06246" lon="-0.45796">
        <ele>21.2</ele>
        <time>2023-04-21T12:07:06Z</time>
      </trkpt>
      <trkpt lat="49.06239" lon="-0.45804">
        <ele>21</ele>
        <time>2023-04-21T12:07:07Z</time>
      </trkpt>
      <trkpt lat="49.06232" lon="-0.45811">
        <ele>20.8</ele>
        <time>2023-04-21T12:07:08Z</time>
      </trkpt>
      <trkpt lat="49.06225" lon="-0.45818">
        <ele>20.6</ele>
        <time>2023-04-21T12:07:09Z</time>
      </trkpt>
      <trkpt lat="49.06218" lon="-0.45825">
        <ele>20.2</ele>
        <time>2023-04-21T12:07:10Z</time>
      </trkpt>
      <trkpt lat="49.06211" lon="-0.45831">
        <ele>20.2</ele>
        <time>2023-04-21T12:07:11Z</time>
      </trkpt>
      <trkpt lat="49.06204" lon="-0.45837">
        <ele>20.2</ele>
        <time>2023-04-21T12:07:12Z</time>
      </trkpt>
      <trkpt lat="49.06197" lon="-0.45843">
        <ele>20.6</ele>
        <time>2023-04-21T12:07:13Z</time>
      </trkpt>
      <trkpt lat="49.0619" lon="-0.45848">
        <ele>20.8</ele>
        <time>2023-04-21T12:07:14Z</time>
      </trkpt>
      <trkpt lat="49.06183" lon="-0.45854">
        <ele>20.8</ele>
        <time>2023-04-21T12:07:15Z</time>
      </trkpt>
      <trkpt lat="49.06176" lon="-0.4586">
        <ele>20.8</ele>
        <time>2023-04-21T12:07:16Z</time>
      </trkpt>
      <trkpt lat="49.06169" lon="-0.45866">
        <ele>20.8</ele>
        <time>2023-04-21T12:07:17Z</time>
      </trkpt>
      <trkpt lat="49.06162" lon="-0.45871">
        <ele>20.8</ele>
        <time>2023-04-21T12:07:18Z</time>
      </trkpt>
      <trkpt lat="49.06155" lon="-0.45877">
        <ele>20.6</ele>
        <time>2023-04-21T12:07:19Z</time>
      </trkpt>
      <trkpt lat="49.06148" lon="-0.45881">
        <ele>20.4</ele>
        <time>2023-04-21T12:07:20Z</time>
      </trkpt>
      <trkpt lat="49.06141" lon="-0.45886">
        <ele>20.2</ele>
        <time>2023-04-21T12:07:21Z</time>
      </trkpt>
      <trkpt lat="49.06134" lon="-0.4589">
        <ele>19.8</ele>
        <time>2023-04-21T12:07:22Z</time>
      </trkpt>
      <trkpt lat="49.06127" lon="-0.45894">
        <ele>19.4</ele>
        <time>2023-04-21T12:07:23Z</time>
      </trkpt>
      <trkpt lat="49.06119" lon="-0.45898">
        <ele>19</ele>
        <time>2023-04-21T12:07:24Z</time>
      </trkpt>
      <trkpt lat="49.06111" lon="-0.45902">
        <ele>18.6</ele>
        <time>2023-04-21T12:07:25Z</time>
      </trkpt>
      <trkpt lat="49.06104" lon="-0.45906">
        <ele>17.8</ele>
        <time>2023-04-21T12:07:26Z</time>
      </trkpt>
      <trkpt lat="49.06097" lon="-0.4591">
        <ele>17.2</ele>
        <time>2023-04-21T12:07:27Z</time>
      </trkpt>
      <trkpt lat="49.06089" lon="-0.45913">
        <ele>16.6</ele>
        <time>2023-04-21T12:07:28Z</time>
      </trkpt>
      <trkpt lat="49.06081" lon="-0.45917">
        <ele>16.2</ele>
        <time>2023-04-21T12:07:29Z</time>
      </trkpt>
      <trkpt lat="49.06074" lon="-0.4592">
        <ele>16.4</ele>
        <time>2023-04-21T12:07:30Z</time>
      </trkpt>
      <trkpt lat="49.06066" lon="-0.45923">
        <ele>16.6</ele>
        <time>2023-04-21T12:07:31Z</time>
      </trkpt>
      <trkpt lat="49.06058" lon="-0.45926">
        <ele>16.8</ele>
        <time>2023-04-21T12:07:32Z</time>
      </trkpt>
      <trkpt lat="49.06051" lon="-0.45929">
        <ele>17</ele>
        <time>2023-04-21T12:07:33Z</time>
      </trkpt>
      <trkpt lat="49.06043" lon="-0.45932">
        <ele>17.2</ele>
        <time>2023-04-21T12:07:34Z</time>
      </trkpt>
      <trkpt lat="49.06035" lon="-0.45934">
        <ele>17.2</ele>
        <time>2023-04-21T12:07:35Z</time>
      </trkpt>
      <trkpt lat="49.06027" lon="-0.45937">
        <ele>17.4</ele>
        <time>2023-04-21T12:07:36Z</time>
      </trkpt>
      <trkpt lat="49.0602" lon="-0.4594">
        <ele>17.6</ele>
        <time>2023-04-21T12:07:37Z</time>
      </trkpt>
      <trkpt lat="49.06012" lon="-0.45942">
        <ele>17.6</ele>
        <time>2023-04-21T12:07:38Z</time>
      </trkpt>
      <trkpt lat="49.06004" lon="-0.45944">
        <ele>17.6</ele>
        <time>2023-04-21T12:07:39Z</time>
      </trkpt>
      <trkpt lat="49.05997" lon="-0.45947">
        <ele>17.6</ele>
        <time>2023-04-21T12:07:40Z</time>
      </trkpt>
      <trkpt lat="49.05989" lon="-0.45949">
        <ele>17.8</ele>
        <time>2023-04-21T12:07:41Z</time>
      </trkpt>
      <trkpt lat="49.05981" lon="-0.45951">
        <ele>17.8</ele>
        <time>2023-04-21T12:07:42Z</time>
      </trkpt>
      <trkpt lat="49.05974" lon="-0.45953">
        <ele>17.8</ele>
        <time>2023-04-21T12:07:43Z</time>
      </trkpt>
      <trkpt lat="49.05966" lon="-0.45955">
        <ele>17.8</ele>
        <time>2023-04-21T12:07:44Z</time>
      </trkpt>
      <trkpt lat="49.05959" lon="-0.45956">
        <ele>17.8</ele>
        <time>2023-04-21T12:07:45Z</time>
      </trkpt>
      <trkpt lat="49.05951" lon="-0.45958">
        <ele>17.8</ele>
        <time>2023-04-21T12:07:46Z</time>
      </trkpt>
      <trkpt lat="49.05943" lon="-0.4596">
        <ele>17.8</ele>
        <time>2023-04-21T12:07:47Z</time>
      </trkpt>
      <trkpt lat="49.05936" lon="-0.45961">
        <ele>18</ele>
        <time>2023-04-21T12:07:48Z</time>
      </trkpt>
      <trkpt lat="49.05928" lon="-0.45963">
        <ele>18</ele>
        <time>2023-04-21T12:07:49Z</time>
      </trkpt>
      <trkpt lat="49.05921" lon="-0.45964">
        <ele>18.2</ele>
        <time>2023-04-21T12:07:50Z</time>
      </trkpt>
      <trkpt lat="49.05913" lon="-0.45965">
        <ele>18.2</ele>
        <time>2023-04-21T12:07:51Z</time>
      </trkpt>
      <trkpt lat="49.05906" lon="-0.45966">
        <ele>18</ele>
        <time>2023-04-21T12:07:52Z</time>
      </trkpt>
      <trkpt lat="49.05899" lon="-0.45967">
        <ele>17.8</ele>
        <time>2023-04-21T12:07:53Z</time>
      </trkpt>
      <trkpt lat="49.05891" lon="-0.45968">
        <ele>17.8</ele>
        <time>2023-04-21T12:07:54Z</time>
      </trkpt>
      <trkpt lat="49.05884" lon="-0.45969">
        <ele>17.6</ele>
        <time>2023-04-21T12:07:55Z</time>
      </trkpt>
      <trkpt lat="49.05877" lon="-0.4597">
        <ele>17.6</ele>
        <time>2023-04-21T12:07:56Z</time>
      </trkpt>
      <trkpt lat="49.05869" lon="-0.4597">
        <ele>17.4</ele>
        <time>2023-04-21T12:07:57Z</time>
      </trkpt>
      <trkpt lat="49.05862" lon="-0.45971">
        <ele>17.2</ele>
        <time>2023-04-21T12:07:58Z</time>
      </trkpt>
      <trkpt lat="49.05855" lon="-0.45972">
        <ele>17.2</ele>
        <time>2023-04-21T12:07:59Z</time>
      </trkpt>
      <trkpt lat="49.05848" lon="-0.45972">
        <ele>17.2</ele>
        <time>2023-04-21T12:08:00Z</time>
      </trkpt>
      <trkpt lat="49.05841" lon="-0.45972">
        <ele>17.2</ele>
        <time>2023-04-21T12:08:01Z</time>
      </trkpt>
      <trkpt lat="49.05833" lon="-0.45973">
        <ele>17</ele>
        <time>2023-04-21T12:08:02Z</time>
      </trkpt>
      <trkpt lat="49.05826" lon="-0.45973">
        <ele>17</ele>
        <time>2023-04-21T12:08:03Z</time>
      </trkpt>
      <trkpt lat="49.05819" lon="-0.45973">
        <ele>17</ele>
        <time>2023-04-21T12:08:04Z</time>
      </trkpt>
      <trkpt lat="49.05812" lon="-0.45973">
        <ele>17</ele>
        <time>2023-04-21T12:08:05Z</time>
      </trkpt>
      <trkpt lat="49.05805" lon="-0.45973">
        <ele>17</ele>
        <time>2023-04-21T12:08:06Z</time>
      </trkpt>
      <trkpt lat="49.05798" lon="-0.45973">
        <ele>17</ele>
        <time>2023-04-21T12:08:07Z</time>
      </trkpt>
      <trkpt lat="49.05791" lon="-0.45973">
        <ele>17</ele>
        <time>2023-04-21T12:08:08Z</time>
      </trkpt>
      <trkpt lat="49.05783" lon="-0.45972">
        <ele>17</ele>
        <time>2023-04-21T12:08:09Z</time>
      </trkpt>
      <trkpt lat="49.05776" lon="-0.45972">
        <ele>17</ele>
        <time>2023-04-21T12:08:10Z</time>
      </trkpt>
      <trkpt lat="49.05769" lon="-0.45971">
        <ele>17.2</ele>
        <time>2023-04-21T12:08:11Z</time>
      </trkpt>
      <trkpt lat="49.05762" lon="-0.45971">
        <ele>17.2</ele>
        <time>2023-04-21T12:08:12Z</time>
      </trkpt>
      <trkpt lat="49.05755" lon="-0.4597">
        <ele>17.2</ele>
        <time>2023-04-21T12:08:13Z</time>
      </trkpt>
      <trkpt lat="49.05747" lon="-0.45969">
        <ele>17.2</ele>
        <time>2023-04-21T12:08:14Z</time>
      </trkpt>
      <trkpt lat="49.0574" lon="-0.45968">
        <ele>17.2</ele>
        <time>2023-04-21T12:08:15Z</time>
      </trkpt>
      <trkpt lat="49.05733" lon="-0.45967">
        <ele>17.4</ele>
        <time>2023-04-21T12:08:16Z</time>
      </trkpt>
      <trkpt lat="49.05726" lon="-0.45966">
        <ele>17.6</ele>
        <time>2023-04-21T12:08:17Z</time>
      </trkpt>
      <trkpt lat="49.05719" lon="-0.45965">
        <ele>17.6</ele>
        <time>2023-04-21T12:08:18Z</time>
      </trkpt>
      <trkpt lat="49.05712" lon="-0.45963">
        <ele>17.8</ele>
        <time>2023-04-21T12:08:19Z</time>
      </trkpt>
      <trkpt lat="49.05705" lon="-0.45962">
        <ele>17.8</ele>
        <time>2023-04-21T12:08:20Z</time>
      </trkpt>
      <trkpt lat="49.05698" lon="-0.4596">
        <ele>17.8</ele>
        <time>2023-04-21T12:08:21Z</time>
      </trkpt>
      <trkpt lat="49.05691" lon="-0.45959">
        <ele>18</ele>
        <time>2023-04-21T12:08:22Z</time>
      </trkpt>
      <trkpt lat="49.05684" lon="-0.45957">
        <ele>18.2</ele>
        <time>2023-04-21T12:08:23Z</time>
      </trkpt>
      <trkpt lat="49.05677" lon="-0.45956">
        <ele>18.2</ele>
        <time>2023-04-21T12:08:24Z</time>
      </trkpt>
      <trkpt lat="49.0567" lon="-0.45954">
        <ele>18.2</ele>
        <time>2023-04-21T12:08:25Z</time>
      </trkpt>
      <trkpt lat="49.05662" lon="-0.45952">
        <ele>18.2</ele>
        <time>2023-04-21T12:08:26Z</time>
      </trkpt>
      <trkpt lat="49.05655" lon="-0.4595">
        <ele>18.6</ele>
        <time>2023-04-21T12:08:27Z</time>
      </trkpt>
      <trkpt lat="49.05648" lon="-0.45949">
        <ele>18.6</ele>
        <time>2023-04-21T12:08:28Z</time>
      </trkpt>
      <trkpt lat="49.05641" lon="-0.45947">
        <ele>18.8</ele>
        <time>2023-04-21T12:08:29Z</time>
      </trkpt>
      <trkpt lat="49.05634" lon="-0.45945">
        <ele>18.8</ele>
        <time>2023-04-21T12:08:30Z</time>
      </trkpt>
      <trkpt lat="49.05626" lon="-0.45943">
        <ele>19.2</ele>
        <time>2023-04-21T12:08:31Z</time>
      </trkpt>
      <trkpt lat="49.05619" lon="-0.45941">
        <ele>19.2</ele>
        <time>2023-04-21T12:08:32Z</time>
      </trkpt>
      <trkpt lat="49.05612" lon="-0.45939">
        <ele>19.4</ele>
        <time>2023-04-21T12:08:33Z</time>
      </trkpt>
      <trkpt lat="49.05605" lon="-0.45937">
        <ele>19.6</ele>
        <time>2023-04-21T12:08:34Z</time>
      </trkpt>
      <trkpt lat="49.05597" lon="-0.45935">
        <ele>19.8</ele>
        <time>2023-04-21T12:08:35Z</time>
      </trkpt>
      <trkpt lat="49.0559" lon="-0.45933">
        <ele>20</ele>
        <time>2023-04-21T12:08:36Z</time>
      </trkpt>
      <trkpt lat="49.05584" lon="-0.45931">
        <ele>20.2</ele>
        <time>2023-04-21T12:08:37Z</time>
      </trkpt>
      <trkpt lat="49.05577" lon="-0.45928">
        <ele>20.2</ele>
        <time>2023-04-21T12:08:38Z</time>
      </trkpt>
      <trkpt lat="49.0557" lon="-0.45926">
        <ele>20.2</ele>
        <time>2023-04-21T12:08:39Z</time>
      </trkpt>
      <trkpt lat="49.05564" lon="-0.45924">
        <ele>20.4</ele>
        <time>2023-04-21T12:08:40Z</time>
      </trkpt>
      <trkpt lat="49.05557" lon="-0.45922">
        <ele>20.4</ele>
        <time>2023-04-21T12:08:41Z</time>
      </trkpt>
      <trkpt lat="49.0555" lon="-0.4592">
        <ele>20.4</ele>
        <time>2023-04-21T12:08:42Z</time>
      </trkpt>
      <trkpt lat="49.05543" lon="-0.45918">
        <ele>20.6</ele>
        <time>2023-04-21T12:08:43Z</time>
      </trkpt>
      <trkpt lat="49.05536" lon="-0.45915">
        <ele>20.6</ele>
        <time>2023-04-21T12:08:44Z</time>
      </trkpt>
      <trkpt lat="49.05529" lon="-0.45913">
        <ele>20.8</ele>
        <time>2023-04-21T12:08:45Z</time>
      </trkpt>
      <trkpt lat="49.05523" lon="-0.4591">
        <ele>21.2</ele>
        <time>2023-04-21T12:08:46Z</time>
      </trkpt>
      <trkpt lat="49.05517" lon="-0.45908">
        <ele>21.6</ele>
        <time>2023-04-21T12:08:47Z</time>
      </trkpt>
      <trkpt lat="49.05511" lon="-0.45905">
        <ele>21.8</ele>
        <time>2023-04-21T12:08:48Z</time>
      </trkpt>
      <trkpt lat="49.05505" lon="-0.45903">
        <ele>22.2</ele>
        <time>2023-04-21T12:08:49Z</time>
      </trkpt>
      <trkpt lat="49.055" lon="-0.459">
        <ele>22.4</ele>
        <time>2023-04-21T12:08:50Z</time>
      </trkpt>
      <trkpt lat="49.05494" lon="-0.45897">
        <ele>22.8</ele>
        <time>2023-04-21T12:08:51Z</time>
      </trkpt>
      <trkpt lat="49.05488" lon="-0.45894">
        <ele>23</ele>
        <time>2023-04-21T12:08:52Z</time>
      </trkpt>
      <trkpt lat="49.05482" lon="-0.45892">
        <ele>23.2</ele>
        <time>2023-04-21T12:08:53Z</time>
      </trkpt>
      <trkpt lat="49.05475" lon="-0.4589">
        <ele>23.6</ele>
        <time>2023-04-21T12:08:54Z</time>
      </trkpt>
      <trkpt lat="49.05469" lon="-0.45888">
        <ele>23.8</ele>
        <time>2023-04-21T12:08:55Z</time>
      </trkpt>
      <trkpt lat="49.05462" lon="-0.45886">
        <ele>23.8</ele>
        <time>2023-04-21T12:08:56Z</time>
      </trkpt>
      <trkpt lat="49.05455" lon="-0.45884">
        <ele>24.2</ele>
        <time>2023-04-21T12:08:57Z</time>
      </trkpt>
      <trkpt lat="49.05448" lon="-0.45882">
        <ele>24.2</ele>
        <time>2023-04-21T12:08:58Z</time>
      </trkpt>
      <trkpt lat="49.05441" lon="-0.4588">
        <ele>24.6</ele>
        <time>2023-04-21T12:08:59Z</time>
      </trkpt>
      <trkpt lat="49.05434" lon="-0.45878">
        <ele>24.8</ele>
        <time>2023-04-21T12:09:00Z</time>
      </trkpt>
      <trkpt lat="49.05427" lon="-0.45877">
        <ele>24.8</ele>
        <time>2023-04-21T12:09:01Z</time>
      </trkpt>
      <trkpt lat="49.0542" lon="-0.45875">
        <ele>25.2</ele>
        <time>2023-04-21T12:09:02Z</time>
      </trkpt>
      <trkpt lat="49.05413" lon="-0.45873">
        <ele>25.2</ele>
        <time>2023-04-21T12:09:03Z</time>
      </trkpt>
      <trkpt lat="49.05406" lon="-0.45871">
        <ele>25.4</ele>
        <time>2023-04-21T12:09:04Z</time>
      </trkpt>
      <trkpt lat="49.05399" lon="-0.45869">
        <ele>25.6</ele>
        <time>2023-04-21T12:09:05Z</time>
      </trkpt>
      <trkpt lat="49.05392" lon="-0.45868">
        <ele>25.8</ele>
        <time>2023-04-21T12:09:06Z</time>
      </trkpt>
      <trkpt lat="49.05385" lon="-0.45866">
        <ele>25.8</ele>
        <time>2023-04-21T12:09:07Z</time>
      </trkpt>
      <trkpt lat="49.05378" lon="-0.45865">
        <ele>25.8</ele>
        <time>2023-04-21T12:09:08Z</time>
      </trkpt>
      <trkpt lat="49.0537" lon="-0.45864">
        <ele>25.8</ele>
        <time>2023-04-21T12:09:09Z</time>
      </trkpt>
      <trkpt lat="49.05363" lon="-0.45862">
        <ele>26</ele>
        <time>2023-04-21T12:09:10Z</time>
      </trkpt>
      <trkpt lat="49.05356" lon="-0.45861">
        <ele>26.2</ele>
        <time>2023-04-21T12:09:11Z</time>
      </trkpt>
      <trkpt lat="49.05349" lon="-0.45859">
        <ele>26.2</ele>
        <time>2023-04-21T12:09:12Z</time>
      </trkpt>
      <trkpt lat="49.05342" lon="-0.45858">
        <ele>26.4</ele>
        <time>2023-04-21T12:09:13Z</time>
      </trkpt>
      <trkpt lat="49.05336" lon="-0.45857">
        <ele>26.6</ele>
        <time>2023-04-21T12:09:14Z</time>
      </trkpt>
      <trkpt lat="49.05329" lon="-0.45855">
        <ele>26.8</ele>
        <time>2023-04-21T12:09:15Z</time>
      </trkpt>
      <trkpt lat="49.05323" lon="-0.45854">
        <ele>26.8</ele>
        <time>2023-04-21T12:09:16Z</time>
      </trkpt>
      <trkpt lat="49.05316" lon="-0.45852">
        <ele>27.2</ele>
        <time>2023-04-21T12:09:17Z</time>
      </trkpt>
      <trkpt lat="49.0531" lon="-0.45851">
        <ele>27.2</ele>
        <time>2023-04-21T12:09:18Z</time>
      </trkpt>
      <trkpt lat="49.05303" lon="-0.4585">
        <ele>27.2</ele>
        <time>2023-04-21T12:09:19Z</time>
      </trkpt>
      <trkpt lat="49.05296" lon="-0.45849">
        <ele>27.2</ele>
        <time>2023-04-21T12:09:20Z</time>
      </trkpt>
      <trkpt lat="49.05289" lon="-0.45848">
        <ele>27.4</ele>
        <time>2023-04-21T12:09:21Z</time>
      </trkpt>
      <trkpt lat="49.05282" lon="-0.45847">
        <ele>27.6</ele>
        <time>2023-04-21T12:09:22Z</time>
      </trkpt>
      <trkpt lat="49.05275" lon="-0.45846">
        <ele>27.6</ele>
        <time>2023-04-21T12:09:23Z</time>
      </trkpt>
      <trkpt lat="49.05268" lon="-0.45845">
        <ele>27.6</ele>
        <time>2023-04-21T12:09:24Z</time>
      </trkpt>
      <trkpt lat="49.05261" lon="-0.45843">
        <ele>27.6</ele>
        <time>2023-04-21T12:09:25Z</time>
      </trkpt>
      <trkpt lat="49.05254" lon="-0.45842">
        <ele>27.8</ele>
        <time>2023-04-21T12:09:26Z</time>
      </trkpt>
      <trkpt lat="49.05247" lon="-0.45841">
        <ele>27.8</ele>
        <time>2023-04-21T12:09:27Z</time>
      </trkpt>
      <trkpt lat="49.05241" lon="-0.4584">
        <ele>27.8</ele>
        <time>2023-04-21T12:09:28Z</time>
      </trkpt>
      <trkpt lat="49.05234" lon="-0.45838">
        <ele>27.8</ele>
        <time>2023-04-21T12:09:29Z</time>
      </trkpt>
      <trkpt lat="49.05227" lon="-0.45837">
        <ele>27.8</ele>
        <time>2023-04-21T12:09:30Z</time>
      </trkpt>
      <trkpt lat="49.05221" lon="-0.45835">
        <ele>28</ele>
        <time>2023-04-21T12:09:31Z</time>
      </trkpt>
      <trkpt lat="49.05215" lon="-0.45834">
        <ele>28.2</ele>
        <time>2023-04-21T12:09:32Z</time>
      </trkpt>
      <trkpt lat="49.05209" lon="-0.45832">
        <ele>28.2</ele>
        <time>2023-04-21T12:09:33Z</time>
      </trkpt>
      <trkpt lat="49.05203" lon="-0.45831">
        <ele>28.4</ele>
        <time>2023-04-21T12:09:34Z</time>
      </trkpt>
      <trkpt lat="49.05196" lon="-0.45829">
        <ele>28.6</ele>
        <time>2023-04-21T12:09:35Z</time>
      </trkpt>
      <trkpt lat="49.0519" lon="-0.45828">
        <ele>28.8</ele>
        <time>2023-04-21T12:09:36Z</time>
      </trkpt>
      <trkpt lat="49.05183" lon="-0.45826">
        <ele>28.8</ele>
        <time>2023-04-21T12:09:37Z</time>
      </trkpt>
      <trkpt lat="49.05177" lon="-0.45825">
        <ele>28.8</ele>
        <time>2023-04-21T12:09:38Z</time>
      </trkpt>
      <trkpt lat="49.0517" lon="-0.45824">
        <ele>28.8</ele>
        <time>2023-04-21T12:09:39Z</time>
      </trkpt>
      <trkpt lat="49.05163" lon="-0.45823">
        <ele>28.8</ele>
        <time>2023-04-21T12:09:40Z</time>
      </trkpt>
      <trkpt lat="49.05156" lon="-0.45822">
        <ele>28.8</ele>
        <time>2023-04-21T12:09:41Z</time>
      </trkpt>
      <trkpt lat="49.05149" lon="-0.45821">
        <ele>28.8</ele>
        <time>2023-04-21T12:09:42Z</time>
      </trkpt>
      <trkpt lat="49.05142" lon="-0.45819">
        <ele>29</ele>
        <time>2023-04-21T12:09:43Z</time>
      </trkpt>
      <trkpt lat="49.05135" lon="-0.45818">
        <ele>29.2</ele>
        <time>2023-04-21T12:09:44Z</time>
      </trkpt>
      <trkpt lat="49.05128" lon="-0.45817">
        <ele>29.2</ele>
        <time>2023-04-21T12:09:45Z</time>
      </trkpt>
      <trkpt lat="49.05121" lon="-0.45816">
        <ele>29.2</ele>
        <time>2023-04-21T12:09:46Z</time>
      </trkpt>
      <trkpt lat="49.05114" lon="-0.45815">
        <ele>29.2</ele>
        <time>2023-04-21T12:09:47Z</time>
      </trkpt>
      <trkpt lat="49.05107" lon="-0.45814">
        <ele>29.2</ele>
        <time>2023-04-21T12:09:48Z</time>
      </trkpt>
      <trkpt lat="49.051" lon="-0.45813">
        <ele>29.4</ele>
        <time>2023-04-21T12:09:49Z</time>
      </trkpt>
      <trkpt lat="49.05093" lon="-0.45812">
        <ele>29.6</ele>
        <time>2023-04-21T12:09:50Z</time>
      </trkpt>
      <trkpt lat="49.05086" lon="-0.45811">
        <ele>29.6</ele>
        <time>2023-04-21T12:09:51Z</time>
      </trkpt>
      <trkpt lat="49.05078" lon="-0.4581">
        <ele>29.4</ele>
        <time>2023-04-21T12:09:52Z</time>
      </trkpt>
      <trkpt lat="49.05071" lon="-0.45809">
        <ele>29.2</ele>
        <time>2023-04-21T12:09:53Z</time>
      </trkpt>
      <trkpt lat="49.05064" lon="-0.45808">
        <ele>28.8</ele>
        <time>2023-04-21T12:09:54Z</time>
      </trkpt>
      <trkpt lat="49.05057" lon="-0.45806">
        <ele>28.4</ele>
        <time>2023-04-21T12:09:55Z</time>
      </trkpt>
      <trkpt lat="49.05051" lon="-0.45805">
        <ele>28.2</ele>
        <time>2023-04-21T12:09:56Z</time>
      </trkpt>
      <trkpt lat="49.05044" lon="-0.45804">
        <ele>27.8</ele>
        <time>2023-04-21T12:09:57Z</time>
      </trkpt>
      <trkpt lat="49.05037" lon="-0.45803">
        <ele>27.6</ele>
        <time>2023-04-21T12:09:58Z</time>
      </trkpt>
      <trkpt lat="49.05031" lon="-0.45802">
        <ele>27.2</ele>
        <time>2023-04-21T12:09:59Z</time>
      </trkpt>
      <trkpt lat="49.05024" lon="-0.458">
        <ele>26.8</ele>
        <time>2023-04-21T12:10:00Z</time>
      </trkpt>
      <trkpt lat="49.05018" lon="-0.45799">
        <ele>26.6</ele>
        <time>2023-04-21T12:10:01Z</time>
      </trkpt>
      <trkpt lat="49.05011" lon="-0.45798">
        <ele>26.2</ele>
        <time>2023-04-21T12:10:02Z</time>
      </trkpt>
      <trkpt lat="49.05005" lon="-0.45797">
        <ele>26</ele>
        <time>2023-04-21T12:10:03Z</time>
      </trkpt>
      <trkpt lat="49.04999" lon="-0.45796">
        <ele>25.8</ele>
        <time>2023-04-21T12:10:04Z</time>
      </trkpt>
      <trkpt lat="49.04992" lon="-0.45795">
        <ele>25.8</ele>
        <time>2023-04-21T12:10:05Z</time>
      </trkpt>
      <trkpt lat="49.04986" lon="-0.45794">
        <ele>26</ele>
        <time>2023-04-21T12:10:06Z</time>
      </trkpt>
      <trkpt lat="49.0498" lon="-0.45793">
        <ele>26</ele>
        <time>2023-04-21T12:10:07Z</time>
      </trkpt>
      <trkpt lat="49.04973" lon="-0.45792">
        <ele>26.2</ele>
        <time>2023-04-21T12:10:08Z</time>
      </trkpt>
      <trkpt lat="49.04967" lon="-0.45792">
        <ele>26.2</ele>
        <time>2023-04-21T12:10:09Z</time>
      </trkpt>
      <trkpt lat="49.0496" lon="-0.45792">
        <ele>26</ele>
        <time>2023-04-21T12:10:10Z</time>
      </trkpt>
      <trkpt lat="49.04954" lon="-0.45792">
        <ele>25.8</ele>
        <time>2023-04-21T12:10:11Z</time>
      </trkpt>
      <trkpt lat="49.04947" lon="-0.45792">
        <ele>25.8</ele>
        <time>2023-04-21T12:10:12Z</time>
      </trkpt>
      <trkpt lat="49.0494" lon="-0.45793">
        <ele>25.6</ele>
        <time>2023-04-21T12:10:13Z</time>
      </trkpt>
      <trkpt lat="49.04933" lon="-0.45794">
        <ele>25.2</ele>
        <time>2023-04-21T12:10:14Z</time>
      </trkpt>
      <trkpt lat="49.04926" lon="-0.45795">
        <ele>25</ele>
        <time>2023-04-21T12:10:15Z</time>
      </trkpt>
      <trkpt lat="49.04918" lon="-0.45796">
        <ele>24.8</ele>
        <time>2023-04-21T12:10:16Z</time>
      </trkpt>
      <trkpt lat="49.0491" lon="-0.45798">
        <ele>24.4</ele>
        <time>2023-04-21T12:10:17Z</time>
      </trkpt>
      <trkpt lat="49.04903" lon="-0.458">
        <ele>24.2</ele>
        <time>2023-04-21T12:10:18Z</time>
      </trkpt>
      <trkpt lat="49.04896" lon="-0.45802">
        <ele>23.8</ele>
        <time>2023-04-21T12:10:19Z</time>
      </trkpt>
      <trkpt lat="49.04888" lon="-0.45805">
        <ele>23.2</ele>
        <time>2023-04-21T12:10:20Z</time>
      </trkpt>
      <trkpt lat="49.04878" lon="-0.45808">
        <ele>22.8</ele>
        <time>2023-04-21T12:10:21Z</time>
      </trkpt>
      <trkpt lat="49.0487" lon="-0.45811">
        <ele>22.2</ele>
        <time>2023-04-21T12:10:22Z</time>
      </trkpt>
      <trkpt lat="49.04863" lon="-0.45814">
        <ele>21.8</ele>
        <time>2023-04-21T12:10:23Z</time>
      </trkpt>
      <trkpt lat="49.04854" lon="-0.45818">
        <ele>21.2</ele>
        <time>2023-04-21T12:10:24Z</time>
      </trkpt>
      <trkpt lat="49.04842" lon="-0.45825">
        <ele>20.2</ele>
        <time>2023-04-21T12:10:25Z</time>
      </trkpt>
      <trkpt lat="49.04835" lon="-0.45828">
        <ele>19.8</ele>
        <time>2023-04-21T12:10:26Z</time>
      </trkpt>
      <trkpt lat="49.04828" lon="-0.45831">
        <ele>19.8</ele>
        <time>2023-04-21T12:10:27Z</time>
      </trkpt>
      <trkpt lat="49.04822" lon="-0.45834">
        <ele>19.8</ele>
        <time>2023-04-21T12:10:28Z</time>
      </trkpt>
      <trkpt lat="49.04816" lon="-0.45838">
        <ele>20.4</ele>
        <time>2023-04-21T12:10:29Z</time>
      </trkpt>
      <trkpt lat="49.04809" lon="-0.45841">
        <ele>20.8</ele>
        <time>2023-04-21T12:10:30Z</time>
      </trkpt>
      <trkpt lat="49.04803" lon="-0.45845">
        <ele>21.2</ele>
        <time>2023-04-21T12:10:31Z</time>
      </trkpt>
      <trkpt lat="49.04797" lon="-0.45849">
        <ele>21.4</ele>
        <time>2023-04-21T12:10:32Z</time>
      </trkpt>
      <trkpt lat="49.04791" lon="-0.45852">
        <ele>21.8</ele>
        <time>2023-04-21T12:10:33Z</time>
      </trkpt>
      <trkpt lat="49.04785" lon="-0.45856">
        <ele>21.8</ele>
        <time>2023-04-21T12:10:34Z</time>
      </trkpt>
      <trkpt lat="49.04778" lon="-0.45861">
        <ele>22</ele>
        <time>2023-04-21T12:10:35Z</time>
      </trkpt>
      <trkpt lat="49.04772" lon="-0.45865">
        <ele>22.2</ele>
        <time>2023-04-21T12:10:36Z</time>
      </trkpt>
      <trkpt lat="49.04766" lon="-0.45869">
        <ele>22.2</ele>
        <time>2023-04-21T12:10:37Z</time>
      </trkpt>
      <trkpt lat="49.0476" lon="-0.45874">
        <ele>22.2</ele>
        <time>2023-04-21T12:10:38Z</time>
      </trkpt>
      <trkpt lat="49.04753" lon="-0.45879">
        <ele>22</ele>
        <time>2023-04-21T12:10:39Z</time>
      </trkpt>
      <trkpt lat="49.04747" lon="-0.45884">
        <ele>22.2</ele>
        <time>2023-04-21T12:10:40Z</time>
      </trkpt>
      <trkpt lat="49.0474" lon="-0.45889">
        <ele>22.2</ele>
        <time>2023-04-21T12:10:41Z</time>
      </trkpt>
      <trkpt lat="49.04734" lon="-0.45894">
        <ele>22.4</ele>
        <time>2023-04-21T12:10:42Z</time>
      </trkpt>
      <trkpt lat="49.04729" lon="-0.45899">
        <ele>22.6</ele>
        <time>2023-04-21T12:10:43Z</time>
      </trkpt>
      <trkpt lat="49.04723" lon="-0.45904">
        <ele>22.6</ele>
        <time>2023-04-21T12:10:44Z</time>
      </trkpt>
      <trkpt lat="49.04718" lon="-0.45909">
        <ele>22.6</ele>
        <time>2023-04-21T12:10:45Z</time>
      </trkpt>
      <trkpt lat="49.04712" lon="-0.45914">
        <ele>22.4</ele>
        <time>2023-04-21T12:10:46Z</time>
      </trkpt>
      <trkpt lat="49.04707" lon="-0.45919">
        <ele>22.6</ele>
        <time>2023-04-21T12:10:47Z</time>
      </trkpt>
      <trkpt lat="49.04702" lon="-0.45924">
        <ele>22.8</ele>
        <time>2023-04-21T12:10:48Z</time>
      </trkpt>
      <trkpt lat="49.04696" lon="-0.4593">
        <ele>23</ele>
        <time>2023-04-21T12:10:49Z</time>
      </trkpt>
      <trkpt lat="49.04691" lon="-0.45935">
        <ele>23.2</ele>
        <time>2023-04-21T12:10:50Z</time>
      </trkpt>
      <trkpt lat="49.04686" lon="-0.4594">
        <ele>23.2</ele>
        <time>2023-04-21T12:10:51Z</time>
      </trkpt>
      <trkpt lat="49.04681" lon="-0.45946">
        <ele>23.4</ele>
        <time>2023-04-21T12:10:52Z</time>
      </trkpt>
      <trkpt lat="49.04676" lon="-0.45951">
        <ele>23.4</ele>
        <time>2023-04-21T12:10:53Z</time>
      </trkpt>
      <trkpt lat="49.04671" lon="-0.45956">
        <ele>23.4</ele>
        <time>2023-04-21T12:10:54Z</time>
      </trkpt>
      <trkpt lat="49.04666" lon="-0.45962">
        <ele>23.4</ele>
        <time>2023-04-21T12:10:55Z</time>
      </trkpt>
      <trkpt lat="49.0466" lon="-0.45967">
        <ele>23.6</ele>
        <time>2023-04-21T12:10:56Z</time>
      </trkpt>
      <trkpt lat="49.04655" lon="-0.45973">
        <ele>23.6</ele>
        <time>2023-04-21T12:10:57Z</time>
      </trkpt>
      <trkpt lat="49.0465" lon="-0.45978">
        <ele>23.6</ele>
        <time>2023-04-21T12:10:58Z</time>
      </trkpt>
      <trkpt lat="49.04645" lon="-0.45983">
        <ele>23.6</ele>
        <time>2023-04-21T12:10:59Z</time>
      </trkpt>
      <trkpt lat="49.0464" lon="-0.45989">
        <ele>23.6</ele>
        <time>2023-04-21T12:11:00Z</time>
      </trkpt>
      <trkpt lat="49.04635" lon="-0.45994">
        <ele>23.4</ele>
        <time>2023-04-21T12:11:01Z</time>
      </trkpt>
      <trkpt lat="49.0463" lon="-0.45999">
        <ele>23.2</ele>
        <time>2023-04-21T12:11:02Z</time>
      </trkpt>
      <trkpt lat="49.04625" lon="-0.46005">
        <ele>23.2</ele>
        <time>2023-04-21T12:11:03Z</time>
      </trkpt>
      <trkpt lat="49.04621" lon="-0.4601">
        <ele>23.2</ele>
        <time>2023-04-21T12:11:04Z</time>
      </trkpt>
      <trkpt lat="49.04616" lon="-0.46015">
        <ele>23.2</ele>
        <time>2023-04-21T12:11:05Z</time>
      </trkpt>
      <trkpt lat="49.04611" lon="-0.4602">
        <ele>23.2</ele>
        <time>2023-04-21T12:11:06Z</time>
      </trkpt>
      <trkpt lat="49.04606" lon="-0.46025">
        <ele>23.2</ele>
        <time>2023-04-21T12:11:07Z</time>
      </trkpt>
      <trkpt lat="49.04601" lon="-0.4603">
        <ele>23</ele>
        <time>2023-04-21T12:11:08Z</time>
      </trkpt>
      <trkpt lat="49.04596" lon="-0.46035">
        <ele>22.8</ele>
        <time>2023-04-21T12:11:09Z</time>
      </trkpt>
      <trkpt lat="49.04591" lon="-0.46041">
        <ele>22.8</ele>
        <time>2023-04-21T12:11:10Z</time>
      </trkpt>
      <trkpt lat="49.04586" lon="-0.46046">
        <ele>22.6</ele>
        <time>2023-04-21T12:11:11Z</time>
      </trkpt>
      <trkpt lat="49.04581" lon="-0.46051">
        <ele>22.6</ele>
        <time>2023-04-21T12:11:12Z</time>
      </trkpt>
      <trkpt lat="49.04576" lon="-0.46056">
        <ele>22.4</ele>
        <time>2023-04-21T12:11:13Z</time>
      </trkpt>
      <trkpt lat="49.04571" lon="-0.46062">
        <ele>22.4</ele>
        <time>2023-04-21T12:11:14Z</time>
      </trkpt>
      <trkpt lat="49.04566" lon="-0.46067">
        <ele>22.2</ele>
        <time>2023-04-21T12:11:15Z</time>
      </trkpt>
      <trkpt lat="49.04561" lon="-0.46072">
        <ele>22.2</ele>
        <time>2023-04-21T12:11:16Z</time>
      </trkpt>
      <trkpt lat="49.04556" lon="-0.46078">
        <ele>22.2</ele>
        <time>2023-04-21T12:11:17Z</time>
      </trkpt>
      <trkpt lat="49.04551" lon="-0.46083">
        <ele>22</ele>
        <time>2023-04-21T12:11:18Z</time>
      </trkpt>
      <trkpt lat="49.04546" lon="-0.46088">
        <ele>22.2</ele>
        <time>2023-04-21T12:11:19Z</time>
      </trkpt>
      <trkpt lat="49.04541" lon="-0.46093">
        <ele>22.2</ele>
        <time>2023-04-21T12:11:20Z</time>
      </trkpt>
      <trkpt lat="49.04536" lon="-0.46098">
        <ele>22.2</ele>
        <time>2023-04-21T12:11:21Z</time>
      </trkpt>
      <trkpt lat="49.04531" lon="-0.46103">
        <ele>22.2</ele>
        <time>2023-04-21T12:11:22Z</time>
      </trkpt>
      <trkpt lat="49.04525" lon="-0.46108">
        <ele>22.2</ele>
        <time>2023-04-21T12:11:23Z</time>
      </trkpt>
      <trkpt lat="49.04521" lon="-0.46112">
        <ele>22.2</ele>
        <time>2023-04-21T12:11:24Z</time>
      </trkpt>
      <trkpt lat="49.04516" lon="-0.46117">
        <ele>22</ele>
        <time>2023-04-21T12:11:25Z</time>
      </trkpt>
      <trkpt lat="49.0451" lon="-0.46121">
        <ele>21.8</ele>
        <time>2023-04-21T12:11:26Z</time>
      </trkpt>
      <trkpt lat="49.04505" lon="-0.46126">
        <ele>21.8</ele>
        <time>2023-04-21T12:11:27Z</time>
      </trkpt>
      <trkpt lat="49.045" lon="-0.4613">
        <ele>21.6</ele>
        <time>2023-04-21T12:11:28Z</time>
      </trkpt>
      <trkpt lat="49.04495" lon="-0.46135">
        <ele>21.6</ele>
        <time>2023-04-21T12:11:29Z</time>
      </trkpt>
      <trkpt lat="49.04489" lon="-0.4614">
        <ele>21.6</ele>
        <time>2023-04-21T12:11:30Z</time>
      </trkpt>
      <trkpt lat="49.04484" lon="-0.46144">
        <ele>21.4</ele>
        <time>2023-04-21T12:11:31Z</time>
      </trkpt>
      <trkpt lat="49.04478" lon="-0.46148">
        <ele>21.2</ele>
        <time>2023-04-21T12:11:32Z</time>
      </trkpt>
      <trkpt lat="49.04473" lon="-0.46153">
        <ele>21.2</ele>
        <time>2023-04-21T12:11:33Z</time>
      </trkpt>
      <trkpt lat="49.04467" lon="-0.46157">
        <ele>21.2</ele>
        <time>2023-04-21T12:11:34Z</time>
      </trkpt>
      <trkpt lat="49.04462" lon="-0.46161">
        <ele>21</ele>
        <time>2023-04-21T12:11:35Z</time>
      </trkpt>
      <trkpt lat="49.04456" lon="-0.46164">
        <ele>20.8</ele>
        <time>2023-04-21T12:11:36Z</time>
      </trkpt>
      <trkpt lat="49.0445" lon="-0.46168">
        <ele>20.8</ele>
        <time>2023-04-21T12:11:37Z</time>
      </trkpt>
      <trkpt lat="49.04445" lon="-0.46173">
        <ele>20.6</ele>
        <time>2023-04-21T12:11:38Z</time>
      </trkpt>
      <trkpt lat="49.0444" lon="-0.46177">
        <ele>20.6</ele>
        <time>2023-04-21T12:11:39Z</time>
      </trkpt>
      <trkpt lat="49.04434" lon="-0.46182">
        <ele>20.6</ele>
        <time>2023-04-21T12:11:40Z</time>
      </trkpt>
      <trkpt lat="49.04429" lon="-0.46186">
        <ele>20.4</ele>
        <time>2023-04-21T12:11:41Z</time>
      </trkpt>
      <trkpt lat="49.04423" lon="-0.4619">
        <ele>20.2</ele>
        <time>2023-04-21T12:11:42Z</time>
      </trkpt>
      <trkpt lat="49.04418" lon="-0.46195">
        <ele>20.2</ele>
        <time>2023-04-21T12:11:43Z</time>
      </trkpt>
      <trkpt lat="49.04412" lon="-0.46199">
        <ele>20.4</ele>
        <time>2023-04-21T12:11:44Z</time>
      </trkpt>
      <trkpt lat="49.04406" lon="-0.46202">
        <ele>20.6</ele>
        <time>2023-04-21T12:11:45Z</time>
      </trkpt>
      <trkpt lat="49.044" lon="-0.46206">
        <ele>20.8</ele>
        <time>2023-04-21T12:11:46Z</time>
      </trkpt>
      <trkpt lat="49.04394" lon="-0.4621">
        <ele>20.8</ele>
        <time>2023-04-21T12:11:47Z</time>
      </trkpt>
      <trkpt lat="49.04388" lon="-0.46213">
        <ele>20.8</ele>
        <time>2023-04-21T12:11:48Z</time>
      </trkpt>
      <trkpt lat="49.04382" lon="-0.46217">
        <ele>21</ele>
        <time>2023-04-21T12:11:49Z</time>
      </trkpt>
      <trkpt lat="49.04376" lon="-0.46221">
        <ele>21.2</ele>
        <time>2023-04-21T12:11:50Z</time>
      </trkpt>
      <trkpt lat="49.04369" lon="-0.46224">
        <ele>21.2</ele>
        <time>2023-04-21T12:11:51Z</time>
      </trkpt>
      <trkpt lat="49.04363" lon="-0.46228">
        <ele>21.2</ele>
        <time>2023-04-21T12:11:52Z</time>
      </trkpt>
      <trkpt lat="49.04357" lon="-0.46231">
        <ele>21.2</ele>
        <time>2023-04-21T12:11:53Z</time>
      </trkpt>
      <trkpt lat="49.04351" lon="-0.46235">
        <ele>21.4</ele>
        <time>2023-04-21T12:11:54Z</time>
      </trkpt>
      <trkpt lat="49.04344" lon="-0.46238">
        <ele>21.4</ele>
        <time>2023-04-21T12:11:55Z</time>
      </trkpt>
      <trkpt lat="49.04338" lon="-0.46241">
        <ele>21.6</ele>
        <time>2023-04-21T12:11:56Z</time>
      </trkpt>
      <trkpt lat="49.04332" lon="-0.46245">
        <ele>21.6</ele>
        <time>2023-04-21T12:11:57Z</time>
      </trkpt>
      <trkpt lat="49.04325" lon="-0.46248">
        <ele>21.4</ele>
        <time>2023-04-21T12:11:58Z</time>
      </trkpt>
      <trkpt lat="49.04318" lon="-0.46251">
        <ele>21.2</ele>
        <time>2023-04-21T12:11:59Z</time>
      </trkpt>
      <trkpt lat="49.04312" lon="-0.46254">
        <ele>21.2</ele>
        <time>2023-04-21T12:12:00Z</time>
      </trkpt>
      <trkpt lat="49.04305" lon="-0.46257">
        <ele>21.2</ele>
        <time>2023-04-21T12:12:01Z</time>
      </trkpt>
      <trkpt lat="49.04299" lon="-0.4626">
        <ele>21.2</ele>
        <time>2023-04-21T12:12:02Z</time>
      </trkpt>
      <trkpt lat="49.04292" lon="-0.46263">
        <ele>21.2</ele>
        <time>2023-04-21T12:12:03Z</time>
      </trkpt>
      <trkpt lat="49.04285" lon="-0.46266">
        <ele>21.2</ele>
        <time>2023-04-21T12:12:04Z</time>
      </trkpt>
      <trkpt lat="49.04278" lon="-0.46269">
        <ele>21</ele>
        <time>2023-04-21T12:12:05Z</time>
      </trkpt>
      <trkpt lat="49.04271" lon="-0.46272">
        <ele>21</ele>
        <time>2023-04-21T12:12:06Z</time>
      </trkpt>
      <trkpt lat="49.04265" lon="-0.46275">
        <ele>20.8</ele>
        <time>2023-04-21T12:12:07Z</time>
      </trkpt>
      <trkpt lat="49.04258" lon="-0.46278">
        <ele>20.8</ele>
        <time>2023-04-21T12:12:08Z</time>
      </trkpt>
      <trkpt lat="49.04251" lon="-0.46281">
        <ele>20.8</ele>
        <time>2023-04-21T12:12:09Z</time>
      </trkpt>
      <trkpt lat="49.04244" lon="-0.46284">
        <ele>20.8</ele>
        <time>2023-04-21T12:12:10Z</time>
      </trkpt>
      <trkpt lat="49.04237" lon="-0.46287">
        <ele>20.8</ele>
        <time>2023-04-21T12:12:11Z</time>
      </trkpt>
      <trkpt lat="49.04231" lon="-0.4629">
        <ele>20.8</ele>
        <time>2023-04-21T12:12:12Z</time>
      </trkpt>
      <trkpt lat="49.04224" lon="-0.46293">
        <ele>20.8</ele>
        <time>2023-04-21T12:12:13Z</time>
      </trkpt>
      <trkpt lat="49.04217" lon="-0.46295">
        <ele>20.6</ele>
        <time>2023-04-21T12:12:14Z</time>
      </trkpt>
      <trkpt lat="49.0421" lon="-0.46298">
        <ele>20.6</ele>
        <time>2023-04-21T12:12:15Z</time>
      </trkpt>
      <trkpt lat="49.04203" lon="-0.46301">
        <ele>20.4</ele>
        <time>2023-04-21T12:12:16Z</time>
      </trkpt>
      <trkpt lat="49.04196" lon="-0.46304">
        <ele>20.2</ele>
        <time>2023-04-21T12:12:17Z</time>
      </trkpt>
      <trkpt lat="49.04189" lon="-0.46307">
        <ele>20</ele>
        <time>2023-04-21T12:12:18Z</time>
      </trkpt>
      <trkpt lat="49.04182" lon="-0.4631">
        <ele>19.8</ele>
        <time>2023-04-21T12:12:19Z</time>
      </trkpt>
      <trkpt lat="49.04175" lon="-0.46313">
        <ele>19.6</ele>
        <time>2023-04-21T12:12:20Z</time>
      </trkpt>
      <trkpt lat="49.04168" lon="-0.46316">
        <ele>19.2</ele>
        <time>2023-04-21T12:12:21Z</time>
      </trkpt>
      <trkpt lat="49.04161" lon="-0.46319">
        <ele>19.2</ele>
        <time>2023-04-21T12:12:22Z</time>
      </trkpt>
      <trkpt lat="49.04154" lon="-0.46322">
        <ele>19.6</ele>
        <time>2023-04-21T12:12:23Z</time>
      </trkpt>
      <trkpt lat="49.04147" lon="-0.46325">
        <ele>19.8</ele>
        <time>2023-04-21T12:12:24Z</time>
      </trkpt>
      <trkpt lat="49.0414" lon="-0.46328">
        <ele>19.8</ele>
        <time>2023-04-21T12:12:25Z</time>
      </trkpt>
      <trkpt lat="49.04133" lon="-0.46331">
        <ele>20</ele>
        <time>2023-04-21T12:12:26Z</time>
      </trkpt>
      <trkpt lat="49.04126" lon="-0.46334">
        <ele>20.2</ele>
        <time>2023-04-21T12:12:27Z</time>
      </trkpt>
      <trkpt lat="49.04119" lon="-0.46337">
        <ele>20.8</ele>
        <time>2023-04-21T12:12:28Z</time>
      </trkpt>
      <trkpt lat="49.04112" lon="-0.46341">
        <ele>21.2</ele>
        <time>2023-04-21T12:12:29Z</time>
      </trkpt>
      <trkpt lat="49.04105" lon="-0.46344">
        <ele>21.6</ele>
        <time>2023-04-21T12:12:30Z</time>
      </trkpt>
      <trkpt lat="49.04098" lon="-0.46347">
        <ele>21.8</ele>
        <time>2023-04-21T12:12:31Z</time>
      </trkpt>
      <trkpt lat="49.04091" lon="-0.4635">
        <ele>22.2</ele>
        <time>2023-04-21T12:12:32Z</time>
      </trkpt>
      <trkpt lat="49.04084" lon="-0.46353">
        <ele>22.6</ele>
        <time>2023-04-21T12:12:33Z</time>
      </trkpt>
      <trkpt lat="49.04077" lon="-0.46356">
        <ele>22.6</ele>
        <time>2023-04-21T12:12:34Z</time>
      </trkpt>
      <trkpt lat="49.0407" lon="-0.46359">
        <ele>22.8</ele>
        <time>2023-04-21T12:12:35Z</time>
      </trkpt>
      <trkpt lat="49.04063" lon="-0.46362">
        <ele>22.8</ele>
        <time>2023-04-21T12:12:36Z</time>
      </trkpt>
      <trkpt lat="49.04056" lon="-0.46365">
        <ele>22.8</ele>
        <time>2023-04-21T12:12:37Z</time>
      </trkpt>
      <trkpt lat="49.04049" lon="-0.46368">
        <ele>22.8</ele>
        <time>2023-04-21T12:12:38Z</time>
      </trkpt>
      <trkpt lat="49.04043" lon="-0.46371">
        <ele>22.8</ele>
        <time>2023-04-21T12:12:39Z</time>
      </trkpt>
      <trkpt lat="49.04036" lon="-0.46374">
        <ele>22.8</ele>
        <time>2023-04-21T12:12:40Z</time>
      </trkpt>
      <trkpt lat="49.04029" lon="-0.46377">
        <ele>22.8</ele>
        <time>2023-04-21T12:12:41Z</time>
      </trkpt>
      <trkpt lat="49.04022" lon="-0.4638">
        <ele>22.8</ele>
        <time>2023-04-21T12:12:42Z</time>
      </trkpt>
      <trkpt lat="49.04016" lon="-0.46383">
        <ele>22.8</ele>
        <time>2023-04-21T12:12:43Z</time>
      </trkpt>
      <trkpt lat="49.04009" lon="-0.46386">
        <ele>22.8</ele>
        <time>2023-04-21T12:12:44Z</time>
      </trkpt>
      <trkpt lat="49.04002" lon="-0.46389">
        <ele>22.6</ele>
        <time>2023-04-21T12:12:45Z</time>
      </trkpt>
      <trkpt lat="49.03995" lon="-0.46391">
        <ele>22.8</ele>
        <time>2023-04-21T12:12:46Z</time>
      </trkpt>
      <trkpt lat="49.03989" lon="-0.46394">
        <ele>22.8</ele>
        <time>2023-04-21T12:12:47Z</time>
      </trkpt>
      <trkpt lat="49.03982" lon="-0.46397">
        <ele>23</ele>
        <time>2023-04-21T12:12:48Z</time>
      </trkpt>
      <trkpt lat="49.03975" lon="-0.464">
        <ele>23.2</ele>
        <time>2023-04-21T12:12:49Z</time>
      </trkpt>
      <trkpt lat="49.03968" lon="-0.46403">
        <ele>23.2</ele>
        <time>2023-04-21T12:12:50Z</time>
      </trkpt>
      <trkpt lat="49.03962" lon="-0.46406">
        <ele>23.2</ele>
        <time>2023-04-21T12:12:51Z</time>
      </trkpt>
      <trkpt lat="49.03955" lon="-0.46409">
        <ele>23.2</ele>
        <time>2023-04-21T12:12:52Z</time>
      </trkpt>
      <trkpt lat="49.03948" lon="-0.46412">
        <ele>23.2</ele>
        <time>2023-04-21T12:12:53Z</time>
      </trkpt>
      <trkpt lat="49.03942" lon="-0.46415">
        <ele>23</ele>
        <time>2023-04-21T12:12:54Z</time>
      </trkpt>
      <trkpt lat="49.03935" lon="-0.46418">
        <ele>23</ele>
        <time>2023-04-21T12:12:55Z</time>
      </trkpt>
      <trkpt lat="49.03928" lon="-0.46421">
        <ele>23.2</ele>
        <time>2023-04-21T12:12:56Z</time>
      </trkpt>
      <trkpt lat="49.03922" lon="-0.46424">
        <ele>23.2</ele>
        <time>2023-04-21T12:12:57Z</time>
      </trkpt>
      <trkpt lat="49.03915" lon="-0.46426">
        <ele>23.4</ele>
        <time>2023-04-21T12:12:58Z</time>
      </trkpt>
      <trkpt lat="49.03909" lon="-0.46429">
        <ele>23.8</ele>
        <time>2023-04-21T12:12:59Z</time>
      </trkpt>
      <trkpt lat="49.03903" lon="-0.46432">
        <ele>23.8</ele>
        <time>2023-04-21T12:13:00Z</time>
      </trkpt>
      <trkpt lat="49.03897" lon="-0.46434">
        <ele>24.2</ele>
        <time>2023-04-21T12:13:01Z</time>
      </trkpt>
      <trkpt lat="49.03891" lon="-0.46437">
        <ele>24.2</ele>
        <time>2023-04-21T12:13:02Z</time>
      </trkpt>
      <trkpt lat="49.03885" lon="-0.46439">
        <ele>24.4</ele>
        <time>2023-04-21T12:13:03Z</time>
      </trkpt>
      <trkpt lat="49.03879" lon="-0.46442">
        <ele>24.6</ele>
        <time>2023-04-21T12:13:04Z</time>
      </trkpt>
      <trkpt lat="49.03872" lon="-0.46445">
        <ele>24.6</ele>
        <time>2023-04-21T12:13:05Z</time>
      </trkpt>
      <trkpt lat="49.03866" lon="-0.46448">
        <ele>24.8</ele>
        <time>2023-04-21T12:13:06Z</time>
      </trkpt>
      <trkpt lat="49.03859" lon="-0.4645">
        <ele>24.8</ele>
        <time>2023-04-21T12:13:07Z</time>
      </trkpt>
      <trkpt lat="49.03853" lon="-0.46453">
        <ele>24.8</ele>
        <time>2023-04-21T12:13:08Z</time>
      </trkpt>
      <trkpt lat="49.03847" lon="-0.46455">
        <ele>24.8</ele>
        <time>2023-04-21T12:13:09Z</time>
      </trkpt>
      <trkpt lat="49.03841" lon="-0.46458">
        <ele>24.6</ele>
        <time>2023-04-21T12:13:10Z</time>
      </trkpt>
      <trkpt lat="49.03835" lon="-0.46461">
        <ele>24.6</ele>
        <time>2023-04-21T12:13:11Z</time>
      </trkpt>
      <trkpt lat="49.03829" lon="-0.46463">
        <ele>24.6</ele>
        <time>2023-04-21T12:13:12Z</time>
      </trkpt>
      <trkpt lat="49.03823" lon="-0.46466">
        <ele>24.6</ele>
        <time>2023-04-21T12:13:13Z</time>
      </trkpt>
      <trkpt lat="49.03817" lon="-0.46468">
        <ele>24.6</ele>
        <time>2023-04-21T12:13:14Z</time>
      </trkpt>
      <trkpt lat="49.03812" lon="-0.46471">
        <ele>24.8</ele>
        <time>2023-04-21T12:13:15Z</time>
      </trkpt>
      <trkpt lat="49.03806" lon="-0.46473">
        <ele>24.8</ele>
        <time>2023-04-21T12:13:16Z</time>
      </trkpt>
      <trkpt lat="49.038" lon="-0.46476">
        <ele>24.8</ele>
        <time>2023-04-21T12:13:17Z</time>
      </trkpt>
      <trkpt lat="49.03793" lon="-0.46478">
        <ele>24.8</ele>
        <time>2023-04-21T12:13:18Z</time>
      </trkpt>
      <trkpt lat="49.03787" lon="-0.46481">
        <ele>24.8</ele>
        <time>2023-04-21T12:13:19Z</time>
      </trkpt>
      <trkpt lat="49.03781" lon="-0.46484">
        <ele>24.8</ele>
        <time>2023-04-21T12:13:20Z</time>
      </trkpt>
      <trkpt lat="49.03775" lon="-0.46487">
        <ele>25</ele>
        <time>2023-04-21T12:13:21Z</time>
      </trkpt>
      <trkpt lat="49.03769" lon="-0.4649">
        <ele>25</ele>
        <time>2023-04-21T12:13:22Z</time>
      </trkpt>
      <trkpt lat="49.03762" lon="-0.46493">
        <ele>25.2</ele>
        <time>2023-04-21T12:13:23Z</time>
      </trkpt>
      <trkpt lat="49.03756" lon="-0.46496">
        <ele>25.2</ele>
        <time>2023-04-21T12:13:24Z</time>
      </trkpt>
      <trkpt lat="49.0375" lon="-0.46499">
        <ele>25.2</ele>
        <time>2023-04-21T12:13:25Z</time>
      </trkpt>
      <trkpt lat="49.03743" lon="-0.46502">
        <ele>25.2</ele>
        <time>2023-04-21T12:13:26Z</time>
      </trkpt>
      <trkpt lat="49.03736" lon="-0.46504">
        <ele>25.2</ele>
        <time>2023-04-21T12:13:27Z</time>
      </trkpt>
      <trkpt lat="49.03729" lon="-0.46507">
        <ele>25.2</ele>
        <time>2023-04-21T12:13:28Z</time>
      </trkpt>
      <trkpt lat="49.03723" lon="-0.4651">
        <ele>25.2</ele>
        <time>2023-04-21T12:13:29Z</time>
      </trkpt>
      <trkpt lat="49.03716" lon="-0.46512">
        <ele>25.2</ele>
        <time>2023-04-21T12:13:30Z</time>
      </trkpt>
      <trkpt lat="49.0371" lon="-0.46515">
        <ele>25.2</ele>
        <time>2023-04-21T12:13:31Z</time>
      </trkpt>
      <trkpt lat="49.03704" lon="-0.46518">
        <ele>25.2</ele>
        <time>2023-04-21T12:13:32Z</time>
      </trkpt>
      <trkpt lat="49.03698" lon="-0.4652">
        <ele>25.2</ele>
        <time>2023-04-21T12:13:33Z</time>
      </trkpt>
      <trkpt lat="49.03692" lon="-0.46522">
        <ele>25</ele>
        <time>2023-04-21T12:13:34Z</time>
      </trkpt>
      <trkpt lat="49.03686" lon="-0.46525">
        <ele>24.8</ele>
        <time>2023-04-21T12:13:35Z</time>
      </trkpt>
      <trkpt lat="49.03681" lon="-0.46527">
        <ele>24.8</ele>
        <time>2023-04-21T12:13:36Z</time>
      </trkpt>
      <trkpt lat="49.03675" lon="-0.4653">
        <ele>24.8</ele>
        <time>2023-04-21T12:13:37Z</time>
      </trkpt>
      <trkpt lat="49.0367" lon="-0.46532">
        <ele>24.6</ele>
        <time>2023-04-21T12:13:38Z</time>
      </trkpt>
      <trkpt lat="49.03665" lon="-0.46534">
        <ele>24.6</ele>
        <time>2023-04-21T12:13:39Z</time>
      </trkpt>
      <trkpt lat="49.0366" lon="-0.46537">
        <ele>24.2</ele>
        <time>2023-04-21T12:13:40Z</time>
      </trkpt>
      <trkpt lat="49.03656" lon="-0.46539">
        <ele>23.8</ele>
        <time>2023-04-21T12:13:41Z</time>
      </trkpt>
      <trkpt lat="49.03651" lon="-0.46541">
        <ele>23.6</ele>
        <time>2023-04-21T12:13:42Z</time>
      </trkpt>
      <trkpt lat="49.03647" lon="-0.46544">
        <ele>23.4</ele>
        <time>2023-04-21T12:13:43Z</time>
      </trkpt>
      <trkpt lat="49.03643" lon="-0.46546">
        <ele>23.2</ele>
        <time>2023-04-21T12:13:44Z</time>
      </trkpt>
      <trkpt lat="49.03639" lon="-0.46548">
        <ele>22.8</ele>
        <time>2023-04-21T12:13:45Z</time>
      </trkpt>
      <trkpt lat="49.03635" lon="-0.4655">
        <ele>22.8</ele>
        <time>2023-04-21T12:13:46Z</time>
      </trkpt>
      <trkpt lat="49.03631" lon="-0.46551">
        <ele>22.6</ele>
        <time>2023-04-21T12:13:47Z</time>
      </trkpt>
      <trkpt lat="49.03626" lon="-0.46553">
        <ele>22.2</ele>
        <time>2023-04-21T12:13:48Z</time>
      </trkpt>
      <trkpt lat="49.03622" lon="-0.46555">
        <ele>22.2</ele>
        <time>2023-04-21T12:13:49Z</time>
      </trkpt>
      <trkpt lat="49.03617" lon="-0.46557">
        <ele>21.8</ele>
        <time>2023-04-21T12:13:50Z</time>
      </trkpt>
      <trkpt lat="49.03612" lon="-0.46559">
        <ele>21.8</ele>
        <time>2023-04-21T12:13:51Z</time>
      </trkpt>
      <trkpt lat="49.03607" lon="-0.46561">
        <ele>21.6</ele>
        <time>2023-04-21T12:13:52Z</time>
      </trkpt>
      <trkpt lat="49.03602" lon="-0.46563">
        <ele>21.2</ele>
        <time>2023-04-21T12:13:53Z</time>
      </trkpt>
      <trkpt lat="49.03597" lon="-0.46565">
        <ele>21.2</ele>
        <time>2023-04-21T12:13:54Z</time>
      </trkpt>
      <trkpt lat="49.03592" lon="-0.46567">
        <ele>20.8</ele>
        <time>2023-04-21T12:13:55Z</time>
      </trkpt>
      <trkpt lat="49.03587" lon="-0.46568">
        <ele>20.8</ele>
        <time>2023-04-21T12:13:56Z</time>
      </trkpt>
      <trkpt lat="49.03581" lon="-0.4657">
        <ele>20.6</ele>
        <time>2023-04-21T12:13:57Z</time>
      </trkpt>
      <trkpt lat="49.03576" lon="-0.46572">
        <ele>20.6</ele>
        <time>2023-04-21T12:13:58Z</time>
      </trkpt>
      <trkpt lat="49.0357" lon="-0.46574">
        <ele>20.6</ele>
        <time>2023-04-21T12:13:59Z</time>
      </trkpt>
      <trkpt lat="49.03564" lon="-0.46575">
        <ele>20.4</ele>
        <time>2023-04-21T12:14:00Z</time>
      </trkpt>
      <trkpt lat="49.03559" lon="-0.46577">
        <ele>20.4</ele>
        <time>2023-04-21T12:14:01Z</time>
      </trkpt>
      <trkpt lat="49.03553" lon="-0.46579">
        <ele>20.2</ele>
        <time>2023-04-21T12:14:02Z</time>
      </trkpt>
      <trkpt lat="49.03547" lon="-0.4658">
        <ele>20.2</ele>
        <time>2023-04-21T12:14:03Z</time>
      </trkpt>
      <trkpt lat="49.03541" lon="-0.46582">
        <ele>20.2</ele>
        <time>2023-04-21T12:14:04Z</time>
      </trkpt>
      <trkpt lat="49.03535" lon="-0.46583">
        <ele>20.2</ele>
        <time>2023-04-21T12:14:05Z</time>
      </trkpt>
      <trkpt lat="49.03529" lon="-0.46584">
        <ele>20.2</ele>
        <time>2023-04-21T12:14:06Z</time>
      </trkpt>
      <trkpt lat="49.03523" lon="-0.46586">
        <ele>20.2</ele>
        <time>2023-04-21T12:14:07Z</time>
      </trkpt>
      <trkpt lat="49.03517" lon="-0.46587">
        <ele>20.4</ele>
        <time>2023-04-21T12:14:08Z</time>
      </trkpt>
      <trkpt lat="49.03511" lon="-0.46588">
        <ele>20.6</ele>
        <time>2023-04-21T12:14:09Z</time>
      </trkpt>
      <trkpt lat="49.03505" lon="-0.46589">
        <ele>20.6</ele>
        <time>2023-04-21T12:14:10Z</time>
      </trkpt>
      <trkpt lat="49.03499" lon="-0.4659">
        <ele>20.6</ele>
        <time>2023-04-21T12:14:11Z</time>
      </trkpt>
      <trkpt lat="49.03493" lon="-0.46591">
        <ele>20.8</ele>
        <time>2023-04-21T12:14:12Z</time>
      </trkpt>
      <trkpt lat="49.03487" lon="-0.46592">
        <ele>20.8</ele>
        <time>2023-04-21T12:14:13Z</time>
      </trkpt>
      <trkpt lat="49.03481" lon="-0.46593">
        <ele>20.8</ele>
        <time>2023-04-21T12:14:14Z</time>
      </trkpt>
      <trkpt lat="49.03475" lon="-0.46593">
        <ele>21</ele>
        <time>2023-04-21T12:14:15Z</time>
      </trkpt>
      <trkpt lat="49.03469" lon="-0.46594">
        <ele>21.2</ele>
        <time>2023-04-21T12:14:16Z</time>
      </trkpt>
      <trkpt lat="49.03463" lon="-0.46594">
        <ele>21.2</ele>
        <time>2023-04-21T12:14:17Z</time>
      </trkpt>
      <trkpt lat="49.03457" lon="-0.46595">
        <ele>21.2</ele>
        <time>2023-04-21T12:14:18Z</time>
      </trkpt>
      <trkpt lat="49.03452" lon="-0.46595">
        <ele>21.4</ele>
        <time>2023-04-21T12:14:19Z</time>
      </trkpt>
      <trkpt lat="49.03446" lon="-0.46595">
        <ele>21.6</ele>
        <time>2023-04-21T12:14:20Z</time>
      </trkpt>
      <trkpt lat="49.03441" lon="-0.46594">
        <ele>21.8</ele>
        <time>2023-04-21T12:14:21Z</time>
      </trkpt>
      <trkpt lat="49.03435" lon="-0.46594">
        <ele>21.8</ele>
        <time>2023-04-21T12:14:22Z</time>
      </trkpt>
      <trkpt lat="49.0343" lon="-0.46594">
        <ele>21.8</ele>
        <time>2023-04-21T12:14:23Z</time>
      </trkpt>
      <trkpt lat="49.03425" lon="-0.46594">
        <ele>22</ele>
        <time>2023-04-21T12:14:24Z</time>
      </trkpt>
      <trkpt lat="49.0342" lon="-0.46594">
        <ele>22.2</ele>
        <time>2023-04-21T12:14:25Z</time>
      </trkpt>
      <trkpt lat="49.03414" lon="-0.46594">
        <ele>22.2</ele>
        <time>2023-04-21T12:14:26Z</time>
      </trkpt>
      <trkpt lat="49.03409" lon="-0.46594">
        <ele>22.2</ele>
        <time>2023-04-21T12:14:27Z</time>
      </trkpt>
      <trkpt lat="49.03403" lon="-0.46593">
        <ele>22.2</ele>
        <time>2023-04-21T12:14:28Z</time>
      </trkpt>
      <trkpt lat="49.03397" lon="-0.46593">
        <ele>22.2</ele>
        <time>2023-04-21T12:14:29Z</time>
      </trkpt>
      <trkpt lat="49.03391" lon="-0.46592">
        <ele>22.2</ele>
        <time>2023-04-21T12:14:30Z</time>
      </trkpt>
      <trkpt lat="49.03385" lon="-0.46592">
        <ele>22.2</ele>
        <time>2023-04-21T12:14:31Z</time>
      </trkpt>
      <trkpt lat="49.03379" lon="-0.46592">
        <ele>22.2</ele>
        <time>2023-04-21T12:14:32Z</time>
      </trkpt>
      <trkpt lat="49.03373" lon="-0.46591">
        <ele>22</ele>
        <time>2023-04-21T12:14:33Z</time>
      </trkpt>
      <trkpt lat="49.03367" lon="-0.46591">
        <ele>22</ele>
        <time>2023-04-21T12:14:34Z</time>
      </trkpt>
      <trkpt lat="49.03362" lon="-0.4659">
        <ele>22</ele>
        <time>2023-04-21T12:14:35Z</time>
      </trkpt>
      <trkpt lat="49.03357" lon="-0.46589">
        <ele>22</ele>
        <time>2023-04-21T12:14:36Z</time>
      </trkpt>
      <trkpt lat="49.03352" lon="-0.46588">
        <ele>22</ele>
        <time>2023-04-21T12:14:37Z</time>
      </trkpt>
      <trkpt lat="49.03347" lon="-0.46587">
        <ele>22</ele>
        <time>2023-04-21T12:14:38Z</time>
      </trkpt>
      <trkpt lat="49.03342" lon="-0.46585">
        <ele>22</ele>
        <time>2023-04-21T12:14:39Z</time>
      </trkpt>
      <trkpt lat="49.03337" lon="-0.46584">
        <ele>22</ele>
        <time>2023-04-21T12:14:40Z</time>
      </trkpt>
      <trkpt lat="49.03333" lon="-0.46583">
        <ele>22</ele>
        <time>2023-04-21T12:14:41Z</time>
      </trkpt>
      <trkpt lat="49.03329" lon="-0.46583">
        <ele>21.8</ele>
        <time>2023-04-21T12:14:42Z</time>
      </trkpt>
      <trkpt lat="49.03326" lon="-0.46583">
        <ele>21.8</ele>
        <time>2023-04-21T12:14:43Z</time>
      </trkpt>
      <trkpt lat="49.03323" lon="-0.46584">
        <ele>21.8</ele>
        <time>2023-04-21T12:14:44Z</time>
      </trkpt>
      <trkpt lat="49.0332" lon="-0.46585">
        <ele>21.6</ele>
        <time>2023-04-21T12:14:45Z</time>
      </trkpt>
      <trkpt lat="49.03318" lon="-0.46587">
        <ele>21.6</ele>
        <time>2023-04-21T12:14:46Z</time>
      </trkpt>
      <trkpt lat="49.03317" lon="-0.4659">
        <ele>21.4</ele>
        <time>2023-04-21T12:14:47Z</time>
      </trkpt>
      <trkpt lat="49.03316" lon="-0.46595">
        <ele>21.2</ele>
        <time>2023-04-21T12:14:48Z</time>
      </trkpt>
      <trkpt lat="49.03316" lon="-0.466">
        <ele>21.2</ele>
        <time>2023-04-21T12:14:49Z</time>
      </trkpt>
      <trkpt lat="49.03316" lon="-0.46606">
        <ele>20.8</ele>
        <time>2023-04-21T12:14:50Z</time>
      </trkpt>
      <trkpt lat="49.03315" lon="-0.46611">
        <ele>20.8</ele>
        <time>2023-04-21T12:14:51Z</time>
      </trkpt>
      <trkpt lat="49.03315" lon="-0.46617">
        <ele>20.6</ele>
        <time>2023-04-21T12:14:52Z</time>
      </trkpt>
      <trkpt lat="49.03314" lon="-0.46623">
        <ele>20.2</ele>
        <time>2023-04-21T12:14:53Z</time>
      </trkpt>
      <trkpt lat="49.03314" lon="-0.46629">
        <ele>20.2</ele>
        <time>2023-04-21T12:14:54Z</time>
      </trkpt>
      <trkpt lat="49.03313" lon="-0.46635">
        <ele>19.8</ele>
        <time>2023-04-21T12:14:55Z</time>
      </trkpt>
      <trkpt lat="49.03312" lon="-0.46642">
        <ele>19.8</ele>
        <time>2023-04-21T12:14:56Z</time>
      </trkpt>
      <trkpt lat="49.03312" lon="-0.46648">
        <ele>19.6</ele>
        <time>2023-04-21T12:14:57Z</time>
      </trkpt>
      <trkpt lat="49.03311" lon="-0.46655">
        <ele>19.4</ele>
        <time>2023-04-21T12:14:58Z</time>
      </trkpt>
      <trkpt lat="49.0331" lon="-0.46661">
        <ele>19.2</ele>
        <time>2023-04-21T12:14:59Z</time>
      </trkpt>
      <trkpt lat="49.0331" lon="-0.46668">
        <ele>19.2</ele>
        <time>2023-04-21T12:15:00Z</time>
      </trkpt>
      <trkpt lat="49.03309" lon="-0.46675">
        <ele>19.8</ele>
        <time>2023-04-21T12:15:01Z</time>
      </trkpt>
      <trkpt lat="49.03308" lon="-0.46682">
        <ele>20.4</ele>
        <time>2023-04-21T12:15:02Z</time>
      </trkpt>
      <trkpt lat="49.03308" lon="-0.46689">
        <ele>21</ele>
        <time>2023-04-21T12:15:03Z</time>
      </trkpt>
      <trkpt lat="49.03308" lon="-0.46696">
        <ele>21.8</ele>
        <time>2023-04-21T12:15:04Z</time>
      </trkpt>
      <trkpt lat="49.03307" lon="-0.46703">
        <ele>22.2</ele>
        <time>2023-04-21T12:15:05Z</time>
      </trkpt>
      <trkpt lat="49.03307" lon="-0.4671">
        <ele>23</ele>
        <time>2023-04-21T12:15:06Z</time>
      </trkpt>
      <trkpt lat="49.03308" lon="-0.46717">
        <ele>23.6</ele>
        <time>2023-04-21T12:15:07Z</time>
      </trkpt>
      <trkpt lat="49.03308" lon="-0.46723">
        <ele>24.2</ele>
        <time>2023-04-21T12:15:08Z</time>
      </trkpt>
      <trkpt lat="49.03309" lon="-0.46729">
        <ele>24.8</ele>
        <time>2023-04-21T12:15:09Z</time>
      </trkpt>
      <trkpt lat="49.03311" lon="-0.46735">
        <ele>25.2</ele>
        <time>2023-04-21T12:15:10Z</time>
      </trkpt>
      <trkpt lat="49.03313" lon="-0.4674">
        <ele>25.6</ele>
        <time>2023-04-21T12:15:11Z</time>
      </trkpt>
      <trkpt lat="49.03315" lon="-0.46744">
        <ele>25.8</ele>
        <time>2023-04-21T12:15:12Z</time>
      </trkpt>
      <trkpt lat="49.03318" lon="-0.46748">
        <ele>26.2</ele>
        <time>2023-04-21T12:15:13Z</time>
      </trkpt>
      <trkpt lat="49.03321" lon="-0.46751">
        <ele>26.6</ele>
        <time>2023-04-21T12:15:14Z</time>
      </trkpt>
      <trkpt lat="49.03324" lon="-0.46754">
        <ele>27</ele>
        <time>2023-04-21T12:15:15Z</time>
      </trkpt>
      <trkpt lat="49.03327" lon="-0.46757">
        <ele>27.6</ele>
        <time>2023-04-21T12:15:16Z</time>
      </trkpt>
      <trkpt lat="49.0333" lon="-0.46759">
        <ele>28</ele>
        <time>2023-04-21T12:15:17Z</time>
      </trkpt>
      <trkpt lat="49.03333" lon="-0.46762">
        <ele>28.4</ele>
        <time>2023-04-21T12:15:18Z</time>
      </trkpt>
      <trkpt lat="49.03336" lon="-0.46764">
        <ele>28.8</ele>
        <time>2023-04-21T12:15:19Z</time>
      </trkpt>
      <trkpt lat="49.03339" lon="-0.46766">
        <ele>29</ele>
        <time>2023-04-21T12:15:20Z</time>
      </trkpt>
      <trkpt lat="49.03341" lon="-0.46768">
        <ele>29.2</ele>
        <time>2023-04-21T12:15:21Z</time>
      </trkpt>
      <trkpt lat="49.03344" lon="-0.4677">
        <ele>29.6</ele>
        <time>2023-04-21T12:15:22Z</time>
      </trkpt>
      <trkpt lat="49.03347" lon="-0.46773">
        <ele>29.8</ele>
        <time>2023-04-21T12:15:23Z</time>
      </trkpt>
      <trkpt lat="49.0335" lon="-0.46775">
        <ele>30.2</ele>
        <time>2023-04-21T12:15:24Z</time>
      </trkpt>
      <trkpt lat="49.03353" lon="-0.46777">
        <ele>30.4</ele>
        <time>2023-04-21T12:15:25Z</time>
      </trkpt>
      <trkpt lat="49.03356" lon="-0.46779">
        <ele>30.8</ele>
        <time>2023-04-21T12:15:26Z</time>
      </trkpt>
      <trkpt lat="49.03359" lon="-0.46781">
        <ele>31</ele>
        <time>2023-04-21T12:15:27Z</time>
      </trkpt>
      <trkpt lat="49.03363" lon="-0.46783">
        <ele>31.2</ele>
        <time>2023-04-21T12:15:28Z</time>
      </trkpt>
      <trkpt lat="49.03366" lon="-0.46785">
        <ele>31.6</ele>
        <time>2023-04-21T12:15:29Z</time>
      </trkpt>
      <trkpt lat="49.03369" lon="-0.46787">
        <ele>31.8</ele>
        <time>2023-04-21T12:15:30Z</time>
      </trkpt>
      <trkpt lat="49.03372" lon="-0.4679">
        <ele>32</ele>
        <time>2023-04-21T12:15:31Z</time>
      </trkpt>
      <trkpt lat="49.03375" lon="-0.46792">
        <ele>32.2</ele>
        <time>2023-04-21T12:15:32Z</time>
      </trkpt>
      <trkpt lat="49.03378" lon="-0.46794">
        <ele>32.6</ele>
        <time>2023-04-21T12:15:33Z</time>
      </trkpt>
      <trkpt lat="49.03381" lon="-0.46797">
        <ele>33</ele>
        <time>2023-04-21T12:15:34Z</time>
      </trkpt>
      <trkpt lat="49.03384" lon="-0.46799">
        <ele>33.2</ele>
        <time>2023-04-21T12:15:35Z</time>
      </trkpt>
      <trkpt lat="49.03387" lon="-0.46802">
        <ele>33.6</ele>
        <time>2023-04-21T12:15:36Z</time>
      </trkpt>
      <trkpt lat="49.03391" lon="-0.46805">
        <ele>34</ele>
        <time>2023-04-21T12:15:37Z</time>
      </trkpt>
      <trkpt lat="49.03394" lon="-0.46808">
        <ele>34.4</ele>
        <time>2023-04-21T12:15:38Z</time>
      </trkpt>
      <trkpt lat="49.03398" lon="-0.46811">
        <ele>34.8</ele>
        <time>2023-04-21T12:15:39Z</time>
      </trkpt>
      <trkpt lat="49.03401" lon="-0.46813">
        <ele>35</ele>
        <time>2023-04-21T12:15:40Z</time>
      </trkpt>
      <trkpt lat="49.03404" lon="-0.46815">
        <ele>35.2</ele>
        <time>2023-04-21T12:15:41Z</time>
      </trkpt>
      <trkpt lat="49.03408" lon="-0.46817">
        <ele>35.4</ele>
        <time>2023-04-21T12:15:42Z</time>
      </trkpt>
      <trkpt lat="49.03411" lon="-0.46818">
        <ele>35.6</ele>
        <time>2023-04-21T12:15:43Z</time>
      </trkpt>
      <trkpt lat="49.03415" lon="-0.46819">
        <ele>35.4</ele>
        <time>2023-04-21T12:15:44Z</time>
      </trkpt>
      <trkpt lat="49.03418" lon="-0.4682">
        <ele>35.4</ele>
        <time>2023-04-21T12:15:45Z</time>
      </trkpt>
      <trkpt lat="49.03422" lon="-0.4682">
        <ele>35.4</ele>
        <time>2023-04-21T12:15:46Z</time>
      </trkpt>
      <trkpt lat="49.03426" lon="-0.46819">
        <ele>35.2</ele>
        <time>2023-04-21T12:15:47Z</time>
      </trkpt>
      <trkpt lat="49.03429" lon="-0.46818">
        <ele>35.2</ele>
        <time>2023-04-21T12:15:48Z</time>
      </trkpt>
      <trkpt lat="49.03433" lon="-0.46817">
        <ele>35</ele>
        <time>2023-04-21T12:15:49Z</time>
      </trkpt>
      <trkpt lat="49.03437" lon="-0.46816">
        <ele>35</ele>
        <time>2023-04-21T12:15:50Z</time>
      </trkpt>
      <trkpt lat="49.0344" lon="-0.46816">
        <ele>35</ele>
        <time>2023-04-21T12:15:51Z</time>
      </trkpt>
      <trkpt lat="49.03444" lon="-0.46817">
        <ele>35</ele>
        <time>2023-04-21T12:15:52Z</time>
      </trkpt>
      <trkpt lat="49.03448" lon="-0.46818">
        <ele>35.2</ele>
        <time>2023-04-21T12:15:53Z</time>
      </trkpt>
      <trkpt lat="49.03451" lon="-0.46819">
        <ele>35.6</ele>
        <time>2023-04-21T12:15:54Z</time>
      </trkpt>
      <trkpt lat="49.03455" lon="-0.46821">
        <ele>36</ele>
        <time>2023-04-21T12:15:55Z</time>
      </trkpt>
      <trkpt lat="49.03458" lon="-0.46823">
        <ele>36.4</ele>
        <time>2023-04-21T12:15:56Z</time>
      </trkpt>
      <trkpt lat="49.03461" lon="-0.46825">
        <ele>37</ele>
        <time>2023-04-21T12:15:57Z</time>
      </trkpt>
      <trkpt lat="49.03465" lon="-0.46827">
        <ele>37.2</ele>
        <time>2023-04-21T12:15:58Z</time>
      </trkpt>
      <trkpt lat="49.03468" lon="-0.46829">
        <ele>37.8</ele>
        <time>2023-04-21T12:15:59Z</time>
      </trkpt>
      <trkpt lat="49.03471" lon="-0.46831">
        <ele>38</ele>
        <time>2023-04-21T12:16:00Z</time>
      </trkpt>
      <trkpt lat="49.03474" lon="-0.46832">
        <ele>38.6</ele>
        <time>2023-04-21T12:16:01Z</time>
      </trkpt>
      <trkpt lat="49.03478" lon="-0.46833">
        <ele>38.8</ele>
        <time>2023-04-21T12:16:02Z</time>
      </trkpt>
      <trkpt lat="49.03481" lon="-0.46834">
        <ele>39</ele>
        <time>2023-04-21T12:16:03Z</time>
      </trkpt>
      <trkpt lat="49.03484" lon="-0.46835">
        <ele>39</ele>
        <time>2023-04-21T12:16:04Z</time>
      </trkpt>
      <trkpt lat="49.03487" lon="-0.46836">
        <ele>39.2</ele>
        <time>2023-04-21T12:16:05Z</time>
      </trkpt>
      <trkpt lat="49.03491" lon="-0.46836">
        <ele>39.2</ele>
        <time>2023-04-21T12:16:06Z</time>
      </trkpt>
      <trkpt lat="49.03494" lon="-0.46835">
        <ele>39.2</ele>
        <time>2023-04-21T12:16:07Z</time>
      </trkpt>
      <trkpt lat="49.03497" lon="-0.46835">
        <ele>39</ele>
        <time>2023-04-21T12:16:08Z</time>
      </trkpt>
      <trkpt lat="49.03501" lon="-0.46834">
        <ele>39</ele>
        <time>2023-04-21T12:16:09Z</time>
      </trkpt>
      <trkpt lat="49.03504" lon="-0.46834">
        <ele>39.2</ele>
        <time>2023-04-21T12:16:10Z</time>
      </trkpt>
      <trkpt lat="49.03507" lon="-0.46834">
        <ele>39.2</ele>
        <time>2023-04-21T12:16:11Z</time>
      </trkpt>
      <trkpt lat="49.0351" lon="-0.46834">
        <ele>39.6</ele>
        <time>2023-04-21T12:16:12Z</time>
      </trkpt>
      <trkpt lat="49.03513" lon="-0.46835">
        <ele>39.6</ele>
        <time>2023-04-21T12:16:13Z</time>
      </trkpt>
      <trkpt lat="49.03516" lon="-0.46835">
        <ele>40</ele>
        <time>2023-04-21T12:16:14Z</time>
      </trkpt>
      <trkpt lat="49.03519" lon="-0.46836">
        <ele>40</ele>
        <time>2023-04-21T12:16:15Z</time>
      </trkpt>
      <trkpt lat="49.03522" lon="-0.46838">
        <ele>40.4</ele>
        <time>2023-04-21T12:16:16Z</time>
      </trkpt>
      <trkpt lat="49.03525" lon="-0.46839">
        <ele>40.8</ele>
        <time>2023-04-21T12:16:17Z</time>
      </trkpt>
      <trkpt lat="49.03528" lon="-0.46841">
        <ele>41</ele>
        <time>2023-04-21T12:16:18Z</time>
      </trkpt>
      <trkpt lat="49.03531" lon="-0.46842">
        <ele>41.2</ele>
        <time>2023-04-21T12:16:19Z</time>
      </trkpt>
      <trkpt lat="49.03534" lon="-0.46844">
        <ele>41.8</ele>
        <time>2023-04-21T12:16:20Z</time>
      </trkpt>
      <trkpt lat="49.03537" lon="-0.46847">
        <ele>42</ele>
        <time>2023-04-21T12:16:21Z</time>
      </trkpt>
      <trkpt lat="49.0354" lon="-0.46849">
        <ele>42.6</ele>
        <time>2023-04-21T12:16:22Z</time>
      </trkpt>
      <trkpt lat="49.03543" lon="-0.46852">
        <ele>43</ele>
        <time>2023-04-21T12:16:23Z</time>
      </trkpt>
      <trkpt lat="49.03546" lon="-0.46854">
        <ele>43.4</ele>
        <time>2023-04-21T12:16:24Z</time>
      </trkpt>
      <trkpt lat="49.03549" lon="-0.46857">
        <ele>44</ele>
        <time>2023-04-21T12:16:25Z</time>
      </trkpt>
      <trkpt lat="49.03552" lon="-0.4686">
        <ele>44.4</ele>
        <time>2023-04-21T12:16:26Z</time>
      </trkpt>
      <trkpt lat="49.03554" lon="-0.46863">
        <ele>45</ele>
        <time>2023-04-21T12:16:27Z</time>
      </trkpt>
      <trkpt lat="49.03557" lon="-0.46866">
        <ele>45.2</ele>
        <time>2023-04-21T12:16:28Z</time>
      </trkpt>
      <trkpt lat="49.0356" lon="-0.46868">
        <ele>45.8</ele>
        <time>2023-04-21T12:16:29Z</time>
      </trkpt>
      <trkpt lat="49.03563" lon="-0.4687">
        <ele>46.2</ele>
        <time>2023-04-21T12:16:30Z</time>
      </trkpt>
      <trkpt lat="49.03566" lon="-0.46872">
        <ele>46.6</ele>
        <time>2023-04-21T12:16:31Z</time>
      </trkpt>
      <trkpt lat="49.03569" lon="-0.46874">
        <ele>47</ele>
        <time>2023-04-21T12:16:32Z</time>
      </trkpt>
      <trkpt lat="49.03572" lon="-0.46875">
        <ele>47</ele>
        <time>2023-04-21T12:16:33Z</time>
      </trkpt>
      <trkpt lat="49.03575" lon="-0.46876">
        <ele>47.2</ele>
        <time>2023-04-21T12:16:34Z</time>
      </trkpt>
      <trkpt lat="49.03578" lon="-0.46877">
        <ele>47.6</ele>
        <time>2023-04-21T12:16:35Z</time>
      </trkpt>
      <trkpt lat="49.03581" lon="-0.46877">
        <ele>47.6</ele>
        <time>2023-04-21T12:16:36Z</time>
      </trkpt>
      <trkpt lat="49.03584" lon="-0.46876">
        <ele>47.8</ele>
        <time>2023-04-21T12:16:37Z</time>
      </trkpt>
      <trkpt lat="49.03587" lon="-0.46876">
        <ele>48</ele>
        <time>2023-04-21T12:16:38Z</time>
      </trkpt>
      <trkpt lat="49.0359" lon="-0.46874">
        <ele>48</ele>
        <time>2023-04-21T12:16:39Z</time>
      </trkpt>
      <trkpt lat="49.03593" lon="-0.46873">
        <ele>48</ele>
        <time>2023-04-21T12:16:40Z</time>
      </trkpt>
      <trkpt lat="49.03596" lon="-0.46871">
        <ele>48</ele>
        <time>2023-04-21T12:16:41Z</time>
      </trkpt>
      <trkpt lat="49.03599" lon="-0.46869">
        <ele>48</ele>
        <time>2023-04-21T12:16:42Z</time>
      </trkpt>
      <trkpt lat="49.03602" lon="-0.46867">
        <ele>48</ele>
        <time>2023-04-21T12:16:43Z</time>
      </trkpt>
      <trkpt lat="49.03604" lon="-0.46865">
        <ele>48</ele>
        <time>2023-04-21T12:16:44Z</time>
      </trkpt>
      <trkpt lat="49.03607" lon="-0.46863">
        <ele>48</ele>
        <time>2023-04-21T12:16:45Z</time>
      </trkpt>
      <trkpt lat="49.0361" lon="-0.46861">
        <ele>48</ele>
        <time>2023-04-21T12:16:46Z</time>
      </trkpt>
      <trkpt lat="49.03613" lon="-0.46858">
        <ele>48</ele>
        <time>2023-04-21T12:16:47Z</time>
      </trkpt>
      <trkpt lat="49.03616" lon="-0.46856">
        <ele>48</ele>
        <time>2023-04-21T12:16:48Z</time>
      </trkpt>
      <trkpt lat="49.03619" lon="-0.46854">
        <ele>48</ele>
        <time>2023-04-21T12:16:49Z</time>
      </trkpt>
      <trkpt lat="49.03621" lon="-0.46852">
        <ele>48</ele>
        <time>2023-04-21T12:16:50Z</time>
      </trkpt>
      <trkpt lat="49.03624" lon="-0.4685">
        <ele>48</ele>
        <time>2023-04-21T12:16:51Z</time>
      </trkpt>
      <trkpt lat="49.03627" lon="-0.46847">
        <ele>48</ele>
        <time>2023-04-21T12:16:52Z</time>
      </trkpt>
      <trkpt lat="49.0363" lon="-0.46845">
        <ele>48</ele>
        <time>2023-04-21T12:16:53Z</time>
      </trkpt>
      <trkpt lat="49.03632" lon="-0.46843">
        <ele>48</ele>
        <time>2023-04-21T12:16:54Z</time>
      </trkpt>
      <trkpt lat="49.03635" lon="-0.4684">
        <ele>47.8</ele>
        <time>2023-04-21T12:16:55Z</time>
      </trkpt>
      <trkpt lat="49.03638" lon="-0.46838">
        <ele>47.8</ele>
        <time>2023-04-21T12:16:56Z</time>
      </trkpt>
      <trkpt lat="49.0364" lon="-0.46836">
        <ele>47.8</ele>
        <time>2023-04-21T12:16:57Z</time>
      </trkpt>
      <trkpt lat="49.03643" lon="-0.46833">
        <ele>47.8</ele>
        <time>2023-04-21T12:16:58Z</time>
      </trkpt>
      <trkpt lat="49.03645" lon="-0.46831">
        <ele>47.6</ele>
        <time>2023-04-21T12:16:59Z</time>
      </trkpt>
      <trkpt lat="49.03648" lon="-0.46829">
        <ele>47.2</ele>
        <time>2023-04-21T12:17:00Z</time>
      </trkpt>
      <trkpt lat="49.0365" lon="-0.46827">
        <ele>47</ele>
        <time>2023-04-21T12:17:01Z</time>
      </trkpt>
      <trkpt lat="49.03653" lon="-0.46826">
        <ele>47</ele>
        <time>2023-04-21T12:17:02Z</time>
      </trkpt>
      <trkpt lat="49.03655" lon="-0.46824">
        <ele>47</ele>
        <time>2023-04-21T12:17:03Z</time>
      </trkpt>
      <trkpt lat="49.03658" lon="-0.46823">
        <ele>47</ele>
        <time>2023-04-21T12:17:04Z</time>
      </trkpt>
      <trkpt lat="49.0366" lon="-0.46822">
        <ele>47</ele>
        <time>2023-04-21T12:17:05Z</time>
      </trkpt>
      <trkpt lat="49.03663" lon="-0.46821">
        <ele>47</ele>
        <time>2023-04-21T12:17:06Z</time>
      </trkpt>
      <trkpt lat="49.03665" lon="-0.4682">
        <ele>47</ele>
        <time>2023-04-21T12:17:07Z</time>
      </trkpt>
      <trkpt lat="49.03668" lon="-0.4682">
        <ele>47</ele>
        <time>2023-04-21T12:17:08Z</time>
      </trkpt>
      <trkpt lat="49.03671" lon="-0.46819">
        <ele>46.8</ele>
        <time>2023-04-21T12:17:09Z</time>
      </trkpt>
      <trkpt lat="49.03674" lon="-0.46819">
        <ele>46.6</ele>
        <time>2023-04-21T12:17:10Z</time>
      </trkpt>
      <trkpt lat="49.03677" lon="-0.46819">
        <ele>46.4</ele>
        <time>2023-04-21T12:17:11Z</time>
      </trkpt>
      <trkpt lat="49.0368" lon="-0.4682">
        <ele>46.2</ele>
        <time>2023-04-21T12:17:12Z</time>
      </trkpt>
      <trkpt lat="49.03683" lon="-0.4682">
        <ele>46.2</ele>
        <time>2023-04-21T12:17:13Z</time>
      </trkpt>
      <trkpt lat="49.03686" lon="-0.46821">
        <ele>46.2</ele>
        <time>2023-04-21T12:17:14Z</time>
      </trkpt>
      <trkpt lat="49.03688" lon="-0.46822">
        <ele>46.2</ele>
        <time>2023-04-21T12:17:15Z</time>
      </trkpt>
      <trkpt lat="49.03691" lon="-0.46824">
        <ele>46.6</ele>
        <time>2023-04-21T12:17:16Z</time>
      </trkpt>
      <trkpt lat="49.03693" lon="-0.46825">
        <ele>46.6</ele>
        <time>2023-04-21T12:17:17Z</time>
      </trkpt>
      <trkpt lat="49.03696" lon="-0.46827">
        <ele>46.8</ele>
        <time>2023-04-21T12:17:18Z</time>
      </trkpt>
      <trkpt lat="49.03698" lon="-0.4683">
        <ele>47</ele>
        <time>2023-04-21T12:17:19Z</time>
      </trkpt>
      <trkpt lat="49.03701" lon="-0.46832">
        <ele>47.4</ele>
        <time>2023-04-21T12:17:20Z</time>
      </trkpt>
      <trkpt lat="49.03703" lon="-0.46835">
        <ele>47.6</ele>
        <time>2023-04-21T12:17:21Z</time>
      </trkpt>
      <trkpt lat="49.03705" lon="-0.46839">
        <ele>47.8</ele>
        <time>2023-04-21T12:17:22Z</time>
      </trkpt>
      <trkpt lat="49.03707" lon="-0.46842">
        <ele>48</ele>
        <time>2023-04-21T12:17:23Z</time>
      </trkpt>
      <trkpt lat="49.03708" lon="-0.46846">
        <ele>48.2</ele>
        <time>2023-04-21T12:17:24Z</time>
      </trkpt>
      <trkpt lat="49.0371" lon="-0.4685">
        <ele>48.6</ele>
        <time>2023-04-21T12:17:25Z</time>
      </trkpt>
      <trkpt lat="49.03711" lon="-0.46854">
        <ele>48.8</ele>
        <time>2023-04-21T12:17:26Z</time>
      </trkpt>
      <trkpt lat="49.03712" lon="-0.46858">
        <ele>49</ele>
        <time>2023-04-21T12:17:27Z</time>
      </trkpt>
      <trkpt lat="49.03713" lon="-0.46863">
        <ele>49.4</ele>
        <time>2023-04-21T12:17:28Z</time>
      </trkpt>
      <trkpt lat="49.03714" lon="-0.46867">
        <ele>49.8</ele>
        <time>2023-04-21T12:17:29Z</time>
      </trkpt>
      <trkpt lat="49.03715" lon="-0.46871">
        <ele>50</ele>
        <time>2023-04-21T12:17:30Z</time>
      </trkpt>
      <trkpt lat="49.03716" lon="-0.46875">
        <ele>50.2</ele>
        <time>2023-04-21T12:17:31Z</time>
      </trkpt>
      <trkpt lat="49.03716" lon="-0.46879">
        <ele>50.6</ele>
        <time>2023-04-21T12:17:32Z</time>
      </trkpt>
      <trkpt lat="49.03717" lon="-0.46883">
        <ele>51</ele>
        <time>2023-04-21T12:17:33Z</time>
      </trkpt>
      <trkpt lat="49.03717" lon="-0.46888">
        <ele>51.2</ele>
        <time>2023-04-21T12:17:34Z</time>
      </trkpt>
      <trkpt lat="49.03718" lon="-0.46892">
        <ele>51.6</ele>
        <time>2023-04-21T12:17:35Z</time>
      </trkpt>
      <trkpt lat="49.03718" lon="-0.46896">
        <ele>52</ele>
        <time>2023-04-21T12:17:36Z</time>
      </trkpt>
      <trkpt lat="49.03718" lon="-0.469">
        <ele>52.4</ele>
        <time>2023-04-21T12:17:37Z</time>
      </trkpt>
      <trkpt lat="49.03718" lon="-0.46904">
        <ele>52.8</ele>
        <time>2023-04-21T12:17:38Z</time>
      </trkpt>
      <trkpt lat="49.03718" lon="-0.46909">
        <ele>53</ele>
        <time>2023-04-21T12:17:39Z</time>
      </trkpt>
      <trkpt lat="49.03718" lon="-0.46913">
        <ele>53.6</ele>
        <time>2023-04-21T12:17:40Z</time>
      </trkpt>
      <trkpt lat="49.03718" lon="-0.46917">
        <ele>53.8</ele>
        <time>2023-04-21T12:17:41Z</time>
      </trkpt>
      <trkpt lat="49.03718" lon="-0.46921">
        <ele>54.2</ele>
        <time>2023-04-21T12:17:42Z</time>
      </trkpt>
      <trkpt lat="49.03719" lon="-0.46925">
        <ele>54.6</ele>
        <time>2023-04-21T12:17:43Z</time>
      </trkpt>
      <trkpt lat="49.03719" lon="-0.4693">
        <ele>54.8</ele>
        <time>2023-04-21T12:17:44Z</time>
      </trkpt>
      <trkpt lat="49.03719" lon="-0.46934">
        <ele>55.2</ele>
        <time>2023-04-21T12:17:45Z</time>
      </trkpt>
      <trkpt lat="49.03719" lon="-0.46938">
        <ele>55.6</ele>
        <time>2023-04-21T12:17:46Z</time>
      </trkpt>
      <trkpt lat="49.03719" lon="-0.46942">
        <ele>55.8</ele>
        <time>2023-04-21T12:17:47Z</time>
      </trkpt>
      <trkpt lat="49.03719" lon="-0.46946">
        <ele>56.2</ele>
        <time>2023-04-21T12:17:48Z</time>
      </trkpt>
      <trkpt lat="49.0372" lon="-0.46951">
        <ele>56.6</ele>
        <time>2023-04-21T12:17:49Z</time>
      </trkpt>
      <trkpt lat="49.0372" lon="-0.46955">
        <ele>56.8</ele>
        <time>2023-04-21T12:17:50Z</time>
      </trkpt>
      <trkpt lat="49.0372" lon="-0.46959">
        <ele>57</ele>
        <time>2023-04-21T12:17:51Z</time>
      </trkpt>
      <trkpt lat="49.03721" lon="-0.46963">
        <ele>57.4</ele>
        <time>2023-04-21T12:17:52Z</time>
      </trkpt>
      <trkpt lat="49.03721" lon="-0.46967">
        <ele>57.8</ele>
        <time>2023-04-21T12:17:53Z</time>
      </trkpt>
      <trkpt lat="49.03721" lon="-0.46971">
        <ele>58</ele>
        <time>2023-04-21T12:17:54Z</time>
      </trkpt>
      <trkpt lat="49.03722" lon="-0.46975">
        <ele>58.2</ele>
        <time>2023-04-21T12:17:55Z</time>
      </trkpt>
      <trkpt lat="49.03722" lon="-0.46979">
        <ele>58.6</ele>
        <time>2023-04-21T12:17:56Z</time>
      </trkpt>
      <trkpt lat="49.03723" lon="-0.46983">
        <ele>58.8</ele>
        <time>2023-04-21T12:17:57Z</time>
      </trkpt>
      <trkpt lat="49.03724" lon="-0.46987">
        <ele>59</ele>
        <time>2023-04-21T12:17:58Z</time>
      </trkpt>
      <trkpt lat="49.03725" lon="-0.46991">
        <ele>59.2</ele>
        <time>2023-04-21T12:17:59Z</time>
      </trkpt>
      <trkpt lat="49.03725" lon="-0.46996">
        <ele>59.6</ele>
        <time>2023-04-21T12:18:00Z</time>
      </trkpt>
      <trkpt lat="49.03726" lon="-0.47">
        <ele>59.8</ele>
        <time>2023-04-21T12:18:01Z</time>
      </trkpt>
      <trkpt lat="49.03727" lon="-0.47004">
        <ele>59.8</ele>
        <time>2023-04-21T12:18:02Z</time>
      </trkpt>
      <trkpt lat="49.03728" lon="-0.47007">
        <ele>59.8</ele>
        <time>2023-04-21T12:18:03Z</time>
      </trkpt>
      <trkpt lat="49.0373" lon="-0.47011">
        <ele>59.8</ele>
        <time>2023-04-21T12:18:04Z</time>
      </trkpt>
      <trkpt lat="49.03731" lon="-0.47015">
        <ele>59.6</ele>
        <time>2023-04-21T12:18:05Z</time>
      </trkpt>
      <trkpt lat="49.03732" lon="-0.47019">
        <ele>59.6</ele>
        <time>2023-04-21T12:18:06Z</time>
      </trkpt>
      <trkpt lat="49.03733" lon="-0.47023">
        <ele>59.6</ele>
        <time>2023-04-21T12:18:07Z</time>
      </trkpt>
      <trkpt lat="49.03734" lon="-0.47026">
        <ele>59.4</ele>
        <time>2023-04-21T12:18:08Z</time>
      </trkpt>
      <trkpt lat="49.03735" lon="-0.4703">
        <ele>59.4</ele>
        <time>2023-04-21T12:18:09Z</time>
      </trkpt>
      <trkpt lat="49.03736" lon="-0.47034">
        <ele>59.2</ele>
        <time>2023-04-21T12:18:10Z</time>
      </trkpt>
      <trkpt lat="49.03737" lon="-0.47038">
        <ele>59.2</ele>
        <time>2023-04-21T12:18:11Z</time>
      </trkpt>
      <trkpt lat="49.03738" lon="-0.47042">
        <ele>59.2</ele>
        <time>2023-04-21T12:18:12Z</time>
      </trkpt>
      <trkpt lat="49.03739" lon="-0.47046">
        <ele>59.2</ele>
        <time>2023-04-21T12:18:13Z</time>
      </trkpt>
      <trkpt lat="49.03739" lon="-0.4705">
        <ele>59.2</ele>
        <time>2023-04-21T12:18:14Z</time>
      </trkpt>
      <trkpt lat="49.0374" lon="-0.47054">
        <ele>59.4</ele>
        <time>2023-04-21T12:18:15Z</time>
      </trkpt>
      <trkpt lat="49.0374" lon="-0.47058">
        <ele>59.4</ele>
        <time>2023-04-21T12:18:16Z</time>
      </trkpt>
      <trkpt lat="49.0374" lon="-0.47063">
        <ele>59.6</ele>
        <time>2023-04-21T12:18:17Z</time>
      </trkpt>
      <trkpt lat="49.0374" lon="-0.47067">
        <ele>59.8</ele>
        <time>2023-04-21T12:18:18Z</time>
      </trkpt>
      <trkpt lat="49.03739" lon="-0.47071">
        <ele>59.8</ele>
        <time>2023-04-21T12:18:19Z</time>
      </trkpt>
      <trkpt lat="49.03739" lon="-0.47075">
        <ele>60</ele>
        <time>2023-04-21T12:18:20Z</time>
      </trkpt>
      <trkpt lat="49.03738" lon="-0.47079">
        <ele>60</ele>
        <time>2023-04-21T12:18:21Z</time>
      </trkpt>
      <trkpt lat="49.03737" lon="-0.47083">
        <ele>60.2</ele>
        <time>2023-04-21T12:18:22Z</time>
      </trkpt>
      <trkpt lat="49.03736" lon="-0.47087">
        <ele>60.6</ele>
        <time>2023-04-21T12:18:23Z</time>
      </trkpt>
      <trkpt lat="49.03735" lon="-0.4709">
        <ele>60.8</ele>
        <time>2023-04-21T12:18:24Z</time>
      </trkpt>
      <trkpt lat="49.03734" lon="-0.47094">
        <ele>61</ele>
        <time>2023-04-21T12:18:25Z</time>
      </trkpt>
      <trkpt lat="49.03732" lon="-0.47098">
        <ele>61.2</ele>
        <time>2023-04-21T12:18:26Z</time>
      </trkpt>
      <trkpt lat="49.03731" lon="-0.47101">
        <ele>61.6</ele>
        <time>2023-04-21T12:18:27Z</time>
      </trkpt>
      <trkpt lat="49.03729" lon="-0.47105">
        <ele>61.8</ele>
        <time>2023-04-21T12:18:28Z</time>
      </trkpt>
      <trkpt lat="49.03728" lon="-0.47108">
        <ele>62</ele>
        <time>2023-04-21T12:18:29Z</time>
      </trkpt>
      <trkpt lat="49.03726" lon="-0.47112">
        <ele>62.2</ele>
        <time>2023-04-21T12:18:30Z</time>
      </trkpt>
      <trkpt lat="49.03725" lon="-0.47115">
        <ele>62.6</ele>
        <time>2023-04-21T12:18:31Z</time>
      </trkpt>
      <trkpt lat="49.03724" lon="-0.47119">
        <ele>62.8</ele>
        <time>2023-04-21T12:18:32Z</time>
      </trkpt>
      <trkpt lat="49.03723" lon="-0.47122">
        <ele>63</ele>
        <time>2023-04-21T12:18:33Z</time>
      </trkpt>
      <trkpt lat="49.03721" lon="-0.47126">
        <ele>63.2</ele>
        <time>2023-04-21T12:18:34Z</time>
      </trkpt>
      <trkpt lat="49.03721" lon="-0.47129">
        <ele>63.4</ele>
        <time>2023-04-21T12:18:35Z</time>
      </trkpt>
      <trkpt lat="49.03719" lon="-0.47132">
        <ele>63.6</ele>
        <time>2023-04-21T12:18:36Z</time>
      </trkpt>
      <trkpt lat="49.03718" lon="-0.47136">
        <ele>63.8</ele>
        <time>2023-04-21T12:18:37Z</time>
      </trkpt>
      <trkpt lat="49.03717" lon="-0.47139">
        <ele>64</ele>
        <time>2023-04-21T12:18:38Z</time>
      </trkpt>
      <trkpt lat="49.03716" lon="-0.47143">
        <ele>64.4</ele>
        <time>2023-04-21T12:18:39Z</time>
      </trkpt>
      <trkpt lat="49.03714" lon="-0.47146">
        <ele>64.6</ele>
        <time>2023-04-21T12:18:40Z</time>
      </trkpt>
      <trkpt lat="49.03713" lon="-0.4715">
        <ele>64.6</ele>
        <time>2023-04-21T12:18:41Z</time>
      </trkpt>
      <trkpt lat="49.03711" lon="-0.47154">
        <ele>65</ele>
        <time>2023-04-21T12:18:42Z</time>
      </trkpt>
      <trkpt lat="49.0371" lon="-0.47158">
        <ele>65</ele>
        <time>2023-04-21T12:18:43Z</time>
      </trkpt>
      <trkpt lat="49.03708" lon="-0.47162">
        <ele>65.4</ele>
        <time>2023-04-21T12:18:44Z</time>
      </trkpt>
      <trkpt lat="49.03707" lon="-0.47166">
        <ele>65.6</ele>
        <time>2023-04-21T12:18:45Z</time>
      </trkpt>
      <trkpt lat="49.03705" lon="-0.4717">
        <ele>66</ele>
        <time>2023-04-21T12:18:46Z</time>
      </trkpt>
      <trkpt lat="49.03704" lon="-0.47174">
        <ele>66.2</ele>
        <time>2023-04-21T12:18:47Z</time>
      </trkpt>
      <trkpt lat="49.03702" lon="-0.47178">
        <ele>66.6</ele>
        <time>2023-04-21T12:18:48Z</time>
      </trkpt>
      <trkpt lat="49.03701" lon="-0.47181">
        <ele>67</ele>
        <time>2023-04-21T12:18:49Z</time>
      </trkpt>
      <trkpt lat="49.03699" lon="-0.47185">
        <ele>67.2</ele>
        <time>2023-04-21T12:18:50Z</time>
      </trkpt>
      <trkpt lat="49.03698" lon="-0.4719">
        <ele>67.6</ele>
        <time>2023-04-21T12:18:51Z</time>
      </trkpt>
      <trkpt lat="49.03696" lon="-0.47193">
        <ele>68</ele>
        <time>2023-04-21T12:18:52Z</time>
      </trkpt>
      <trkpt lat="49.03695" lon="-0.47197">
        <ele>68.2</ele>
        <time>2023-04-21T12:18:53Z</time>
      </trkpt>
      <trkpt lat="49.03693" lon="-0.47201">
        <ele>68.6</ele>
        <time>2023-04-21T12:18:54Z</time>
      </trkpt>
      <trkpt lat="49.03692" lon="-0.47205">
        <ele>68.6</ele>
        <time>2023-04-21T12:18:55Z</time>
      </trkpt>
      <trkpt lat="49.0369" lon="-0.47209">
        <ele>69</ele>
        <time>2023-04-21T12:18:56Z</time>
      </trkpt>
      <trkpt lat="49.03689" lon="-0.47212">
        <ele>69.4</ele>
        <time>2023-04-21T12:18:57Z</time>
      </trkpt>
      <trkpt lat="49.03687" lon="-0.47216">
        <ele>69.6</ele>
        <time>2023-04-21T12:18:58Z</time>
      </trkpt>
      <trkpt lat="49.03685" lon="-0.47219">
        <ele>69.8</ele>
        <time>2023-04-21T12:18:59Z</time>
      </trkpt>
      <trkpt lat="49.03684" lon="-0.47222">
        <ele>70</ele>
        <time>2023-04-21T12:19:00Z</time>
      </trkpt>
      <trkpt lat="49.03682" lon="-0.47226">
        <ele>70.4</ele>
        <time>2023-04-21T12:19:01Z</time>
      </trkpt>
      <trkpt lat="49.0368" lon="-0.47229">
        <ele>70.6</ele>
        <time>2023-04-21T12:19:02Z</time>
      </trkpt>
      <trkpt lat="49.03678" lon="-0.47232">
        <ele>70.8</ele>
        <time>2023-04-21T12:19:03Z</time>
      </trkpt>
      <trkpt lat="49.03676" lon="-0.47235">
        <ele>71</ele>
        <time>2023-04-21T12:19:04Z</time>
      </trkpt>
      <trkpt lat="49.03674" lon="-0.47238">
        <ele>71.2</ele>
        <time>2023-04-21T12:19:05Z</time>
      </trkpt>
      <trkpt lat="49.03672" lon="-0.47241">
        <ele>71.4</ele>
        <time>2023-04-21T12:19:06Z</time>
      </trkpt>
      <trkpt lat="49.0367" lon="-0.47244">
        <ele>71.6</ele>
        <time>2023-04-21T12:19:07Z</time>
      </trkpt>
      <trkpt lat="49.03668" lon="-0.47247">
        <ele>71.8</ele>
        <time>2023-04-21T12:19:08Z</time>
      </trkpt>
      <trkpt lat="49.03666" lon="-0.4725">
        <ele>72</ele>
        <time>2023-04-21T12:19:09Z</time>
      </trkpt>
      <trkpt lat="49.03664" lon="-0.47254">
        <ele>72.4</ele>
        <time>2023-04-21T12:19:10Z</time>
      </trkpt>
      <trkpt lat="49.03662" lon="-0.47257">
        <ele>72.6</ele>
        <time>2023-04-21T12:19:11Z</time>
      </trkpt>
      <trkpt lat="49.0366" lon="-0.4726">
        <ele>72.6</ele>
        <time>2023-04-21T12:19:12Z</time>
      </trkpt>
      <trkpt lat="49.03658" lon="-0.47264">
        <ele>73</ele>
        <time>2023-04-21T12:19:13Z</time>
      </trkpt>
      <trkpt lat="49.03656" lon="-0.47267">
        <ele>73</ele>
        <time>2023-04-21T12:19:14Z</time>
      </trkpt>
      <trkpt lat="49.03654" lon="-0.4727">
        <ele>73.4</ele>
        <time>2023-04-21T12:19:15Z</time>
      </trkpt>
      <trkpt lat="49.03652" lon="-0.47273">
        <ele>73.6</ele>
        <time>2023-04-21T12:19:16Z</time>
      </trkpt>
      <trkpt lat="49.0365" lon="-0.47277">
        <ele>73.6</ele>
        <time>2023-04-21T12:19:17Z</time>
      </trkpt>
      <trkpt lat="49.03648" lon="-0.4728">
        <ele>74</ele>
        <time>2023-04-21T12:19:18Z</time>
      </trkpt>
      <trkpt lat="49.03646" lon="-0.47283">
        <ele>74.2</ele>
        <time>2023-04-21T12:19:19Z</time>
      </trkpt>
      <trkpt lat="49.03644" lon="-0.47287">
        <ele>74.4</ele>
        <time>2023-04-21T12:19:20Z</time>
      </trkpt>
      <trkpt lat="49.03642" lon="-0.47291">
        <ele>74.6</ele>
        <time>2023-04-21T12:19:21Z</time>
      </trkpt>
      <trkpt lat="49.03641" lon="-0.47295">
        <ele>74.8</ele>
        <time>2023-04-21T12:19:22Z</time>
      </trkpt>
      <trkpt lat="49.0364" lon="-0.47299">
        <ele>75</ele>
        <time>2023-04-21T12:19:23Z</time>
      </trkpt>
      <trkpt lat="49.03639" lon="-0.47303">
        <ele>75.4</ele>
        <time>2023-04-21T12:19:24Z</time>
      </trkpt>
      <trkpt lat="49.03638" lon="-0.47307">
        <ele>75.6</ele>
        <time>2023-04-21T12:19:25Z</time>
      </trkpt>
      <trkpt lat="49.03637" lon="-0.47312">
        <ele>75.8</ele>
        <time>2023-04-21T12:19:26Z</time>
      </trkpt>
      <trkpt lat="49.03636" lon="-0.47316">
        <ele>76</ele>
        <time>2023-04-21T12:19:27Z</time>
      </trkpt>
      <trkpt lat="49.03635" lon="-0.47321">
        <ele>76.4</ele>
        <time>2023-04-21T12:19:28Z</time>
      </trkpt>
      <trkpt lat="49.03635" lon="-0.47325">
        <ele>76.6</ele>
        <time>2023-04-21T12:19:29Z</time>
      </trkpt>
      <trkpt lat="49.03634" lon="-0.4733">
        <ele>76.8</ele>
        <time>2023-04-21T12:19:30Z</time>
      </trkpt>
      <trkpt lat="49.03633" lon="-0.47334">
        <ele>77</ele>
        <time>2023-04-21T12:19:31Z</time>
      </trkpt>
      <trkpt lat="49.03633" lon="-0.47339">
        <ele>77.4</ele>
        <time>2023-04-21T12:19:32Z</time>
      </trkpt>
      <trkpt lat="49.03633" lon="-0.47343">
        <ele>77.6</ele>
        <time>2023-04-21T12:19:33Z</time>
      </trkpt>
      <trkpt lat="49.03632" lon="-0.47348">
        <ele>78</ele>
        <time>2023-04-21T12:19:34Z</time>
      </trkpt>
      <trkpt lat="49.03632" lon="-0.47352">
        <ele>78.2</ele>
        <time>2023-04-21T12:19:35Z</time>
      </trkpt>
      <trkpt lat="49.03632" lon="-0.47356">
        <ele>78.6</ele>
        <time>2023-04-21T12:19:36Z</time>
      </trkpt>
      <trkpt lat="49.03632" lon="-0.4736">
        <ele>78.6</ele>
        <time>2023-04-21T12:19:37Z</time>
      </trkpt>
      <trkpt lat="49.03632" lon="-0.47364">
        <ele>79</ele>
        <time>2023-04-21T12:19:38Z</time>
      </trkpt>
      <trkpt lat="49.03632" lon="-0.47368">
        <ele>79.4</ele>
        <time>2023-04-21T12:19:39Z</time>
      </trkpt>
      <trkpt lat="49.03632" lon="-0.47373">
        <ele>79.6</ele>
        <time>2023-04-21T12:19:40Z</time>
      </trkpt>
      <trkpt lat="49.03632" lon="-0.47377">
        <ele>79.8</ele>
        <time>2023-04-21T12:19:41Z</time>
      </trkpt>
      <trkpt lat="49.03632" lon="-0.47381">
        <ele>80</ele>
        <time>2023-04-21T12:19:42Z</time>
      </trkpt>
      <trkpt lat="49.03631" lon="-0.47385">
        <ele>80.4</ele>
        <time>2023-04-21T12:19:43Z</time>
      </trkpt>
      <trkpt lat="49.03631" lon="-0.4739">
        <ele>80.6</ele>
        <time>2023-04-21T12:19:44Z</time>
      </trkpt>
      <trkpt lat="49.03631" lon="-0.47394">
        <ele>81</ele>
        <time>2023-04-21T12:19:45Z</time>
      </trkpt>
      <trkpt lat="49.03631" lon="-0.47398">
        <ele>81.2</ele>
        <time>2023-04-21T12:19:46Z</time>
      </trkpt>
      <trkpt lat="49.03631" lon="-0.47402">
        <ele>81.6</ele>
        <time>2023-04-21T12:19:47Z</time>
      </trkpt>
      <trkpt lat="49.0363" lon="-0.47406">
        <ele>81.8</ele>
        <time>2023-04-21T12:19:48Z</time>
      </trkpt>
      <trkpt lat="49.0363" lon="-0.4741">
        <ele>82</ele>
        <time>2023-04-21T12:19:49Z</time>
      </trkpt>
      <trkpt lat="49.0363" lon="-0.47414">
        <ele>82.4</ele>
        <time>2023-04-21T12:19:50Z</time>
      </trkpt>
      <trkpt lat="49.0363" lon="-0.47418">
        <ele>82.6</ele>
        <time>2023-04-21T12:19:51Z</time>
      </trkpt>
      <trkpt lat="49.0363" lon="-0.47422">
        <ele>82.6</ele>
        <time>2023-04-21T12:19:52Z</time>
      </trkpt>
      <trkpt lat="49.0363" lon="-0.47427">
        <ele>83</ele>
        <time>2023-04-21T12:19:53Z</time>
      </trkpt>
      <trkpt lat="49.03629" lon="-0.47431">
        <ele>83</ele>
        <time>2023-04-21T12:19:54Z</time>
      </trkpt>
      <trkpt lat="49.03629" lon="-0.47435">
        <ele>83.4</ele>
        <time>2023-04-21T12:19:55Z</time>
      </trkpt>
      <trkpt lat="49.03629" lon="-0.47439">
        <ele>83.6</ele>
        <time>2023-04-21T12:19:56Z</time>
      </trkpt>
      <trkpt lat="49.03629" lon="-0.47443">
        <ele>83.8</ele>
        <time>2023-04-21T12:19:57Z</time>
      </trkpt>
      <trkpt lat="49.03628" lon="-0.47447">
        <ele>84</ele>
        <time>2023-04-21T12:19:58Z</time>
      </trkpt>
      <trkpt lat="49.03628" lon="-0.47452">
        <ele>84.2</ele>
        <time>2023-04-21T12:19:59Z</time>
      </trkpt>
      <trkpt lat="49.03628" lon="-0.47456">
        <ele>84.4</ele>
        <time>2023-04-21T12:20:00Z</time>
      </trkpt>
      <trkpt lat="49.03627" lon="-0.4746">
        <ele>84.6</ele>
        <time>2023-04-21T12:20:01Z</time>
      </trkpt>
      <trkpt lat="49.03627" lon="-0.47465">
        <ele>84.8</ele>
        <time>2023-04-21T12:20:02Z</time>
      </trkpt>
      <trkpt lat="49.03627" lon="-0.47469">
        <ele>85</ele>
        <time>2023-04-21T12:20:03Z</time>
      </trkpt>
      <trkpt lat="49.03627" lon="-0.47474">
        <ele>85.2</ele>
        <time>2023-04-21T12:20:04Z</time>
      </trkpt>
      <trkpt lat="49.03627" lon="-0.47478">
        <ele>85.6</ele>
        <time>2023-04-21T12:20:05Z</time>
      </trkpt>
      <trkpt lat="49.03626" lon="-0.47482">
        <ele>85.6</ele>
        <time>2023-04-21T12:20:06Z</time>
      </trkpt>
      <trkpt lat="49.03626" lon="-0.47487">
        <ele>86</ele>
        <time>2023-04-21T12:20:07Z</time>
      </trkpt>
      <trkpt lat="49.03626" lon="-0.47491">
        <ele>86</ele>
        <time>2023-04-21T12:20:08Z</time>
      </trkpt>
      <trkpt lat="49.03626" lon="-0.47496">
        <ele>86.4</ele>
        <time>2023-04-21T12:20:09Z</time>
      </trkpt>
      <trkpt lat="49.03626" lon="-0.475">
        <ele>86.6</ele>
        <time>2023-04-21T12:20:10Z</time>
      </trkpt>
      <trkpt lat="49.03626" lon="-0.47504">
        <ele>86.6</ele>
        <time>2023-04-21T12:20:11Z</time>
      </trkpt>
      <trkpt lat="49.03626" lon="-0.47508">
        <ele>86.8</ele>
        <time>2023-04-21T12:20:12Z</time>
      </trkpt>
      <trkpt lat="49.03625" lon="-0.47512">
        <ele>87</ele>
        <time>2023-04-21T12:20:13Z</time>
      </trkpt>
      <trkpt lat="49.03625" lon="-0.47517">
        <ele>87</ele>
        <time>2023-04-21T12:20:14Z</time>
      </trkpt>
      <trkpt lat="49.03625" lon="-0.47521">
        <ele>87</ele>
        <time>2023-04-21T12:20:15Z</time>
      </trkpt>
      <trkpt lat="49.03625" lon="-0.47525">
        <ele>87.4</ele>
        <time>2023-04-21T12:20:16Z</time>
      </trkpt>
      <trkpt lat="49.03625" lon="-0.47529">
        <ele>87.4</ele>
        <time>2023-04-21T12:20:17Z</time>
      </trkpt>
      <trkpt lat="49.03625" lon="-0.47533">
        <ele>87.6</ele>
        <time>2023-04-21T12:20:18Z</time>
      </trkpt>
      <trkpt lat="49.03625" lon="-0.47537">
        <ele>87.6</ele>
        <time>2023-04-21T12:20:19Z</time>
      </trkpt>
      <trkpt lat="49.03625" lon="-0.47541">
        <ele>87.6</ele>
        <time>2023-04-21T12:20:20Z</time>
      </trkpt>
      <trkpt lat="49.03625" lon="-0.47545">
        <ele>88</ele>
        <time>2023-04-21T12:20:21Z</time>
      </trkpt>
      <trkpt lat="49.03625" lon="-0.47549">
        <ele>88</ele>
        <time>2023-04-21T12:20:22Z</time>
      </trkpt>
      <trkpt lat="49.03626" lon="-0.47553">
        <ele>88</ele>
        <time>2023-04-21T12:20:23Z</time>
      </trkpt>
      <trkpt lat="49.03626" lon="-0.47557">
        <ele>88.2</ele>
        <time>2023-04-21T12:20:24Z</time>
      </trkpt>
      <trkpt lat="49.03626" lon="-0.47561">
        <ele>88.4</ele>
        <time>2023-04-21T12:20:25Z</time>
      </trkpt>
      <trkpt lat="49.03626" lon="-0.47565">
        <ele>88.6</ele>
        <time>2023-04-21T12:20:26Z</time>
      </trkpt>
      <trkpt lat="49.03626" lon="-0.47568">
        <ele>88.6</ele>
        <time>2023-04-21T12:20:27Z</time>
      </trkpt>
      <trkpt lat="49.03627" lon="-0.47572">
        <ele>88.6</ele>
        <time>2023-04-21T12:20:28Z</time>
      </trkpt>
      <trkpt lat="49.03627" lon="-0.47576">
        <ele>88.8</ele>
        <time>2023-04-21T12:20:29Z</time>
      </trkpt>
      <trkpt lat="49.03627" lon="-0.4758">
        <ele>89</ele>
        <time>2023-04-21T12:20:30Z</time>
      </trkpt>
      <trkpt lat="49.03628" lon="-0.47584">
        <ele>89</ele>
        <time>2023-04-21T12:20:31Z</time>
      </trkpt>
      <trkpt lat="49.03628" lon="-0.47588">
        <ele>89.4</ele>
        <time>2023-04-21T12:20:32Z</time>
      </trkpt>
      <trkpt lat="49.03628" lon="-0.47592">
        <ele>89.4</ele>
        <time>2023-04-21T12:20:33Z</time>
      </trkpt>
      <trkpt lat="49.03629" lon="-0.47596">
        <ele>89.6</ele>
        <time>2023-04-21T12:20:34Z</time>
      </trkpt>
      <trkpt lat="49.03629" lon="-0.476">
        <ele>89.8</ele>
        <time>2023-04-21T12:20:35Z</time>
      </trkpt>
      <trkpt lat="49.03629" lon="-0.47604">
        <ele>90</ele>
        <time>2023-04-21T12:20:36Z</time>
      </trkpt>
      <trkpt lat="49.03629" lon="-0.47608">
        <ele>90</ele>
        <time>2023-04-21T12:20:37Z</time>
      </trkpt>
      <trkpt lat="49.03629" lon="-0.47612">
        <ele>90.4</ele>
        <time>2023-04-21T12:20:38Z</time>
      </trkpt>
      <trkpt lat="49.03629" lon="-0.47616">
        <ele>90.4</ele>
        <time>2023-04-21T12:20:39Z</time>
      </trkpt>
      <trkpt lat="49.03628" lon="-0.4762">
        <ele>90.6</ele>
        <time>2023-04-21T12:20:40Z</time>
      </trkpt>
      <trkpt lat="49.03628" lon="-0.47624">
        <ele>90.6</ele>
        <time>2023-04-21T12:20:41Z</time>
      </trkpt>
      <trkpt lat="49.03627" lon="-0.47627">
        <ele>91</ele>
        <time>2023-04-21T12:20:42Z</time>
      </trkpt>
      <trkpt lat="49.03627" lon="-0.47631">
        <ele>91</ele>
        <time>2023-04-21T12:20:43Z</time>
      </trkpt>
      <trkpt lat="49.03626" lon="-0.47635">
        <ele>91.2</ele>
        <time>2023-04-21T12:20:44Z</time>
      </trkpt>
      <trkpt lat="49.03625" lon="-0.47638">
        <ele>91.4</ele>
        <time>2023-04-21T12:20:45Z</time>
      </trkpt>
      <trkpt lat="49.03624" lon="-0.47642">
        <ele>91.6</ele>
        <time>2023-04-21T12:20:46Z</time>
      </trkpt>
      <trkpt lat="49.03623" lon="-0.47646">
        <ele>91.6</ele>
        <time>2023-04-21T12:20:47Z</time>
      </trkpt>
      <trkpt lat="49.03622" lon="-0.4765">
        <ele>91.6</ele>
        <time>2023-04-21T12:20:48Z</time>
      </trkpt>
      <trkpt lat="49.03621" lon="-0.47653">
        <ele>92</ele>
        <time>2023-04-21T12:20:49Z</time>
      </trkpt>
      <trkpt lat="49.0362" lon="-0.47657">
        <ele>92</ele>
        <time>2023-04-21T12:20:50Z</time>
      </trkpt>
      <trkpt lat="49.03618" lon="-0.4766">
        <ele>92.2</ele>
        <time>2023-04-21T12:20:51Z</time>
      </trkpt>
      <trkpt lat="49.03617" lon="-0.47664">
        <ele>92.4</ele>
        <time>2023-04-21T12:20:52Z</time>
      </trkpt>
      <trkpt lat="49.03616" lon="-0.47667">
        <ele>92.4</ele>
        <time>2023-04-21T12:20:53Z</time>
      </trkpt>
      <trkpt lat="49.03614" lon="-0.47671">
        <ele>92.6</ele>
        <time>2023-04-21T12:20:54Z</time>
      </trkpt>
      <trkpt lat="49.03613" lon="-0.47674">
        <ele>92.6</ele>
        <time>2023-04-21T12:20:55Z</time>
      </trkpt>
      <trkpt lat="49.03611" lon="-0.47679">
        <ele>92.8</ele>
        <time>2023-04-21T12:20:56Z</time>
      </trkpt>
      <trkpt lat="49.0361" lon="-0.47683">
        <ele>93</ele>
        <time>2023-04-21T12:20:57Z</time>
      </trkpt>
      <trkpt lat="49.03608" lon="-0.47687">
        <ele>93</ele>
        <time>2023-04-21T12:20:58Z</time>
      </trkpt>
      <trkpt lat="49.03607" lon="-0.47692">
        <ele>93.2</ele>
        <time>2023-04-21T12:20:59Z</time>
      </trkpt>
      <trkpt lat="49.03605" lon="-0.47695">
        <ele>93.4</ele>
        <time>2023-04-21T12:21:00Z</time>
      </trkpt>
      <trkpt lat="49.03604" lon="-0.47699">
        <ele>93.4</ele>
        <time>2023-04-21T12:21:01Z</time>
      </trkpt>
      <trkpt lat="49.03603" lon="-0.47703">
        <ele>93.6</ele>
        <time>2023-04-21T12:21:02Z</time>
      </trkpt>
      <trkpt lat="49.03602" lon="-0.47707">
        <ele>93.6</ele>
        <time>2023-04-21T12:21:03Z</time>
      </trkpt>
      <trkpt lat="49.036" lon="-0.47711">
        <ele>93.6</ele>
        <time>2023-04-21T12:21:04Z</time>
      </trkpt>
      <trkpt lat="49.03599" lon="-0.47715">
        <ele>93.8</ele>
        <time>2023-04-21T12:21:05Z</time>
      </trkpt>
      <trkpt lat="49.03599" lon="-0.4772">
        <ele>94</ele>
        <time>2023-04-21T12:21:06Z</time>
      </trkpt>
      <trkpt lat="49.03598" lon="-0.47725">
        <ele>94</ele>
        <time>2023-04-21T12:21:07Z</time>
      </trkpt>
      <trkpt lat="49.03597" lon="-0.4773">
        <ele>94.2</ele>
        <time>2023-04-21T12:21:08Z</time>
      </trkpt>
      <trkpt lat="49.03596" lon="-0.47734">
        <ele>94.4</ele>
        <time>2023-04-21T12:21:09Z</time>
      </trkpt>
      <trkpt lat="49.03595" lon="-0.47739">
        <ele>94.4</ele>
        <time>2023-04-21T12:21:10Z</time>
      </trkpt>
      <trkpt lat="49.03594" lon="-0.47744">
        <ele>94.6</ele>
        <time>2023-04-21T12:21:11Z</time>
      </trkpt>
      <trkpt lat="49.03594" lon="-0.47748">
        <ele>94.6</ele>
        <time>2023-04-21T12:21:12Z</time>
      </trkpt>
      <trkpt lat="49.03593" lon="-0.47752">
        <ele>94.8</ele>
        <time>2023-04-21T12:21:13Z</time>
      </trkpt>
      <trkpt lat="49.03592" lon="-0.47757">
        <ele>95</ele>
        <time>2023-04-21T12:21:14Z</time>
      </trkpt>
      <trkpt lat="49.03591" lon="-0.47761">
        <ele>95.4</ele>
        <time>2023-04-21T12:21:15Z</time>
      </trkpt>
      <trkpt lat="49.03591" lon="-0.47765">
        <ele>95.6</ele>
        <time>2023-04-21T12:21:16Z</time>
      </trkpt>
      <trkpt lat="49.0359" lon="-0.4777">
        <ele>96</ele>
        <time>2023-04-21T12:21:17Z</time>
      </trkpt>
      <trkpt lat="49.0359" lon="-0.47774">
        <ele>96.4</ele>
        <time>2023-04-21T12:21:18Z</time>
      </trkpt>
      <trkpt lat="49.03589" lon="-0.47778">
        <ele>96.6</ele>
        <time>2023-04-21T12:21:19Z</time>
      </trkpt>
      <trkpt lat="49.03589" lon="-0.47783">
        <ele>97</ele>
        <time>2023-04-21T12:21:20Z</time>
      </trkpt>
      <trkpt lat="49.03588" lon="-0.47787">
        <ele>97.4</ele>
        <time>2023-04-21T12:21:21Z</time>
      </trkpt>
      <trkpt lat="49.03587" lon="-0.47791">
        <ele>97.6</ele>
        <time>2023-04-21T12:21:22Z</time>
      </trkpt>
      <trkpt lat="49.03587" lon="-0.47795">
        <ele>98</ele>
        <time>2023-04-21T12:21:23Z</time>
      </trkpt>
      <trkpt lat="49.03586" lon="-0.478">
        <ele>98.4</ele>
        <time>2023-04-21T12:21:24Z</time>
      </trkpt>
      <trkpt lat="49.03586" lon="-0.47804">
        <ele>98.6</ele>
        <time>2023-04-21T12:21:25Z</time>
      </trkpt>
      <trkpt lat="49.03585" lon="-0.47809">
        <ele>99</ele>
        <time>2023-04-21T12:21:26Z</time>
      </trkpt>
      <trkpt lat="49.03584" lon="-0.47813">
        <ele>99.4</ele>
        <time>2023-04-21T12:21:27Z</time>
      </trkpt>
      <trkpt lat="49.03583" lon="-0.47817">
        <ele>99.6</ele>
        <time>2023-04-21T12:21:28Z</time>
      </trkpt>
      <trkpt lat="49.03583" lon="-0.47822">
        <ele>100</ele>
        <time>2023-04-21T12:21:29Z</time>
      </trkpt>
      <trkpt lat="49.03582" lon="-0.47826">
        <ele>100.4</ele>
        <time>2023-04-21T12:21:30Z</time>
      </trkpt>
      <trkpt lat="49.03581" lon="-0.47831">
        <ele>100.8</ele>
        <time>2023-04-21T12:21:31Z</time>
      </trkpt>
      <trkpt lat="49.0358" lon="-0.47835">
        <ele>101</ele>
        <time>2023-04-21T12:21:32Z</time>
      </trkpt>
      <trkpt lat="49.03579" lon="-0.4784">
        <ele>101.4</ele>
        <time>2023-04-21T12:21:33Z</time>
      </trkpt>
      <trkpt lat="49.03578" lon="-0.47844">
        <ele>101.4</ele>
        <time>2023-04-21T12:21:34Z</time>
      </trkpt>
      <trkpt lat="49.03577" lon="-0.47849">
        <ele>101.6</ele>
        <time>2023-04-21T12:21:35Z</time>
      </trkpt>
      <trkpt lat="49.03577" lon="-0.47853">
        <ele>101.8</ele>
        <time>2023-04-21T12:21:36Z</time>
      </trkpt>
      <trkpt lat="49.03576" lon="-0.47857">
        <ele>102</ele>
        <time>2023-04-21T12:21:37Z</time>
      </trkpt>
      <trkpt lat="49.03575" lon="-0.47862">
        <ele>102.2</ele>
        <time>2023-04-21T12:21:38Z</time>
      </trkpt>
      <trkpt lat="49.03574" lon="-0.47866">
        <ele>102.4</ele>
        <time>2023-04-21T12:21:39Z</time>
      </trkpt>
      <trkpt lat="49.03573" lon="-0.4787">
        <ele>102.6</ele>
        <time>2023-04-21T12:21:40Z</time>
      </trkpt>
      <trkpt lat="49.03571" lon="-0.47875">
        <ele>102.8</ele>
        <time>2023-04-21T12:21:41Z</time>
      </trkpt>
      <trkpt lat="49.0357" lon="-0.47879">
        <ele>103</ele>
        <time>2023-04-21T12:21:42Z</time>
      </trkpt>
      <trkpt lat="49.03569" lon="-0.47883">
        <ele>103</ele>
        <time>2023-04-21T12:21:43Z</time>
      </trkpt>
      <trkpt lat="49.03568" lon="-0.47887">
        <ele>103.4</ele>
        <time>2023-04-21T12:21:44Z</time>
      </trkpt>
      <trkpt lat="49.03567" lon="-0.47891">
        <ele>103.4</ele>
        <time>2023-04-21T12:21:45Z</time>
      </trkpt>
      <trkpt lat="49.03565" lon="-0.47895">
        <ele>103.6</ele>
        <time>2023-04-21T12:21:46Z</time>
      </trkpt>
      <trkpt lat="49.03564" lon="-0.47899">
        <ele>103.6</ele>
        <time>2023-04-21T12:21:47Z</time>
      </trkpt>
      <trkpt lat="49.03563" lon="-0.47903">
        <ele>104</ele>
        <time>2023-04-21T12:21:48Z</time>
      </trkpt>
      <trkpt lat="49.03561" lon="-0.47907">
        <ele>104</ele>
        <time>2023-04-21T12:21:49Z</time>
      </trkpt>
      <trkpt lat="49.0356" lon="-0.47911">
        <ele>104.2</ele>
        <time>2023-04-21T12:21:50Z</time>
      </trkpt>
      <trkpt lat="49.03559" lon="-0.47915">
        <ele>104.4</ele>
        <time>2023-04-21T12:21:51Z</time>
      </trkpt>
      <trkpt lat="49.03557" lon="-0.47919">
        <ele>104.4</ele>
        <time>2023-04-21T12:21:52Z</time>
      </trkpt>
      <trkpt lat="49.03556" lon="-0.47923">
        <ele>104.6</ele>
        <time>2023-04-21T12:21:53Z</time>
      </trkpt>
      <trkpt lat="49.03554" lon="-0.47926">
        <ele>104.6</ele>
        <time>2023-04-21T12:21:54Z</time>
      </trkpt>
      <trkpt lat="49.03553" lon="-0.4793">
        <ele>104.6</ele>
        <time>2023-04-21T12:21:55Z</time>
      </trkpt>
      <trkpt lat="49.03551" lon="-0.47934">
        <ele>104.6</ele>
        <time>2023-04-21T12:21:56Z</time>
      </trkpt>
      <trkpt lat="49.0355" lon="-0.47937">
        <ele>104.6</ele>
        <time>2023-04-21T12:21:57Z</time>
      </trkpt>
      <trkpt lat="49.03548" lon="-0.4794">
        <ele>104.6</ele>
        <time>2023-04-21T12:21:58Z</time>
      </trkpt>
      <trkpt lat="49.03547" lon="-0.47944">
        <ele>104.8</ele>
        <time>2023-04-21T12:21:59Z</time>
      </trkpt>
      <trkpt lat="49.03546" lon="-0.47947">
        <ele>104.8</ele>
        <time>2023-04-21T12:22:00Z</time>
      </trkpt>
      <trkpt lat="49.03545" lon="-0.47951">
        <ele>105</ele>
        <time>2023-04-21T12:22:01Z</time>
      </trkpt>
      <trkpt lat="49.03545" lon="-0.47954">
        <ele>105</ele>
        <time>2023-04-21T12:22:02Z</time>
      </trkpt>
      <trkpt lat="49.03545" lon="-0.47957">
        <ele>105</ele>
        <time>2023-04-21T12:22:03Z</time>
      </trkpt>
      <trkpt lat="49.03546" lon="-0.47959">
        <ele>105</ele>
        <time>2023-04-21T12:22:04Z</time>
      </trkpt>
      <trkpt lat="49.03548" lon="-0.4796">
        <ele>105.2</ele>
        <time>2023-04-21T12:22:05Z</time>
      </trkpt>
      <trkpt lat="49.03549" lon="-0.4796">
        <ele>105.2</ele>
        <time>2023-04-21T12:22:06Z</time>
      </trkpt>
      <trkpt lat="49.03551" lon="-0.47959">
        <ele>105.2</ele>
        <time>2023-04-21T12:22:07Z</time>
      </trkpt>
      <trkpt lat="49.03553" lon="-0.47958">
        <ele>105.4</ele>
        <time>2023-04-21T12:22:08Z</time>
      </trkpt>
      <trkpt lat="49.03556" lon="-0.47957">
        <ele>105.4</ele>
        <time>2023-04-21T12:22:09Z</time>
      </trkpt>
      <trkpt lat="49.03558" lon="-0.47956">
        <ele>105.4</ele>
        <time>2023-04-21T12:22:10Z</time>
      </trkpt>
      <trkpt lat="49.0356" lon="-0.47955">
        <ele>105.4</ele>
        <time>2023-04-21T12:22:11Z</time>
      </trkpt>
      <trkpt lat="49.03562" lon="-0.47954">
        <ele>105.4</ele>
        <time>2023-04-21T12:22:12Z</time>
      </trkpt>
      <trkpt lat="49.03565" lon="-0.47953">
        <ele>105.4</ele>
        <time>2023-04-21T12:22:13Z</time>
      </trkpt>
      <trkpt lat="49.03567" lon="-0.47952">
        <ele>105.6</ele>
        <time>2023-04-21T12:22:14Z</time>
      </trkpt>
      <trkpt lat="49.0357" lon="-0.47952">
        <ele>105.6</ele>
        <time>2023-04-21T12:22:15Z</time>
      </trkpt>
      <trkpt lat="49.03572" lon="-0.47951">
        <ele>105.6</ele>
        <time>2023-04-21T12:22:16Z</time>
      </trkpt>
      <trkpt lat="49.03575" lon="-0.4795">
        <ele>105.6</ele>
        <time>2023-04-21T12:22:17Z</time>
      </trkpt>
      <trkpt lat="49.03577" lon="-0.47949">
        <ele>105.6</ele>
        <time>2023-04-21T12:22:18Z</time>
      </trkpt>
      <trkpt lat="49.0358" lon="-0.47949">
        <ele>105.6</ele>
        <time>2023-04-21T12:22:19Z</time>
      </trkpt>
      <trkpt lat="49.03582" lon="-0.47948">
        <ele>105.6</ele>
        <time>2023-04-21T12:22:20Z</time>
      </trkpt>
      <trkpt lat="49.03585" lon="-0.47947">
        <ele>105.8</ele>
        <time>2023-04-21T12:22:21Z</time>
      </trkpt>
      <trkpt lat="49.03587" lon="-0.47946">
        <ele>105.8</ele>
        <time>2023-04-21T12:22:22Z</time>
      </trkpt>
      <trkpt lat="49.0359" lon="-0.47946">
        <ele>106</ele>
        <time>2023-04-21T12:22:23Z</time>
      </trkpt>
      <trkpt lat="49.03592" lon="-0.47945">
        <ele>106</ele>
        <time>2023-04-21T12:22:24Z</time>
      </trkpt>
      <trkpt lat="49.03595" lon="-0.47944">
        <ele>106</ele>
        <time>2023-04-21T12:22:25Z</time>
      </trkpt>
      <trkpt lat="49.03597" lon="-0.47943">
        <ele>106</ele>
        <time>2023-04-21T12:22:26Z</time>
      </trkpt>
      <trkpt lat="49.036" lon="-0.47943">
        <ele>106</ele>
        <time>2023-04-21T12:22:27Z</time>
      </trkpt>
      <trkpt lat="49.03602" lon="-0.47942">
        <ele>106.2</ele>
        <time>2023-04-21T12:22:28Z</time>
      </trkpt>
      <trkpt lat="49.03605" lon="-0.47941">
        <ele>106.2</ele>
        <time>2023-04-21T12:22:29Z</time>
      </trkpt>
      <trkpt lat="49.03607" lon="-0.4794">
        <ele>106.4</ele>
        <time>2023-04-21T12:22:30Z</time>
      </trkpt>
      <trkpt lat="49.03609" lon="-0.4794">
        <ele>106.4</ele>
        <time>2023-04-21T12:22:31Z</time>
      </trkpt>
      <trkpt lat="49.03612" lon="-0.47939">
        <ele>106.4</ele>
        <time>2023-04-21T12:22:32Z</time>
      </trkpt>
      <trkpt lat="49.03614" lon="-0.47938">
        <ele>106.6</ele>
        <time>2023-04-21T12:22:33Z</time>
      </trkpt>
      <trkpt lat="49.03617" lon="-0.47937">
        <ele>106.6</ele>
        <time>2023-04-21T12:22:34Z</time>
      </trkpt>
      <trkpt lat="49.0362" lon="-0.47936">
        <ele>106.6</ele>
        <time>2023-04-21T12:22:35Z</time>
      </trkpt>
      <trkpt lat="49.03623" lon="-0.47935">
        <ele>106.6</ele>
        <time>2023-04-21T12:22:36Z</time>
      </trkpt>
      <trkpt lat="49.03626" lon="-0.47934">
        <ele>106.6</ele>
        <time>2023-04-21T12:22:37Z</time>
      </trkpt>
      <trkpt lat="49.03629" lon="-0.47934">
        <ele>106.6</ele>
        <time>2023-04-21T12:22:38Z</time>
      </trkpt>
      <trkpt lat="49.03632" lon="-0.47933">
        <ele>106.8</ele>
        <time>2023-04-21T12:22:39Z</time>
      </trkpt>
      <trkpt lat="49.03635" lon="-0.47933">
        <ele>107</ele>
        <time>2023-04-21T12:22:40Z</time>
      </trkpt>
      <trkpt lat="49.03638" lon="-0.47933">
        <ele>107</ele>
        <time>2023-04-21T12:22:41Z</time>
      </trkpt>
      <trkpt lat="49.03642" lon="-0.47932">
        <ele>107</ele>
        <time>2023-04-21T12:22:42Z</time>
      </trkpt>
      <trkpt lat="49.03645" lon="-0.47932">
        <ele>107</ele>
        <time>2023-04-21T12:22:43Z</time>
      </trkpt>
      <trkpt lat="49.03649" lon="-0.47931">
        <ele>107.2</ele>
        <time>2023-04-21T12:22:44Z</time>
      </trkpt>
      <trkpt lat="49.03652" lon="-0.47931">
        <ele>107.4</ele>
        <time>2023-04-21T12:22:45Z</time>
      </trkpt>
      <trkpt lat="49.03656" lon="-0.4793">
        <ele>107.4</ele>
        <time>2023-04-21T12:22:46Z</time>
      </trkpt>
      <trkpt lat="49.0366" lon="-0.4793">
        <ele>107.4</ele>
        <time>2023-04-21T12:22:47Z</time>
      </trkpt>
      <trkpt lat="49.03664" lon="-0.47929">
        <ele>107.6</ele>
        <time>2023-04-21T12:22:48Z</time>
      </trkpt>
      <trkpt lat="49.03668" lon="-0.47929">
        <ele>107.6</ele>
        <time>2023-04-21T12:22:49Z</time>
      </trkpt>
      <trkpt lat="49.03672" lon="-0.47929">
        <ele>107.4</ele>
        <time>2023-04-21T12:22:50Z</time>
      </trkpt>
      <trkpt lat="49.03675" lon="-0.47928">
        <ele>107.2</ele>
        <time>2023-04-21T12:22:51Z</time>
      </trkpt>
      <trkpt lat="49.03679" lon="-0.47928">
        <ele>107</ele>
        <time>2023-04-21T12:22:52Z</time>
      </trkpt>
      <trkpt lat="49.03683" lon="-0.47927">
        <ele>107</ele>
        <time>2023-04-21T12:22:53Z</time>
      </trkpt>
      <trkpt lat="49.03687" lon="-0.47927">
        <ele>106.6</ele>
        <time>2023-04-21T12:22:54Z</time>
      </trkpt>
      <trkpt lat="49.03691" lon="-0.47927">
        <ele>106.6</ele>
        <time>2023-04-21T12:22:55Z</time>
      </trkpt>
      <trkpt lat="49.03696" lon="-0.47926">
        <ele>106.4</ele>
        <time>2023-04-21T12:22:56Z</time>
      </trkpt>
      <trkpt lat="49.037" lon="-0.47926">
        <ele>106</ele>
        <time>2023-04-21T12:22:57Z</time>
      </trkpt>
      <trkpt lat="49.03705" lon="-0.47925">
        <ele>106</ele>
        <time>2023-04-21T12:22:58Z</time>
      </trkpt>
      <trkpt lat="49.0371" lon="-0.47925">
        <ele>105.6</ele>
        <time>2023-04-21T12:22:59Z</time>
      </trkpt>
      <trkpt lat="49.03715" lon="-0.47925">
        <ele>105.6</ele>
        <time>2023-04-21T12:23:00Z</time>
      </trkpt>
      <trkpt lat="49.0372" lon="-0.47924">
        <ele>105.4</ele>
        <time>2023-04-21T12:23:01Z</time>
      </trkpt>
      <trkpt lat="49.03725" lon="-0.47924">
        <ele>105</ele>
        <time>2023-04-21T12:23:02Z</time>
      </trkpt>
      <trkpt lat="49.03731" lon="-0.47923">
        <ele>105</ele>
        <time>2023-04-21T12:23:03Z</time>
      </trkpt>
      <trkpt lat="49.03737" lon="-0.47922">
        <ele>104.6</ele>
        <time>2023-04-21T12:23:04Z</time>
      </trkpt>
      <trkpt lat="49.03742" lon="-0.47922">
        <ele>104.4</ele>
        <time>2023-04-21T12:23:05Z</time>
      </trkpt>
      <trkpt lat="49.03749" lon="-0.47921">
        <ele>104.2</ele>
        <time>2023-04-21T12:23:06Z</time>
      </trkpt>
      <trkpt lat="49.03755" lon="-0.47921">
        <ele>103.6</ele>
        <time>2023-04-21T12:23:07Z</time>
      </trkpt>
      <trkpt lat="49.03763" lon="-0.4792">
        <ele>103</ele>
        <time>2023-04-21T12:23:08Z</time>
      </trkpt>
      <trkpt lat="49.0377" lon="-0.4792">
        <ele>102.4</ele>
        <time>2023-04-21T12:23:09Z</time>
      </trkpt>
      <trkpt lat="49.03778" lon="-0.47919">
        <ele>101.6</ele>
        <time>2023-04-21T12:23:10Z</time>
      </trkpt>
      <trkpt lat="49.03787" lon="-0.47919">
        <ele>101</ele>
        <time>2023-04-21T12:23:11Z</time>
      </trkpt>
      <trkpt lat="49.03796" lon="-0.47919">
        <ele>100.4</ele>
        <time>2023-04-21T12:23:12Z</time>
      </trkpt>
      <trkpt lat="49.03805" lon="-0.47918">
        <ele>99.6</ele>
        <time>2023-04-21T12:23:13Z</time>
      </trkpt>
      <trkpt lat="49.03815" lon="-0.47918">
        <ele>98.6</ele>
        <time>2023-04-21T12:23:14Z</time>
      </trkpt>
      <trkpt lat="49.03826" lon="-0.47918">
        <ele>97.6</ele>
        <time>2023-04-21T12:23:15Z</time>
      </trkpt>
      <trkpt lat="49.03837" lon="-0.47918">
        <ele>96.8</ele>
        <time>2023-04-21T12:23:16Z</time>
      </trkpt>
      <trkpt lat="49.03849" lon="-0.47918">
        <ele>95.8</ele>
        <time>2023-04-21T12:23:17Z</time>
      </trkpt>
      <trkpt lat="49.03861" lon="-0.47917">
        <ele>94.6</ele>
        <time>2023-04-21T12:23:18Z</time>
      </trkpt>
      <trkpt lat="49.03873" lon="-0.47918">
        <ele>93.6</ele>
        <time>2023-04-21T12:23:19Z</time>
      </trkpt>
      <trkpt lat="49.03886" lon="-0.47919">
        <ele>92.6</ele>
        <time>2023-04-21T12:23:20Z</time>
      </trkpt>
      <trkpt lat="49.03899" lon="-0.47922">
        <ele>91.8</ele>
        <time>2023-04-21T12:23:21Z</time>
      </trkpt>
      <trkpt lat="49.03912" lon="-0.47926">
        <ele>91</ele>
        <time>2023-04-21T12:23:22Z</time>
      </trkpt>
      <trkpt lat="49.03925" lon="-0.47933">
        <ele>91.4</ele>
        <time>2023-04-21T12:23:23Z</time>
      </trkpt>
      <trkpt lat="49.03936" lon="-0.47941">
        <ele>92</ele>
        <time>2023-04-21T12:23:24Z</time>
      </trkpt>
      <trkpt lat="49.03947" lon="-0.4795">
        <ele>93</ele>
        <time>2023-04-21T12:23:25Z</time>
      </trkpt>
      <trkpt lat="49.03957" lon="-0.47961">
        <ele>93.6</ele>
        <time>2023-04-21T12:23:26Z</time>
      </trkpt>
      <trkpt lat="49.03965" lon="-0.47972">
        <ele>94</ele>
        <time>2023-04-21T12:23:27Z</time>
      </trkpt>
      <trkpt lat="49.03972" lon="-0.47982">
        <ele>94.6</ele>
        <time>2023-04-21T12:23:28Z</time>
      </trkpt>
      <trkpt lat="49.03978" lon="-0.47991">
        <ele>94.8</ele>
        <time>2023-04-21T12:23:29Z</time>
      </trkpt>
      <trkpt lat="49.03983" lon="-0.47999">
        <ele>95</ele>
        <time>2023-04-21T12:23:30Z</time>
      </trkpt>
      <trkpt lat="49.03988" lon="-0.48006">
        <ele>95</ele>
        <time>2023-04-21T12:23:31Z</time>
      </trkpt>
      <trkpt lat="49.03993" lon="-0.48012">
        <ele>95.2</ele>
        <time>2023-04-21T12:23:32Z</time>
      </trkpt>
      <trkpt lat="49.03997" lon="-0.48016">
        <ele>95.2</ele>
        <time>2023-04-21T12:23:33Z</time>
      </trkpt>
      <trkpt lat="49.04" lon="-0.4802">
        <ele>95.4</ele>
        <time>2023-04-21T12:23:34Z</time>
      </trkpt>
      <trkpt lat="49.04003" lon="-0.48023">
        <ele>95.6</ele>
        <time>2023-04-21T12:23:35Z</time>
      </trkpt>
      <trkpt lat="49.04006" lon="-0.48026">
        <ele>96</ele>
        <time>2023-04-21T12:23:36Z</time>
      </trkpt>
      <trkpt lat="49.04009" lon="-0.48028">
        <ele>96.4</ele>
        <time>2023-04-21T12:23:37Z</time>
      </trkpt>
      <trkpt lat="49.04011" lon="-0.48029">
        <ele>96.6</ele>
        <time>2023-04-21T12:23:38Z</time>
      </trkpt>
      <trkpt lat="49.04014" lon="-0.4803">
        <ele>96.8</ele>
        <time>2023-04-21T12:23:39Z</time>
      </trkpt>
      <trkpt lat="49.04016" lon="-0.48031">
        <ele>97</ele>
        <time>2023-04-21T12:23:40Z</time>
      </trkpt>
      <trkpt lat="49.04018" lon="-0.48032">
        <ele>97.4</ele>
        <time>2023-04-21T12:23:41Z</time>
      </trkpt>
      <trkpt lat="49.0402" lon="-0.48033">
        <ele>97.6</ele>
        <time>2023-04-21T12:23:42Z</time>
      </trkpt>
      <trkpt lat="49.04023" lon="-0.48034">
        <ele>98</ele>
        <time>2023-04-21T12:23:43Z</time>
      </trkpt>
      <trkpt lat="49.04025" lon="-0.48035">
        <ele>98</ele>
        <time>2023-04-21T12:23:44Z</time>
      </trkpt>
      <trkpt lat="49.04027" lon="-0.48036">
        <ele>98.4</ele>
        <time>2023-04-21T12:23:45Z</time>
      </trkpt>
      <trkpt lat="49.0403" lon="-0.48036">
        <ele>98.6</ele>
        <time>2023-04-21T12:23:46Z</time>
      </trkpt>
      <trkpt lat="49.04032" lon="-0.48037">
        <ele>99</ele>
        <time>2023-04-21T12:23:47Z</time>
      </trkpt>
      <trkpt lat="49.04034" lon="-0.48037">
        <ele>99.2</ele>
        <time>2023-04-21T12:23:48Z</time>
      </trkpt>
      <trkpt lat="49.04037" lon="-0.48037">
        <ele>99.4</ele>
        <time>2023-04-21T12:23:49Z</time>
      </trkpt>
      <trkpt lat="49.04039" lon="-0.48037">
        <ele>99.6</ele>
        <time>2023-04-21T12:23:50Z</time>
      </trkpt>
      <trkpt lat="49.04042" lon="-0.48037">
        <ele>100</ele>
        <time>2023-04-21T12:23:51Z</time>
      </trkpt>
      <trkpt lat="49.04044" lon="-0.48037">
        <ele>100.2</ele>
        <time>2023-04-21T12:23:52Z</time>
      </trkpt>
      <trkpt lat="49.04047" lon="-0.48037">
        <ele>100.6</ele>
        <time>2023-04-21T12:23:53Z</time>
      </trkpt>
      <trkpt lat="49.04049" lon="-0.48038">
        <ele>100.8</ele>
        <time>2023-04-21T12:23:54Z</time>
      </trkpt>
      <trkpt lat="49.04052" lon="-0.48038">
        <ele>101</ele>
        <time>2023-04-21T12:23:55Z</time>
      </trkpt>
      <trkpt lat="49.04054" lon="-0.48038">
        <ele>101.4</ele>
        <time>2023-04-21T12:23:56Z</time>
      </trkpt>
      <trkpt lat="49.04057" lon="-0.48038">
        <ele>101.6</ele>
        <time>2023-04-21T12:23:57Z</time>
      </trkpt>
      <trkpt lat="49.04059" lon="-0.48038">
        <ele>102</ele>
        <time>2023-04-21T12:23:58Z</time>
      </trkpt>
      <trkpt lat="49.04062" lon="-0.48038">
        <ele>102</ele>
        <time>2023-04-21T12:23:59Z</time>
      </trkpt>
      <trkpt lat="49.04065" lon="-0.48038">
        <ele>102.4</ele>
        <time>2023-04-21T12:24:00Z</time>
      </trkpt>
      <trkpt lat="49.04067" lon="-0.48038">
        <ele>102.6</ele>
        <time>2023-04-21T12:24:01Z</time>
      </trkpt>
      <trkpt lat="49.0407" lon="-0.48038">
        <ele>103</ele>
        <time>2023-04-21T12:24:02Z</time>
      </trkpt>
      <trkpt lat="49.04072" lon="-0.48038">
        <ele>103.4</ele>
        <time>2023-04-21T12:24:03Z</time>
      </trkpt>
      <trkpt lat="49.04075" lon="-0.48038">
        <ele>103.6</ele>
        <time>2023-04-21T12:24:04Z</time>
      </trkpt>
      <trkpt lat="49.04078" lon="-0.48038">
        <ele>103.8</ele>
        <time>2023-04-21T12:24:05Z</time>
      </trkpt>
      <trkpt lat="49.0408" lon="-0.48038">
        <ele>104</ele>
        <time>2023-04-21T12:24:06Z</time>
      </trkpt>
      <trkpt lat="49.04083" lon="-0.48038">
        <ele>104.4</ele>
        <time>2023-04-21T12:24:07Z</time>
      </trkpt>
      <trkpt lat="49.04085" lon="-0.48038">
        <ele>104.6</ele>
        <time>2023-04-21T12:24:08Z</time>
      </trkpt>
      <trkpt lat="49.04088" lon="-0.48038">
        <ele>104.6</ele>
        <time>2023-04-21T12:24:09Z</time>
      </trkpt>
      <trkpt lat="49.04091" lon="-0.48038">
        <ele>105</ele>
        <time>2023-04-21T12:24:10Z</time>
      </trkpt>
      <trkpt lat="49.04093" lon="-0.48038">
        <ele>105</ele>
        <time>2023-04-21T12:24:11Z</time>
      </trkpt>
      <trkpt lat="49.04096" lon="-0.48038">
        <ele>105.2</ele>
        <time>2023-04-21T12:24:12Z</time>
      </trkpt>
      <trkpt lat="49.04098" lon="-0.48039">
        <ele>105.4</ele>
        <time>2023-04-21T12:24:13Z</time>
      </trkpt>
      <trkpt lat="49.04101" lon="-0.48039">
        <ele>105.6</ele>
        <time>2023-04-21T12:24:14Z</time>
      </trkpt>
      <trkpt lat="49.04104" lon="-0.48039">
        <ele>105.6</ele>
        <time>2023-04-21T12:24:15Z</time>
      </trkpt>
      <trkpt lat="49.04106" lon="-0.48039">
        <ele>105.8</ele>
        <time>2023-04-21T12:24:16Z</time>
      </trkpt>
      <trkpt lat="49.04109" lon="-0.48039">
        <ele>106</ele>
        <time>2023-04-21T12:24:17Z</time>
      </trkpt>
      <trkpt lat="49.04112" lon="-0.48039">
        <ele>106.2</ele>
        <time>2023-04-21T12:24:18Z</time>
      </trkpt>
      <trkpt lat="49.04114" lon="-0.48039">
        <ele>106.4</ele>
        <time>2023-04-21T12:24:19Z</time>
      </trkpt>
      <trkpt lat="49.04117" lon="-0.48039">
        <ele>106.6</ele>
        <time>2023-04-21T12:24:20Z</time>
      </trkpt>
      <trkpt lat="49.0412" lon="-0.48039">
        <ele>106.6</ele>
        <time>2023-04-21T12:24:21Z</time>
      </trkpt>
      <trkpt lat="49.04123" lon="-0.48039">
        <ele>106.8</ele>
        <time>2023-04-21T12:24:22Z</time>
      </trkpt>
      <trkpt lat="49.04125" lon="-0.48039">
        <ele>107</ele>
        <time>2023-04-21T12:24:23Z</time>
      </trkpt>
      <trkpt lat="49.04128" lon="-0.48039">
        <ele>107.2</ele>
        <time>2023-04-21T12:24:24Z</time>
      </trkpt>
      <trkpt lat="49.04131" lon="-0.48039">
        <ele>107.4</ele>
        <time>2023-04-21T12:24:25Z</time>
      </trkpt>
      <trkpt lat="49.04134" lon="-0.48039">
        <ele>107.6</ele>
        <time>2023-04-21T12:24:26Z</time>
      </trkpt>
      <trkpt lat="49.04137" lon="-0.4804">
        <ele>107.6</ele>
        <time>2023-04-21T12:24:27Z</time>
      </trkpt>
      <trkpt lat="49.04139" lon="-0.4804">
        <ele>107.8</ele>
        <time>2023-04-21T12:24:28Z</time>
      </trkpt>
      <trkpt lat="49.04142" lon="-0.48039">
        <ele>108</ele>
        <time>2023-04-21T12:24:29Z</time>
      </trkpt>
      <trkpt lat="49.04145" lon="-0.48039">
        <ele>108.2</ele>
        <time>2023-04-21T12:24:30Z</time>
      </trkpt>
      <trkpt lat="49.04148" lon="-0.48039">
        <ele>108.4</ele>
        <time>2023-04-21T12:24:31Z</time>
      </trkpt>
      <trkpt lat="49.0415" lon="-0.48039">
        <ele>108.6</ele>
        <time>2023-04-21T12:24:32Z</time>
      </trkpt>
      <trkpt lat="49.04153" lon="-0.48039">
        <ele>108.6</ele>
        <time>2023-04-21T12:24:33Z</time>
      </trkpt>
      <trkpt lat="49.04155" lon="-0.48039">
        <ele>108.8</ele>
        <time>2023-04-21T12:24:34Z</time>
      </trkpt>
      <trkpt lat="49.04158" lon="-0.48039">
        <ele>109</ele>
        <time>2023-04-21T12:24:35Z</time>
      </trkpt>
      <trkpt lat="49.0416" lon="-0.48039">
        <ele>109</ele>
        <time>2023-04-21T12:24:36Z</time>
      </trkpt>
      <trkpt lat="49.04163" lon="-0.48039">
        <ele>109.2</ele>
        <time>2023-04-21T12:24:37Z</time>
      </trkpt>
      <trkpt lat="49.04166" lon="-0.48039">
        <ele>109.4</ele>
        <time>2023-04-21T12:24:38Z</time>
      </trkpt>
      <trkpt lat="49.04168" lon="-0.48039">
        <ele>109.6</ele>
        <time>2023-04-21T12:24:39Z</time>
      </trkpt>
      <trkpt lat="49.04171" lon="-0.48039">
        <ele>109.8</ele>
        <time>2023-04-21T12:24:40Z</time>
      </trkpt>
      <trkpt lat="49.04174" lon="-0.48039">
        <ele>110</ele>
        <time>2023-04-21T12:24:41Z</time>
      </trkpt>
      <trkpt lat="49.04176" lon="-0.48039">
        <ele>110.4</ele>
        <time>2023-04-21T12:24:42Z</time>
      </trkpt>
      <trkpt lat="49.04179" lon="-0.48038">
        <ele>110.6</ele>
        <time>2023-04-21T12:24:43Z</time>
      </trkpt>
      <trkpt lat="49.04182" lon="-0.48038">
        <ele>110.6</ele>
        <time>2023-04-21T12:24:44Z</time>
      </trkpt>
      <trkpt lat="49.04184" lon="-0.48038">
        <ele>111</ele>
        <time>2023-04-21T12:24:45Z</time>
      </trkpt>
      <trkpt lat="49.04187" lon="-0.48038">
        <ele>111</ele>
        <time>2023-04-21T12:24:46Z</time>
      </trkpt>
      <trkpt lat="49.0419" lon="-0.48038">
        <ele>111.4</ele>
        <time>2023-04-21T12:24:47Z</time>
      </trkpt>
      <trkpt lat="49.04193" lon="-0.48038">
        <ele>111.6</ele>
        <time>2023-04-21T12:24:48Z</time>
      </trkpt>
      <trkpt lat="49.04195" lon="-0.48038">
        <ele>111.8</ele>
        <time>2023-04-21T12:24:49Z</time>
      </trkpt>
      <trkpt lat="49.04198" lon="-0.48038">
        <ele>112</ele>
        <time>2023-04-21T12:24:50Z</time>
      </trkpt>
      <trkpt lat="49.04201" lon="-0.48038">
        <ele>112.2</ele>
        <time>2023-04-21T12:24:51Z</time>
      </trkpt>
      <trkpt lat="49.04203" lon="-0.48038">
        <ele>112.6</ele>
        <time>2023-04-21T12:24:52Z</time>
      </trkpt>
      <trkpt lat="49.04206" lon="-0.48038">
        <ele>112.6</ele>
        <time>2023-04-21T12:24:53Z</time>
      </trkpt>
      <trkpt lat="49.04209" lon="-0.48038">
        <ele>113</ele>
        <time>2023-04-21T12:24:54Z</time>
      </trkpt>
      <trkpt lat="49.04211" lon="-0.48038">
        <ele>113</ele>
        <time>2023-04-21T12:24:55Z</time>
      </trkpt>
      <trkpt lat="49.04214" lon="-0.48038">
        <ele>113.4</ele>
        <time>2023-04-21T12:24:56Z</time>
      </trkpt>
      <trkpt lat="49.04217" lon="-0.48038">
        <ele>113.6</ele>
        <time>2023-04-21T12:24:57Z</time>
      </trkpt>
      <trkpt lat="49.0422" lon="-0.48038">
        <ele>113.8</ele>
        <time>2023-04-21T12:24:58Z</time>
      </trkpt>
      <trkpt lat="49.04222" lon="-0.48037">
        <ele>114</ele>
        <time>2023-04-21T12:24:59Z</time>
      </trkpt>
      <trkpt lat="49.04225" lon="-0.48037">
        <ele>114.2</ele>
        <time>2023-04-21T12:25:00Z</time>
      </trkpt>
      <trkpt lat="49.04227" lon="-0.48037">
        <ele>114.4</ele>
        <time>2023-04-21T12:25:01Z</time>
      </trkpt>
      <trkpt lat="49.0423" lon="-0.48037">
        <ele>114.6</ele>
        <time>2023-04-21T12:25:02Z</time>
      </trkpt>
      <trkpt lat="49.04233" lon="-0.48037">
        <ele>114.8</ele>
        <time>2023-04-21T12:25:03Z</time>
      </trkpt>
      <trkpt lat="49.04235" lon="-0.48037">
        <ele>115</ele>
        <time>2023-04-21T12:25:04Z</time>
      </trkpt>
      <trkpt lat="49.04238" lon="-0.48037">
        <ele>115.2</ele>
        <time>2023-04-21T12:25:05Z</time>
      </trkpt>
      <trkpt lat="49.0424" lon="-0.48037">
        <ele>115.4</ele>
        <time>2023-04-21T12:25:06Z</time>
      </trkpt>
      <trkpt lat="49.04243" lon="-0.48036">
        <ele>115.6</ele>
        <time>2023-04-21T12:25:07Z</time>
      </trkpt>
      <trkpt lat="49.04246" lon="-0.48036">
        <ele>115.8</ele>
        <time>2023-04-21T12:25:08Z</time>
      </trkpt>
      <trkpt lat="49.04248" lon="-0.48036">
        <ele>116</ele>
        <time>2023-04-21T12:25:09Z</time>
      </trkpt>
      <trkpt lat="49.04251" lon="-0.48036">
        <ele>116.2</ele>
        <time>2023-04-21T12:25:10Z</time>
      </trkpt>
      <trkpt lat="49.04253" lon="-0.48036">
        <ele>116.4</ele>
        <time>2023-04-21T12:25:11Z</time>
      </trkpt>
      <trkpt lat="49.04256" lon="-0.48035">
        <ele>116.6</ele>
        <time>2023-04-21T12:25:12Z</time>
      </trkpt>
      <trkpt lat="49.04259" lon="-0.48035">
        <ele>116.6</ele>
        <time>2023-04-21T12:25:13Z</time>
      </trkpt>
      <trkpt lat="49.04262" lon="-0.48035">
        <ele>117</ele>
        <time>2023-04-21T12:25:14Z</time>
      </trkpt>
      <trkpt lat="49.04265" lon="-0.48035">
        <ele>117</ele>
        <time>2023-04-21T12:25:15Z</time>
      </trkpt>
      <trkpt lat="49.04267" lon="-0.48035">
        <ele>117.4</ele>
        <time>2023-04-21T12:25:16Z</time>
      </trkpt>
      <trkpt lat="49.0427" lon="-0.48035">
        <ele>117.6</ele>
        <time>2023-04-21T12:25:17Z</time>
      </trkpt>
      <trkpt lat="49.04273" lon="-0.48035">
        <ele>117.6</ele>
        <time>2023-04-21T12:25:18Z</time>
      </trkpt>
      <trkpt lat="49.04276" lon="-0.48035">
        <ele>117.8</ele>
        <time>2023-04-21T12:25:19Z</time>
      </trkpt>
      <trkpt lat="49.04278" lon="-0.48035">
        <ele>118</ele>
        <time>2023-04-21T12:25:20Z</time>
      </trkpt>
      <trkpt lat="49.04281" lon="-0.48035">
        <ele>118.2</ele>
        <time>2023-04-21T12:25:21Z</time>
      </trkpt>
      <trkpt lat="49.04283" lon="-0.48035">
        <ele>118.4</ele>
        <time>2023-04-21T12:25:22Z</time>
      </trkpt>
      <trkpt lat="49.04286" lon="-0.48035">
        <ele>118.6</ele>
        <time>2023-04-21T12:25:23Z</time>
      </trkpt>
      <trkpt lat="49.04288" lon="-0.48035">
        <ele>118.6</ele>
        <time>2023-04-21T12:25:24Z</time>
      </trkpt>
      <trkpt lat="49.04291" lon="-0.48035">
        <ele>118.8</ele>
        <time>2023-04-21T12:25:25Z</time>
      </trkpt>
      <trkpt lat="49.04294" lon="-0.48034">
        <ele>119</ele>
        <time>2023-04-21T12:25:26Z</time>
      </trkpt>
      <trkpt lat="49.04296" lon="-0.48034">
        <ele>119.2</ele>
        <time>2023-04-21T12:25:27Z</time>
      </trkpt>
      <trkpt lat="49.04299" lon="-0.48034">
        <ele>119.4</ele>
        <time>2023-04-21T12:25:28Z</time>
      </trkpt>
      <trkpt lat="49.04302" lon="-0.48034">
        <ele>119.6</ele>
        <time>2023-04-21T12:25:29Z</time>
      </trkpt>
      <trkpt lat="49.04305" lon="-0.48034">
        <ele>119.6</ele>
        <time>2023-04-21T12:25:30Z</time>
      </trkpt>
      <trkpt lat="49.04307" lon="-0.48034">
        <ele>120</ele>
        <time>2023-04-21T12:25:31Z</time>
      </trkpt>
      <trkpt lat="49.0431" lon="-0.48033">
        <ele>120</ele>
        <time>2023-04-21T12:25:32Z</time>
      </trkpt>
      <trkpt lat="49.04313" lon="-0.48033">
        <ele>120.2</ele>
        <time>2023-04-21T12:25:33Z</time>
      </trkpt>
      <trkpt lat="49.04315" lon="-0.48033">
        <ele>120.4</ele>
        <time>2023-04-21T12:25:34Z</time>
      </trkpt>
      <trkpt lat="49.04318" lon="-0.48033">
        <ele>120.6</ele>
        <time>2023-04-21T12:25:35Z</time>
      </trkpt>
      <trkpt lat="49.04321" lon="-0.48034">
        <ele>120.8</ele>
        <time>2023-04-21T12:25:36Z</time>
      </trkpt>
      <trkpt lat="49.04323" lon="-0.48034">
        <ele>121</ele>
        <time>2023-04-21T12:25:37Z</time>
      </trkpt>
      <trkpt lat="49.04326" lon="-0.48035">
        <ele>121.2</ele>
        <time>2023-04-21T12:25:38Z</time>
      </trkpt>
      <trkpt lat="49.04328" lon="-0.48036">
        <ele>121.4</ele>
        <time>2023-04-21T12:25:39Z</time>
      </trkpt>
      <trkpt lat="49.04331" lon="-0.48037">
        <ele>121.6</ele>
        <time>2023-04-21T12:25:40Z</time>
      </trkpt>
      <trkpt lat="49.04333" lon="-0.48039">
        <ele>122</ele>
        <time>2023-04-21T12:25:41Z</time>
      </trkpt>
      <trkpt lat="49.04336" lon="-0.48041">
        <ele>122</ele>
        <time>2023-04-21T12:25:42Z</time>
      </trkpt>
      <trkpt lat="49.04338" lon="-0.48043">
        <ele>122.2</ele>
        <time>2023-04-21T12:25:43Z</time>
      </trkpt>
      <trkpt lat="49.04341" lon="-0.48045">
        <ele>122.4</ele>
        <time>2023-04-21T12:25:44Z</time>
      </trkpt>
      <trkpt lat="49.04344" lon="-0.48047">
        <ele>122.6</ele>
        <time>2023-04-21T12:25:45Z</time>
      </trkpt>
      <trkpt lat="49.04346" lon="-0.4805">
        <ele>122.8</ele>
        <time>2023-04-21T12:25:46Z</time>
      </trkpt>
      <trkpt lat="49.04349" lon="-0.48052">
        <ele>123</ele>
        <time>2023-04-21T12:25:47Z</time>
      </trkpt>
      <trkpt lat="49.04352" lon="-0.48054">
        <ele>123.4</ele>
        <time>2023-04-21T12:25:48Z</time>
      </trkpt>
      <trkpt lat="49.04355" lon="-0.48056">
        <ele>123.6</ele>
        <time>2023-04-21T12:25:49Z</time>
      </trkpt>
      <trkpt lat="49.04358" lon="-0.48058">
        <ele>123.6</ele>
        <time>2023-04-21T12:25:50Z</time>
      </trkpt>
      <trkpt lat="49.04361" lon="-0.4806">
        <ele>124</ele>
        <time>2023-04-21T12:25:51Z</time>
      </trkpt>
      <trkpt lat="49.04365" lon="-0.48062">
        <ele>124</ele>
        <time>2023-04-21T12:25:52Z</time>
      </trkpt>
      <trkpt lat="49.04368" lon="-0.48064">
        <ele>124.4</ele>
        <time>2023-04-21T12:25:53Z</time>
      </trkpt>
      <trkpt lat="49.04371" lon="-0.48066">
        <ele>124.6</ele>
        <time>2023-04-21T12:25:54Z</time>
      </trkpt>
      <trkpt lat="49.04375" lon="-0.48068">
        <ele>124.6</ele>
        <time>2023-04-21T12:25:55Z</time>
      </trkpt>
      <trkpt lat="49.04378" lon="-0.4807">
        <ele>125</ele>
        <time>2023-04-21T12:25:56Z</time>
      </trkpt>
      <trkpt lat="49.04382" lon="-0.48072">
        <ele>125.2</ele>
        <time>2023-04-21T12:25:57Z</time>
      </trkpt>
      <trkpt lat="49.04385" lon="-0.48074">
        <ele>125.4</ele>
        <time>2023-04-21T12:25:58Z</time>
      </trkpt>
      <trkpt lat="49.04388" lon="-0.48076">
        <ele>125.6</ele>
        <time>2023-04-21T12:25:59Z</time>
      </trkpt>
      <trkpt lat="49.04392" lon="-0.48078">
        <ele>125.8</ele>
        <time>2023-04-21T12:26:00Z</time>
      </trkpt>
      <trkpt lat="49.04395" lon="-0.4808">
        <ele>126</ele>
        <time>2023-04-21T12:26:01Z</time>
      </trkpt>
      <trkpt lat="49.04398" lon="-0.48082">
        <ele>126.4</ele>
        <time>2023-04-21T12:26:02Z</time>
      </trkpt>
      <trkpt lat="49.04401" lon="-0.48084">
        <ele>126.6</ele>
        <time>2023-04-21T12:26:03Z</time>
      </trkpt>
      <trkpt lat="49.04405" lon="-0.48086">
        <ele>126.6</ele>
        <time>2023-04-21T12:26:04Z</time>
      </trkpt>
      <trkpt lat="49.04408" lon="-0.48088">
        <ele>126.8</ele>
        <time>2023-04-21T12:26:05Z</time>
      </trkpt>
      <trkpt lat="49.04411" lon="-0.4809">
        <ele>127</ele>
        <time>2023-04-21T12:26:06Z</time>
      </trkpt>
      <trkpt lat="49.04414" lon="-0.48093">
        <ele>127</ele>
        <time>2023-04-21T12:26:07Z</time>
      </trkpt>
      <trkpt lat="49.04417" lon="-0.48094">
        <ele>127.4</ele>
        <time>2023-04-21T12:26:08Z</time>
      </trkpt>
      <trkpt lat="49.0442" lon="-0.48096">
        <ele>127.6</ele>
        <time>2023-04-21T12:26:09Z</time>
      </trkpt>
      <trkpt lat="49.04423" lon="-0.48098">
        <ele>127.8</ele>
        <time>2023-04-21T12:26:10Z</time>
      </trkpt>
      <trkpt lat="49.04426" lon="-0.481">
        <ele>128</ele>
        <time>2023-04-21T12:26:11Z</time>
      </trkpt>
      <trkpt lat="49.04429" lon="-0.48102">
        <ele>128.4</ele>
        <time>2023-04-21T12:26:12Z</time>
      </trkpt>
      <trkpt lat="49.04432" lon="-0.48104">
        <ele>128.6</ele>
        <time>2023-04-21T12:26:13Z</time>
      </trkpt>
      <trkpt lat="49.04434" lon="-0.48105">
        <ele>128.6</ele>
        <time>2023-04-21T12:26:14Z</time>
      </trkpt>
      <trkpt lat="49.04437" lon="-0.48107">
        <ele>128.8</ele>
        <time>2023-04-21T12:26:15Z</time>
      </trkpt>
      <trkpt lat="49.0444" lon="-0.48108">
        <ele>129.2</ele>
        <time>2023-04-21T12:26:16Z</time>
      </trkpt>
      <trkpt lat="49.04443" lon="-0.4811">
        <ele>129.4</ele>
        <time>2023-04-21T12:26:17Z</time>
      </trkpt>
      <trkpt lat="49.04446" lon="-0.48111">
        <ele>129.6</ele>
        <time>2023-04-21T12:26:18Z</time>
      </trkpt>
      <trkpt lat="49.04449" lon="-0.48112">
        <ele>129.6</ele>
        <time>2023-04-21T12:26:19Z</time>
      </trkpt>
      <trkpt lat="49.04451" lon="-0.48114">
        <ele>129.8</ele>
        <time>2023-04-21T12:26:20Z</time>
      </trkpt>
      <trkpt lat="49.04454" lon="-0.48115">
        <ele>130.2</ele>
        <time>2023-04-21T12:26:21Z</time>
      </trkpt>
      <trkpt lat="49.04457" lon="-0.48116">
        <ele>130.4</ele>
        <time>2023-04-21T12:26:22Z</time>
      </trkpt>
      <trkpt lat="49.04459" lon="-0.48117">
        <ele>130.6</ele>
        <time>2023-04-21T12:26:23Z</time>
      </trkpt>
      <trkpt lat="49.04462" lon="-0.48118">
        <ele>130.6</ele>
        <time>2023-04-21T12:26:24Z</time>
      </trkpt>
      <trkpt lat="49.04465" lon="-0.48119">
        <ele>130.8</ele>
        <time>2023-04-21T12:26:25Z</time>
      </trkpt>
      <trkpt lat="49.04467" lon="-0.4812">
        <ele>131</ele>
        <time>2023-04-21T12:26:26Z</time>
      </trkpt>
      <trkpt lat="49.0447" lon="-0.4812">
        <ele>131.2</ele>
        <time>2023-04-21T12:26:27Z</time>
      </trkpt>
      <trkpt lat="49.04473" lon="-0.4812">
        <ele>131.4</ele>
        <time>2023-04-21T12:26:28Z</time>
      </trkpt>
      <trkpt lat="49.04476" lon="-0.48121">
        <ele>131.6</ele>
        <time>2023-04-21T12:26:29Z</time>
      </trkpt>
      <trkpt lat="49.04479" lon="-0.48121">
        <ele>131.6</ele>
        <time>2023-04-21T12:26:30Z</time>
      </trkpt>
      <trkpt lat="49.04482" lon="-0.4812">
        <ele>131.8</ele>
        <time>2023-04-21T12:26:31Z</time>
      </trkpt>
      <trkpt lat="49.04485" lon="-0.4812">
        <ele>132.2</ele>
        <time>2023-04-21T12:26:32Z</time>
      </trkpt>
      <trkpt lat="49.04488" lon="-0.48119">
        <ele>132.2</ele>
        <time>2023-04-21T12:26:33Z</time>
      </trkpt>
      <trkpt lat="49.04491" lon="-0.48119">
        <ele>132.4</ele>
        <time>2023-04-21T12:26:34Z</time>
      </trkpt>
      <trkpt lat="49.04494" lon="-0.48118">
        <ele>132.6</ele>
        <time>2023-04-21T12:26:35Z</time>
      </trkpt>
      <trkpt lat="49.04496" lon="-0.48116">
        <ele>132.8</ele>
        <time>2023-04-21T12:26:36Z</time>
      </trkpt>
      <trkpt lat="49.04499" lon="-0.48115">
        <ele>132.8</ele>
        <time>2023-04-21T12:26:37Z</time>
      </trkpt>
      <trkpt lat="49.04502" lon="-0.48114">
        <ele>133.2</ele>
        <time>2023-04-21T12:26:38Z</time>
      </trkpt>
      <trkpt lat="49.04505" lon="-0.48112">
        <ele>133.2</ele>
        <time>2023-04-21T12:26:39Z</time>
      </trkpt>
      <trkpt lat="49.04507" lon="-0.4811">
        <ele>133.4</ele>
        <time>2023-04-21T12:26:40Z</time>
      </trkpt>
      <trkpt lat="49.0451" lon="-0.48108">
        <ele>133.4</ele>
        <time>2023-04-21T12:26:41Z</time>
      </trkpt>
      <trkpt lat="49.04512" lon="-0.48106">
        <ele>133.6</ele>
        <time>2023-04-21T12:26:42Z</time>
      </trkpt>
      <trkpt lat="49.04515" lon="-0.48104">
        <ele>133.6</ele>
        <time>2023-04-21T12:26:43Z</time>
      </trkpt>
      <trkpt lat="49.04518" lon="-0.48102">
        <ele>133.8</ele>
        <time>2023-04-21T12:26:44Z</time>
      </trkpt>
      <trkpt lat="49.0452" lon="-0.481">
        <ele>133.8</ele>
        <time>2023-04-21T12:26:45Z</time>
      </trkpt>
      <trkpt lat="49.04523" lon="-0.48098">
        <ele>134</ele>
        <time>2023-04-21T12:26:46Z</time>
      </trkpt>
      <trkpt lat="49.04525" lon="-0.48096">
        <ele>134.2</ele>
        <time>2023-04-21T12:26:47Z</time>
      </trkpt>
      <trkpt lat="49.04528" lon="-0.48093">
        <ele>134.4</ele>
        <time>2023-04-21T12:26:48Z</time>
      </trkpt>
      <trkpt lat="49.0453" lon="-0.48091">
        <ele>134.4</ele>
        <time>2023-04-21T12:26:49Z</time>
      </trkpt>
      <trkpt lat="49.04533" lon="-0.48089">
        <ele>134.6</ele>
        <time>2023-04-21T12:26:50Z</time>
      </trkpt>
      <trkpt lat="49.04535" lon="-0.48087">
        <ele>134.6</ele>
        <time>2023-04-21T12:26:51Z</time>
      </trkpt>
      <trkpt lat="49.04538" lon="-0.48085">
        <ele>134.8</ele>
        <time>2023-04-21T12:26:52Z</time>
      </trkpt>
      <trkpt lat="49.0454" lon="-0.48082">
        <ele>134.8</ele>
        <time>2023-04-21T12:26:53Z</time>
      </trkpt>
      <trkpt lat="49.04543" lon="-0.4808">
        <ele>135</ele>
        <time>2023-04-21T12:26:54Z</time>
      </trkpt>
      <trkpt lat="49.04545" lon="-0.48078">
        <ele>135.2</ele>
        <time>2023-04-21T12:26:55Z</time>
      </trkpt>
      <trkpt lat="49.04547" lon="-0.48076">
        <ele>135.4</ele>
        <time>2023-04-21T12:26:56Z</time>
      </trkpt>
      <trkpt lat="49.04549" lon="-0.48074">
        <ele>135.4</ele>
        <time>2023-04-21T12:26:57Z</time>
      </trkpt>
      <trkpt lat="49.04552" lon="-0.48072">
        <ele>135.6</ele>
        <time>2023-04-21T12:26:58Z</time>
      </trkpt>
      <trkpt lat="49.04554" lon="-0.4807">
        <ele>135.6</ele>
        <time>2023-04-21T12:26:59Z</time>
      </trkpt>
      <trkpt lat="49.04556" lon="-0.48068">
        <ele>135.6</ele>
        <time>2023-04-21T12:27:00Z</time>
      </trkpt>
      <trkpt lat="49.04558" lon="-0.48066">
        <ele>135.8</ele>
        <time>2023-04-21T12:27:01Z</time>
      </trkpt>
      <trkpt lat="49.04561" lon="-0.48064">
        <ele>135.8</ele>
        <time>2023-04-21T12:27:02Z</time>
      </trkpt>
      <trkpt lat="49.04563" lon="-0.48062">
        <ele>136</ele>
        <time>2023-04-21T12:27:03Z</time>
      </trkpt>
      <trkpt lat="49.04565" lon="-0.48061">
        <ele>136.2</ele>
        <time>2023-04-21T12:27:04Z</time>
      </trkpt>
      <trkpt lat="49.04567" lon="-0.48059">
        <ele>136.2</ele>
        <time>2023-04-21T12:27:05Z</time>
      </trkpt>
      <trkpt lat="49.0457" lon="-0.48057">
        <ele>136.4</ele>
        <time>2023-04-21T12:27:06Z</time>
      </trkpt>
      <trkpt lat="49.04572" lon="-0.48056">
        <ele>136.6</ele>
        <time>2023-04-21T12:27:07Z</time>
      </trkpt>
      <trkpt lat="49.04575" lon="-0.48054">
        <ele>136.6</ele>
        <time>2023-04-21T12:27:08Z</time>
      </trkpt>
      <trkpt lat="49.04578" lon="-0.48053">
        <ele>136.6</ele>
        <time>2023-04-21T12:27:09Z</time>
      </trkpt>
      <trkpt lat="49.0458" lon="-0.48052">
        <ele>136.8</ele>
        <time>2023-04-21T12:27:10Z</time>
      </trkpt>
      <trkpt lat="49.04583" lon="-0.48051">
        <ele>137</ele>
        <time>2023-04-21T12:27:11Z</time>
      </trkpt>
      <trkpt lat="49.04586" lon="-0.4805">
        <ele>137</ele>
        <time>2023-04-21T12:27:12Z</time>
      </trkpt>
      <trkpt lat="49.04589" lon="-0.48049">
        <ele>137.2</ele>
        <time>2023-04-21T12:27:13Z</time>
      </trkpt>
      <trkpt lat="49.04591" lon="-0.48048">
        <ele>137.2</ele>
        <time>2023-04-21T12:27:14Z</time>
      </trkpt>
      <trkpt lat="49.04594" lon="-0.48047">
        <ele>137.2</ele>
        <time>2023-04-21T12:27:15Z</time>
      </trkpt>
      <trkpt lat="49.04596" lon="-0.48046">
        <ele>137.2</ele>
        <time>2023-04-21T12:27:16Z</time>
      </trkpt>
      <trkpt lat="49.04599" lon="-0.48046">
        <ele>137.2</ele>
        <time>2023-04-21T12:27:17Z</time>
      </trkpt>
      <trkpt lat="49.04601" lon="-0.48045">
        <ele>137.2</ele>
        <time>2023-04-21T12:27:18Z</time>
      </trkpt>
      <trkpt lat="49.04603" lon="-0.48044">
        <ele>137.2</ele>
        <time>2023-04-21T12:27:19Z</time>
      </trkpt>
      <trkpt lat="49.04605" lon="-0.48044">
        <ele>137.4</ele>
        <time>2023-04-21T12:27:20Z</time>
      </trkpt>
      <trkpt lat="49.04607" lon="-0.48043">
        <ele>137.4</ele>
        <time>2023-04-21T12:27:21Z</time>
      </trkpt>
      <trkpt lat="49.0461" lon="-0.48042">
        <ele>137.4</ele>
        <time>2023-04-21T12:27:22Z</time>
      </trkpt>
      <trkpt lat="49.04612" lon="-0.48042">
        <ele>137.4</ele>
        <time>2023-04-21T12:27:23Z</time>
      </trkpt>
      <trkpt lat="49.04614" lon="-0.48041">
        <ele>137.4</ele>
        <time>2023-04-21T12:27:24Z</time>
      </trkpt>
      <trkpt lat="49.04617" lon="-0.48041">
        <ele>137.4</ele>
        <time>2023-04-21T12:27:25Z</time>
      </trkpt>
      <trkpt lat="49.04619" lon="-0.4804">
        <ele>137.4</ele>
        <time>2023-04-21T12:27:26Z</time>
      </trkpt>
      <trkpt lat="49.04622" lon="-0.4804">
        <ele>137.6</ele>
        <time>2023-04-21T12:27:27Z</time>
      </trkpt>
      <trkpt lat="49.04625" lon="-0.4804">
        <ele>137.6</ele>
        <time>2023-04-21T12:27:28Z</time>
      </trkpt>
      <trkpt lat="49.04628" lon="-0.4804">
        <ele>137.6</ele>
        <time>2023-04-21T12:27:29Z</time>
      </trkpt>
      <trkpt lat="49.04631" lon="-0.4804">
        <ele>137.6</ele>
        <time>2023-04-21T12:27:30Z</time>
      </trkpt>
      <trkpt lat="49.04634" lon="-0.48039">
        <ele>137.6</ele>
        <time>2023-04-21T12:27:31Z</time>
      </trkpt>
      <trkpt lat="49.04637" lon="-0.48038">
        <ele>137.6</ele>
        <time>2023-04-21T12:27:32Z</time>
      </trkpt>
      <trkpt lat="49.0464" lon="-0.48036">
        <ele>137.8</ele>
        <time>2023-04-21T12:27:33Z</time>
      </trkpt>
      <trkpt lat="49.04642" lon="-0.48035">
        <ele>137.8</ele>
        <time>2023-04-21T12:27:34Z</time>
      </trkpt>
      <trkpt lat="49.04643" lon="-0.48034">
        <ele>137.8</ele>
        <time>2023-04-21T12:27:35Z</time>
      </trkpt>
      <trkpt lat="49.04644" lon="-0.48033">
        <ele>137.8</ele>
        <time>2023-04-21T12:27:36Z</time>
      </trkpt>
      <trkpt lat="49.04644" lon="-0.48033">
        <ele>137.8</ele>
        <time>2023-04-21T12:27:37Z</time>
      </trkpt>
      <trkpt lat="49.04644" lon="-0.48033">
        <ele>137.8</ele>
        <time>2023-04-21T12:27:38Z</time>
      </trkpt>
      <trkpt lat="49.04644" lon="-0.48033">
        <ele>137.8</ele>
        <time>2023-04-21T12:27:39Z</time>
      </trkpt>
      <trkpt lat="49.04644" lon="-0.48033">
        <ele>137.8</ele>
        <time>2023-04-21T12:27:40Z</time>
      </trkpt>
      <trkpt lat="49.04644" lon="-0.48033">
        <ele>137.8</ele>
        <time>2023-04-21T12:27:41Z</time>
      </trkpt>
      <trkpt lat="49.04644" lon="-0.48033">
        <ele>137.8</ele>
        <time>2023-04-21T12:27:42Z</time>
      </trkpt>
      <trkpt lat="49.04644" lon="-0.48033">
        <ele>137.8</ele>
        <time>2023-04-21T12:27:43Z</time>
      </trkpt>
      <trkpt lat="49.04644" lon="-0.48033">
        <ele>137.8</ele>
        <time>2023-04-21T12:27:44Z</time>
      </trkpt>
      <trkpt lat="49.04644" lon="-0.48033">
        <ele>137.8</ele>
        <time>2023-04-21T12:27:45Z</time>
      </trkpt>
      <trkpt lat="49.04644" lon="-0.48033">
        <ele>137.8</ele>
        <time>2023-04-21T12:27:46Z</time>
      </trkpt>
      <trkpt lat="49.04644" lon="-0.48033">
        <ele>137.8</ele>
        <time>2023-04-21T12:27:47Z</time>
      </trkpt>
      <trkpt lat="49.04644" lon="-0.48033">
        <ele>137.8</ele>
        <time>2023-04-21T12:27:48Z</time>
      </trkpt>
      <trkpt lat="49.04644" lon="-0.48034">
        <ele>137.8</ele>
        <time>2023-04-21T12:27:49Z</time>
      </trkpt>
      <trkpt lat="49.04645" lon="-0.48034">
        <ele>137.8</ele>
        <time>2023-04-21T12:27:50Z</time>
      </trkpt>
      <trkpt lat="49.04647" lon="-0.48034">
        <ele>137.8</ele>
        <time>2023-04-21T12:27:51Z</time>
      </trkpt>
      <trkpt lat="49.04648" lon="-0.48034">
        <ele>137.8</ele>
        <time>2023-04-21T12:27:52Z</time>
      </trkpt>
      <trkpt lat="49.0465" lon="-0.48034">
        <ele>137.8</ele>
        <time>2023-04-21T12:27:53Z</time>
      </trkpt>
      <trkpt lat="49.04652" lon="-0.48034">
        <ele>138</ele>
        <time>2023-04-21T12:27:54Z</time>
      </trkpt>
      <trkpt lat="49.04655" lon="-0.48034">
        <ele>138</ele>
        <time>2023-04-21T12:27:55Z</time>
      </trkpt>
      <trkpt lat="49.04658" lon="-0.48034">
        <ele>138.2</ele>
        <time>2023-04-21T12:27:56Z</time>
      </trkpt>
      <trkpt lat="49.04661" lon="-0.48034">
        <ele>138.2</ele>
        <time>2023-04-21T12:27:57Z</time>
      </trkpt>
      <trkpt lat="49.04664" lon="-0.48033">
        <ele>138.2</ele>
        <time>2023-04-21T12:27:58Z</time>
      </trkpt>
      <trkpt lat="49.04668" lon="-0.48033">
        <ele>138.2</ele>
        <time>2023-04-21T12:27:59Z</time>
      </trkpt>
      <trkpt lat="49.04671" lon="-0.48033">
        <ele>138.2</ele>
        <time>2023-04-21T12:28:00Z</time>
      </trkpt>
      <trkpt lat="49.04675" lon="-0.48032">
        <ele>138.2</ele>
        <time>2023-04-21T12:28:01Z</time>
      </trkpt>
      <trkpt lat="49.04678" lon="-0.48032">
        <ele>138.2</ele>
        <time>2023-04-21T12:28:02Z</time>
      </trkpt>
      <trkpt lat="49.04682" lon="-0.48031">
        <ele>138.2</ele>
        <time>2023-04-21T12:28:03Z</time>
      </trkpt>
      <trkpt lat="49.04686" lon="-0.48031">
        <ele>138</ele>
        <time>2023-04-21T12:28:04Z</time>
      </trkpt>
      <trkpt lat="49.0469" lon="-0.4803">
        <ele>138</ele>
        <time>2023-04-21T12:28:05Z</time>
      </trkpt>
      <trkpt lat="49.04694" lon="-0.4803">
        <ele>138</ele>
        <time>2023-04-21T12:28:06Z</time>
      </trkpt>
      <trkpt lat="49.04699" lon="-0.48029">
        <ele>137.8</ele>
        <time>2023-04-21T12:28:07Z</time>
      </trkpt>
      <trkpt lat="49.04703" lon="-0.48029">
        <ele>137.8</ele>
        <time>2023-04-21T12:28:08Z</time>
      </trkpt>
      <trkpt lat="49.04708" lon="-0.48028">
        <ele>137.8</ele>
        <time>2023-04-21T12:28:09Z</time>
      </trkpt>
      <trkpt lat="49.04713" lon="-0.48027">
        <ele>137.8</ele>
        <time>2023-04-21T12:28:10Z</time>
      </trkpt>
      <trkpt lat="49.04718" lon="-0.48027">
        <ele>137.6</ele>
        <time>2023-04-21T12:28:11Z</time>
      </trkpt>
      <trkpt lat="49.04723" lon="-0.48026">
        <ele>137.6</ele>
        <time>2023-04-21T12:28:12Z</time>
      </trkpt>
      <trkpt lat="49.04728" lon="-0.48025">
        <ele>137.6</ele>
        <time>2023-04-21T12:28:13Z</time>
      </trkpt>
      <trkpt lat="49.04733" lon="-0.48024">
        <ele>137.6</ele>
        <time>2023-04-21T12:28:14Z</time>
      </trkpt>
      <trkpt lat="49.04739" lon="-0.48023">
        <ele>137.6</ele>
        <time>2023-04-21T12:28:15Z</time>
      </trkpt>
      <trkpt lat="49.04745" lon="-0.48022">
        <ele>137.6</ele>
        <time>2023-04-21T12:28:16Z</time>
      </trkpt>
      <trkpt lat="49.0475" lon="-0.4802">
        <ele>137.6</ele>
        <time>2023-04-21T12:28:17Z</time>
      </trkpt>
      <trkpt lat="49.04756" lon="-0.48019">
        <ele>137.4</ele>
        <time>2023-04-21T12:28:18Z</time>
      </trkpt>
      <trkpt lat="49.04762" lon="-0.48017">
        <ele>137</ele>
        <time>2023-04-21T12:28:19Z</time>
      </trkpt>
      <trkpt lat="49.04768" lon="-0.48015">
        <ele>136.8</ele>
        <time>2023-04-21T12:28:20Z</time>
      </trkpt>
      <trkpt lat="49.04775" lon="-0.48012">
        <ele>136.6</ele>
        <time>2023-04-21T12:28:21Z</time>
      </trkpt>
      <trkpt lat="49.04781" lon="-0.48008">
        <ele>136.4</ele>
        <time>2023-04-21T12:28:22Z</time>
      </trkpt>
      <trkpt lat="49.04786" lon="-0.48004">
        <ele>136.2</ele>
        <time>2023-04-21T12:28:23Z</time>
      </trkpt>
      <trkpt lat="49.04791" lon="-0.47997">
        <ele>136.2</ele>
        <time>2023-04-21T12:28:24Z</time>
      </trkpt>
      <trkpt lat="49.04795" lon="-0.4799">
        <ele>136.2</ele>
        <time>2023-04-21T12:28:25Z</time>
      </trkpt>
      <trkpt lat="49.048" lon="-0.47982">
        <ele>136.2</ele>
        <time>2023-04-21T12:28:26Z</time>
      </trkpt>
      <trkpt lat="49.04804" lon="-0.47974">
        <ele>136.2</ele>
        <time>2023-04-21T12:28:27Z</time>
      </trkpt>
      <trkpt lat="49.04808" lon="-0.47966">
        <ele>136.2</ele>
        <time>2023-04-21T12:28:28Z</time>
      </trkpt>
      <trkpt lat="49.04811" lon="-0.47959">
        <ele>136.4</ele>
        <time>2023-04-21T12:28:29Z</time>
      </trkpt>
      <trkpt lat="49.04815" lon="-0.47952">
        <ele>136.4</ele>
        <time>2023-04-21T12:28:30Z</time>
      </trkpt>
      <trkpt lat="49.04818" lon="-0.47944">
        <ele>136.6</ele>
        <time>2023-04-21T12:28:31Z</time>
      </trkpt>
      <trkpt lat="49.04822" lon="-0.47938">
        <ele>136.6</ele>
        <time>2023-04-21T12:28:32Z</time>
      </trkpt>
      <trkpt lat="49.04825" lon="-0.47931">
        <ele>136.6</ele>
        <time>2023-04-21T12:28:33Z</time>
      </trkpt>
      <trkpt lat="49.04828" lon="-0.47925">
        <ele>136.8</ele>
        <time>2023-04-21T12:28:34Z</time>
      </trkpt>
      <trkpt lat="49.04831" lon="-0.47918">
        <ele>137</ele>
        <time>2023-04-21T12:28:35Z</time>
      </trkpt>
      <trkpt lat="49.04834" lon="-0.47912">
        <ele>137</ele>
        <time>2023-04-21T12:28:36Z</time>
      </trkpt>
      <trkpt lat="49.04837" lon="-0.47906">
        <ele>136.8</ele>
        <time>2023-04-21T12:28:37Z</time>
      </trkpt>
      <trkpt lat="49.0484" lon="-0.47901">
        <ele>136.8</ele>
        <time>2023-04-21T12:28:38Z</time>
      </trkpt>
      <trkpt lat="49.04844" lon="-0.47895">
        <ele>136.8</ele>
        <time>2023-04-21T12:28:39Z</time>
      </trkpt>
      <trkpt lat="49.04847" lon="-0.47889">
        <ele>136.6</ele>
        <time>2023-04-21T12:28:40Z</time>
      </trkpt>
      <trkpt lat="49.04851" lon="-0.47884">
        <ele>136.6</ele>
        <time>2023-04-21T12:28:41Z</time>
      </trkpt>
      <trkpt lat="49.04854" lon="-0.47878">
        <ele>136.6</ele>
        <time>2023-04-21T12:28:42Z</time>
      </trkpt>
      <trkpt lat="49.04858" lon="-0.47873">
        <ele>136.4</ele>
        <time>2023-04-21T12:28:43Z</time>
      </trkpt>
      <trkpt lat="49.04862" lon="-0.47867">
        <ele>136.2</ele>
        <time>2023-04-21T12:28:44Z</time>
      </trkpt>
      <trkpt lat="49.04866" lon="-0.4786">
        <ele>136.2</ele>
        <time>2023-04-21T12:28:45Z</time>
      </trkpt>
      <trkpt lat="49.04869" lon="-0.47854">
        <ele>136</ele>
        <time>2023-04-21T12:28:46Z</time>
      </trkpt>
      <trkpt lat="49.04873" lon="-0.47848">
        <ele>135.8</ele>
        <time>2023-04-21T12:28:47Z</time>
      </trkpt>
      <trkpt lat="49.04876" lon="-0.47841">
        <ele>135.8</ele>
        <time>2023-04-21T12:28:48Z</time>
      </trkpt>
      <trkpt lat="49.0488" lon="-0.47835">
        <ele>135.6</ele>
        <time>2023-04-21T12:28:49Z</time>
      </trkpt>
      <trkpt lat="49.04884" lon="-0.47828">
        <ele>135.6</ele>
        <time>2023-04-21T12:28:50Z</time>
      </trkpt>
      <trkpt lat="49.04888" lon="-0.47821">
        <ele>135.6</ele>
        <time>2023-04-21T12:28:51Z</time>
      </trkpt>
      <trkpt lat="49.04891" lon="-0.47815">
        <ele>135.4</ele>
        <time>2023-04-21T12:28:52Z</time>
      </trkpt>
      <trkpt lat="49.04895" lon="-0.47808">
        <ele>135.4</ele>
        <time>2023-04-21T12:28:53Z</time>
      </trkpt>
      <trkpt lat="49.04899" lon="-0.47801">
        <ele>135.2</ele>
        <time>2023-04-21T12:28:54Z</time>
      </trkpt>
      <trkpt lat="49.04903" lon="-0.47794">
        <ele>135.2</ele>
        <time>2023-04-21T12:28:55Z</time>
      </trkpt>
      <trkpt lat="49.04906" lon="-0.47787">
        <ele>135.2</ele>
        <time>2023-04-21T12:28:56Z</time>
      </trkpt>
      <trkpt lat="49.0491" lon="-0.4778">
        <ele>135</ele>
        <time>2023-04-21T12:28:57Z</time>
      </trkpt>
      <trkpt lat="49.04914" lon="-0.47772">
        <ele>134.8</ele>
        <time>2023-04-21T12:28:58Z</time>
      </trkpt>
      <trkpt lat="49.04917" lon="-0.47765">
        <ele>134.8</ele>
        <time>2023-04-21T12:28:59Z</time>
      </trkpt>
      <trkpt lat="49.04921" lon="-0.47758">
        <ele>134.6</ele>
        <time>2023-04-21T12:29:00Z</time>
      </trkpt>
      <trkpt lat="49.04925" lon="-0.47751">
        <ele>134.6</ele>
        <time>2023-04-21T12:29:01Z</time>
      </trkpt>
      <trkpt lat="49.04929" lon="-0.47743">
        <ele>134.2</ele>
        <time>2023-04-21T12:29:02Z</time>
      </trkpt>
      <trkpt lat="49.04933" lon="-0.47736">
        <ele>133.8</ele>
        <time>2023-04-21T12:29:03Z</time>
      </trkpt>
      <trkpt lat="49.04937" lon="-0.47729">
        <ele>133.6</ele>
        <time>2023-04-21T12:29:04Z</time>
      </trkpt>
      <trkpt lat="49.04941" lon="-0.47721">
        <ele>133.4</ele>
        <time>2023-04-21T12:29:05Z</time>
      </trkpt>
      <trkpt lat="49.04945" lon="-0.47714">
        <ele>133</ele>
        <time>2023-04-21T12:29:06Z</time>
      </trkpt>
      <trkpt lat="49.0495" lon="-0.47708">
        <ele>132.6</ele>
        <time>2023-04-21T12:29:07Z</time>
      </trkpt>
      <trkpt lat="49.04954" lon="-0.47701">
        <ele>132.4</ele>
        <time>2023-04-21T12:29:08Z</time>
      </trkpt>
      <trkpt lat="49.04959" lon="-0.47695">
        <ele>132.2</ele>
        <time>2023-04-21T12:29:09Z</time>
      </trkpt>
      <trkpt lat="49.04963" lon="-0.47689">
        <ele>131.8</ele>
        <time>2023-04-21T12:29:10Z</time>
      </trkpt>
      <trkpt lat="49.04968" lon="-0.47683">
        <ele>131.6</ele>
        <time>2023-04-21T12:29:11Z</time>
      </trkpt>
      <trkpt lat="49.04972" lon="-0.47677">
        <ele>131.4</ele>
        <time>2023-04-21T12:29:12Z</time>
      </trkpt>
      <trkpt lat="49.04977" lon="-0.47671">
        <ele>131.2</ele>
        <time>2023-04-21T12:29:13Z</time>
      </trkpt>
      <trkpt lat="49.04982" lon="-0.47665">
        <ele>130.8</ele>
        <time>2023-04-21T12:29:14Z</time>
      </trkpt>
      <trkpt lat="49.04987" lon="-0.47659">
        <ele>130.8</ele>
        <time>2023-04-21T12:29:15Z</time>
      </trkpt>
      <trkpt lat="49.04992" lon="-0.47653">
        <ele>130.6</ele>
        <time>2023-04-21T12:29:16Z</time>
      </trkpt>
      <trkpt lat="49.04998" lon="-0.47647">
        <ele>130.6</ele>
        <time>2023-04-21T12:29:17Z</time>
      </trkpt>
      <trkpt lat="49.05004" lon="-0.47641">
        <ele>130.6</ele>
        <time>2023-04-21T12:29:18Z</time>
      </trkpt>
      <trkpt lat="49.05009" lon="-0.47636">
        <ele>130.4</ele>
        <time>2023-04-21T12:29:19Z</time>
      </trkpt>
      <trkpt lat="49.05015" lon="-0.4763">
        <ele>130.4</ele>
        <time>2023-04-21T12:29:20Z</time>
      </trkpt>
      <trkpt lat="49.05021" lon="-0.47625">
        <ele>130.2</ele>
        <time>2023-04-21T12:29:21Z</time>
      </trkpt>
      <trkpt lat="49.05027" lon="-0.4762">
        <ele>130.2</ele>
        <time>2023-04-21T12:29:22Z</time>
      </trkpt>
      <trkpt lat="49.05034" lon="-0.47615">
        <ele>129.8</ele>
        <time>2023-04-21T12:29:23Z</time>
      </trkpt>
      <trkpt lat="49.0504" lon="-0.4761">
        <ele>129.8</ele>
        <time>2023-04-21T12:29:24Z</time>
      </trkpt>
      <trkpt lat="49.05046" lon="-0.47605">
        <ele>129.6</ele>
        <time>2023-04-21T12:29:25Z</time>
      </trkpt>
      <trkpt lat="49.05052" lon="-0.476">
        <ele>129.4</ele>
        <time>2023-04-21T12:29:26Z</time>
      </trkpt>
      <trkpt lat="49.05058" lon="-0.47596">
        <ele>129.2</ele>
        <time>2023-04-21T12:29:27Z</time>
      </trkpt>
      <trkpt lat="49.05064" lon="-0.47591">
        <ele>128.8</ele>
        <time>2023-04-21T12:29:28Z</time>
      </trkpt>
      <trkpt lat="49.0507" lon="-0.47586">
        <ele>128.6</ele>
        <time>2023-04-21T12:29:29Z</time>
      </trkpt>
      <trkpt lat="49.05076" lon="-0.47582">
        <ele>128.4</ele>
        <time>2023-04-21T12:29:30Z</time>
      </trkpt>
      <trkpt lat="49.05082" lon="-0.47577">
        <ele>128.2</ele>
        <time>2023-04-21T12:29:31Z</time>
      </trkpt>
      <trkpt lat="49.05088" lon="-0.47573">
        <ele>128</ele>
        <time>2023-04-21T12:29:32Z</time>
      </trkpt>
      <trkpt lat="49.05095" lon="-0.47568">
        <ele>128</ele>
        <time>2023-04-21T12:29:33Z</time>
      </trkpt>
      <trkpt lat="49.05101" lon="-0.47564">
        <ele>128</ele>
        <time>2023-04-21T12:29:34Z</time>
      </trkpt>
      <trkpt lat="49.05107" lon="-0.47559">
        <ele>127.8</ele>
        <time>2023-04-21T12:29:35Z</time>
      </trkpt>
      <trkpt lat="49.05114" lon="-0.47555">
        <ele>127.6</ele>
        <time>2023-04-21T12:29:36Z</time>
      </trkpt>
      <trkpt lat="49.05121" lon="-0.47551">
        <ele>127.6</ele>
        <time>2023-04-21T12:29:37Z</time>
      </trkpt>
      <trkpt lat="49.05127" lon="-0.47547">
        <ele>127.6</ele>
        <time>2023-04-21T12:29:38Z</time>
      </trkpt>
      <trkpt lat="49.05134" lon="-0.47543">
        <ele>127.6</ele>
        <time>2023-04-21T12:29:39Z</time>
      </trkpt>
      <trkpt lat="49.05141" lon="-0.4754">
        <ele>127.6</ele>
        <time>2023-04-21T12:29:40Z</time>
      </trkpt>
      <trkpt lat="49.05148" lon="-0.47536">
        <ele>127.6</ele>
        <time>2023-04-21T12:29:41Z</time>
      </trkpt>
      <trkpt lat="49.05154" lon="-0.47533">
        <ele>127.4</ele>
        <time>2023-04-21T12:29:42Z</time>
      </trkpt>
      <trkpt lat="49.05161" lon="-0.47529">
        <ele>127.4</ele>
        <time>2023-04-21T12:29:43Z</time>
      </trkpt>
      <trkpt lat="49.05168" lon="-0.47526">
        <ele>127.4</ele>
        <time>2023-04-21T12:29:44Z</time>
      </trkpt>
      <trkpt lat="49.05175" lon="-0.47523">
        <ele>127.2</ele>
        <time>2023-04-21T12:29:45Z</time>
      </trkpt>
      <trkpt lat="49.05182" lon="-0.4752">
        <ele>127</ele>
        <time>2023-04-21T12:29:46Z</time>
      </trkpt>
      <trkpt lat="49.05189" lon="-0.47517">
        <ele>126.8</ele>
        <time>2023-04-21T12:29:47Z</time>
      </trkpt>
      <trkpt lat="49.05196" lon="-0.47513">
        <ele>126.6</ele>
        <time>2023-04-21T12:29:48Z</time>
      </trkpt>
      <trkpt lat="49.05204" lon="-0.4751">
        <ele>126.6</ele>
        <time>2023-04-21T12:29:49Z</time>
      </trkpt>
      <trkpt lat="49.05211" lon="-0.47507">
        <ele>126.4</ele>
        <time>2023-04-21T12:29:50Z</time>
      </trkpt>
      <trkpt lat="49.05218" lon="-0.47503">
        <ele>126</ele>
        <time>2023-04-21T12:29:51Z</time>
      </trkpt>
      <trkpt lat="49.05226" lon="-0.475">
        <ele>125.8</ele>
        <time>2023-04-21T12:29:52Z</time>
      </trkpt>
      <trkpt lat="49.05234" lon="-0.47498">
        <ele>125.6</ele>
        <time>2023-04-21T12:29:53Z</time>
      </trkpt>
      <trkpt lat="49.05242" lon="-0.47496">
        <ele>125</ele>
        <time>2023-04-21T12:29:54Z</time>
      </trkpt>
      <trkpt lat="49.0525" lon="-0.47494">
        <ele>124.8</ele>
        <time>2023-04-21T12:29:55Z</time>
      </trkpt>
      <trkpt lat="49.05258" lon="-0.47493">
        <ele>124</ele>
        <time>2023-04-21T12:29:56Z</time>
      </trkpt>
      <trkpt lat="49.05266" lon="-0.47492">
        <ele>123.2</ele>
        <time>2023-04-21T12:29:57Z</time>
      </trkpt>
      <trkpt lat="49.05274" lon="-0.4749">
        <ele>122.6</ele>
        <time>2023-04-21T12:29:58Z</time>
      </trkpt>
      <trkpt lat="49.05282" lon="-0.47489">
        <ele>121.6</ele>
        <time>2023-04-21T12:29:59Z</time>
      </trkpt>
      <trkpt lat="49.0529" lon="-0.47488">
        <ele>121</ele>
        <time>2023-04-21T12:30:00Z</time>
      </trkpt>
      <trkpt lat="49.05299" lon="-0.47486">
        <ele>120.2</ele>
        <time>2023-04-21T12:30:01Z</time>
      </trkpt>
      <trkpt lat="49.05307" lon="-0.47485">
        <ele>119.6</ele>
        <time>2023-04-21T12:30:02Z</time>
      </trkpt>
      <trkpt lat="49.05315" lon="-0.47484">
        <ele>118.8</ele>
        <time>2023-04-21T12:30:03Z</time>
      </trkpt>
      <trkpt lat="49.05324" lon="-0.47482">
        <ele>118</ele>
        <time>2023-04-21T12:30:04Z</time>
      </trkpt>
      <trkpt lat="49.05333" lon="-0.47481">
        <ele>117.4</ele>
        <time>2023-04-21T12:30:05Z</time>
      </trkpt>
      <trkpt lat="49.05342" lon="-0.4748">
        <ele>117</ele>
        <time>2023-04-21T12:30:06Z</time>
      </trkpt>
      <trkpt lat="49.05351" lon="-0.47479">
        <ele>116.6</ele>
        <time>2023-04-21T12:30:07Z</time>
      </trkpt>
      <trkpt lat="49.0536" lon="-0.47477">
        <ele>116</ele>
        <time>2023-04-21T12:30:08Z</time>
      </trkpt>
      <trkpt lat="49.05369" lon="-0.47476">
        <ele>115.6</ele>
        <time>2023-04-21T12:30:09Z</time>
      </trkpt>
      <trkpt lat="49.05379" lon="-0.47475">
        <ele>115.4</ele>
        <time>2023-04-21T12:30:10Z</time>
      </trkpt>
      <trkpt lat="49.05388" lon="-0.47474">
        <ele>115</ele>
        <time>2023-04-21T12:30:11Z</time>
      </trkpt>
      <trkpt lat="49.05398" lon="-0.47474">
        <ele>114.6</ele>
        <time>2023-04-21T12:30:12Z</time>
      </trkpt>
      <trkpt lat="49.05407" lon="-0.47473">
        <ele>114</ele>
        <time>2023-04-21T12:30:13Z</time>
      </trkpt>
      <trkpt lat="49.05417" lon="-0.47472">
        <ele>113.6</ele>
        <time>2023-04-21T12:30:14Z</time>
      </trkpt>
      <trkpt lat="49.05427" lon="-0.47471">
        <ele>113.2</ele>
        <time>2023-04-21T12:30:15Z</time>
      </trkpt>
      <trkpt lat="49.05437" lon="-0.4747">
        <ele>112.6</ele>
        <time>2023-04-21T12:30:16Z</time>
      </trkpt>
      <trkpt lat="49.05447" lon="-0.47469">
        <ele>112.2</ele>
        <time>2023-04-21T12:30:17Z</time>
      </trkpt>
      <trkpt lat="49.05457" lon="-0.47468">
        <ele>111.6</ele>
        <time>2023-04-21T12:30:18Z</time>
      </trkpt>
      <trkpt lat="49.05468" lon="-0.47467">
        <ele>111</ele>
        <time>2023-04-21T12:30:19Z</time>
      </trkpt>
      <trkpt lat="49.05478" lon="-0.47465">
        <ele>110.6</ele>
        <time>2023-04-21T12:30:20Z</time>
      </trkpt>
      <trkpt lat="49.05489" lon="-0.47463">
        <ele>110</ele>
        <time>2023-04-21T12:30:21Z</time>
      </trkpt>
      <trkpt lat="49.055" lon="-0.47462">
        <ele>109.6</ele>
        <time>2023-04-21T12:30:22Z</time>
      </trkpt>
      <trkpt lat="49.05512" lon="-0.4746">
        <ele>109</ele>
        <time>2023-04-21T12:30:23Z</time>
      </trkpt>
      <trkpt lat="49.05523" lon="-0.47458">
        <ele>108.2</ele>
        <time>2023-04-21T12:30:24Z</time>
      </trkpt>
      <trkpt lat="49.05535" lon="-0.47456">
        <ele>107.6</ele>
        <time>2023-04-21T12:30:25Z</time>
      </trkpt>
      <trkpt lat="49.05547" lon="-0.47454">
        <ele>107</ele>
        <time>2023-04-21T12:30:26Z</time>
      </trkpt>
      <trkpt lat="49.05559" lon="-0.47453">
        <ele>106.4</ele>
        <time>2023-04-21T12:30:27Z</time>
      </trkpt>
      <trkpt lat="49.0557" lon="-0.47451">
        <ele>105.6</ele>
        <time>2023-04-21T12:30:28Z</time>
      </trkpt>
      <trkpt lat="49.05581" lon="-0.47449">
        <ele>105</ele>
        <time>2023-04-21T12:30:29Z</time>
      </trkpt>
      <trkpt lat="49.05592" lon="-0.47447">
        <ele>104.6</ele>
        <time>2023-04-21T12:30:30Z</time>
      </trkpt>
      <trkpt lat="49.05603" lon="-0.47446">
        <ele>104.2</ele>
        <time>2023-04-21T12:30:31Z</time>
      </trkpt>
      <trkpt lat="49.05613" lon="-0.47444">
        <ele>103.8</ele>
        <time>2023-04-21T12:30:32Z</time>
      </trkpt>
      <trkpt lat="49.05623" lon="-0.47442">
        <ele>103.4</ele>
        <time>2023-04-21T12:30:33Z</time>
      </trkpt>
      <trkpt lat="49.05633" lon="-0.47441">
        <ele>103</ele>
        <time>2023-04-21T12:30:34Z</time>
      </trkpt>
      <trkpt lat="49.05643" lon="-0.47439">
        <ele>102.6</ele>
        <time>2023-04-21T12:30:35Z</time>
      </trkpt>
      <trkpt lat="49.05653" lon="-0.47437">
        <ele>102.4</ele>
        <time>2023-04-21T12:30:36Z</time>
      </trkpt>
      <trkpt lat="49.05662" lon="-0.47436">
        <ele>102</ele>
        <time>2023-04-21T12:30:37Z</time>
      </trkpt>
      <trkpt lat="49.05672" lon="-0.47434">
        <ele>101.4</ele>
        <time>2023-04-21T12:30:38Z</time>
      </trkpt>
      <trkpt lat="49.05682" lon="-0.47432">
        <ele>100.6</ele>
        <time>2023-04-21T12:30:39Z</time>
      </trkpt>
      <trkpt lat="49.05692" lon="-0.4743">
        <ele>100</ele>
        <time>2023-04-21T12:30:40Z</time>
      </trkpt>
      <trkpt lat="49.05702" lon="-0.47428">
        <ele>99.4</ele>
        <time>2023-04-21T12:30:41Z</time>
      </trkpt>
      <trkpt lat="49.05713" lon="-0.47426">
        <ele>98.6</ele>
        <time>2023-04-21T12:30:42Z</time>
      </trkpt>
      <trkpt lat="49.05723" lon="-0.47424">
        <ele>98</ele>
        <time>2023-04-21T12:30:43Z</time>
      </trkpt>
      <trkpt lat="49.05733" lon="-0.47422">
        <ele>97</ele>
        <time>2023-04-21T12:30:44Z</time>
      </trkpt>
      <trkpt lat="49.05744" lon="-0.4742">
        <ele>96.4</ele>
        <time>2023-04-21T12:30:45Z</time>
      </trkpt>
      <trkpt lat="49.05755" lon="-0.47418">
        <ele>95.6</ele>
        <time>2023-04-21T12:30:46Z</time>
      </trkpt>
      <trkpt lat="49.05765" lon="-0.47417">
        <ele>95.4</ele>
        <time>2023-04-21T12:30:47Z</time>
      </trkpt>
      <trkpt lat="49.05776" lon="-0.47414">
        <ele>94.8</ele>
        <time>2023-04-21T12:30:48Z</time>
      </trkpt>
      <trkpt lat="49.05787" lon="-0.47412">
        <ele>94.4</ele>
        <time>2023-04-21T12:30:49Z</time>
      </trkpt>
      <trkpt lat="49.05798" lon="-0.4741">
        <ele>93.8</ele>
        <time>2023-04-21T12:30:50Z</time>
      </trkpt>
      <trkpt lat="49.05809" lon="-0.47408">
        <ele>93.4</ele>
        <time>2023-04-21T12:30:51Z</time>
      </trkpt>
      <trkpt lat="49.0582" lon="-0.47406">
        <ele>92.8</ele>
        <time>2023-04-21T12:30:52Z</time>
      </trkpt>
      <trkpt lat="49.05831" lon="-0.47405">
        <ele>92.2</ele>
        <time>2023-04-21T12:30:53Z</time>
      </trkpt>
      <trkpt lat="49.05842" lon="-0.47404">
        <ele>91.6</ele>
        <time>2023-04-21T12:30:54Z</time>
      </trkpt>
      <trkpt lat="49.05854" lon="-0.47404">
        <ele>91.2</ele>
        <time>2023-04-21T12:30:55Z</time>
      </trkpt>
      <trkpt lat="49.05865" lon="-0.47405">
        <ele>90.6</ele>
        <time>2023-04-21T12:30:56Z</time>
      </trkpt>
      <trkpt lat="49.05876" lon="-0.47406">
        <ele>90.2</ele>
        <time>2023-04-21T12:30:57Z</time>
      </trkpt>
      <trkpt lat="49.05887" lon="-0.47407">
        <ele>89.6</ele>
        <time>2023-04-21T12:30:58Z</time>
      </trkpt>
      <trkpt lat="49.05898" lon="-0.47409">
        <ele>89</ele>
        <time>2023-04-21T12:30:59Z</time>
      </trkpt>
      <trkpt lat="49.05909" lon="-0.47411">
        <ele>88.6</ele>
        <time>2023-04-21T12:31:00Z</time>
      </trkpt>
      <trkpt lat="49.0592" lon="-0.47412">
        <ele>87.8</ele>
        <time>2023-04-21T12:31:01Z</time>
      </trkpt>
      <trkpt lat="49.05931" lon="-0.47414">
        <ele>87</ele>
        <time>2023-04-21T12:31:02Z</time>
      </trkpt>
      <trkpt lat="49.05943" lon="-0.47415">
        <ele>86</ele>
        <time>2023-04-21T12:31:03Z</time>
      </trkpt>
      <trkpt lat="49.05954" lon="-0.47417">
        <ele>84.8</ele>
        <time>2023-04-21T12:31:04Z</time>
      </trkpt>
      <trkpt lat="49.05966" lon="-0.47419">
        <ele>83.6</ele>
        <time>2023-04-21T12:31:05Z</time>
      </trkpt>
      <trkpt lat="49.05978" lon="-0.4742">
        <ele>82.6</ele>
        <time>2023-04-21T12:31:06Z</time>
      </trkpt>
      <trkpt lat="49.05991" lon="-0.4742">
        <ele>81.6</ele>
        <time>2023-04-21T12:31:07Z</time>
      </trkpt>
      <trkpt lat="49.06003" lon="-0.4742">
        <ele>80.4</ele>
        <time>2023-04-21T12:31:08Z</time>
      </trkpt>
      <trkpt lat="49.06016" lon="-0.47419">
        <ele>79.4</ele>
        <time>2023-04-21T12:31:09Z</time>
      </trkpt>
      <trkpt lat="49.06028" lon="-0.47416">
        <ele>78.4</ele>
        <time>2023-04-21T12:31:10Z</time>
      </trkpt>
      <trkpt lat="49.06041" lon="-0.47412">
        <ele>77.4</ele>
        <time>2023-04-21T12:31:11Z</time>
      </trkpt>
      <trkpt lat="49.06054" lon="-0.47407">
        <ele>76.2</ele>
        <time>2023-04-21T12:31:12Z</time>
      </trkpt>
      <trkpt lat="49.06066" lon="-0.47401">
        <ele>75.4</ele>
        <time>2023-04-21T12:31:13Z</time>
      </trkpt>
      <trkpt lat="49.06078" lon="-0.47395">
        <ele>74.4</ele>
        <time>2023-04-21T12:31:14Z</time>
      </trkpt>
      <trkpt lat="49.06091" lon="-0.47388">
        <ele>73.4</ele>
        <time>2023-04-21T12:31:15Z</time>
      </trkpt>
      <trkpt lat="49.06103" lon="-0.4738">
        <ele>72.6</ele>
        <time>2023-04-21T12:31:16Z</time>
      </trkpt>
      <trkpt lat="49.06115" lon="-0.47372">
        <ele>71.6</ele>
        <time>2023-04-21T12:31:17Z</time>
      </trkpt>
      <trkpt lat="49.06127" lon="-0.47364">
        <ele>70.6</ele>
        <time>2023-04-21T12:31:18Z</time>
      </trkpt>
      <trkpt lat="49.06139" lon="-0.47355">
        <ele>69.6</ele>
        <time>2023-04-21T12:31:19Z</time>
      </trkpt>
      <trkpt lat="49.0615" lon="-0.47345">
        <ele>68.6</ele>
        <time>2023-04-21T12:31:20Z</time>
      </trkpt>
      <trkpt lat="49.06161" lon="-0.47335">
        <ele>67.6</ele>
        <time>2023-04-21T12:31:21Z</time>
      </trkpt>
      <trkpt lat="49.0617" lon="-0.47324">
        <ele>66.6</ele>
        <time>2023-04-21T12:31:22Z</time>
      </trkpt>
      <trkpt lat="49.06179" lon="-0.47311">
        <ele>65.4</ele>
        <time>2023-04-21T12:31:23Z</time>
      </trkpt>
      <trkpt lat="49.06186" lon="-0.47297">
        <ele>64.4</ele>
        <time>2023-04-21T12:31:24Z</time>
      </trkpt>
      <trkpt lat="49.06192" lon="-0.47282">
        <ele>63.6</ele>
        <time>2023-04-21T12:31:25Z</time>
      </trkpt>
      <trkpt lat="49.06195" lon="-0.47267">
        <ele>63</ele>
        <time>2023-04-21T12:31:26Z</time>
      </trkpt>
      <trkpt lat="49.06196" lon="-0.47253">
        <ele>63</ele>
        <time>2023-04-21T12:31:27Z</time>
      </trkpt>
      <trkpt lat="49.06194" lon="-0.47239">
        <ele>62.6</ele>
        <time>2023-04-21T12:31:28Z</time>
      </trkpt>
      <trkpt lat="49.0619" lon="-0.47227">
        <ele>62</ele>
        <time>2023-04-21T12:31:29Z</time>
      </trkpt>
      <trkpt lat="49.06184" lon="-0.47218">
        <ele>62</ele>
        <time>2023-04-21T12:31:30Z</time>
      </trkpt>
      <trkpt lat="49.06178" lon="-0.47208">
        <ele>62</ele>
        <time>2023-04-21T12:31:31Z</time>
      </trkpt>
      <trkpt lat="49.0617" lon="-0.47196">
        <ele>61.8</ele>
        <time>2023-04-21T12:31:32Z</time>
      </trkpt>
      <trkpt lat="49.06161" lon="-0.47184">
        <ele>61.8</ele>
        <time>2023-04-21T12:31:33Z</time>
      </trkpt>
      <trkpt lat="49.06154" lon="-0.47172">
        <ele>62.2</ele>
        <time>2023-04-21T12:31:34Z</time>
      </trkpt>
      <trkpt lat="49.06147" lon="-0.4716">
        <ele>62.6</ele>
        <time>2023-04-21T12:31:35Z</time>
      </trkpt>
      <trkpt lat="49.06141" lon="-0.47147">
        <ele>62.8</ele>
        <time>2023-04-21T12:31:36Z</time>
      </trkpt>
      <trkpt lat="49.06136" lon="-0.47132">
        <ele>62.8</ele>
        <time>2023-04-21T12:31:37Z</time>
      </trkpt>
      <trkpt lat="49.06132" lon="-0.47116">
        <ele>62.8</ele>
        <time>2023-04-21T12:31:38Z</time>
      </trkpt>
      <trkpt lat="49.06129" lon="-0.47099">
        <ele>62.4</ele>
        <time>2023-04-21T12:31:39Z</time>
      </trkpt>
      <trkpt lat="49.06127" lon="-0.47082">
        <ele>61.8</ele>
        <time>2023-04-21T12:31:40Z</time>
      </trkpt>
      <trkpt lat="49.06128" lon="-0.47065">
        <ele>61.6</ele>
        <time>2023-04-21T12:31:41Z</time>
      </trkpt>
      <trkpt lat="49.0613" lon="-0.47047">
        <ele>60.8</ele>
        <time>2023-04-21T12:31:42Z</time>
      </trkpt>
      <trkpt lat="49.06133" lon="-0.4703">
        <ele>59.6</ele>
        <time>2023-04-21T12:31:43Z</time>
      </trkpt>
      <trkpt lat="49.06138" lon="-0.47014">
        <ele>58.2</ele>
        <time>2023-04-21T12:31:44Z</time>
      </trkpt>
      <trkpt lat="49.06143" lon="-0.46998">
        <ele>56.6</ele>
        <time>2023-04-21T12:31:45Z</time>
      </trkpt>
      <trkpt lat="49.06148" lon="-0.46983">
        <ele>55.8</ele>
        <time>2023-04-21T12:31:46Z</time>
      </trkpt>
      <trkpt lat="49.06154" lon="-0.46967">
        <ele>55</ele>
        <time>2023-04-21T12:31:47Z</time>
      </trkpt>
      <trkpt lat="49.0616" lon="-0.46952">
        <ele>54.2</ele>
        <time>2023-04-21T12:31:48Z</time>
      </trkpt>
      <trkpt lat="49.06166" lon="-0.46938">
        <ele>53.8</ele>
        <time>2023-04-21T12:31:49Z</time>
      </trkpt>
      <trkpt lat="49.06171" lon="-0.46922">
        <ele>54.4</ele>
        <time>2023-04-21T12:31:50Z</time>
      </trkpt>
      <trkpt lat="49.06177" lon="-0.46907">
        <ele>54.6</ele>
        <time>2023-04-21T12:31:51Z</time>
      </trkpt>
      <trkpt lat="49.06181" lon="-0.4689">
        <ele>54.2</ele>
        <time>2023-04-21T12:31:52Z</time>
      </trkpt>
      <trkpt lat="49.06186" lon="-0.46873">
        <ele>53.8</ele>
        <time>2023-04-21T12:31:53Z</time>
      </trkpt>
      <trkpt lat="49.0619" lon="-0.46856">
        <ele>53</ele>
        <time>2023-04-21T12:31:54Z</time>
      </trkpt>
      <trkpt lat="49.06196" lon="-0.46839">
        <ele>52.2</ele>
        <time>2023-04-21T12:31:55Z</time>
      </trkpt>
      <trkpt lat="49.06201" lon="-0.46822">
        <ele>51.8</ele>
        <time>2023-04-21T12:31:56Z</time>
      </trkpt>
      <trkpt lat="49.06207" lon="-0.46805">
        <ele>51.6</ele>
        <time>2023-04-21T12:31:57Z</time>
      </trkpt>
      <trkpt lat="49.06213" lon="-0.46789">
        <ele>51</ele>
        <time>2023-04-21T12:31:58Z</time>
      </trkpt>
      <trkpt lat="49.06217" lon="-0.46773">
        <ele>50.8</ele>
        <time>2023-04-21T12:31:59Z</time>
      </trkpt>
      <trkpt lat="49.06222" lon="-0.46759">
        <ele>50.2</ele>
        <time>2023-04-21T12:32:00Z</time>
      </trkpt>
      <trkpt lat="49.06226" lon="-0.46745">
        <ele>50</ele>
        <time>2023-04-21T12:32:01Z</time>
      </trkpt>
      <trkpt lat="49.06229" lon="-0.46732">
        <ele>49.8</ele>
        <time>2023-04-21T12:32:02Z</time>
      </trkpt>
      <trkpt lat="49.06233" lon="-0.46719">
        <ele>49.6</ele>
        <time>2023-04-21T12:32:03Z</time>
      </trkpt>
      <trkpt lat="49.06236" lon="-0.46708">
        <ele>49.4</ele>
        <time>2023-04-21T12:32:04Z</time>
      </trkpt>
      <trkpt lat="49.06239" lon="-0.46697">
        <ele>49.2</ele>
        <time>2023-04-21T12:32:05Z</time>
      </trkpt>
      <trkpt lat="49.06241" lon="-0.46688">
        <ele>49.2</ele>
        <time>2023-04-21T12:32:06Z</time>
      </trkpt>
      <trkpt lat="49.06242" lon="-0.46679">
        <ele>49.2</ele>
        <time>2023-04-21T12:32:07Z</time>
      </trkpt>
      <trkpt lat="49.06244" lon="-0.46672">
        <ele>49.4</ele>
        <time>2023-04-21T12:32:08Z</time>
      </trkpt>
      <trkpt lat="49.06245" lon="-0.46665">
        <ele>49.4</ele>
        <time>2023-04-21T12:32:09Z</time>
      </trkpt>
      <trkpt lat="49.06245" lon="-0.46659">
        <ele>49.2</ele>
        <time>2023-04-21T12:32:10Z</time>
      </trkpt>
      <trkpt lat="49.06246" lon="-0.46653">
        <ele>49.2</ele>
        <time>2023-04-21T12:32:11Z</time>
      </trkpt>
      <trkpt lat="49.06247" lon="-0.46648">
        <ele>49.2</ele>
        <time>2023-04-21T12:32:12Z</time>
      </trkpt>
      <trkpt lat="49.06247" lon="-0.46642">
        <ele>49.2</ele>
        <time>2023-04-21T12:32:13Z</time>
      </trkpt>
      <trkpt lat="49.06248" lon="-0.46637">
        <ele>49.2</ele>
        <time>2023-04-21T12:32:14Z</time>
      </trkpt>
      <trkpt lat="49.06248" lon="-0.46632">
        <ele>49</ele>
        <time>2023-04-21T12:32:15Z</time>
      </trkpt>
      <trkpt lat="49.06249" lon="-0.46627">
        <ele>49</ele>
        <time>2023-04-21T12:32:16Z</time>
      </trkpt>
      <trkpt lat="49.06249" lon="-0.46623">
        <ele>49</ele>
        <time>2023-04-21T12:32:17Z</time>
      </trkpt>
      <trkpt lat="49.0625" lon="-0.46618">
        <ele>49</ele>
        <time>2023-04-21T12:32:18Z</time>
      </trkpt>
      <trkpt lat="49.0625" lon="-0.46613">
        <ele>49</ele>
        <time>2023-04-21T12:32:19Z</time>
      </trkpt>
      <trkpt lat="49.06251" lon="-0.46609">
        <ele>49.2</ele>
        <time>2023-04-21T12:32:20Z</time>
      </trkpt>
      <trkpt lat="49.06251" lon="-0.46605">
        <ele>49.2</ele>
        <time>2023-04-21T12:32:21Z</time>
      </trkpt>
      <trkpt lat="49.06252" lon="-0.466">
        <ele>49.4</ele>
        <time>2023-04-21T12:32:22Z</time>
      </trkpt>
      <trkpt lat="49.06252" lon="-0.46596">
        <ele>49.6</ele>
        <time>2023-04-21T12:32:23Z</time>
      </trkpt>
      <trkpt lat="49.06253" lon="-0.46592">
        <ele>49.8</ele>
        <time>2023-04-21T12:32:24Z</time>
      </trkpt>
      <trkpt lat="49.06253" lon="-0.46588">
        <ele>49.8</ele>
        <time>2023-04-21T12:32:25Z</time>
      </trkpt>
      <trkpt lat="49.06254" lon="-0.46584">
        <ele>50</ele>
        <time>2023-04-21T12:32:26Z</time>
      </trkpt>
      <trkpt lat="49.06254" lon="-0.46579">
        <ele>50</ele>
        <time>2023-04-21T12:32:27Z</time>
      </trkpt>
      <trkpt lat="49.06254" lon="-0.46575">
        <ele>50</ele>
        <time>2023-04-21T12:32:28Z</time>
      </trkpt>
      <trkpt lat="49.06254" lon="-0.46571">
        <ele>50</ele>
        <time>2023-04-21T12:32:29Z</time>
      </trkpt>
      <trkpt lat="49.06254" lon="-0.46566">
        <ele>50</ele>
        <time>2023-04-21T12:32:30Z</time>
      </trkpt>
      <trkpt lat="49.06254" lon="-0.46562">
        <ele>50</ele>
        <time>2023-04-21T12:32:31Z</time>
      </trkpt>
      <trkpt lat="49.06254" lon="-0.46557">
        <ele>50</ele>
        <time>2023-04-21T12:32:32Z</time>
      </trkpt>
      <trkpt lat="49.06254" lon="-0.46553">
        <ele>50</ele>
        <time>2023-04-21T12:32:33Z</time>
      </trkpt>
      <trkpt lat="49.06254" lon="-0.46548">
        <ele>50</ele>
        <time>2023-04-21T12:32:34Z</time>
      </trkpt>
      <trkpt lat="49.06254" lon="-0.46544">
        <ele>50</ele>
        <time>2023-04-21T12:32:35Z</time>
      </trkpt>
      <trkpt lat="49.06254" lon="-0.46539">
        <ele>50</ele>
        <time>2023-04-21T12:32:36Z</time>
      </trkpt>
      <trkpt lat="49.06254" lon="-0.46534">
        <ele>50</ele>
        <time>2023-04-21T12:32:37Z</time>
      </trkpt>
      <trkpt lat="49.06254" lon="-0.4653">
        <ele>50</ele>
        <time>2023-04-21T12:32:38Z</time>
      </trkpt>
      <trkpt lat="49.06254" lon="-0.46526">
        <ele>50</ele>
        <time>2023-04-21T12:32:39Z</time>
      </trkpt>
      <trkpt lat="49.06254" lon="-0.46521">
        <ele>50</ele>
        <time>2023-04-21T12:32:40Z</time>
      </trkpt>
      <trkpt lat="49.06255" lon="-0.46517">
        <ele>50</ele>
        <time>2023-04-21T12:32:41Z</time>
      </trkpt>
      <trkpt lat="49.06255" lon="-0.46512">
        <ele>50</ele>
        <time>2023-04-21T12:32:42Z</time>
      </trkpt>
      <trkpt lat="49.06255" lon="-0.46508">
        <ele>50</ele>
        <time>2023-04-21T12:32:43Z</time>
      </trkpt>
      <trkpt lat="49.06255" lon="-0.46504">
        <ele>50</ele>
        <time>2023-04-21T12:32:44Z</time>
      </trkpt>
      <trkpt lat="49.06254" lon="-0.46499">
        <ele>50</ele>
        <time>2023-04-21T12:32:45Z</time>
      </trkpt>
      <trkpt lat="49.06254" lon="-0.46495">
        <ele>50</ele>
        <time>2023-04-21T12:32:46Z</time>
      </trkpt>
      <trkpt lat="49.06254" lon="-0.46491">
        <ele>50.2</ele>
        <time>2023-04-21T12:32:47Z</time>
      </trkpt>
      <trkpt lat="49.06254" lon="-0.46486">
        <ele>50.4</ele>
        <time>2023-04-21T12:32:48Z</time>
      </trkpt>
      <trkpt lat="49.06254" lon="-0.46482">
        <ele>50.6</ele>
        <time>2023-04-21T12:32:49Z</time>
      </trkpt>
      <trkpt lat="49.06254" lon="-0.46478">
        <ele>50.6</ele>
        <time>2023-04-21T12:32:50Z</time>
      </trkpt>
      <trkpt lat="49.06253" lon="-0.46473">
        <ele>50.8</ele>
        <time>2023-04-21T12:32:51Z</time>
      </trkpt>
      <trkpt lat="49.06253" lon="-0.46469">
        <ele>50.8</ele>
        <time>2023-04-21T12:32:52Z</time>
      </trkpt>
      <trkpt lat="49.06253" lon="-0.46465">
        <ele>51</ele>
        <time>2023-04-21T12:32:53Z</time>
      </trkpt>
      <trkpt lat="49.06253" lon="-0.46461">
        <ele>51</ele>
        <time>2023-04-21T12:32:54Z</time>
      </trkpt>
      <trkpt lat="49.06253" lon="-0.46457">
        <ele>51</ele>
        <time>2023-04-21T12:32:55Z</time>
      </trkpt>
      <trkpt lat="49.06252" lon="-0.46453">
        <ele>51.2</ele>
        <time>2023-04-21T12:32:56Z</time>
      </trkpt>
      <trkpt lat="49.06252" lon="-0.46449">
        <ele>51.2</ele>
        <time>2023-04-21T12:32:57Z</time>
      </trkpt>
      <trkpt lat="49.06252" lon="-0.46446">
        <ele>51.4</ele>
        <time>2023-04-21T12:32:58Z</time>
      </trkpt>
      <trkpt lat="49.06252" lon="-0.46442">
        <ele>51.6</ele>
        <time>2023-04-21T12:32:59Z</time>
      </trkpt>
      <trkpt lat="49.06252" lon="-0.46438">
        <ele>51.6</ele>
        <time>2023-04-21T12:33:00Z</time>
      </trkpt>
      <trkpt lat="49.06252" lon="-0.46435">
        <ele>51.8</ele>
        <time>2023-04-21T12:33:01Z</time>
      </trkpt>
      <trkpt lat="49.06251" lon="-0.46431">
        <ele>51.8</ele>
        <time>2023-04-21T12:33:02Z</time>
      </trkpt>
      <trkpt lat="49.06251" lon="-0.46427">
        <ele>52</ele>
        <time>2023-04-21T12:33:03Z</time>
      </trkpt>
      <trkpt lat="49.06251" lon="-0.46424">
        <ele>52</ele>
        <time>2023-04-21T12:33:04Z</time>
      </trkpt>
      <trkpt lat="49.06251" lon="-0.4642">
        <ele>52</ele>
        <time>2023-04-21T12:33:05Z</time>
      </trkpt>
      <trkpt lat="49.06251" lon="-0.46417">
        <ele>52</ele>
        <time>2023-04-21T12:33:06Z</time>
      </trkpt>
      <trkpt lat="49.06251" lon="-0.46413">
        <ele>52.2</ele>
        <time>2023-04-21T12:33:07Z</time>
      </trkpt>
      <trkpt lat="49.06251" lon="-0.4641">
        <ele>52.2</ele>
        <time>2023-04-21T12:33:08Z</time>
      </trkpt>
      <trkpt lat="49.0625" lon="-0.46406">
        <ele>52.2</ele>
        <time>2023-04-21T12:33:09Z</time>
      </trkpt>
      <trkpt lat="49.0625" lon="-0.46403">
        <ele>52.2</ele>
        <time>2023-04-21T12:33:10Z</time>
      </trkpt>
      <trkpt lat="49.0625" lon="-0.46399">
        <ele>52.2</ele>
        <time>2023-04-21T12:33:11Z</time>
      </trkpt>
      <trkpt lat="49.0625" lon="-0.46396">
        <ele>52.2</ele>
        <time>2023-04-21T12:33:12Z</time>
      </trkpt>
      <trkpt lat="49.0625" lon="-0.46392">
        <ele>52.2</ele>
        <time>2023-04-21T12:33:13Z</time>
      </trkpt>
      <trkpt lat="49.0625" lon="-0.46388">
        <ele>52.2</ele>
        <time>2023-04-21T12:33:14Z</time>
      </trkpt>
      <trkpt lat="49.0625" lon="-0.46384">
        <ele>52.4</ele>
        <time>2023-04-21T12:33:15Z</time>
      </trkpt>
      <trkpt lat="49.0625" lon="-0.46381">
        <ele>52.4</ele>
        <time>2023-04-21T12:33:16Z</time>
      </trkpt>
      <trkpt lat="49.0625" lon="-0.46377">
        <ele>52.6</ele>
        <time>2023-04-21T12:33:17Z</time>
      </trkpt>
      <trkpt lat="49.0625" lon="-0.46373">
        <ele>52.6</ele>
        <time>2023-04-21T12:33:18Z</time>
      </trkpt>
      <trkpt lat="49.0625" lon="-0.46369">
        <ele>52.6</ele>
        <time>2023-04-21T12:33:19Z</time>
      </trkpt>
      <trkpt lat="49.0625" lon="-0.46365">
        <ele>52.6</ele>
        <time>2023-04-21T12:33:20Z</time>
      </trkpt>
      <trkpt lat="49.06251" lon="-0.4636">
        <ele>52.8</ele>
        <time>2023-04-21T12:33:21Z</time>
      </trkpt>
      <trkpt lat="49.06251" lon="-0.46356">
        <ele>53</ele>
        <time>2023-04-21T12:33:22Z</time>
      </trkpt>
      <trkpt lat="49.06252" lon="-0.46352">
        <ele>53</ele>
        <time>2023-04-21T12:33:23Z</time>
      </trkpt>
      <trkpt lat="49.06253" lon="-0.46347">
        <ele>53.4</ele>
        <time>2023-04-21T12:33:24Z</time>
      </trkpt>
      <trkpt lat="49.06254" lon="-0.46342">
        <ele>53.6</ele>
        <time>2023-04-21T12:33:25Z</time>
      </trkpt>
      <trkpt lat="49.06256" lon="-0.46338">
        <ele>54</ele>
        <time>2023-04-21T12:33:26Z</time>
      </trkpt>
      <trkpt lat="49.06257" lon="-0.46333">
        <ele>54.2</ele>
        <time>2023-04-21T12:33:27Z</time>
      </trkpt>
      <trkpt lat="49.06259" lon="-0.46328">
        <ele>54.2</ele>
        <time>2023-04-21T12:33:28Z</time>
      </trkpt>
      <trkpt lat="49.06261" lon="-0.46324">
        <ele>54.2</ele>
        <time>2023-04-21T12:33:29Z</time>
      </trkpt>
      <trkpt lat="49.06264" lon="-0.46319">
        <ele>54.2</ele>
        <time>2023-04-21T12:33:30Z</time>
      </trkpt>
      <trkpt lat="49.06266" lon="-0.46315">
        <ele>54.4</ele>
        <time>2023-04-21T12:33:31Z</time>
      </trkpt>
      <trkpt lat="49.06269" lon="-0.46311">
        <ele>54.6</ele>
        <time>2023-04-21T12:33:32Z</time>
      </trkpt>
      <trkpt lat="49.06271" lon="-0.46307">
        <ele>54.8</ele>
        <time>2023-04-21T12:33:33Z</time>
      </trkpt>
      <trkpt lat="49.06274" lon="-0.46303">
        <ele>55</ele>
        <time>2023-04-21T12:33:34Z</time>
      </trkpt>
      <trkpt lat="49.06277" lon="-0.46299">
        <ele>55.2</ele>
        <time>2023-04-21T12:33:35Z</time>
      </trkpt>
      <trkpt lat="49.0628" lon="-0.46295">
        <ele>55.6</ele>
        <time>2023-04-21T12:33:36Z</time>
      </trkpt>
      <trkpt lat="49.06284" lon="-0.46291">
        <ele>56</ele>
        <time>2023-04-21T12:33:37Z</time>
      </trkpt>
      <trkpt lat="49.06287" lon="-0.46287">
        <ele>56.2</ele>
        <time>2023-04-21T12:33:38Z</time>
      </trkpt>
      <trkpt lat="49.06291" lon="-0.46283">
        <ele>56.8</ele>
        <time>2023-04-21T12:33:39Z</time>
      </trkpt>
      <trkpt lat="49.06294" lon="-0.46279">
        <ele>57</ele>
        <time>2023-04-21T12:33:40Z</time>
      </trkpt>
      <trkpt lat="49.06298" lon="-0.46275">
        <ele>57.6</ele>
        <time>2023-04-21T12:33:41Z</time>
      </trkpt>
      <trkpt lat="49.06302" lon="-0.46271">
        <ele>58</ele>
        <time>2023-04-21T12:33:42Z</time>
      </trkpt>
      <trkpt lat="49.06305" lon="-0.46267">
        <ele>58.6</ele>
        <time>2023-04-21T12:33:43Z</time>
      </trkpt>
      <trkpt lat="49.06309" lon="-0.46263">
        <ele>59</ele>
        <time>2023-04-21T12:33:44Z</time>
      </trkpt>
      <trkpt lat="49.06313" lon="-0.46259">
        <ele>59.4</ele>
        <time>2023-04-21T12:33:45Z</time>
      </trkpt>
      <trkpt lat="49.06316" lon="-0.46255">
        <ele>60</ele>
        <time>2023-04-21T12:33:46Z</time>
      </trkpt>
      <trkpt lat="49.0632" lon="-0.46251">
        <ele>60.2</ele>
        <time>2023-04-21T12:33:47Z</time>
      </trkpt>
      <trkpt lat="49.06323" lon="-0.46248">
        <ele>60.6</ele>
        <time>2023-04-21T12:33:48Z</time>
      </trkpt>
      <trkpt lat="49.06327" lon="-0.46244">
        <ele>60.8</ele>
        <time>2023-04-21T12:33:49Z</time>
      </trkpt>
      <trkpt lat="49.0633" lon="-0.4624">
        <ele>61</ele>
        <time>2023-04-21T12:33:50Z</time>
      </trkpt>
      <trkpt lat="49.06333" lon="-0.46236">
        <ele>61</ele>
        <time>2023-04-21T12:33:51Z</time>
      </trkpt>
      <trkpt lat="49.06336" lon="-0.46232">
        <ele>61</ele>
        <time>2023-04-21T12:33:52Z</time>
      </trkpt>
      <trkpt lat="49.06339" lon="-0.46229">
        <ele>61</ele>
        <time>2023-04-21T12:33:53Z</time>
      </trkpt>
      <trkpt lat="49.06342" lon="-0.46226">
        <ele>61</ele>
        <time>2023-04-21T12:33:54Z</time>
      </trkpt>
      <trkpt lat="49.06346" lon="-0.46222">
        <ele>61.2</ele>
        <time>2023-04-21T12:33:55Z</time>
      </trkpt>
      <trkpt lat="49.06349" lon="-0.46219">
        <ele>61.2</ele>
        <time>2023-04-21T12:33:56Z</time>
      </trkpt>
      <trkpt lat="49.06352" lon="-0.46216">
        <ele>61.6</ele>
        <time>2023-04-21T12:33:57Z</time>
      </trkpt>
      <trkpt lat="49.06356" lon="-0.46214">
        <ele>61.6</ele>
        <time>2023-04-21T12:33:58Z</time>
      </trkpt>
      <trkpt lat="49.0636" lon="-0.46211">
        <ele>62</ele>
        <time>2023-04-21T12:33:59Z</time>
      </trkpt>
      <trkpt lat="49.06363" lon="-0.46208">
        <ele>62.2</ele>
        <time>2023-04-21T12:34:00Z</time>
      </trkpt>
      <trkpt lat="49.06367" lon="-0.46206">
        <ele>62.6</ele>
        <time>2023-04-21T12:34:01Z</time>
      </trkpt>
      <trkpt lat="49.06371" lon="-0.46203">
        <ele>62.8</ele>
        <time>2023-04-21T12:34:02Z</time>
      </trkpt>
      <trkpt lat="49.06375" lon="-0.46201">
        <ele>63.2</ele>
        <time>2023-04-21T12:34:03Z</time>
      </trkpt>
      <trkpt lat="49.0638" lon="-0.46199">
        <ele>63.8</ele>
        <time>2023-04-21T12:34:04Z</time>
      </trkpt>
      <trkpt lat="49.06384" lon="-0.46196">
        <ele>64.2</ele>
        <time>2023-04-21T12:34:05Z</time>
      </trkpt>
      <trkpt lat="49.06389" lon="-0.46194">
        <ele>64.6</ele>
        <time>2023-04-21T12:34:06Z</time>
      </trkpt>
      <trkpt lat="49.06393" lon="-0.46192">
        <ele>65.2</ele>
        <time>2023-04-21T12:34:07Z</time>
      </trkpt>
      <trkpt lat="49.06398" lon="-0.4619">
        <ele>65.8</ele>
        <time>2023-04-21T12:34:08Z</time>
      </trkpt>
      <trkpt lat="49.06402" lon="-0.46187">
        <ele>66.4</ele>
        <time>2023-04-21T12:34:09Z</time>
      </trkpt>
      <trkpt lat="49.06407" lon="-0.46185">
        <ele>67</ele>
        <time>2023-04-21T12:34:10Z</time>
      </trkpt>
      <trkpt lat="49.06411" lon="-0.46183">
        <ele>67.4</ele>
        <time>2023-04-21T12:34:11Z</time>
      </trkpt>
      <trkpt lat="49.06415" lon="-0.46181">
        <ele>68</ele>
        <time>2023-04-21T12:34:12Z</time>
      </trkpt>
      <trkpt lat="49.0642" lon="-0.46179">
        <ele>68.2</ele>
        <time>2023-04-21T12:34:13Z</time>
      </trkpt>
      <trkpt lat="49.06424" lon="-0.46177">
        <ele>68.2</ele>
        <time>2023-04-21T12:34:14Z</time>
      </trkpt>
      <trkpt lat="49.06428" lon="-0.46175">
        <ele>68.4</ele>
        <time>2023-04-21T12:34:15Z</time>
      </trkpt>
      <trkpt lat="49.06432" lon="-0.46173">
        <ele>68.4</ele>
        <time>2023-04-21T12:34:16Z</time>
      </trkpt>
      <trkpt lat="49.06436" lon="-0.46171">
        <ele>68.4</ele>
        <time>2023-04-21T12:34:17Z</time>
      </trkpt>
      <trkpt lat="49.06441" lon="-0.46169">
        <ele>68.4</ele>
        <time>2023-04-21T12:34:18Z</time>
      </trkpt>
      <trkpt lat="49.06445" lon="-0.46167">
        <ele>68.4</ele>
        <time>2023-04-21T12:34:19Z</time>
      </trkpt>
      <trkpt lat="49.06449" lon="-0.46164">
        <ele>68.2</ele>
        <time>2023-04-21T12:34:20Z</time>
      </trkpt>
      <trkpt lat="49.06454" lon="-0.46162">
        <ele>68</ele>
        <time>2023-04-21T12:34:21Z</time>
      </trkpt>
      <trkpt lat="49.06458" lon="-0.4616">
        <ele>68</ele>
        <time>2023-04-21T12:34:22Z</time>
      </trkpt>
      <trkpt lat="49.06463" lon="-0.46158">
        <ele>68</ele>
        <time>2023-04-21T12:34:23Z</time>
      </trkpt>
      <trkpt lat="49.06468" lon="-0.46155">
        <ele>67.8</ele>
        <time>2023-04-21T12:34:24Z</time>
      </trkpt>
      <trkpt lat="49.06472" lon="-0.46153">
        <ele>67.6</ele>
        <time>2023-04-21T12:34:25Z</time>
      </trkpt>
      <trkpt lat="49.06477" lon="-0.4615">
        <ele>67.6</ele>
        <time>2023-04-21T12:34:26Z</time>
      </trkpt>
      <trkpt lat="49.06482" lon="-0.46148">
        <ele>67.6</ele>
        <time>2023-04-21T12:34:27Z</time>
      </trkpt>
      <trkpt lat="49.06487" lon="-0.46145">
        <ele>67.4</ele>
        <time>2023-04-21T12:34:28Z</time>
      </trkpt>
      <trkpt lat="49.06492" lon="-0.46142">
        <ele>67.4</ele>
        <time>2023-04-21T12:34:29Z</time>
      </trkpt>
      <trkpt lat="49.06496" lon="-0.46139">
        <ele>67.2</ele>
        <time>2023-04-21T12:34:30Z</time>
      </trkpt>
      <trkpt lat="49.06501" lon="-0.46136">
        <ele>67</ele>
        <time>2023-04-21T12:34:31Z</time>
      </trkpt>
      <trkpt lat="49.06505" lon="-0.46132">
        <ele>66.6</ele>
        <time>2023-04-21T12:34:32Z</time>
      </trkpt>
      <trkpt lat="49.06509" lon="-0.46128">
        <ele>66</ele>
        <time>2023-04-21T12:34:33Z</time>
      </trkpt>
      <trkpt lat="49.06513" lon="-0.46124">
        <ele>65.6</ele>
        <time>2023-04-21T12:34:34Z</time>
      </trkpt>
      <trkpt lat="49.06517" lon="-0.46119">
        <ele>65</ele>
        <time>2023-04-21T12:34:35Z</time>
      </trkpt>
      <trkpt lat="49.06522" lon="-0.46114">
        <ele>64.4</ele>
        <time>2023-04-21T12:34:36Z</time>
      </trkpt>
      <trkpt lat="49.06526" lon="-0.46109">
        <ele>64</ele>
        <time>2023-04-21T12:34:37Z</time>
      </trkpt>
      <trkpt lat="49.0653" lon="-0.46103">
        <ele>63.6</ele>
        <time>2023-04-21T12:34:38Z</time>
      </trkpt>
      <trkpt lat="49.06534" lon="-0.46098">
        <ele>63</ele>
        <time>2023-04-21T12:34:39Z</time>
      </trkpt>
      <trkpt lat="49.06537" lon="-0.46092">
        <ele>62.6</ele>
        <time>2023-04-21T12:34:40Z</time>
      </trkpt>
      <trkpt lat="49.0654" lon="-0.46085">
        <ele>62</ele>
        <time>2023-04-21T12:34:41Z</time>
      </trkpt>
      <trkpt lat="49.06543" lon="-0.46078">
        <ele>61.8</ele>
        <time>2023-04-21T12:34:42Z</time>
      </trkpt>
      <trkpt lat="49.06546" lon="-0.4607">
        <ele>61.6</ele>
        <time>2023-04-21T12:34:43Z</time>
      </trkpt>
      <trkpt lat="49.06549" lon="-0.46062">
        <ele>61.2</ele>
        <time>2023-04-21T12:34:44Z</time>
      </trkpt>
      <trkpt lat="49.06552" lon="-0.46053">
        <ele>61</ele>
        <time>2023-04-21T12:34:45Z</time>
      </trkpt>
      <trkpt lat="49.06554" lon="-0.46043">
        <ele>60.6</ele>
        <time>2023-04-21T12:34:46Z</time>
      </trkpt>
      <trkpt lat="49.06556" lon="-0.46034">
        <ele>60.2</ele>
        <time>2023-04-21T12:34:47Z</time>
      </trkpt>
      <trkpt lat="49.06557" lon="-0.46024">
        <ele>60</ele>
        <time>2023-04-21T12:34:48Z</time>
      </trkpt>
      <trkpt lat="49.06558" lon="-0.46015">
        <ele>59.6</ele>
        <time>2023-04-21T12:34:49Z</time>
      </trkpt>
      <trkpt lat="49.06559" lon="-0.46005">
        <ele>59.2</ele>
        <time>2023-04-21T12:34:50Z</time>
      </trkpt>
      <trkpt lat="49.0656" lon="-0.45996">
        <ele>59</ele>
        <time>2023-04-21T12:34:51Z</time>
      </trkpt>
      <trkpt lat="49.06561" lon="-0.45986">
        <ele>58.8</ele>
        <time>2023-04-21T12:34:52Z</time>
      </trkpt>
      <trkpt lat="49.06562" lon="-0.45977">
        <ele>58.4</ele>
        <time>2023-04-21T12:34:53Z</time>
      </trkpt>
      <trkpt lat="49.06563" lon="-0.45967">
        <ele>58</ele>
        <time>2023-04-21T12:34:54Z</time>
      </trkpt>
      <trkpt lat="49.06564" lon="-0.45957">
        <ele>58</ele>
        <time>2023-04-21T12:34:55Z</time>
      </trkpt>
      <trkpt lat="49.06564" lon="-0.45948">
        <ele>57.6</ele>
        <time>2023-04-21T12:34:56Z</time>
      </trkpt>
      <trkpt lat="49.06565" lon="-0.45938">
        <ele>57.4</ele>
        <time>2023-04-21T12:34:57Z</time>
      </trkpt>
      <trkpt lat="49.06566" lon="-0.45929">
        <ele>57</ele>
        <time>2023-04-21T12:34:58Z</time>
      </trkpt>
      <trkpt lat="49.06567" lon="-0.45919">
        <ele>57</ele>
        <time>2023-04-21T12:34:59Z</time>
      </trkpt>
      <trkpt lat="49.06567" lon="-0.45909">
        <ele>56.8</ele>
        <time>2023-04-21T12:35:00Z</time>
      </trkpt>
      <trkpt lat="49.06568" lon="-0.45899">
        <ele>56.6</ele>
        <time>2023-04-21T12:35:01Z</time>
      </trkpt>
      <trkpt lat="49.06569" lon="-0.45889">
        <ele>56.4</ele>
        <time>2023-04-21T12:35:02Z</time>
      </trkpt>
      <trkpt lat="49.0657" lon="-0.45879">
        <ele>56.2</ele>
        <time>2023-04-21T12:35:03Z</time>
      </trkpt>
      <trkpt lat="49.06571" lon="-0.45869">
        <ele>56</ele>
        <time>2023-04-21T12:35:04Z</time>
      </trkpt>
      <trkpt lat="49.06572" lon="-0.45859">
        <ele>56</ele>
        <time>2023-04-21T12:35:05Z</time>
      </trkpt>
      <trkpt lat="49.06574" lon="-0.4585">
        <ele>55.8</ele>
        <time>2023-04-21T12:35:06Z</time>
      </trkpt>
      <trkpt lat="49.06575" lon="-0.4584">
        <ele>55.8</ele>
        <time>2023-04-21T12:35:07Z</time>
      </trkpt>
      <trkpt lat="49.06577" lon="-0.4583">
        <ele>56</ele>
        <time>2023-04-21T12:35:08Z</time>
      </trkpt>
      <trkpt lat="49.06579" lon="-0.4582">
        <ele>56.2</ele>
        <time>2023-04-21T12:35:09Z</time>
      </trkpt>
      <trkpt lat="49.06581" lon="-0.45811">
        <ele>56.6</ele>
        <time>2023-04-21T12:35:10Z</time>
      </trkpt>
      <trkpt lat="49.06583" lon="-0.45801">
        <ele>57</ele>
        <time>2023-04-21T12:35:11Z</time>
      </trkpt>
      <trkpt lat="49.06586" lon="-0.45792">
        <ele>57.2</ele>
        <time>2023-04-21T12:35:12Z</time>
      </trkpt>
      <trkpt lat="49.06588" lon="-0.45783">
        <ele>57.2</ele>
        <time>2023-04-21T12:35:13Z</time>
      </trkpt>
      <trkpt lat="49.06591" lon="-0.45774">
        <ele>57.4</ele>
        <time>2023-04-21T12:35:14Z</time>
      </trkpt>
      <trkpt lat="49.06594" lon="-0.45765">
        <ele>57.6</ele>
        <time>2023-04-21T12:35:15Z</time>
      </trkpt>
      <trkpt lat="49.06596" lon="-0.45756">
        <ele>57.8</ele>
        <time>2023-04-21T12:35:16Z</time>
      </trkpt>
      <trkpt lat="49.06599" lon="-0.45747">
        <ele>57.8</ele>
        <time>2023-04-21T12:35:17Z</time>
      </trkpt>
      <trkpt lat="49.06602" lon="-0.45739">
        <ele>57.8</ele>
        <time>2023-04-21T12:35:18Z</time>
      </trkpt>
      <trkpt lat="49.06605" lon="-0.4573">
        <ele>57.8</ele>
        <time>2023-04-21T12:35:19Z</time>
      </trkpt>
      <trkpt lat="49.06608" lon="-0.45721">
        <ele>57.8</ele>
        <time>2023-04-21T12:35:20Z</time>
      </trkpt>
      <trkpt lat="49.06611" lon="-0.45712">
        <ele>57.8</ele>
        <time>2023-04-21T12:35:21Z</time>
      </trkpt>
      <trkpt lat="49.06614" lon="-0.45703">
        <ele>57.8</ele>
        <time>2023-04-21T12:35:22Z</time>
      </trkpt>
      <trkpt lat="49.06617" lon="-0.45694">
        <ele>57.8</ele>
        <time>2023-04-21T12:35:23Z</time>
      </trkpt>
      <trkpt lat="49.0662" lon="-0.45685">
        <ele>57.6</ele>
        <time>2023-04-21T12:35:24Z</time>
      </trkpt>
      <trkpt lat="49.06623" lon="-0.45676">
        <ele>57.6</ele>
        <time>2023-04-21T12:35:25Z</time>
      </trkpt>
      <trkpt lat="49.06627" lon="-0.45666">
        <ele>57.6</ele>
        <time>2023-04-21T12:35:26Z</time>
      </trkpt>
      <trkpt lat="49.0663" lon="-0.45657">
        <ele>57.2</ele>
        <time>2023-04-21T12:35:27Z</time>
      </trkpt>
      <trkpt lat="49.06633" lon="-0.45647">
        <ele>56.8</ele>
        <time>2023-04-21T12:35:28Z</time>
      </trkpt>
      <trkpt lat="49.06637" lon="-0.45637">
        <ele>56.4</ele>
        <time>2023-04-21T12:35:29Z</time>
      </trkpt>
      <trkpt lat="49.0664" lon="-0.45626">
        <ele>56</ele>
        <time>2023-04-21T12:35:30Z</time>
      </trkpt>
      <trkpt lat="49.06644" lon="-0.45615">
        <ele>55.4</ele>
        <time>2023-04-21T12:35:31Z</time>
      </trkpt>
      <trkpt lat="49.06648" lon="-0.45605">
        <ele>55</ele>
        <time>2023-04-21T12:35:32Z</time>
      </trkpt>
      <trkpt lat="49.06652" lon="-0.45593">
        <ele>54.4</ele>
        <time>2023-04-21T12:35:33Z</time>
      </trkpt>
      <trkpt lat="49.06656" lon="-0.45582">
        <ele>53.8</ele>
        <time>2023-04-21T12:35:34Z</time>
      </trkpt>
      <trkpt lat="49.0666" lon="-0.4557">
        <ele>53.2</ele>
        <time>2023-04-21T12:35:35Z</time>
      </trkpt>
      <trkpt lat="49.06665" lon="-0.45559">
        <ele>52.8</ele>
        <time>2023-04-21T12:35:36Z</time>
      </trkpt>
      <trkpt lat="49.0667" lon="-0.45549">
        <ele>52</ele>
        <time>2023-04-21T12:35:37Z</time>
      </trkpt>
      <trkpt lat="49.06677" lon="-0.45541">
        <ele>51.2</ele>
        <time>2023-04-21T12:35:38Z</time>
      </trkpt>
      <trkpt lat="49.06685" lon="-0.45535">
        <ele>50.6</ele>
        <time>2023-04-21T12:35:39Z</time>
      </trkpt>
      <trkpt lat="49.06694" lon="-0.45532">
        <ele>49.8</ele>
        <time>2023-04-21T12:35:40Z</time>
      </trkpt>
      <trkpt lat="49.06704" lon="-0.45531">
        <ele>49</ele>
        <time>2023-04-21T12:35:41Z</time>
      </trkpt>
      <trkpt lat="49.06714" lon="-0.45532">
        <ele>48.6</ele>
        <time>2023-04-21T12:35:42Z</time>
      </trkpt>
      <trkpt lat="49.06724" lon="-0.45535">
        <ele>48</ele>
        <time>2023-04-21T12:35:43Z</time>
      </trkpt>
      <trkpt lat="49.06733" lon="-0.45539">
        <ele>47.8</ele>
        <time>2023-04-21T12:35:44Z</time>
      </trkpt>
      <trkpt lat="49.06742" lon="-0.4554">
        <ele>47.2</ele>
        <time>2023-04-21T12:35:45Z</time>
      </trkpt>
      <trkpt lat="49.06751" lon="-0.45539">
        <ele>46.8</ele>
        <time>2023-04-21T12:35:46Z</time>
      </trkpt>
      <trkpt lat="49.06759" lon="-0.45533">
        <ele>46.8</ele>
        <time>2023-04-21T12:35:47Z</time>
      </trkpt>
      <trkpt lat="49.06767" lon="-0.45523">
        <ele>46.8</ele>
        <time>2023-04-21T12:35:48Z</time>
      </trkpt>
      <trkpt lat="49.06773" lon="-0.45511">
        <ele>46.4</ele>
        <time>2023-04-21T12:35:49Z</time>
      </trkpt>
      <trkpt lat="49.06778" lon="-0.45497">
        <ele>46.2</ele>
        <time>2023-04-21T12:35:50Z</time>
      </trkpt>
      <trkpt lat="49.0678" lon="-0.45484">
        <ele>46.2</ele>
        <time>2023-04-21T12:35:51Z</time>
      </trkpt>
      <trkpt lat="49.06781" lon="-0.45471">
        <ele>46</ele>
        <time>2023-04-21T12:35:52Z</time>
      </trkpt>
      <trkpt lat="49.0678" lon="-0.45459">
        <ele>45.8</ele>
        <time>2023-04-21T12:35:53Z</time>
      </trkpt>
      <trkpt lat="49.0678" lon="-0.45449">
        <ele>45.4</ele>
        <time>2023-04-21T12:35:54Z</time>
      </trkpt>
      <trkpt lat="49.06779" lon="-0.4544">
        <ele>45</ele>
        <time>2023-04-21T12:35:55Z</time>
      </trkpt>
      <trkpt lat="49.06779" lon="-0.45433">
        <ele>45</ele>
        <time>2023-04-21T12:35:56Z</time>
      </trkpt>
      <trkpt lat="49.06779" lon="-0.45426">
        <ele>44.8</ele>
        <time>2023-04-21T12:35:57Z</time>
      </trkpt>
      <trkpt lat="49.06779" lon="-0.45421">
        <ele>44.6</ele>
        <time>2023-04-21T12:35:58Z</time>
      </trkpt>
      <trkpt lat="49.06779" lon="-0.45415">
        <ele>44.6</ele>
        <time>2023-04-21T12:35:59Z</time>
      </trkpt>
      <trkpt lat="49.0678" lon="-0.4541">
        <ele>44.6</ele>
        <time>2023-04-21T12:36:00Z</time>
      </trkpt>
      <trkpt lat="49.0678" lon="-0.45405">
        <ele>44.6</ele>
        <time>2023-04-21T12:36:01Z</time>
      </trkpt>
      <trkpt lat="49.0678" lon="-0.454">
        <ele>44.6</ele>
        <time>2023-04-21T12:36:02Z</time>
      </trkpt>
      <trkpt lat="49.06781" lon="-0.45395">
        <ele>44.6</ele>
        <time>2023-04-21T12:36:03Z</time>
      </trkpt>
      <trkpt lat="49.06781" lon="-0.45391">
        <ele>44.6</ele>
        <time>2023-04-21T12:36:04Z</time>
      </trkpt>
      <trkpt lat="49.06782" lon="-0.45386">
        <ele>44.6</ele>
        <time>2023-04-21T12:36:05Z</time>
      </trkpt>
      <trkpt lat="49.06783" lon="-0.45382">
        <ele>44.8</ele>
        <time>2023-04-21T12:36:06Z</time>
      </trkpt>
      <trkpt lat="49.06783" lon="-0.45378">
        <ele>44.8</ele>
        <time>2023-04-21T12:36:07Z</time>
      </trkpt>
      <trkpt lat="49.06784" lon="-0.45373">
        <ele>44.8</ele>
        <time>2023-04-21T12:36:08Z</time>
      </trkpt>
      <trkpt lat="49.06785" lon="-0.45369">
        <ele>45</ele>
        <time>2023-04-21T12:36:09Z</time>
      </trkpt>
      <trkpt lat="49.06786" lon="-0.45365">
        <ele>45</ele>
        <time>2023-04-21T12:36:10Z</time>
      </trkpt>
      <trkpt lat="49.06788" lon="-0.45361">
        <ele>45.2</ele>
        <time>2023-04-21T12:36:11Z</time>
      </trkpt>
      <trkpt lat="49.06789" lon="-0.45357">
        <ele>45.6</ele>
        <time>2023-04-21T12:36:12Z</time>
      </trkpt>
      <trkpt lat="49.06791" lon="-0.45353">
        <ele>45.8</ele>
        <time>2023-04-21T12:36:13Z</time>
      </trkpt>
      <trkpt lat="49.06792" lon="-0.45349">
        <ele>46</ele>
        <time>2023-04-21T12:36:14Z</time>
      </trkpt>
      <trkpt lat="49.06794" lon="-0.45345">
        <ele>46.2</ele>
        <time>2023-04-21T12:36:15Z</time>
      </trkpt>
      <trkpt lat="49.06796" lon="-0.45341">
        <ele>46.4</ele>
        <time>2023-04-21T12:36:16Z</time>
      </trkpt>
      <trkpt lat="49.06798" lon="-0.45337">
        <ele>46.8</ele>
        <time>2023-04-21T12:36:17Z</time>
      </trkpt>
      <trkpt lat="49.068" lon="-0.45334">
        <ele>47</ele>
        <time>2023-04-21T12:36:18Z</time>
      </trkpt>
      <trkpt lat="49.06802" lon="-0.4533">
        <ele>47.6</ele>
        <time>2023-04-21T12:36:19Z</time>
      </trkpt>
      <trkpt lat="49.06804" lon="-0.45326">
        <ele>48.2</ele>
        <time>2023-04-21T12:36:20Z</time>
      </trkpt>
      <trkpt lat="49.06806" lon="-0.45323">
        <ele>48.8</ele>
        <time>2023-04-21T12:36:21Z</time>
      </trkpt>
      <trkpt lat="49.06808" lon="-0.4532">
        <ele>49.2</ele>
        <time>2023-04-21T12:36:22Z</time>
      </trkpt>
      <trkpt lat="49.0681" lon="-0.45316">
        <ele>50</ele>
        <time>2023-04-21T12:36:23Z</time>
      </trkpt>
      <trkpt lat="49.06813" lon="-0.45313">
        <ele>50.4</ele>
        <time>2023-04-21T12:36:24Z</time>
      </trkpt>
      <trkpt lat="49.06815" lon="-0.4531">
        <ele>51</ele>
        <time>2023-04-21T12:36:25Z</time>
      </trkpt>
      <trkpt lat="49.06817" lon="-0.45308">
        <ele>51.6</ele>
        <time>2023-04-21T12:36:26Z</time>
      </trkpt>
      <trkpt lat="49.0682" lon="-0.45305">
        <ele>52</ele>
        <time>2023-04-21T12:36:27Z</time>
      </trkpt>
      <trkpt lat="49.06823" lon="-0.45302">
        <ele>52.6</ele>
        <time>2023-04-21T12:36:28Z</time>
      </trkpt>
      <trkpt lat="49.06826" lon="-0.453">
        <ele>53</ele>
        <time>2023-04-21T12:36:29Z</time>
      </trkpt>
      <trkpt lat="49.06829" lon="-0.45298">
        <ele>53.8</ele>
        <time>2023-04-21T12:36:30Z</time>
      </trkpt>
      <trkpt lat="49.06832" lon="-0.45296">
        <ele>54.2</ele>
        <time>2023-04-21T12:36:31Z</time>
      </trkpt>
      <trkpt lat="49.06835" lon="-0.45293">
        <ele>54.6</ele>
        <time>2023-04-21T12:36:32Z</time>
      </trkpt>
      <trkpt lat="49.06838" lon="-0.45291">
        <ele>55</ele>
        <time>2023-04-21T12:36:33Z</time>
      </trkpt>
      <trkpt lat="49.06841" lon="-0.4529">
        <ele>55.2</ele>
        <time>2023-04-21T12:36:34Z</time>
      </trkpt>
      <trkpt lat="49.06843" lon="-0.45288">
        <ele>55.6</ele>
        <time>2023-04-21T12:36:35Z</time>
      </trkpt>
      <trkpt lat="49.06846" lon="-0.45286">
        <ele>55.8</ele>
        <time>2023-04-21T12:36:36Z</time>
      </trkpt>
      <trkpt lat="49.06849" lon="-0.45285">
        <ele>56</ele>
        <time>2023-04-21T12:36:37Z</time>
      </trkpt>
      <trkpt lat="49.06851" lon="-0.45284">
        <ele>56.2</ele>
        <time>2023-04-21T12:36:38Z</time>
      </trkpt>
      <trkpt lat="49.06854" lon="-0.45282">
        <ele>56.6</ele>
        <time>2023-04-21T12:36:39Z</time>
      </trkpt>
      <trkpt lat="49.06856" lon="-0.45281">
        <ele>56.8</ele>
        <time>2023-04-21T12:36:40Z</time>
      </trkpt>
      <trkpt lat="49.06859" lon="-0.4528">
        <ele>57</ele>
        <time>2023-04-21T12:36:41Z</time>
      </trkpt>
      <trkpt lat="49.06862" lon="-0.45278">
        <ele>57</ele>
        <time>2023-04-21T12:36:42Z</time>
      </trkpt>
      <trkpt lat="49.06864" lon="-0.45277">
        <ele>57.4</ele>
        <time>2023-04-21T12:36:43Z</time>
      </trkpt>
      <trkpt lat="49.06867" lon="-0.45276">
        <ele>57.6</ele>
        <time>2023-04-21T12:36:44Z</time>
      </trkpt>
      <trkpt lat="49.0687" lon="-0.45274">
        <ele>57.8</ele>
        <time>2023-04-21T12:36:45Z</time>
      </trkpt>
      <trkpt lat="49.06872" lon="-0.45273">
        <ele>58</ele>
        <time>2023-04-21T12:36:46Z</time>
      </trkpt>
      <trkpt lat="49.06875" lon="-0.45272">
        <ele>58.2</ele>
        <time>2023-04-21T12:36:47Z</time>
      </trkpt>
      <trkpt lat="49.06878" lon="-0.4527">
        <ele>58.4</ele>
        <time>2023-04-21T12:36:48Z</time>
      </trkpt>
      <trkpt lat="49.0688" lon="-0.45269">
        <ele>58.6</ele>
        <time>2023-04-21T12:36:49Z</time>
      </trkpt>
      <trkpt lat="49.06883" lon="-0.45268">
        <ele>58.8</ele>
        <time>2023-04-21T12:36:50Z</time>
      </trkpt>
      <trkpt lat="49.06886" lon="-0.45266">
        <ele>59</ele>
        <time>2023-04-21T12:36:51Z</time>
      </trkpt>
      <trkpt lat="49.06888" lon="-0.45265">
        <ele>59.2</ele>
        <time>2023-04-21T12:36:52Z</time>
      </trkpt>
      <trkpt lat="49.06891" lon="-0.45263">
        <ele>59.4</ele>
        <time>2023-04-21T12:36:53Z</time>
      </trkpt>
      <trkpt lat="49.06894" lon="-0.45262">
        <ele>59.6</ele>
        <time>2023-04-21T12:36:54Z</time>
      </trkpt>
      <trkpt lat="49.06896" lon="-0.4526">
        <ele>59.8</ele>
        <time>2023-04-21T12:36:55Z</time>
      </trkpt>
      <trkpt lat="49.06899" lon="-0.45258">
        <ele>60</ele>
        <time>2023-04-21T12:36:56Z</time>
      </trkpt>
      <trkpt lat="49.06902" lon="-0.45257">
        <ele>60</ele>
        <time>2023-04-21T12:36:57Z</time>
      </trkpt>
      <trkpt lat="49.06904" lon="-0.45255">
        <ele>60.2</ele>
        <time>2023-04-21T12:36:58Z</time>
      </trkpt>
      <trkpt lat="49.06907" lon="-0.45254">
        <ele>60.4</ele>
        <time>2023-04-21T12:36:59Z</time>
      </trkpt>
      <trkpt lat="49.06909" lon="-0.45252">
        <ele>60.6</ele>
        <time>2023-04-21T12:37:00Z</time>
      </trkpt>
      <trkpt lat="49.06912" lon="-0.45251">
        <ele>60.8</ele>
        <time>2023-04-21T12:37:01Z</time>
      </trkpt>
      <trkpt lat="49.06915" lon="-0.45249">
        <ele>61</ele>
        <time>2023-04-21T12:37:02Z</time>
      </trkpt>
      <trkpt lat="49.06917" lon="-0.45248">
        <ele>61</ele>
        <time>2023-04-21T12:37:03Z</time>
      </trkpt>
      <trkpt lat="49.0692" lon="-0.45247">
        <ele>61.4</ele>
        <time>2023-04-21T12:37:04Z</time>
      </trkpt>
      <trkpt lat="49.06923" lon="-0.45245">
        <ele>61.8</ele>
        <time>2023-04-21T12:37:05Z</time>
      </trkpt>
      <trkpt lat="49.06925" lon="-0.45244">
        <ele>62</ele>
        <time>2023-04-21T12:37:06Z</time>
      </trkpt>
      <trkpt lat="49.06928" lon="-0.45242">
        <ele>62.2</ele>
        <time>2023-04-21T12:37:07Z</time>
      </trkpt>
      <trkpt lat="49.06931" lon="-0.45241">
        <ele>62.6</ele>
        <time>2023-04-21T12:37:08Z</time>
      </trkpt>
      <trkpt lat="49.06933" lon="-0.4524">
        <ele>62.8</ele>
        <time>2023-04-21T12:37:09Z</time>
      </trkpt>
      <trkpt lat="49.06936" lon="-0.45238">
        <ele>63</ele>
        <time>2023-04-21T12:37:10Z</time>
      </trkpt>
      <trkpt lat="49.06938" lon="-0.45237">
        <ele>63.2</ele>
        <time>2023-04-21T12:37:11Z</time>
      </trkpt>
      <trkpt lat="49.06941" lon="-0.45236">
        <ele>63.6</ele>
        <time>2023-04-21T12:37:12Z</time>
      </trkpt>
      <trkpt lat="49.06944" lon="-0.45234">
        <ele>64</ele>
        <time>2023-04-21T12:37:13Z</time>
      </trkpt>
      <trkpt lat="49.06946" lon="-0.45233">
        <ele>64</ele>
        <time>2023-04-21T12:37:14Z</time>
      </trkpt>
      <trkpt lat="49.06949" lon="-0.45232">
        <ele>64.4</ele>
        <time>2023-04-21T12:37:15Z</time>
      </trkpt>
      <trkpt lat="49.06952" lon="-0.4523">
        <ele>64.6</ele>
        <time>2023-04-21T12:37:16Z</time>
      </trkpt>
      <trkpt lat="49.06954" lon="-0.45229">
        <ele>65</ele>
        <time>2023-04-21T12:37:17Z</time>
      </trkpt>
      <trkpt lat="49.06957" lon="-0.45227">
        <ele>65</ele>
        <time>2023-04-21T12:37:18Z</time>
      </trkpt>
      <trkpt lat="49.06959" lon="-0.45226">
        <ele>65.4</ele>
        <time>2023-04-21T12:37:19Z</time>
      </trkpt>
      <trkpt lat="49.06962" lon="-0.45224">
        <ele>65.6</ele>
        <time>2023-04-21T12:37:20Z</time>
      </trkpt>
      <trkpt lat="49.06965" lon="-0.45223">
        <ele>66</ele>
        <time>2023-04-21T12:37:21Z</time>
      </trkpt>
      <trkpt lat="49.06967" lon="-0.45221">
        <ele>66</ele>
        <time>2023-04-21T12:37:22Z</time>
      </trkpt>
      <trkpt lat="49.0697" lon="-0.4522">
        <ele>66.4</ele>
        <time>2023-04-21T12:37:23Z</time>
      </trkpt>
      <trkpt lat="49.06972" lon="-0.45219">
        <ele>66.6</ele>
        <time>2023-04-21T12:37:24Z</time>
      </trkpt>
      <trkpt lat="49.06975" lon="-0.45218">
        <ele>66.8</ele>
        <time>2023-04-21T12:37:25Z</time>
      </trkpt>
      <trkpt lat="49.06977" lon="-0.45216">
        <ele>67</ele>
        <time>2023-04-21T12:37:26Z</time>
      </trkpt>
      <trkpt lat="49.0698" lon="-0.45215">
        <ele>67.4</ele>
        <time>2023-04-21T12:37:27Z</time>
      </trkpt>
      <trkpt lat="49.06983" lon="-0.45214">
        <ele>67.6</ele>
        <time>2023-04-21T12:37:28Z</time>
      </trkpt>
      <trkpt lat="49.06985" lon="-0.45212">
        <ele>67.6</ele>
        <time>2023-04-21T12:37:29Z</time>
      </trkpt>
      <trkpt lat="49.06988" lon="-0.45211">
        <ele>68</ele>
        <time>2023-04-21T12:37:30Z</time>
      </trkpt>
      <trkpt lat="49.0699" lon="-0.4521">
        <ele>68.2</ele>
        <time>2023-04-21T12:37:31Z</time>
      </trkpt>
      <trkpt lat="49.06993" lon="-0.45209">
        <ele>68.4</ele>
        <time>2023-04-21T12:37:32Z</time>
      </trkpt>
      <trkpt lat="49.06995" lon="-0.45207">
        <ele>68.6</ele>
        <time>2023-04-21T12:37:33Z</time>
      </trkpt>
      <trkpt lat="49.06997" lon="-0.45206">
        <ele>68.8</ele>
        <time>2023-04-21T12:37:34Z</time>
      </trkpt>
      <trkpt lat="49.07" lon="-0.45205">
        <ele>69</ele>
        <time>2023-04-21T12:37:35Z</time>
      </trkpt>
      <trkpt lat="49.07002" lon="-0.45203">
        <ele>69</ele>
        <time>2023-04-21T12:37:36Z</time>
      </trkpt>
      <trkpt lat="49.07004" lon="-0.45202">
        <ele>69.2</ele>
        <time>2023-04-21T12:37:37Z</time>
      </trkpt>
      <trkpt lat="49.07007" lon="-0.45201">
        <ele>69.4</ele>
        <time>2023-04-21T12:37:38Z</time>
      </trkpt>
      <trkpt lat="49.07009" lon="-0.45199">
        <ele>69.4</ele>
        <time>2023-04-21T12:37:39Z</time>
      </trkpt>
      <trkpt lat="49.07012" lon="-0.45198">
        <ele>69.6</ele>
        <time>2023-04-21T12:37:40Z</time>
      </trkpt>
      <trkpt lat="49.07014" lon="-0.45197">
        <ele>69.6</ele>
        <time>2023-04-21T12:37:41Z</time>
      </trkpt>
      <trkpt lat="49.07017" lon="-0.45195">
        <ele>69.6</ele>
        <time>2023-04-21T12:37:42Z</time>
      </trkpt>
      <trkpt lat="49.07019" lon="-0.45194">
        <ele>69.8</ele>
        <time>2023-04-21T12:37:43Z</time>
      </trkpt>
      <trkpt lat="49.07021" lon="-0.45193">
        <ele>70</ele>
        <time>2023-04-21T12:37:44Z</time>
      </trkpt>
      <trkpt lat="49.07023" lon="-0.45192">
        <ele>70</ele>
        <time>2023-04-21T12:37:45Z</time>
      </trkpt>
      <trkpt lat="49.07026" lon="-0.45192">
        <ele>70</ele>
        <time>2023-04-21T12:37:46Z</time>
      </trkpt>
      <trkpt lat="49.07028" lon="-0.45191">
        <ele>70.2</ele>
        <time>2023-04-21T12:37:47Z</time>
      </trkpt>
      <trkpt lat="49.0703" lon="-0.4519">
        <ele>70.4</ele>
        <time>2023-04-21T12:37:48Z</time>
      </trkpt>
      <trkpt lat="49.07032" lon="-0.45189">
        <ele>70.4</ele>
        <time>2023-04-21T12:37:49Z</time>
      </trkpt>
      <trkpt lat="49.07033" lon="-0.45188">
        <ele>70.6</ele>
        <time>2023-04-21T12:37:50Z</time>
      </trkpt>
      <trkpt lat="49.07035" lon="-0.45186">
        <ele>70.6</ele>
        <time>2023-04-21T12:37:51Z</time>
      </trkpt>
      <trkpt lat="49.07037" lon="-0.45185">
        <ele>70.6</ele>
        <time>2023-04-21T12:37:52Z</time>
      </trkpt>
      <trkpt lat="49.0704" lon="-0.45184">
        <ele>70.8</ele>
        <time>2023-04-21T12:37:53Z</time>
      </trkpt>
      <trkpt lat="49.07042" lon="-0.45182">
        <ele>71</ele>
        <time>2023-04-21T12:37:54Z</time>
      </trkpt>
      <trkpt lat="49.07044" lon="-0.45181">
        <ele>71</ele>
        <time>2023-04-21T12:37:55Z</time>
      </trkpt>
      <trkpt lat="49.07046" lon="-0.4518">
        <ele>71</ele>
        <time>2023-04-21T12:37:56Z</time>
      </trkpt>
      <trkpt lat="49.07048" lon="-0.45179">
        <ele>71.2</ele>
        <time>2023-04-21T12:37:57Z</time>
      </trkpt>
      <trkpt lat="49.0705" lon="-0.45177">
        <ele>71.4</ele>
        <time>2023-04-21T12:37:58Z</time>
      </trkpt>
      <trkpt lat="49.07053" lon="-0.45176">
        <ele>71.6</ele>
        <time>2023-04-21T12:37:59Z</time>
      </trkpt>
      <trkpt lat="49.07055" lon="-0.45175">
        <ele>71.6</ele>
        <time>2023-04-21T12:38:00Z</time>
      </trkpt>
      <trkpt lat="49.07057" lon="-0.45174">
        <ele>71.6</ele>
        <time>2023-04-21T12:38:01Z</time>
      </trkpt>
      <trkpt lat="49.0706" lon="-0.45173">
        <ele>71.8</ele>
        <time>2023-04-21T12:38:02Z</time>
      </trkpt>
      <trkpt lat="49.07062" lon="-0.45172">
        <ele>72</ele>
        <time>2023-04-21T12:38:03Z</time>
      </trkpt>
      <trkpt lat="49.07064" lon="-0.4517">
        <ele>72</ele>
        <time>2023-04-21T12:38:04Z</time>
      </trkpt>
      <trkpt lat="49.07066" lon="-0.45169">
        <ele>72.2</ele>
        <time>2023-04-21T12:38:05Z</time>
      </trkpt>
      <trkpt lat="49.07069" lon="-0.45168">
        <ele>72.4</ele>
        <time>2023-04-21T12:38:06Z</time>
      </trkpt>
      <trkpt lat="49.07071" lon="-0.45167">
        <ele>72.4</ele>
        <time>2023-04-21T12:38:07Z</time>
      </trkpt>
      <trkpt lat="49.07074" lon="-0.45166">
        <ele>72.6</ele>
        <time>2023-04-21T12:38:08Z</time>
      </trkpt>
      <trkpt lat="49.07076" lon="-0.45165">
        <ele>72.6</ele>
        <time>2023-04-21T12:38:09Z</time>
      </trkpt>
      <trkpt lat="49.07078" lon="-0.45164">
        <ele>72.8</ele>
        <time>2023-04-21T12:38:10Z</time>
      </trkpt>
      <trkpt lat="49.07081" lon="-0.45162">
        <ele>73</ele>
        <time>2023-04-21T12:38:11Z</time>
      </trkpt>
      <trkpt lat="49.07083" lon="-0.45161">
        <ele>73</ele>
        <time>2023-04-21T12:38:12Z</time>
      </trkpt>
      <trkpt lat="49.07086" lon="-0.4516">
        <ele>73.2</ele>
        <time>2023-04-21T12:38:13Z</time>
      </trkpt>
      <trkpt lat="49.07088" lon="-0.45159">
        <ele>73.4</ele>
        <time>2023-04-21T12:38:14Z</time>
      </trkpt>
      <trkpt lat="49.0709" lon="-0.45157">
        <ele>73.4</ele>
        <time>2023-04-21T12:38:15Z</time>
      </trkpt>
      <trkpt lat="49.07093" lon="-0.45156">
        <ele>73.6</ele>
        <time>2023-04-21T12:38:16Z</time>
      </trkpt>
      <trkpt lat="49.07095" lon="-0.45155">
        <ele>73.6</ele>
        <time>2023-04-21T12:38:17Z</time>
      </trkpt>
      <trkpt lat="49.07098" lon="-0.45154">
        <ele>73.6</ele>
        <time>2023-04-21T12:38:18Z</time>
      </trkpt>
      <trkpt lat="49.071" lon="-0.45153">
        <ele>73.8</ele>
        <time>2023-04-21T12:38:19Z</time>
      </trkpt>
      <trkpt lat="49.07102" lon="-0.45152">
        <ele>73.8</ele>
        <time>2023-04-21T12:38:20Z</time>
      </trkpt>
      <trkpt lat="49.07104" lon="-0.45151">
        <ele>74</ele>
        <time>2023-04-21T12:38:21Z</time>
      </trkpt>
      <trkpt lat="49.07106" lon="-0.4515">
        <ele>74</ele>
        <time>2023-04-21T12:38:22Z</time>
      </trkpt>
      <trkpt lat="49.07108" lon="-0.4515">
        <ele>74</ele>
        <time>2023-04-21T12:38:23Z</time>
      </trkpt>
      <trkpt lat="49.0711" lon="-0.45149">
        <ele>74.2</ele>
        <time>2023-04-21T12:38:24Z</time>
      </trkpt>
      <trkpt lat="49.07112" lon="-0.45148">
        <ele>74.2</ele>
        <time>2023-04-21T12:38:25Z</time>
      </trkpt>
      <trkpt lat="49.07113" lon="-0.45146">
        <ele>74.4</ele>
        <time>2023-04-21T12:38:26Z</time>
      </trkpt>
      <trkpt lat="49.07114" lon="-0.45145">
        <ele>74.4</ele>
        <time>2023-04-21T12:38:27Z</time>
      </trkpt>
      <trkpt lat="49.07116" lon="-0.45144">
        <ele>74.4</ele>
        <time>2023-04-21T12:38:28Z</time>
      </trkpt>
      <trkpt lat="49.07118" lon="-0.45143">
        <ele>74.6</ele>
        <time>2023-04-21T12:38:29Z</time>
      </trkpt>
      <trkpt lat="49.0712" lon="-0.45142">
        <ele>74.6</ele>
        <time>2023-04-21T12:38:30Z</time>
      </trkpt>
      <trkpt lat="49.07123" lon="-0.45141">
        <ele>74.6</ele>
        <time>2023-04-21T12:38:31Z</time>
      </trkpt>
      <trkpt lat="49.07126" lon="-0.4514">
        <ele>75</ele>
        <time>2023-04-21T12:38:32Z</time>
      </trkpt>
      <trkpt lat="49.07129" lon="-0.45139">
        <ele>75</ele>
        <time>2023-04-21T12:38:33Z</time>
      </trkpt>
      <trkpt lat="49.07132" lon="-0.45138">
        <ele>75</ele>
        <time>2023-04-21T12:38:34Z</time>
      </trkpt>
      <trkpt lat="49.07135" lon="-0.45137">
        <ele>75.2</ele>
        <time>2023-04-21T12:38:35Z</time>
      </trkpt>
      <trkpt lat="49.07138" lon="-0.45137">
        <ele>75.4</ele>
        <time>2023-04-21T12:38:36Z</time>
      </trkpt>
      <trkpt lat="49.0714" lon="-0.45136">
        <ele>75.4</ele>
        <time>2023-04-21T12:38:37Z</time>
      </trkpt>
      <trkpt lat="49.07143" lon="-0.45135">
        <ele>75.6</ele>
        <time>2023-04-21T12:38:38Z</time>
      </trkpt>
      <trkpt lat="49.07146" lon="-0.45134">
        <ele>75.6</ele>
        <time>2023-04-21T12:38:39Z</time>
      </trkpt>
      <trkpt lat="49.07148" lon="-0.45134">
        <ele>75.6</ele>
        <time>2023-04-21T12:38:40Z</time>
      </trkpt>
      <trkpt lat="49.07151" lon="-0.45133">
        <ele>75.8</ele>
        <time>2023-04-21T12:38:41Z</time>
      </trkpt>
      <trkpt lat="49.07154" lon="-0.45132">
        <ele>76</ele>
        <time>2023-04-21T12:38:42Z</time>
      </trkpt>
      <trkpt lat="49.07156" lon="-0.45132">
        <ele>76</ele>
        <time>2023-04-21T12:38:43Z</time>
      </trkpt>
      <trkpt lat="49.07159" lon="-0.45131">
        <ele>76</ele>
        <time>2023-04-21T12:38:44Z</time>
      </trkpt>
      <trkpt lat="49.07162" lon="-0.45131">
        <ele>76.4</ele>
        <time>2023-04-21T12:38:45Z</time>
      </trkpt>
      <trkpt lat="49.07165" lon="-0.4513">
        <ele>76.4</ele>
        <time>2023-04-21T12:38:46Z</time>
      </trkpt>
      <trkpt lat="49.07167" lon="-0.45129">
        <ele>76.6</ele>
        <time>2023-04-21T12:38:47Z</time>
      </trkpt>
      <trkpt lat="49.0717" lon="-0.45129">
        <ele>76.6</ele>
        <time>2023-04-21T12:38:48Z</time>
      </trkpt>
      <trkpt lat="49.07173" lon="-0.45129">
        <ele>76.6</ele>
        <time>2023-04-21T12:38:49Z</time>
      </trkpt>
      <trkpt lat="49.07177" lon="-0.45128">
        <ele>76.8</ele>
        <time>2023-04-21T12:38:50Z</time>
      </trkpt>
      <trkpt lat="49.0718" lon="-0.45128">
        <ele>77</ele>
        <time>2023-04-21T12:38:51Z</time>
      </trkpt>
      <trkpt lat="49.07183" lon="-0.45128">
        <ele>77</ele>
        <time>2023-04-21T12:38:52Z</time>
      </trkpt>
      <trkpt lat="49.07186" lon="-0.45128">
        <ele>77.2</ele>
        <time>2023-04-21T12:38:53Z</time>
      </trkpt>
      <trkpt lat="49.07189" lon="-0.45128">
        <ele>77.4</ele>
        <time>2023-04-21T12:38:54Z</time>
      </trkpt>
      <trkpt lat="49.07193" lon="-0.45128">
        <ele>77.4</ele>
        <time>2023-04-21T12:38:55Z</time>
      </trkpt>
      <trkpt lat="49.07196" lon="-0.45128">
        <ele>77.6</ele>
        <time>2023-04-21T12:38:56Z</time>
      </trkpt>
      <trkpt lat="49.072" lon="-0.45128">
        <ele>77.6</ele>
        <time>2023-04-21T12:38:57Z</time>
      </trkpt>
      <trkpt lat="49.07203" lon="-0.45128">
        <ele>77.8</ele>
        <time>2023-04-21T12:38:58Z</time>
      </trkpt>
      <trkpt lat="49.07207" lon="-0.45128">
        <ele>78</ele>
        <time>2023-04-21T12:38:59Z</time>
      </trkpt>
      <trkpt lat="49.07211" lon="-0.45129">
        <ele>78</ele>
        <time>2023-04-21T12:39:00Z</time>
      </trkpt>
      <trkpt lat="49.07215" lon="-0.45129">
        <ele>78.2</ele>
        <time>2023-04-21T12:39:01Z</time>
      </trkpt>
      <trkpt lat="49.07218" lon="-0.45129">
        <ele>78.4</ele>
        <time>2023-04-21T12:39:02Z</time>
      </trkpt>
      <trkpt lat="49.07222" lon="-0.45129">
        <ele>78.6</ele>
        <time>2023-04-21T12:39:03Z</time>
      </trkpt>
      <trkpt lat="49.07226" lon="-0.4513">
        <ele>78.6</ele>
        <time>2023-04-21T12:39:04Z</time>
      </trkpt>
      <trkpt lat="49.0723" lon="-0.4513">
        <ele>78.8</ele>
        <time>2023-04-21T12:39:05Z</time>
      </trkpt>
      <trkpt lat="49.07233" lon="-0.4513">
        <ele>79</ele>
        <time>2023-04-21T12:39:06Z</time>
      </trkpt>
      <trkpt lat="49.07237" lon="-0.45131">
        <ele>79</ele>
        <time>2023-04-21T12:39:07Z</time>
      </trkpt>
      <trkpt lat="49.07241" lon="-0.45131">
        <ele>79.2</ele>
        <time>2023-04-21T12:39:08Z</time>
      </trkpt>
      <trkpt lat="49.07245" lon="-0.45131">
        <ele>79.4</ele>
        <time>2023-04-21T12:39:09Z</time>
      </trkpt>
      <trkpt lat="49.07249" lon="-0.45131">
        <ele>79.6</ele>
        <time>2023-04-21T12:39:10Z</time>
      </trkpt>
      <trkpt lat="49.07253" lon="-0.45131">
        <ele>79.6</ele>
        <time>2023-04-21T12:39:11Z</time>
      </trkpt>
      <trkpt lat="49.07257" lon="-0.45131">
        <ele>79.6</ele>
        <time>2023-04-21T12:39:12Z</time>
      </trkpt>
      <trkpt lat="49.07262" lon="-0.45131">
        <ele>79.6</ele>
        <time>2023-04-21T12:39:13Z</time>
      </trkpt>
      <trkpt lat="49.07266" lon="-0.45131">
        <ele>79.8</ele>
        <time>2023-04-21T12:39:14Z</time>
      </trkpt>
      <trkpt lat="49.0727" lon="-0.45131">
        <ele>79.8</ele>
        <time>2023-04-21T12:39:15Z</time>
      </trkpt>
      <trkpt lat="49.07274" lon="-0.45131">
        <ele>80</ele>
        <time>2023-04-21T12:39:16Z</time>
      </trkpt>
      <trkpt lat="49.07278" lon="-0.45131">
        <ele>80</ele>
        <time>2023-04-21T12:39:17Z</time>
      </trkpt>
      <trkpt lat="49.07283" lon="-0.4513">
        <ele>80</ele>
        <time>2023-04-21T12:39:18Z</time>
      </trkpt>
      <trkpt lat="49.07287" lon="-0.4513">
        <ele>80</ele>
        <time>2023-04-21T12:39:19Z</time>
      </trkpt>
      <trkpt lat="49.07291" lon="-0.45129">
        <ele>80</ele>
        <time>2023-04-21T12:39:20Z</time>
      </trkpt>
      <trkpt lat="49.07295" lon="-0.45128">
        <ele>80</ele>
        <time>2023-04-21T12:39:21Z</time>
      </trkpt>
      <trkpt lat="49.07299" lon="-0.45127">
        <ele>80</ele>
        <time>2023-04-21T12:39:22Z</time>
      </trkpt>
      <trkpt lat="49.07304" lon="-0.45126">
        <ele>80.2</ele>
        <time>2023-04-21T12:39:23Z</time>
      </trkpt>
      <trkpt lat="49.07308" lon="-0.45124">
        <ele>80.2</ele>
        <time>2023-04-21T12:39:24Z</time>
      </trkpt>
      <trkpt lat="49.07312" lon="-0.45122">
        <ele>80.2</ele>
        <time>2023-04-21T12:39:25Z</time>
      </trkpt>
      <trkpt lat="49.07317" lon="-0.4512">
        <ele>80.2</ele>
        <time>2023-04-21T12:39:26Z</time>
      </trkpt>
      <trkpt lat="49.07321" lon="-0.45118">
        <ele>80.4</ele>
        <time>2023-04-21T12:39:27Z</time>
      </trkpt>
      <trkpt lat="49.07325" lon="-0.45116">
        <ele>80.4</ele>
        <time>2023-04-21T12:39:28Z</time>
      </trkpt>
      <trkpt lat="49.0733" lon="-0.45114">
        <ele>80.4</ele>
        <time>2023-04-21T12:39:29Z</time>
      </trkpt>
      <trkpt lat="49.07334" lon="-0.45112">
        <ele>80.4</ele>
        <time>2023-04-21T12:39:30Z</time>
      </trkpt>
      <trkpt lat="49.07339" lon="-0.45109">
        <ele>80.4</ele>
        <time>2023-04-21T12:39:31Z</time>
      </trkpt>
      <trkpt lat="49.07343" lon="-0.45107">
        <ele>80.4</ele>
        <time>2023-04-21T12:39:32Z</time>
      </trkpt>
      <trkpt lat="49.07348" lon="-0.45105">
        <ele>80.4</ele>
        <time>2023-04-21T12:39:33Z</time>
      </trkpt>
      <trkpt lat="49.07352" lon="-0.45102">
        <ele>80.4</ele>
        <time>2023-04-21T12:39:34Z</time>
      </trkpt>
      <trkpt lat="49.07357" lon="-0.451">
        <ele>80.4</ele>
        <time>2023-04-21T12:39:35Z</time>
      </trkpt>
      <trkpt lat="49.07361" lon="-0.45097">
        <ele>80.4</ele>
        <time>2023-04-21T12:39:36Z</time>
      </trkpt>
      <trkpt lat="49.07366" lon="-0.45095">
        <ele>80.6</ele>
        <time>2023-04-21T12:39:37Z</time>
      </trkpt>
      <trkpt lat="49.0737" lon="-0.45093">
        <ele>80.6</ele>
        <time>2023-04-21T12:39:38Z</time>
      </trkpt>
      <trkpt lat="49.07375" lon="-0.4509">
        <ele>80.6</ele>
        <time>2023-04-21T12:39:39Z</time>
      </trkpt>
      <trkpt lat="49.07379" lon="-0.45088">
        <ele>80.6</ele>
        <time>2023-04-21T12:39:40Z</time>
      </trkpt>
      <trkpt lat="49.07384" lon="-0.45086">
        <ele>80.6</ele>
        <time>2023-04-21T12:39:41Z</time>
      </trkpt>
      <trkpt lat="49.07388" lon="-0.45083">
        <ele>80.6</ele>
        <time>2023-04-21T12:39:42Z</time>
      </trkpt>
      <trkpt lat="49.07393" lon="-0.45081">
        <ele>80.6</ele>
        <time>2023-04-21T12:39:43Z</time>
      </trkpt>
      <trkpt lat="49.07397" lon="-0.45078">
        <ele>80.6</ele>
        <time>2023-04-21T12:39:44Z</time>
      </trkpt>
      <trkpt lat="49.07402" lon="-0.45076">
        <ele>80.6</ele>
        <time>2023-04-21T12:39:45Z</time>
      </trkpt>
      <trkpt lat="49.07406" lon="-0.45073">
        <ele>80.6</ele>
        <time>2023-04-21T12:39:46Z</time>
      </trkpt>
      <trkpt lat="49.07411" lon="-0.45071">
        <ele>80.6</ele>
        <time>2023-04-21T12:39:47Z</time>
      </trkpt>
      <trkpt lat="49.07416" lon="-0.45068">
        <ele>80.6</ele>
        <time>2023-04-21T12:39:48Z</time>
      </trkpt>
      <trkpt lat="49.0742" lon="-0.45066">
        <ele>80.6</ele>
        <time>2023-04-21T12:39:49Z</time>
      </trkpt>
      <trkpt lat="49.07425" lon="-0.45063">
        <ele>80.6</ele>
        <time>2023-04-21T12:39:50Z</time>
      </trkpt>
      <trkpt lat="49.0743" lon="-0.45061">
        <ele>80.6</ele>
        <time>2023-04-21T12:39:51Z</time>
      </trkpt>
      <trkpt lat="49.07434" lon="-0.45058">
        <ele>80.6</ele>
        <time>2023-04-21T12:39:52Z</time>
      </trkpt>
      <trkpt lat="49.07439" lon="-0.45056">
        <ele>80.6</ele>
        <time>2023-04-21T12:39:53Z</time>
      </trkpt>
      <trkpt lat="49.07444" lon="-0.45053">
        <ele>80.6</ele>
        <time>2023-04-21T12:39:54Z</time>
      </trkpt>
      <trkpt lat="49.07448" lon="-0.4505">
        <ele>80.6</ele>
        <time>2023-04-21T12:39:55Z</time>
      </trkpt>
      <trkpt lat="49.07453" lon="-0.45048">
        <ele>80.6</ele>
        <time>2023-04-21T12:39:56Z</time>
      </trkpt>
      <trkpt lat="49.07457" lon="-0.45045">
        <ele>80.6</ele>
        <time>2023-04-21T12:39:57Z</time>
      </trkpt>
      <trkpt lat="49.07462" lon="-0.45043">
        <ele>80.6</ele>
        <time>2023-04-21T12:39:58Z</time>
      </trkpt>
      <trkpt lat="49.07466" lon="-0.4504">
        <ele>80.6</ele>
        <time>2023-04-21T12:39:59Z</time>
      </trkpt>
      <trkpt lat="49.07471" lon="-0.45038">
        <ele>80.6</ele>
        <time>2023-04-21T12:40:00Z</time>
      </trkpt>
      <trkpt lat="49.07475" lon="-0.45035">
        <ele>80.6</ele>
        <time>2023-04-21T12:40:01Z</time>
      </trkpt>
      <trkpt lat="49.0748" lon="-0.45033">
        <ele>80.6</ele>
        <time>2023-04-21T12:40:02Z</time>
      </trkpt>
      <trkpt lat="49.07484" lon="-0.4503">
        <ele>80.8</ele>
        <time>2023-04-21T12:40:03Z</time>
      </trkpt>
      <trkpt lat="49.07489" lon="-0.45027">
        <ele>80.8</ele>
        <time>2023-04-21T12:40:04Z</time>
      </trkpt>
      <trkpt lat="49.07493" lon="-0.45025">
        <ele>81</ele>
        <time>2023-04-21T12:40:05Z</time>
      </trkpt>
      <trkpt lat="49.07498" lon="-0.45022">
        <ele>81</ele>
        <time>2023-04-21T12:40:06Z</time>
      </trkpt>
      <trkpt lat="49.07503" lon="-0.4502">
        <ele>81</ele>
        <time>2023-04-21T12:40:07Z</time>
      </trkpt>
      <trkpt lat="49.07507" lon="-0.45017">
        <ele>81</ele>
        <time>2023-04-21T12:40:08Z</time>
      </trkpt>
      <trkpt lat="49.07512" lon="-0.45014">
        <ele>81</ele>
        <time>2023-04-21T12:40:09Z</time>
      </trkpt>
      <trkpt lat="49.07516" lon="-0.45012">
        <ele>81.2</ele>
        <time>2023-04-21T12:40:10Z</time>
      </trkpt>
      <trkpt lat="49.07521" lon="-0.45009">
        <ele>81.2</ele>
        <time>2023-04-21T12:40:11Z</time>
      </trkpt>
      <trkpt lat="49.07526" lon="-0.45006">
        <ele>81.4</ele>
        <time>2023-04-21T12:40:12Z</time>
      </trkpt>
      <trkpt lat="49.07531" lon="-0.45004">
        <ele>81.4</ele>
        <time>2023-04-21T12:40:13Z</time>
      </trkpt>
      <trkpt lat="49.07535" lon="-0.45001">
        <ele>81.4</ele>
        <time>2023-04-21T12:40:14Z</time>
      </trkpt>
      <trkpt lat="49.0754" lon="-0.44998">
        <ele>81.6</ele>
        <time>2023-04-21T12:40:15Z</time>
      </trkpt>
      <trkpt lat="49.07545" lon="-0.44995">
        <ele>81.6</ele>
        <time>2023-04-21T12:40:16Z</time>
      </trkpt>
      <trkpt lat="49.0755" lon="-0.44993">
        <ele>81.8</ele>
        <time>2023-04-21T12:40:17Z</time>
      </trkpt>
      <trkpt lat="49.07555" lon="-0.4499">
        <ele>82</ele>
        <time>2023-04-21T12:40:18Z</time>
      </trkpt>
      <trkpt lat="49.0756" lon="-0.44987">
        <ele>82</ele>
        <time>2023-04-21T12:40:19Z</time>
      </trkpt>
      <trkpt lat="49.07565" lon="-0.44985">
        <ele>82</ele>
        <time>2023-04-21T12:40:20Z</time>
      </trkpt>
      <trkpt lat="49.0757" lon="-0.44982">
        <ele>82.4</ele>
        <time>2023-04-21T12:40:21Z</time>
      </trkpt>
      <trkpt lat="49.07575" lon="-0.4498">
        <ele>82.4</ele>
        <time>2023-04-21T12:40:22Z</time>
      </trkpt>
      <trkpt lat="49.0758" lon="-0.44978">
        <ele>82.6</ele>
        <time>2023-04-21T12:40:23Z</time>
      </trkpt>
      <trkpt lat="49.07585" lon="-0.44975">
        <ele>82.6</ele>
        <time>2023-04-21T12:40:24Z</time>
      </trkpt>
      <trkpt lat="49.0759" lon="-0.44973">
        <ele>82.6</ele>
        <time>2023-04-21T12:40:25Z</time>
      </trkpt>
      <trkpt lat="49.07595" lon="-0.4497">
        <ele>82.4</ele>
        <time>2023-04-21T12:40:26Z</time>
      </trkpt>
      <trkpt lat="49.07601" lon="-0.44968">
        <ele>82.4</ele>
        <time>2023-04-21T12:40:27Z</time>
      </trkpt>
      <trkpt lat="49.07606" lon="-0.44966">
        <ele>82.2</ele>
        <time>2023-04-21T12:40:28Z</time>
      </trkpt>
      <trkpt lat="49.07612" lon="-0.44964">
        <ele>82</ele>
        <time>2023-04-21T12:40:29Z</time>
      </trkpt>
      <trkpt lat="49.07617" lon="-0.44961">
        <ele>82</ele>
        <time>2023-04-21T12:40:30Z</time>
      </trkpt>
      <trkpt lat="49.07623" lon="-0.44959">
        <ele>81.8</ele>
        <time>2023-04-21T12:40:31Z</time>
      </trkpt>
      <trkpt lat="49.07629" lon="-0.44957">
        <ele>81.6</ele>
        <time>2023-04-21T12:40:32Z</time>
      </trkpt>
      <trkpt lat="49.07634" lon="-0.44954">
        <ele>81.6</ele>
        <time>2023-04-21T12:40:33Z</time>
      </trkpt>
      <trkpt lat="49.0764" lon="-0.44952">
        <ele>81.4</ele>
        <time>2023-04-21T12:40:34Z</time>
      </trkpt>
      <trkpt lat="49.07646" lon="-0.44949">
        <ele>81</ele>
        <time>2023-04-21T12:40:35Z</time>
      </trkpt>
      <trkpt lat="49.07653" lon="-0.44947">
        <ele>81</ele>
        <time>2023-04-21T12:40:36Z</time>
      </trkpt>
      <trkpt lat="49.07659" lon="-0.44945">
        <ele>80.6</ele>
        <time>2023-04-21T12:40:37Z</time>
      </trkpt>
      <trkpt lat="49.07665" lon="-0.44942">
        <ele>80.4</ele>
        <time>2023-04-21T12:40:38Z</time>
      </trkpt>
      <trkpt lat="49.07671" lon="-0.44939">
        <ele>80</ele>
        <time>2023-04-21T12:40:39Z</time>
      </trkpt>
      <trkpt lat="49.07677" lon="-0.44937">
        <ele>80</ele>
        <time>2023-04-21T12:40:40Z</time>
      </trkpt>
      <trkpt lat="49.07684" lon="-0.44934">
        <ele>79.6</ele>
        <time>2023-04-21T12:40:41Z</time>
      </trkpt>
      <trkpt lat="49.0769" lon="-0.44932">
        <ele>79.4</ele>
        <time>2023-04-21T12:40:42Z</time>
      </trkpt>
      <trkpt lat="49.07697" lon="-0.44929">
        <ele>79</ele>
        <time>2023-04-21T12:40:43Z</time>
      </trkpt>
      <trkpt lat="49.07703" lon="-0.44926">
        <ele>79</ele>
        <time>2023-04-21T12:40:44Z</time>
      </trkpt>
      <trkpt lat="49.0771" lon="-0.44924">
        <ele>78.6</ele>
        <time>2023-04-21T12:40:45Z</time>
      </trkpt>
      <trkpt lat="49.07716" lon="-0.44921">
        <ele>78.4</ele>
        <time>2023-04-21T12:40:46Z</time>
      </trkpt>
      <trkpt lat="49.07723" lon="-0.44919">
        <ele>78</ele>
        <time>2023-04-21T12:40:47Z</time>
      </trkpt>
      <trkpt lat="49.0773" lon="-0.44917">
        <ele>77.6</ele>
        <time>2023-04-21T12:40:48Z</time>
      </trkpt>
      <trkpt lat="49.07737" lon="-0.44915">
        <ele>77.6</ele>
        <time>2023-04-21T12:40:49Z</time>
      </trkpt>
      <trkpt lat="49.07744" lon="-0.44914">
        <ele>77.2</ele>
        <time>2023-04-21T12:40:50Z</time>
      </trkpt>
      <trkpt lat="49.07752" lon="-0.44913">
        <ele>77</ele>
        <time>2023-04-21T12:40:51Z</time>
      </trkpt>
      <trkpt lat="49.07759" lon="-0.44913">
        <ele>76.6</ele>
        <time>2023-04-21T12:40:52Z</time>
      </trkpt>
      <trkpt lat="49.07768" lon="-0.44912">
        <ele>76</ele>
        <time>2023-04-21T12:40:53Z</time>
      </trkpt>
      <trkpt lat="49.07776" lon="-0.44911">
        <ele>75.6</ele>
        <time>2023-04-21T12:40:54Z</time>
      </trkpt>
      <trkpt lat="49.07784" lon="-0.44909">
        <ele>75.4</ele>
        <time>2023-04-21T12:40:55Z</time>
      </trkpt>
      <trkpt lat="49.07793" lon="-0.44907">
        <ele>75</ele>
        <time>2023-04-21T12:40:56Z</time>
      </trkpt>
      <trkpt lat="49.07801" lon="-0.44903">
        <ele>74.6</ele>
        <time>2023-04-21T12:40:57Z</time>
      </trkpt>
      <trkpt lat="49.0781" lon="-0.44899">
        <ele>74</ele>
        <time>2023-04-21T12:40:58Z</time>
      </trkpt>
      <trkpt lat="49.07818" lon="-0.44893">
        <ele>73.6</ele>
        <time>2023-04-21T12:40:59Z</time>
      </trkpt>
      <trkpt lat="49.07827" lon="-0.44886">
        <ele>73.4</ele>
        <time>2023-04-21T12:41:00Z</time>
      </trkpt>
      <trkpt lat="49.07835" lon="-0.44878">
        <ele>73</ele>
        <time>2023-04-21T12:41:01Z</time>
      </trkpt>
      <trkpt lat="49.07843" lon="-0.44871">
        <ele>72.6</ele>
        <time>2023-04-21T12:41:02Z</time>
      </trkpt>
      <trkpt lat="49.07851" lon="-0.44862">
        <ele>72.4</ele>
        <time>2023-04-21T12:41:03Z</time>
      </trkpt>
      <trkpt lat="49.0786" lon="-0.44853">
        <ele>72</ele>
        <time>2023-04-21T12:41:04Z</time>
      </trkpt>
      <trkpt lat="49.07867" lon="-0.44844">
        <ele>71.8</ele>
        <time>2023-04-21T12:41:05Z</time>
      </trkpt>
      <trkpt lat="49.07875" lon="-0.44834">
        <ele>71.6</ele>
        <time>2023-04-21T12:41:06Z</time>
      </trkpt>
      <trkpt lat="49.07883" lon="-0.44825">
        <ele>71</ele>
        <time>2023-04-21T12:41:07Z</time>
      </trkpt>
      <trkpt lat="49.07891" lon="-0.44815">
        <ele>70.8</ele>
        <time>2023-04-21T12:41:08Z</time>
      </trkpt>
      <trkpt lat="49.07898" lon="-0.44805">
        <ele>70.4</ele>
        <time>2023-04-21T12:41:09Z</time>
      </trkpt>
      <trkpt lat="49.07906" lon="-0.44796">
        <ele>70</ele>
        <time>2023-04-21T12:41:10Z</time>
      </trkpt>
      <trkpt lat="49.07913" lon="-0.44786">
        <ele>69.6</ele>
        <time>2023-04-21T12:41:11Z</time>
      </trkpt>
      <trkpt lat="49.07921" lon="-0.44776">
        <ele>69.2</ele>
        <time>2023-04-21T12:41:12Z</time>
      </trkpt>
      <trkpt lat="49.07928" lon="-0.44766">
        <ele>68.8</ele>
        <time>2023-04-21T12:41:13Z</time>
      </trkpt>
      <trkpt lat="49.07935" lon="-0.44757">
        <ele>68.4</ele>
        <time>2023-04-21T12:41:14Z</time>
      </trkpt>
      <trkpt lat="49.07942" lon="-0.44747">
        <ele>68</ele>
        <time>2023-04-21T12:41:15Z</time>
      </trkpt>
      <trkpt lat="49.0795" lon="-0.44737">
        <ele>67.6</ele>
        <time>2023-04-21T12:41:16Z</time>
      </trkpt>
      <trkpt lat="49.07957" lon="-0.44727">
        <ele>67.4</ele>
        <time>2023-04-21T12:41:17Z</time>
      </trkpt>
      <trkpt lat="49.07964" lon="-0.44718">
        <ele>67</ele>
        <time>2023-04-21T12:41:18Z</time>
      </trkpt>
      <trkpt lat="49.07971" lon="-0.44708">
        <ele>66.6</ele>
        <time>2023-04-21T12:41:19Z</time>
      </trkpt>
      <trkpt lat="49.07978" lon="-0.44698">
        <ele>66.2</ele>
        <time>2023-04-21T12:41:20Z</time>
      </trkpt>
      <trkpt lat="49.07986" lon="-0.44688">
        <ele>65.8</ele>
        <time>2023-04-21T12:41:21Z</time>
      </trkpt>
      <trkpt lat="49.07993" lon="-0.44679">
        <ele>65.4</ele>
        <time>2023-04-21T12:41:22Z</time>
      </trkpt>
      <trkpt lat="49.08001" lon="-0.44671">
        <ele>65</ele>
        <time>2023-04-21T12:41:23Z</time>
      </trkpt>
      <trkpt lat="49.08009" lon="-0.44664">
        <ele>64.8</ele>
        <time>2023-04-21T12:41:24Z</time>
      </trkpt>
      <trkpt lat="49.08018" lon="-0.44657">
        <ele>64.6</ele>
        <time>2023-04-21T12:41:25Z</time>
      </trkpt>
      <trkpt lat="49.08026" lon="-0.44652">
        <ele>64.4</ele>
        <time>2023-04-21T12:41:26Z</time>
      </trkpt>
      <trkpt lat="49.08035" lon="-0.44646">
        <ele>64.2</ele>
        <time>2023-04-21T12:41:27Z</time>
      </trkpt>
      <trkpt lat="49.08043" lon="-0.44642">
        <ele>64</ele>
        <time>2023-04-21T12:41:28Z</time>
      </trkpt>
      <trkpt lat="49.08051" lon="-0.44638">
        <ele>64</ele>
        <time>2023-04-21T12:41:29Z</time>
      </trkpt>
      <trkpt lat="49.0806" lon="-0.44634">
        <ele>63.8</ele>
        <time>2023-04-21T12:41:30Z</time>
      </trkpt>
      <trkpt lat="49.08068" lon="-0.4463">
        <ele>63.8</ele>
        <time>2023-04-21T12:41:31Z</time>
      </trkpt>
      <trkpt lat="49.08076" lon="-0.44627">
        <ele>63.6</ele>
        <time>2023-04-21T12:41:32Z</time>
      </trkpt>
      <trkpt lat="49.08084" lon="-0.44624">
        <ele>63.6</ele>
        <time>2023-04-21T12:41:33Z</time>
      </trkpt>
      <trkpt lat="49.08091" lon="-0.44621">
        <ele>63.8</ele>
        <time>2023-04-21T12:41:34Z</time>
      </trkpt>
      <trkpt lat="49.08099" lon="-0.44618">
        <ele>64</ele>
        <time>2023-04-21T12:41:35Z</time>
      </trkpt>
      <trkpt lat="49.08106" lon="-0.44615">
        <ele>64.2</ele>
        <time>2023-04-21T12:41:36Z</time>
      </trkpt>
      <trkpt lat="49.08114" lon="-0.44613">
        <ele>64.4</ele>
        <time>2023-04-21T12:41:37Z</time>
      </trkpt>
      <trkpt lat="49.08121" lon="-0.4461">
        <ele>64.6</ele>
        <time>2023-04-21T12:41:38Z</time>
      </trkpt>
      <trkpt lat="49.08127" lon="-0.44608">
        <ele>65</ele>
        <time>2023-04-21T12:41:39Z</time>
      </trkpt>
      <trkpt lat="49.08134" lon="-0.44606">
        <ele>65</ele>
        <time>2023-04-21T12:41:40Z</time>
      </trkpt>
      <trkpt lat="49.0814" lon="-0.44604">
        <ele>65.4</ele>
        <time>2023-04-21T12:41:41Z</time>
      </trkpt>
      <trkpt lat="49.08147" lon="-0.44602">
        <ele>65.6</ele>
        <time>2023-04-21T12:41:42Z</time>
      </trkpt>
      <trkpt lat="49.08153" lon="-0.446">
        <ele>65.6</ele>
        <time>2023-04-21T12:41:43Z</time>
      </trkpt>
      <trkpt lat="49.08159" lon="-0.44599">
        <ele>66</ele>
        <time>2023-04-21T12:41:44Z</time>
      </trkpt>
      <trkpt lat="49.08165" lon="-0.44598">
        <ele>66</ele>
        <time>2023-04-21T12:41:45Z</time>
      </trkpt>
      <trkpt lat="49.08171" lon="-0.44597">
        <ele>66.4</ele>
        <time>2023-04-21T12:41:46Z</time>
      </trkpt>
      <trkpt lat="49.08177" lon="-0.44596">
        <ele>66.6</ele>
        <time>2023-04-21T12:41:47Z</time>
      </trkpt>
      <trkpt lat="49.08183" lon="-0.44595">
        <ele>66.8</ele>
        <time>2023-04-21T12:41:48Z</time>
      </trkpt>
      <trkpt lat="49.08189" lon="-0.44595">
        <ele>67</ele>
        <time>2023-04-21T12:41:49Z</time>
      </trkpt>
      <trkpt lat="49.08194" lon="-0.44594">
        <ele>67.2</ele>
        <time>2023-04-21T12:41:50Z</time>
      </trkpt>
      <trkpt lat="49.082" lon="-0.44593">
        <ele>67.4</ele>
        <time>2023-04-21T12:41:51Z</time>
      </trkpt>
      <trkpt lat="49.08205" lon="-0.44593">
        <ele>67.6</ele>
        <time>2023-04-21T12:41:52Z</time>
      </trkpt>
      <trkpt lat="49.08211" lon="-0.44592">
        <ele>67.6</ele>
        <time>2023-04-21T12:41:53Z</time>
      </trkpt>
      <trkpt lat="49.08216" lon="-0.44592">
        <ele>68</ele>
        <time>2023-04-21T12:41:54Z</time>
      </trkpt>
      <trkpt lat="49.08221" lon="-0.44591">
        <ele>68</ele>
        <time>2023-04-21T12:41:55Z</time>
      </trkpt>
      <trkpt lat="49.08227" lon="-0.44591">
        <ele>68.4</ele>
        <time>2023-04-21T12:41:56Z</time>
      </trkpt>
      <trkpt lat="49.08232" lon="-0.4459">
        <ele>68.6</ele>
        <time>2023-04-21T12:41:57Z</time>
      </trkpt>
      <trkpt lat="49.08237" lon="-0.4459">
        <ele>68.6</ele>
        <time>2023-04-21T12:41:58Z</time>
      </trkpt>
      <trkpt lat="49.08242" lon="-0.4459">
        <ele>69</ele>
        <time>2023-04-21T12:41:59Z</time>
      </trkpt>
      <trkpt lat="49.08247" lon="-0.4459">
        <ele>69</ele>
        <time>2023-04-21T12:42:00Z</time>
      </trkpt>
      <trkpt lat="49.08252" lon="-0.44589">
        <ele>69.2</ele>
        <time>2023-04-21T12:42:01Z</time>
      </trkpt>
      <trkpt lat="49.08257" lon="-0.44589">
        <ele>69.2</ele>
        <time>2023-04-21T12:42:02Z</time>
      </trkpt>
      <trkpt lat="49.08261" lon="-0.44589">
        <ele>69.4</ele>
        <time>2023-04-21T12:42:03Z</time>
      </trkpt>
      <trkpt lat="49.08266" lon="-0.44589">
        <ele>69.4</ele>
        <time>2023-04-21T12:42:04Z</time>
      </trkpt>
      <trkpt lat="49.08271" lon="-0.44589">
        <ele>69.4</ele>
        <time>2023-04-21T12:42:05Z</time>
      </trkpt>
      <trkpt lat="49.08275" lon="-0.44589">
        <ele>69.6</ele>
        <time>2023-04-21T12:42:06Z</time>
      </trkpt>
      <trkpt lat="49.0828" lon="-0.44589">
        <ele>69.6</ele>
        <time>2023-04-21T12:42:07Z</time>
      </trkpt>
      <trkpt lat="49.08284" lon="-0.44589">
        <ele>69.6</ele>
        <time>2023-04-21T12:42:08Z</time>
      </trkpt>
      <trkpt lat="49.08288" lon="-0.44589">
        <ele>69.6</ele>
        <time>2023-04-21T12:42:09Z</time>
      </trkpt>
      <trkpt lat="49.08293" lon="-0.44588">
        <ele>69.6</ele>
        <time>2023-04-21T12:42:10Z</time>
      </trkpt>
      <trkpt lat="49.08297" lon="-0.44588">
        <ele>69.6</ele>
        <time>2023-04-21T12:42:11Z</time>
      </trkpt>
      <trkpt lat="49.08302" lon="-0.44588">
        <ele>69.8</ele>
        <time>2023-04-21T12:42:12Z</time>
      </trkpt>
      <trkpt lat="49.08306" lon="-0.44587">
        <ele>69.8</ele>
        <time>2023-04-21T12:42:13Z</time>
      </trkpt>
      <trkpt lat="49.0831" lon="-0.44587">
        <ele>69.8</ele>
        <time>2023-04-21T12:42:14Z</time>
      </trkpt>
      <trkpt lat="49.08315" lon="-0.44587">
        <ele>70</ele>
        <time>2023-04-21T12:42:15Z</time>
      </trkpt>
      <trkpt lat="49.08319" lon="-0.44586">
        <ele>70</ele>
        <time>2023-04-21T12:42:16Z</time>
      </trkpt>
      <trkpt lat="49.08323" lon="-0.44586">
        <ele>70</ele>
        <time>2023-04-21T12:42:17Z</time>
      </trkpt>
      <trkpt lat="49.08327" lon="-0.44585">
        <ele>70</ele>
        <time>2023-04-21T12:42:18Z</time>
      </trkpt>
      <trkpt lat="49.08332" lon="-0.44585">
        <ele>70</ele>
        <time>2023-04-21T12:42:19Z</time>
      </trkpt>
      <trkpt lat="49.08336" lon="-0.44585">
        <ele>70</ele>
        <time>2023-04-21T12:42:20Z</time>
      </trkpt>
      <trkpt lat="49.0834" lon="-0.44584">
        <ele>70.4</ele>
        <time>2023-04-21T12:42:21Z</time>
      </trkpt>
      <trkpt lat="49.08344" lon="-0.44584">
        <ele>70.4</ele>
        <time>2023-04-21T12:42:22Z</time>
      </trkpt>
      <trkpt lat="49.08349" lon="-0.44584">
        <ele>70.6</ele>
        <time>2023-04-21T12:42:23Z</time>
      </trkpt>
      <trkpt lat="49.08353" lon="-0.44584">
        <ele>70.6</ele>
        <time>2023-04-21T12:42:24Z</time>
      </trkpt>
      <trkpt lat="49.08357" lon="-0.44583">
        <ele>71</ele>
        <time>2023-04-21T12:42:25Z</time>
      </trkpt>
      <trkpt lat="49.08361" lon="-0.44583">
        <ele>71</ele>
        <time>2023-04-21T12:42:26Z</time>
      </trkpt>
      <trkpt lat="49.08365" lon="-0.44583">
        <ele>71</ele>
        <time>2023-04-21T12:42:27Z</time>
      </trkpt>
      <trkpt lat="49.0837" lon="-0.44583">
        <ele>71.4</ele>
        <time>2023-04-21T12:42:28Z</time>
      </trkpt>
      <trkpt lat="49.08374" lon="-0.44582">
        <ele>71.4</ele>
        <time>2023-04-21T12:42:29Z</time>
      </trkpt>
      <trkpt lat="49.08378" lon="-0.44582">
        <ele>71.6</ele>
        <time>2023-04-21T12:42:30Z</time>
      </trkpt>
      <trkpt lat="49.08382" lon="-0.44582">
        <ele>71.6</ele>
        <time>2023-04-21T12:42:31Z</time>
      </trkpt>
      <trkpt lat="49.08386" lon="-0.44582">
        <ele>72</ele>
        <time>2023-04-21T12:42:32Z</time>
      </trkpt>
      <trkpt lat="49.0839" lon="-0.44581">
        <ele>72</ele>
        <time>2023-04-21T12:42:33Z</time>
      </trkpt>
      <trkpt lat="49.08395" lon="-0.44581">
        <ele>72</ele>
        <time>2023-04-21T12:42:34Z</time>
      </trkpt>
      <trkpt lat="49.08399" lon="-0.4458">
        <ele>72.4</ele>
        <time>2023-04-21T12:42:35Z</time>
      </trkpt>
      <trkpt lat="49.08403" lon="-0.4458">
        <ele>72.4</ele>
        <time>2023-04-21T12:42:36Z</time>
      </trkpt>
      <trkpt lat="49.08407" lon="-0.44579">
        <ele>72.6</ele>
        <time>2023-04-21T12:42:37Z</time>
      </trkpt>
      <trkpt lat="49.08411" lon="-0.44578">
        <ele>72.6</ele>
        <time>2023-04-21T12:42:38Z</time>
      </trkpt>
      <trkpt lat="49.08416" lon="-0.44578">
        <ele>72.8</ele>
        <time>2023-04-21T12:42:39Z</time>
      </trkpt>
      <trkpt lat="49.0842" lon="-0.44577">
        <ele>72.8</ele>
        <time>2023-04-21T12:42:40Z</time>
      </trkpt>
      <trkpt lat="49.08424" lon="-0.44576">
        <ele>73</ele>
        <time>2023-04-21T12:42:41Z</time>
      </trkpt>
      <trkpt lat="49.08428" lon="-0.44575">
        <ele>73</ele>
        <time>2023-04-21T12:42:42Z</time>
      </trkpt>
      <trkpt lat="49.08433" lon="-0.44573">
        <ele>73</ele>
        <time>2023-04-21T12:42:43Z</time>
      </trkpt>
      <trkpt lat="49.08437" lon="-0.44572">
        <ele>73</ele>
        <time>2023-04-21T12:42:44Z</time>
      </trkpt>
      <trkpt lat="49.08441" lon="-0.44571">
        <ele>73</ele>
        <time>2023-04-21T12:42:45Z</time>
      </trkpt>
      <trkpt lat="49.08445" lon="-0.4457">
        <ele>73.2</ele>
        <time>2023-04-21T12:42:46Z</time>
      </trkpt>
      <trkpt lat="49.08449" lon="-0.44569">
        <ele>73.4</ele>
        <time>2023-04-21T12:42:47Z</time>
      </trkpt>
      <trkpt lat="49.08453" lon="-0.44568">
        <ele>73.4</ele>
        <time>2023-04-21T12:42:48Z</time>
      </trkpt>
      <trkpt lat="49.08457" lon="-0.44567">
        <ele>73.4</ele>
        <time>2023-04-21T12:42:49Z</time>
      </trkpt>
      <trkpt lat="49.08461" lon="-0.44564">
        <ele>73.4</ele>
        <time>2023-04-21T12:42:50Z</time>
      </trkpt>
      <trkpt lat="49.08465" lon="-0.44562">
        <ele>73.4</ele>
        <time>2023-04-21T12:42:51Z</time>
      </trkpt>
      <trkpt lat="49.08469" lon="-0.44559">
        <ele>73.4</ele>
        <time>2023-04-21T12:42:52Z</time>
      </trkpt>
      <trkpt lat="49.08474" lon="-0.44556">
        <ele>73.4</ele>
        <time>2023-04-21T12:42:53Z</time>
      </trkpt>
      <trkpt lat="49.08478" lon="-0.44553">
        <ele>73.4</ele>
        <time>2023-04-21T12:42:54Z</time>
      </trkpt>
      <trkpt lat="49.08482" lon="-0.4455">
        <ele>73.4</ele>
        <time>2023-04-21T12:42:55Z</time>
      </trkpt>
      <trkpt lat="49.08487" lon="-0.44547">
        <ele>73.4</ele>
        <time>2023-04-21T12:42:56Z</time>
      </trkpt>
      <trkpt lat="49.08491" lon="-0.44544">
        <ele>73.4</ele>
        <time>2023-04-21T12:42:57Z</time>
      </trkpt>
      <trkpt lat="49.08495" lon="-0.44541">
        <ele>73.4</ele>
        <time>2023-04-21T12:42:58Z</time>
      </trkpt>
      <trkpt lat="49.08499" lon="-0.44538">
        <ele>73.4</ele>
        <time>2023-04-21T12:42:59Z</time>
      </trkpt>
      <trkpt lat="49.08504" lon="-0.44535">
        <ele>73.4</ele>
        <time>2023-04-21T12:43:00Z</time>
      </trkpt>
      <trkpt lat="49.08508" lon="-0.44532">
        <ele>73.2</ele>
        <time>2023-04-21T12:43:01Z</time>
      </trkpt>
      <trkpt lat="49.08513" lon="-0.44528">
        <ele>73</ele>
        <time>2023-04-21T12:43:02Z</time>
      </trkpt>
      <trkpt lat="49.08517" lon="-0.44525">
        <ele>73</ele>
        <time>2023-04-21T12:43:03Z</time>
      </trkpt>
      <trkpt lat="49.08522" lon="-0.44522">
        <ele>73</ele>
        <time>2023-04-21T12:43:04Z</time>
      </trkpt>
      <trkpt lat="49.08527" lon="-0.44519">
        <ele>73</ele>
        <time>2023-04-21T12:43:05Z</time>
      </trkpt>
      <trkpt lat="49.08532" lon="-0.44516">
        <ele>73</ele>
        <time>2023-04-21T12:43:06Z</time>
      </trkpt>
      <trkpt lat="49.08536" lon="-0.44513">
        <ele>72.8</ele>
        <time>2023-04-21T12:43:07Z</time>
      </trkpt>
      <trkpt lat="49.08541" lon="-0.44509">
        <ele>72.8</ele>
        <time>2023-04-21T12:43:08Z</time>
      </trkpt>
      <trkpt lat="49.08545" lon="-0.44506">
        <ele>72.6</ele>
        <time>2023-04-21T12:43:09Z</time>
      </trkpt>
      <trkpt lat="49.0855" lon="-0.44502">
        <ele>72.6</ele>
        <time>2023-04-21T12:43:10Z</time>
      </trkpt>
      <trkpt lat="49.08554" lon="-0.44497">
        <ele>72.6</ele>
        <time>2023-04-21T12:43:11Z</time>
      </trkpt>
      <trkpt lat="49.08559" lon="-0.44492">
        <ele>72.6</ele>
        <time>2023-04-21T12:43:12Z</time>
      </trkpt>
      <trkpt lat="49.08563" lon="-0.44488">
        <ele>72.6</ele>
        <time>2023-04-21T12:43:13Z</time>
      </trkpt>
      <trkpt lat="49.08568" lon="-0.44483">
        <ele>72.4</ele>
        <time>2023-04-21T12:43:14Z</time>
      </trkpt>
      <trkpt lat="49.08573" lon="-0.44478">
        <ele>72.4</ele>
        <time>2023-04-21T12:43:15Z</time>
      </trkpt>
      <trkpt lat="49.08577" lon="-0.44473">
        <ele>72.4</ele>
        <time>2023-04-21T12:43:16Z</time>
      </trkpt>
      <trkpt lat="49.08582" lon="-0.44467">
        <ele>72.2</ele>
        <time>2023-04-21T12:43:17Z</time>
      </trkpt>
      <trkpt lat="49.08587" lon="-0.44462">
        <ele>72.2</ele>
        <time>2023-04-21T12:43:18Z</time>
      </trkpt>
      <trkpt lat="49.08592" lon="-0.44456">
        <ele>72</ele>
        <time>2023-04-21T12:43:19Z</time>
      </trkpt>
      <trkpt lat="49.08596" lon="-0.44451">
        <ele>72</ele>
        <time>2023-04-21T12:43:20Z</time>
      </trkpt>
      <trkpt lat="49.086" lon="-0.44447">
        <ele>72</ele>
        <time>2023-04-21T12:43:21Z</time>
      </trkpt>
      <trkpt lat="49.08604" lon="-0.44443">
        <ele>72</ele>
        <time>2023-04-21T12:43:22Z</time>
      </trkpt>
      <trkpt lat="49.08606" lon="-0.44439">
        <ele>72</ele>
        <time>2023-04-21T12:43:23Z</time>
      </trkpt>
      <trkpt lat="49.08608" lon="-0.44437">
        <ele>72</ele>
        <time>2023-04-21T12:43:24Z</time>
      </trkpt>
      <trkpt lat="49.0861" lon="-0.44436">
        <ele>72</ele>
        <time>2023-04-21T12:43:25Z</time>
      </trkpt>
      <trkpt lat="49.08612" lon="-0.44436">
        <ele>72</ele>
        <time>2023-04-21T12:43:26Z</time>
      </trkpt>
      <trkpt lat="49.08615" lon="-0.44435">
        <ele>72</ele>
        <time>2023-04-21T12:43:27Z</time>
      </trkpt>
      <trkpt lat="49.08619" lon="-0.44433">
        <ele>72</ele>
        <time>2023-04-21T12:43:28Z</time>
      </trkpt>
      <trkpt lat="49.08623" lon="-0.44431">
        <ele>72</ele>
        <time>2023-04-21T12:43:29Z</time>
      </trkpt>
      <trkpt lat="49.08626" lon="-0.44428">
        <ele>72</ele>
        <time>2023-04-21T12:43:30Z</time>
      </trkpt>
      <trkpt lat="49.08631" lon="-0.44425">
        <ele>71.8</ele>
        <time>2023-04-21T12:43:31Z</time>
      </trkpt>
      <trkpt lat="49.08635" lon="-0.44422">
        <ele>71.8</ele>
        <time>2023-04-21T12:43:32Z</time>
      </trkpt>
      <trkpt lat="49.08639" lon="-0.44418">
        <ele>71.6</ele>
        <time>2023-04-21T12:43:33Z</time>
      </trkpt>
      <trkpt lat="49.08643" lon="-0.44415">
        <ele>71.6</ele>
        <time>2023-04-21T12:43:34Z</time>
      </trkpt>
      <trkpt lat="49.08648" lon="-0.44411">
        <ele>71.6</ele>
        <time>2023-04-21T12:43:35Z</time>
      </trkpt>
      <trkpt lat="49.08652" lon="-0.44408">
        <ele>71.6</ele>
        <time>2023-04-21T12:43:36Z</time>
      </trkpt>
      <trkpt lat="49.08657" lon="-0.44404">
        <ele>71.6</ele>
        <time>2023-04-21T12:43:37Z</time>
      </trkpt>
      <trkpt lat="49.08662" lon="-0.44401">
        <ele>71.4</ele>
        <time>2023-04-21T12:43:38Z</time>
      </trkpt>
      <trkpt lat="49.08667" lon="-0.44397">
        <ele>71.4</ele>
        <time>2023-04-21T12:43:39Z</time>
      </trkpt>
      <trkpt lat="49.08672" lon="-0.44393">
        <ele>71.2</ele>
        <time>2023-04-21T12:43:40Z</time>
      </trkpt>
      <trkpt lat="49.08677" lon="-0.44389">
        <ele>71</ele>
        <time>2023-04-21T12:43:41Z</time>
      </trkpt>
      <trkpt lat="49.08682" lon="-0.44385">
        <ele>71</ele>
        <time>2023-04-21T12:43:42Z</time>
      </trkpt>
      <trkpt lat="49.08687" lon="-0.44382">
        <ele>70.8</ele>
        <time>2023-04-21T12:43:43Z</time>
      </trkpt>
      <trkpt lat="49.08693" lon="-0.44378">
        <ele>70.8</ele>
        <time>2023-04-21T12:43:44Z</time>
      </trkpt>
      <trkpt lat="49.08698" lon="-0.44374">
        <ele>70.6</ele>
        <time>2023-04-21T12:43:45Z</time>
      </trkpt>
      <trkpt lat="49.08704" lon="-0.44371">
        <ele>70.6</ele>
        <time>2023-04-21T12:43:46Z</time>
      </trkpt>
      <trkpt lat="49.08709" lon="-0.44368">
        <ele>70.6</ele>
        <time>2023-04-21T12:43:47Z</time>
      </trkpt>
      <trkpt lat="49.08715" lon="-0.44364">
        <ele>70.6</ele>
        <time>2023-04-21T12:43:48Z</time>
      </trkpt>
      <trkpt lat="49.0872" lon="-0.44361">
        <ele>70.4</ele>
        <time>2023-04-21T12:43:49Z</time>
      </trkpt>
      <trkpt lat="49.08726" lon="-0.44358">
        <ele>70.4</ele>
        <time>2023-04-21T12:43:50Z</time>
      </trkpt>
      <trkpt lat="49.08732" lon="-0.44355">
        <ele>70.4</ele>
        <time>2023-04-21T12:43:51Z</time>
      </trkpt>
      <trkpt lat="49.08738" lon="-0.44352">
        <ele>70.4</ele>
        <time>2023-04-21T12:43:52Z</time>
      </trkpt>
      <trkpt lat="49.08744" lon="-0.4435">
        <ele>70.4</ele>
        <time>2023-04-21T12:43:53Z</time>
      </trkpt>
      <trkpt lat="49.0875" lon="-0.44347">
        <ele>70.4</ele>
        <time>2023-04-21T12:43:54Z</time>
      </trkpt>
      <trkpt lat="49.08756" lon="-0.44345">
        <ele>70.4</ele>
        <time>2023-04-21T12:43:55Z</time>
      </trkpt>
      <trkpt lat="49.08762" lon="-0.44343">
        <ele>70.2</ele>
        <time>2023-04-21T12:43:56Z</time>
      </trkpt>
      <trkpt lat="49.08768" lon="-0.44341">
        <ele>70.2</ele>
        <time>2023-04-21T12:43:57Z</time>
      </trkpt>
      <trkpt lat="49.08774" lon="-0.44339">
        <ele>70.2</ele>
        <time>2023-04-21T12:43:58Z</time>
      </trkpt>
      <trkpt lat="49.08781" lon="-0.44337">
        <ele>70</ele>
        <time>2023-04-21T12:43:59Z</time>
      </trkpt>
      <trkpt lat="49.08787" lon="-0.44335">
        <ele>70</ele>
        <time>2023-04-21T12:44:00Z</time>
      </trkpt>
      <trkpt lat="49.08794" lon="-0.44334">
        <ele>70</ele>
        <time>2023-04-21T12:44:01Z</time>
      </trkpt>
      <trkpt lat="49.088" lon="-0.44332">
        <ele>70</ele>
        <time>2023-04-21T12:44:02Z</time>
      </trkpt>
      <trkpt lat="49.08806" lon="-0.44331">
        <ele>70</ele>
        <time>2023-04-21T12:44:03Z</time>
      </trkpt>
      <trkpt lat="49.08813" lon="-0.44331">
        <ele>70</ele>
        <time>2023-04-21T12:44:04Z</time>
      </trkpt>
      <trkpt lat="49.08819" lon="-0.4433">
        <ele>70</ele>
        <time>2023-04-21T12:44:05Z</time>
      </trkpt>
      <trkpt lat="49.08825" lon="-0.44329">
        <ele>70</ele>
        <time>2023-04-21T12:44:06Z</time>
      </trkpt>
      <trkpt lat="49.08831" lon="-0.44328">
        <ele>70</ele>
        <time>2023-04-21T12:44:07Z</time>
      </trkpt>
      <trkpt lat="49.08837" lon="-0.44326">
        <ele>70</ele>
        <time>2023-04-21T12:44:08Z</time>
      </trkpt>
      <trkpt lat="49.08843" lon="-0.44324">
        <ele>70</ele>
        <time>2023-04-21T12:44:09Z</time>
      </trkpt>
      <trkpt lat="49.08849" lon="-0.44322">
        <ele>70</ele>
        <time>2023-04-21T12:44:10Z</time>
      </trkpt>
      <trkpt lat="49.08855" lon="-0.44319">
        <ele>70</ele>
        <time>2023-04-21T12:44:11Z</time>
      </trkpt>
      <trkpt lat="49.0886" lon="-0.44317">
        <ele>70</ele>
        <time>2023-04-21T12:44:12Z</time>
      </trkpt>
      <trkpt lat="49.08866" lon="-0.44315">
        <ele>70.2</ele>
        <time>2023-04-21T12:44:13Z</time>
      </trkpt>
      <trkpt lat="49.08872" lon="-0.44313">
        <ele>70.2</ele>
        <time>2023-04-21T12:44:14Z</time>
      </trkpt>
      <trkpt lat="49.08878" lon="-0.44311">
        <ele>70.4</ele>
        <time>2023-04-21T12:44:15Z</time>
      </trkpt>
      <trkpt lat="49.08883" lon="-0.44309">
        <ele>70.4</ele>
        <time>2023-04-21T12:44:16Z</time>
      </trkpt>
      <trkpt lat="49.08889" lon="-0.44306">
        <ele>70.4</ele>
        <time>2023-04-21T12:44:17Z</time>
      </trkpt>
      <trkpt lat="49.08894" lon="-0.44304">
        <ele>70.4</ele>
        <time>2023-04-21T12:44:18Z</time>
      </trkpt>
      <trkpt lat="49.089" lon="-0.44302">
        <ele>70.4</ele>
        <time>2023-04-21T12:44:19Z</time>
      </trkpt>
      <trkpt lat="49.08906" lon="-0.443">
        <ele>70.6</ele>
        <time>2023-04-21T12:44:20Z</time>
      </trkpt>
      <trkpt lat="49.08912" lon="-0.44299">
        <ele>70.6</ele>
        <time>2023-04-21T12:44:21Z</time>
      </trkpt>
      <trkpt lat="49.08918" lon="-0.44297">
        <ele>70.6</ele>
        <time>2023-04-21T12:44:22Z</time>
      </trkpt>
      <trkpt lat="49.08924" lon="-0.44295">
        <ele>70.6</ele>
        <time>2023-04-21T12:44:23Z</time>
      </trkpt>
      <trkpt lat="49.0893" lon="-0.44293">
        <ele>70.6</ele>
        <time>2023-04-21T12:44:24Z</time>
      </trkpt>
      <trkpt lat="49.08936" lon="-0.44292">
        <ele>70.6</ele>
        <time>2023-04-21T12:44:25Z</time>
      </trkpt>
      <trkpt lat="49.08942" lon="-0.4429">
        <ele>70.6</ele>
        <time>2023-04-21T12:44:26Z</time>
      </trkpt>
      <trkpt lat="49.08948" lon="-0.44288">
        <ele>70.6</ele>
        <time>2023-04-21T12:44:27Z</time>
      </trkpt>
      <trkpt lat="49.08954" lon="-0.44286">
        <ele>70.6</ele>
        <time>2023-04-21T12:44:28Z</time>
      </trkpt>
      <trkpt lat="49.08961" lon="-0.44284">
        <ele>70.6</ele>
        <time>2023-04-21T12:44:29Z</time>
      </trkpt>
      <trkpt lat="49.08967" lon="-0.44282">
        <ele>70.6</ele>
        <time>2023-04-21T12:44:30Z</time>
      </trkpt>
      <trkpt lat="49.08973" lon="-0.4428">
        <ele>70.6</ele>
        <time>2023-04-21T12:44:31Z</time>
      </trkpt>
      <trkpt lat="49.08979" lon="-0.44278">
        <ele>70.6</ele>
        <time>2023-04-21T12:44:32Z</time>
      </trkpt>
      <trkpt lat="49.08986" lon="-0.44276">
        <ele>70.6</ele>
        <time>2023-04-21T12:44:33Z</time>
      </trkpt>
      <trkpt lat="49.08992" lon="-0.44274">
        <ele>70.6</ele>
        <time>2023-04-21T12:44:34Z</time>
      </trkpt>
      <trkpt lat="49.08998" lon="-0.44272">
        <ele>70.6</ele>
        <time>2023-04-21T12:44:35Z</time>
      </trkpt>
      <trkpt lat="49.09004" lon="-0.4427">
        <ele>70.6</ele>
        <time>2023-04-21T12:44:36Z</time>
      </trkpt>
      <trkpt lat="49.0901" lon="-0.44268">
        <ele>70.6</ele>
        <time>2023-04-21T12:44:37Z</time>
      </trkpt>
      <trkpt lat="49.09016" lon="-0.44266">
        <ele>70.6</ele>
        <time>2023-04-21T12:44:38Z</time>
      </trkpt>
      <trkpt lat="49.09022" lon="-0.44264">
        <ele>70.6</ele>
        <time>2023-04-21T12:44:39Z</time>
      </trkpt>
      <trkpt lat="49.09028" lon="-0.44262">
        <ele>70.6</ele>
        <time>2023-04-21T12:44:40Z</time>
      </trkpt>
      <trkpt lat="49.09034" lon="-0.44261">
        <ele>70.6</ele>
        <time>2023-04-21T12:44:41Z</time>
      </trkpt>
      <trkpt lat="49.0904" lon="-0.44259">
        <ele>70.6</ele>
        <time>2023-04-21T12:44:42Z</time>
      </trkpt>
      <trkpt lat="49.09046" lon="-0.44257">
        <ele>70.6</ele>
        <time>2023-04-21T12:44:43Z</time>
      </trkpt>
      <trkpt lat="49.09052" lon="-0.44255">
        <ele>70.6</ele>
        <time>2023-04-21T12:44:44Z</time>
      </trkpt>
      <trkpt lat="49.09057" lon="-0.44253">
        <ele>70.6</ele>
        <time>2023-04-21T12:44:45Z</time>
      </trkpt>
      <trkpt lat="49.09063" lon="-0.44251">
        <ele>70.8</ele>
        <time>2023-04-21T12:44:46Z</time>
      </trkpt>
      <trkpt lat="49.09069" lon="-0.44249">
        <ele>70.8</ele>
        <time>2023-04-21T12:44:47Z</time>
      </trkpt>
      <trkpt lat="49.09075" lon="-0.44247">
        <ele>71</ele>
        <time>2023-04-21T12:44:48Z</time>
      </trkpt>
      <trkpt lat="49.0908" lon="-0.44245">
        <ele>71</ele>
        <time>2023-04-21T12:44:49Z</time>
      </trkpt>
      <trkpt lat="49.09086" lon="-0.44243">
        <ele>71</ele>
        <time>2023-04-21T12:44:50Z</time>
      </trkpt>
      <trkpt lat="49.09092" lon="-0.44242">
        <ele>71.4</ele>
        <time>2023-04-21T12:44:51Z</time>
      </trkpt>
      <trkpt lat="49.09097" lon="-0.44239">
        <ele>71.4</ele>
        <time>2023-04-21T12:44:52Z</time>
      </trkpt>
      <trkpt lat="49.09103" lon="-0.44237">
        <ele>71.6</ele>
        <time>2023-04-21T12:44:53Z</time>
      </trkpt>
      <trkpt lat="49.09109" lon="-0.44235">
        <ele>71.6</ele>
        <time>2023-04-21T12:44:54Z</time>
      </trkpt>
      <trkpt lat="49.09114" lon="-0.44233">
        <ele>72</ele>
        <time>2023-04-21T12:44:55Z</time>
      </trkpt>
      <trkpt lat="49.0912" lon="-0.4423">
        <ele>72</ele>
        <time>2023-04-21T12:44:56Z</time>
      </trkpt>
      <trkpt lat="49.09125" lon="-0.44228">
        <ele>72</ele>
        <time>2023-04-21T12:44:57Z</time>
      </trkpt>
      <trkpt lat="49.09131" lon="-0.44225">
        <ele>72.4</ele>
        <time>2023-04-21T12:44:58Z</time>
      </trkpt>
      <trkpt lat="49.09136" lon="-0.44222">
        <ele>72.4</ele>
        <time>2023-04-21T12:44:59Z</time>
      </trkpt>
      <trkpt lat="49.09141" lon="-0.44219">
        <ele>72.6</ele>
        <time>2023-04-21T12:45:00Z</time>
      </trkpt>
      <trkpt lat="49.09147" lon="-0.44216">
        <ele>72.6</ele>
        <time>2023-04-21T12:45:01Z</time>
      </trkpt>
      <trkpt lat="49.09152" lon="-0.44213">
        <ele>72.6</ele>
        <time>2023-04-21T12:45:02Z</time>
      </trkpt>
      <trkpt lat="49.09158" lon="-0.4421">
        <ele>72.8</ele>
        <time>2023-04-21T12:45:03Z</time>
      </trkpt>
      <trkpt lat="49.09163" lon="-0.44207">
        <ele>73</ele>
        <time>2023-04-21T12:45:04Z</time>
      </trkpt>
      <trkpt lat="49.09168" lon="-0.44203">
        <ele>73</ele>
        <time>2023-04-21T12:45:05Z</time>
      </trkpt>
      <trkpt lat="49.09173" lon="-0.442">
        <ele>73</ele>
        <time>2023-04-21T12:45:06Z</time>
      </trkpt>
      <trkpt lat="49.09179" lon="-0.44196">
        <ele>73</ele>
        <time>2023-04-21T12:45:07Z</time>
      </trkpt>
      <trkpt lat="49.09184" lon="-0.44193">
        <ele>72.8</ele>
        <time>2023-04-21T12:45:08Z</time>
      </trkpt>
      <trkpt lat="49.09189" lon="-0.44189">
        <ele>72.6</ele>
        <time>2023-04-21T12:45:09Z</time>
      </trkpt>
      <trkpt lat="49.09194" lon="-0.44186">
        <ele>72.6</ele>
        <time>2023-04-21T12:45:10Z</time>
      </trkpt>
      <trkpt lat="49.092" lon="-0.44182">
        <ele>72.6</ele>
        <time>2023-04-21T12:45:11Z</time>
      </trkpt>
      <trkpt lat="49.09205" lon="-0.44179">
        <ele>72.6</ele>
        <time>2023-04-21T12:45:12Z</time>
      </trkpt>
      <trkpt lat="49.0921" lon="-0.44175">
        <ele>72.6</ele>
        <time>2023-04-21T12:45:13Z</time>
      </trkpt>
      <trkpt lat="49.09216" lon="-0.44171">
        <ele>72.4</ele>
        <time>2023-04-21T12:45:14Z</time>
      </trkpt>
      <trkpt lat="49.09221" lon="-0.44168">
        <ele>72.4</ele>
        <time>2023-04-21T12:45:15Z</time>
      </trkpt>
      <trkpt lat="49.09226" lon="-0.44164">
        <ele>72.4</ele>
        <time>2023-04-21T12:45:16Z</time>
      </trkpt>
      <trkpt lat="49.09232" lon="-0.4416">
        <ele>72.2</ele>
        <time>2023-04-21T12:45:17Z</time>
      </trkpt>
      <trkpt lat="49.09238" lon="-0.44156">
        <ele>72</ele>
        <time>2023-04-21T12:45:18Z</time>
      </trkpt>
      <trkpt lat="49.09243" lon="-0.44152">
        <ele>72</ele>
        <time>2023-04-21T12:45:19Z</time>
      </trkpt>
      <trkpt lat="49.09249" lon="-0.44148">
        <ele>72</ele>
        <time>2023-04-21T12:45:20Z</time>
      </trkpt>
      <trkpt lat="49.09255" lon="-0.44144">
        <ele>71.8</ele>
        <time>2023-04-21T12:45:21Z</time>
      </trkpt>
      <trkpt lat="49.0926" lon="-0.4414">
        <ele>71.6</ele>
        <time>2023-04-21T12:45:22Z</time>
      </trkpt>
      <trkpt lat="49.09266" lon="-0.44135">
        <ele>71.6</ele>
        <time>2023-04-21T12:45:23Z</time>
      </trkpt>
      <trkpt lat="49.09272" lon="-0.4413">
        <ele>71.4</ele>
        <time>2023-04-21T12:45:24Z</time>
      </trkpt>
      <trkpt lat="49.09278" lon="-0.44126">
        <ele>71.2</ele>
        <time>2023-04-21T12:45:25Z</time>
      </trkpt>
      <trkpt lat="49.09283" lon="-0.44121">
        <ele>71</ele>
        <time>2023-04-21T12:45:26Z</time>
      </trkpt>
      <trkpt lat="49.09289" lon="-0.44116">
        <ele>71</ele>
        <time>2023-04-21T12:45:27Z</time>
      </trkpt>
      <trkpt lat="49.09295" lon="-0.44112">
        <ele>70.6</ele>
        <time>2023-04-21T12:45:28Z</time>
      </trkpt>
      <trkpt lat="49.09301" lon="-0.44107">
        <ele>70.6</ele>
        <time>2023-04-21T12:45:29Z</time>
      </trkpt>
      <trkpt lat="49.09307" lon="-0.44102">
        <ele>70.6</ele>
        <time>2023-04-21T12:45:30Z</time>
      </trkpt>
      <trkpt lat="49.09312" lon="-0.44098">
        <ele>70.4</ele>
        <time>2023-04-21T12:45:31Z</time>
      </trkpt>
      <trkpt lat="49.09318" lon="-0.44093">
        <ele>70.4</ele>
        <time>2023-04-21T12:45:32Z</time>
      </trkpt>
      <trkpt lat="49.09324" lon="-0.44088">
        <ele>70.2</ele>
        <time>2023-04-21T12:45:33Z</time>
      </trkpt>
      <trkpt lat="49.09329" lon="-0.44083">
        <ele>70</ele>
        <time>2023-04-21T12:45:34Z</time>
      </trkpt>
      <trkpt lat="49.09335" lon="-0.44079">
        <ele>70</ele>
        <time>2023-04-21T12:45:35Z</time>
      </trkpt>
      <trkpt lat="49.09341" lon="-0.44074">
        <ele>70</ele>
        <time>2023-04-21T12:45:36Z</time>
      </trkpt>
      <trkpt lat="49.09347" lon="-0.44069">
        <ele>69.6</ele>
        <time>2023-04-21T12:45:37Z</time>
      </trkpt>
      <trkpt lat="49.09352" lon="-0.44064">
        <ele>69.6</ele>
        <time>2023-04-21T12:45:38Z</time>
      </trkpt>
      <trkpt lat="49.09358" lon="-0.44059">
        <ele>69.6</ele>
        <time>2023-04-21T12:45:39Z</time>
      </trkpt>
      <trkpt lat="49.09364" lon="-0.44055">
        <ele>69.4</ele>
        <time>2023-04-21T12:45:40Z</time>
      </trkpt>
      <trkpt lat="49.0937" lon="-0.4405">
        <ele>69.2</ele>
        <time>2023-04-21T12:45:41Z</time>
      </trkpt>
      <trkpt lat="49.09377" lon="-0.44045">
        <ele>69</ele>
        <time>2023-04-21T12:45:42Z</time>
      </trkpt>
      <trkpt lat="49.09383" lon="-0.4404">
        <ele>69</ele>
        <time>2023-04-21T12:45:43Z</time>
      </trkpt>
      <trkpt lat="49.0939" lon="-0.44035">
        <ele>69</ele>
        <time>2023-04-21T12:45:44Z</time>
      </trkpt>
      <trkpt lat="49.09396" lon="-0.44031">
        <ele>68.8</ele>
        <time>2023-04-21T12:45:45Z</time>
      </trkpt>
      <trkpt lat="49.09402" lon="-0.44026">
        <ele>68.8</ele>
        <time>2023-04-21T12:45:46Z</time>
      </trkpt>
      <trkpt lat="49.09409" lon="-0.44022">
        <ele>68.6</ele>
        <time>2023-04-21T12:45:47Z</time>
      </trkpt>
      <trkpt lat="49.09415" lon="-0.44018">
        <ele>68.6</ele>
        <time>2023-04-21T12:45:48Z</time>
      </trkpt>
      <trkpt lat="49.09421" lon="-0.44014">
        <ele>68.6</ele>
        <time>2023-04-21T12:45:49Z</time>
      </trkpt>
      <trkpt lat="49.09427" lon="-0.4401">
        <ele>68.6</ele>
        <time>2023-04-21T12:45:50Z</time>
      </trkpt>
      <trkpt lat="49.09434" lon="-0.44007">
        <ele>68.4</ele>
        <time>2023-04-21T12:45:51Z</time>
      </trkpt>
      <trkpt lat="49.0944" lon="-0.44003">
        <ele>68.4</ele>
        <time>2023-04-21T12:45:52Z</time>
      </trkpt>
      <trkpt lat="49.09446" lon="-0.44">
        <ele>68.4</ele>
        <time>2023-04-21T12:45:53Z</time>
      </trkpt>
      <trkpt lat="49.09453" lon="-0.43996">
        <ele>68.2</ele>
        <time>2023-04-21T12:45:54Z</time>
      </trkpt>
      <trkpt lat="49.09459" lon="-0.43993">
        <ele>68</ele>
        <time>2023-04-21T12:45:55Z</time>
      </trkpt>
      <trkpt lat="49.09465" lon="-0.4399">
        <ele>68</ele>
        <time>2023-04-21T12:45:56Z</time>
      </trkpt>
      <trkpt lat="49.09472" lon="-0.43987">
        <ele>67.8</ele>
        <time>2023-04-21T12:45:57Z</time>
      </trkpt>
      <trkpt lat="49.09478" lon="-0.43984">
        <ele>67.6</ele>
        <time>2023-04-21T12:45:58Z</time>
      </trkpt>
      <trkpt lat="49.09484" lon="-0.4398">
        <ele>67.6</ele>
        <time>2023-04-21T12:45:59Z</time>
      </trkpt>
      <trkpt lat="49.09491" lon="-0.43978">
        <ele>67.6</ele>
        <time>2023-04-21T12:46:00Z</time>
      </trkpt>
      <trkpt lat="49.09497" lon="-0.43975">
        <ele>67.4</ele>
        <time>2023-04-21T12:46:01Z</time>
      </trkpt>
      <trkpt lat="49.09503" lon="-0.43972">
        <ele>67.2</ele>
        <time>2023-04-21T12:46:02Z</time>
      </trkpt>
      <trkpt lat="49.0951" lon="-0.43969">
        <ele>67</ele>
        <time>2023-04-21T12:46:03Z</time>
      </trkpt>
      <trkpt lat="49.09516" lon="-0.43966">
        <ele>67</ele>
        <time>2023-04-21T12:46:04Z</time>
      </trkpt>
      <trkpt lat="49.09523" lon="-0.43963">
        <ele>66.6</ele>
        <time>2023-04-21T12:46:05Z</time>
      </trkpt>
      <trkpt lat="49.09529" lon="-0.43961">
        <ele>66.6</ele>
        <time>2023-04-21T12:46:06Z</time>
      </trkpt>
      <trkpt lat="49.09536" lon="-0.43958">
        <ele>66.4</ele>
        <time>2023-04-21T12:46:07Z</time>
      </trkpt>
      <trkpt lat="49.09543" lon="-0.43955">
        <ele>66.4</ele>
        <time>2023-04-21T12:46:08Z</time>
      </trkpt>
      <trkpt lat="49.09549" lon="-0.43953">
        <ele>66</ele>
        <time>2023-04-21T12:46:09Z</time>
      </trkpt>
      <trkpt lat="49.09556" lon="-0.4395">
        <ele>66</ele>
        <time>2023-04-21T12:46:10Z</time>
      </trkpt>
      <trkpt lat="49.09563" lon="-0.43948">
        <ele>65.8</ele>
        <time>2023-04-21T12:46:11Z</time>
      </trkpt>
      <trkpt lat="49.09569" lon="-0.43945">
        <ele>65.6</ele>
        <time>2023-04-21T12:46:12Z</time>
      </trkpt>
      <trkpt lat="49.09576" lon="-0.43942">
        <ele>65.6</ele>
        <time>2023-04-21T12:46:13Z</time>
      </trkpt>
      <trkpt lat="49.09583" lon="-0.4394">
        <ele>65.6</ele>
        <time>2023-04-21T12:46:14Z</time>
      </trkpt>
      <trkpt lat="49.09589" lon="-0.43937">
        <ele>65.4</ele>
        <time>2023-04-21T12:46:15Z</time>
      </trkpt>
      <trkpt lat="49.09596" lon="-0.43935">
        <ele>65.2</ele>
        <time>2023-04-21T12:46:16Z</time>
      </trkpt>
      <trkpt lat="49.09603" lon="-0.43932">
        <ele>65</ele>
        <time>2023-04-21T12:46:17Z</time>
      </trkpt>
      <trkpt lat="49.0961" lon="-0.4393">
        <ele>65</ele>
        <time>2023-04-21T12:46:18Z</time>
      </trkpt>
      <trkpt lat="49.09616" lon="-0.43927">
        <ele>65</ele>
        <time>2023-04-21T12:46:19Z</time>
      </trkpt>
      <trkpt lat="49.09623" lon="-0.43925">
        <ele>64.8</ele>
        <time>2023-04-21T12:46:20Z</time>
      </trkpt>
      <trkpt lat="49.09629" lon="-0.43922">
        <ele>64.6</ele>
        <time>2023-04-21T12:46:21Z</time>
      </trkpt>
      <trkpt lat="49.09636" lon="-0.4392">
        <ele>64.6</ele>
        <time>2023-04-21T12:46:22Z</time>
      </trkpt>
      <trkpt lat="49.09643" lon="-0.43918">
        <ele>64.6</ele>
        <time>2023-04-21T12:46:23Z</time>
      </trkpt>
      <trkpt lat="49.09649" lon="-0.43915">
        <ele>64.4</ele>
        <time>2023-04-21T12:46:24Z</time>
      </trkpt>
      <trkpt lat="49.09656" lon="-0.43913">
        <ele>64.4</ele>
        <time>2023-04-21T12:46:25Z</time>
      </trkpt>
      <trkpt lat="49.09662" lon="-0.4391">
        <ele>64.2</ele>
        <time>2023-04-21T12:46:26Z</time>
      </trkpt>
      <trkpt lat="49.09668" lon="-0.43908">
        <ele>64</ele>
        <time>2023-04-21T12:46:27Z</time>
      </trkpt>
      <trkpt lat="49.09675" lon="-0.43905">
        <ele>64</ele>
        <time>2023-04-21T12:46:28Z</time>
      </trkpt>
      <trkpt lat="49.09681" lon="-0.43903">
        <ele>63.8</ele>
        <time>2023-04-21T12:46:29Z</time>
      </trkpt>
      <trkpt lat="49.09688" lon="-0.43901">
        <ele>63.6</ele>
        <time>2023-04-21T12:46:30Z</time>
      </trkpt>
      <trkpt lat="49.09694" lon="-0.43898">
        <ele>63.6</ele>
        <time>2023-04-21T12:46:31Z</time>
      </trkpt>
      <trkpt lat="49.09701" lon="-0.43896">
        <ele>63.2</ele>
        <time>2023-04-21T12:46:32Z</time>
      </trkpt>
      <trkpt lat="49.09707" lon="-0.43894">
        <ele>63.2</ele>
        <time>2023-04-21T12:46:33Z</time>
      </trkpt>
      <trkpt lat="49.09714" lon="-0.43892">
        <ele>63</ele>
        <time>2023-04-21T12:46:34Z</time>
      </trkpt>
      <trkpt lat="49.09721" lon="-0.4389">
        <ele>62.8</ele>
        <time>2023-04-21T12:46:35Z</time>
      </trkpt>
      <trkpt lat="49.09728" lon="-0.43888">
        <ele>62.6</ele>
        <time>2023-04-21T12:46:36Z</time>
      </trkpt>
      <trkpt lat="49.09735" lon="-0.43886">
        <ele>62.4</ele>
        <time>2023-04-21T12:46:37Z</time>
      </trkpt>
      <trkpt lat="49.09742" lon="-0.43884">
        <ele>62.2</ele>
        <time>2023-04-21T12:46:38Z</time>
      </trkpt>
      <trkpt lat="49.09749" lon="-0.43882">
        <ele>62</ele>
        <time>2023-04-21T12:46:39Z</time>
      </trkpt>
      <trkpt lat="49.09756" lon="-0.43881">
        <ele>61.6</ele>
        <time>2023-04-21T12:46:40Z</time>
      </trkpt>
      <trkpt lat="49.09764" lon="-0.43879">
        <ele>61.2</ele>
        <time>2023-04-21T12:46:41Z</time>
      </trkpt>
      <trkpt lat="49.09771" lon="-0.43878">
        <ele>60.8</ele>
        <time>2023-04-21T12:46:42Z</time>
      </trkpt>
      <trkpt lat="49.09779" lon="-0.43877">
        <ele>60.4</ele>
        <time>2023-04-21T12:46:43Z</time>
      </trkpt>
      <trkpt lat="49.09786" lon="-0.43876">
        <ele>60</ele>
        <time>2023-04-21T12:46:44Z</time>
      </trkpt>
      <trkpt lat="49.09794" lon="-0.43875">
        <ele>59.6</ele>
        <time>2023-04-21T12:46:45Z</time>
      </trkpt>
      <trkpt lat="49.09801" lon="-0.43873">
        <ele>59.2</ele>
        <time>2023-04-21T12:46:46Z</time>
      </trkpt>
      <trkpt lat="49.09809" lon="-0.43872">
        <ele>59</ele>
        <time>2023-04-21T12:46:47Z</time>
      </trkpt>
      <trkpt lat="49.09816" lon="-0.43871">
        <ele>58.6</ele>
        <time>2023-04-21T12:46:48Z</time>
      </trkpt>
      <trkpt lat="49.09824" lon="-0.4387">
        <ele>58</ele>
        <time>2023-04-21T12:46:49Z</time>
      </trkpt>
      <trkpt lat="49.09832" lon="-0.43869">
        <ele>57.8</ele>
        <time>2023-04-21T12:46:50Z</time>
      </trkpt>
      <trkpt lat="49.0984" lon="-0.43868">
        <ele>57.2</ele>
        <time>2023-04-21T12:46:51Z</time>
      </trkpt>
      <trkpt lat="49.09848" lon="-0.43867">
        <ele>57</ele>
        <time>2023-04-21T12:46:52Z</time>
      </trkpt>
      <trkpt lat="49.09856" lon="-0.43866">
        <ele>56.6</ele>
        <time>2023-04-21T12:46:53Z</time>
      </trkpt>
      <trkpt lat="49.09864" lon="-0.43865">
        <ele>56.2</ele>
        <time>2023-04-21T12:46:54Z</time>
      </trkpt>
      <trkpt lat="49.09873" lon="-0.43864">
        <ele>56</ele>
        <time>2023-04-21T12:46:55Z</time>
      </trkpt>
      <trkpt lat="49.09881" lon="-0.43864">
        <ele>55.6</ele>
        <time>2023-04-21T12:46:56Z</time>
      </trkpt>
      <trkpt lat="49.09889" lon="-0.43863">
        <ele>55.2</ele>
        <time>2023-04-21T12:46:57Z</time>
      </trkpt>
      <trkpt lat="49.09898" lon="-0.43863">
        <ele>54.8</ele>
        <time>2023-04-21T12:46:58Z</time>
      </trkpt>
      <trkpt lat="49.09907" lon="-0.43864">
        <ele>54.4</ele>
        <time>2023-04-21T12:46:59Z</time>
      </trkpt>
      <trkpt lat="49.09916" lon="-0.43865">
        <ele>54</ele>
        <time>2023-04-21T12:47:00Z</time>
      </trkpt>
      <trkpt lat="49.09925" lon="-0.43866">
        <ele>53.6</ele>
        <time>2023-04-21T12:47:01Z</time>
      </trkpt>
      <trkpt lat="49.09934" lon="-0.43867">
        <ele>53</ele>
        <time>2023-04-21T12:47:02Z</time>
      </trkpt>
      <trkpt lat="49.09943" lon="-0.43869">
        <ele>52.6</ele>
        <time>2023-04-21T12:47:03Z</time>
      </trkpt>
      <trkpt lat="49.09952" lon="-0.43871">
        <ele>52</ele>
        <time>2023-04-21T12:47:04Z</time>
      </trkpt>
      <trkpt lat="49.09962" lon="-0.43872">
        <ele>51.6</ele>
        <time>2023-04-21T12:47:05Z</time>
      </trkpt>
      <trkpt lat="49.09972" lon="-0.43874">
        <ele>51</ele>
        <time>2023-04-21T12:47:06Z</time>
      </trkpt>
      <trkpt lat="49.09982" lon="-0.43876">
        <ele>50.6</ele>
        <time>2023-04-21T12:47:07Z</time>
      </trkpt>
      <trkpt lat="49.09992" lon="-0.43879">
        <ele>50</ele>
        <time>2023-04-21T12:47:08Z</time>
      </trkpt>
      <trkpt lat="49.10002" lon="-0.43881">
        <ele>49.2</ele>
        <time>2023-04-21T12:47:09Z</time>
      </trkpt>
      <trkpt lat="49.10012" lon="-0.43885">
        <ele>48.8</ele>
        <time>2023-04-21T12:47:10Z</time>
      </trkpt>
      <trkpt lat="49.10022" lon="-0.43888">
        <ele>48.2</ele>
        <time>2023-04-21T12:47:11Z</time>
      </trkpt>
      <trkpt lat="49.10033" lon="-0.43892">
        <ele>47.8</ele>
        <time>2023-04-21T12:47:12Z</time>
      </trkpt>
      <trkpt lat="49.10043" lon="-0.43895">
        <ele>47.2</ele>
        <time>2023-04-21T12:47:13Z</time>
      </trkpt>
      <trkpt lat="49.10054" lon="-0.43899">
        <ele>46.6</ele>
        <time>2023-04-21T12:47:14Z</time>
      </trkpt>
      <trkpt lat="49.10064" lon="-0.43903">
        <ele>46</ele>
        <time>2023-04-21T12:47:15Z</time>
      </trkpt>
      <trkpt lat="49.10075" lon="-0.43907">
        <ele>45.6</ele>
        <time>2023-04-21T12:47:16Z</time>
      </trkpt>
      <trkpt lat="49.10085" lon="-0.4391">
        <ele>45</ele>
        <time>2023-04-21T12:47:17Z</time>
      </trkpt>
      <trkpt lat="49.10096" lon="-0.43913">
        <ele>44.6</ele>
        <time>2023-04-21T12:47:18Z</time>
      </trkpt>
      <trkpt lat="49.10106" lon="-0.43915">
        <ele>44</ele>
        <time>2023-04-21T12:47:19Z</time>
      </trkpt>
      <trkpt lat="49.10116" lon="-0.43918">
        <ele>43.4</ele>
        <time>2023-04-21T12:47:20Z</time>
      </trkpt>
      <trkpt lat="49.10126" lon="-0.43922">
        <ele>43</ele>
        <time>2023-04-21T12:47:21Z</time>
      </trkpt>
      <trkpt lat="49.10136" lon="-0.43926">
        <ele>42.4</ele>
        <time>2023-04-21T12:47:22Z</time>
      </trkpt>
      <trkpt lat="49.10145" lon="-0.43931">
        <ele>42</ele>
        <time>2023-04-21T12:47:23Z</time>
      </trkpt>
      <trkpt lat="49.10154" lon="-0.43937">
        <ele>41.4</ele>
        <time>2023-04-21T12:47:24Z</time>
      </trkpt>
      <trkpt lat="49.10162" lon="-0.43942">
        <ele>41</ele>
        <time>2023-04-21T12:47:25Z</time>
      </trkpt>
      <trkpt lat="49.10171" lon="-0.43945">
        <ele>40.6</ele>
        <time>2023-04-21T12:47:26Z</time>
      </trkpt>
      <trkpt lat="49.1018" lon="-0.43945">
        <ele>40.4</ele>
        <time>2023-04-21T12:47:27Z</time>
      </trkpt>
      <trkpt lat="49.10188" lon="-0.43943">
        <ele>40.2</ele>
        <time>2023-04-21T12:47:28Z</time>
      </trkpt>
      <trkpt lat="49.10197" lon="-0.43938">
        <ele>40</ele>
        <time>2023-04-21T12:47:29Z</time>
      </trkpt>
      <trkpt lat="49.10205" lon="-0.43933">
        <ele>39.8</ele>
        <time>2023-04-21T12:47:30Z</time>
      </trkpt>
      <trkpt lat="49.10214" lon="-0.43926">
        <ele>39.4</ele>
        <time>2023-04-21T12:47:31Z</time>
      </trkpt>
      <trkpt lat="49.10222" lon="-0.43919">
        <ele>39</ele>
        <time>2023-04-21T12:47:32Z</time>
      </trkpt>
      <trkpt lat="49.1023" lon="-0.43911">
        <ele>38.8</ele>
        <time>2023-04-21T12:47:33Z</time>
      </trkpt>
      <trkpt lat="49.10238" lon="-0.43903">
        <ele>38.6</ele>
        <time>2023-04-21T12:47:34Z</time>
      </trkpt>
      <trkpt lat="49.10245" lon="-0.43895">
        <ele>38.2</ele>
        <time>2023-04-21T12:47:35Z</time>
      </trkpt>
      <trkpt lat="49.10252" lon="-0.43887">
        <ele>38.2</ele>
        <time>2023-04-21T12:47:36Z</time>
      </trkpt>
      <trkpt lat="49.10258" lon="-0.43879">
        <ele>38.8</ele>
        <time>2023-04-21T12:47:37Z</time>
      </trkpt>
      <trkpt lat="49.10264" lon="-0.43873">
        <ele>39</ele>
        <time>2023-04-21T12:47:38Z</time>
      </trkpt>
      <trkpt lat="49.10269" lon="-0.43866">
        <ele>39.6</ele>
        <time>2023-04-21T12:47:39Z</time>
      </trkpt>
      <trkpt lat="49.10275" lon="-0.43859">
        <ele>40</ele>
        <time>2023-04-21T12:47:40Z</time>
      </trkpt>
      <trkpt lat="49.1028" lon="-0.43853">
        <ele>40.2</ele>
        <time>2023-04-21T12:47:41Z</time>
      </trkpt>
      <trkpt lat="49.10285" lon="-0.43848">
        <ele>40.4</ele>
        <time>2023-04-21T12:47:42Z</time>
      </trkpt>
      <trkpt lat="49.1029" lon="-0.43843">
        <ele>40.6</ele>
        <time>2023-04-21T12:47:43Z</time>
      </trkpt>
      <trkpt lat="49.10294" lon="-0.43838">
        <ele>40.8</ele>
        <time>2023-04-21T12:47:44Z</time>
      </trkpt>
      <trkpt lat="49.10298" lon="-0.43834">
        <ele>41</ele>
        <time>2023-04-21T12:47:45Z</time>
      </trkpt>
      <trkpt lat="49.10302" lon="-0.4383">
        <ele>41</ele>
        <time>2023-04-21T12:47:46Z</time>
      </trkpt>
      <trkpt lat="49.10305" lon="-0.43826">
        <ele>41.2</ele>
        <time>2023-04-21T12:47:47Z</time>
      </trkpt>
      <trkpt lat="49.10309" lon="-0.43822">
        <ele>41.6</ele>
        <time>2023-04-21T12:47:48Z</time>
      </trkpt>
      <trkpt lat="49.10312" lon="-0.43818">
        <ele>41.8</ele>
        <time>2023-04-21T12:47:49Z</time>
      </trkpt>
      <trkpt lat="49.10315" lon="-0.43815">
        <ele>42</ele>
        <time>2023-04-21T12:47:50Z</time>
      </trkpt>
      <trkpt lat="49.10319" lon="-0.43811">
        <ele>42</ele>
        <time>2023-04-21T12:47:51Z</time>
      </trkpt>
      <trkpt lat="49.10322" lon="-0.43808">
        <ele>42.2</ele>
        <time>2023-04-21T12:47:52Z</time>
      </trkpt>
      <trkpt lat="49.10325" lon="-0.43804">
        <ele>42.6</ele>
        <time>2023-04-21T12:47:53Z</time>
      </trkpt>
      <trkpt lat="49.10328" lon="-0.43801">
        <ele>42.8</ele>
        <time>2023-04-21T12:47:54Z</time>
      </trkpt>
      <trkpt lat="49.10332" lon="-0.43798">
        <ele>43</ele>
        <time>2023-04-21T12:47:55Z</time>
      </trkpt>
      <trkpt lat="49.10335" lon="-0.43794">
        <ele>43.2</ele>
        <time>2023-04-21T12:47:56Z</time>
      </trkpt>
      <trkpt lat="49.10338" lon="-0.43791">
        <ele>43.6</ele>
        <time>2023-04-21T12:47:57Z</time>
      </trkpt>
      <trkpt lat="49.10342" lon="-0.43788">
        <ele>43.8</ele>
        <time>2023-04-21T12:47:58Z</time>
      </trkpt>
      <trkpt lat="49.10345" lon="-0.43786">
        <ele>44</ele>
        <time>2023-04-21T12:47:59Z</time>
      </trkpt>
      <trkpt lat="49.10348" lon="-0.43783">
        <ele>44.4</ele>
        <time>2023-04-21T12:48:00Z</time>
      </trkpt>
      <trkpt lat="49.10352" lon="-0.43781">
        <ele>44.8</ele>
        <time>2023-04-21T12:48:01Z</time>
      </trkpt>
      <trkpt lat="49.10355" lon="-0.43779">
        <ele>45</ele>
        <time>2023-04-21T12:48:02Z</time>
      </trkpt>
      <trkpt lat="49.10359" lon="-0.43777">
        <ele>45.4</ele>
        <time>2023-04-21T12:48:03Z</time>
      </trkpt>
      <trkpt lat="49.10363" lon="-0.43774">
        <ele>45.8</ele>
        <time>2023-04-21T12:48:04Z</time>
      </trkpt>
      <trkpt lat="49.10367" lon="-0.43772">
        <ele>46.2</ele>
        <time>2023-04-21T12:48:05Z</time>
      </trkpt>
      <trkpt lat="49.10372" lon="-0.4377">
        <ele>46.8</ele>
        <time>2023-04-21T12:48:06Z</time>
      </trkpt>
      <trkpt lat="49.10376" lon="-0.43767">
        <ele>47</ele>
        <time>2023-04-21T12:48:07Z</time>
      </trkpt>
      <trkpt lat="49.1038" lon="-0.43765">
        <ele>47.6</ele>
        <time>2023-04-21T12:48:08Z</time>
      </trkpt>
      <trkpt lat="49.10384" lon="-0.43763">
        <ele>48</ele>
        <time>2023-04-21T12:48:09Z</time>
      </trkpt>
      <trkpt lat="49.10388" lon="-0.4376">
        <ele>48.2</ele>
        <time>2023-04-21T12:48:10Z</time>
      </trkpt>
      <trkpt lat="49.10391" lon="-0.43757">
        <ele>48.6</ele>
        <time>2023-04-21T12:48:11Z</time>
      </trkpt>
      <trkpt lat="49.10394" lon="-0.43754">
        <ele>49</ele>
        <time>2023-04-21T12:48:12Z</time>
      </trkpt>
      <trkpt lat="49.10398" lon="-0.43751">
        <ele>49.2</ele>
        <time>2023-04-21T12:48:13Z</time>
      </trkpt>
      <trkpt lat="49.10401" lon="-0.43749">
        <ele>49.6</ele>
        <time>2023-04-21T12:48:14Z</time>
      </trkpt>
      <trkpt lat="49.10405" lon="-0.43746">
        <ele>49.8</ele>
        <time>2023-04-21T12:48:15Z</time>
      </trkpt>
      <trkpt lat="49.10408" lon="-0.43743">
        <ele>50</ele>
        <time>2023-04-21T12:48:16Z</time>
      </trkpt>
      <trkpt lat="49.10412" lon="-0.4374">
        <ele>50.4</ele>
        <time>2023-04-21T12:48:17Z</time>
      </trkpt>
      <trkpt lat="49.10415" lon="-0.43736">
        <ele>50.8</ele>
        <time>2023-04-21T12:48:18Z</time>
      </trkpt>
      <trkpt lat="49.10418" lon="-0.43733">
        <ele>50.8</ele>
        <time>2023-04-21T12:48:19Z</time>
      </trkpt>
      <trkpt lat="49.1042" lon="-0.43729">
        <ele>51</ele>
        <time>2023-04-21T12:48:20Z</time>
      </trkpt>
      <trkpt lat="49.10422" lon="-0.43725">
        <ele>51</ele>
        <time>2023-04-21T12:48:21Z</time>
      </trkpt>
      <trkpt lat="49.10425" lon="-0.43721">
        <ele>51</ele>
        <time>2023-04-21T12:48:22Z</time>
      </trkpt>
      <trkpt lat="49.10428" lon="-0.43717">
        <ele>51</ele>
        <time>2023-04-21T12:48:23Z</time>
      </trkpt>
      <trkpt lat="49.10431" lon="-0.43712">
        <ele>51</ele>
        <time>2023-04-21T12:48:24Z</time>
      </trkpt>
      <trkpt lat="49.10434" lon="-0.43708">
        <ele>51</ele>
        <time>2023-04-21T12:48:25Z</time>
      </trkpt>
      <trkpt lat="49.10437" lon="-0.43703">
        <ele>51.2</ele>
        <time>2023-04-21T12:48:26Z</time>
      </trkpt>
      <trkpt lat="49.1044" lon="-0.43699">
        <ele>51.2</ele>
        <time>2023-04-21T12:48:27Z</time>
      </trkpt>
      <trkpt lat="49.10443" lon="-0.43695">
        <ele>51.2</ele>
        <time>2023-04-21T12:48:28Z</time>
      </trkpt>
      <trkpt lat="49.10446" lon="-0.4369">
        <ele>51.2</ele>
        <time>2023-04-21T12:48:29Z</time>
      </trkpt>
      <trkpt lat="49.10448" lon="-0.43686">
        <ele>51.4</ele>
        <time>2023-04-21T12:48:30Z</time>
      </trkpt>
      <trkpt lat="49.10451" lon="-0.43681">
        <ele>51.4</ele>
        <time>2023-04-21T12:48:31Z</time>
      </trkpt>
      <trkpt lat="49.10454" lon="-0.43677">
        <ele>51.4</ele>
        <time>2023-04-21T12:48:32Z</time>
      </trkpt>
      <trkpt lat="49.10456" lon="-0.43672">
        <ele>51.6</ele>
        <time>2023-04-21T12:48:33Z</time>
      </trkpt>
      <trkpt lat="49.10459" lon="-0.43668">
        <ele>51.6</ele>
        <time>2023-04-21T12:48:34Z</time>
      </trkpt>
      <trkpt lat="49.10462" lon="-0.43663">
        <ele>51.6</ele>
        <time>2023-04-21T12:48:35Z</time>
      </trkpt>
      <trkpt lat="49.10465" lon="-0.43659">
        <ele>51.6</ele>
        <time>2023-04-21T12:48:36Z</time>
      </trkpt>
      <trkpt lat="49.10468" lon="-0.43654">
        <ele>51.6</ele>
        <time>2023-04-21T12:48:37Z</time>
      </trkpt>
      <trkpt lat="49.10472" lon="-0.4365">
        <ele>51.6</ele>
        <time>2023-04-21T12:48:38Z</time>
      </trkpt>
      <trkpt lat="49.10475" lon="-0.43645">
        <ele>51.6</ele>
        <time>2023-04-21T12:48:39Z</time>
      </trkpt>
      <trkpt lat="49.10479" lon="-0.43641">
        <ele>51.6</ele>
        <time>2023-04-21T12:48:40Z</time>
      </trkpt>
      <trkpt lat="49.10482" lon="-0.43637">
        <ele>51.8</ele>
        <time>2023-04-21T12:48:41Z</time>
      </trkpt>
      <trkpt lat="49.10486" lon="-0.43634">
        <ele>51.8</ele>
        <time>2023-04-21T12:48:42Z</time>
      </trkpt>
      <trkpt lat="49.1049" lon="-0.4363">
        <ele>51.8</ele>
        <time>2023-04-21T12:48:43Z</time>
      </trkpt>
      <trkpt lat="49.10494" lon="-0.43627">
        <ele>51.8</ele>
        <time>2023-04-21T12:48:44Z</time>
      </trkpt>
      <trkpt lat="49.10499" lon="-0.43624">
        <ele>52</ele>
        <time>2023-04-21T12:48:45Z</time>
      </trkpt>
      <trkpt lat="49.10503" lon="-0.43621">
        <ele>52</ele>
        <time>2023-04-21T12:48:46Z</time>
      </trkpt>
      <trkpt lat="49.10507" lon="-0.43619">
        <ele>52</ele>
        <time>2023-04-21T12:48:47Z</time>
      </trkpt>
      <trkpt lat="49.10511" lon="-0.43616">
        <ele>52</ele>
        <time>2023-04-21T12:48:48Z</time>
      </trkpt>
      <trkpt lat="49.10516" lon="-0.43614">
        <ele>52</ele>
        <time>2023-04-21T12:48:49Z</time>
      </trkpt>
      <trkpt lat="49.1052" lon="-0.43613">
        <ele>52.2</ele>
        <time>2023-04-21T12:48:50Z</time>
      </trkpt>
      <trkpt lat="49.10525" lon="-0.43611">
        <ele>52.2</ele>
        <time>2023-04-21T12:48:51Z</time>
      </trkpt>
      <trkpt lat="49.10529" lon="-0.43609">
        <ele>52.2</ele>
        <time>2023-04-21T12:48:52Z</time>
      </trkpt>
      <trkpt lat="49.10533" lon="-0.43608">
        <ele>52.4</ele>
        <time>2023-04-21T12:48:53Z</time>
      </trkpt>
      <trkpt lat="49.10538" lon="-0.43606">
        <ele>52.6</ele>
        <time>2023-04-21T12:48:54Z</time>
      </trkpt>
      <trkpt lat="49.10542" lon="-0.43604">
        <ele>52.6</ele>
        <time>2023-04-21T12:48:55Z</time>
      </trkpt>
      <trkpt lat="49.10547" lon="-0.43602">
        <ele>52.8</ele>
        <time>2023-04-21T12:48:56Z</time>
      </trkpt>
      <trkpt lat="49.10551" lon="-0.43599">
        <ele>53</ele>
        <time>2023-04-21T12:48:57Z</time>
      </trkpt>
      <trkpt lat="49.10555" lon="-0.43596">
        <ele>53</ele>
        <time>2023-04-21T12:48:58Z</time>
      </trkpt>
      <trkpt lat="49.10559" lon="-0.43592">
        <ele>53</ele>
        <time>2023-04-21T12:48:59Z</time>
      </trkpt>
      <trkpt lat="49.10563" lon="-0.43587">
        <ele>53.2</ele>
        <time>2023-04-21T12:49:00Z</time>
      </trkpt>
      <trkpt lat="49.10566" lon="-0.43582">
        <ele>53.4</ele>
        <time>2023-04-21T12:49:01Z</time>
      </trkpt>
      <trkpt lat="49.1057" lon="-0.43578">
        <ele>53.6</ele>
        <time>2023-04-21T12:49:02Z</time>
      </trkpt>
      <trkpt lat="49.10574" lon="-0.43576">
        <ele>53.8</ele>
        <time>2023-04-21T12:49:03Z</time>
      </trkpt>
      <trkpt lat="49.10579" lon="-0.43575">
        <ele>53.8</ele>
        <time>2023-04-21T12:49:04Z</time>
      </trkpt>
      <trkpt lat="49.10583" lon="-0.43574">
        <ele>54</ele>
        <time>2023-04-21T12:49:05Z</time>
      </trkpt>
      <trkpt lat="49.10588" lon="-0.43572">
        <ele>54.2</ele>
        <time>2023-04-21T12:49:06Z</time>
      </trkpt>
      <trkpt lat="49.10592" lon="-0.4357">
        <ele>54.4</ele>
        <time>2023-04-21T12:49:07Z</time>
      </trkpt>
      <trkpt lat="49.10596" lon="-0.43569">
        <ele>54.6</ele>
        <time>2023-04-21T12:49:08Z</time>
      </trkpt>
      <trkpt lat="49.10601" lon="-0.43566">
        <ele>54.8</ele>
        <time>2023-04-21T12:49:09Z</time>
      </trkpt>
      <trkpt lat="49.10605" lon="-0.43564">
        <ele>55</ele>
        <time>2023-04-21T12:49:10Z</time>
      </trkpt>
      <trkpt lat="49.10609" lon="-0.43561">
        <ele>55</ele>
        <time>2023-04-21T12:49:11Z</time>
      </trkpt>
      <trkpt lat="49.10613" lon="-0.43558">
        <ele>55.2</ele>
        <time>2023-04-21T12:49:12Z</time>
      </trkpt>
      <trkpt lat="49.10617" lon="-0.43555">
        <ele>55.4</ele>
        <time>2023-04-21T12:49:13Z</time>
      </trkpt>
      <trkpt lat="49.10621" lon="-0.43552">
        <ele>55.6</ele>
        <time>2023-04-21T12:49:14Z</time>
      </trkpt>
      <trkpt lat="49.10625" lon="-0.43549">
        <ele>55.6</ele>
        <time>2023-04-21T12:49:15Z</time>
      </trkpt>
      <trkpt lat="49.10629" lon="-0.43546">
        <ele>55.8</ele>
        <time>2023-04-21T12:49:16Z</time>
      </trkpt>
      <trkpt lat="49.10633" lon="-0.43542">
        <ele>55.8</ele>
        <time>2023-04-21T12:49:17Z</time>
      </trkpt>
      <trkpt lat="49.10637" lon="-0.43538">
        <ele>56</ele>
        <time>2023-04-21T12:49:18Z</time>
      </trkpt>
      <trkpt lat="49.10641" lon="-0.43533">
        <ele>56</ele>
        <time>2023-04-21T12:49:19Z</time>
      </trkpt>
      <trkpt lat="49.10644" lon="-0.43527">
        <ele>56</ele>
        <time>2023-04-21T12:49:20Z</time>
      </trkpt>
      <trkpt lat="49.10646" lon="-0.43521">
        <ele>56</ele>
        <time>2023-04-21T12:49:21Z</time>
      </trkpt>
      <trkpt lat="49.10648" lon="-0.43514">
        <ele>55.8</ele>
        <time>2023-04-21T12:49:22Z</time>
      </trkpt>
      <trkpt lat="49.1065" lon="-0.43507">
        <ele>55.8</ele>
        <time>2023-04-21T12:49:23Z</time>
      </trkpt>
      <trkpt lat="49.10652" lon="-0.435">
        <ele>55.8</ele>
        <time>2023-04-21T12:49:24Z</time>
      </trkpt>
      <trkpt lat="49.10655" lon="-0.43493">
        <ele>55.6</ele>
        <time>2023-04-21T12:49:25Z</time>
      </trkpt>
      <trkpt lat="49.10657" lon="-0.43487">
        <ele>55.6</ele>
        <time>2023-04-21T12:49:26Z</time>
      </trkpt>
      <trkpt lat="49.1066" lon="-0.4348">
        <ele>55.4</ele>
        <time>2023-04-21T12:49:27Z</time>
      </trkpt>
      <trkpt lat="49.10663" lon="-0.43474">
        <ele>55.2</ele>
        <time>2023-04-21T12:49:28Z</time>
      </trkpt>
      <trkpt lat="49.10666" lon="-0.43467">
        <ele>55.2</ele>
        <time>2023-04-21T12:49:29Z</time>
      </trkpt>
      <trkpt lat="49.10669" lon="-0.43462">
        <ele>55.2</ele>
        <time>2023-04-21T12:49:30Z</time>
      </trkpt>
      <trkpt lat="49.10673" lon="-0.43456">
        <ele>55</ele>
        <time>2023-04-21T12:49:31Z</time>
      </trkpt>
      <trkpt lat="49.10677" lon="-0.43451">
        <ele>55.2</ele>
        <time>2023-04-21T12:49:32Z</time>
      </trkpt>
      <trkpt lat="49.10682" lon="-0.43447">
        <ele>55.2</ele>
        <time>2023-04-21T12:49:33Z</time>
      </trkpt>
      <trkpt lat="49.10687" lon="-0.43444">
        <ele>55.2</ele>
        <time>2023-04-21T12:49:34Z</time>
      </trkpt>
      <trkpt lat="49.10691" lon="-0.43441">
        <ele>55.4</ele>
        <time>2023-04-21T12:49:35Z</time>
      </trkpt>
      <trkpt lat="49.10696" lon="-0.43439">
        <ele>55.6</ele>
        <time>2023-04-21T12:49:36Z</time>
      </trkpt>
      <trkpt lat="49.10701" lon="-0.43439">
        <ele>55.8</ele>
        <time>2023-04-21T12:49:37Z</time>
      </trkpt>
      <trkpt lat="49.10706" lon="-0.43439">
        <ele>55.8</ele>
        <time>2023-04-21T12:49:38Z</time>
      </trkpt>
      <trkpt lat="49.10711" lon="-0.43441">
        <ele>56</ele>
        <time>2023-04-21T12:49:39Z</time>
      </trkpt>
      <trkpt lat="49.10715" lon="-0.43444">
        <ele>56.2</ele>
        <time>2023-04-21T12:49:40Z</time>
      </trkpt>
      <trkpt lat="49.1072" lon="-0.43446">
        <ele>56.4</ele>
        <time>2023-04-21T12:49:41Z</time>
      </trkpt>
      <trkpt lat="49.10725" lon="-0.43449">
        <ele>56.6</ele>
        <time>2023-04-21T12:49:42Z</time>
      </trkpt>
      <trkpt lat="49.10729" lon="-0.43452">
        <ele>56.8</ele>
        <time>2023-04-21T12:49:43Z</time>
      </trkpt>
      <trkpt lat="49.10734" lon="-0.43455">
        <ele>57</ele>
        <time>2023-04-21T12:49:44Z</time>
      </trkpt>
      <trkpt lat="49.10739" lon="-0.43458">
        <ele>57.2</ele>
        <time>2023-04-21T12:49:45Z</time>
      </trkpt>
      <trkpt lat="49.10743" lon="-0.4346">
        <ele>57.2</ele>
        <time>2023-04-21T12:49:46Z</time>
      </trkpt>
      <trkpt lat="49.10747" lon="-0.43462">
        <ele>57.6</ele>
        <time>2023-04-21T12:49:47Z</time>
      </trkpt>
      <trkpt lat="49.10752" lon="-0.43464">
        <ele>57.6</ele>
        <time>2023-04-21T12:49:48Z</time>
      </trkpt>
      <trkpt lat="49.10756" lon="-0.43465">
        <ele>57.8</ele>
        <time>2023-04-21T12:49:49Z</time>
      </trkpt>
      <trkpt lat="49.1076" lon="-0.43467">
        <ele>58</ele>
        <time>2023-04-21T12:49:50Z</time>
      </trkpt>
      <trkpt lat="49.10765" lon="-0.43468">
        <ele>58</ele>
        <time>2023-04-21T12:49:51Z</time>
      </trkpt>
      <trkpt lat="49.10769" lon="-0.43468">
        <ele>58.2</ele>
        <time>2023-04-21T12:49:52Z</time>
      </trkpt>
      <trkpt lat="49.10773" lon="-0.43469">
        <ele>58.2</ele>
        <time>2023-04-21T12:49:53Z</time>
      </trkpt>
      <trkpt lat="49.10777" lon="-0.43469">
        <ele>58.6</ele>
        <time>2023-04-21T12:49:54Z</time>
      </trkpt>
      <trkpt lat="49.10781" lon="-0.43469">
        <ele>58.6</ele>
        <time>2023-04-21T12:49:55Z</time>
      </trkpt>
      <trkpt lat="49.10785" lon="-0.43469">
        <ele>58.8</ele>
        <time>2023-04-21T12:49:56Z</time>
      </trkpt>
      <trkpt lat="49.10789" lon="-0.43468">
        <ele>59</ele>
        <time>2023-04-21T12:49:57Z</time>
      </trkpt>
      <trkpt lat="49.10794" lon="-0.43468">
        <ele>59</ele>
        <time>2023-04-21T12:49:58Z</time>
      </trkpt>
      <trkpt lat="49.10798" lon="-0.43468">
        <ele>59</ele>
        <time>2023-04-21T12:49:59Z</time>
      </trkpt>
      <trkpt lat="49.10802" lon="-0.43467">
        <ele>59.2</ele>
        <time>2023-04-21T12:50:00Z</time>
      </trkpt>
      <trkpt lat="49.10806" lon="-0.43466">
        <ele>59.2</ele>
        <time>2023-04-21T12:50:01Z</time>
      </trkpt>
      <trkpt lat="49.1081" lon="-0.43465">
        <ele>59.4</ele>
        <time>2023-04-21T12:50:02Z</time>
      </trkpt>
      <trkpt lat="49.10815" lon="-0.43464">
        <ele>59.6</ele>
        <time>2023-04-21T12:50:03Z</time>
      </trkpt>
      <trkpt lat="49.10819" lon="-0.43463">
        <ele>59.8</ele>
        <time>2023-04-21T12:50:04Z</time>
      </trkpt>
      <trkpt lat="49.10823" lon="-0.43462">
        <ele>59.8</ele>
        <time>2023-04-21T12:50:05Z</time>
      </trkpt>
      <trkpt lat="49.10827" lon="-0.43461">
        <ele>60</ele>
        <time>2023-04-21T12:50:06Z</time>
      </trkpt>
      <trkpt lat="49.10831" lon="-0.43459">
        <ele>60</ele>
        <time>2023-04-21T12:50:07Z</time>
      </trkpt>
      <trkpt lat="49.10835" lon="-0.43457">
        <ele>60</ele>
        <time>2023-04-21T12:50:08Z</time>
      </trkpt>
      <trkpt lat="49.10839" lon="-0.43455">
        <ele>60</ele>
        <time>2023-04-21T12:50:09Z</time>
      </trkpt>
      <trkpt lat="49.10842" lon="-0.43452">
        <ele>60</ele>
        <time>2023-04-21T12:50:10Z</time>
      </trkpt>
      <trkpt lat="49.10846" lon="-0.43449">
        <ele>60</ele>
        <time>2023-04-21T12:50:11Z</time>
      </trkpt>
      <trkpt lat="49.10849" lon="-0.43446">
        <ele>60</ele>
        <time>2023-04-21T12:50:12Z</time>
      </trkpt>
      <trkpt lat="49.10852" lon="-0.43442">
        <ele>60.2</ele>
        <time>2023-04-21T12:50:13Z</time>
      </trkpt>
      <trkpt lat="49.10855" lon="-0.43438">
        <ele>60.2</ele>
        <time>2023-04-21T12:50:14Z</time>
      </trkpt>
      <trkpt lat="49.10858" lon="-0.43434">
        <ele>60.2</ele>
        <time>2023-04-21T12:50:15Z</time>
      </trkpt>
      <trkpt lat="49.10861" lon="-0.43429">
        <ele>60.2</ele>
        <time>2023-04-21T12:50:16Z</time>
      </trkpt>
      <trkpt lat="49.10864" lon="-0.43424">
        <ele>60.2</ele>
        <time>2023-04-21T12:50:17Z</time>
      </trkpt>
      <trkpt lat="49.10867" lon="-0.43419">
        <ele>60.2</ele>
        <time>2023-04-21T12:50:18Z</time>
      </trkpt>
      <trkpt lat="49.1087" lon="-0.43414">
        <ele>60.2</ele>
        <time>2023-04-21T12:50:19Z</time>
      </trkpt>
      <trkpt lat="49.10873" lon="-0.43409">
        <ele>60.2</ele>
        <time>2023-04-21T12:50:20Z</time>
      </trkpt>
      <trkpt lat="49.10877" lon="-0.43405">
        <ele>60.2</ele>
        <time>2023-04-21T12:50:21Z</time>
      </trkpt>
      <trkpt lat="49.1088" lon="-0.434">
        <ele>60.4</ele>
        <time>2023-04-21T12:50:22Z</time>
      </trkpt>
      <trkpt lat="49.10883" lon="-0.43395">
        <ele>60.4</ele>
        <time>2023-04-21T12:50:23Z</time>
      </trkpt>
      <trkpt lat="49.10887" lon="-0.4339">
        <ele>60.4</ele>
        <time>2023-04-21T12:50:24Z</time>
      </trkpt>
      <trkpt lat="49.1089" lon="-0.43386">
        <ele>60.4</ele>
        <time>2023-04-21T12:50:25Z</time>
      </trkpt>
      <trkpt lat="49.10893" lon="-0.43381">
        <ele>60.4</ele>
        <time>2023-04-21T12:50:26Z</time>
      </trkpt>
      <trkpt lat="49.10896" lon="-0.43376">
        <ele>60.4</ele>
        <time>2023-04-21T12:50:27Z</time>
      </trkpt>
      <trkpt lat="49.10899" lon="-0.43371">
        <ele>60.4</ele>
        <time>2023-04-21T12:50:28Z</time>
      </trkpt>
      <trkpt lat="49.10902" lon="-0.43366">
        <ele>60.2</ele>
        <time>2023-04-21T12:50:29Z</time>
      </trkpt>
      <trkpt lat="49.10904" lon="-0.4336">
        <ele>60.2</ele>
        <time>2023-04-21T12:50:30Z</time>
      </trkpt>
      <trkpt lat="49.10907" lon="-0.43355">
        <ele>60.2</ele>
        <time>2023-04-21T12:50:31Z</time>
      </trkpt>
      <trkpt lat="49.10909" lon="-0.43349">
        <ele>60.2</ele>
        <time>2023-04-21T12:50:32Z</time>
      </trkpt>
      <trkpt lat="49.10912" lon="-0.43343">
        <ele>60</ele>
        <time>2023-04-21T12:50:33Z</time>
      </trkpt>
      <trkpt lat="49.10914" lon="-0.43337">
        <ele>60</ele>
        <time>2023-04-21T12:50:34Z</time>
      </trkpt>
      <trkpt lat="49.10916" lon="-0.4333">
        <ele>60</ele>
        <time>2023-04-21T12:50:35Z</time>
      </trkpt>
      <trkpt lat="49.10918" lon="-0.43323">
        <ele>60</ele>
        <time>2023-04-21T12:50:36Z</time>
      </trkpt>
      <trkpt lat="49.1092" lon="-0.43316">
        <ele>60.2</ele>
        <time>2023-04-21T12:50:37Z</time>
      </trkpt>
      <trkpt lat="49.10921" lon="-0.43309">
        <ele>60.2</ele>
        <time>2023-04-21T12:50:38Z</time>
      </trkpt>
      <trkpt lat="49.10923" lon="-0.43302">
        <ele>60.4</ele>
        <time>2023-04-21T12:50:39Z</time>
      </trkpt>
      <trkpt lat="49.10924" lon="-0.43295">
        <ele>60.4</ele>
        <time>2023-04-21T12:50:40Z</time>
      </trkpt>
      <trkpt lat="49.10925" lon="-0.43288">
        <ele>60.6</ele>
        <time>2023-04-21T12:50:41Z</time>
      </trkpt>
      <trkpt lat="49.10927" lon="-0.43281">
        <ele>60.6</ele>
        <time>2023-04-21T12:50:42Z</time>
      </trkpt>
      <trkpt lat="49.10928" lon="-0.43274">
        <ele>60.8</ele>
        <time>2023-04-21T12:50:43Z</time>
      </trkpt>
      <trkpt lat="49.1093" lon="-0.43267">
        <ele>60.8</ele>
        <time>2023-04-21T12:50:44Z</time>
      </trkpt>
      <trkpt lat="49.10932" lon="-0.4326">
        <ele>61</ele>
        <time>2023-04-21T12:50:45Z</time>
      </trkpt>
      <trkpt lat="49.10933" lon="-0.43253">
        <ele>61</ele>
        <time>2023-04-21T12:50:46Z</time>
      </trkpt>
      <trkpt lat="49.10935" lon="-0.43246">
        <ele>61</ele>
        <time>2023-04-21T12:50:47Z</time>
      </trkpt>
      <trkpt lat="49.10936" lon="-0.43239">
        <ele>61</ele>
        <time>2023-04-21T12:50:48Z</time>
      </trkpt>
      <trkpt lat="49.10936" lon="-0.43232">
        <ele>61</ele>
        <time>2023-04-21T12:50:49Z</time>
      </trkpt>
      <trkpt lat="49.10936" lon="-0.43225">
        <ele>61</ele>
        <time>2023-04-21T12:50:50Z</time>
      </trkpt>
      <trkpt lat="49.10937" lon="-0.43219">
        <ele>61</ele>
        <time>2023-04-21T12:50:51Z</time>
      </trkpt>
      <trkpt lat="49.1094" lon="-0.43213">
        <ele>61.2</ele>
        <time>2023-04-21T12:50:52Z</time>
      </trkpt>
      <trkpt lat="49.10943" lon="-0.43209">
        <ele>61.4</ele>
        <time>2023-04-21T12:50:53Z</time>
      </trkpt>
      <trkpt lat="49.10946" lon="-0.43205">
        <ele>61.6</ele>
        <time>2023-04-21T12:50:54Z</time>
      </trkpt>
      <trkpt lat="49.10949" lon="-0.432">
        <ele>61.8</ele>
        <time>2023-04-21T12:50:55Z</time>
      </trkpt>
      <trkpt lat="49.10953" lon="-0.43195">
        <ele>62</ele>
        <time>2023-04-21T12:50:56Z</time>
      </trkpt>
      <trkpt lat="49.10956" lon="-0.43189">
        <ele>62</ele>
        <time>2023-04-21T12:50:57Z</time>
      </trkpt>
      <trkpt lat="49.10959" lon="-0.43184">
        <ele>62</ele>
        <time>2023-04-21T12:50:58Z</time>
      </trkpt>
      <trkpt lat="49.10962" lon="-0.43178">
        <ele>62.2</ele>
        <time>2023-04-21T12:50:59Z</time>
      </trkpt>
      <trkpt lat="49.10965" lon="-0.43172">
        <ele>62.4</ele>
        <time>2023-04-21T12:51:00Z</time>
      </trkpt>
      <trkpt lat="49.10968" lon="-0.43166">
        <ele>62.6</ele>
        <time>2023-04-21T12:51:01Z</time>
      </trkpt>
      <trkpt lat="49.10971" lon="-0.4316">
        <ele>62.6</ele>
        <time>2023-04-21T12:51:02Z</time>
      </trkpt>
      <trkpt lat="49.10974" lon="-0.43155">
        <ele>62.6</ele>
        <time>2023-04-21T12:51:03Z</time>
      </trkpt>
      <trkpt lat="49.10977" lon="-0.43149">
        <ele>62.6</ele>
        <time>2023-04-21T12:51:04Z</time>
      </trkpt>
      <trkpt lat="49.1098" lon="-0.43143">
        <ele>62.8</ele>
        <time>2023-04-21T12:51:05Z</time>
      </trkpt>
      <trkpt lat="49.10983" lon="-0.43138">
        <ele>62.8</ele>
        <time>2023-04-21T12:51:06Z</time>
      </trkpt>
      <trkpt lat="49.10986" lon="-0.43132">
        <ele>63</ele>
        <time>2023-04-21T12:51:07Z</time>
      </trkpt>
      <trkpt lat="49.1099" lon="-0.43127">
        <ele>63</ele>
        <time>2023-04-21T12:51:08Z</time>
      </trkpt>
      <trkpt lat="49.10993" lon="-0.43122">
        <ele>63</ele>
        <time>2023-04-21T12:51:09Z</time>
      </trkpt>
      <trkpt lat="49.10996" lon="-0.43117">
        <ele>63.2</ele>
        <time>2023-04-21T12:51:10Z</time>
      </trkpt>
      <trkpt lat="49.11" lon="-0.43112">
        <ele>63.2</ele>
        <time>2023-04-21T12:51:11Z</time>
      </trkpt>
      <trkpt lat="49.11003" lon="-0.43107">
        <ele>63.4</ele>
        <time>2023-04-21T12:51:12Z</time>
      </trkpt>
      <trkpt lat="49.11007" lon="-0.43103">
        <ele>63.6</ele>
        <time>2023-04-21T12:51:13Z</time>
      </trkpt>
      <trkpt lat="49.11011" lon="-0.43098">
        <ele>63.6</ele>
        <time>2023-04-21T12:51:14Z</time>
      </trkpt>
      <trkpt lat="49.11014" lon="-0.43095">
        <ele>63.6</ele>
        <time>2023-04-21T12:51:15Z</time>
      </trkpt>
      <trkpt lat="49.11018" lon="-0.43091">
        <ele>63.8</ele>
        <time>2023-04-21T12:51:16Z</time>
      </trkpt>
      <trkpt lat="49.11022" lon="-0.43087">
        <ele>63.8</ele>
        <time>2023-04-21T12:51:17Z</time>
      </trkpt>
      <trkpt lat="49.11026" lon="-0.43084">
        <ele>64</ele>
        <time>2023-04-21T12:51:18Z</time>
      </trkpt>
      <trkpt lat="49.1103" lon="-0.43081">
        <ele>64</ele>
        <time>2023-04-21T12:51:19Z</time>
      </trkpt>
      <trkpt lat="49.11034" lon="-0.43078">
        <ele>64.2</ele>
        <time>2023-04-21T12:51:20Z</time>
      </trkpt>
      <trkpt lat="49.11038" lon="-0.43075">
        <ele>64.4</ele>
        <time>2023-04-21T12:51:21Z</time>
      </trkpt>
      <trkpt lat="49.11042" lon="-0.43072">
        <ele>64.4</ele>
        <time>2023-04-21T12:51:22Z</time>
      </trkpt>
      <trkpt lat="49.11046" lon="-0.4307">
        <ele>64.6</ele>
        <time>2023-04-21T12:51:23Z</time>
      </trkpt>
      <trkpt lat="49.11051" lon="-0.43068">
        <ele>64.6</ele>
        <time>2023-04-21T12:51:24Z</time>
      </trkpt>
      <trkpt lat="49.11055" lon="-0.43066">
        <ele>64.8</ele>
        <time>2023-04-21T12:51:25Z</time>
      </trkpt>
      <trkpt lat="49.11059" lon="-0.43064">
        <ele>65</ele>
        <time>2023-04-21T12:51:26Z</time>
      </trkpt>
      <trkpt lat="49.11064" lon="-0.43062">
        <ele>65</ele>
        <time>2023-04-21T12:51:27Z</time>
      </trkpt>
      <trkpt lat="49.11068" lon="-0.4306">
        <ele>65.2</ele>
        <time>2023-04-21T12:51:28Z</time>
      </trkpt>
      <trkpt lat="49.11073" lon="-0.43058">
        <ele>65.4</ele>
        <time>2023-04-21T12:51:29Z</time>
      </trkpt>
      <trkpt lat="49.11077" lon="-0.43056">
        <ele>65.6</ele>
        <time>2023-04-21T12:51:30Z</time>
      </trkpt>
      <trkpt lat="49.11082" lon="-0.43054">
        <ele>65.6</ele>
        <time>2023-04-21T12:51:31Z</time>
      </trkpt>
      <trkpt lat="49.11086" lon="-0.43052">
        <ele>65.6</ele>
        <time>2023-04-21T12:51:32Z</time>
      </trkpt>
      <trkpt lat="49.1109" lon="-0.43048">
        <ele>65.6</ele>
        <time>2023-04-21T12:51:33Z</time>
      </trkpt>
      <trkpt lat="49.11094" lon="-0.43045">
        <ele>65.6</ele>
        <time>2023-04-21T12:51:34Z</time>
      </trkpt>
      <trkpt lat="49.11098" lon="-0.43042">
        <ele>65.6</ele>
        <time>2023-04-21T12:51:35Z</time>
      </trkpt>
      <trkpt lat="49.11102" lon="-0.43039">
        <ele>65.6</ele>
        <time>2023-04-21T12:51:36Z</time>
      </trkpt>
      <trkpt lat="49.11106" lon="-0.43036">
        <ele>65.6</ele>
        <time>2023-04-21T12:51:37Z</time>
      </trkpt>
      <trkpt lat="49.1111" lon="-0.43036">
        <ele>65.8</ele>
        <time>2023-04-21T12:51:38Z</time>
      </trkpt>
      <trkpt lat="49.11115" lon="-0.43036">
        <ele>65.8</ele>
        <time>2023-04-21T12:51:39Z</time>
      </trkpt>
      <trkpt lat="49.11119" lon="-0.43037">
        <ele>66</ele>
        <time>2023-04-21T12:51:40Z</time>
      </trkpt>
      <trkpt lat="49.11123" lon="-0.43038">
        <ele>66</ele>
        <time>2023-04-21T12:51:41Z</time>
      </trkpt>
      <trkpt lat="49.11128" lon="-0.43038">
        <ele>66</ele>
        <time>2023-04-21T12:51:42Z</time>
      </trkpt>
      <trkpt lat="49.11133" lon="-0.43038">
        <ele>66</ele>
        <time>2023-04-21T12:51:43Z</time>
      </trkpt>
      <trkpt lat="49.11137" lon="-0.43038">
        <ele>66</ele>
        <time>2023-04-21T12:51:44Z</time>
      </trkpt>
      <trkpt lat="49.11141" lon="-0.43037">
        <ele>66</ele>
        <time>2023-04-21T12:51:45Z</time>
      </trkpt>
      <trkpt lat="49.11146" lon="-0.43037">
        <ele>66.2</ele>
        <time>2023-04-21T12:51:46Z</time>
      </trkpt>
      <trkpt lat="49.1115" lon="-0.43036">
        <ele>66.2</ele>
        <time>2023-04-21T12:51:47Z</time>
      </trkpt>
      <trkpt lat="49.11154" lon="-0.43035">
        <ele>66.4</ele>
        <time>2023-04-21T12:51:48Z</time>
      </trkpt>
      <trkpt lat="49.11158" lon="-0.43034">
        <ele>66.4</ele>
        <time>2023-04-21T12:51:49Z</time>
      </trkpt>
      <trkpt lat="49.11163" lon="-0.43033">
        <ele>66.4</ele>
        <time>2023-04-21T12:51:50Z</time>
      </trkpt>
      <trkpt lat="49.11167" lon="-0.43032">
        <ele>66.4</ele>
        <time>2023-04-21T12:51:51Z</time>
      </trkpt>
      <trkpt lat="49.11171" lon="-0.43031">
        <ele>66.6</ele>
        <time>2023-04-21T12:51:52Z</time>
      </trkpt>
      <trkpt lat="49.11175" lon="-0.43029">
        <ele>66.6</ele>
        <time>2023-04-21T12:51:53Z</time>
      </trkpt>
      <trkpt lat="49.11179" lon="-0.43028">
        <ele>67</ele>
        <time>2023-04-21T12:51:54Z</time>
      </trkpt>
      <trkpt lat="49.11183" lon="-0.43027">
        <ele>67</ele>
        <time>2023-04-21T12:51:55Z</time>
      </trkpt>
      <trkpt lat="49.11187" lon="-0.43026">
        <ele>67.4</ele>
        <time>2023-04-21T12:51:56Z</time>
      </trkpt>
      <trkpt lat="49.11191" lon="-0.43024">
        <ele>67.6</ele>
        <time>2023-04-21T12:51:57Z</time>
      </trkpt>
      <trkpt lat="49.11195" lon="-0.43023">
        <ele>67.6</ele>
        <time>2023-04-21T12:51:58Z</time>
      </trkpt>
      <trkpt lat="49.11199" lon="-0.43022">
        <ele>67.8</ele>
        <time>2023-04-21T12:51:59Z</time>
      </trkpt>
      <trkpt lat="49.11203" lon="-0.4302">
        <ele>68</ele>
        <time>2023-04-21T12:52:00Z</time>
      </trkpt>
      <trkpt lat="49.11207" lon="-0.43019">
        <ele>68.2</ele>
        <time>2023-04-21T12:52:01Z</time>
      </trkpt>
      <trkpt lat="49.11212" lon="-0.43018">
        <ele>68.4</ele>
        <time>2023-04-21T12:52:02Z</time>
      </trkpt>
      <trkpt lat="49.11216" lon="-0.43017">
        <ele>68.6</ele>
        <time>2023-04-21T12:52:03Z</time>
      </trkpt>
      <trkpt lat="49.1122" lon="-0.43015">
        <ele>68.6</ele>
        <time>2023-04-21T12:52:04Z</time>
      </trkpt>
      <trkpt lat="49.11224" lon="-0.43014">
        <ele>69</ele>
        <time>2023-04-21T12:52:05Z</time>
      </trkpt>
      <trkpt lat="49.11228" lon="-0.43013">
        <ele>69</ele>
        <time>2023-04-21T12:52:06Z</time>
      </trkpt>
      <trkpt lat="49.11232" lon="-0.43012">
        <ele>69.4</ele>
        <time>2023-04-21T12:52:07Z</time>
      </trkpt>
      <trkpt lat="49.11235" lon="-0.43011">
        <ele>69.4</ele>
        <time>2023-04-21T12:52:08Z</time>
      </trkpt>
      <trkpt lat="49.11239" lon="-0.43009">
        <ele>69.6</ele>
        <time>2023-04-21T12:52:09Z</time>
      </trkpt>
      <trkpt lat="49.11243" lon="-0.43008">
        <ele>69.8</ele>
        <time>2023-04-21T12:52:10Z</time>
      </trkpt>
      <trkpt lat="49.11247" lon="-0.43007">
        <ele>70</ele>
        <time>2023-04-21T12:52:11Z</time>
      </trkpt>
      <trkpt lat="49.11251" lon="-0.43005">
        <ele>70</ele>
        <time>2023-04-21T12:52:12Z</time>
      </trkpt>
      <trkpt lat="49.11254" lon="-0.43004">
        <ele>70.2</ele>
        <time>2023-04-21T12:52:13Z</time>
      </trkpt>
      <trkpt lat="49.11258" lon="-0.43003">
        <ele>70.2</ele>
        <time>2023-04-21T12:52:14Z</time>
      </trkpt>
      <trkpt lat="49.11263" lon="-0.43002">
        <ele>70.4</ele>
        <time>2023-04-21T12:52:15Z</time>
      </trkpt>
      <trkpt lat="49.11267" lon="-0.43">
        <ele>70.4</ele>
        <time>2023-04-21T12:52:16Z</time>
      </trkpt>
      <trkpt lat="49.11272" lon="-0.42999">
        <ele>70.6</ele>
        <time>2023-04-21T12:52:17Z</time>
      </trkpt>
      <trkpt lat="49.11276" lon="-0.42998">
        <ele>70.6</ele>
        <time>2023-04-21T12:52:18Z</time>
      </trkpt>
      <trkpt lat="49.1128" lon="-0.42996">
        <ele>70.6</ele>
        <time>2023-04-21T12:52:19Z</time>
      </trkpt>
      <trkpt lat="49.11284" lon="-0.42995">
        <ele>70.6</ele>
        <time>2023-04-21T12:52:20Z</time>
      </trkpt>
      <trkpt lat="49.11288" lon="-0.42993">
        <ele>70.6</ele>
        <time>2023-04-21T12:52:21Z</time>
      </trkpt>
      <trkpt lat="49.11292" lon="-0.42992">
        <ele>70.8</ele>
        <time>2023-04-21T12:52:22Z</time>
      </trkpt>
      <trkpt lat="49.11296" lon="-0.4299">
        <ele>71</ele>
        <time>2023-04-21T12:52:23Z</time>
      </trkpt>
      <trkpt lat="49.113" lon="-0.42988">
        <ele>71</ele>
        <time>2023-04-21T12:52:24Z</time>
      </trkpt>
      <trkpt lat="49.11304" lon="-0.42987">
        <ele>71</ele>
        <time>2023-04-21T12:52:25Z</time>
      </trkpt>
      <trkpt lat="49.11308" lon="-0.42985">
        <ele>71</ele>
        <time>2023-04-21T12:52:26Z</time>
      </trkpt>
      <trkpt lat="49.11312" lon="-0.42984">
        <ele>71</ele>
        <time>2023-04-21T12:52:27Z</time>
      </trkpt>
      <trkpt lat="49.11316" lon="-0.42982">
        <ele>71.2</ele>
        <time>2023-04-21T12:52:28Z</time>
      </trkpt>
      <trkpt lat="49.1132" lon="-0.42981">
        <ele>71.2</ele>
        <time>2023-04-21T12:52:29Z</time>
      </trkpt>
      <trkpt lat="49.11324" lon="-0.4298">
        <ele>71.4</ele>
        <time>2023-04-21T12:52:30Z</time>
      </trkpt>
      <trkpt lat="49.11328" lon="-0.42978">
        <ele>71.4</ele>
        <time>2023-04-21T12:52:31Z</time>
      </trkpt>
      <trkpt lat="49.11333" lon="-0.42977">
        <ele>71.4</ele>
        <time>2023-04-21T12:52:32Z</time>
      </trkpt>
      <trkpt lat="49.11337" lon="-0.42975">
        <ele>71.6</ele>
        <time>2023-04-21T12:52:33Z</time>
      </trkpt>
      <trkpt lat="49.11341" lon="-0.42974">
        <ele>71.6</ele>
        <time>2023-04-21T12:52:34Z</time>
      </trkpt>
      <trkpt lat="49.11345" lon="-0.42972">
        <ele>71.6</ele>
        <time>2023-04-21T12:52:35Z</time>
      </trkpt>
      <trkpt lat="49.11349" lon="-0.4297">
        <ele>71.6</ele>
        <time>2023-04-21T12:52:36Z</time>
      </trkpt>
      <trkpt lat="49.11353" lon="-0.42969">
        <ele>71.6</ele>
        <time>2023-04-21T12:52:37Z</time>
      </trkpt>
      <trkpt lat="49.11357" lon="-0.42967">
        <ele>71.6</ele>
        <time>2023-04-21T12:52:38Z</time>
      </trkpt>
      <trkpt lat="49.11361" lon="-0.42966">
        <ele>71.6</ele>
        <time>2023-04-21T12:52:39Z</time>
      </trkpt>
      <trkpt lat="49.11365" lon="-0.42964">
        <ele>71.6</ele>
        <time>2023-04-21T12:52:40Z</time>
      </trkpt>
      <trkpt lat="49.11369" lon="-0.42963">
        <ele>71.6</ele>
        <time>2023-04-21T12:52:41Z</time>
      </trkpt>
      <trkpt lat="49.11373" lon="-0.42961">
        <ele>71.8</ele>
        <time>2023-04-21T12:52:42Z</time>
      </trkpt>
      <trkpt lat="49.11377" lon="-0.42959">
        <ele>71.8</ele>
        <time>2023-04-21T12:52:43Z</time>
      </trkpt>
      <trkpt lat="49.11381" lon="-0.42958">
        <ele>72</ele>
        <time>2023-04-21T12:52:44Z</time>
      </trkpt>
      <trkpt lat="49.11386" lon="-0.42956">
        <ele>72</ele>
        <time>2023-04-21T12:52:45Z</time>
      </trkpt>
      <trkpt lat="49.1139" lon="-0.42955">
        <ele>72</ele>
        <time>2023-04-21T12:52:46Z</time>
      </trkpt>
      <trkpt lat="49.11394" lon="-0.42953">
        <ele>72</ele>
        <time>2023-04-21T12:52:47Z</time>
      </trkpt>
      <trkpt lat="49.11398" lon="-0.42952">
        <ele>72</ele>
        <time>2023-04-21T12:52:48Z</time>
      </trkpt>
      <trkpt lat="49.11402" lon="-0.4295">
        <ele>72</ele>
        <time>2023-04-21T12:52:49Z</time>
      </trkpt>
      <trkpt lat="49.11406" lon="-0.42948">
        <ele>72.2</ele>
        <time>2023-04-21T12:52:50Z</time>
      </trkpt>
      <trkpt lat="49.11411" lon="-0.42946">
        <ele>72.2</ele>
        <time>2023-04-21T12:52:51Z</time>
      </trkpt>
      <trkpt lat="49.11415" lon="-0.42945">
        <ele>72.4</ele>
        <time>2023-04-21T12:52:52Z</time>
      </trkpt>
      <trkpt lat="49.11419" lon="-0.42943">
        <ele>72.4</ele>
        <time>2023-04-21T12:52:53Z</time>
      </trkpt>
      <trkpt lat="49.11423" lon="-0.42941">
        <ele>72.4</ele>
        <time>2023-04-21T12:52:54Z</time>
      </trkpt>
      <trkpt lat="49.11428" lon="-0.42939">
        <ele>72.6</ele>
        <time>2023-04-21T12:52:55Z</time>
      </trkpt>
      <trkpt lat="49.11432" lon="-0.42936">
        <ele>72.6</ele>
        <time>2023-04-21T12:52:56Z</time>
      </trkpt>
      <trkpt lat="49.11436" lon="-0.42934">
        <ele>72.6</ele>
        <time>2023-04-21T12:52:57Z</time>
      </trkpt>
      <trkpt lat="49.11441" lon="-0.42931">
        <ele>72.6</ele>
        <time>2023-04-21T12:52:58Z</time>
      </trkpt>
      <trkpt lat="49.11445" lon="-0.42929">
        <ele>72.8</ele>
        <time>2023-04-21T12:52:59Z</time>
      </trkpt>
      <trkpt lat="49.1145" lon="-0.42926">
        <ele>73</ele>
        <time>2023-04-21T12:53:00Z</time>
      </trkpt>
      <trkpt lat="49.11454" lon="-0.42923">
        <ele>73</ele>
        <time>2023-04-21T12:53:01Z</time>
      </trkpt>
      <trkpt lat="49.11459" lon="-0.4292">
        <ele>73</ele>
        <time>2023-04-21T12:53:02Z</time>
      </trkpt>
      <trkpt lat="49.11463" lon="-0.42917">
        <ele>73</ele>
        <time>2023-04-21T12:53:03Z</time>
      </trkpt>
      <trkpt lat="49.11467" lon="-0.42914">
        <ele>73.2</ele>
        <time>2023-04-21T12:53:04Z</time>
      </trkpt>
      <trkpt lat="49.11472" lon="-0.42911">
        <ele>73.4</ele>
        <time>2023-04-21T12:53:05Z</time>
      </trkpt>
      <trkpt lat="49.11476" lon="-0.42908">
        <ele>73.4</ele>
        <time>2023-04-21T12:53:06Z</time>
      </trkpt>
      <trkpt lat="49.1148" lon="-0.42905">
        <ele>73.4</ele>
        <time>2023-04-21T12:53:07Z</time>
      </trkpt>
      <trkpt lat="49.11484" lon="-0.42902">
        <ele>73.6</ele>
        <time>2023-04-21T12:53:08Z</time>
      </trkpt>
      <trkpt lat="49.11488" lon="-0.42899">
        <ele>73.6</ele>
        <time>2023-04-21T12:53:09Z</time>
      </trkpt>
      <trkpt lat="49.11493" lon="-0.42896">
        <ele>73.6</ele>
        <time>2023-04-21T12:53:10Z</time>
      </trkpt>
      <trkpt lat="49.11497" lon="-0.42893">
        <ele>73.6</ele>
        <time>2023-04-21T12:53:11Z</time>
      </trkpt>
      <trkpt lat="49.11501" lon="-0.4289">
        <ele>73.6</ele>
        <time>2023-04-21T12:53:12Z</time>
      </trkpt>
      <trkpt lat="49.11505" lon="-0.42887">
        <ele>73.6</ele>
        <time>2023-04-21T12:53:13Z</time>
      </trkpt>
      <trkpt lat="49.1151" lon="-0.42884">
        <ele>73.6</ele>
        <time>2023-04-21T12:53:14Z</time>
      </trkpt>
      <trkpt lat="49.11514" lon="-0.4288">
        <ele>73.6</ele>
        <time>2023-04-21T12:53:15Z</time>
      </trkpt>
      <trkpt lat="49.11518" lon="-0.42877">
        <ele>73.6</ele>
        <time>2023-04-21T12:53:16Z</time>
      </trkpt>
      <trkpt lat="49.11523" lon="-0.42874">
        <ele>73.8</ele>
        <time>2023-04-21T12:53:17Z</time>
      </trkpt>
      <trkpt lat="49.11527" lon="-0.42871">
        <ele>73.8</ele>
        <time>2023-04-21T12:53:18Z</time>
      </trkpt>
      <trkpt lat="49.11532" lon="-0.42867">
        <ele>73.8</ele>
        <time>2023-04-21T12:53:19Z</time>
      </trkpt>
      <trkpt lat="49.11537" lon="-0.42864">
        <ele>73.8</ele>
        <time>2023-04-21T12:53:20Z</time>
      </trkpt>
      <trkpt lat="49.11541" lon="-0.4286">
        <ele>73.8</ele>
        <time>2023-04-21T12:53:21Z</time>
      </trkpt>
      <trkpt lat="49.11546" lon="-0.42857">
        <ele>73.8</ele>
        <time>2023-04-21T12:53:22Z</time>
      </trkpt>
      <trkpt lat="49.1155" lon="-0.42854">
        <ele>73.8</ele>
        <time>2023-04-21T12:53:23Z</time>
      </trkpt>
      <trkpt lat="49.11555" lon="-0.4285">
        <ele>74</ele>
        <time>2023-04-21T12:53:24Z</time>
      </trkpt>
      <trkpt lat="49.1156" lon="-0.42847">
        <ele>74</ele>
        <time>2023-04-21T12:53:25Z</time>
      </trkpt>
      <trkpt lat="49.11564" lon="-0.42843">
        <ele>74</ele>
        <time>2023-04-21T12:53:26Z</time>
      </trkpt>
      <trkpt lat="49.11569" lon="-0.4284">
        <ele>74</ele>
        <time>2023-04-21T12:53:27Z</time>
      </trkpt>
      <trkpt lat="49.11574" lon="-0.42836">
        <ele>74</ele>
        <time>2023-04-21T12:53:28Z</time>
      </trkpt>
      <trkpt lat="49.11579" lon="-0.42833">
        <ele>74</ele>
        <time>2023-04-21T12:53:29Z</time>
      </trkpt>
      <trkpt lat="49.11584" lon="-0.42829">
        <ele>74</ele>
        <time>2023-04-21T12:53:30Z</time>
      </trkpt>
      <trkpt lat="49.11589" lon="-0.42826">
        <ele>74</ele>
        <time>2023-04-21T12:53:31Z</time>
      </trkpt>
      <trkpt lat="49.11594" lon="-0.42822">
        <ele>74</ele>
        <time>2023-04-21T12:53:32Z</time>
      </trkpt>
      <trkpt lat="49.11599" lon="-0.42819">
        <ele>74</ele>
        <time>2023-04-21T12:53:33Z</time>
      </trkpt>
      <trkpt lat="49.11604" lon="-0.42815">
        <ele>74</ele>
        <time>2023-04-21T12:53:34Z</time>
      </trkpt>
      <trkpt lat="49.11609" lon="-0.42811">
        <ele>74</ele>
        <time>2023-04-21T12:53:35Z</time>
      </trkpt>
      <trkpt lat="49.11614" lon="-0.42808">
        <ele>74</ele>
        <time>2023-04-21T12:53:36Z</time>
      </trkpt>
      <trkpt lat="49.11619" lon="-0.42804">
        <ele>74</ele>
        <time>2023-04-21T12:53:37Z</time>
      </trkpt>
      <trkpt lat="49.11625" lon="-0.428">
        <ele>74</ele>
        <time>2023-04-21T12:53:38Z</time>
      </trkpt>
      <trkpt lat="49.1163" lon="-0.42796">
        <ele>74</ele>
        <time>2023-04-21T12:53:39Z</time>
      </trkpt>
      <trkpt lat="49.11635" lon="-0.42792">
        <ele>73.8</ele>
        <time>2023-04-21T12:53:40Z</time>
      </trkpt>
      <trkpt lat="49.11641" lon="-0.42788">
        <ele>73.8</ele>
        <time>2023-04-21T12:53:41Z</time>
      </trkpt>
      <trkpt lat="49.11646" lon="-0.42783">
        <ele>73.6</ele>
        <time>2023-04-21T12:53:42Z</time>
      </trkpt>
      <trkpt lat="49.11652" lon="-0.42779">
        <ele>73.6</ele>
        <time>2023-04-21T12:53:43Z</time>
      </trkpt>
      <trkpt lat="49.11657" lon="-0.42775">
        <ele>73.6</ele>
        <time>2023-04-21T12:53:44Z</time>
      </trkpt>
      <trkpt lat="49.11663" lon="-0.4277">
        <ele>73.6</ele>
        <time>2023-04-21T12:53:45Z</time>
      </trkpt>
      <trkpt lat="49.11668" lon="-0.42765">
        <ele>73.4</ele>
        <time>2023-04-21T12:53:46Z</time>
      </trkpt>
      <trkpt lat="49.11674" lon="-0.4276">
        <ele>73.2</ele>
        <time>2023-04-21T12:53:47Z</time>
      </trkpt>
      <trkpt lat="49.11679" lon="-0.42755">
        <ele>73</ele>
        <time>2023-04-21T12:53:48Z</time>
      </trkpt>
      <trkpt lat="49.11685" lon="-0.4275">
        <ele>73</ele>
        <time>2023-04-21T12:53:49Z</time>
      </trkpt>
      <trkpt lat="49.1169" lon="-0.42745">
        <ele>73</ele>
        <time>2023-04-21T12:53:50Z</time>
      </trkpt>
      <trkpt lat="49.11695" lon="-0.4274">
        <ele>72.8</ele>
        <time>2023-04-21T12:53:51Z</time>
      </trkpt>
      <trkpt lat="49.11701" lon="-0.42734">
        <ele>72.6</ele>
        <time>2023-04-21T12:53:52Z</time>
      </trkpt>
      <trkpt lat="49.11706" lon="-0.42729">
        <ele>72.6</ele>
        <time>2023-04-21T12:53:53Z</time>
      </trkpt>
      <trkpt lat="49.11711" lon="-0.42723">
        <ele>72.6</ele>
        <time>2023-04-21T12:53:54Z</time>
      </trkpt>
      <trkpt lat="49.11717" lon="-0.42717">
        <ele>72.6</ele>
        <time>2023-04-21T12:53:55Z</time>
      </trkpt>
      <trkpt lat="49.11722" lon="-0.42711">
        <ele>72.4</ele>
        <time>2023-04-21T12:53:56Z</time>
      </trkpt>
      <trkpt lat="49.11727" lon="-0.42705">
        <ele>72.4</ele>
        <time>2023-04-21T12:53:57Z</time>
      </trkpt>
      <trkpt lat="49.11733" lon="-0.42699">
        <ele>72.4</ele>
        <time>2023-04-21T12:53:58Z</time>
      </trkpt>
      <trkpt lat="49.11738" lon="-0.42693">
        <ele>72.2</ele>
        <time>2023-04-21T12:53:59Z</time>
      </trkpt>
      <trkpt lat="49.11743" lon="-0.42687">
        <ele>72.2</ele>
        <time>2023-04-21T12:54:00Z</time>
      </trkpt>
      <trkpt lat="49.11749" lon="-0.4268">
        <ele>72.2</ele>
        <time>2023-04-21T12:54:01Z</time>
      </trkpt>
      <trkpt lat="49.11754" lon="-0.42674">
        <ele>72</ele>
        <time>2023-04-21T12:54:02Z</time>
      </trkpt>
      <trkpt lat="49.11759" lon="-0.42668">
        <ele>72</ele>
        <time>2023-04-21T12:54:03Z</time>
      </trkpt>
      <trkpt lat="49.11765" lon="-0.42662">
        <ele>72</ele>
        <time>2023-04-21T12:54:04Z</time>
      </trkpt>
      <trkpt lat="49.1177" lon="-0.42655">
        <ele>72</ele>
        <time>2023-04-21T12:54:05Z</time>
      </trkpt>
      <trkpt lat="49.11776" lon="-0.42649">
        <ele>72</ele>
        <time>2023-04-21T12:54:06Z</time>
      </trkpt>
      <trkpt lat="49.11781" lon="-0.42643">
        <ele>71.8</ele>
        <time>2023-04-21T12:54:07Z</time>
      </trkpt>
      <trkpt lat="49.11786" lon="-0.42637">
        <ele>71.8</ele>
        <time>2023-04-21T12:54:08Z</time>
      </trkpt>
      <trkpt lat="49.11792" lon="-0.42631">
        <ele>71.8</ele>
        <time>2023-04-21T12:54:09Z</time>
      </trkpt>
      <trkpt lat="49.11797" lon="-0.42625">
        <ele>71.8</ele>
        <time>2023-04-21T12:54:10Z</time>
      </trkpt>
      <trkpt lat="49.11803" lon="-0.42618">
        <ele>71.8</ele>
        <time>2023-04-21T12:54:11Z</time>
      </trkpt>
      <trkpt lat="49.11808" lon="-0.42612">
        <ele>71.8</ele>
        <time>2023-04-21T12:54:12Z</time>
      </trkpt>
      <trkpt lat="49.11813" lon="-0.42606">
        <ele>71.8</ele>
        <time>2023-04-21T12:54:13Z</time>
      </trkpt>
      <trkpt lat="49.11819" lon="-0.426">
        <ele>72</ele>
        <time>2023-04-21T12:54:14Z</time>
      </trkpt>
      <trkpt lat="49.11824" lon="-0.42594">
        <ele>72</ele>
        <time>2023-04-21T12:54:15Z</time>
      </trkpt>
      <trkpt lat="49.11829" lon="-0.42588">
        <ele>72</ele>
        <time>2023-04-21T12:54:16Z</time>
      </trkpt>
      <trkpt lat="49.11834" lon="-0.42582">
        <ele>72</ele>
        <time>2023-04-21T12:54:17Z</time>
      </trkpt>
      <trkpt lat="49.1184" lon="-0.42576">
        <ele>72</ele>
        <time>2023-04-21T12:54:18Z</time>
      </trkpt>
      <trkpt lat="49.11845" lon="-0.42571">
        <ele>72</ele>
        <time>2023-04-21T12:54:19Z</time>
      </trkpt>
      <trkpt lat="49.1185" lon="-0.42565">
        <ele>72.2</ele>
        <time>2023-04-21T12:54:20Z</time>
      </trkpt>
      <trkpt lat="49.11855" lon="-0.42559">
        <ele>72.2</ele>
        <time>2023-04-21T12:54:21Z</time>
      </trkpt>
      <trkpt lat="49.11861" lon="-0.42554">
        <ele>72.4</ele>
        <time>2023-04-21T12:54:22Z</time>
      </trkpt>
      <trkpt lat="49.11866" lon="-0.42548">
        <ele>72.4</ele>
        <time>2023-04-21T12:54:23Z</time>
      </trkpt>
      <trkpt lat="49.11871" lon="-0.42543">
        <ele>72.4</ele>
        <time>2023-04-21T12:54:24Z</time>
      </trkpt>
      <trkpt lat="49.11877" lon="-0.42538">
        <ele>72.6</ele>
        <time>2023-04-21T12:54:25Z</time>
      </trkpt>
      <trkpt lat="49.11882" lon="-0.42533">
        <ele>72.6</ele>
        <time>2023-04-21T12:54:26Z</time>
      </trkpt>
      <trkpt lat="49.11888" lon="-0.42528">
        <ele>72.6</ele>
        <time>2023-04-21T12:54:27Z</time>
      </trkpt>
      <trkpt lat="49.11894" lon="-0.42523">
        <ele>72.6</ele>
        <time>2023-04-21T12:54:28Z</time>
      </trkpt>
      <trkpt lat="49.11899" lon="-0.42518">
        <ele>72.8</ele>
        <time>2023-04-21T12:54:29Z</time>
      </trkpt>
      <trkpt lat="49.11905" lon="-0.42514">
        <ele>73</ele>
        <time>2023-04-21T12:54:30Z</time>
      </trkpt>
      <trkpt lat="49.11911" lon="-0.42509">
        <ele>73</ele>
        <time>2023-04-21T12:54:31Z</time>
      </trkpt>
      <trkpt lat="49.11916" lon="-0.42505">
        <ele>73</ele>
        <time>2023-04-21T12:54:32Z</time>
      </trkpt>
      <trkpt lat="49.11922" lon="-0.42501">
        <ele>73</ele>
        <time>2023-04-21T12:54:33Z</time>
      </trkpt>
      <trkpt lat="49.11928" lon="-0.42497">
        <ele>72.6</ele>
        <time>2023-04-21T12:54:34Z</time>
      </trkpt>
      <trkpt lat="49.11933" lon="-0.42492">
        <ele>72.4</ele>
        <time>2023-04-21T12:54:35Z</time>
      </trkpt>
      <trkpt lat="49.11939" lon="-0.42488">
        <ele>72.2</ele>
        <time>2023-04-21T12:54:36Z</time>
      </trkpt>
      <trkpt lat="49.11945" lon="-0.42484">
        <ele>72</ele>
        <time>2023-04-21T12:54:37Z</time>
      </trkpt>
      <trkpt lat="49.11951" lon="-0.4248">
        <ele>71.8</ele>
        <time>2023-04-21T12:54:38Z</time>
      </trkpt>
      <trkpt lat="49.11957" lon="-0.42476">
        <ele>71.6</ele>
        <time>2023-04-21T12:54:39Z</time>
      </trkpt>
      <trkpt lat="49.11962" lon="-0.42472">
        <ele>71.6</ele>
        <time>2023-04-21T12:54:40Z</time>
      </trkpt>
      <trkpt lat="49.11968" lon="-0.42468">
        <ele>71.4</ele>
        <time>2023-04-21T12:54:41Z</time>
      </trkpt>
      <trkpt lat="49.11974" lon="-0.42464">
        <ele>71.2</ele>
        <time>2023-04-21T12:54:42Z</time>
      </trkpt>
      <trkpt lat="49.1198" lon="-0.4246">
        <ele>71</ele>
        <time>2023-04-21T12:54:43Z</time>
      </trkpt>
      <trkpt lat="49.11986" lon="-0.42456">
        <ele>71</ele>
        <time>2023-04-21T12:54:44Z</time>
      </trkpt>
      <trkpt lat="49.11992" lon="-0.42451">
        <ele>71</ele>
        <time>2023-04-21T12:54:45Z</time>
      </trkpt>
      <trkpt lat="49.11999" lon="-0.42447">
        <ele>71</ele>
        <time>2023-04-21T12:54:46Z</time>
      </trkpt>
      <trkpt lat="49.12005" lon="-0.42443">
        <ele>71</ele>
        <time>2023-04-21T12:54:47Z</time>
      </trkpt>
      <trkpt lat="49.12011" lon="-0.42439">
        <ele>71</ele>
        <time>2023-04-21T12:54:48Z</time>
      </trkpt>
      <trkpt lat="49.12017" lon="-0.42434">
        <ele>70.8</ele>
        <time>2023-04-21T12:54:49Z</time>
      </trkpt>
      <trkpt lat="49.12023" lon="-0.4243">
        <ele>70.6</ele>
        <time>2023-04-21T12:54:50Z</time>
      </trkpt>
      <trkpt lat="49.12029" lon="-0.42426">
        <ele>70.6</ele>
        <time>2023-04-21T12:54:51Z</time>
      </trkpt>
      <trkpt lat="49.12035" lon="-0.42422">
        <ele>70.6</ele>
        <time>2023-04-21T12:54:52Z</time>
      </trkpt>
      <trkpt lat="49.12041" lon="-0.42418">
        <ele>70.6</ele>
        <time>2023-04-21T12:54:53Z</time>
      </trkpt>
      <trkpt lat="49.12047" lon="-0.42414">
        <ele>70.4</ele>
        <time>2023-04-21T12:54:54Z</time>
      </trkpt>
      <trkpt lat="49.12053" lon="-0.4241">
        <ele>70.2</ele>
        <time>2023-04-21T12:54:55Z</time>
      </trkpt>
      <trkpt lat="49.12059" lon="-0.42405">
        <ele>70</ele>
        <time>2023-04-21T12:54:56Z</time>
      </trkpt>
      <trkpt lat="49.12065" lon="-0.42401">
        <ele>70</ele>
        <time>2023-04-21T12:54:57Z</time>
      </trkpt>
      <trkpt lat="49.12072" lon="-0.42397">
        <ele>69.6</ele>
        <time>2023-04-21T12:54:58Z</time>
      </trkpt>
      <trkpt lat="49.12078" lon="-0.42392">
        <ele>69.6</ele>
        <time>2023-04-21T12:54:59Z</time>
      </trkpt>
      <trkpt lat="49.12084" lon="-0.42388">
        <ele>69.4</ele>
        <time>2023-04-21T12:55:00Z</time>
      </trkpt>
      <trkpt lat="49.1209" lon="-0.42384">
        <ele>69.2</ele>
        <time>2023-04-21T12:55:01Z</time>
      </trkpt>
      <trkpt lat="49.12096" lon="-0.42379">
        <ele>69</ele>
        <time>2023-04-21T12:55:02Z</time>
      </trkpt>
      <trkpt lat="49.12103" lon="-0.42375">
        <ele>69</ele>
        <time>2023-04-21T12:55:03Z</time>
      </trkpt>
      <trkpt lat="49.12109" lon="-0.4237">
        <ele>69</ele>
        <time>2023-04-21T12:55:04Z</time>
      </trkpt>
      <trkpt lat="49.12115" lon="-0.42366">
        <ele>69</ele>
        <time>2023-04-21T12:55:05Z</time>
      </trkpt>
      <trkpt lat="49.12122" lon="-0.42361">
        <ele>68.8</ele>
        <time>2023-04-21T12:55:06Z</time>
      </trkpt>
      <trkpt lat="49.12128" lon="-0.42357">
        <ele>68.8</ele>
        <time>2023-04-21T12:55:07Z</time>
      </trkpt>
      <trkpt lat="49.12135" lon="-0.42353">
        <ele>68.8</ele>
        <time>2023-04-21T12:55:08Z</time>
      </trkpt>
      <trkpt lat="49.12142" lon="-0.42349">
        <ele>68.8</ele>
        <time>2023-04-21T12:55:09Z</time>
      </trkpt>
      <trkpt lat="49.12148" lon="-0.42346">
        <ele>68.8</ele>
        <time>2023-04-21T12:55:10Z</time>
      </trkpt>
      <trkpt lat="49.12155" lon="-0.42343">
        <ele>69</ele>
        <time>2023-04-21T12:55:11Z</time>
      </trkpt>
      <trkpt lat="49.12163" lon="-0.42341">
        <ele>69</ele>
        <time>2023-04-21T12:55:12Z</time>
      </trkpt>
      <trkpt lat="49.1217" lon="-0.42339">
        <ele>69</ele>
        <time>2023-04-21T12:55:13Z</time>
      </trkpt>
      <trkpt lat="49.12177" lon="-0.42338">
        <ele>69</ele>
        <time>2023-04-21T12:55:14Z</time>
      </trkpt>
      <trkpt lat="49.12184" lon="-0.42337">
        <ele>68.8</ele>
        <time>2023-04-21T12:55:15Z</time>
      </trkpt>
      <trkpt lat="49.12191" lon="-0.42337">
        <ele>68.6</ele>
        <time>2023-04-21T12:55:16Z</time>
      </trkpt>
      <trkpt lat="49.12199" lon="-0.42337">
        <ele>68.6</ele>
        <time>2023-04-21T12:55:17Z</time>
      </trkpt>
      <trkpt lat="49.12206" lon="-0.42337">
        <ele>68.6</ele>
        <time>2023-04-21T12:55:18Z</time>
      </trkpt>
      <trkpt lat="49.12213" lon="-0.42337">
        <ele>68.4</ele>
        <time>2023-04-21T12:55:19Z</time>
      </trkpt>
      <trkpt lat="49.12221" lon="-0.42338">
        <ele>68.4</ele>
        <time>2023-04-21T12:55:20Z</time>
      </trkpt>
      <trkpt lat="49.12228" lon="-0.42339">
        <ele>68.4</ele>
        <time>2023-04-21T12:55:21Z</time>
      </trkpt>
      <trkpt lat="49.12235" lon="-0.42339">
        <ele>68.2</ele>
        <time>2023-04-21T12:55:22Z</time>
      </trkpt>
      <trkpt lat="49.12242" lon="-0.4234">
        <ele>68</ele>
        <time>2023-04-21T12:55:23Z</time>
      </trkpt>
      <trkpt lat="49.1225" lon="-0.42341">
        <ele>68</ele>
        <time>2023-04-21T12:55:24Z</time>
      </trkpt>
      <trkpt lat="49.12257" lon="-0.42342">
        <ele>67.8</ele>
        <time>2023-04-21T12:55:25Z</time>
      </trkpt>
      <trkpt lat="49.12264" lon="-0.42343">
        <ele>67.6</ele>
        <time>2023-04-21T12:55:26Z</time>
      </trkpt>
      <trkpt lat="49.12271" lon="-0.42344">
        <ele>67.6</ele>
        <time>2023-04-21T12:55:27Z</time>
      </trkpt>
      <trkpt lat="49.12278" lon="-0.42345">
        <ele>67.4</ele>
        <time>2023-04-21T12:55:28Z</time>
      </trkpt>
      <trkpt lat="49.12285" lon="-0.42346">
        <ele>67.2</ele>
        <time>2023-04-21T12:55:29Z</time>
      </trkpt>
      <trkpt lat="49.12293" lon="-0.42348">
        <ele>67</ele>
        <time>2023-04-21T12:55:30Z</time>
      </trkpt>
      <trkpt lat="49.123" lon="-0.42349">
        <ele>67</ele>
        <time>2023-04-21T12:55:31Z</time>
      </trkpt>
      <trkpt lat="49.12307" lon="-0.42351">
        <ele>66.8</ele>
        <time>2023-04-21T12:55:32Z</time>
      </trkpt>
      <trkpt lat="49.12314" lon="-0.42353">
        <ele>66.6</ele>
        <time>2023-04-21T12:55:33Z</time>
      </trkpt>
      <trkpt lat="49.12321" lon="-0.42355">
        <ele>66.6</ele>
        <time>2023-04-21T12:55:34Z</time>
      </trkpt>
      <trkpt lat="49.12328" lon="-0.42356">
        <ele>66.4</ele>
        <time>2023-04-21T12:55:35Z</time>
      </trkpt>
      <trkpt lat="49.12334" lon="-0.42358">
        <ele>66.4</ele>
        <time>2023-04-21T12:55:36Z</time>
      </trkpt>
      <trkpt lat="49.12341" lon="-0.4236">
        <ele>66.4</ele>
        <time>2023-04-21T12:55:37Z</time>
      </trkpt>
      <trkpt lat="49.12348" lon="-0.42362">
        <ele>66.4</ele>
        <time>2023-04-21T12:55:38Z</time>
      </trkpt>
      <trkpt lat="49.12355" lon="-0.42363">
        <ele>66.4</ele>
        <time>2023-04-21T12:55:39Z</time>
      </trkpt>
      <trkpt lat="49.12362" lon="-0.42365">
        <ele>66.2</ele>
        <time>2023-04-21T12:55:40Z</time>
      </trkpt>
      <trkpt lat="49.12369" lon="-0.42366">
        <ele>66.2</ele>
        <time>2023-04-21T12:55:41Z</time>
      </trkpt>
      <trkpt lat="49.12376" lon="-0.42368">
        <ele>66.2</ele>
        <time>2023-04-21T12:55:42Z</time>
      </trkpt>
      <trkpt lat="49.12382" lon="-0.4237">
        <ele>66.2</ele>
        <time>2023-04-21T12:55:43Z</time>
      </trkpt>
      <trkpt lat="49.12389" lon="-0.42371">
        <ele>66</ele>
        <time>2023-04-21T12:55:44Z</time>
      </trkpt>
      <trkpt lat="49.12396" lon="-0.42373">
        <ele>66</ele>
        <time>2023-04-21T12:55:45Z</time>
      </trkpt>
      <trkpt lat="49.12403" lon="-0.42375">
        <ele>66</ele>
        <time>2023-04-21T12:55:46Z</time>
      </trkpt>
      <trkpt lat="49.1241" lon="-0.42376">
        <ele>66</ele>
        <time>2023-04-21T12:55:47Z</time>
      </trkpt>
      <trkpt lat="49.12416" lon="-0.42378">
        <ele>66</ele>
        <time>2023-04-21T12:55:48Z</time>
      </trkpt>
      <trkpt lat="49.12423" lon="-0.42379">
        <ele>65.8</ele>
        <time>2023-04-21T12:55:49Z</time>
      </trkpt>
      <trkpt lat="49.1243" lon="-0.42381">
        <ele>65.6</ele>
        <time>2023-04-21T12:55:50Z</time>
      </trkpt>
      <trkpt lat="49.12437" lon="-0.42382">
        <ele>65.6</ele>
        <time>2023-04-21T12:55:51Z</time>
      </trkpt>
      <trkpt lat="49.12444" lon="-0.42383">
        <ele>65.4</ele>
        <time>2023-04-21T12:55:52Z</time>
      </trkpt>
      <trkpt lat="49.12451" lon="-0.42384">
        <ele>65.2</ele>
        <time>2023-04-21T12:55:53Z</time>
      </trkpt>
      <trkpt lat="49.12458" lon="-0.42385">
        <ele>65</ele>
        <time>2023-04-21T12:55:54Z</time>
      </trkpt>
      <trkpt lat="49.12465" lon="-0.42386">
        <ele>64.8</ele>
        <time>2023-04-21T12:55:55Z</time>
      </trkpt>
      <trkpt lat="49.12472" lon="-0.42387">
        <ele>64.6</ele>
        <time>2023-04-21T12:55:56Z</time>
      </trkpt>
      <trkpt lat="49.12479" lon="-0.42388">
        <ele>64.6</ele>
        <time>2023-04-21T12:55:57Z</time>
      </trkpt>
      <trkpt lat="49.12487" lon="-0.42389">
        <ele>64.4</ele>
        <time>2023-04-21T12:55:58Z</time>
      </trkpt>
      <trkpt lat="49.12494" lon="-0.4239">
        <ele>64</ele>
        <time>2023-04-21T12:55:59Z</time>
      </trkpt>
      <trkpt lat="49.12502" lon="-0.42391">
        <ele>64</ele>
        <time>2023-04-21T12:56:00Z</time>
      </trkpt>
      <trkpt lat="49.1251" lon="-0.42391">
        <ele>63.8</ele>
        <time>2023-04-21T12:56:01Z</time>
      </trkpt>
      <trkpt lat="49.12518" lon="-0.42392">
        <ele>63.6</ele>
        <time>2023-04-21T12:56:02Z</time>
      </trkpt>
      <trkpt lat="49.12527" lon="-0.42392">
        <ele>63.6</ele>
        <time>2023-04-21T12:56:03Z</time>
      </trkpt>
      <trkpt lat="49.12535" lon="-0.42393">
        <ele>63.2</ele>
        <time>2023-04-21T12:56:04Z</time>
      </trkpt>
      <trkpt lat="49.12544" lon="-0.42393">
        <ele>63</ele>
        <time>2023-04-21T12:56:05Z</time>
      </trkpt>
      <trkpt lat="49.12552" lon="-0.42393">
        <ele>63</ele>
        <time>2023-04-21T12:56:06Z</time>
      </trkpt>
      <trkpt lat="49.12561" lon="-0.42393">
        <ele>62.8</ele>
        <time>2023-04-21T12:56:07Z</time>
      </trkpt>
      <trkpt lat="49.1257" lon="-0.42394">
        <ele>62.6</ele>
        <time>2023-04-21T12:56:08Z</time>
      </trkpt>
      <trkpt lat="49.12578" lon="-0.42395">
        <ele>62.4</ele>
        <time>2023-04-21T12:56:09Z</time>
      </trkpt>
      <trkpt lat="49.12587" lon="-0.42397">
        <ele>62.2</ele>
        <time>2023-04-21T12:56:10Z</time>
      </trkpt>
      <trkpt lat="49.12596" lon="-0.42398">
        <ele>62</ele>
        <time>2023-04-21T12:56:11Z</time>
      </trkpt>
      <trkpt lat="49.12604" lon="-0.424">
        <ele>62</ele>
        <time>2023-04-21T12:56:12Z</time>
      </trkpt>
      <trkpt lat="49.12613" lon="-0.42401">
        <ele>62</ele>
        <time>2023-04-21T12:56:13Z</time>
      </trkpt>
      <trkpt lat="49.12621" lon="-0.42402">
        <ele>61.8</ele>
        <time>2023-04-21T12:56:14Z</time>
      </trkpt>
      <trkpt lat="49.1263" lon="-0.42403">
        <ele>61.8</ele>
        <time>2023-04-21T12:56:15Z</time>
      </trkpt>
      <trkpt lat="49.12638" lon="-0.42403">
        <ele>61.6</ele>
        <time>2023-04-21T12:56:16Z</time>
      </trkpt>
      <trkpt lat="49.12646" lon="-0.42403">
        <ele>61.6</ele>
        <time>2023-04-21T12:56:17Z</time>
      </trkpt>
      <trkpt lat="49.12655" lon="-0.42402">
        <ele>61.6</ele>
        <time>2023-04-21T12:56:18Z</time>
      </trkpt>
      <trkpt lat="49.12663" lon="-0.42401">
        <ele>61.4</ele>
        <time>2023-04-21T12:56:19Z</time>
      </trkpt>
      <trkpt lat="49.12671" lon="-0.424">
        <ele>61.4</ele>
        <time>2023-04-21T12:56:20Z</time>
      </trkpt>
      <trkpt lat="49.12678" lon="-0.42398">
        <ele>61.6</ele>
        <time>2023-04-21T12:56:21Z</time>
      </trkpt>
      <trkpt lat="49.12686" lon="-0.42397">
        <ele>61.6</ele>
        <time>2023-04-21T12:56:22Z</time>
      </trkpt>
      <trkpt lat="49.12693" lon="-0.42397">
        <ele>61.8</ele>
        <time>2023-04-21T12:56:23Z</time>
      </trkpt>
      <trkpt lat="49.12701" lon="-0.42396">
        <ele>61.8</ele>
        <time>2023-04-21T12:56:24Z</time>
      </trkpt>
      <trkpt lat="49.12708" lon="-0.42397">
        <ele>62</ele>
        <time>2023-04-21T12:56:25Z</time>
      </trkpt>
      <trkpt lat="49.12714" lon="-0.42397">
        <ele>62</ele>
        <time>2023-04-21T12:56:26Z</time>
      </trkpt>
      <trkpt lat="49.1272" lon="-0.42398">
        <ele>62</ele>
        <time>2023-04-21T12:56:27Z</time>
      </trkpt>
      <trkpt lat="49.12727" lon="-0.42398">
        <ele>62</ele>
        <time>2023-04-21T12:56:28Z</time>
      </trkpt>
      <trkpt lat="49.12732" lon="-0.42398">
        <ele>62</ele>
        <time>2023-04-21T12:56:29Z</time>
      </trkpt>
      <trkpt lat="49.12738" lon="-0.42398">
        <ele>62</ele>
        <time>2023-04-21T12:56:30Z</time>
      </trkpt>
      <trkpt lat="49.12744" lon="-0.42396">
        <ele>62.2</ele>
        <time>2023-04-21T12:56:31Z</time>
      </trkpt>
      <trkpt lat="49.12749" lon="-0.42394">
        <ele>62.2</ele>
        <time>2023-04-21T12:56:32Z</time>
      </trkpt>
      <trkpt lat="49.12754" lon="-0.4239">
        <ele>62.4</ele>
        <time>2023-04-21T12:56:33Z</time>
      </trkpt>
      <trkpt lat="49.12758" lon="-0.42385">
        <ele>62.6</ele>
        <time>2023-04-21T12:56:34Z</time>
      </trkpt>
      <trkpt lat="49.12761" lon="-0.4238">
        <ele>62.8</ele>
        <time>2023-04-21T12:56:35Z</time>
      </trkpt>
      <trkpt lat="49.12763" lon="-0.42373">
        <ele>62.8</ele>
        <time>2023-04-21T12:56:36Z</time>
      </trkpt>
      <trkpt lat="49.12765" lon="-0.42366">
        <ele>63</ele>
        <time>2023-04-21T12:56:37Z</time>
      </trkpt>
      <trkpt lat="49.12769" lon="-0.4236">
        <ele>63</ele>
        <time>2023-04-21T12:56:38Z</time>
      </trkpt>
      <trkpt lat="49.12773" lon="-0.42355">
        <ele>63.2</ele>
        <time>2023-04-21T12:56:39Z</time>
      </trkpt>
      <trkpt lat="49.12778" lon="-0.42351">
        <ele>63.2</ele>
        <time>2023-04-21T12:56:40Z</time>
      </trkpt>
      <trkpt lat="49.12783" lon="-0.42348">
        <ele>63.4</ele>
        <time>2023-04-21T12:56:41Z</time>
      </trkpt>
      <trkpt lat="49.12788" lon="-0.42344">
        <ele>63.4</ele>
        <time>2023-04-21T12:56:42Z</time>
      </trkpt>
      <trkpt lat="49.12793" lon="-0.4234">
        <ele>63.6</ele>
        <time>2023-04-21T12:56:43Z</time>
      </trkpt>
      <trkpt lat="49.12797" lon="-0.42335">
        <ele>63.6</ele>
        <time>2023-04-21T12:56:44Z</time>
      </trkpt>
      <trkpt lat="49.12802" lon="-0.42331">
        <ele>63.6</ele>
        <time>2023-04-21T12:56:45Z</time>
      </trkpt>
      <trkpt lat="49.12807" lon="-0.42326">
        <ele>63.6</ele>
        <time>2023-04-21T12:56:46Z</time>
      </trkpt>
      <trkpt lat="49.12812" lon="-0.42321">
        <ele>63.4</ele>
        <time>2023-04-21T12:56:47Z</time>
      </trkpt>
      <trkpt lat="49.12817" lon="-0.42316">
        <ele>63.2</ele>
        <time>2023-04-21T12:56:48Z</time>
      </trkpt>
      <trkpt lat="49.12822" lon="-0.42311">
        <ele>63</ele>
        <time>2023-04-21T12:56:49Z</time>
      </trkpt>
      <trkpt lat="49.12827" lon="-0.42306">
        <ele>63</ele>
        <time>2023-04-21T12:56:50Z</time>
      </trkpt>
      <trkpt lat="49.12833" lon="-0.423">
        <ele>62.8</ele>
        <time>2023-04-21T12:56:51Z</time>
      </trkpt>
      <trkpt lat="49.12838" lon="-0.42295">
        <ele>62.6</ele>
        <time>2023-04-21T12:56:52Z</time>
      </trkpt>
      <trkpt lat="49.12843" lon="-0.42289">
        <ele>62.4</ele>
        <time>2023-04-21T12:56:53Z</time>
      </trkpt>
      <trkpt lat="49.12849" lon="-0.42283">
        <ele>62</ele>
        <time>2023-04-21T12:56:54Z</time>
      </trkpt>
      <trkpt lat="49.12854" lon="-0.42277">
        <ele>62</ele>
        <time>2023-04-21T12:56:55Z</time>
      </trkpt>
      <trkpt lat="49.1286" lon="-0.42271">
        <ele>61.8</ele>
        <time>2023-04-21T12:56:56Z</time>
      </trkpt>
      <trkpt lat="49.12865" lon="-0.42265">
        <ele>61.6</ele>
        <time>2023-04-21T12:56:57Z</time>
      </trkpt>
      <trkpt lat="49.12871" lon="-0.42258">
        <ele>61.2</ele>
        <time>2023-04-21T12:56:58Z</time>
      </trkpt>
      <trkpt lat="49.12876" lon="-0.42251">
        <ele>61</ele>
        <time>2023-04-21T12:56:59Z</time>
      </trkpt>
      <trkpt lat="49.12882" lon="-0.42245">
        <ele>60.8</ele>
        <time>2023-04-21T12:57:00Z</time>
      </trkpt>
      <trkpt lat="49.12887" lon="-0.42238">
        <ele>60.6</ele>
        <time>2023-04-21T12:57:01Z</time>
      </trkpt>
      <trkpt lat="49.12892" lon="-0.42231">
        <ele>60.4</ele>
        <time>2023-04-21T12:57:02Z</time>
      </trkpt>
      <trkpt lat="49.12898" lon="-0.42225">
        <ele>60.2</ele>
        <time>2023-04-21T12:57:03Z</time>
      </trkpt>
      <trkpt lat="49.12903" lon="-0.42218">
        <ele>60</ele>
        <time>2023-04-21T12:57:04Z</time>
      </trkpt>
      <trkpt lat="49.12908" lon="-0.42212">
        <ele>60</ele>
        <time>2023-04-21T12:57:05Z</time>
      </trkpt>
      <trkpt lat="49.12913" lon="-0.42206">
        <ele>60</ele>
        <time>2023-04-21T12:57:06Z</time>
      </trkpt>
      <trkpt lat="49.12919" lon="-0.422">
        <ele>59.8</ele>
        <time>2023-04-21T12:57:07Z</time>
      </trkpt>
      <trkpt lat="49.12924" lon="-0.42194">
        <ele>59.6</ele>
        <time>2023-04-21T12:57:08Z</time>
      </trkpt>
      <trkpt lat="49.12929" lon="-0.42187">
        <ele>59.6</ele>
        <time>2023-04-21T12:57:09Z</time>
      </trkpt>
      <trkpt lat="49.12933" lon="-0.4218">
        <ele>59.2</ele>
        <time>2023-04-21T12:57:10Z</time>
      </trkpt>
      <trkpt lat="49.12938" lon="-0.42173">
        <ele>59</ele>
        <time>2023-04-21T12:57:11Z</time>
      </trkpt>
      <trkpt lat="49.12943" lon="-0.42167">
        <ele>59</ele>
        <time>2023-04-21T12:57:12Z</time>
      </trkpt>
      <trkpt lat="49.12949" lon="-0.42161">
        <ele>58.8</ele>
        <time>2023-04-21T12:57:13Z</time>
      </trkpt>
      <trkpt lat="49.12954" lon="-0.42154">
        <ele>58.6</ele>
        <time>2023-04-21T12:57:14Z</time>
      </trkpt>
      <trkpt lat="49.12959" lon="-0.42148">
        <ele>58.6</ele>
        <time>2023-04-21T12:57:15Z</time>
      </trkpt>
      <trkpt lat="49.12965" lon="-0.42142">
        <ele>58.2</ele>
        <time>2023-04-21T12:57:16Z</time>
      </trkpt>
      <trkpt lat="49.1297" lon="-0.42136">
        <ele>58.2</ele>
        <time>2023-04-21T12:57:17Z</time>
      </trkpt>
      <trkpt lat="49.12975" lon="-0.4213">
        <ele>58.2</ele>
        <time>2023-04-21T12:57:18Z</time>
      </trkpt>
      <trkpt lat="49.12981" lon="-0.42124">
        <ele>58</ele>
        <time>2023-04-21T12:57:19Z</time>
      </trkpt>
      <trkpt lat="49.12986" lon="-0.42117">
        <ele>58</ele>
        <time>2023-04-21T12:57:20Z</time>
      </trkpt>
      <trkpt lat="49.12991" lon="-0.4211">
        <ele>58</ele>
        <time>2023-04-21T12:57:21Z</time>
      </trkpt>
      <trkpt lat="49.12995" lon="-0.42103">
        <ele>58</ele>
        <time>2023-04-21T12:57:22Z</time>
      </trkpt>
      <trkpt lat="49.13" lon="-0.42095">
        <ele>58</ele>
        <time>2023-04-21T12:57:23Z</time>
      </trkpt>
      <trkpt lat="49.13004" lon="-0.42087">
        <ele>58</ele>
        <time>2023-04-21T12:57:24Z</time>
      </trkpt>
      <trkpt lat="49.13009" lon="-0.42079">
        <ele>57.8</ele>
        <time>2023-04-21T12:57:25Z</time>
      </trkpt>
      <trkpt lat="49.13013" lon="-0.42071">
        <ele>57.6</ele>
        <time>2023-04-21T12:57:26Z</time>
      </trkpt>
      <trkpt lat="49.13018" lon="-0.42064">
        <ele>57.4</ele>
        <time>2023-04-21T12:57:27Z</time>
      </trkpt>
      <trkpt lat="49.13023" lon="-0.42056">
        <ele>57.2</ele>
        <time>2023-04-21T12:57:28Z</time>
      </trkpt>
      <trkpt lat="49.13027" lon="-0.42049">
        <ele>57</ele>
        <time>2023-04-21T12:57:29Z</time>
      </trkpt>
      <trkpt lat="49.13032" lon="-0.42041">
        <ele>56.8</ele>
        <time>2023-04-21T12:57:30Z</time>
      </trkpt>
      <trkpt lat="49.13037" lon="-0.42034">
        <ele>56.6</ele>
        <time>2023-04-21T12:57:31Z</time>
      </trkpt>
      <trkpt lat="49.13041" lon="-0.42026">
        <ele>56.6</ele>
        <time>2023-04-21T12:57:32Z</time>
      </trkpt>
      <trkpt lat="49.13045" lon="-0.42018">
        <ele>56.2</ele>
        <time>2023-04-21T12:57:33Z</time>
      </trkpt>
      <trkpt lat="49.1305" lon="-0.42011">
        <ele>56.2</ele>
        <time>2023-04-21T12:57:34Z</time>
      </trkpt>
      <trkpt lat="49.13054" lon="-0.42003">
        <ele>56</ele>
        <time>2023-04-21T12:57:35Z</time>
      </trkpt>
      <trkpt lat="49.13058" lon="-0.41995">
        <ele>56</ele>
        <time>2023-04-21T12:57:36Z</time>
      </trkpt>
      <trkpt lat="49.13062" lon="-0.41987">
        <ele>55.8</ele>
        <time>2023-04-21T12:57:37Z</time>
      </trkpt>
      <trkpt lat="49.13066" lon="-0.41979">
        <ele>55.8</ele>
        <time>2023-04-21T12:57:38Z</time>
      </trkpt>
      <trkpt lat="49.1307" lon="-0.41972">
        <ele>55.8</ele>
        <time>2023-04-21T12:57:39Z</time>
      </trkpt>
      <trkpt lat="49.13074" lon="-0.41964">
        <ele>55.6</ele>
        <time>2023-04-21T12:57:40Z</time>
      </trkpt>
      <trkpt lat="49.13078" lon="-0.41955">
        <ele>55.6</ele>
        <time>2023-04-21T12:57:41Z</time>
      </trkpt>
      <trkpt lat="49.13082" lon="-0.41947">
        <ele>55.4</ele>
        <time>2023-04-21T12:57:42Z</time>
      </trkpt>
      <trkpt lat="49.13086" lon="-0.41939">
        <ele>55.2</ele>
        <time>2023-04-21T12:57:43Z</time>
      </trkpt>
      <trkpt lat="49.1309" lon="-0.41931">
        <ele>55.2</ele>
        <time>2023-04-21T12:57:44Z</time>
      </trkpt>
      <trkpt lat="49.13095" lon="-0.41922">
        <ele>55.2</ele>
        <time>2023-04-21T12:57:45Z</time>
      </trkpt>
      <trkpt lat="49.13099" lon="-0.41913">
        <ele>55</ele>
        <time>2023-04-21T12:57:46Z</time>
      </trkpt>
      <trkpt lat="49.13103" lon="-0.41905">
        <ele>55</ele>
        <time>2023-04-21T12:57:47Z</time>
      </trkpt>
      <trkpt lat="49.13108" lon="-0.41896">
        <ele>55</ele>
        <time>2023-04-21T12:57:48Z</time>
      </trkpt>
      <trkpt lat="49.13112" lon="-0.41887">
        <ele>55</ele>
        <time>2023-04-21T12:57:49Z</time>
      </trkpt>
      <trkpt lat="49.13117" lon="-0.41878">
        <ele>54.8</ele>
        <time>2023-04-21T12:57:50Z</time>
      </trkpt>
      <trkpt lat="49.13121" lon="-0.41869">
        <ele>54.8</ele>
        <time>2023-04-21T12:57:51Z</time>
      </trkpt>
      <trkpt lat="49.13126" lon="-0.4186">
        <ele>54.8</ele>
        <time>2023-04-21T12:57:52Z</time>
      </trkpt>
      <trkpt lat="49.1313" lon="-0.41851">
        <ele>55</ele>
        <time>2023-04-21T12:57:53Z</time>
      </trkpt>
      <trkpt lat="49.13134" lon="-0.41843">
        <ele>55</ele>
        <time>2023-04-21T12:57:54Z</time>
      </trkpt>
      <trkpt lat="49.13138" lon="-0.41834">
        <ele>55</ele>
        <time>2023-04-21T12:57:55Z</time>
      </trkpt>
      <trkpt lat="49.13142" lon="-0.41825">
        <ele>54.8</ele>
        <time>2023-04-21T12:57:56Z</time>
      </trkpt>
      <trkpt lat="49.13147" lon="-0.41816">
        <ele>54.4</ele>
        <time>2023-04-21T12:57:57Z</time>
      </trkpt>
      <trkpt lat="49.13151" lon="-0.41808">
        <ele>54</ele>
        <time>2023-04-21T12:57:58Z</time>
      </trkpt>
      <trkpt lat="49.13156" lon="-0.41799">
        <ele>53.8</ele>
        <time>2023-04-21T12:57:59Z</time>
      </trkpt>
      <trkpt lat="49.1316" lon="-0.41791">
        <ele>53.2</ele>
        <time>2023-04-21T12:58:00Z</time>
      </trkpt>
      <trkpt lat="49.13165" lon="-0.41782">
        <ele>53</ele>
        <time>2023-04-21T12:58:01Z</time>
      </trkpt>
      <trkpt lat="49.1317" lon="-0.41774">
        <ele>52.4</ele>
        <time>2023-04-21T12:58:02Z</time>
      </trkpt>
      <trkpt lat="49.13174" lon="-0.41765">
        <ele>52</ele>
        <time>2023-04-21T12:58:03Z</time>
      </trkpt>
      <trkpt lat="49.13179" lon="-0.41757">
        <ele>51.4</ele>
        <time>2023-04-21T12:58:04Z</time>
      </trkpt>
      <trkpt lat="49.13184" lon="-0.41748">
        <ele>51</ele>
        <time>2023-04-21T12:58:05Z</time>
      </trkpt>
      <trkpt lat="49.13189" lon="-0.4174">
        <ele>50.8</ele>
        <time>2023-04-21T12:58:06Z</time>
      </trkpt>
      <trkpt lat="49.13193" lon="-0.41731">
        <ele>50.4</ele>
        <time>2023-04-21T12:58:07Z</time>
      </trkpt>
      <trkpt lat="49.13198" lon="-0.41723">
        <ele>50</ele>
        <time>2023-04-21T12:58:08Z</time>
      </trkpt>
      <trkpt lat="49.13203" lon="-0.41714">
        <ele>50</ele>
        <time>2023-04-21T12:58:09Z</time>
      </trkpt>
      <trkpt lat="49.13207" lon="-0.41706">
        <ele>49.8</ele>
        <time>2023-04-21T12:58:10Z</time>
      </trkpt>
      <trkpt lat="49.13212" lon="-0.41697">
        <ele>49.4</ele>
        <time>2023-04-21T12:58:11Z</time>
      </trkpt>
      <trkpt lat="49.13217" lon="-0.41689">
        <ele>49.2</ele>
        <time>2023-04-21T12:58:12Z</time>
      </trkpt>
      <trkpt lat="49.13221" lon="-0.4168">
        <ele>49</ele>
        <time>2023-04-21T12:58:13Z</time>
      </trkpt>
      <trkpt lat="49.13226" lon="-0.41672">
        <ele>48.8</ele>
        <time>2023-04-21T12:58:14Z</time>
      </trkpt>
      <trkpt lat="49.13231" lon="-0.41663">
        <ele>48.8</ele>
        <time>2023-04-21T12:58:15Z</time>
      </trkpt>
      <trkpt lat="49.13236" lon="-0.41654">
        <ele>48.6</ele>
        <time>2023-04-21T12:58:16Z</time>
      </trkpt>
      <trkpt lat="49.13241" lon="-0.41646">
        <ele>48.4</ele>
        <time>2023-04-21T12:58:17Z</time>
      </trkpt>
      <trkpt lat="49.13246" lon="-0.41637">
        <ele>48.2</ele>
        <time>2023-04-21T12:58:18Z</time>
      </trkpt>
      <trkpt lat="49.13251" lon="-0.41628">
        <ele>48</ele>
        <time>2023-04-21T12:58:19Z</time>
      </trkpt>
      <trkpt lat="49.13256" lon="-0.41619">
        <ele>48</ele>
        <time>2023-04-21T12:58:20Z</time>
      </trkpt>
      <trkpt lat="49.13261" lon="-0.4161">
        <ele>47.8</ele>
        <time>2023-04-21T12:58:21Z</time>
      </trkpt>
      <trkpt lat="49.13266" lon="-0.41601">
        <ele>47.6</ele>
        <time>2023-04-21T12:58:22Z</time>
      </trkpt>
      <trkpt lat="49.13271" lon="-0.41592">
        <ele>47.2</ele>
        <time>2023-04-21T12:58:23Z</time>
      </trkpt>
      <trkpt lat="49.13276" lon="-0.41583">
        <ele>47</ele>
        <time>2023-04-21T12:58:24Z</time>
      </trkpt>
      <trkpt lat="49.13281" lon="-0.41573">
        <ele>46.6</ele>
        <time>2023-04-21T12:58:25Z</time>
      </trkpt>
      <trkpt lat="49.13287" lon="-0.41564">
        <ele>46.2</ele>
        <time>2023-04-21T12:58:26Z</time>
      </trkpt>
      <trkpt lat="49.13292" lon="-0.41554">
        <ele>46</ele>
        <time>2023-04-21T12:58:27Z</time>
      </trkpt>
      <trkpt lat="49.13297" lon="-0.41544">
        <ele>45.6</ele>
        <time>2023-04-21T12:58:28Z</time>
      </trkpt>
      <trkpt lat="49.13303" lon="-0.41535">
        <ele>45.2</ele>
        <time>2023-04-21T12:58:29Z</time>
      </trkpt>
      <trkpt lat="49.13308" lon="-0.41525">
        <ele>45</ele>
        <time>2023-04-21T12:58:30Z</time>
      </trkpt>
      <trkpt lat="49.13313" lon="-0.41515">
        <ele>44.6</ele>
        <time>2023-04-21T12:58:31Z</time>
      </trkpt>
      <trkpt lat="49.13319" lon="-0.41505">
        <ele>44.2</ele>
        <time>2023-04-21T12:58:32Z</time>
      </trkpt>
      <trkpt lat="49.13324" lon="-0.41495">
        <ele>44</ele>
        <time>2023-04-21T12:58:33Z</time>
      </trkpt>
      <trkpt lat="49.13329" lon="-0.41486">
        <ele>43.8</ele>
        <time>2023-04-21T12:58:34Z</time>
      </trkpt>
      <trkpt lat="49.13335" lon="-0.41476">
        <ele>43.4</ele>
        <time>2023-04-21T12:58:35Z</time>
      </trkpt>
      <trkpt lat="49.1334" lon="-0.41466">
        <ele>43.2</ele>
        <time>2023-04-21T12:58:36Z</time>
      </trkpt>
      <trkpt lat="49.13345" lon="-0.41457">
        <ele>43</ele>
        <time>2023-04-21T12:58:37Z</time>
      </trkpt>
      <trkpt lat="49.13351" lon="-0.41447">
        <ele>42.8</ele>
        <time>2023-04-21T12:58:38Z</time>
      </trkpt>
      <trkpt lat="49.13356" lon="-0.41438">
        <ele>42.6</ele>
        <time>2023-04-21T12:58:39Z</time>
      </trkpt>
      <trkpt lat="49.13361" lon="-0.41428">
        <ele>42.2</ele>
        <time>2023-04-21T12:58:40Z</time>
      </trkpt>
      <trkpt lat="49.13366" lon="-0.41419">
        <ele>42</ele>
        <time>2023-04-21T12:58:41Z</time>
      </trkpt>
      <trkpt lat="49.13371" lon="-0.41409">
        <ele>41.8</ele>
        <time>2023-04-21T12:58:42Z</time>
      </trkpt>
      <trkpt lat="49.13376" lon="-0.414">
        <ele>41.6</ele>
        <time>2023-04-21T12:58:43Z</time>
      </trkpt>
      <trkpt lat="49.13381" lon="-0.41391">
        <ele>41.2</ele>
        <time>2023-04-21T12:58:44Z</time>
      </trkpt>
      <trkpt lat="49.13386" lon="-0.41381">
        <ele>41</ele>
        <time>2023-04-21T12:58:45Z</time>
      </trkpt>
      <trkpt lat="49.13391" lon="-0.41371">
        <ele>40.8</ele>
        <time>2023-04-21T12:58:46Z</time>
      </trkpt>
      <trkpt lat="49.13395" lon="-0.41362">
        <ele>40.6</ele>
        <time>2023-04-21T12:58:47Z</time>
      </trkpt>
      <trkpt lat="49.13399" lon="-0.41352">
        <ele>40.2</ele>
        <time>2023-04-21T12:58:48Z</time>
      </trkpt>
      <trkpt lat="49.13403" lon="-0.41342">
        <ele>40</ele>
        <time>2023-04-21T12:58:49Z</time>
      </trkpt>
      <trkpt lat="49.13407" lon="-0.41332">
        <ele>40</ele>
        <time>2023-04-21T12:58:50Z</time>
      </trkpt>
      <trkpt lat="49.13411" lon="-0.41323">
        <ele>39.8</ele>
        <time>2023-04-21T12:58:51Z</time>
      </trkpt>
      <trkpt lat="49.13413" lon="-0.41313">
        <ele>39.4</ele>
        <time>2023-04-21T12:58:52Z</time>
      </trkpt>
      <trkpt lat="49.13414" lon="-0.41302">
        <ele>39.2</ele>
        <time>2023-04-21T12:58:53Z</time>
      </trkpt>
      <trkpt lat="49.13416" lon="-0.41292">
        <ele>39</ele>
        <time>2023-04-21T12:58:54Z</time>
      </trkpt>
      <trkpt lat="49.1342" lon="-0.41283">
        <ele>38.8</ele>
        <time>2023-04-21T12:58:55Z</time>
      </trkpt>
      <trkpt lat="49.13425" lon="-0.41277">
        <ele>38.6</ele>
        <time>2023-04-21T12:58:56Z</time>
      </trkpt>
      <trkpt lat="49.13431" lon="-0.41271">
        <ele>38.6</ele>
        <time>2023-04-21T12:58:57Z</time>
      </trkpt>
      <trkpt lat="49.13437" lon="-0.41267">
        <ele>38.4</ele>
        <time>2023-04-21T12:58:58Z</time>
      </trkpt>
      <trkpt lat="49.13443" lon="-0.41262">
        <ele>38.2</ele>
        <time>2023-04-21T12:58:59Z</time>
      </trkpt>
      <trkpt lat="49.13449" lon="-0.41256">
        <ele>38</ele>
        <time>2023-04-21T12:59:00Z</time>
      </trkpt>
      <trkpt lat="49.13454" lon="-0.4125">
        <ele>38</ele>
        <time>2023-04-21T12:59:01Z</time>
      </trkpt>
      <trkpt lat="49.13459" lon="-0.41243">
        <ele>37.8</ele>
        <time>2023-04-21T12:59:02Z</time>
      </trkpt>
      <trkpt lat="49.13464" lon="-0.41236">
        <ele>37.8</ele>
        <time>2023-04-21T12:59:03Z</time>
      </trkpt>
      <trkpt lat="49.13469" lon="-0.41229">
        <ele>37.6</ele>
        <time>2023-04-21T12:59:04Z</time>
      </trkpt>
      <trkpt lat="49.13474" lon="-0.41221">
        <ele>37.4</ele>
        <time>2023-04-21T12:59:05Z</time>
      </trkpt>
      <trkpt lat="49.13479" lon="-0.41214">
        <ele>37.2</ele>
        <time>2023-04-21T12:59:06Z</time>
      </trkpt>
      <trkpt lat="49.13484" lon="-0.41206">
        <ele>37.2</ele>
        <time>2023-04-21T12:59:07Z</time>
      </trkpt>
      <trkpt lat="49.1349" lon="-0.41199">
        <ele>37.2</ele>
        <time>2023-04-21T12:59:08Z</time>
      </trkpt>
      <trkpt lat="49.13495" lon="-0.41191">
        <ele>37.2</ele>
        <time>2023-04-21T12:59:09Z</time>
      </trkpt>
      <trkpt lat="49.135" lon="-0.41184">
        <ele>37.2</ele>
        <time>2023-04-21T12:59:10Z</time>
      </trkpt>
      <trkpt lat="49.13505" lon="-0.41177">
        <ele>37.2</ele>
        <time>2023-04-21T12:59:11Z</time>
      </trkpt>
      <trkpt lat="49.13511" lon="-0.4117">
        <ele>37.2</ele>
        <time>2023-04-21T12:59:12Z</time>
      </trkpt>
      <trkpt lat="49.13516" lon="-0.41163">
        <ele>37.4</ele>
        <time>2023-04-21T12:59:13Z</time>
      </trkpt>
      <trkpt lat="49.13521" lon="-0.41156">
        <ele>37.4</ele>
        <time>2023-04-21T12:59:14Z</time>
      </trkpt>
      <trkpt lat="49.13527" lon="-0.4115">
        <ele>37.6</ele>
        <time>2023-04-21T12:59:15Z</time>
      </trkpt>
      <trkpt lat="49.13533" lon="-0.41143">
        <ele>37.6</ele>
        <time>2023-04-21T12:59:16Z</time>
      </trkpt>
      <trkpt lat="49.13538" lon="-0.41136">
        <ele>37.6</ele>
        <time>2023-04-21T12:59:17Z</time>
      </trkpt>
      <trkpt lat="49.13544" lon="-0.41129">
        <ele>37.6</ele>
        <time>2023-04-21T12:59:18Z</time>
      </trkpt>
      <trkpt lat="49.1355" lon="-0.41123">
        <ele>37.6</ele>
        <time>2023-04-21T12:59:19Z</time>
      </trkpt>
      <trkpt lat="49.13555" lon="-0.41116">
        <ele>37.6</ele>
        <time>2023-04-21T12:59:20Z</time>
      </trkpt>
      <trkpt lat="49.13561" lon="-0.4111">
        <ele>37.6</ele>
        <time>2023-04-21T12:59:21Z</time>
      </trkpt>
      <trkpt lat="49.13567" lon="-0.41103">
        <ele>37.4</ele>
        <time>2023-04-21T12:59:22Z</time>
      </trkpt>
      <trkpt lat="49.13573" lon="-0.41097">
        <ele>37.2</ele>
        <time>2023-04-21T12:59:23Z</time>
      </trkpt>
      <trkpt lat="49.13579" lon="-0.4109">
        <ele>37.2</ele>
        <time>2023-04-21T12:59:24Z</time>
      </trkpt>
      <trkpt lat="49.13585" lon="-0.41084">
        <ele>37</ele>
        <time>2023-04-21T12:59:25Z</time>
      </trkpt>
      <trkpt lat="49.13591" lon="-0.41077">
        <ele>36.8</ele>
        <time>2023-04-21T12:59:26Z</time>
      </trkpt>
      <trkpt lat="49.13597" lon="-0.41071">
        <ele>36.6</ele>
        <time>2023-04-21T12:59:27Z</time>
      </trkpt>
      <trkpt lat="49.13604" lon="-0.41064">
        <ele>36.4</ele>
        <time>2023-04-21T12:59:28Z</time>
      </trkpt>
      <trkpt lat="49.13609" lon="-0.41058">
        <ele>36.2</ele>
        <time>2023-04-21T12:59:29Z</time>
      </trkpt>
      <trkpt lat="49.13616" lon="-0.41051">
        <ele>36</ele>
        <time>2023-04-21T12:59:30Z</time>
      </trkpt>
      <trkpt lat="49.13622" lon="-0.41044">
        <ele>36</ele>
        <time>2023-04-21T12:59:31Z</time>
      </trkpt>
      <trkpt lat="49.13628" lon="-0.41038">
        <ele>36</ele>
        <time>2023-04-21T12:59:32Z</time>
      </trkpt>
      <trkpt lat="49.13634" lon="-0.41031">
        <ele>36</ele>
        <time>2023-04-21T12:59:33Z</time>
      </trkpt>
      <trkpt lat="49.1364" lon="-0.41025">
        <ele>36</ele>
        <time>2023-04-21T12:59:34Z</time>
      </trkpt>
      <trkpt lat="49.13645" lon="-0.41019">
        <ele>36</ele>
        <time>2023-04-21T12:59:35Z</time>
      </trkpt>
      <trkpt lat="49.13651" lon="-0.41012">
        <ele>36</ele>
        <time>2023-04-21T12:59:36Z</time>
      </trkpt>
      <trkpt lat="49.13657" lon="-0.41006">
        <ele>36</ele>
        <time>2023-04-21T12:59:37Z</time>
      </trkpt>
      <trkpt lat="49.13663" lon="-0.41">
        <ele>36</ele>
        <time>2023-04-21T12:59:38Z</time>
      </trkpt>
      <trkpt lat="49.13669" lon="-0.40993">
        <ele>36</ele>
        <time>2023-04-21T12:59:39Z</time>
      </trkpt>
      <trkpt lat="49.13675" lon="-0.40987">
        <ele>36</ele>
        <time>2023-04-21T12:59:40Z</time>
      </trkpt>
      <trkpt lat="49.1368" lon="-0.40981">
        <ele>36</ele>
        <time>2023-04-21T12:59:41Z</time>
      </trkpt>
      <trkpt lat="49.13686" lon="-0.40975">
        <ele>36</ele>
        <time>2023-04-21T12:59:42Z</time>
      </trkpt>
      <trkpt lat="49.13692" lon="-0.40968">
        <ele>36</ele>
        <time>2023-04-21T12:59:43Z</time>
      </trkpt>
      <trkpt lat="49.13697" lon="-0.40962">
        <ele>36</ele>
        <time>2023-04-21T12:59:44Z</time>
      </trkpt>
      <trkpt lat="49.13703" lon="-0.40956">
        <ele>36</ele>
        <time>2023-04-21T12:59:45Z</time>
      </trkpt>
      <trkpt lat="49.13709" lon="-0.4095">
        <ele>36</ele>
        <time>2023-04-21T12:59:46Z</time>
      </trkpt>
      <trkpt lat="49.13714" lon="-0.40944">
        <ele>36</ele>
        <time>2023-04-21T12:59:47Z</time>
      </trkpt>
      <trkpt lat="49.1372" lon="-0.40937">
        <ele>36</ele>
        <time>2023-04-21T12:59:48Z</time>
      </trkpt>
      <trkpt lat="49.13725" lon="-0.40931">
        <ele>36</ele>
        <time>2023-04-21T12:59:49Z</time>
      </trkpt>
      <trkpt lat="49.13731" lon="-0.40925">
        <ele>36</ele>
        <time>2023-04-21T12:59:50Z</time>
      </trkpt>
      <trkpt lat="49.13736" lon="-0.40919">
        <ele>36</ele>
        <time>2023-04-21T12:59:51Z</time>
      </trkpt>
      <trkpt lat="49.13742" lon="-0.40913">
        <ele>36</ele>
        <time>2023-04-21T12:59:52Z</time>
      </trkpt>
      <trkpt lat="49.13747" lon="-0.40907">
        <ele>35.8</ele>
        <time>2023-04-21T12:59:53Z</time>
      </trkpt>
      <trkpt lat="49.13753" lon="-0.409">
        <ele>35.8</ele>
        <time>2023-04-21T12:59:54Z</time>
      </trkpt>
      <trkpt lat="49.13759" lon="-0.40894">
        <ele>35.8</ele>
        <time>2023-04-21T12:59:55Z</time>
      </trkpt>
      <trkpt lat="49.13765" lon="-0.40888">
        <ele>35.6</ele>
        <time>2023-04-21T12:59:56Z</time>
      </trkpt>
      <trkpt lat="49.1377" lon="-0.40882">
        <ele>35.4</ele>
        <time>2023-04-21T12:59:57Z</time>
      </trkpt>
      <trkpt lat="49.13776" lon="-0.40875">
        <ele>35.2</ele>
        <time>2023-04-21T12:59:58Z</time>
      </trkpt>
      <trkpt lat="49.13782" lon="-0.40868">
        <ele>35</ele>
        <time>2023-04-21T12:59:59Z</time>
      </trkpt>
      <trkpt lat="49.13789" lon="-0.40862">
        <ele>34.8</ele>
        <time>2023-04-21T13:00:00Z</time>
      </trkpt>
      <trkpt lat="49.13795" lon="-0.40855">
        <ele>34.6</ele>
        <time>2023-04-21T13:00:01Z</time>
      </trkpt>
      <trkpt lat="49.13801" lon="-0.40848">
        <ele>34.2</ele>
        <time>2023-04-21T13:00:02Z</time>
      </trkpt>
      <trkpt lat="49.13807" lon="-0.40841">
        <ele>33.8</ele>
        <time>2023-04-21T13:00:03Z</time>
      </trkpt>
      <trkpt lat="49.13814" lon="-0.40834">
        <ele>33.6</ele>
        <time>2023-04-21T13:00:04Z</time>
      </trkpt>
      <trkpt lat="49.1382" lon="-0.40827">
        <ele>33.2</ele>
        <time>2023-04-21T13:00:05Z</time>
      </trkpt>
      <trkpt lat="49.13826" lon="-0.4082">
        <ele>32.8</ele>
        <time>2023-04-21T13:00:06Z</time>
      </trkpt>
      <trkpt lat="49.13833" lon="-0.40813">
        <ele>32.6</ele>
        <time>2023-04-21T13:00:07Z</time>
      </trkpt>
      <trkpt lat="49.13839" lon="-0.40806">
        <ele>32.2</ele>
        <time>2023-04-21T13:00:08Z</time>
      </trkpt>
      <trkpt lat="49.13845" lon="-0.408">
        <ele>32.2</ele>
        <time>2023-04-21T13:00:09Z</time>
      </trkpt>
      <trkpt lat="49.13852" lon="-0.40793">
        <ele>32</ele>
        <time>2023-04-21T13:00:10Z</time>
      </trkpt>
      <trkpt lat="49.13858" lon="-0.40786">
        <ele>31.8</ele>
        <time>2023-04-21T13:00:11Z</time>
      </trkpt>
      <trkpt lat="49.13864" lon="-0.40779">
        <ele>31.8</ele>
        <time>2023-04-21T13:00:12Z</time>
      </trkpt>
      <trkpt lat="49.1387" lon="-0.40772">
        <ele>31.8</ele>
        <time>2023-04-21T13:00:13Z</time>
      </trkpt>
      <trkpt lat="49.13877" lon="-0.40765">
        <ele>31.8</ele>
        <time>2023-04-21T13:00:14Z</time>
      </trkpt>
      <trkpt lat="49.13883" lon="-0.40758">
        <ele>31.8</ele>
        <time>2023-04-21T13:00:15Z</time>
      </trkpt>
      <trkpt lat="49.13889" lon="-0.40752">
        <ele>31.8</ele>
        <time>2023-04-21T13:00:16Z</time>
      </trkpt>
      <trkpt lat="49.13895" lon="-0.40745">
        <ele>31.8</ele>
        <time>2023-04-21T13:00:17Z</time>
      </trkpt>
      <trkpt lat="49.13901" lon="-0.40738">
        <ele>31.8</ele>
        <time>2023-04-21T13:00:18Z</time>
      </trkpt>
      <trkpt lat="49.13908" lon="-0.40731">
        <ele>31.8</ele>
        <time>2023-04-21T13:00:19Z</time>
      </trkpt>
      <trkpt lat="49.13914" lon="-0.40724">
        <ele>32</ele>
        <time>2023-04-21T13:00:20Z</time>
      </trkpt>
      <trkpt lat="49.1392" lon="-0.40718">
        <ele>32</ele>
        <time>2023-04-21T13:00:21Z</time>
      </trkpt>
      <trkpt lat="49.13926" lon="-0.40711">
        <ele>31.8</ele>
        <time>2023-04-21T13:00:22Z</time>
      </trkpt>
      <trkpt lat="49.13932" lon="-0.40705">
        <ele>31.8</ele>
        <time>2023-04-21T13:00:23Z</time>
      </trkpt>
      <trkpt lat="49.13937" lon="-0.40698">
        <ele>31.8</ele>
        <time>2023-04-21T13:00:24Z</time>
      </trkpt>
      <trkpt lat="49.13943" lon="-0.40692">
        <ele>31.8</ele>
        <time>2023-04-21T13:00:25Z</time>
      </trkpt>
      <trkpt lat="49.13949" lon="-0.40687">
        <ele>31.8</ele>
        <time>2023-04-21T13:00:26Z</time>
      </trkpt>
      <trkpt lat="49.13955" lon="-0.40681">
        <ele>31.8</ele>
        <time>2023-04-21T13:00:27Z</time>
      </trkpt>
      <trkpt lat="49.1396" lon="-0.40675">
        <ele>31.8</ele>
        <time>2023-04-21T13:00:28Z</time>
      </trkpt>
      <trkpt lat="49.13966" lon="-0.4067">
        <ele>32</ele>
        <time>2023-04-21T13:00:29Z</time>
      </trkpt>
      <trkpt lat="49.13972" lon="-0.40665">
        <ele>32</ele>
        <time>2023-04-21T13:00:30Z</time>
      </trkpt>
      <trkpt lat="49.13978" lon="-0.40661">
        <ele>32</ele>
        <time>2023-04-21T13:00:31Z</time>
      </trkpt>
      <trkpt lat="49.13984" lon="-0.40656">
        <ele>32</ele>
        <time>2023-04-21T13:00:32Z</time>
      </trkpt>
      <trkpt lat="49.1399" lon="-0.40653">
        <ele>32</ele>
        <time>2023-04-21T13:00:33Z</time>
      </trkpt>
      <trkpt lat="49.13996" lon="-0.40649">
        <ele>32</ele>
        <time>2023-04-21T13:00:34Z</time>
      </trkpt>
      <trkpt lat="49.14003" lon="-0.40646">
        <ele>31.8</ele>
        <time>2023-04-21T13:00:35Z</time>
      </trkpt>
      <trkpt lat="49.1401" lon="-0.40644">
        <ele>31.8</ele>
        <time>2023-04-21T13:00:36Z</time>
      </trkpt>
      <trkpt lat="49.14016" lon="-0.40641">
        <ele>31.6</ele>
        <time>2023-04-21T13:00:37Z</time>
      </trkpt>
      <trkpt lat="49.14023" lon="-0.40639">
        <ele>31.2</ele>
        <time>2023-04-21T13:00:38Z</time>
      </trkpt>
      <trkpt lat="49.1403" lon="-0.40636">
        <ele>31.2</ele>
        <time>2023-04-21T13:00:39Z</time>
      </trkpt>
      <trkpt lat="49.14037" lon="-0.40634">
        <ele>30.8</ele>
        <time>2023-04-21T13:00:40Z</time>
      </trkpt>
      <trkpt lat="49.14043" lon="-0.40631">
        <ele>30.8</ele>
        <time>2023-04-21T13:00:41Z</time>
      </trkpt>
      <trkpt lat="49.1405" lon="-0.40629">
        <ele>30.6</ele>
        <time>2023-04-21T13:00:42Z</time>
      </trkpt>
      <trkpt lat="49.14057" lon="-0.40627">
        <ele>30.2</ele>
        <time>2023-04-21T13:00:43Z</time>
      </trkpt>
      <trkpt lat="49.14064" lon="-0.40624">
        <ele>30.2</ele>
        <time>2023-04-21T13:00:44Z</time>
      </trkpt>
      <trkpt lat="49.14071" lon="-0.40622">
        <ele>29.8</ele>
        <time>2023-04-21T13:00:45Z</time>
      </trkpt>
      <trkpt lat="49.14078" lon="-0.4062">
        <ele>29.8</ele>
        <time>2023-04-21T13:00:46Z</time>
      </trkpt>
      <trkpt lat="49.14085" lon="-0.40617">
        <ele>29.6</ele>
        <time>2023-04-21T13:00:47Z</time>
      </trkpt>
      <trkpt lat="49.14092" lon="-0.40615">
        <ele>29.6</ele>
        <time>2023-04-21T13:00:48Z</time>
      </trkpt>
      <trkpt lat="49.14099" lon="-0.40613">
        <ele>29.6</ele>
        <time>2023-04-21T13:00:49Z</time>
      </trkpt>
      <trkpt lat="49.14106" lon="-0.4061">
        <ele>29.4</ele>
        <time>2023-04-21T13:00:50Z</time>
      </trkpt>
      <trkpt lat="49.14113" lon="-0.40608">
        <ele>29.2</ele>
        <time>2023-04-21T13:00:51Z</time>
      </trkpt>
      <trkpt lat="49.1412" lon="-0.40605">
        <ele>29.2</ele>
        <time>2023-04-21T13:00:52Z</time>
      </trkpt>
      <trkpt lat="49.14127" lon="-0.40603">
        <ele>29.2</ele>
        <time>2023-04-21T13:00:53Z</time>
      </trkpt>
      <trkpt lat="49.14134" lon="-0.406">
        <ele>28.8</ele>
        <time>2023-04-21T13:00:54Z</time>
      </trkpt>
      <trkpt lat="49.14142" lon="-0.40598">
        <ele>28.8</ele>
        <time>2023-04-21T13:00:55Z</time>
      </trkpt>
      <trkpt lat="49.14149" lon="-0.40595">
        <ele>28.6</ele>
        <time>2023-04-21T13:00:56Z</time>
      </trkpt>
      <trkpt lat="49.14156" lon="-0.40592">
        <ele>28.4</ele>
        <time>2023-04-21T13:00:57Z</time>
      </trkpt>
      <trkpt lat="49.14164" lon="-0.4059">
        <ele>28.2</ele>
        <time>2023-04-21T13:00:58Z</time>
      </trkpt>
      <trkpt lat="49.14171" lon="-0.40587">
        <ele>28</ele>
        <time>2023-04-21T13:00:59Z</time>
      </trkpt>
      <trkpt lat="49.14179" lon="-0.40585">
        <ele>27.8</ele>
        <time>2023-04-21T13:01:00Z</time>
      </trkpt>
      <trkpt lat="49.14186" lon="-0.40583">
        <ele>27.8</ele>
        <time>2023-04-21T13:01:01Z</time>
      </trkpt>
      <trkpt lat="49.14194" lon="-0.40581">
        <ele>27.6</ele>
        <time>2023-04-21T13:01:02Z</time>
      </trkpt>
      <trkpt lat="49.14202" lon="-0.4058">
        <ele>27.6</ele>
        <time>2023-04-21T13:01:03Z</time>
      </trkpt>
      <trkpt lat="49.1421" lon="-0.40579">
        <ele>27.4</ele>
        <time>2023-04-21T13:01:04Z</time>
      </trkpt>
      <trkpt lat="49.14218" lon="-0.40578">
        <ele>27.2</ele>
        <time>2023-04-21T13:01:05Z</time>
      </trkpt>
      <trkpt lat="49.14226" lon="-0.40578">
        <ele>27.2</ele>
        <time>2023-04-21T13:01:06Z</time>
      </trkpt>
      <trkpt lat="49.14234" lon="-0.40577">
        <ele>27.2</ele>
        <time>2023-04-21T13:01:07Z</time>
      </trkpt>
      <trkpt lat="49.14241" lon="-0.40577">
        <ele>27</ele>
        <time>2023-04-21T13:01:08Z</time>
      </trkpt>
      <trkpt lat="49.14249" lon="-0.40576">
        <ele>26.8</ele>
        <time>2023-04-21T13:01:09Z</time>
      </trkpt>
      <trkpt lat="49.14257" lon="-0.40576">
        <ele>26.8</ele>
        <time>2023-04-21T13:01:10Z</time>
      </trkpt>
      <trkpt lat="49.14264" lon="-0.40576">
        <ele>27</ele>
        <time>2023-04-21T13:01:11Z</time>
      </trkpt>
      <trkpt lat="49.14271" lon="-0.40575">
        <ele>27</ele>
        <time>2023-04-21T13:01:12Z</time>
      </trkpt>
      <trkpt lat="49.14278" lon="-0.40575">
        <ele>27.2</ele>
        <time>2023-04-21T13:01:13Z</time>
      </trkpt>
      <trkpt lat="49.14285" lon="-0.40574">
        <ele>27.2</ele>
        <time>2023-04-21T13:01:14Z</time>
      </trkpt>
      <trkpt lat="49.14292" lon="-0.40573">
        <ele>27.2</ele>
        <time>2023-04-21T13:01:15Z</time>
      </trkpt>
      <trkpt lat="49.14299" lon="-0.40573">
        <ele>27.2</ele>
        <time>2023-04-21T13:01:16Z</time>
      </trkpt>
      <trkpt lat="49.14306" lon="-0.40572">
        <ele>27.2</ele>
        <time>2023-04-21T13:01:17Z</time>
      </trkpt>
      <trkpt lat="49.14312" lon="-0.40571">
        <ele>27.2</ele>
        <time>2023-04-21T13:01:18Z</time>
      </trkpt>
      <trkpt lat="49.14318" lon="-0.4057">
        <ele>27.4</ele>
        <time>2023-04-21T13:01:19Z</time>
      </trkpt>
      <trkpt lat="49.14324" lon="-0.40568">
        <ele>27.4</ele>
        <time>2023-04-21T13:01:20Z</time>
      </trkpt>
      <trkpt lat="49.1433" lon="-0.40567">
        <ele>27.4</ele>
        <time>2023-04-21T13:01:21Z</time>
      </trkpt>
      <trkpt lat="49.14336" lon="-0.40565">
        <ele>27.2</ele>
        <time>2023-04-21T13:01:22Z</time>
      </trkpt>
      <trkpt lat="49.14341" lon="-0.40563">
        <ele>27.2</ele>
        <time>2023-04-21T13:01:23Z</time>
      </trkpt>
      <trkpt lat="49.14346" lon="-0.40561">
        <ele>27.2</ele>
        <time>2023-04-21T13:01:24Z</time>
      </trkpt>
      <trkpt lat="49.14351" lon="-0.40558">
        <ele>27.2</ele>
        <time>2023-04-21T13:01:25Z</time>
      </trkpt>
      <trkpt lat="49.14356" lon="-0.40556">
        <ele>27.2</ele>
        <time>2023-04-21T13:01:26Z</time>
      </trkpt>
      <trkpt lat="49.14361" lon="-0.40554">
        <ele>27</ele>
        <time>2023-04-21T13:01:27Z</time>
      </trkpt>
      <trkpt lat="49.14366" lon="-0.40551">
        <ele>27</ele>
        <time>2023-04-21T13:01:28Z</time>
      </trkpt>
      <trkpt lat="49.1437" lon="-0.40549">
        <ele>27</ele>
        <time>2023-04-21T13:01:29Z</time>
      </trkpt>
      <trkpt lat="49.14375" lon="-0.40547">
        <ele>26.8</ele>
        <time>2023-04-21T13:01:30Z</time>
      </trkpt>
      <trkpt lat="49.1438" lon="-0.40544">
        <ele>26.8</ele>
        <time>2023-04-21T13:01:31Z</time>
      </trkpt>
      <trkpt lat="49.14384" lon="-0.40542">
        <ele>26.8</ele>
        <time>2023-04-21T13:01:32Z</time>
      </trkpt>
      <trkpt lat="49.14389" lon="-0.40539">
        <ele>26.8</ele>
        <time>2023-04-21T13:01:33Z</time>
      </trkpt>
      <trkpt lat="49.14393" lon="-0.40536">
        <ele>26.8</ele>
        <time>2023-04-21T13:01:34Z</time>
      </trkpt>
      <trkpt lat="49.14398" lon="-0.40533">
        <ele>26.8</ele>
        <time>2023-04-21T13:01:35Z</time>
      </trkpt>
      <trkpt lat="49.14402" lon="-0.40531">
        <ele>26.6</ele>
        <time>2023-04-21T13:01:36Z</time>
      </trkpt>
      <trkpt lat="49.14406" lon="-0.40528">
        <ele>26.6</ele>
        <time>2023-04-21T13:01:37Z</time>
      </trkpt>
      <trkpt lat="49.14411" lon="-0.40525">
        <ele>26.6</ele>
        <time>2023-04-21T13:01:38Z</time>
      </trkpt>
      <trkpt lat="49.14416" lon="-0.40522">
        <ele>26.6</ele>
        <time>2023-04-21T13:01:39Z</time>
      </trkpt>
      <trkpt lat="49.14421" lon="-0.40519">
        <ele>26.6</ele>
        <time>2023-04-21T13:01:40Z</time>
      </trkpt>
      <trkpt lat="49.14425" lon="-0.40517">
        <ele>26.8</ele>
        <time>2023-04-21T13:01:41Z</time>
      </trkpt>
      <trkpt lat="49.1443" lon="-0.40514">
        <ele>26.8</ele>
        <time>2023-04-21T13:01:42Z</time>
      </trkpt>
      <trkpt lat="49.14436" lon="-0.4051">
        <ele>26.8</ele>
        <time>2023-04-21T13:01:43Z</time>
      </trkpt>
      <trkpt lat="49.14441" lon="-0.40507">
        <ele>27</ele>
        <time>2023-04-21T13:01:44Z</time>
      </trkpt>
      <trkpt lat="49.14446" lon="-0.40504">
        <ele>27.2</ele>
        <time>2023-04-21T13:01:45Z</time>
      </trkpt>
      <trkpt lat="49.14452" lon="-0.40501">
        <ele>27.2</ele>
        <time>2023-04-21T13:01:46Z</time>
      </trkpt>
      <trkpt lat="49.14457" lon="-0.40498">
        <ele>27.4</ele>
        <time>2023-04-21T13:01:47Z</time>
      </trkpt>
      <trkpt lat="49.14462" lon="-0.40494">
        <ele>27.6</ele>
        <time>2023-04-21T13:01:48Z</time>
      </trkpt>
      <trkpt lat="49.14468" lon="-0.40491">
        <ele>27.6</ele>
        <time>2023-04-21T13:01:49Z</time>
      </trkpt>
      <trkpt lat="49.14473" lon="-0.40488">
        <ele>27.8</ele>
        <time>2023-04-21T13:01:50Z</time>
      </trkpt>
      <trkpt lat="49.14479" lon="-0.40485">
        <ele>27.8</ele>
        <time>2023-04-21T13:01:51Z</time>
      </trkpt>
      <trkpt lat="49.14484" lon="-0.40481">
        <ele>27.8</ele>
        <time>2023-04-21T13:01:52Z</time>
      </trkpt>
      <trkpt lat="49.1449" lon="-0.40478">
        <ele>28.2</ele>
        <time>2023-04-21T13:01:53Z</time>
      </trkpt>
      <trkpt lat="49.14495" lon="-0.40475">
        <ele>28.2</ele>
        <time>2023-04-21T13:01:54Z</time>
      </trkpt>
      <trkpt lat="49.14501" lon="-0.40472">
        <ele>28.2</ele>
        <time>2023-04-21T13:01:55Z</time>
      </trkpt>
      <trkpt lat="49.14507" lon="-0.40468">
        <ele>28.4</ele>
        <time>2023-04-21T13:01:56Z</time>
      </trkpt>
      <trkpt lat="49.14513" lon="-0.40465">
        <ele>28.4</ele>
        <time>2023-04-21T13:01:57Z</time>
      </trkpt>
      <trkpt lat="49.14519" lon="-0.40462">
        <ele>28.4</ele>
        <time>2023-04-21T13:01:58Z</time>
      </trkpt>
      <trkpt lat="49.14525" lon="-0.40458">
        <ele>28.4</ele>
        <time>2023-04-21T13:01:59Z</time>
      </trkpt>
      <trkpt lat="49.1453" lon="-0.40455">
        <ele>28.4</ele>
        <time>2023-04-21T13:02:00Z</time>
      </trkpt>
      <trkpt lat="49.14536" lon="-0.40451">
        <ele>28.4</ele>
        <time>2023-04-21T13:02:01Z</time>
      </trkpt>
      <trkpt lat="49.14542" lon="-0.40448">
        <ele>28.4</ele>
        <time>2023-04-21T13:02:02Z</time>
      </trkpt>
      <trkpt lat="49.14548" lon="-0.40444">
        <ele>28.4</ele>
        <time>2023-04-21T13:02:03Z</time>
      </trkpt>
      <trkpt lat="49.14554" lon="-0.4044">
        <ele>28.4</ele>
        <time>2023-04-21T13:02:04Z</time>
      </trkpt>
      <trkpt lat="49.14559" lon="-0.40437">
        <ele>28.4</ele>
        <time>2023-04-21T13:02:05Z</time>
      </trkpt>
      <trkpt lat="49.14565" lon="-0.40433">
        <ele>28.2</ele>
        <time>2023-04-21T13:02:06Z</time>
      </trkpt>
      <trkpt lat="49.14571" lon="-0.4043">
        <ele>28.2</ele>
        <time>2023-04-21T13:02:07Z</time>
      </trkpt>
      <trkpt lat="49.14577" lon="-0.40426">
        <ele>28.2</ele>
        <time>2023-04-21T13:02:08Z</time>
      </trkpt>
      <trkpt lat="49.14582" lon="-0.40422">
        <ele>28.2</ele>
        <time>2023-04-21T13:02:09Z</time>
      </trkpt>
      <trkpt lat="49.14588" lon="-0.40419">
        <ele>28.2</ele>
        <time>2023-04-21T13:02:10Z</time>
      </trkpt>
      <trkpt lat="49.14594" lon="-0.40415">
        <ele>28.2</ele>
        <time>2023-04-21T13:02:11Z</time>
      </trkpt>
      <trkpt lat="49.14599" lon="-0.40412">
        <ele>28</ele>
        <time>2023-04-21T13:02:12Z</time>
      </trkpt>
      <trkpt lat="49.14605" lon="-0.40408">
        <ele>28</ele>
        <time>2023-04-21T13:02:13Z</time>
      </trkpt>
      <trkpt lat="49.1461" lon="-0.40405">
        <ele>28</ele>
        <time>2023-04-21T13:02:14Z</time>
      </trkpt>
      <trkpt lat="49.14616" lon="-0.40401">
        <ele>28</ele>
        <time>2023-04-21T13:02:15Z</time>
      </trkpt>
      <trkpt lat="49.14621" lon="-0.40398">
        <ele>28</ele>
        <time>2023-04-21T13:02:16Z</time>
      </trkpt>
      <trkpt lat="49.14626" lon="-0.40395">
        <ele>28</ele>
        <time>2023-04-21T13:02:17Z</time>
      </trkpt>
      <trkpt lat="49.14632" lon="-0.40391">
        <ele>28</ele>
        <time>2023-04-21T13:02:18Z</time>
      </trkpt>
      <trkpt lat="49.14637" lon="-0.40388">
        <ele>28.2</ele>
        <time>2023-04-21T13:02:19Z</time>
      </trkpt>
      <trkpt lat="49.14642" lon="-0.40385">
        <ele>28.2</ele>
        <time>2023-04-21T13:02:20Z</time>
      </trkpt>
      <trkpt lat="49.14647" lon="-0.40382">
        <ele>28.2</ele>
        <time>2023-04-21T13:02:21Z</time>
      </trkpt>
      <trkpt lat="49.14653" lon="-0.40378">
        <ele>28.2</ele>
        <time>2023-04-21T13:02:22Z</time>
      </trkpt>
      <trkpt lat="49.14658" lon="-0.40375">
        <ele>28.2</ele>
        <time>2023-04-21T13:02:23Z</time>
      </trkpt>
      <trkpt lat="49.14663" lon="-0.40372">
        <ele>28.4</ele>
        <time>2023-04-21T13:02:24Z</time>
      </trkpt>
      <trkpt lat="49.14668" lon="-0.40369">
        <ele>28.6</ele>
        <time>2023-04-21T13:02:25Z</time>
      </trkpt>
      <trkpt lat="49.14673" lon="-0.40366">
        <ele>28.6</ele>
        <time>2023-04-21T13:02:26Z</time>
      </trkpt>
      <trkpt lat="49.14678" lon="-0.40363">
        <ele>28.6</ele>
        <time>2023-04-21T13:02:27Z</time>
      </trkpt>
      <trkpt lat="49.14683" lon="-0.4036">
        <ele>28.8</ele>
        <time>2023-04-21T13:02:28Z</time>
      </trkpt>
      <trkpt lat="49.14688" lon="-0.40357">
        <ele>28.8</ele>
        <time>2023-04-21T13:02:29Z</time>
      </trkpt>
      <trkpt lat="49.14693" lon="-0.40354">
        <ele>28.8</ele>
        <time>2023-04-21T13:02:30Z</time>
      </trkpt>
      <trkpt lat="49.14698" lon="-0.40351">
        <ele>29</ele>
        <time>2023-04-21T13:02:31Z</time>
      </trkpt>
      <trkpt lat="49.14702" lon="-0.40348">
        <ele>29</ele>
        <time>2023-04-21T13:02:32Z</time>
      </trkpt>
      <trkpt lat="49.14707" lon="-0.40345">
        <ele>29.2</ele>
        <time>2023-04-21T13:02:33Z</time>
      </trkpt>
      <trkpt lat="49.14712" lon="-0.40342">
        <ele>29.2</ele>
        <time>2023-04-21T13:02:34Z</time>
      </trkpt>
      <trkpt lat="49.14716" lon="-0.40339">
        <ele>29.2</ele>
        <time>2023-04-21T13:02:35Z</time>
      </trkpt>
      <trkpt lat="49.14721" lon="-0.40336">
        <ele>29.2</ele>
        <time>2023-04-21T13:02:36Z</time>
      </trkpt>
      <trkpt lat="49.14726" lon="-0.40333">
        <ele>29.4</ele>
        <time>2023-04-21T13:02:37Z</time>
      </trkpt>
      <trkpt lat="49.14731" lon="-0.4033">
        <ele>29.4</ele>
        <time>2023-04-21T13:02:38Z</time>
      </trkpt>
      <trkpt lat="49.14735" lon="-0.40327">
        <ele>29.4</ele>
        <time>2023-04-21T13:02:39Z</time>
      </trkpt>
      <trkpt lat="49.1474" lon="-0.40324">
        <ele>29.4</ele>
        <time>2023-04-21T13:02:40Z</time>
      </trkpt>
      <trkpt lat="49.14745" lon="-0.40321">
        <ele>29.2</ele>
        <time>2023-04-21T13:02:41Z</time>
      </trkpt>
      <trkpt lat="49.1475" lon="-0.40318">
        <ele>29.2</ele>
        <time>2023-04-21T13:02:42Z</time>
      </trkpt>
      <trkpt lat="49.14755" lon="-0.40315">
        <ele>29.2</ele>
        <time>2023-04-21T13:02:43Z</time>
      </trkpt>
      <trkpt lat="49.1476" lon="-0.40312">
        <ele>29.2</ele>
        <time>2023-04-21T13:02:44Z</time>
      </trkpt>
      <trkpt lat="49.14765" lon="-0.40309">
        <ele>29.2</ele>
        <time>2023-04-21T13:02:45Z</time>
      </trkpt>
      <trkpt lat="49.1477" lon="-0.40306">
        <ele>29</ele>
        <time>2023-04-21T13:02:46Z</time>
      </trkpt>
      <trkpt lat="49.14775" lon="-0.40303">
        <ele>29</ele>
        <time>2023-04-21T13:02:47Z</time>
      </trkpt>
      <trkpt lat="49.1478" lon="-0.40301">
        <ele>28.8</ele>
        <time>2023-04-21T13:02:48Z</time>
      </trkpt>
      <trkpt lat="49.14785" lon="-0.40298">
        <ele>28.8</ele>
        <time>2023-04-21T13:02:49Z</time>
      </trkpt>
      <trkpt lat="49.1479" lon="-0.40295">
        <ele>28.8</ele>
        <time>2023-04-21T13:02:50Z</time>
      </trkpt>
      <trkpt lat="49.14795" lon="-0.40292">
        <ele>28.8</ele>
        <time>2023-04-21T13:02:51Z</time>
      </trkpt>
      <trkpt lat="49.148" lon="-0.40289">
        <ele>28.8</ele>
        <time>2023-04-21T13:02:52Z</time>
      </trkpt>
      <trkpt lat="49.14805" lon="-0.40285">
        <ele>28.8</ele>
        <time>2023-04-21T13:02:53Z</time>
      </trkpt>
      <trkpt lat="49.1481" lon="-0.40282">
        <ele>28.8</ele>
        <time>2023-04-21T13:02:54Z</time>
      </trkpt>
      <trkpt lat="49.14815" lon="-0.40279">
        <ele>28.8</ele>
        <time>2023-04-21T13:02:55Z</time>
      </trkpt>
      <trkpt lat="49.14819" lon="-0.40276">
        <ele>28.6</ele>
        <time>2023-04-21T13:02:56Z</time>
      </trkpt>
      <trkpt lat="49.14824" lon="-0.40272">
        <ele>28.6</ele>
        <time>2023-04-21T13:02:57Z</time>
      </trkpt>
      <trkpt lat="49.14829" lon="-0.40269">
        <ele>28.6</ele>
        <time>2023-04-21T13:02:58Z</time>
      </trkpt>
      <trkpt lat="49.14834" lon="-0.40266">
        <ele>28.6</ele>
        <time>2023-04-21T13:02:59Z</time>
      </trkpt>
      <trkpt lat="49.14839" lon="-0.40262">
        <ele>28.6</ele>
        <time>2023-04-21T13:03:00Z</time>
      </trkpt>
      <trkpt lat="49.14844" lon="-0.40259">
        <ele>28.8</ele>
        <time>2023-04-21T13:03:01Z</time>
      </trkpt>
      <trkpt lat="49.14849" lon="-0.40256">
        <ele>28.8</ele>
        <time>2023-04-21T13:03:02Z</time>
      </trkpt>
      <trkpt lat="49.14854" lon="-0.40253">
        <ele>28.8</ele>
        <time>2023-04-21T13:03:03Z</time>
      </trkpt>
      <trkpt lat="49.14859" lon="-0.40249">
        <ele>28.8</ele>
        <time>2023-04-21T13:03:04Z</time>
      </trkpt>
      <trkpt lat="49.14865" lon="-0.40246">
        <ele>29.2</ele>
        <time>2023-04-21T13:03:05Z</time>
      </trkpt>
      <trkpt lat="49.14869" lon="-0.40243">
        <ele>29.2</ele>
        <time>2023-04-21T13:03:06Z</time>
      </trkpt>
      <trkpt lat="49.14875" lon="-0.40239">
        <ele>29.6</ele>
        <time>2023-04-21T13:03:07Z</time>
      </trkpt>
      <trkpt lat="49.14879" lon="-0.40236">
        <ele>29.8</ele>
        <time>2023-04-21T13:03:08Z</time>
      </trkpt>
      <trkpt lat="49.14884" lon="-0.40233">
        <ele>30</ele>
        <time>2023-04-21T13:03:09Z</time>
      </trkpt>
      <trkpt lat="49.14889" lon="-0.40229">
        <ele>30.2</ele>
        <time>2023-04-21T13:03:10Z</time>
      </trkpt>
      <trkpt lat="49.14894" lon="-0.40226">
        <ele>30.4</ele>
        <time>2023-04-21T13:03:11Z</time>
      </trkpt>
      <trkpt lat="49.14899" lon="-0.40222">
        <ele>30.6</ele>
        <time>2023-04-21T13:03:12Z</time>
      </trkpt>
      <trkpt lat="49.14904" lon="-0.40219">
        <ele>30.8</ele>
        <time>2023-04-21T13:03:13Z</time>
      </trkpt>
      <trkpt lat="49.14909" lon="-0.40216">
        <ele>31.2</ele>
        <time>2023-04-21T13:03:14Z</time>
      </trkpt>
      <trkpt lat="49.14914" lon="-0.40213">
        <ele>31.2</ele>
        <time>2023-04-21T13:03:15Z</time>
      </trkpt>
      <trkpt lat="49.14919" lon="-0.40209">
        <ele>31.6</ele>
        <time>2023-04-21T13:03:16Z</time>
      </trkpt>
      <trkpt lat="49.14924" lon="-0.40206">
        <ele>31.6</ele>
        <time>2023-04-21T13:03:17Z</time>
      </trkpt>
      <trkpt lat="49.14929" lon="-0.40203">
        <ele>31.6</ele>
        <time>2023-04-21T13:03:18Z</time>
      </trkpt>
      <trkpt lat="49.14934" lon="-0.40199">
        <ele>31.6</ele>
        <time>2023-04-21T13:03:19Z</time>
      </trkpt>
      <trkpt lat="49.14939" lon="-0.40196">
        <ele>31.8</ele>
        <time>2023-04-21T13:03:20Z</time>
      </trkpt>
      <trkpt lat="49.14944" lon="-0.40193">
        <ele>31.8</ele>
        <time>2023-04-21T13:03:21Z</time>
      </trkpt>
      <trkpt lat="49.14948" lon="-0.4019">
        <ele>31.8</ele>
        <time>2023-04-21T13:03:22Z</time>
      </trkpt>
      <trkpt lat="49.14953" lon="-0.40187">
        <ele>31.6</ele>
        <time>2023-04-21T13:03:23Z</time>
      </trkpt>
      <trkpt lat="49.14957" lon="-0.40185">
        <ele>31.6</ele>
        <time>2023-04-21T13:03:24Z</time>
      </trkpt>
      <trkpt lat="49.14961" lon="-0.40184">
        <ele>31.6</ele>
        <time>2023-04-21T13:03:25Z</time>
      </trkpt>
      <trkpt lat="49.14965" lon="-0.40184">
        <ele>31.6</ele>
        <time>2023-04-21T13:03:26Z</time>
      </trkpt>
      <trkpt lat="49.14969" lon="-0.40185">
        <ele>31.6</ele>
        <time>2023-04-21T13:03:27Z</time>
      </trkpt>
      <trkpt lat="49.14972" lon="-0.40187">
        <ele>31.6</ele>
        <time>2023-04-21T13:03:28Z</time>
      </trkpt>
      <trkpt lat="49.14974" lon="-0.40188">
        <ele>31.6</ele>
        <time>2023-04-21T13:03:29Z</time>
      </trkpt>
      <trkpt lat="49.14976" lon="-0.4019">
        <ele>31.6</ele>
        <time>2023-04-21T13:03:30Z</time>
      </trkpt>
      <trkpt lat="49.14977" lon="-0.4019">
        <ele>31.6</ele>
        <time>2023-04-21T13:03:31Z</time>
      </trkpt>
      <trkpt lat="49.14978" lon="-0.40191">
        <ele>31.6</ele>
        <time>2023-04-21T13:03:32Z</time>
      </trkpt>
      <trkpt lat="49.14978" lon="-0.40191">
        <ele>31.6</ele>
        <time>2023-04-21T13:03:33Z</time>
      </trkpt>
      <trkpt lat="49.14978" lon="-0.40191">
        <ele>31.6</ele>
        <time>2023-04-21T13:03:34Z</time>
      </trkpt>
      <trkpt lat="49.14978" lon="-0.40191">
        <ele>31.6</ele>
        <time>2023-04-21T13:03:35Z</time>
      </trkpt>
      <trkpt lat="49.14979" lon="-0.40191">
        <ele>31.6</ele>
        <time>2023-04-21T13:03:36Z</time>
      </trkpt>
      <trkpt lat="49.14979" lon="-0.40191">
        <ele>31.6</ele>
        <time>2023-04-21T13:03:37Z</time>
      </trkpt>
      <trkpt lat="49.14979" lon="-0.40192">
        <ele>31.6</ele>
        <time>2023-04-21T13:03:38Z</time>
      </trkpt>
      <trkpt lat="49.1498" lon="-0.40192">
        <ele>31.6</ele>
        <time>2023-04-21T13:03:39Z</time>
      </trkpt>
      <trkpt lat="49.1498" lon="-0.40192">
        <ele>31.6</ele>
        <time>2023-04-21T13:03:40Z</time>
      </trkpt>
      <trkpt lat="49.1498" lon="-0.40192">
        <ele>31.6</ele>
        <time>2023-04-21T13:03:41Z</time>
      </trkpt>
      <trkpt lat="49.1498" lon="-0.40192">
        <ele>31.6</ele>
        <time>2023-04-21T13:03:42Z</time>
      </trkpt>
      <trkpt lat="49.1498" lon="-0.40192">
        <ele>31.6</ele>
        <time>2023-04-21T13:03:43Z</time>
      </trkpt>
      <trkpt lat="49.1498" lon="-0.40192">
        <ele>31.6</ele>
        <time>2023-04-21T13:03:44Z</time>
      </trkpt>
      <trkpt lat="49.1498" lon="-0.40192">
        <ele>31.6</ele>
        <time>2023-04-21T13:03:45Z</time>
      </trkpt>
      <trkpt lat="49.1498" lon="-0.40192">
        <ele>31.6</ele>
        <time>2023-04-21T13:03:46Z</time>
      </trkpt>
      <trkpt lat="49.1498" lon="-0.40192">
        <ele>31.6</ele>
        <time>2023-04-21T13:03:47Z</time>
      </trkpt>
      <trkpt lat="49.1498" lon="-0.40192">
        <ele>31.6</ele>
        <time>2023-04-21T13:03:48Z</time>
      </trkpt>
      <trkpt lat="49.1498" lon="-0.40192">
        <ele>31.6</ele>
        <time>2023-04-21T13:03:49Z</time>
      </trkpt>
      <trkpt lat="49.1498" lon="-0.40192">
        <ele>31.6</ele>
        <time>2023-04-21T13:03:50Z</time>
      </trkpt>
      <trkpt lat="49.1498" lon="-0.40192">
        <ele>31.6</ele>
        <time>2023-04-21T13:03:51Z</time>
      </trkpt>
      <trkpt lat="49.1498" lon="-0.40192">
        <ele>31.6</ele>
        <time>2023-04-21T13:03:52Z</time>
      </trkpt>
      <trkpt lat="49.1498" lon="-0.40192">
        <ele>31.6</ele>
        <time>2023-04-21T13:03:53Z</time>
      </trkpt>
      <trkpt lat="49.1498" lon="-0.40192">
        <ele>31.6</ele>
        <time>2023-04-21T13:03:54Z</time>
      </trkpt>
      <trkpt lat="49.1498" lon="-0.40192">
        <ele>31.6</ele>
        <time>2023-04-21T13:03:55Z</time>
      </trkpt>
      <trkpt lat="49.1498" lon="-0.40192">
        <ele>31.6</ele>
        <time>2023-04-21T13:03:56Z</time>
      </trkpt>
      <trkpt lat="49.1498" lon="-0.40192">
        <ele>31.6</ele>
        <time>2023-04-21T13:03:57Z</time>
      </trkpt>
      <trkpt lat="49.1498" lon="-0.40192">
        <ele>31.6</ele>
        <time>2023-04-21T13:03:58Z</time>
      </trkpt>
      <trkpt lat="49.1498" lon="-0.40192">
        <ele>31.6</ele>
        <time>2023-04-21T13:03:59Z</time>
      </trkpt>
      <trkpt lat="49.1498" lon="-0.40192">
        <ele>31.6</ele>
        <time>2023-04-21T13:04:00Z</time>
      </trkpt>
      <trkpt lat="49.1498" lon="-0.40192">
        <ele>31.6</ele>
        <time>2023-04-21T13:04:01Z</time>
      </trkpt>
      <trkpt lat="49.1498" lon="-0.40192">
        <ele>31.6</ele>
        <time>2023-04-21T13:04:02Z</time>
      </trkpt>
      <trkpt lat="49.1498" lon="-0.40192">
        <ele>31.6</ele>
        <time>2023-04-21T13:04:03Z</time>
      </trkpt>
      <trkpt lat="49.1498" lon="-0.40192">
        <ele>31.6</ele>
        <time>2023-04-21T13:04:04Z</time>
      </trkpt>
      <trkpt lat="49.1498" lon="-0.40192">
        <ele>31.6</ele>
        <time>2023-04-21T13:04:05Z</time>
      </trkpt>
      <trkpt lat="49.1498" lon="-0.40192">
        <ele>31.6</ele>
        <time>2023-04-21T13:04:06Z</time>
      </trkpt>
      <trkpt lat="49.1498" lon="-0.40192">
        <ele>31.6</ele>
        <time>2023-04-21T13:04:07Z</time>
      </trkpt>
      <trkpt lat="49.1498" lon="-0.40192">
        <ele>31.6</ele>
        <time>2023-04-21T13:04:08Z</time>
      </trkpt>
      <trkpt lat="49.1498" lon="-0.40192">
        <ele>31.6</ele>
        <time>2023-04-21T13:04:09Z</time>
      </trkpt>
      <trkpt lat="49.1498" lon="-0.40192">
        <ele>31.6</ele>
        <time>2023-04-21T13:04:10Z</time>
      </trkpt>
      <trkpt lat="49.1498" lon="-0.40192">
        <ele>31.6</ele>
        <time>2023-04-21T13:04:11Z</time>
      </trkpt>
      <trkpt lat="49.1498" lon="-0.40192">
        <ele>31.6</ele>
        <time>2023-04-21T13:04:12Z</time>
      </trkpt>
      <trkpt lat="49.1498" lon="-0.40192">
        <ele>31.6</ele>
        <time>2023-04-21T13:04:13Z</time>
      </trkpt>
      <trkpt lat="49.1498" lon="-0.40192">
        <ele>31.6</ele>
        <time>2023-04-21T13:04:14Z</time>
      </trkpt>
      <trkpt lat="49.1498" lon="-0.40192">
        <ele>31.6</ele>
        <time>2023-04-21T13:04:15Z</time>
      </trkpt>
      <trkpt lat="49.1498" lon="-0.40192">
        <ele>31.6</ele>
        <time>2023-04-21T13:04:16Z</time>
      </trkpt>
      <trkpt lat="49.1498" lon="-0.40192">
        <ele>31.6</ele>
        <time>2023-04-21T13:04:17Z</time>
      </trkpt>
      <trkpt lat="49.1498" lon="-0.40192">
        <ele>31.6</ele>
        <time>2023-04-21T13:04:18Z</time>
      </trkpt>
      <trkpt lat="49.1498" lon="-0.40192">
        <ele>31.6</ele>
        <time>2023-04-21T13:04:19Z</time>
      </trkpt>
      <trkpt lat="49.1498" lon="-0.40192">
        <ele>31.6</ele>
        <time>2023-04-21T13:04:20Z</time>
      </trkpt>
      <trkpt lat="49.1498" lon="-0.40192">
        <ele>31.6</ele>
        <time>2023-04-21T13:04:21Z</time>
      </trkpt>
      <trkpt lat="49.1498" lon="-0.40192">
        <ele>31.6</ele>
        <time>2023-04-21T13:04:22Z</time>
      </trkpt>
      <trkpt lat="49.1498" lon="-0.40192">
        <ele>31.6</ele>
        <time>2023-04-21T13:04:23Z</time>
      </trkpt>
      <trkpt lat="49.1498" lon="-0.40192">
        <ele>31.6</ele>
        <time>2023-04-21T13:04:24Z</time>
      </trkpt>
      <trkpt lat="49.1498" lon="-0.40192">
        <ele>31.6</ele>
        <time>2023-04-21T13:04:25Z</time>
      </trkpt>
      <trkpt lat="49.1498" lon="-0.40192">
        <ele>31.6</ele>
        <time>2023-04-21T13:04:26Z</time>
      </trkpt>
      <trkpt lat="49.1498" lon="-0.40192">
        <ele>31.6</ele>
        <time>2023-04-21T13:04:27Z</time>
      </trkpt>
      <trkpt lat="49.1498" lon="-0.40192">
        <ele>31.6</ele>
        <time>2023-04-21T13:04:28Z</time>
      </trkpt>
      <trkpt lat="49.1498" lon="-0.40192">
        <ele>31.6</ele>
        <time>2023-04-21T13:04:29Z</time>
      </trkpt>
      <trkpt lat="49.1498" lon="-0.40192">
        <ele>31.6</ele>
        <time>2023-04-21T13:04:30Z</time>
      </trkpt>
      <trkpt lat="49.1498" lon="-0.40192">
        <ele>31.6</ele>
        <time>2023-04-21T13:04:31Z</time>
      </trkpt>
      <trkpt lat="49.1498" lon="-0.40192">
        <ele>31.6</ele>
        <time>2023-04-21T13:04:32Z</time>
      </trkpt>
      <trkpt lat="49.1498" lon="-0.40192">
        <ele>31.6</ele>
        <time>2023-04-21T13:04:33Z</time>
      </trkpt>
      <trkpt lat="49.1498" lon="-0.40192">
        <ele>31.6</ele>
        <time>2023-04-21T13:04:34Z</time>
      </trkpt>
      <trkpt lat="49.1498" lon="-0.40192">
        <ele>31.6</ele>
        <time>2023-04-21T13:04:35Z</time>
      </trkpt>
      <trkpt lat="49.1498" lon="-0.40192">
        <ele>31.6</ele>
        <time>2023-04-21T13:04:36Z</time>
      </trkpt>
      <trkpt lat="49.1498" lon="-0.40192">
        <ele>31.6</ele>
        <time>2023-04-21T13:04:37Z</time>
      </trkpt>
      <trkpt lat="49.1498" lon="-0.40192">
        <ele>31.6</ele>
        <time>2023-04-21T13:04:38Z</time>
      </trkpt>
      <trkpt lat="49.1498" lon="-0.40192">
        <ele>31.6</ele>
        <time>2023-04-21T13:04:39Z</time>
      </trkpt>
      <trkpt lat="49.1498" lon="-0.40192">
        <ele>31.6</ele>
        <time>2023-04-21T13:04:40Z</time>
      </trkpt>
      <trkpt lat="49.1498" lon="-0.40192">
        <ele>31.6</ele>
        <time>2023-04-21T13:04:41Z</time>
      </trkpt>
      <trkpt lat="49.1498" lon="-0.40192">
        <ele>31.6</ele>
        <time>2023-04-21T13:04:42Z</time>
      </trkpt>
      <trkpt lat="49.1498" lon="-0.40192">
        <ele>31.6</ele>
        <time>2023-04-21T13:04:43Z</time>
      </trkpt>
      <trkpt lat="49.1498" lon="-0.40192">
        <ele>31.6</ele>
        <time>2023-04-21T13:04:44Z</time>
      </trkpt>
      <trkpt lat="49.1498" lon="-0.40192">
        <ele>31.6</ele>
        <time>2023-04-21T13:04:45Z</time>
      </trkpt>
      <trkpt lat="49.1498" lon="-0.40192">
        <ele>31.6</ele>
        <time>2023-04-21T13:04:46Z</time>
      </trkpt>
      <trkpt lat="49.1498" lon="-0.40192">
        <ele>31.6</ele>
        <time>2023-04-21T13:04:47Z</time>
      </trkpt>
      <trkpt lat="49.1498" lon="-0.40192">
        <ele>31.6</ele>
        <time>2023-04-21T13:04:48Z</time>
      </trkpt>
      <trkpt lat="49.1498" lon="-0.40192">
        <ele>31.6</ele>
        <time>2023-04-21T13:04:49Z</time>
      </trkpt>
      <trkpt lat="49.1498" lon="-0.40192">
        <ele>31.6</ele>
        <time>2023-04-21T13:04:50Z</time>
      </trkpt>
      <trkpt lat="49.1498" lon="-0.40192">
        <ele>31.6</ele>
        <time>2023-04-21T13:04:51Z</time>
      </trkpt>
      <trkpt lat="49.1498" lon="-0.40192">
        <ele>31.6</ele>
        <time>2023-04-21T13:04:52Z</time>
      </trkpt>
      <trkpt lat="49.1498" lon="-0.40192">
        <ele>31.6</ele>
        <time>2023-04-21T13:04:53Z</time>
      </trkpt>
      <trkpt lat="49.1498" lon="-0.40192">
        <ele>31.6</ele>
        <time>2023-04-21T13:04:54Z</time>
      </trkpt>
      <trkpt lat="49.1498" lon="-0.40192">
        <ele>31.6</ele>
        <time>2023-04-21T13:04:55Z</time>
      </trkpt>
      <trkpt lat="49.1498" lon="-0.40192">
        <ele>31.6</ele>
        <time>2023-04-21T13:04:56Z</time>
      </trkpt>
      <trkpt lat="49.1498" lon="-0.40192">
        <ele>31.6</ele>
        <time>2023-04-21T13:04:57Z</time>
      </trkpt>
      <trkpt lat="49.1498" lon="-0.40192">
        <ele>31.6</ele>
        <time>2023-04-21T13:04:58Z</time>
      </trkpt>
      <trkpt lat="49.1498" lon="-0.40192">
        <ele>31.6</ele>
        <time>2023-04-21T13:04:59Z</time>
      </trkpt>
      <trkpt lat="49.1498" lon="-0.40192">
        <ele>31.6</ele>
        <time>2023-04-21T13:05:00Z</time>
      </trkpt>
      <trkpt lat="49.1498" lon="-0.40192">
        <ele>31.6</ele>
        <time>2023-04-21T13:05:01Z</time>
      </trkpt>
      <trkpt lat="49.1498" lon="-0.40192">
        <ele>31.6</ele>
        <time>2023-04-21T13:05:02Z</time>
      </trkpt>
      <trkpt lat="49.1498" lon="-0.40192">
        <ele>31.6</ele>
        <time>2023-04-21T13:05:03Z</time>
      </trkpt>
      <trkpt lat="49.1498" lon="-0.40192">
        <ele>31.6</ele>
        <time>2023-04-21T13:05:04Z</time>
      </trkpt>
      <trkpt lat="49.1498" lon="-0.40192">
        <ele>31.6</ele>
        <time>2023-04-21T13:05:05Z</time>
      </trkpt>
      <trkpt lat="49.1498" lon="-0.40191">
        <ele>31.6</ele>
        <time>2023-04-21T13:05:06Z</time>
      </trkpt>
      <trkpt lat="49.1498" lon="-0.40189">
        <ele>31.6</ele>
        <time>2023-04-21T13:05:07Z</time>
      </trkpt>
      <trkpt lat="49.14979" lon="-0.40188">
        <ele>31.6</ele>
        <time>2023-04-21T13:05:08Z</time>
      </trkpt>
      <trkpt lat="49.14979" lon="-0.40188">
        <ele>31.6</ele>
        <time>2023-04-21T13:05:09Z</time>
      </trkpt>
      <trkpt lat="49.14979" lon="-0.40188">
        <ele>31.6</ele>
        <time>2023-04-21T13:05:10Z</time>
      </trkpt>
      <trkpt lat="49.14978" lon="-0.40187">
        <ele>31.6</ele>
        <time>2023-04-21T13:05:11Z</time>
      </trkpt>
      <trkpt lat="49.14977" lon="-0.40186">
        <ele>31.6</ele>
        <time>2023-04-21T13:05:12Z</time>
      </trkpt>
      <trkpt lat="49.14975" lon="-0.40185">
        <ele>31.6</ele>
        <time>2023-04-21T13:05:13Z</time>
      </trkpt>
      <trkpt lat="49.14974" lon="-0.40183">
        <ele>31.6</ele>
        <time>2023-04-21T13:05:14Z</time>
      </trkpt>
      <trkpt lat="49.14974" lon="-0.4018">
        <ele>31.6</ele>
        <time>2023-04-21T13:05:15Z</time>
      </trkpt>
      <trkpt lat="49.14974" lon="-0.40177">
        <ele>31.4</ele>
        <time>2023-04-21T13:05:16Z</time>
      </trkpt>
      <trkpt lat="49.14975" lon="-0.40174">
        <ele>31.4</ele>
        <time>2023-04-21T13:05:17Z</time>
      </trkpt>
      <trkpt lat="49.14977" lon="-0.40172">
        <ele>31.2</ele>
        <time>2023-04-21T13:05:18Z</time>
      </trkpt>
      <trkpt lat="49.1498" lon="-0.40169">
        <ele>31.2</ele>
        <time>2023-04-21T13:05:19Z</time>
      </trkpt>
      <trkpt lat="49.14983" lon="-0.40167">
        <ele>31.2</ele>
        <time>2023-04-21T13:05:20Z</time>
      </trkpt>
      <trkpt lat="49.14987" lon="-0.40165">
        <ele>31.2</ele>
        <time>2023-04-21T13:05:21Z</time>
      </trkpt>
      <trkpt lat="49.14991" lon="-0.40163">
        <ele>31</ele>
        <time>2023-04-21T13:05:22Z</time>
      </trkpt>
      <trkpt lat="49.14996" lon="-0.4016">
        <ele>30.8</ele>
        <time>2023-04-21T13:05:23Z</time>
      </trkpt>
      <trkpt lat="49.15" lon="-0.40156">
        <ele>30.6</ele>
        <time>2023-04-21T13:05:24Z</time>
      </trkpt>
      <trkpt lat="49.15005" lon="-0.40153">
        <ele>30.6</ele>
        <time>2023-04-21T13:05:25Z</time>
      </trkpt>
      <trkpt lat="49.1501" lon="-0.40149">
        <ele>30.2</ele>
        <time>2023-04-21T13:05:26Z</time>
      </trkpt>
      <trkpt lat="49.15015" lon="-0.40146">
        <ele>30.2</ele>
        <time>2023-04-21T13:05:27Z</time>
      </trkpt>
      <trkpt lat="49.1502" lon="-0.40142">
        <ele>30.2</ele>
        <time>2023-04-21T13:05:28Z</time>
      </trkpt>
      <trkpt lat="49.15026" lon="-0.40139">
        <ele>29.8</ele>
        <time>2023-04-21T13:05:29Z</time>
      </trkpt>
      <trkpt lat="49.15031" lon="-0.40135">
        <ele>29.8</ele>
        <time>2023-04-21T13:05:30Z</time>
      </trkpt>
      <trkpt lat="49.15037" lon="-0.40131">
        <ele>29.6</ele>
        <time>2023-04-21T13:05:31Z</time>
      </trkpt>
      <trkpt lat="49.15042" lon="-0.40128">
        <ele>29.4</ele>
        <time>2023-04-21T13:05:32Z</time>
      </trkpt>
      <trkpt lat="49.15048" lon="-0.40124">
        <ele>29.2</ele>
        <time>2023-04-21T13:05:33Z</time>
      </trkpt>
      <trkpt lat="49.15055" lon="-0.4012">
        <ele>28.8</ele>
        <time>2023-04-21T13:05:34Z</time>
      </trkpt>
      <trkpt lat="49.15061" lon="-0.40116">
        <ele>28.8</ele>
        <time>2023-04-21T13:05:35Z</time>
      </trkpt>
      <trkpt lat="49.15067" lon="-0.40112">
        <ele>28.6</ele>
        <time>2023-04-21T13:05:36Z</time>
      </trkpt>
      <trkpt lat="49.15074" lon="-0.40108">
        <ele>28.2</ele>
        <time>2023-04-21T13:05:37Z</time>
      </trkpt>
      <trkpt lat="49.15081" lon="-0.40105">
        <ele>28.2</ele>
        <time>2023-04-21T13:05:38Z</time>
      </trkpt>
      <trkpt lat="49.15088" lon="-0.40101">
        <ele>27.8</ele>
        <time>2023-04-21T13:05:39Z</time>
      </trkpt>
      <trkpt lat="49.15095" lon="-0.40098">
        <ele>27.8</ele>
        <time>2023-04-21T13:05:40Z</time>
      </trkpt>
      <trkpt lat="49.15102" lon="-0.40094">
        <ele>27.8</ele>
        <time>2023-04-21T13:05:41Z</time>
      </trkpt>
      <trkpt lat="49.15109" lon="-0.40091">
        <ele>27.6</ele>
        <time>2023-04-21T13:05:42Z</time>
      </trkpt>
      <trkpt lat="49.15116" lon="-0.40087">
        <ele>27.6</ele>
        <time>2023-04-21T13:05:43Z</time>
      </trkpt>
      <trkpt lat="49.15124" lon="-0.40084">
        <ele>27.6</ele>
        <time>2023-04-21T13:05:44Z</time>
      </trkpt>
      <trkpt lat="49.15131" lon="-0.40081">
        <ele>27.4</ele>
        <time>2023-04-21T13:05:45Z</time>
      </trkpt>
      <trkpt lat="49.15138" lon="-0.40078">
        <ele>27.2</ele>
        <time>2023-04-21T13:05:46Z</time>
      </trkpt>
      <trkpt lat="49.15145" lon="-0.40075">
        <ele>27.2</ele>
        <time>2023-04-21T13:05:47Z</time>
      </trkpt>
      <trkpt lat="49.15151" lon="-0.40072">
        <ele>27.2</ele>
        <time>2023-04-21T13:05:48Z</time>
      </trkpt>
      <trkpt lat="49.15158" lon="-0.40069">
        <ele>27.2</ele>
        <time>2023-04-21T13:05:49Z</time>
      </trkpt>
      <trkpt lat="49.15165" lon="-0.40067">
        <ele>27</ele>
        <time>2023-04-21T13:05:50Z</time>
      </trkpt>
      <trkpt lat="49.15172" lon="-0.40064">
        <ele>26.8</ele>
        <time>2023-04-21T13:05:51Z</time>
      </trkpt>
      <trkpt lat="49.15178" lon="-0.40061">
        <ele>26.6</ele>
        <time>2023-04-21T13:05:52Z</time>
      </trkpt>
      <trkpt lat="49.15185" lon="-0.40059">
        <ele>26.4</ele>
        <time>2023-04-21T13:05:53Z</time>
      </trkpt>
      <trkpt lat="49.15191" lon="-0.40057">
        <ele>26.2</ele>
        <time>2023-04-21T13:05:54Z</time>
      </trkpt>
      <trkpt lat="49.15198" lon="-0.40055">
        <ele>26.2</ele>
        <time>2023-04-21T13:05:55Z</time>
      </trkpt>
      <trkpt lat="49.15204" lon="-0.40053">
        <ele>26.2</ele>
        <time>2023-04-21T13:05:56Z</time>
      </trkpt>
      <trkpt lat="49.1521" lon="-0.40051">
        <ele>26</ele>
        <time>2023-04-21T13:05:57Z</time>
      </trkpt>
      <trkpt lat="49.15217" lon="-0.4005">
        <ele>25.8</ele>
        <time>2023-04-21T13:05:58Z</time>
      </trkpt>
      <trkpt lat="49.15223" lon="-0.40049">
        <ele>25.8</ele>
        <time>2023-04-21T13:05:59Z</time>
      </trkpt>
      <trkpt lat="49.15229" lon="-0.40048">
        <ele>25.8</ele>
        <time>2023-04-21T13:06:00Z</time>
      </trkpt>
      <trkpt lat="49.15234" lon="-0.40047">
        <ele>25.8</ele>
        <time>2023-04-21T13:06:01Z</time>
      </trkpt>
      <trkpt lat="49.1524" lon="-0.40046">
        <ele>25.8</ele>
        <time>2023-04-21T13:06:02Z</time>
      </trkpt>
      <trkpt lat="49.15246" lon="-0.40045">
        <ele>25.6</ele>
        <time>2023-04-21T13:06:03Z</time>
      </trkpt>
      <trkpt lat="49.15252" lon="-0.40044">
        <ele>25.6</ele>
        <time>2023-04-21T13:06:04Z</time>
      </trkpt>
      <trkpt lat="49.15258" lon="-0.40043">
        <ele>25.6</ele>
        <time>2023-04-21T13:06:05Z</time>
      </trkpt>
      <trkpt lat="49.15264" lon="-0.40042">
        <ele>25.6</ele>
        <time>2023-04-21T13:06:06Z</time>
      </trkpt>
      <trkpt lat="49.1527" lon="-0.40041">
        <ele>25.6</ele>
        <time>2023-04-21T13:06:07Z</time>
      </trkpt>
      <trkpt lat="49.15276" lon="-0.4004">
        <ele>25.6</ele>
        <time>2023-04-21T13:06:08Z</time>
      </trkpt>
      <trkpt lat="49.15281" lon="-0.4004">
        <ele>25.6</ele>
        <time>2023-04-21T13:06:09Z</time>
      </trkpt>
      <trkpt lat="49.15287" lon="-0.40039">
        <ele>25.6</ele>
        <time>2023-04-21T13:06:10Z</time>
      </trkpt>
      <trkpt lat="49.15293" lon="-0.40038">
        <ele>25.6</ele>
        <time>2023-04-21T13:06:11Z</time>
      </trkpt>
      <trkpt lat="49.15299" lon="-0.40037">
        <ele>25.6</ele>
        <time>2023-04-21T13:06:12Z</time>
      </trkpt>
      <trkpt lat="49.15305" lon="-0.40036">
        <ele>25.6</ele>
        <time>2023-04-21T13:06:13Z</time>
      </trkpt>
      <trkpt lat="49.15311" lon="-0.40035">
        <ele>25.6</ele>
        <time>2023-04-21T13:06:14Z</time>
      </trkpt>
      <trkpt lat="49.15317" lon="-0.40033">
        <ele>25.6</ele>
        <time>2023-04-21T13:06:15Z</time>
      </trkpt>
      <trkpt lat="49.15323" lon="-0.40032">
        <ele>25.6</ele>
        <time>2023-04-21T13:06:16Z</time>
      </trkpt>
      <trkpt lat="49.15329" lon="-0.40031">
        <ele>25.4</ele>
        <time>2023-04-21T13:06:17Z</time>
      </trkpt>
      <trkpt lat="49.15335" lon="-0.40029">
        <ele>25.4</ele>
        <time>2023-04-21T13:06:18Z</time>
      </trkpt>
      <trkpt lat="49.15341" lon="-0.40027">
        <ele>25.6</ele>
        <time>2023-04-21T13:06:19Z</time>
      </trkpt>
      <trkpt lat="49.15347" lon="-0.40025">
        <ele>25.6</ele>
        <time>2023-04-21T13:06:20Z</time>
      </trkpt>
      <trkpt lat="49.15353" lon="-0.40022">
        <ele>25.8</ele>
        <time>2023-04-21T13:06:21Z</time>
      </trkpt>
      <trkpt lat="49.15359" lon="-0.4002">
        <ele>25.8</ele>
        <time>2023-04-21T13:06:22Z</time>
      </trkpt>
      <trkpt lat="49.15365" lon="-0.40017">
        <ele>25.8</ele>
        <time>2023-04-21T13:06:23Z</time>
      </trkpt>
      <trkpt lat="49.15371" lon="-0.40014">
        <ele>25.8</ele>
        <time>2023-04-21T13:06:24Z</time>
      </trkpt>
      <trkpt lat="49.15377" lon="-0.40011">
        <ele>26</ele>
        <time>2023-04-21T13:06:25Z</time>
      </trkpt>
      <trkpt lat="49.15383" lon="-0.40007">
        <ele>26</ele>
        <time>2023-04-21T13:06:26Z</time>
      </trkpt>
      <trkpt lat="49.15389" lon="-0.40003">
        <ele>26.2</ele>
        <time>2023-04-21T13:06:27Z</time>
      </trkpt>
      <trkpt lat="49.15395" lon="-0.39999">
        <ele>26.2</ele>
        <time>2023-04-21T13:06:28Z</time>
      </trkpt>
      <trkpt lat="49.15401" lon="-0.39995">
        <ele>26.2</ele>
        <time>2023-04-21T13:06:29Z</time>
      </trkpt>
      <trkpt lat="49.15407" lon="-0.39991">
        <ele>26.2</ele>
        <time>2023-04-21T13:06:30Z</time>
      </trkpt>
      <trkpt lat="49.15413" lon="-0.39986">
        <ele>26.2</ele>
        <time>2023-04-21T13:06:31Z</time>
      </trkpt>
      <trkpt lat="49.1542" lon="-0.39981">
        <ele>26</ele>
        <time>2023-04-21T13:06:32Z</time>
      </trkpt>
      <trkpt lat="49.15426" lon="-0.39976">
        <ele>25.8</ele>
        <time>2023-04-21T13:06:33Z</time>
      </trkpt>
      <trkpt lat="49.15432" lon="-0.39971">
        <ele>25.4</ele>
        <time>2023-04-21T13:06:34Z</time>
      </trkpt>
      <trkpt lat="49.15438" lon="-0.39966">
        <ele>25.2</ele>
        <time>2023-04-21T13:06:35Z</time>
      </trkpt>
      <trkpt lat="49.15444" lon="-0.3996">
        <ele>24.8</ele>
        <time>2023-04-21T13:06:36Z</time>
      </trkpt>
      <trkpt lat="49.15451" lon="-0.39955">
        <ele>24.8</ele>
        <time>2023-04-21T13:06:37Z</time>
      </trkpt>
      <trkpt lat="49.15457" lon="-0.3995">
        <ele>24.6</ele>
        <time>2023-04-21T13:06:38Z</time>
      </trkpt>
      <trkpt lat="49.15463" lon="-0.39944">
        <ele>24.2</ele>
        <time>2023-04-21T13:06:39Z</time>
      </trkpt>
      <trkpt lat="49.15469" lon="-0.39939">
        <ele>24.2</ele>
        <time>2023-04-21T13:06:40Z</time>
      </trkpt>
      <trkpt lat="49.15475" lon="-0.39933">
        <ele>24.2</ele>
        <time>2023-04-21T13:06:41Z</time>
      </trkpt>
      <trkpt lat="49.15482" lon="-0.39928">
        <ele>24</ele>
        <time>2023-04-21T13:06:42Z</time>
      </trkpt>
      <trkpt lat="49.15488" lon="-0.39923">
        <ele>24</ele>
        <time>2023-04-21T13:06:43Z</time>
      </trkpt>
      <trkpt lat="49.15494" lon="-0.39917">
        <ele>23.8</ele>
        <time>2023-04-21T13:06:44Z</time>
      </trkpt>
      <trkpt lat="49.155" lon="-0.39911">
        <ele>24</ele>
        <time>2023-04-21T13:06:45Z</time>
      </trkpt>
      <trkpt lat="49.15506" lon="-0.39906">
        <ele>24.2</ele>
        <time>2023-04-21T13:06:46Z</time>
      </trkpt>
      <trkpt lat="49.15512" lon="-0.39901">
        <ele>24.2</ele>
        <time>2023-04-21T13:06:47Z</time>
      </trkpt>
      <trkpt lat="49.15518" lon="-0.39895">
        <ele>24.2</ele>
        <time>2023-04-21T13:06:48Z</time>
      </trkpt>
      <trkpt lat="49.15525" lon="-0.3989">
        <ele>24.2</ele>
        <time>2023-04-21T13:06:49Z</time>
      </trkpt>
      <trkpt lat="49.15531" lon="-0.39885">
        <ele>24.2</ele>
        <time>2023-04-21T13:06:50Z</time>
      </trkpt>
      <trkpt lat="49.15537" lon="-0.39879">
        <ele>24.2</ele>
        <time>2023-04-21T13:06:51Z</time>
      </trkpt>
      <trkpt lat="49.15543" lon="-0.39874">
        <ele>24.2</ele>
        <time>2023-04-21T13:06:52Z</time>
      </trkpt>
      <trkpt lat="49.15549" lon="-0.39869">
        <ele>24.2</ele>
        <time>2023-04-21T13:06:53Z</time>
      </trkpt>
      <trkpt lat="49.15555" lon="-0.39864">
        <ele>24.2</ele>
        <time>2023-04-21T13:06:54Z</time>
      </trkpt>
      <trkpt lat="49.15561" lon="-0.39858">
        <ele>24.2</ele>
        <time>2023-04-21T13:06:55Z</time>
      </trkpt>
      <trkpt lat="49.15567" lon="-0.39853">
        <ele>24.2</ele>
        <time>2023-04-21T13:06:56Z</time>
      </trkpt>
      <trkpt lat="49.15573" lon="-0.39848">
        <ele>24.2</ele>
        <time>2023-04-21T13:06:57Z</time>
      </trkpt>
      <trkpt lat="49.15578" lon="-0.39842">
        <ele>24.2</ele>
        <time>2023-04-21T13:06:58Z</time>
      </trkpt>
      <trkpt lat="49.15584" lon="-0.39837">
        <ele>24</ele>
        <time>2023-04-21T13:06:59Z</time>
      </trkpt>
      <trkpt lat="49.1559" lon="-0.39832">
        <ele>23.8</ele>
        <time>2023-04-21T13:07:00Z</time>
      </trkpt>
      <trkpt lat="49.15595" lon="-0.39826">
        <ele>23.8</ele>
        <time>2023-04-21T13:07:01Z</time>
      </trkpt>
      <trkpt lat="49.15601" lon="-0.3982">
        <ele>23.6</ele>
        <time>2023-04-21T13:07:02Z</time>
      </trkpt>
      <trkpt lat="49.15607" lon="-0.39814">
        <ele>23.2</ele>
        <time>2023-04-21T13:07:03Z</time>
      </trkpt>
      <trkpt lat="49.15612" lon="-0.39807">
        <ele>23.2</ele>
        <time>2023-04-21T13:07:04Z</time>
      </trkpt>
      <trkpt lat="49.15618" lon="-0.398">
        <ele>22.8</ele>
        <time>2023-04-21T13:07:05Z</time>
      </trkpt>
      <trkpt lat="49.15624" lon="-0.39792">
        <ele>22.8</ele>
        <time>2023-04-21T13:07:06Z</time>
      </trkpt>
      <trkpt lat="49.1563" lon="-0.39785">
        <ele>22.6</ele>
        <time>2023-04-21T13:07:07Z</time>
      </trkpt>
      <trkpt lat="49.15635" lon="-0.39777">
        <ele>22.6</ele>
        <time>2023-04-21T13:07:08Z</time>
      </trkpt>
      <trkpt lat="49.15641" lon="-0.3977">
        <ele>22.2</ele>
        <time>2023-04-21T13:07:09Z</time>
      </trkpt>
      <trkpt lat="49.15647" lon="-0.39762">
        <ele>22.2</ele>
        <time>2023-04-21T13:07:10Z</time>
      </trkpt>
      <trkpt lat="49.15653" lon="-0.39755">
        <ele>22.2</ele>
        <time>2023-04-21T13:07:11Z</time>
      </trkpt>
      <trkpt lat="49.15658" lon="-0.39748">
        <ele>21.8</ele>
        <time>2023-04-21T13:07:12Z</time>
      </trkpt>
      <trkpt lat="49.15664" lon="-0.3974">
        <ele>21.8</ele>
        <time>2023-04-21T13:07:13Z</time>
      </trkpt>
      <trkpt lat="49.1567" lon="-0.39733">
        <ele>21.6</ele>
        <time>2023-04-21T13:07:14Z</time>
      </trkpt>
      <trkpt lat="49.15676" lon="-0.39726">
        <ele>21.2</ele>
        <time>2023-04-21T13:07:15Z</time>
      </trkpt>
      <trkpt lat="49.15682" lon="-0.3972">
        <ele>21.2</ele>
        <time>2023-04-21T13:07:16Z</time>
      </trkpt>
      <trkpt lat="49.15689" lon="-0.39714">
        <ele>21.2</ele>
        <time>2023-04-21T13:07:17Z</time>
      </trkpt>
      <trkpt lat="49.15695" lon="-0.39709">
        <ele>21.2</ele>
        <time>2023-04-21T13:07:18Z</time>
      </trkpt>
      <trkpt lat="49.15701" lon="-0.39705">
        <ele>21.2</ele>
        <time>2023-04-21T13:07:19Z</time>
      </trkpt>
      <trkpt lat="49.15708" lon="-0.39701">
        <ele>21.2</ele>
        <time>2023-04-21T13:07:20Z</time>
      </trkpt>
      <trkpt lat="49.15714" lon="-0.39698">
        <ele>21.4</ele>
        <time>2023-04-21T13:07:21Z</time>
      </trkpt>
      <trkpt lat="49.1572" lon="-0.39695">
        <ele>21.6</ele>
        <time>2023-04-21T13:07:22Z</time>
      </trkpt>
      <trkpt lat="49.15726" lon="-0.39691">
        <ele>21.6</ele>
        <time>2023-04-21T13:07:23Z</time>
      </trkpt>
      <trkpt lat="49.15732" lon="-0.39688">
        <ele>21.8</ele>
        <time>2023-04-21T13:07:24Z</time>
      </trkpt>
      <trkpt lat="49.15738" lon="-0.39684">
        <ele>21.8</ele>
        <time>2023-04-21T13:07:25Z</time>
      </trkpt>
      <trkpt lat="49.15743" lon="-0.39681">
        <ele>22</ele>
        <time>2023-04-21T13:07:26Z</time>
      </trkpt>
      <trkpt lat="49.15749" lon="-0.39677">
        <ele>22.2</ele>
        <time>2023-04-21T13:07:27Z</time>
      </trkpt>
      <trkpt lat="49.15754" lon="-0.39673">
        <ele>22.2</ele>
        <time>2023-04-21T13:07:28Z</time>
      </trkpt>
      <trkpt lat="49.1576" lon="-0.3967">
        <ele>22</ele>
        <time>2023-04-21T13:07:29Z</time>
      </trkpt>
      <trkpt lat="49.15765" lon="-0.39666">
        <ele>22</ele>
        <time>2023-04-21T13:07:30Z</time>
      </trkpt>
      <trkpt lat="49.1577" lon="-0.39661">
        <ele>21.8</ele>
        <time>2023-04-21T13:07:31Z</time>
      </trkpt>
      <trkpt lat="49.15775" lon="-0.39657">
        <ele>21.8</ele>
        <time>2023-04-21T13:07:32Z</time>
      </trkpt>
      <trkpt lat="49.1578" lon="-0.39653">
        <ele>21.8</ele>
        <time>2023-04-21T13:07:33Z</time>
      </trkpt>
      <trkpt lat="49.15784" lon="-0.39648">
        <ele>21.6</ele>
        <time>2023-04-21T13:07:34Z</time>
      </trkpt>
      <trkpt lat="49.15789" lon="-0.39643">
        <ele>21.4</ele>
        <time>2023-04-21T13:07:35Z</time>
      </trkpt>
      <trkpt lat="49.15794" lon="-0.39637">
        <ele>21.2</ele>
        <time>2023-04-21T13:07:36Z</time>
      </trkpt>
      <trkpt lat="49.15799" lon="-0.39632">
        <ele>21.2</ele>
        <time>2023-04-21T13:07:37Z</time>
      </trkpt>
      <trkpt lat="49.15804" lon="-0.39627">
        <ele>21</ele>
        <time>2023-04-21T13:07:38Z</time>
      </trkpt>
      <trkpt lat="49.1581" lon="-0.39622">
        <ele>20.8</ele>
        <time>2023-04-21T13:07:39Z</time>
      </trkpt>
      <trkpt lat="49.15815" lon="-0.39616">
        <ele>20.8</ele>
        <time>2023-04-21T13:07:40Z</time>
      </trkpt>
      <trkpt lat="49.1582" lon="-0.39611">
        <ele>20.8</ele>
        <time>2023-04-21T13:07:41Z</time>
      </trkpt>
      <trkpt lat="49.15825" lon="-0.39606">
        <ele>20.6</ele>
        <time>2023-04-21T13:07:42Z</time>
      </trkpt>
      <trkpt lat="49.1583" lon="-0.39601">
        <ele>20.4</ele>
        <time>2023-04-21T13:07:43Z</time>
      </trkpt>
      <trkpt lat="49.15836" lon="-0.39595">
        <ele>20.2</ele>
        <time>2023-04-21T13:07:44Z</time>
      </trkpt>
      <trkpt lat="49.1584" lon="-0.3959">
        <ele>20</ele>
        <time>2023-04-21T13:07:45Z</time>
      </trkpt>
      <trkpt lat="49.15846" lon="-0.39585">
        <ele>19.8</ele>
        <time>2023-04-21T13:07:46Z</time>
      </trkpt>
      <trkpt lat="49.15851" lon="-0.3958">
        <ele>19.6</ele>
        <time>2023-04-21T13:07:47Z</time>
      </trkpt>
      <trkpt lat="49.15856" lon="-0.39574">
        <ele>19.2</ele>
        <time>2023-04-21T13:07:48Z</time>
      </trkpt>
      <trkpt lat="49.15861" lon="-0.39569">
        <ele>19.2</ele>
        <time>2023-04-21T13:07:49Z</time>
      </trkpt>
      <trkpt lat="49.15866" lon="-0.39564">
        <ele>18.8</ele>
        <time>2023-04-21T13:07:50Z</time>
      </trkpt>
      <trkpt lat="49.15872" lon="-0.39558">
        <ele>18.8</ele>
        <time>2023-04-21T13:07:51Z</time>
      </trkpt>
      <trkpt lat="49.15877" lon="-0.39553">
        <ele>18.6</ele>
        <time>2023-04-21T13:07:52Z</time>
      </trkpt>
      <trkpt lat="49.15883" lon="-0.39548">
        <ele>18.6</ele>
        <time>2023-04-21T13:07:53Z</time>
      </trkpt>
      <trkpt lat="49.15889" lon="-0.39543">
        <ele>18.4</ele>
        <time>2023-04-21T13:07:54Z</time>
      </trkpt>
      <trkpt lat="49.15895" lon="-0.39539">
        <ele>18.2</ele>
        <time>2023-04-21T13:07:55Z</time>
      </trkpt>
      <trkpt lat="49.15901" lon="-0.39534">
        <ele>18.2</ele>
        <time>2023-04-21T13:07:56Z</time>
      </trkpt>
      <trkpt lat="49.15907" lon="-0.3953">
        <ele>18.2</ele>
        <time>2023-04-21T13:07:57Z</time>
      </trkpt>
      <trkpt lat="49.15913" lon="-0.39527">
        <ele>18</ele>
        <time>2023-04-21T13:07:58Z</time>
      </trkpt>
      <trkpt lat="49.1592" lon="-0.39524">
        <ele>17.8</ele>
        <time>2023-04-21T13:07:59Z</time>
      </trkpt>
      <trkpt lat="49.15926" lon="-0.39521">
        <ele>17.8</ele>
        <time>2023-04-21T13:08:00Z</time>
      </trkpt>
      <trkpt lat="49.15933" lon="-0.39519">
        <ele>17.6</ele>
        <time>2023-04-21T13:08:01Z</time>
      </trkpt>
      <trkpt lat="49.1594" lon="-0.39517">
        <ele>17.4</ele>
        <time>2023-04-21T13:08:02Z</time>
      </trkpt>
      <trkpt lat="49.15947" lon="-0.39515">
        <ele>17.2</ele>
        <time>2023-04-21T13:08:03Z</time>
      </trkpt>
      <trkpt lat="49.15954" lon="-0.39513">
        <ele>17.2</ele>
        <time>2023-04-21T13:08:04Z</time>
      </trkpt>
      <trkpt lat="49.15961" lon="-0.39511">
        <ele>16.8</ele>
        <time>2023-04-21T13:08:05Z</time>
      </trkpt>
      <trkpt lat="49.15968" lon="-0.39509">
        <ele>16.8</ele>
        <time>2023-04-21T13:08:06Z</time>
      </trkpt>
      <trkpt lat="49.15975" lon="-0.39506">
        <ele>16.6</ele>
        <time>2023-04-21T13:08:07Z</time>
      </trkpt>
      <trkpt lat="49.15981" lon="-0.39504">
        <ele>16.4</ele>
        <time>2023-04-21T13:08:08Z</time>
      </trkpt>
      <trkpt lat="49.15988" lon="-0.39502">
        <ele>16.2</ele>
        <time>2023-04-21T13:08:09Z</time>
      </trkpt>
      <trkpt lat="49.15995" lon="-0.395">
        <ele>16.2</ele>
        <time>2023-04-21T13:08:10Z</time>
      </trkpt>
      <trkpt lat="49.16002" lon="-0.39498">
        <ele>15.8</ele>
        <time>2023-04-21T13:08:11Z</time>
      </trkpt>
      <trkpt lat="49.16009" lon="-0.39496">
        <ele>15.6</ele>
        <time>2023-04-21T13:08:12Z</time>
      </trkpt>
      <trkpt lat="49.16016" lon="-0.39494">
        <ele>15.2</ele>
        <time>2023-04-21T13:08:13Z</time>
      </trkpt>
      <trkpt lat="49.16024" lon="-0.39493">
        <ele>14.8</ele>
        <time>2023-04-21T13:08:14Z</time>
      </trkpt>
      <trkpt lat="49.16031" lon="-0.3949">
        <ele>14.6</ele>
        <time>2023-04-21T13:08:15Z</time>
      </trkpt>
      <trkpt lat="49.16037" lon="-0.39486">
        <ele>14.2</ele>
        <time>2023-04-21T13:08:16Z</time>
      </trkpt>
      <trkpt lat="49.16042" lon="-0.39479">
        <ele>13.8</ele>
        <time>2023-04-21T13:08:17Z</time>
      </trkpt>
      <trkpt lat="49.16047" lon="-0.39471">
        <ele>13.6</ele>
        <time>2023-04-21T13:08:18Z</time>
      </trkpt>
      <trkpt lat="49.16052" lon="-0.39464">
        <ele>13.4</ele>
        <time>2023-04-21T13:08:19Z</time>
      </trkpt>
      <trkpt lat="49.16058" lon="-0.3946">
        <ele>13.2</ele>
        <time>2023-04-21T13:08:20Z</time>
      </trkpt>
      <trkpt lat="49.16065" lon="-0.39458">
        <ele>12.8</ele>
        <time>2023-04-21T13:08:21Z</time>
      </trkpt>
      <trkpt lat="49.16071" lon="-0.3946">
        <ele>12.6</ele>
        <time>2023-04-21T13:08:22Z</time>
      </trkpt>
      <trkpt lat="49.16076" lon="-0.39466">
        <ele>12.4</ele>
        <time>2023-04-21T13:08:23Z</time>
      </trkpt>
      <trkpt lat="49.1608" lon="-0.39474">
        <ele>12.2</ele>
        <time>2023-04-21T13:08:24Z</time>
      </trkpt>
      <trkpt lat="49.16082" lon="-0.39484">
        <ele>12.2</ele>
        <time>2023-04-21T13:08:25Z</time>
      </trkpt>
      <trkpt lat="49.16081" lon="-0.39494">
        <ele>12.2</ele>
        <time>2023-04-21T13:08:26Z</time>
      </trkpt>
      <trkpt lat="49.1608" lon="-0.39504">
        <ele>12.2</ele>
        <time>2023-04-21T13:08:27Z</time>
      </trkpt>
      <trkpt lat="49.16077" lon="-0.39514">
        <ele>12.2</ele>
        <time>2023-04-21T13:08:28Z</time>
      </trkpt>
      <trkpt lat="49.16075" lon="-0.39523">
        <ele>12.2</ele>
        <time>2023-04-21T13:08:29Z</time>
      </trkpt>
      <trkpt lat="49.16073" lon="-0.39533">
        <ele>12.2</ele>
        <time>2023-04-21T13:08:30Z</time>
      </trkpt>
      <trkpt lat="49.16072" lon="-0.39544">
        <ele>12.2</ele>
        <time>2023-04-21T13:08:31Z</time>
      </trkpt>
      <trkpt lat="49.16073" lon="-0.39554">
        <ele>11.8</ele>
        <time>2023-04-21T13:08:32Z</time>
      </trkpt>
      <trkpt lat="49.16075" lon="-0.39564">
        <ele>11.6</ele>
        <time>2023-04-21T13:08:33Z</time>
      </trkpt>
      <trkpt lat="49.16077" lon="-0.39575">
        <ele>11.6</ele>
        <time>2023-04-21T13:08:34Z</time>
      </trkpt>
      <trkpt lat="49.16079" lon="-0.39585">
        <ele>11.2</ele>
        <time>2023-04-21T13:08:35Z</time>
      </trkpt>
      <trkpt lat="49.16081" lon="-0.39595">
        <ele>10.8</ele>
        <time>2023-04-21T13:08:36Z</time>
      </trkpt>
      <trkpt lat="49.16083" lon="-0.39606">
        <ele>10.6</ele>
        <time>2023-04-21T13:08:37Z</time>
      </trkpt>
      <trkpt lat="49.16085" lon="-0.39617">
        <ele>10.2</ele>
        <time>2023-04-21T13:08:38Z</time>
      </trkpt>
      <trkpt lat="49.16087" lon="-0.39627">
        <ele>9.8</ele>
        <time>2023-04-21T13:08:39Z</time>
      </trkpt>
      <trkpt lat="49.16089" lon="-0.39638">
        <ele>9.6</ele>
        <time>2023-04-21T13:08:40Z</time>
      </trkpt>
      <trkpt lat="49.16091" lon="-0.39648">
        <ele>9.4</ele>
        <time>2023-04-21T13:08:41Z</time>
      </trkpt>
      <trkpt lat="49.16093" lon="-0.39659">
        <ele>9.2</ele>
        <time>2023-04-21T13:08:42Z</time>
      </trkpt>
      <trkpt lat="49.16095" lon="-0.3967">
        <ele>9.2</ele>
        <time>2023-04-21T13:08:43Z</time>
      </trkpt>
      <trkpt lat="49.16097" lon="-0.3968">
        <ele>9.4</ele>
        <time>2023-04-21T13:08:44Z</time>
      </trkpt>
      <trkpt lat="49.16099" lon="-0.39691">
        <ele>9.6</ele>
        <time>2023-04-21T13:08:45Z</time>
      </trkpt>
      <trkpt lat="49.16101" lon="-0.39701">
        <ele>9.8</ele>
        <time>2023-04-21T13:08:46Z</time>
      </trkpt>
      <trkpt lat="49.16103" lon="-0.39712">
        <ele>10.2</ele>
        <time>2023-04-21T13:08:47Z</time>
      </trkpt>
      <trkpt lat="49.16105" lon="-0.39723">
        <ele>10.4</ele>
        <time>2023-04-21T13:08:48Z</time>
      </trkpt>
      <trkpt lat="49.16107" lon="-0.39733">
        <ele>10.6</ele>
        <time>2023-04-21T13:08:49Z</time>
      </trkpt>
      <trkpt lat="49.16109" lon="-0.39744">
        <ele>10.8</ele>
        <time>2023-04-21T13:08:50Z</time>
      </trkpt>
      <trkpt lat="49.16111" lon="-0.39754">
        <ele>11</ele>
        <time>2023-04-21T13:08:51Z</time>
      </trkpt>
      <trkpt lat="49.16113" lon="-0.39765">
        <ele>11.2</ele>
        <time>2023-04-21T13:08:52Z</time>
      </trkpt>
      <trkpt lat="49.16115" lon="-0.39775">
        <ele>11.2</ele>
        <time>2023-04-21T13:08:53Z</time>
      </trkpt>
      <trkpt lat="49.16117" lon="-0.39785">
        <ele>11.2</ele>
        <time>2023-04-21T13:08:54Z</time>
      </trkpt>
      <trkpt lat="49.16119" lon="-0.39796">
        <ele>11.2</ele>
        <time>2023-04-21T13:08:55Z</time>
      </trkpt>
      <trkpt lat="49.16121" lon="-0.39806">
        <ele>11.2</ele>
        <time>2023-04-21T13:08:56Z</time>
      </trkpt>
      <trkpt lat="49.16123" lon="-0.39815">
        <ele>11</ele>
        <time>2023-04-21T13:08:57Z</time>
      </trkpt>
      <trkpt lat="49.16126" lon="-0.39825">
        <ele>11</ele>
        <time>2023-04-21T13:08:58Z</time>
      </trkpt>
      <trkpt lat="49.16128" lon="-0.39834">
        <ele>10.8</ele>
        <time>2023-04-21T13:08:59Z</time>
      </trkpt>
      <trkpt lat="49.16129" lon="-0.39844">
        <ele>10.8</ele>
        <time>2023-04-21T13:09:00Z</time>
      </trkpt>
      <trkpt lat="49.16131" lon="-0.39853">
        <ele>10.8</ele>
        <time>2023-04-21T13:09:01Z</time>
      </trkpt>
      <trkpt lat="49.16132" lon="-0.39862">
        <ele>10.6</ele>
        <time>2023-04-21T13:09:02Z</time>
      </trkpt>
      <trkpt lat="49.16133" lon="-0.39871">
        <ele>10.6</ele>
        <time>2023-04-21T13:09:03Z</time>
      </trkpt>
      <trkpt lat="49.16136" lon="-0.39877">
        <ele>10.6</ele>
        <time>2023-04-21T13:09:04Z</time>
      </trkpt>
      <trkpt lat="49.1614" lon="-0.39882">
        <ele>10.6</ele>
        <time>2023-04-21T13:09:05Z</time>
      </trkpt>
      <trkpt lat="49.16143" lon="-0.39886">
        <ele>10.4</ele>
        <time>2023-04-21T13:09:06Z</time>
      </trkpt>
      <trkpt lat="49.16146" lon="-0.39889">
        <ele>10.4</ele>
        <time>2023-04-21T13:09:07Z</time>
      </trkpt>
      <trkpt lat="49.16147" lon="-0.39894">
        <ele>10.4</ele>
        <time>2023-04-21T13:09:08Z</time>
      </trkpt>
      <trkpt lat="49.16147" lon="-0.39899">
        <ele>10.4</ele>
        <time>2023-04-21T13:09:09Z</time>
      </trkpt>
      <trkpt lat="49.16146" lon="-0.39903">
        <ele>10.4</ele>
        <time>2023-04-21T13:09:10Z</time>
      </trkpt>
      <trkpt lat="49.16145" lon="-0.39907">
        <ele>10.4</ele>
        <time>2023-04-21T13:09:11Z</time>
      </trkpt>
      <trkpt lat="49.16143" lon="-0.39911">
        <ele>10.4</ele>
        <time>2023-04-21T13:09:12Z</time>
      </trkpt>
      <trkpt lat="49.16143" lon="-0.39916">
        <ele>10.4</ele>
        <time>2023-04-21T13:09:13Z</time>
      </trkpt>
      <trkpt lat="49.16143" lon="-0.39922">
        <ele>10.4</ele>
        <time>2023-04-21T13:09:14Z</time>
      </trkpt>
      <trkpt lat="49.16144" lon="-0.39929">
        <ele>10.4</ele>
        <time>2023-04-21T13:09:15Z</time>
      </trkpt>
      <trkpt lat="49.16146" lon="-0.39936">
        <ele>10.4</ele>
        <time>2023-04-21T13:09:16Z</time>
      </trkpt>
      <trkpt lat="49.16148" lon="-0.39944">
        <ele>10.4</ele>
        <time>2023-04-21T13:09:17Z</time>
      </trkpt>
      <trkpt lat="49.16149" lon="-0.39951">
        <ele>10.6</ele>
        <time>2023-04-21T13:09:18Z</time>
      </trkpt>
      <trkpt lat="49.16151" lon="-0.39959">
        <ele>10.6</ele>
        <time>2023-04-21T13:09:19Z</time>
      </trkpt>
      <trkpt lat="49.16152" lon="-0.39968">
        <ele>10.6</ele>
        <time>2023-04-21T13:09:20Z</time>
      </trkpt>
      <trkpt lat="49.16154" lon="-0.39976">
        <ele>10.6</ele>
        <time>2023-04-21T13:09:21Z</time>
      </trkpt>
      <trkpt lat="49.16155" lon="-0.39985">
        <ele>10.6</ele>
        <time>2023-04-21T13:09:22Z</time>
      </trkpt>
      <trkpt lat="49.16157" lon="-0.39994">
        <ele>10.8</ele>
        <time>2023-04-21T13:09:23Z</time>
      </trkpt>
      <trkpt lat="49.16158" lon="-0.40003">
        <ele>10.8</ele>
        <time>2023-04-21T13:09:24Z</time>
      </trkpt>
      <trkpt lat="49.1616" lon="-0.40012">
        <ele>11</ele>
        <time>2023-04-21T13:09:25Z</time>
      </trkpt>
      <trkpt lat="49.16162" lon="-0.40021">
        <ele>11.2</ele>
        <time>2023-04-21T13:09:26Z</time>
      </trkpt>
      <trkpt lat="49.16164" lon="-0.40029">
        <ele>11.4</ele>
        <time>2023-04-21T13:09:27Z</time>
      </trkpt>
      <trkpt lat="49.16166" lon="-0.40038">
        <ele>11.4</ele>
        <time>2023-04-21T13:09:28Z</time>
      </trkpt>
      <trkpt lat="49.16169" lon="-0.40045">
        <ele>11.6</ele>
        <time>2023-04-21T13:09:29Z</time>
      </trkpt>
      <trkpt lat="49.16173" lon="-0.40052">
        <ele>11.6</ele>
        <time>2023-04-21T13:09:30Z</time>
      </trkpt>
      <trkpt lat="49.16177" lon="-0.40058">
        <ele>11.4</ele>
        <time>2023-04-21T13:09:31Z</time>
      </trkpt>
      <trkpt lat="49.16182" lon="-0.40062">
        <ele>11.4</ele>
        <time>2023-04-21T13:09:32Z</time>
      </trkpt>
      <trkpt lat="49.16187" lon="-0.40065">
        <ele>11.2</ele>
        <time>2023-04-21T13:09:33Z</time>
      </trkpt>
      <trkpt lat="49.16192" lon="-0.40065">
        <ele>11</ele>
        <time>2023-04-21T13:09:34Z</time>
      </trkpt>
      <trkpt lat="49.16196" lon="-0.40064">
        <ele>10.8</ele>
        <time>2023-04-21T13:09:35Z</time>
      </trkpt>
      <trkpt lat="49.162" lon="-0.40063">
        <ele>10.8</ele>
        <time>2023-04-21T13:09:36Z</time>
      </trkpt>
      <trkpt lat="49.16203" lon="-0.40063">
        <ele>10.6</ele>
        <time>2023-04-21T13:09:37Z</time>
      </trkpt>
      <trkpt lat="49.16205" lon="-0.40065">
        <ele>10.6</ele>
        <time>2023-04-21T13:09:38Z</time>
      </trkpt>
      <trkpt lat="49.16207" lon="-0.40068">
        <ele>10.6</ele>
        <time>2023-04-21T13:09:39Z</time>
      </trkpt>
      <trkpt lat="49.1621" lon="-0.40072">
        <ele>10.6</ele>
        <time>2023-04-21T13:09:40Z</time>
      </trkpt>
      <trkpt lat="49.16213" lon="-0.40076">
        <ele>10.4</ele>
        <time>2023-04-21T13:09:41Z</time>
      </trkpt>
      <trkpt lat="49.16217" lon="-0.40081">
        <ele>10.2</ele>
        <time>2023-04-21T13:09:42Z</time>
      </trkpt>
      <trkpt lat="49.16221" lon="-0.40085">
        <ele>10.2</ele>
        <time>2023-04-21T13:09:43Z</time>
      </trkpt>
      <trkpt lat="49.16223" lon="-0.40091">
        <ele>9.8</ele>
        <time>2023-04-21T13:09:44Z</time>
      </trkpt>
      <trkpt lat="49.16224" lon="-0.40097">
        <ele>9.8</ele>
        <time>2023-04-21T13:09:45Z</time>
      </trkpt>
      <trkpt lat="49.16223" lon="-0.40103">
        <ele>9.8</ele>
        <time>2023-04-21T13:09:46Z</time>
      </trkpt>
      <trkpt lat="49.16223" lon="-0.4011">
        <ele>9.8</ele>
        <time>2023-04-21T13:09:47Z</time>
      </trkpt>
      <trkpt lat="49.16224" lon="-0.40116">
        <ele>9.8</ele>
        <time>2023-04-21T13:09:48Z</time>
      </trkpt>
      <trkpt lat="49.16224" lon="-0.40123">
        <ele>9.8</ele>
        <time>2023-04-21T13:09:49Z</time>
      </trkpt>
      <trkpt lat="49.16223" lon="-0.40129">
        <ele>9.8</ele>
        <time>2023-04-21T13:09:50Z</time>
      </trkpt>
      <trkpt lat="49.16221" lon="-0.40135">
        <ele>9.8</ele>
        <time>2023-04-21T13:09:51Z</time>
      </trkpt>
      <trkpt lat="49.16219" lon="-0.40141">
        <ele>9.8</ele>
        <time>2023-04-21T13:09:52Z</time>
      </trkpt>
      <trkpt lat="49.16216" lon="-0.40147">
        <ele>9.8</ele>
        <time>2023-04-21T13:09:53Z</time>
      </trkpt>
      <trkpt lat="49.16213" lon="-0.40152">
        <ele>10</ele>
        <time>2023-04-21T13:09:54Z</time>
      </trkpt>
      <trkpt lat="49.16211" lon="-0.40158">
        <ele>10</ele>
        <time>2023-04-21T13:09:55Z</time>
      </trkpt>
      <trkpt lat="49.16211" lon="-0.40165">
        <ele>9.8</ele>
        <time>2023-04-21T13:09:56Z</time>
      </trkpt>
      <trkpt lat="49.16211" lon="-0.40173">
        <ele>10</ele>
        <time>2023-04-21T13:09:57Z</time>
      </trkpt>
      <trkpt lat="49.16211" lon="-0.4018">
        <ele>10.2</ele>
        <time>2023-04-21T13:09:58Z</time>
      </trkpt>
      <trkpt lat="49.1621" lon="-0.40188">
        <ele>10.2</ele>
        <time>2023-04-21T13:09:59Z</time>
      </trkpt>
      <trkpt lat="49.1621" lon="-0.40195">
        <ele>10.4</ele>
        <time>2023-04-21T13:10:00Z</time>
      </trkpt>
      <trkpt lat="49.16209" lon="-0.40202">
        <ele>10.4</ele>
        <time>2023-04-21T13:10:01Z</time>
      </trkpt>
      <trkpt lat="49.16209" lon="-0.4021">
        <ele>10.6</ele>
        <time>2023-04-21T13:10:02Z</time>
      </trkpt>
      <trkpt lat="49.16209" lon="-0.40217">
        <ele>10.6</ele>
        <time>2023-04-21T13:10:03Z</time>
      </trkpt>
      <trkpt lat="49.16208" lon="-0.40225">
        <ele>10.6</ele>
        <time>2023-04-21T13:10:04Z</time>
      </trkpt>
      <trkpt lat="49.16208" lon="-0.40232">
        <ele>10.8</ele>
        <time>2023-04-21T13:10:05Z</time>
      </trkpt>
      <trkpt lat="49.16208" lon="-0.4024">
        <ele>10.8</ele>
        <time>2023-04-21T13:10:06Z</time>
      </trkpt>
      <trkpt lat="49.16208" lon="-0.40248">
        <ele>11</ele>
        <time>2023-04-21T13:10:07Z</time>
      </trkpt>
      <trkpt lat="49.16209" lon="-0.40255">
        <ele>11</ele>
        <time>2023-04-21T13:10:08Z</time>
      </trkpt>
      <trkpt lat="49.1621" lon="-0.40263">
        <ele>11.2</ele>
        <time>2023-04-21T13:10:09Z</time>
      </trkpt>
      <trkpt lat="49.16211" lon="-0.40271">
        <ele>11.2</ele>
        <time>2023-04-21T13:10:10Z</time>
      </trkpt>
      <trkpt lat="49.16212" lon="-0.40279">
        <ele>11.2</ele>
        <time>2023-04-21T13:10:11Z</time>
      </trkpt>
      <trkpt lat="49.16214" lon="-0.40287">
        <ele>11.4</ele>
        <time>2023-04-21T13:10:12Z</time>
      </trkpt>
      <trkpt lat="49.16215" lon="-0.40295">
        <ele>11.4</ele>
        <time>2023-04-21T13:10:13Z</time>
      </trkpt>
      <trkpt lat="49.16217" lon="-0.40304">
        <ele>11.4</ele>
        <time>2023-04-21T13:10:14Z</time>
      </trkpt>
      <trkpt lat="49.16218" lon="-0.40312">
        <ele>11.6</ele>
        <time>2023-04-21T13:10:15Z</time>
      </trkpt>
      <trkpt lat="49.1622" lon="-0.4032">
        <ele>11.6</ele>
        <time>2023-04-21T13:10:16Z</time>
      </trkpt>
      <trkpt lat="49.16222" lon="-0.40329">
        <ele>11.6</ele>
        <time>2023-04-21T13:10:17Z</time>
      </trkpt>
      <trkpt lat="49.16223" lon="-0.40337">
        <ele>11.6</ele>
        <time>2023-04-21T13:10:18Z</time>
      </trkpt>
      <trkpt lat="49.16225" lon="-0.40346">
        <ele>11.6</ele>
        <time>2023-04-21T13:10:19Z</time>
      </trkpt>
      <trkpt lat="49.16226" lon="-0.40355">
        <ele>11.8</ele>
        <time>2023-04-21T13:10:20Z</time>
      </trkpt>
      <trkpt lat="49.16228" lon="-0.40363">
        <ele>11.8</ele>
        <time>2023-04-21T13:10:21Z</time>
      </trkpt>
      <trkpt lat="49.1623" lon="-0.40372">
        <ele>11.8</ele>
        <time>2023-04-21T13:10:22Z</time>
      </trkpt>
      <trkpt lat="49.16231" lon="-0.4038">
        <ele>11.8</ele>
        <time>2023-04-21T13:10:23Z</time>
      </trkpt>
      <trkpt lat="49.16233" lon="-0.40389">
        <ele>11.8</ele>
        <time>2023-04-21T13:10:24Z</time>
      </trkpt>
      <trkpt lat="49.16234" lon="-0.40397">
        <ele>12</ele>
        <time>2023-04-21T13:10:25Z</time>
      </trkpt>
      <trkpt lat="49.16236" lon="-0.40406">
        <ele>12.2</ele>
        <time>2023-04-21T13:10:26Z</time>
      </trkpt>
      <trkpt lat="49.16238" lon="-0.40415">
        <ele>12.2</ele>
        <time>2023-04-21T13:10:27Z</time>
      </trkpt>
      <trkpt lat="49.16239" lon="-0.40423">
        <ele>12.4</ele>
        <time>2023-04-21T13:10:28Z</time>
      </trkpt>
      <trkpt lat="49.16241" lon="-0.40432">
        <ele>12.6</ele>
        <time>2023-04-21T13:10:29Z</time>
      </trkpt>
      <trkpt lat="49.16242" lon="-0.40441">
        <ele>12.6</ele>
        <time>2023-04-21T13:10:30Z</time>
      </trkpt>
      <trkpt lat="49.16244" lon="-0.40449">
        <ele>12.8</ele>
        <time>2023-04-21T13:10:31Z</time>
      </trkpt>
      <trkpt lat="49.16245" lon="-0.40458">
        <ele>13</ele>
        <time>2023-04-21T13:10:32Z</time>
      </trkpt>
      <trkpt lat="49.16247" lon="-0.40467">
        <ele>13.2</ele>
        <time>2023-04-21T13:10:33Z</time>
      </trkpt>
      <trkpt lat="49.16248" lon="-0.40476">
        <ele>13.4</ele>
        <time>2023-04-21T13:10:34Z</time>
      </trkpt>
      <trkpt lat="49.1625" lon="-0.40484">
        <ele>13.6</ele>
        <time>2023-04-21T13:10:35Z</time>
      </trkpt>
      <trkpt lat="49.16252" lon="-0.40493">
        <ele>13.8</ele>
        <time>2023-04-21T13:10:36Z</time>
      </trkpt>
      <trkpt lat="49.16254" lon="-0.40501">
        <ele>13.8</ele>
        <time>2023-04-21T13:10:37Z</time>
      </trkpt>
      <trkpt lat="49.16257" lon="-0.4051">
        <ele>14.2</ele>
        <time>2023-04-21T13:10:38Z</time>
      </trkpt>
      <trkpt lat="49.16259" lon="-0.40518">
        <ele>14.2</ele>
        <time>2023-04-21T13:10:39Z</time>
      </trkpt>
      <trkpt lat="49.16262" lon="-0.40526">
        <ele>14.4</ele>
        <time>2023-04-21T13:10:40Z</time>
      </trkpt>
      <trkpt lat="49.16266" lon="-0.40533">
        <ele>14.4</ele>
        <time>2023-04-21T13:10:41Z</time>
      </trkpt>
      <trkpt lat="49.16269" lon="-0.40541">
        <ele>14.4</ele>
        <time>2023-04-21T13:10:42Z</time>
      </trkpt>
      <trkpt lat="49.16273" lon="-0.40548">
        <ele>14.4</ele>
        <time>2023-04-21T13:10:43Z</time>
      </trkpt>
      <trkpt lat="49.16277" lon="-0.40555">
        <ele>14.6</ele>
        <time>2023-04-21T13:10:44Z</time>
      </trkpt>
      <trkpt lat="49.16281" lon="-0.40562">
        <ele>14.6</ele>
        <time>2023-04-21T13:10:45Z</time>
      </trkpt>
      <trkpt lat="49.16286" lon="-0.40569">
        <ele>14.6</ele>
        <time>2023-04-21T13:10:46Z</time>
      </trkpt>
      <trkpt lat="49.1629" lon="-0.40576">
        <ele>14.4</ele>
        <time>2023-04-21T13:10:47Z</time>
      </trkpt>
      <trkpt lat="49.16295" lon="-0.40582">
        <ele>14.4</ele>
        <time>2023-04-21T13:10:48Z</time>
      </trkpt>
      <trkpt lat="49.163" lon="-0.40589">
        <ele>14.2</ele>
        <time>2023-04-21T13:10:49Z</time>
      </trkpt>
      <trkpt lat="49.16305" lon="-0.40596">
        <ele>14</ele>
        <time>2023-04-21T13:10:50Z</time>
      </trkpt>
      <trkpt lat="49.16311" lon="-0.40602">
        <ele>13.8</ele>
        <time>2023-04-21T13:10:51Z</time>
      </trkpt>
      <trkpt lat="49.16316" lon="-0.40609">
        <ele>13.6</ele>
        <time>2023-04-21T13:10:52Z</time>
      </trkpt>
      <trkpt lat="49.16321" lon="-0.40616">
        <ele>13.6</ele>
        <time>2023-04-21T13:10:53Z</time>
      </trkpt>
      <trkpt lat="49.16327" lon="-0.40622">
        <ele>13.6</ele>
        <time>2023-04-21T13:10:54Z</time>
      </trkpt>
      <trkpt lat="49.16332" lon="-0.4063">
        <ele>13.6</ele>
        <time>2023-04-21T13:10:55Z</time>
      </trkpt>
      <trkpt lat="49.16338" lon="-0.40637">
        <ele>13.4</ele>
        <time>2023-04-21T13:10:56Z</time>
      </trkpt>
      <trkpt lat="49.16344" lon="-0.40643">
        <ele>13.4</ele>
        <time>2023-04-21T13:10:57Z</time>
      </trkpt>
      <trkpt lat="49.16349" lon="-0.4065">
        <ele>13.2</ele>
        <time>2023-04-21T13:10:58Z</time>
      </trkpt>
      <trkpt lat="49.16356" lon="-0.40656">
        <ele>12.8</ele>
        <time>2023-04-21T13:10:59Z</time>
      </trkpt>
      <trkpt lat="49.16362" lon="-0.40662">
        <ele>12.6</ele>
        <time>2023-04-21T13:11:00Z</time>
      </trkpt>
      <trkpt lat="49.16368" lon="-0.40668">
        <ele>12.4</ele>
        <time>2023-04-21T13:11:01Z</time>
      </trkpt>
      <trkpt lat="49.16374" lon="-0.40674">
        <ele>12</ele>
        <time>2023-04-21T13:11:02Z</time>
      </trkpt>
      <trkpt lat="49.1638" lon="-0.4068">
        <ele>11.6</ele>
        <time>2023-04-21T13:11:03Z</time>
      </trkpt>
      <trkpt lat="49.16386" lon="-0.40686">
        <ele>11.2</ele>
        <time>2023-04-21T13:11:04Z</time>
      </trkpt>
      <trkpt lat="49.16392" lon="-0.40692">
        <ele>10.8</ele>
        <time>2023-04-21T13:11:05Z</time>
      </trkpt>
      <trkpt lat="49.16399" lon="-0.40698">
        <ele>10.6</ele>
        <time>2023-04-21T13:11:06Z</time>
      </trkpt>
      <trkpt lat="49.16406" lon="-0.40701">
        <ele>10.2</ele>
        <time>2023-04-21T13:11:07Z</time>
      </trkpt>
      <trkpt lat="49.16413" lon="-0.40702">
        <ele>9.8</ele>
        <time>2023-04-21T13:11:08Z</time>
      </trkpt>
      <trkpt lat="49.1642" lon="-0.40702">
        <ele>9.4</ele>
        <time>2023-04-21T13:11:09Z</time>
      </trkpt>
      <trkpt lat="49.16427" lon="-0.407">
        <ele>9.2</ele>
        <time>2023-04-21T13:11:10Z</time>
      </trkpt>
      <trkpt lat="49.16433" lon="-0.40698">
        <ele>8.8</ele>
        <time>2023-04-21T13:11:11Z</time>
      </trkpt>
      <trkpt lat="49.1644" lon="-0.40695">
        <ele>8.6</ele>
        <time>2023-04-21T13:11:12Z</time>
      </trkpt>
      <trkpt lat="49.16446" lon="-0.40692">
        <ele>8.4</ele>
        <time>2023-04-21T13:11:13Z</time>
      </trkpt>
      <trkpt lat="49.16452" lon="-0.40688">
        <ele>8.2</ele>
        <time>2023-04-21T13:11:14Z</time>
      </trkpt>
      <trkpt lat="49.16458" lon="-0.40685">
        <ele>8</ele>
        <time>2023-04-21T13:11:15Z</time>
      </trkpt>
      <trkpt lat="49.16465" lon="-0.40683">
        <ele>7.6</ele>
        <time>2023-04-21T13:11:16Z</time>
      </trkpt>
      <trkpt lat="49.16471" lon="-0.40681">
        <ele>7.4</ele>
        <time>2023-04-21T13:11:17Z</time>
      </trkpt>
      <trkpt lat="49.16478" lon="-0.4068">
        <ele>7</ele>
        <time>2023-04-21T13:11:18Z</time>
      </trkpt>
      <trkpt lat="49.16485" lon="-0.40679">
        <ele>6.6</ele>
        <time>2023-04-21T13:11:19Z</time>
      </trkpt>
      <trkpt lat="49.16492" lon="-0.40679">
        <ele>6.4</ele>
        <time>2023-04-21T13:11:20Z</time>
      </trkpt>
      <trkpt lat="49.16499" lon="-0.4068">
        <ele>6</ele>
        <time>2023-04-21T13:11:21Z</time>
      </trkpt>
      <trkpt lat="49.16505" lon="-0.40681">
        <ele>6</ele>
        <time>2023-04-21T13:11:22Z</time>
      </trkpt>
      <trkpt lat="49.16512" lon="-0.40683">
        <ele>6</ele>
        <time>2023-04-21T13:11:23Z</time>
      </trkpt>
      <trkpt lat="49.16518" lon="-0.40685">
        <ele>6</ele>
        <time>2023-04-21T13:11:24Z</time>
      </trkpt>
      <trkpt lat="49.16524" lon="-0.40687">
        <ele>6</ele>
        <time>2023-04-21T13:11:25Z</time>
      </trkpt>
      <trkpt lat="49.1653" lon="-0.40689">
        <ele>6</ele>
        <time>2023-04-21T13:11:26Z</time>
      </trkpt>
      <trkpt lat="49.16537" lon="-0.40691">
        <ele>6</ele>
        <time>2023-04-21T13:11:27Z</time>
      </trkpt>
      <trkpt lat="49.16543" lon="-0.40694">
        <ele>6</ele>
        <time>2023-04-21T13:11:28Z</time>
      </trkpt>
      <trkpt lat="49.1655" lon="-0.40696">
        <ele>6</ele>
        <time>2023-04-21T13:11:29Z</time>
      </trkpt>
      <trkpt lat="49.16557" lon="-0.40699">
        <ele>6</ele>
        <time>2023-04-21T13:11:30Z</time>
      </trkpt>
      <trkpt lat="49.16564" lon="-0.40701">
        <ele>6</ele>
        <time>2023-04-21T13:11:31Z</time>
      </trkpt>
      <trkpt lat="49.16571" lon="-0.40704">
        <ele>6</ele>
        <time>2023-04-21T13:11:32Z</time>
      </trkpt>
      <trkpt lat="49.16579" lon="-0.40707">
        <ele>6</ele>
        <time>2023-04-21T13:11:33Z</time>
      </trkpt>
      <trkpt lat="49.16587" lon="-0.4071">
        <ele>6</ele>
        <time>2023-04-21T13:11:34Z</time>
      </trkpt>
      <trkpt lat="49.16595" lon="-0.40712">
        <ele>6.2</ele>
        <time>2023-04-21T13:11:35Z</time>
      </trkpt>
      <trkpt lat="49.16603" lon="-0.40715">
        <ele>6.4</ele>
        <time>2023-04-21T13:11:36Z</time>
      </trkpt>
      <trkpt lat="49.16611" lon="-0.40718">
        <ele>6.6</ele>
        <time>2023-04-21T13:11:37Z</time>
      </trkpt>
      <trkpt lat="49.16618" lon="-0.4072">
        <ele>6.6</ele>
        <time>2023-04-21T13:11:38Z</time>
      </trkpt>
      <trkpt lat="49.16625" lon="-0.40723">
        <ele>6.8</ele>
        <time>2023-04-21T13:11:39Z</time>
      </trkpt>
      <trkpt lat="49.16632" lon="-0.40725">
        <ele>7</ele>
        <time>2023-04-21T13:11:40Z</time>
      </trkpt>
      <trkpt lat="49.16638" lon="-0.40727">
        <ele>7</ele>
        <time>2023-04-21T13:11:41Z</time>
      </trkpt>
      <trkpt lat="49.16645" lon="-0.4073">
        <ele>7.4</ele>
        <time>2023-04-21T13:11:42Z</time>
      </trkpt>
      <trkpt lat="49.16651" lon="-0.40732">
        <ele>7.6</ele>
        <time>2023-04-21T13:11:43Z</time>
      </trkpt>
      <trkpt lat="49.16658" lon="-0.40734">
        <ele>7.6</ele>
        <time>2023-04-21T13:11:44Z</time>
      </trkpt>
      <trkpt lat="49.16665" lon="-0.40736">
        <ele>7.8</ele>
        <time>2023-04-21T13:11:45Z</time>
      </trkpt>
      <trkpt lat="49.16672" lon="-0.40739">
        <ele>8.2</ele>
        <time>2023-04-21T13:11:46Z</time>
      </trkpt>
      <trkpt lat="49.1668" lon="-0.40741">
        <ele>8.4</ele>
        <time>2023-04-21T13:11:47Z</time>
      </trkpt>
      <trkpt lat="49.16687" lon="-0.40744">
        <ele>8.6</ele>
        <time>2023-04-21T13:11:48Z</time>
      </trkpt>
      <trkpt lat="49.16695" lon="-0.40747">
        <ele>9</ele>
        <time>2023-04-21T13:11:49Z</time>
      </trkpt>
      <trkpt lat="49.16703" lon="-0.4075">
        <ele>9.4</ele>
        <time>2023-04-21T13:11:50Z</time>
      </trkpt>
      <trkpt lat="49.1671" lon="-0.40752">
        <ele>9.6</ele>
        <time>2023-04-21T13:11:51Z</time>
      </trkpt>
      <trkpt lat="49.16717" lon="-0.40754">
        <ele>9.8</ele>
        <time>2023-04-21T13:11:52Z</time>
      </trkpt>
      <trkpt lat="49.16723" lon="-0.40756">
        <ele>10.2</ele>
        <time>2023-04-21T13:11:53Z</time>
      </trkpt>
      <trkpt lat="49.16728" lon="-0.40758">
        <ele>10.4</ele>
        <time>2023-04-21T13:11:54Z</time>
      </trkpt>
      <trkpt lat="49.16732" lon="-0.40759">
        <ele>10.4</ele>
        <time>2023-04-21T13:11:55Z</time>
      </trkpt>
      <trkpt lat="49.16735" lon="-0.40759">
        <ele>10.6</ele>
        <time>2023-04-21T13:11:56Z</time>
      </trkpt>
      <trkpt lat="49.16737" lon="-0.4076">
        <ele>10.6</ele>
        <time>2023-04-21T13:11:57Z</time>
      </trkpt>
      <trkpt lat="49.16739" lon="-0.4076">
        <ele>10.6</ele>
        <time>2023-04-21T13:11:58Z</time>
      </trkpt>
      <trkpt lat="49.16741" lon="-0.40761">
        <ele>10.8</ele>
        <time>2023-04-21T13:11:59Z</time>
      </trkpt>
      <trkpt lat="49.16743" lon="-0.40761">
        <ele>10.8</ele>
        <time>2023-04-21T13:12:00Z</time>
      </trkpt>
      <trkpt lat="49.16744" lon="-0.40762">
        <ele>10.8</ele>
        <time>2023-04-21T13:12:01Z</time>
      </trkpt>
      <trkpt lat="49.16745" lon="-0.40763">
        <ele>11</ele>
        <time>2023-04-21T13:12:02Z</time>
      </trkpt>
      <trkpt lat="49.16746" lon="-0.40763">
        <ele>11</ele>
        <time>2023-04-21T13:12:03Z</time>
      </trkpt>
      <trkpt lat="49.16747" lon="-0.40763">
        <ele>11.2</ele>
        <time>2023-04-21T13:12:04Z</time>
      </trkpt>
      <trkpt lat="49.16748" lon="-0.40764">
        <ele>11.2</ele>
        <time>2023-04-21T13:12:05Z</time>
      </trkpt>
      <trkpt lat="49.16748" lon="-0.40764">
        <ele>11.2</ele>
        <time>2023-04-21T13:12:06Z</time>
      </trkpt>
      <trkpt lat="49.16749" lon="-0.40764">
        <ele>11.2</ele>
        <time>2023-04-21T13:12:07Z</time>
      </trkpt>
      <trkpt lat="49.16749" lon="-0.40764">
        <ele>11.2</ele>
        <time>2023-04-21T13:12:08Z</time>
      </trkpt>
      <trkpt lat="49.16749" lon="-0.40764">
        <ele>11.2</ele>
        <time>2023-04-21T13:12:09Z</time>
      </trkpt>
      <trkpt lat="49.16749" lon="-0.40764">
        <ele>11.2</ele>
        <time>2023-04-21T13:12:10Z</time>
      </trkpt>
      <trkpt lat="49.16749" lon="-0.40764">
        <ele>11.2</ele>
        <time>2023-04-21T13:12:11Z</time>
      </trkpt>
      <trkpt lat="49.16749" lon="-0.40764">
        <ele>11.2</ele>
        <time>2023-04-21T13:12:12Z</time>
      </trkpt>
      <trkpt lat="49.16749" lon="-0.40764">
        <ele>11.2</ele>
        <time>2023-04-21T13:12:13Z</time>
      </trkpt>
      <trkpt lat="49.16749" lon="-0.40764">
        <ele>11.2</ele>
        <time>2023-04-21T13:12:14Z</time>
      </trkpt>
      <trkpt lat="49.16749" lon="-0.40764">
        <ele>11.2</ele>
        <time>2023-04-21T13:12:15Z</time>
      </trkpt>
      <trkpt lat="49.16749" lon="-0.40764">
        <ele>11.2</ele>
        <time>2023-04-21T13:12:16Z</time>
      </trkpt>
      <trkpt lat="49.16749" lon="-0.40764">
        <ele>11.2</ele>
        <time>2023-04-21T13:12:17Z</time>
      </trkpt>
      <trkpt lat="49.16749" lon="-0.40764">
        <ele>11.2</ele>
        <time>2023-04-21T13:12:18Z</time>
      </trkpt>
      <trkpt lat="49.16749" lon="-0.40764">
        <ele>11.2</ele>
        <time>2023-04-21T13:12:19Z</time>
      </trkpt>
      <trkpt lat="49.16749" lon="-0.40764">
        <ele>11.2</ele>
        <time>2023-04-21T13:12:20Z</time>
      </trkpt>
      <trkpt lat="49.16749" lon="-0.40764">
        <ele>11.2</ele>
        <time>2023-04-21T13:12:21Z</time>
      </trkpt>
      <trkpt lat="49.16749" lon="-0.40764">
        <ele>11.2</ele>
        <time>2023-04-21T13:12:22Z</time>
      </trkpt>
      <trkpt lat="49.16749" lon="-0.40764">
        <ele>11.2</ele>
        <time>2023-04-21T13:12:23Z</time>
      </trkpt>
      <trkpt lat="49.16749" lon="-0.40764">
        <ele>11.2</ele>
        <time>2023-04-21T13:12:24Z</time>
      </trkpt>
      <trkpt lat="49.16749" lon="-0.40764">
        <ele>11.2</ele>
        <time>2023-04-21T13:12:25Z</time>
      </trkpt>
      <trkpt lat="49.16749" lon="-0.40764">
        <ele>11.2</ele>
        <time>2023-04-21T13:12:26Z</time>
      </trkpt>
      <trkpt lat="49.16749" lon="-0.40764">
        <ele>11.2</ele>
        <time>2023-04-21T13:12:27Z</time>
      </trkpt>
      <trkpt lat="49.16749" lon="-0.40764">
        <ele>11.2</ele>
        <time>2023-04-21T13:12:28Z</time>
      </trkpt>
      <trkpt lat="49.16749" lon="-0.40764">
        <ele>11.2</ele>
        <time>2023-04-21T13:12:29Z</time>
      </trkpt>
      <trkpt lat="49.16749" lon="-0.40764">
        <ele>11.2</ele>
        <time>2023-04-21T13:12:30Z</time>
      </trkpt>
      <trkpt lat="49.16749" lon="-0.40764">
        <ele>11.2</ele>
        <time>2023-04-21T13:12:31Z</time>
      </trkpt>
      <trkpt lat="49.16749" lon="-0.40764">
        <ele>11.2</ele>
        <time>2023-04-21T13:12:32Z</time>
      </trkpt>
      <trkpt lat="49.16749" lon="-0.40764">
        <ele>11.2</ele>
        <time>2023-04-21T13:12:33Z</time>
      </trkpt>
      <trkpt lat="49.16749" lon="-0.40764">
        <ele>11.2</ele>
        <time>2023-04-21T13:12:34Z</time>
      </trkpt>
      <trkpt lat="49.16749" lon="-0.40764">
        <ele>11.2</ele>
        <time>2023-04-21T13:12:35Z</time>
      </trkpt>
      <trkpt lat="49.16749" lon="-0.40764">
        <ele>11.2</ele>
        <time>2023-04-21T13:12:36Z</time>
      </trkpt>
      <trkpt lat="49.16749" lon="-0.40764">
        <ele>11.2</ele>
        <time>2023-04-21T13:12:37Z</time>
      </trkpt>
      <trkpt lat="49.16749" lon="-0.40764">
        <ele>11.2</ele>
        <time>2023-04-21T13:12:38Z</time>
      </trkpt>
      <trkpt lat="49.16749" lon="-0.40764">
        <ele>11.2</ele>
        <time>2023-04-21T13:12:39Z</time>
      </trkpt>
      <trkpt lat="49.16749" lon="-0.40764">
        <ele>11.2</ele>
        <time>2023-04-21T13:12:40Z</time>
      </trkpt>
      <trkpt lat="49.16749" lon="-0.40764">
        <ele>11.2</ele>
        <time>2023-04-21T13:12:41Z</time>
      </trkpt>
      <trkpt lat="49.16749" lon="-0.40764">
        <ele>11.2</ele>
        <time>2023-04-21T13:12:42Z</time>
      </trkpt>
      <trkpt lat="49.16749" lon="-0.40764">
        <ele>11.2</ele>
        <time>2023-04-21T13:12:43Z</time>
      </trkpt>
      <trkpt lat="49.16749" lon="-0.40764">
        <ele>11.2</ele>
        <time>2023-04-21T13:12:44Z</time>
      </trkpt>
      <trkpt lat="49.16749" lon="-0.40764">
        <ele>11.2</ele>
        <time>2023-04-21T13:12:45Z</time>
      </trkpt>
      <trkpt lat="49.16749" lon="-0.40764">
        <ele>11.2</ele>
        <time>2023-04-21T13:12:46Z</time>
      </trkpt>
      <trkpt lat="49.16749" lon="-0.40764">
        <ele>11.2</ele>
        <time>2023-04-21T13:12:47Z</time>
      </trkpt>
      <trkpt lat="49.16749" lon="-0.40764">
        <ele>11.2</ele>
        <time>2023-04-21T13:12:48Z</time>
      </trkpt>
      <trkpt lat="49.16749" lon="-0.40764">
        <ele>11.2</ele>
        <time>2023-04-21T13:12:49Z</time>
      </trkpt>
      <trkpt lat="49.16749" lon="-0.40764">
        <ele>11.2</ele>
        <time>2023-04-21T13:12:50Z</time>
      </trkpt>
      <trkpt lat="49.16749" lon="-0.40764">
        <ele>11.2</ele>
        <time>2023-04-21T13:12:51Z</time>
      </trkpt>
      <trkpt lat="49.16749" lon="-0.40764">
        <ele>11.2</ele>
        <time>2023-04-21T13:12:52Z</time>
      </trkpt>
      <trkpt lat="49.16749" lon="-0.40764">
        <ele>11.2</ele>
        <time>2023-04-21T13:12:53Z</time>
      </trkpt>
      <trkpt lat="49.16749" lon="-0.40764">
        <ele>11.2</ele>
        <time>2023-04-21T13:12:54Z</time>
      </trkpt>
      <trkpt lat="49.16749" lon="-0.40764">
        <ele>11.2</ele>
        <time>2023-04-21T13:12:55Z</time>
      </trkpt>
      <trkpt lat="49.16749" lon="-0.40764">
        <ele>11.2</ele>
        <time>2023-04-21T13:12:56Z</time>
      </trkpt>
      <trkpt lat="49.16749" lon="-0.40764">
        <ele>11.2</ele>
        <time>2023-04-21T13:12:57Z</time>
      </trkpt>
      <trkpt lat="49.16749" lon="-0.40764">
        <ele>11.2</ele>
        <time>2023-04-21T13:12:58Z</time>
      </trkpt>
      <trkpt lat="49.16749" lon="-0.40764">
        <ele>11.2</ele>
        <time>2023-04-21T13:12:59Z</time>
      </trkpt>
      <trkpt lat="49.16749" lon="-0.40764">
        <ele>11.2</ele>
        <time>2023-04-21T13:13:00Z</time>
      </trkpt>
      <trkpt lat="49.16749" lon="-0.40764">
        <ele>11.2</ele>
        <time>2023-04-21T13:13:01Z</time>
      </trkpt>
      <trkpt lat="49.16749" lon="-0.40764">
        <ele>11.2</ele>
        <time>2023-04-21T13:13:02Z</time>
      </trkpt>
      <trkpt lat="49.16749" lon="-0.40764">
        <ele>11.2</ele>
        <time>2023-04-21T13:13:03Z</time>
      </trkpt>
      <trkpt lat="49.16749" lon="-0.40764">
        <ele>11.2</ele>
        <time>2023-04-21T13:13:04Z</time>
      </trkpt>
      <trkpt lat="49.16749" lon="-0.40764">
        <ele>11.2</ele>
        <time>2023-04-21T13:13:05Z</time>
      </trkpt>
      <trkpt lat="49.16749" lon="-0.40764">
        <ele>11.2</ele>
        <time>2023-04-21T13:13:06Z</time>
      </trkpt>
      <trkpt lat="49.16749" lon="-0.40764">
        <ele>11.2</ele>
        <time>2023-04-21T13:13:07Z</time>
      </trkpt>
      <trkpt lat="49.16749" lon="-0.40764">
        <ele>11.2</ele>
        <time>2023-04-21T13:13:08Z</time>
      </trkpt>
      <trkpt lat="49.16749" lon="-0.40764">
        <ele>11.2</ele>
        <time>2023-04-21T13:13:09Z</time>
      </trkpt>
      <trkpt lat="49.16749" lon="-0.40764">
        <ele>11.2</ele>
        <time>2023-04-21T13:13:10Z</time>
      </trkpt>
      <trkpt lat="49.16749" lon="-0.40764">
        <ele>11.2</ele>
        <time>2023-04-21T13:13:11Z</time>
      </trkpt>
      <trkpt lat="49.16751" lon="-0.40765">
        <ele>11.2</ele>
        <time>2023-04-21T13:13:12Z</time>
      </trkpt>
      <trkpt lat="49.16753" lon="-0.40765">
        <ele>11.4</ele>
        <time>2023-04-21T13:13:13Z</time>
      </trkpt>
      <trkpt lat="49.16756" lon="-0.40766">
        <ele>11.4</ele>
        <time>2023-04-21T13:13:14Z</time>
      </trkpt>
      <trkpt lat="49.16759" lon="-0.40768">
        <ele>11.6</ele>
        <time>2023-04-21T13:13:15Z</time>
      </trkpt>
      <trkpt lat="49.16763" lon="-0.40769">
        <ele>11.6</ele>
        <time>2023-04-21T13:13:16Z</time>
      </trkpt>
      <trkpt lat="49.16767" lon="-0.4077">
        <ele>11.6</ele>
        <time>2023-04-21T13:13:17Z</time>
      </trkpt>
      <trkpt lat="49.16771" lon="-0.40771">
        <ele>11.8</ele>
        <time>2023-04-21T13:13:18Z</time>
      </trkpt>
      <trkpt lat="49.16775" lon="-0.40773">
        <ele>12</ele>
        <time>2023-04-21T13:13:19Z</time>
      </trkpt>
      <trkpt lat="49.16779" lon="-0.40775">
        <ele>12.2</ele>
        <time>2023-04-21T13:13:20Z</time>
      </trkpt>
      <trkpt lat="49.16784" lon="-0.40777">
        <ele>12.4</ele>
        <time>2023-04-21T13:13:21Z</time>
      </trkpt>
      <trkpt lat="49.16789" lon="-0.40779">
        <ele>12.4</ele>
        <time>2023-04-21T13:13:22Z</time>
      </trkpt>
      <trkpt lat="49.16794" lon="-0.40781">
        <ele>12.6</ele>
        <time>2023-04-21T13:13:23Z</time>
      </trkpt>
      <trkpt lat="49.16799" lon="-0.40784">
        <ele>12.8</ele>
        <time>2023-04-21T13:13:24Z</time>
      </trkpt>
      <trkpt lat="49.16804" lon="-0.40786">
        <ele>13</ele>
        <time>2023-04-21T13:13:25Z</time>
      </trkpt>
      <trkpt lat="49.1681" lon="-0.40788">
        <ele>13.2</ele>
        <time>2023-04-21T13:13:26Z</time>
      </trkpt>
      <trkpt lat="49.16815" lon="-0.4079">
        <ele>13.4</ele>
        <time>2023-04-21T13:13:27Z</time>
      </trkpt>
      <trkpt lat="49.1682" lon="-0.40791">
        <ele>13.6</ele>
        <time>2023-04-21T13:13:28Z</time>
      </trkpt>
      <trkpt lat="49.16825" lon="-0.40793">
        <ele>13.8</ele>
        <time>2023-04-21T13:13:29Z</time>
      </trkpt>
      <trkpt lat="49.1683" lon="-0.40796">
        <ele>14</ele>
        <time>2023-04-21T13:13:30Z</time>
      </trkpt>
      <trkpt lat="49.16833" lon="-0.408">
        <ele>14.2</ele>
        <time>2023-04-21T13:13:31Z</time>
      </trkpt>
      <trkpt lat="49.16835" lon="-0.40806">
        <ele>14.4</ele>
        <time>2023-04-21T13:13:32Z</time>
      </trkpt>
      <trkpt lat="49.16835" lon="-0.40812">
        <ele>14.6</ele>
        <time>2023-04-21T13:13:33Z</time>
      </trkpt>
      <trkpt lat="49.16834" lon="-0.40819">
        <ele>14.6</ele>
        <time>2023-04-21T13:13:34Z</time>
      </trkpt>
      <trkpt lat="49.16832" lon="-0.40826">
        <ele>14.8</ele>
        <time>2023-04-21T13:13:35Z</time>
      </trkpt>
      <trkpt lat="49.16829" lon="-0.40834">
        <ele>14.8</ele>
        <time>2023-04-21T13:13:36Z</time>
      </trkpt>
      <trkpt lat="49.16827" lon="-0.40842">
        <ele>14.8</ele>
        <time>2023-04-21T13:13:37Z</time>
      </trkpt>
      <trkpt lat="49.16824" lon="-0.40849">
        <ele>14.8</ele>
        <time>2023-04-21T13:13:38Z</time>
      </trkpt>
      <trkpt lat="49.16822" lon="-0.40858">
        <ele>14.8</ele>
        <time>2023-04-21T13:13:39Z</time>
      </trkpt>
      <trkpt lat="49.16819" lon="-0.40866">
        <ele>14.8</ele>
        <time>2023-04-21T13:13:40Z</time>
      </trkpt>
      <trkpt lat="49.16816" lon="-0.40875">
        <ele>14.8</ele>
        <time>2023-04-21T13:13:41Z</time>
      </trkpt>
      <trkpt lat="49.16813" lon="-0.40883">
        <ele>14.6</ele>
        <time>2023-04-21T13:13:42Z</time>
      </trkpt>
      <trkpt lat="49.1681" lon="-0.40892">
        <ele>14.6</ele>
        <time>2023-04-21T13:13:43Z</time>
      </trkpt>
      <trkpt lat="49.16807" lon="-0.40901">
        <ele>14.6</ele>
        <time>2023-04-21T13:13:44Z</time>
      </trkpt>
      <trkpt lat="49.16804" lon="-0.40909">
        <ele>14.6</ele>
        <time>2023-04-21T13:13:45Z</time>
      </trkpt>
      <trkpt lat="49.16801" lon="-0.40918">
        <ele>14.6</ele>
        <time>2023-04-21T13:13:46Z</time>
      </trkpt>
      <trkpt lat="49.16799" lon="-0.40927">
        <ele>14.6</ele>
        <time>2023-04-21T13:13:47Z</time>
      </trkpt>
      <trkpt lat="49.16796" lon="-0.40936">
        <ele>14.4</ele>
        <time>2023-04-21T13:13:48Z</time>
      </trkpt>
      <trkpt lat="49.16793" lon="-0.40945">
        <ele>14.4</ele>
        <time>2023-04-21T13:13:49Z</time>
      </trkpt>
      <trkpt lat="49.1679" lon="-0.40954">
        <ele>14.4</ele>
        <time>2023-04-21T13:13:50Z</time>
      </trkpt>
      <trkpt lat="49.16787" lon="-0.40963">
        <ele>14.4</ele>
        <time>2023-04-21T13:13:51Z</time>
      </trkpt>
      <trkpt lat="49.16784" lon="-0.40972">
        <ele>14.4</ele>
        <time>2023-04-21T13:13:52Z</time>
      </trkpt>
      <trkpt lat="49.16781" lon="-0.40981">
        <ele>14.2</ele>
        <time>2023-04-21T13:13:53Z</time>
      </trkpt>
      <trkpt lat="49.16778" lon="-0.4099">
        <ele>14.2</ele>
        <time>2023-04-21T13:13:54Z</time>
      </trkpt>
      <trkpt lat="49.16775" lon="-0.40999">
        <ele>14.2</ele>
        <time>2023-04-21T13:13:55Z</time>
      </trkpt>
      <trkpt lat="49.16772" lon="-0.41008">
        <ele>14.2</ele>
        <time>2023-04-21T13:13:56Z</time>
      </trkpt>
      <trkpt lat="49.16769" lon="-0.41017">
        <ele>14.4</ele>
        <time>2023-04-21T13:13:57Z</time>
      </trkpt>
      <trkpt lat="49.16766" lon="-0.41027">
        <ele>14.4</ele>
        <time>2023-04-21T13:13:58Z</time>
      </trkpt>
      <trkpt lat="49.16763" lon="-0.41036">
        <ele>14.4</ele>
        <time>2023-04-21T13:13:59Z</time>
      </trkpt>
      <trkpt lat="49.16759" lon="-0.41046">
        <ele>14.6</ele>
        <time>2023-04-21T13:14:00Z</time>
      </trkpt>
      <trkpt lat="49.16756" lon="-0.41055">
        <ele>14.6</ele>
        <time>2023-04-21T13:14:01Z</time>
      </trkpt>
      <trkpt lat="49.16753" lon="-0.41064">
        <ele>14.6</ele>
        <time>2023-04-21T13:14:02Z</time>
      </trkpt>
      <trkpt lat="49.1675" lon="-0.41074">
        <ele>14.8</ele>
        <time>2023-04-21T13:14:03Z</time>
      </trkpt>
      <trkpt lat="49.16747" lon="-0.41083">
        <ele>14.8</ele>
        <time>2023-04-21T13:14:04Z</time>
      </trkpt>
      <trkpt lat="49.16744" lon="-0.41092">
        <ele>14.8</ele>
        <time>2023-04-21T13:14:05Z</time>
      </trkpt>
      <trkpt lat="49.16741" lon="-0.41101">
        <ele>14.6</ele>
        <time>2023-04-21T13:14:06Z</time>
      </trkpt>
      <trkpt lat="49.16738" lon="-0.4111">
        <ele>14.4</ele>
        <time>2023-04-21T13:14:07Z</time>
      </trkpt>
      <trkpt lat="49.16735" lon="-0.41119">
        <ele>14.4</ele>
        <time>2023-04-21T13:14:08Z</time>
      </trkpt>
      <trkpt lat="49.16732" lon="-0.41128">
        <ele>14.2</ele>
        <time>2023-04-21T13:14:09Z</time>
      </trkpt>
      <trkpt lat="49.16729" lon="-0.41137">
        <ele>14</ele>
        <time>2023-04-21T13:14:10Z</time>
      </trkpt>
      <trkpt lat="49.16726" lon="-0.41146">
        <ele>13.8</ele>
        <time>2023-04-21T13:14:11Z</time>
      </trkpt>
      <trkpt lat="49.16723" lon="-0.41155">
        <ele>13.8</ele>
        <time>2023-04-21T13:14:12Z</time>
      </trkpt>
      <trkpt lat="49.1672" lon="-0.41164">
        <ele>13.6</ele>
        <time>2023-04-21T13:14:13Z</time>
      </trkpt>
      <trkpt lat="49.16718" lon="-0.41173">
        <ele>13.6</ele>
        <time>2023-04-21T13:14:14Z</time>
      </trkpt>
      <trkpt lat="49.16715" lon="-0.41182">
        <ele>13.8</ele>
        <time>2023-04-21T13:14:15Z</time>
      </trkpt>
      <trkpt lat="49.16712" lon="-0.41191">
        <ele>14</ele>
        <time>2023-04-21T13:14:16Z</time>
      </trkpt>
      <trkpt lat="49.16709" lon="-0.412">
        <ele>14.2</ele>
        <time>2023-04-21T13:14:17Z</time>
      </trkpt>
      <trkpt lat="49.16706" lon="-0.41209">
        <ele>14.2</ele>
        <time>2023-04-21T13:14:18Z</time>
      </trkpt>
      <trkpt lat="49.16703" lon="-0.41219">
        <ele>14.4</ele>
        <time>2023-04-21T13:14:19Z</time>
      </trkpt>
      <trkpt lat="49.16699" lon="-0.41228">
        <ele>14.4</ele>
        <time>2023-04-21T13:14:20Z</time>
      </trkpt>
      <trkpt lat="49.16696" lon="-0.41237">
        <ele>14.6</ele>
        <time>2023-04-21T13:14:21Z</time>
      </trkpt>
      <trkpt lat="49.16693" lon="-0.41247">
        <ele>14.6</ele>
        <time>2023-04-21T13:14:22Z</time>
      </trkpt>
      <trkpt lat="49.1669" lon="-0.41256">
        <ele>14.6</ele>
        <time>2023-04-21T13:14:23Z</time>
      </trkpt>
      <trkpt lat="49.16687" lon="-0.41266">
        <ele>14.6</ele>
        <time>2023-04-21T13:14:24Z</time>
      </trkpt>
      <trkpt lat="49.16684" lon="-0.41275">
        <ele>14.6</ele>
        <time>2023-04-21T13:14:25Z</time>
      </trkpt>
      <trkpt lat="49.1668" lon="-0.41285">
        <ele>14.6</ele>
        <time>2023-04-21T13:14:26Z</time>
      </trkpt>
      <trkpt lat="49.16677" lon="-0.41294">
        <ele>14.8</ele>
        <time>2023-04-21T13:14:27Z</time>
      </trkpt>
      <trkpt lat="49.16674" lon="-0.41304">
        <ele>14.8</ele>
        <time>2023-04-21T13:14:28Z</time>
      </trkpt>
      <trkpt lat="49.16671" lon="-0.41314">
        <ele>14.8</ele>
        <time>2023-04-21T13:14:29Z</time>
      </trkpt>
      <trkpt lat="49.16668" lon="-0.41323">
        <ele>14.8</ele>
        <time>2023-04-21T13:14:30Z</time>
      </trkpt>
      <trkpt lat="49.16664" lon="-0.41333">
        <ele>14.8</ele>
        <time>2023-04-21T13:14:31Z</time>
      </trkpt>
      <trkpt lat="49.16661" lon="-0.41342">
        <ele>14.8</ele>
        <time>2023-04-21T13:14:32Z</time>
      </trkpt>
      <trkpt lat="49.16658" lon="-0.41352">
        <ele>14.6</ele>
        <time>2023-04-21T13:14:33Z</time>
      </trkpt>
      <trkpt lat="49.16655" lon="-0.41361">
        <ele>14.6</ele>
        <time>2023-04-21T13:14:34Z</time>
      </trkpt>
      <trkpt lat="49.16652" lon="-0.41371">
        <ele>14.6</ele>
        <time>2023-04-21T13:14:35Z</time>
      </trkpt>
      <trkpt lat="49.16649" lon="-0.4138">
        <ele>14.6</ele>
        <time>2023-04-21T13:14:36Z</time>
      </trkpt>
      <trkpt lat="49.16646" lon="-0.4139">
        <ele>14.6</ele>
        <time>2023-04-21T13:14:37Z</time>
      </trkpt>
      <trkpt lat="49.16642" lon="-0.41399">
        <ele>14.6</ele>
        <time>2023-04-21T13:14:38Z</time>
      </trkpt>
      <trkpt lat="49.1664" lon="-0.41408">
        <ele>14.6</ele>
        <time>2023-04-21T13:14:39Z</time>
      </trkpt>
      <trkpt lat="49.16637" lon="-0.41418">
        <ele>14.6</ele>
        <time>2023-04-21T13:14:40Z</time>
      </trkpt>
      <trkpt lat="49.16634" lon="-0.41427">
        <ele>14.8</ele>
        <time>2023-04-21T13:14:41Z</time>
      </trkpt>
      <trkpt lat="49.16631" lon="-0.41436">
        <ele>14.8</ele>
        <time>2023-04-21T13:14:42Z</time>
      </trkpt>
      <trkpt lat="49.16628" lon="-0.41445">
        <ele>15</ele>
        <time>2023-04-21T13:14:43Z</time>
      </trkpt>
      <trkpt lat="49.16625" lon="-0.41453">
        <ele>15.2</ele>
        <time>2023-04-21T13:14:44Z</time>
      </trkpt>
      <trkpt lat="49.16622" lon="-0.41462">
        <ele>15.4</ele>
        <time>2023-04-21T13:14:45Z</time>
      </trkpt>
      <trkpt lat="49.16619" lon="-0.4147">
        <ele>15.4</ele>
        <time>2023-04-21T13:14:46Z</time>
      </trkpt>
      <trkpt lat="49.16616" lon="-0.41479">
        <ele>15.6</ele>
        <time>2023-04-21T13:14:47Z</time>
      </trkpt>
      <trkpt lat="49.16613" lon="-0.41487">
        <ele>15.6</ele>
        <time>2023-04-21T13:14:48Z</time>
      </trkpt>
      <trkpt lat="49.1661" lon="-0.41495">
        <ele>15.8</ele>
        <time>2023-04-21T13:14:49Z</time>
      </trkpt>
      <trkpt lat="49.16608" lon="-0.41503">
        <ele>16</ele>
        <time>2023-04-21T13:14:50Z</time>
      </trkpt>
      <trkpt lat="49.16605" lon="-0.41511">
        <ele>16.2</ele>
        <time>2023-04-21T13:14:51Z</time>
      </trkpt>
      <trkpt lat="49.16602" lon="-0.41519">
        <ele>16.2</ele>
        <time>2023-04-21T13:14:52Z</time>
      </trkpt>
      <trkpt lat="49.16599" lon="-0.41527">
        <ele>16.4</ele>
        <time>2023-04-21T13:14:53Z</time>
      </trkpt>
      <trkpt lat="49.16596" lon="-0.41535">
        <ele>16.6</ele>
        <time>2023-04-21T13:14:54Z</time>
      </trkpt>
      <trkpt lat="49.16594" lon="-0.41544">
        <ele>16.6</ele>
        <time>2023-04-21T13:14:55Z</time>
      </trkpt>
      <trkpt lat="49.16591" lon="-0.41552">
        <ele>16.8</ele>
        <time>2023-04-21T13:14:56Z</time>
      </trkpt>
      <trkpt lat="49.16588" lon="-0.4156">
        <ele>16.8</ele>
        <time>2023-04-21T13:14:57Z</time>
      </trkpt>
      <trkpt lat="49.16585" lon="-0.41568">
        <ele>16.8</ele>
        <time>2023-04-21T13:14:58Z</time>
      </trkpt>
      <trkpt lat="49.16583" lon="-0.41576">
        <ele>16.8</ele>
        <time>2023-04-21T13:14:59Z</time>
      </trkpt>
      <trkpt lat="49.1658" lon="-0.41584">
        <ele>16.8</ele>
        <time>2023-04-21T13:15:00Z</time>
      </trkpt>
      <trkpt lat="49.16578" lon="-0.41592">
        <ele>16.8</ele>
        <time>2023-04-21T13:15:01Z</time>
      </trkpt>
      <trkpt lat="49.16575" lon="-0.416">
        <ele>16.6</ele>
        <time>2023-04-21T13:15:02Z</time>
      </trkpt>
      <trkpt lat="49.16572" lon="-0.41608">
        <ele>16.6</ele>
        <time>2023-04-21T13:15:03Z</time>
      </trkpt>
      <trkpt lat="49.1657" lon="-0.41616">
        <ele>16.4</ele>
        <time>2023-04-21T13:15:04Z</time>
      </trkpt>
      <trkpt lat="49.16568" lon="-0.41624">
        <ele>16.2</ele>
        <time>2023-04-21T13:15:05Z</time>
      </trkpt>
      <trkpt lat="49.16565" lon="-0.41631">
        <ele>16.2</ele>
        <time>2023-04-21T13:15:06Z</time>
      </trkpt>
      <trkpt lat="49.16563" lon="-0.41639">
        <ele>16.2</ele>
        <time>2023-04-21T13:15:07Z</time>
      </trkpt>
      <trkpt lat="49.16561" lon="-0.41646">
        <ele>16.2</ele>
        <time>2023-04-21T13:15:08Z</time>
      </trkpt>
      <trkpt lat="49.16559" lon="-0.41653">
        <ele>16.2</ele>
        <time>2023-04-21T13:15:09Z</time>
      </trkpt>
      <trkpt lat="49.16557" lon="-0.4166">
        <ele>16</ele>
        <time>2023-04-21T13:15:10Z</time>
      </trkpt>
      <trkpt lat="49.16555" lon="-0.41666">
        <ele>16</ele>
        <time>2023-04-21T13:15:11Z</time>
      </trkpt>
      <trkpt lat="49.16554" lon="-0.41672">
        <ele>16</ele>
        <time>2023-04-21T13:15:12Z</time>
      </trkpt>
      <trkpt lat="49.16552" lon="-0.41678">
        <ele>15.8</ele>
        <time>2023-04-21T13:15:13Z</time>
      </trkpt>
      <trkpt lat="49.16551" lon="-0.41683">
        <ele>15.8</ele>
        <time>2023-04-21T13:15:14Z</time>
      </trkpt>
      <trkpt lat="49.1655" lon="-0.41687">
        <ele>15.8</ele>
        <time>2023-04-21T13:15:15Z</time>
      </trkpt>
      <trkpt lat="49.16549" lon="-0.4169">
        <ele>15.8</ele>
        <time>2023-04-21T13:15:16Z</time>
      </trkpt>
      <trkpt lat="49.16548" lon="-0.41692">
        <ele>15.8</ele>
        <time>2023-04-21T13:15:17Z</time>
      </trkpt>
      <trkpt lat="49.16547" lon="-0.41694">
        <ele>15.8</ele>
        <time>2023-04-21T13:15:18Z</time>
      </trkpt>
      <trkpt lat="49.16547" lon="-0.41695">
        <ele>15.8</ele>
        <time>2023-04-21T13:15:19Z</time>
      </trkpt>
      <trkpt lat="49.16546" lon="-0.41695">
        <ele>15.8</ele>
        <time>2023-04-21T13:15:20Z</time>
      </trkpt>
      <trkpt lat="49.16546" lon="-0.41696">
        <ele>15.8</ele>
        <time>2023-04-21T13:15:21Z</time>
      </trkpt>
      <trkpt lat="49.16546" lon="-0.41697">
        <ele>15.8</ele>
        <time>2023-04-21T13:15:22Z</time>
      </trkpt>
      <trkpt lat="49.16546" lon="-0.41699">
        <ele>15.8</ele>
        <time>2023-04-21T13:15:23Z</time>
      </trkpt>
      <trkpt lat="49.16545" lon="-0.41701">
        <ele>15.8</ele>
        <time>2023-04-21T13:15:24Z</time>
      </trkpt>
      <trkpt lat="49.16544" lon="-0.41704">
        <ele>15.8</ele>
        <time>2023-04-21T13:15:25Z</time>
      </trkpt>
      <trkpt lat="49.16543" lon="-0.41708">
        <ele>15.8</ele>
        <time>2023-04-21T13:15:26Z</time>
      </trkpt>
      <trkpt lat="49.16541" lon="-0.41713">
        <ele>15.6</ele>
        <time>2023-04-21T13:15:27Z</time>
      </trkpt>
      <trkpt lat="49.16539" lon="-0.41718">
        <ele>15.6</ele>
        <time>2023-04-21T13:15:28Z</time>
      </trkpt>
      <trkpt lat="49.16537" lon="-0.41724">
        <ele>15.6</ele>
        <time>2023-04-21T13:15:29Z</time>
      </trkpt>
      <trkpt lat="49.16535" lon="-0.41731">
        <ele>15.6</ele>
        <time>2023-04-21T13:15:30Z</time>
      </trkpt>
      <trkpt lat="49.16535" lon="-0.41738">
        <ele>15.8</ele>
        <time>2023-04-21T13:15:31Z</time>
      </trkpt>
      <trkpt lat="49.16536" lon="-0.41744">
        <ele>15.8</ele>
        <time>2023-04-21T13:15:32Z</time>
      </trkpt>
      <trkpt lat="49.16539" lon="-0.41751">
        <ele>16</ele>
        <time>2023-04-21T13:15:33Z</time>
      </trkpt>
      <trkpt lat="49.16542" lon="-0.41757">
        <ele>16.2</ele>
        <time>2023-04-21T13:15:34Z</time>
      </trkpt>
      <trkpt lat="49.16546" lon="-0.41764">
        <ele>16.4</ele>
        <time>2023-04-21T13:15:35Z</time>
      </trkpt>
      <trkpt lat="49.1655" lon="-0.41769">
        <ele>16.8</ele>
        <time>2023-04-21T13:15:36Z</time>
      </trkpt>
      <trkpt lat="49.16554" lon="-0.41775">
        <ele>16.8</ele>
        <time>2023-04-21T13:15:37Z</time>
      </trkpt>
      <trkpt lat="49.16558" lon="-0.4178">
        <ele>17.2</ele>
        <time>2023-04-21T13:15:38Z</time>
      </trkpt>
      <trkpt lat="49.16562" lon="-0.41784">
        <ele>17.2</ele>
        <time>2023-04-21T13:15:39Z</time>
      </trkpt>
      <trkpt lat="49.16565" lon="-0.41788">
        <ele>17.6</ele>
        <time>2023-04-21T13:15:40Z</time>
      </trkpt>
      <trkpt lat="49.16569" lon="-0.41792">
        <ele>17.8</ele>
        <time>2023-04-21T13:15:41Z</time>
      </trkpt>
      <trkpt lat="49.16572" lon="-0.41795">
        <ele>17.8</ele>
        <time>2023-04-21T13:15:42Z</time>
      </trkpt>
      <trkpt lat="49.16575" lon="-0.41799">
        <ele>18</ele>
        <time>2023-04-21T13:15:43Z</time>
      </trkpt>
      <trkpt lat="49.16577" lon="-0.41802">
        <ele>18.2</ele>
        <time>2023-04-21T13:15:44Z</time>
      </trkpt>
      <trkpt lat="49.1658" lon="-0.41804">
        <ele>18.2</ele>
        <time>2023-04-21T13:15:45Z</time>
      </trkpt>
      <trkpt lat="49.16582" lon="-0.41807">
        <ele>18.2</ele>
        <time>2023-04-21T13:15:46Z</time>
      </trkpt>
      <trkpt lat="49.16584" lon="-0.41809">
        <ele>18.6</ele>
        <time>2023-04-21T13:15:47Z</time>
      </trkpt>
      <trkpt lat="49.16586" lon="-0.41811">
        <ele>18.6</ele>
        <time>2023-04-21T13:15:48Z</time>
      </trkpt>
      <trkpt lat="49.16588" lon="-0.41813">
        <ele>18.8</ele>
        <time>2023-04-21T13:15:49Z</time>
      </trkpt>
      <trkpt lat="49.1659" lon="-0.41815">
        <ele>18.8</ele>
        <time>2023-04-21T13:15:50Z</time>
      </trkpt>
      <trkpt lat="49.16591" lon="-0.41816">
        <ele>18.8</ele>
        <time>2023-04-21T13:15:51Z</time>
      </trkpt>
      <trkpt lat="49.16592" lon="-0.41817">
        <ele>19</ele>
        <time>2023-04-21T13:15:52Z</time>
      </trkpt>
      <trkpt lat="49.16592" lon="-0.41817">
        <ele>19</ele>
        <time>2023-04-21T13:15:53Z</time>
      </trkpt>
      <trkpt lat="49.16593" lon="-0.41819">
        <ele>19.2</ele>
        <time>2023-04-21T13:15:54Z</time>
      </trkpt>
      <trkpt lat="49.16594" lon="-0.4182">
        <ele>19.2</ele>
        <time>2023-04-21T13:15:55Z</time>
      </trkpt>
      <trkpt lat="49.16597" lon="-0.41823">
        <ele>19.4</ele>
        <time>2023-04-21T13:15:56Z</time>
      </trkpt>
      <trkpt lat="49.16599" lon="-0.41825">
        <ele>19.6</ele>
        <time>2023-04-21T13:15:57Z</time>
      </trkpt>
      <trkpt lat="49.16602" lon="-0.41828">
        <ele>19.8</ele>
        <time>2023-04-21T13:15:58Z</time>
      </trkpt>
      <trkpt lat="49.16606" lon="-0.41832">
        <ele>20</ele>
        <time>2023-04-21T13:15:59Z</time>
      </trkpt>
      <trkpt lat="49.16609" lon="-0.41835">
        <ele>20.2</ele>
        <time>2023-04-21T13:16:00Z</time>
      </trkpt>
      <trkpt lat="49.16612" lon="-0.41839">
        <ele>20.6</ele>
        <time>2023-04-21T13:16:01Z</time>
      </trkpt>
      <trkpt lat="49.16616" lon="-0.41842">
        <ele>20.8</ele>
        <time>2023-04-21T13:16:02Z</time>
      </trkpt>
      <trkpt lat="49.16619" lon="-0.41846">
        <ele>20.8</ele>
        <time>2023-04-21T13:16:03Z</time>
      </trkpt>
      <trkpt lat="49.16622" lon="-0.41849">
        <ele>21</ele>
        <time>2023-04-21T13:16:04Z</time>
      </trkpt>
      <trkpt lat="49.16625" lon="-0.41852">
        <ele>21.2</ele>
        <time>2023-04-21T13:16:05Z</time>
      </trkpt>
      <trkpt lat="49.16628" lon="-0.41856">
        <ele>21.4</ele>
        <time>2023-04-21T13:16:06Z</time>
      </trkpt>
      <trkpt lat="49.16631" lon="-0.41859">
        <ele>21.6</ele>
        <time>2023-04-21T13:16:07Z</time>
      </trkpt>
      <trkpt lat="49.16634" lon="-0.41863">
        <ele>21.8</ele>
        <time>2023-04-21T13:16:08Z</time>
      </trkpt>
      <trkpt lat="49.16637" lon="-0.41867">
        <ele>22</ele>
        <time>2023-04-21T13:16:09Z</time>
      </trkpt>
      <trkpt lat="49.1664" lon="-0.4187">
        <ele>22.2</ele>
        <time>2023-04-21T13:16:10Z</time>
      </trkpt>
      <trkpt lat="49.16643" lon="-0.41874">
        <ele>22.4</ele>
        <time>2023-04-21T13:16:11Z</time>
      </trkpt>
      <trkpt lat="49.16647" lon="-0.41878">
        <ele>22.6</ele>
        <time>2023-04-21T13:16:12Z</time>
      </trkpt>
      <trkpt lat="49.1665" lon="-0.41881">
        <ele>22.8</ele>
        <time>2023-04-21T13:16:13Z</time>
      </trkpt>
      <trkpt lat="49.16653" lon="-0.41885">
        <ele>23</ele>
        <time>2023-04-21T13:16:14Z</time>
      </trkpt>
      <trkpt lat="49.16656" lon="-0.41889">
        <ele>23.2</ele>
        <time>2023-04-21T13:16:15Z</time>
      </trkpt>
      <trkpt lat="49.16659" lon="-0.41892">
        <ele>23.2</ele>
        <time>2023-04-21T13:16:16Z</time>
      </trkpt>
      <trkpt lat="49.16662" lon="-0.41896">
        <ele>23.6</ele>
        <time>2023-04-21T13:16:17Z</time>
      </trkpt>
      <trkpt lat="49.16665" lon="-0.419">
        <ele>23.8</ele>
        <time>2023-04-21T13:16:18Z</time>
      </trkpt>
      <trkpt lat="49.16669" lon="-0.41903">
        <ele>24</ele>
        <time>2023-04-21T13:16:19Z</time>
      </trkpt>
      <trkpt lat="49.16672" lon="-0.41907">
        <ele>24.2</ele>
        <time>2023-04-21T13:16:20Z</time>
      </trkpt>
      <trkpt lat="49.16675" lon="-0.4191">
        <ele>24.4</ele>
        <time>2023-04-21T13:16:21Z</time>
      </trkpt>
      <trkpt lat="49.16678" lon="-0.41914">
        <ele>24.8</ele>
        <time>2023-04-21T13:16:22Z</time>
      </trkpt>
      <trkpt lat="49.16681" lon="-0.41918">
        <ele>24.8</ele>
        <time>2023-04-21T13:16:23Z</time>
      </trkpt>
      <trkpt lat="49.16684" lon="-0.41921">
        <ele>25.2</ele>
        <time>2023-04-21T13:16:24Z</time>
      </trkpt>
      <trkpt lat="49.16688" lon="-0.41924">
        <ele>25.4</ele>
        <time>2023-04-21T13:16:25Z</time>
      </trkpt>
      <trkpt lat="49.16691" lon="-0.41928">
        <ele>25.6</ele>
        <time>2023-04-21T13:16:26Z</time>
      </trkpt>
      <trkpt lat="49.16694" lon="-0.41931">
        <ele>25.8</ele>
        <time>2023-04-21T13:16:27Z</time>
      </trkpt>
      <trkpt lat="49.16697" lon="-0.41935">
        <ele>26.2</ele>
        <time>2023-04-21T13:16:28Z</time>
      </trkpt>
      <trkpt lat="49.167" lon="-0.41938">
        <ele>26.4</ele>
        <time>2023-04-21T13:16:29Z</time>
      </trkpt>
      <trkpt lat="49.16703" lon="-0.41941">
        <ele>26.6</ele>
        <time>2023-04-21T13:16:30Z</time>
      </trkpt>
      <trkpt lat="49.16706" lon="-0.41944">
        <ele>26.8</ele>
        <time>2023-04-21T13:16:31Z</time>
      </trkpt>
      <trkpt lat="49.16709" lon="-0.41948">
        <ele>27.2</ele>
        <time>2023-04-21T13:16:32Z</time>
      </trkpt>
      <trkpt lat="49.16712" lon="-0.41951">
        <ele>27.2</ele>
        <time>2023-04-21T13:16:33Z</time>
      </trkpt>
      <trkpt lat="49.16715" lon="-0.41954">
        <ele>27.6</ele>
        <time>2023-04-21T13:16:34Z</time>
      </trkpt>
      <trkpt lat="49.16717" lon="-0.41957">
        <ele>27.8</ele>
        <time>2023-04-21T13:16:35Z</time>
      </trkpt>
      <trkpt lat="49.1672" lon="-0.4196">
        <ele>28.2</ele>
        <time>2023-04-21T13:16:36Z</time>
      </trkpt>
      <trkpt lat="49.16723" lon="-0.41963">
        <ele>28.2</ele>
        <time>2023-04-21T13:16:37Z</time>
      </trkpt>
      <trkpt lat="49.16726" lon="-0.41966">
        <ele>28.6</ele>
        <time>2023-04-21T13:16:38Z</time>
      </trkpt>
      <trkpt lat="49.16729" lon="-0.41969">
        <ele>28.8</ele>
        <time>2023-04-21T13:16:39Z</time>
      </trkpt>
      <trkpt lat="49.16731" lon="-0.41972">
        <ele>29</ele>
        <time>2023-04-21T13:16:40Z</time>
      </trkpt>
      <trkpt lat="49.16733" lon="-0.41975">
        <ele>29.2</ele>
        <time>2023-04-21T13:16:41Z</time>
      </trkpt>
      <trkpt lat="49.16736" lon="-0.41978">
        <ele>29.6</ele>
        <time>2023-04-21T13:16:42Z</time>
      </trkpt>
      <trkpt lat="49.16738" lon="-0.4198">
        <ele>29.8</ele>
        <time>2023-04-21T13:16:43Z</time>
      </trkpt>
      <trkpt lat="49.16741" lon="-0.41983">
        <ele>30</ele>
        <time>2023-04-21T13:16:44Z</time>
      </trkpt>
      <trkpt lat="49.16744" lon="-0.41986">
        <ele>30.2</ele>
        <time>2023-04-21T13:16:45Z</time>
      </trkpt>
      <trkpt lat="49.16746" lon="-0.41989">
        <ele>30.6</ele>
        <time>2023-04-21T13:16:46Z</time>
      </trkpt>
      <trkpt lat="49.16749" lon="-0.41991">
        <ele>30.8</ele>
        <time>2023-04-21T13:16:47Z</time>
      </trkpt>
      <trkpt lat="49.16751" lon="-0.41994">
        <ele>30.8</ele>
        <time>2023-04-21T13:16:48Z</time>
      </trkpt>
      <trkpt lat="49.16753" lon="-0.41997">
        <ele>31.2</ele>
        <time>2023-04-21T13:16:49Z</time>
      </trkpt>
      <trkpt lat="49.16756" lon="-0.41999">
        <ele>31.6</ele>
        <time>2023-04-21T13:16:50Z</time>
      </trkpt>
      <trkpt lat="49.16758" lon="-0.42002">
        <ele>31.8</ele>
        <time>2023-04-21T13:16:51Z</time>
      </trkpt>
      <trkpt lat="49.1676" lon="-0.42004">
        <ele>32</ele>
        <time>2023-04-21T13:16:52Z</time>
      </trkpt>
      <trkpt lat="49.16763" lon="-0.42007">
        <ele>32.2</ele>
        <time>2023-04-21T13:16:53Z</time>
      </trkpt>
      <trkpt lat="49.16765" lon="-0.42009">
        <ele>32.6</ele>
        <time>2023-04-21T13:16:54Z</time>
      </trkpt>
      <trkpt lat="49.16767" lon="-0.42011">
        <ele>33</ele>
        <time>2023-04-21T13:16:55Z</time>
      </trkpt>
      <trkpt lat="49.1677" lon="-0.42014">
        <ele>33.2</ele>
        <time>2023-04-21T13:16:56Z</time>
      </trkpt>
      <trkpt lat="49.16772" lon="-0.42016">
        <ele>33.4</ele>
        <time>2023-04-21T13:16:57Z</time>
      </trkpt>
      <trkpt lat="49.16774" lon="-0.42019">
        <ele>33.8</ele>
        <time>2023-04-21T13:16:58Z</time>
      </trkpt>
      <trkpt lat="49.16777" lon="-0.42021">
        <ele>34</ele>
        <time>2023-04-21T13:16:59Z</time>
      </trkpt>
      <trkpt lat="49.16779" lon="-0.42024">
        <ele>34.2</ele>
        <time>2023-04-21T13:17:00Z</time>
      </trkpt>
      <trkpt lat="49.16781" lon="-0.42026">
        <ele>34.6</ele>
        <time>2023-04-21T13:17:01Z</time>
      </trkpt>
      <trkpt lat="49.16784" lon="-0.42029">
        <ele>35</ele>
        <time>2023-04-21T13:17:02Z</time>
      </trkpt>
      <trkpt lat="49.16786" lon="-0.42031">
        <ele>35</ele>
        <time>2023-04-21T13:17:03Z</time>
      </trkpt>
      <trkpt lat="49.16788" lon="-0.42033">
        <ele>35.4</ele>
        <time>2023-04-21T13:17:04Z</time>
      </trkpt>
      <trkpt lat="49.16791" lon="-0.42036">
        <ele>35.8</ele>
        <time>2023-04-21T13:17:05Z</time>
      </trkpt>
      <trkpt lat="49.16793" lon="-0.42038">
        <ele>36</ele>
        <time>2023-04-21T13:17:06Z</time>
      </trkpt>
      <trkpt lat="49.16795" lon="-0.4204">
        <ele>36.2</ele>
        <time>2023-04-21T13:17:07Z</time>
      </trkpt>
      <trkpt lat="49.16798" lon="-0.42043">
        <ele>36.6</ele>
        <time>2023-04-21T13:17:08Z</time>
      </trkpt>
      <trkpt lat="49.168" lon="-0.42045">
        <ele>36.8</ele>
        <time>2023-04-21T13:17:09Z</time>
      </trkpt>
      <trkpt lat="49.16802" lon="-0.42048">
        <ele>37</ele>
        <time>2023-04-21T13:17:10Z</time>
      </trkpt>
      <trkpt lat="49.16805" lon="-0.4205">
        <ele>37.4</ele>
        <time>2023-04-21T13:17:11Z</time>
      </trkpt>
      <trkpt lat="49.16807" lon="-0.42053">
        <ele>37.8</ele>
        <time>2023-04-21T13:17:12Z</time>
      </trkpt>
      <trkpt lat="49.1681" lon="-0.42055">
        <ele>38</ele>
        <time>2023-04-21T13:17:13Z</time>
      </trkpt>
      <trkpt lat="49.16812" lon="-0.42057">
        <ele>38.2</ele>
        <time>2023-04-21T13:17:14Z</time>
      </trkpt>
      <trkpt lat="49.16814" lon="-0.4206">
        <ele>38.6</ele>
        <time>2023-04-21T13:17:15Z</time>
      </trkpt>
      <trkpt lat="49.16817" lon="-0.42062">
        <ele>38.8</ele>
        <time>2023-04-21T13:17:16Z</time>
      </trkpt>
      <trkpt lat="49.16819" lon="-0.42065">
        <ele>39</ele>
        <time>2023-04-21T13:17:17Z</time>
      </trkpt>
      <trkpt lat="49.16821" lon="-0.42067">
        <ele>39.4</ele>
        <time>2023-04-21T13:17:18Z</time>
      </trkpt>
      <trkpt lat="49.16824" lon="-0.4207">
        <ele>39.8</ele>
        <time>2023-04-21T13:17:19Z</time>
      </trkpt>
      <trkpt lat="49.16826" lon="-0.42072">
        <ele>40</ele>
        <time>2023-04-21T13:17:20Z</time>
      </trkpt>
      <trkpt lat="49.16828" lon="-0.42075">
        <ele>40.2</ele>
        <time>2023-04-21T13:17:21Z</time>
      </trkpt>
      <trkpt lat="49.16831" lon="-0.42077">
        <ele>40.6</ele>
        <time>2023-04-21T13:17:22Z</time>
      </trkpt>
      <trkpt lat="49.16833" lon="-0.4208">
        <ele>40.8</ele>
        <time>2023-04-21T13:17:23Z</time>
      </trkpt>
      <trkpt lat="49.16835" lon="-0.42082">
        <ele>41</ele>
        <time>2023-04-21T13:17:24Z</time>
      </trkpt>
      <trkpt lat="49.16837" lon="-0.42085">
        <ele>41</ele>
        <time>2023-04-21T13:17:25Z</time>
      </trkpt>
      <trkpt lat="49.1684" lon="-0.42087">
        <ele>41.2</ele>
        <time>2023-04-21T13:17:26Z</time>
      </trkpt>
      <trkpt lat="49.16842" lon="-0.4209">
        <ele>41.4</ele>
        <time>2023-04-21T13:17:27Z</time>
      </trkpt>
      <trkpt lat="49.16844" lon="-0.42092">
        <ele>41.6</ele>
        <time>2023-04-21T13:17:28Z</time>
      </trkpt>
      <trkpt lat="49.16847" lon="-0.42094">
        <ele>41.8</ele>
        <time>2023-04-21T13:17:29Z</time>
      </trkpt>
      <trkpt lat="49.16849" lon="-0.42097">
        <ele>42</ele>
        <time>2023-04-21T13:17:30Z</time>
      </trkpt>
      <trkpt lat="49.16851" lon="-0.42099">
        <ele>42</ele>
        <time>2023-04-21T13:17:31Z</time>
      </trkpt>
      <trkpt lat="49.16853" lon="-0.42102">
        <ele>42.2</ele>
        <time>2023-04-21T13:17:32Z</time>
      </trkpt>
      <trkpt lat="49.16856" lon="-0.42104">
        <ele>42.4</ele>
        <time>2023-04-21T13:17:33Z</time>
      </trkpt>
      <trkpt lat="49.16858" lon="-0.42107">
        <ele>42.6</ele>
        <time>2023-04-21T13:17:34Z</time>
      </trkpt>
      <trkpt lat="49.1686" lon="-0.42109">
        <ele>42.8</ele>
        <time>2023-04-21T13:17:35Z</time>
      </trkpt>
      <trkpt lat="49.16862" lon="-0.42112">
        <ele>43</ele>
        <time>2023-04-21T13:17:36Z</time>
      </trkpt>
      <trkpt lat="49.16864" lon="-0.42114">
        <ele>43</ele>
        <time>2023-04-21T13:17:37Z</time>
      </trkpt>
      <trkpt lat="49.16867" lon="-0.42117">
        <ele>43.2</ele>
        <time>2023-04-21T13:17:38Z</time>
      </trkpt>
      <trkpt lat="49.16869" lon="-0.42119">
        <ele>43.6</ele>
        <time>2023-04-21T13:17:39Z</time>
      </trkpt>
      <trkpt lat="49.16871" lon="-0.42122">
        <ele>43.8</ele>
        <time>2023-04-21T13:17:40Z</time>
      </trkpt>
      <trkpt lat="49.16873" lon="-0.42125">
        <ele>44</ele>
        <time>2023-04-21T13:17:41Z</time>
      </trkpt>
      <trkpt lat="49.16875" lon="-0.42127">
        <ele>44</ele>
        <time>2023-04-21T13:17:42Z</time>
      </trkpt>
      <trkpt lat="49.16877" lon="-0.4213">
        <ele>44.4</ele>
        <time>2023-04-21T13:17:43Z</time>
      </trkpt>
      <trkpt lat="49.1688" lon="-0.42133">
        <ele>44.6</ele>
        <time>2023-04-21T13:17:44Z</time>
      </trkpt>
      <trkpt lat="49.16882" lon="-0.42136">
        <ele>44.8</ele>
        <time>2023-04-21T13:17:45Z</time>
      </trkpt>
      <trkpt lat="49.16884" lon="-0.42138">
        <ele>45</ele>
        <time>2023-04-21T13:17:46Z</time>
      </trkpt>
      <trkpt lat="49.16887" lon="-0.42141">
        <ele>45.2</ele>
        <time>2023-04-21T13:17:47Z</time>
      </trkpt>
      <trkpt lat="49.16889" lon="-0.42143">
        <ele>45.6</ele>
        <time>2023-04-21T13:17:48Z</time>
      </trkpt>
      <trkpt lat="49.16891" lon="-0.42146">
        <ele>45.8</ele>
        <time>2023-04-21T13:17:49Z</time>
      </trkpt>
      <trkpt lat="49.16893" lon="-0.42149">
        <ele>46</ele>
        <time>2023-04-21T13:17:50Z</time>
      </trkpt>
      <trkpt lat="49.16896" lon="-0.42151">
        <ele>46.2</ele>
        <time>2023-04-21T13:17:51Z</time>
      </trkpt>
      <trkpt lat="49.16898" lon="-0.42154">
        <ele>46.6</ele>
        <time>2023-04-21T13:17:52Z</time>
      </trkpt>
      <trkpt lat="49.169" lon="-0.42157">
        <ele>46.8</ele>
        <time>2023-04-21T13:17:53Z</time>
      </trkpt>
      <trkpt lat="49.16903" lon="-0.42159">
        <ele>47</ele>
        <time>2023-04-21T13:17:54Z</time>
      </trkpt>
      <trkpt lat="49.16905" lon="-0.42162">
        <ele>47.2</ele>
        <time>2023-04-21T13:17:55Z</time>
      </trkpt>
      <trkpt lat="49.16907" lon="-0.42164">
        <ele>47.6</ele>
        <time>2023-04-21T13:17:56Z</time>
      </trkpt>
      <trkpt lat="49.1691" lon="-0.42167">
        <ele>47.8</ele>
        <time>2023-04-21T13:17:57Z</time>
      </trkpt>
      <trkpt lat="49.16912" lon="-0.4217">
        <ele>48</ele>
        <time>2023-04-21T13:17:58Z</time>
      </trkpt>
      <trkpt lat="49.16915" lon="-0.42172">
        <ele>48</ele>
        <time>2023-04-21T13:17:59Z</time>
      </trkpt>
      <trkpt lat="49.16917" lon="-0.42175">
        <ele>48</ele>
        <time>2023-04-21T13:18:00Z</time>
      </trkpt>
      <trkpt lat="49.1692" lon="-0.42178">
        <ele>48.2</ele>
        <time>2023-04-21T13:18:01Z</time>
      </trkpt>
      <trkpt lat="49.16922" lon="-0.4218">
        <ele>48.2</ele>
        <time>2023-04-21T13:18:02Z</time>
      </trkpt>
      <trkpt lat="49.16925" lon="-0.42183">
        <ele>48.4</ele>
        <time>2023-04-21T13:18:03Z</time>
      </trkpt>
      <trkpt lat="49.16927" lon="-0.42186">
        <ele>48.6</ele>
        <time>2023-04-21T13:18:04Z</time>
      </trkpt>
      <trkpt lat="49.1693" lon="-0.4219">
        <ele>48.8</ele>
        <time>2023-04-21T13:18:05Z</time>
      </trkpt>
      <trkpt lat="49.16934" lon="-0.42193">
        <ele>48.8</ele>
        <time>2023-04-21T13:18:06Z</time>
      </trkpt>
      <trkpt lat="49.16936" lon="-0.42196">
        <ele>49</ele>
        <time>2023-04-21T13:18:07Z</time>
      </trkpt>
      <trkpt lat="49.16939" lon="-0.42198">
        <ele>49</ele>
        <time>2023-04-21T13:18:08Z</time>
      </trkpt>
      <trkpt lat="49.16941" lon="-0.42201">
        <ele>49</ele>
        <time>2023-04-21T13:18:09Z</time>
      </trkpt>
      <trkpt lat="49.16944" lon="-0.42203">
        <ele>49</ele>
        <time>2023-04-21T13:18:10Z</time>
      </trkpt>
      <trkpt lat="49.16947" lon="-0.42206">
        <ele>49.2</ele>
        <time>2023-04-21T13:18:11Z</time>
      </trkpt>
      <trkpt lat="49.16949" lon="-0.42209">
        <ele>49.2</ele>
        <time>2023-04-21T13:18:12Z</time>
      </trkpt>
      <trkpt lat="49.16952" lon="-0.42211">
        <ele>49.4</ele>
        <time>2023-04-21T13:18:13Z</time>
      </trkpt>
      <trkpt lat="49.16955" lon="-0.42214">
        <ele>49.4</ele>
        <time>2023-04-21T13:18:14Z</time>
      </trkpt>
      <trkpt lat="49.16957" lon="-0.42217">
        <ele>49.6</ele>
        <time>2023-04-21T13:18:15Z</time>
      </trkpt>
      <trkpt lat="49.1696" lon="-0.4222">
        <ele>49.6</ele>
        <time>2023-04-21T13:18:16Z</time>
      </trkpt>
      <trkpt lat="49.16962" lon="-0.42223">
        <ele>49.6</ele>
        <time>2023-04-21T13:18:17Z</time>
      </trkpt>
      <trkpt lat="49.16965" lon="-0.42226">
        <ele>49.6</ele>
        <time>2023-04-21T13:18:18Z</time>
      </trkpt>
      <trkpt lat="49.16967" lon="-0.42229">
        <ele>49.8</ele>
        <time>2023-04-21T13:18:19Z</time>
      </trkpt>
      <trkpt lat="49.1697" lon="-0.42231">
        <ele>49.8</ele>
        <time>2023-04-21T13:18:20Z</time>
      </trkpt>
      <trkpt lat="49.16973" lon="-0.42233">
        <ele>49.8</ele>
        <time>2023-04-21T13:18:21Z</time>
      </trkpt>
      <trkpt lat="49.16976" lon="-0.42234">
        <ele>49.8</ele>
        <time>2023-04-21T13:18:22Z</time>
      </trkpt>
      <trkpt lat="49.16979" lon="-0.42234">
        <ele>49.8</ele>
        <time>2023-04-21T13:18:23Z</time>
      </trkpt>
      <trkpt lat="49.16983" lon="-0.42234">
        <ele>50</ele>
        <time>2023-04-21T13:18:24Z</time>
      </trkpt>
      <trkpt lat="49.16986" lon="-0.42234">
        <ele>50</ele>
        <time>2023-04-21T13:18:25Z</time>
      </trkpt>
      <trkpt lat="49.16989" lon="-0.42234">
        <ele>50</ele>
        <time>2023-04-21T13:18:26Z</time>
      </trkpt>
      <trkpt lat="49.16993" lon="-0.42235">
        <ele>50</ele>
        <time>2023-04-21T13:18:27Z</time>
      </trkpt>
      <trkpt lat="49.16996" lon="-0.42236">
        <ele>50</ele>
        <time>2023-04-21T13:18:28Z</time>
      </trkpt>
      <trkpt lat="49.16999" lon="-0.42238">
        <ele>50</ele>
        <time>2023-04-21T13:18:29Z</time>
      </trkpt>
      <trkpt lat="49.17002" lon="-0.4224">
        <ele>50</ele>
        <time>2023-04-21T13:18:30Z</time>
      </trkpt>
      <trkpt lat="49.17005" lon="-0.42244">
        <ele>50</ele>
        <time>2023-04-21T13:18:31Z</time>
      </trkpt>
      <trkpt lat="49.17007" lon="-0.42247">
        <ele>50</ele>
        <time>2023-04-21T13:18:32Z</time>
      </trkpt>
      <trkpt lat="49.17008" lon="-0.42252">
        <ele>50</ele>
        <time>2023-04-21T13:18:33Z</time>
      </trkpt>
      <trkpt lat="49.1701" lon="-0.42256">
        <ele>50</ele>
        <time>2023-04-21T13:18:34Z</time>
      </trkpt>
      <trkpt lat="49.17011" lon="-0.42261">
        <ele>50</ele>
        <time>2023-04-21T13:18:35Z</time>
      </trkpt>
      <trkpt lat="49.17012" lon="-0.42267">
        <ele>50</ele>
        <time>2023-04-21T13:18:36Z</time>
      </trkpt>
      <trkpt lat="49.17013" lon="-0.42272">
        <ele>50.2</ele>
        <time>2023-04-21T13:18:37Z</time>
      </trkpt>
      <trkpt lat="49.17014" lon="-0.42277">
        <ele>50.2</ele>
        <time>2023-04-21T13:18:38Z</time>
      </trkpt>
      <trkpt lat="49.17015" lon="-0.42283">
        <ele>50.2</ele>
        <time>2023-04-21T13:18:39Z</time>
      </trkpt>
      <trkpt lat="49.17017" lon="-0.42288">
        <ele>50.2</ele>
        <time>2023-04-21T13:18:40Z</time>
      </trkpt>
      <trkpt lat="49.17019" lon="-0.42292">
        <ele>50.2</ele>
        <time>2023-04-21T13:18:41Z</time>
      </trkpt>
      <trkpt lat="49.17022" lon="-0.42296">
        <ele>50.2</ele>
        <time>2023-04-21T13:18:42Z</time>
      </trkpt>
      <trkpt lat="49.17024" lon="-0.423">
        <ele>50.2</ele>
        <time>2023-04-21T13:18:43Z</time>
      </trkpt>
      <trkpt lat="49.17027" lon="-0.42304">
        <ele>50.2</ele>
        <time>2023-04-21T13:18:44Z</time>
      </trkpt>
      <trkpt lat="49.17031" lon="-0.42308">
        <ele>50.4</ele>
        <time>2023-04-21T13:18:45Z</time>
      </trkpt>
      <trkpt lat="49.17034" lon="-0.42313">
        <ele>50.4</ele>
        <time>2023-04-21T13:18:46Z</time>
      </trkpt>
      <trkpt lat="49.17037" lon="-0.42317">
        <ele>50.4</ele>
        <time>2023-04-21T13:18:47Z</time>
      </trkpt>
      <trkpt lat="49.1704" lon="-0.42321">
        <ele>50.6</ele>
        <time>2023-04-21T13:18:48Z</time>
      </trkpt>
      <trkpt lat="49.17043" lon="-0.42325">
        <ele>50.6</ele>
        <time>2023-04-21T13:18:49Z</time>
      </trkpt>
      <trkpt lat="49.17046" lon="-0.4233">
        <ele>50.6</ele>
        <time>2023-04-21T13:18:50Z</time>
      </trkpt>
      <trkpt lat="49.1705" lon="-0.42334">
        <ele>50.6</ele>
        <time>2023-04-21T13:18:51Z</time>
      </trkpt>
      <trkpt lat="49.17053" lon="-0.42338">
        <ele>50.8</ele>
        <time>2023-04-21T13:18:52Z</time>
      </trkpt>
      <trkpt lat="49.17056" lon="-0.42343">
        <ele>50.8</ele>
        <time>2023-04-21T13:18:53Z</time>
      </trkpt>
      <trkpt lat="49.1706" lon="-0.42347">
        <ele>50.8</ele>
        <time>2023-04-21T13:18:54Z</time>
      </trkpt>
      <trkpt lat="49.17063" lon="-0.42352">
        <ele>51</ele>
        <time>2023-04-21T13:18:55Z</time>
      </trkpt>
      <trkpt lat="49.17066" lon="-0.42357">
        <ele>51</ele>
        <time>2023-04-21T13:18:56Z</time>
      </trkpt>
      <trkpt lat="49.1707" lon="-0.42361">
        <ele>51</ele>
        <time>2023-04-21T13:18:57Z</time>
      </trkpt>
      <trkpt lat="49.17073" lon="-0.42366">
        <ele>51</ele>
        <time>2023-04-21T13:18:58Z</time>
      </trkpt>
      <trkpt lat="49.17077" lon="-0.42371">
        <ele>51</ele>
        <time>2023-04-21T13:18:59Z</time>
      </trkpt>
      <trkpt lat="49.1708" lon="-0.42375">
        <ele>51</ele>
        <time>2023-04-21T13:19:00Z</time>
      </trkpt>
      <trkpt lat="49.17083" lon="-0.4238">
        <ele>51</ele>
        <time>2023-04-21T13:19:01Z</time>
      </trkpt>
      <trkpt lat="49.17087" lon="-0.42385">
        <ele>51</ele>
        <time>2023-04-21T13:19:02Z</time>
      </trkpt>
      <trkpt lat="49.1709" lon="-0.4239">
        <ele>51</ele>
        <time>2023-04-21T13:19:03Z</time>
      </trkpt>
      <trkpt lat="49.17094" lon="-0.42395">
        <ele>51</ele>
        <time>2023-04-21T13:19:04Z</time>
      </trkpt>
      <trkpt lat="49.17097" lon="-0.42399">
        <ele>51</ele>
        <time>2023-04-21T13:19:05Z</time>
      </trkpt>
      <trkpt lat="49.17101" lon="-0.42404">
        <ele>51</ele>
        <time>2023-04-21T13:19:06Z</time>
      </trkpt>
      <trkpt lat="49.17104" lon="-0.42409">
        <ele>51</ele>
        <time>2023-04-21T13:19:07Z</time>
      </trkpt>
      <trkpt lat="49.17108" lon="-0.42414">
        <ele>51</ele>
        <time>2023-04-21T13:19:08Z</time>
      </trkpt>
      <trkpt lat="49.17111" lon="-0.42419">
        <ele>51</ele>
        <time>2023-04-21T13:19:09Z</time>
      </trkpt>
      <trkpt lat="49.17115" lon="-0.42424">
        <ele>51</ele>
        <time>2023-04-21T13:19:10Z</time>
      </trkpt>
      <trkpt lat="49.17118" lon="-0.42429">
        <ele>51</ele>
        <time>2023-04-21T13:19:11Z</time>
      </trkpt>
      <trkpt lat="49.17122" lon="-0.42434">
        <ele>51</ele>
        <time>2023-04-21T13:19:12Z</time>
      </trkpt>
      <trkpt lat="49.17126" lon="-0.42439">
        <ele>51</ele>
        <time>2023-04-21T13:19:13Z</time>
      </trkpt>
      <trkpt lat="49.1713" lon="-0.42444">
        <ele>51</ele>
        <time>2023-04-21T13:19:14Z</time>
      </trkpt>
      <trkpt lat="49.17133" lon="-0.4245">
        <ele>51.2</ele>
        <time>2023-04-21T13:19:15Z</time>
      </trkpt>
      <trkpt lat="49.17137" lon="-0.42455">
        <ele>51.2</ele>
        <time>2023-04-21T13:19:16Z</time>
      </trkpt>
      <trkpt lat="49.17141" lon="-0.4246">
        <ele>51.2</ele>
        <time>2023-04-21T13:19:17Z</time>
      </trkpt>
      <trkpt lat="49.17145" lon="-0.42465">
        <ele>51</ele>
        <time>2023-04-21T13:19:18Z</time>
      </trkpt>
      <trkpt lat="49.17149" lon="-0.4247">
        <ele>51</ele>
        <time>2023-04-21T13:19:19Z</time>
      </trkpt>
      <trkpt lat="49.17153" lon="-0.42476">
        <ele>51</ele>
        <time>2023-04-21T13:19:20Z</time>
      </trkpt>
      <trkpt lat="49.17157" lon="-0.42481">
        <ele>51</ele>
        <time>2023-04-21T13:19:21Z</time>
      </trkpt>
      <trkpt lat="49.17161" lon="-0.42486">
        <ele>51</ele>
        <time>2023-04-21T13:19:22Z</time>
      </trkpt>
      <trkpt lat="49.17165" lon="-0.42491">
        <ele>51</ele>
        <time>2023-04-21T13:19:23Z</time>
      </trkpt>
      <trkpt lat="49.17169" lon="-0.42497">
        <ele>51</ele>
        <time>2023-04-21T13:19:24Z</time>
      </trkpt>
      <trkpt lat="49.17173" lon="-0.42502">
        <ele>51</ele>
        <time>2023-04-21T13:19:25Z</time>
      </trkpt>
      <trkpt lat="49.17177" lon="-0.42507">
        <ele>51</ele>
        <time>2023-04-21T13:19:26Z</time>
      </trkpt>
      <trkpt lat="49.17181" lon="-0.42512">
        <ele>51.2</ele>
        <time>2023-04-21T13:19:27Z</time>
      </trkpt>
      <trkpt lat="49.17185" lon="-0.42518">
        <ele>51.4</ele>
        <time>2023-04-21T13:19:28Z</time>
      </trkpt>
      <trkpt lat="49.17189" lon="-0.42523">
        <ele>51.6</ele>
        <time>2023-04-21T13:19:29Z</time>
      </trkpt>
      <trkpt lat="49.17192" lon="-0.42528">
        <ele>51.6</ele>
        <time>2023-04-21T13:19:30Z</time>
      </trkpt>
      <trkpt lat="49.17196" lon="-0.42533">
        <ele>51.8</ele>
        <time>2023-04-21T13:19:31Z</time>
      </trkpt>
      <trkpt lat="49.17199" lon="-0.42538">
        <ele>51.8</ele>
        <time>2023-04-21T13:19:32Z</time>
      </trkpt>
      <trkpt lat="49.17203" lon="-0.42543">
        <ele>52</ele>
        <time>2023-04-21T13:19:33Z</time>
      </trkpt>
      <trkpt lat="49.17207" lon="-0.42549">
        <ele>52</ele>
        <time>2023-04-21T13:19:34Z</time>
      </trkpt>
      <trkpt lat="49.1721" lon="-0.42554">
        <ele>52</ele>
        <time>2023-04-21T13:19:35Z</time>
      </trkpt>
      <trkpt lat="49.17213" lon="-0.42559">
        <ele>52.2</ele>
        <time>2023-04-21T13:19:36Z</time>
      </trkpt>
      <trkpt lat="49.17217" lon="-0.42564">
        <ele>52.2</ele>
        <time>2023-04-21T13:19:37Z</time>
      </trkpt>
      <trkpt lat="49.1722" lon="-0.42569">
        <ele>52.2</ele>
        <time>2023-04-21T13:19:38Z</time>
      </trkpt>
      <trkpt lat="49.17224" lon="-0.42574">
        <ele>52.4</ele>
        <time>2023-04-21T13:19:39Z</time>
      </trkpt>
      <trkpt lat="49.17227" lon="-0.42579">
        <ele>52.4</ele>
        <time>2023-04-21T13:19:40Z</time>
      </trkpt>
      <trkpt lat="49.17231" lon="-0.42584">
        <ele>52.6</ele>
        <time>2023-04-21T13:19:41Z</time>
      </trkpt>
      <trkpt lat="49.17234" lon="-0.42589">
        <ele>52.4</ele>
        <time>2023-04-21T13:19:42Z</time>
      </trkpt>
      <trkpt lat="49.17238" lon="-0.42595">
        <ele>52.4</ele>
        <time>2023-04-21T13:19:43Z</time>
      </trkpt>
      <trkpt lat="49.17241" lon="-0.426">
        <ele>52.4</ele>
        <time>2023-04-21T13:19:44Z</time>
      </trkpt>
      <trkpt lat="49.17245" lon="-0.42605">
        <ele>52.4</ele>
        <time>2023-04-21T13:19:45Z</time>
      </trkpt>
      <trkpt lat="49.17249" lon="-0.4261">
        <ele>52.4</ele>
        <time>2023-04-21T13:19:46Z</time>
      </trkpt>
      <trkpt lat="49.17252" lon="-0.42616">
        <ele>52.2</ele>
        <time>2023-04-21T13:19:47Z</time>
      </trkpt>
      <trkpt lat="49.17256" lon="-0.42621">
        <ele>52.2</ele>
        <time>2023-04-21T13:19:48Z</time>
      </trkpt>
      <trkpt lat="49.1726" lon="-0.42627">
        <ele>52.2</ele>
        <time>2023-04-21T13:19:49Z</time>
      </trkpt>
      <trkpt lat="49.17264" lon="-0.42632">
        <ele>52.2</ele>
        <time>2023-04-21T13:19:50Z</time>
      </trkpt>
      <trkpt lat="49.17267" lon="-0.42638">
        <ele>52</ele>
        <time>2023-04-21T13:19:51Z</time>
      </trkpt>
      <trkpt lat="49.17271" lon="-0.42644">
        <ele>52</ele>
        <time>2023-04-21T13:19:52Z</time>
      </trkpt>
      <trkpt lat="49.17275" lon="-0.42649">
        <ele>52</ele>
        <time>2023-04-21T13:19:53Z</time>
      </trkpt>
      <trkpt lat="49.17279" lon="-0.42655">
        <ele>52</ele>
        <time>2023-04-21T13:19:54Z</time>
      </trkpt>
      <trkpt lat="49.17282" lon="-0.4266">
        <ele>51.8</ele>
        <time>2023-04-21T13:19:55Z</time>
      </trkpt>
      <trkpt lat="49.17287" lon="-0.42665">
        <ele>51.8</ele>
        <time>2023-04-21T13:19:56Z</time>
      </trkpt>
      <trkpt lat="49.17291" lon="-0.4267">
        <ele>51.6</ele>
        <time>2023-04-21T13:19:57Z</time>
      </trkpt>
      <trkpt lat="49.17296" lon="-0.42675">
        <ele>51.6</ele>
        <time>2023-04-21T13:19:58Z</time>
      </trkpt>
      <trkpt lat="49.17301" lon="-0.42679">
        <ele>51.6</ele>
        <time>2023-04-21T13:19:59Z</time>
      </trkpt>
      <trkpt lat="49.17305" lon="-0.42683">
        <ele>51.4</ele>
        <time>2023-04-21T13:20:00Z</time>
      </trkpt>
      <trkpt lat="49.17311" lon="-0.42687">
        <ele>51.2</ele>
        <time>2023-04-21T13:20:01Z</time>
      </trkpt>
      <trkpt lat="49.17316" lon="-0.4269">
        <ele>51.2</ele>
        <time>2023-04-21T13:20:02Z</time>
      </trkpt>
      <trkpt lat="49.17321" lon="-0.42694">
        <ele>51</ele>
        <time>2023-04-21T13:20:03Z</time>
      </trkpt>
      <trkpt lat="49.17326" lon="-0.42697">
        <ele>51</ele>
        <time>2023-04-21T13:20:04Z</time>
      </trkpt>
      <trkpt lat="49.17331" lon="-0.42701">
        <ele>51</ele>
        <time>2023-04-21T13:20:05Z</time>
      </trkpt>
      <trkpt lat="49.17336" lon="-0.42705">
        <ele>51</ele>
        <time>2023-04-21T13:20:06Z</time>
      </trkpt>
      <trkpt lat="49.17341" lon="-0.42708">
        <ele>51</ele>
        <time>2023-04-21T13:20:07Z</time>
      </trkpt>
      <trkpt lat="49.17347" lon="-0.42712">
        <ele>50.8</ele>
        <time>2023-04-21T13:20:08Z</time>
      </trkpt>
      <trkpt lat="49.17352" lon="-0.42714">
        <ele>50.8</ele>
        <time>2023-04-21T13:20:09Z</time>
      </trkpt>
      <trkpt lat="49.17357" lon="-0.42717">
        <ele>50.8</ele>
        <time>2023-04-21T13:20:10Z</time>
      </trkpt>
      <trkpt lat="49.17363" lon="-0.42718">
        <ele>50.8</ele>
        <time>2023-04-21T13:20:11Z</time>
      </trkpt>
      <trkpt lat="49.17368" lon="-0.42719">
        <ele>50.6</ele>
        <time>2023-04-21T13:20:12Z</time>
      </trkpt>
      <trkpt lat="49.17374" lon="-0.4272">
        <ele>50.6</ele>
        <time>2023-04-21T13:20:13Z</time>
      </trkpt>
      <trkpt lat="49.17379" lon="-0.4272">
        <ele>50.4</ele>
        <time>2023-04-21T13:20:14Z</time>
      </trkpt>
      <trkpt lat="49.17384" lon="-0.4272">
        <ele>50.2</ele>
        <time>2023-04-21T13:20:15Z</time>
      </trkpt>
      <trkpt lat="49.17389" lon="-0.42722">
        <ele>50.2</ele>
        <time>2023-04-21T13:20:16Z</time>
      </trkpt>
      <trkpt lat="49.17394" lon="-0.42725">
        <ele>50.2</ele>
        <time>2023-04-21T13:20:17Z</time>
      </trkpt>
      <trkpt lat="49.17398" lon="-0.4273">
        <ele>50.2</ele>
        <time>2023-04-21T13:20:18Z</time>
      </trkpt>
      <trkpt lat="49.17401" lon="-0.42737">
        <ele>50.2</ele>
        <time>2023-04-21T13:20:19Z</time>
      </trkpt>
      <trkpt lat="49.17402" lon="-0.42746">
        <ele>50.2</ele>
        <time>2023-04-21T13:20:20Z</time>
      </trkpt>
      <trkpt lat="49.17402" lon="-0.42754">
        <ele>50.4</ele>
        <time>2023-04-21T13:20:21Z</time>
      </trkpt>
      <trkpt lat="49.17402" lon="-0.42763">
        <ele>50.6</ele>
        <time>2023-04-21T13:20:22Z</time>
      </trkpt>
      <trkpt lat="49.17402" lon="-0.42771">
        <ele>50.8</ele>
        <time>2023-04-21T13:20:23Z</time>
      </trkpt>
      <trkpt lat="49.17402" lon="-0.4278">
        <ele>50.8</ele>
        <time>2023-04-21T13:20:24Z</time>
      </trkpt>
      <trkpt lat="49.17403" lon="-0.42789">
        <ele>51</ele>
        <time>2023-04-21T13:20:25Z</time>
      </trkpt>
      <trkpt lat="49.17405" lon="-0.42798">
        <ele>51</ele>
        <time>2023-04-21T13:20:26Z</time>
      </trkpt>
      <trkpt lat="49.17408" lon="-0.42807">
        <ele>51</ele>
        <time>2023-04-21T13:20:27Z</time>
      </trkpt>
      <trkpt lat="49.17411" lon="-0.42816">
        <ele>51</ele>
        <time>2023-04-21T13:20:28Z</time>
      </trkpt>
      <trkpt lat="49.17414" lon="-0.42824">
        <ele>51</ele>
        <time>2023-04-21T13:20:29Z</time>
      </trkpt>
      <trkpt lat="49.17417" lon="-0.42833">
        <ele>51</ele>
        <time>2023-04-21T13:20:30Z</time>
      </trkpt>
      <trkpt lat="49.17421" lon="-0.42841">
        <ele>51.2</ele>
        <time>2023-04-21T13:20:31Z</time>
      </trkpt>
      <trkpt lat="49.17425" lon="-0.4285">
        <ele>51.6</ele>
        <time>2023-04-21T13:20:32Z</time>
      </trkpt>
      <trkpt lat="49.17429" lon="-0.42858">
        <ele>51.8</ele>
        <time>2023-04-21T13:20:33Z</time>
      </trkpt>
      <trkpt lat="49.17432" lon="-0.42866">
        <ele>52</ele>
        <time>2023-04-21T13:20:34Z</time>
      </trkpt>
      <trkpt lat="49.17437" lon="-0.42875">
        <ele>52</ele>
        <time>2023-04-21T13:20:35Z</time>
      </trkpt>
      <trkpt lat="49.17441" lon="-0.42883">
        <ele>52.2</ele>
        <time>2023-04-21T13:20:36Z</time>
      </trkpt>
      <trkpt lat="49.17445" lon="-0.42891">
        <ele>52.6</ele>
        <time>2023-04-21T13:20:37Z</time>
      </trkpt>
      <trkpt lat="49.17449" lon="-0.429">
        <ele>52.8</ele>
        <time>2023-04-21T13:20:38Z</time>
      </trkpt>
      <trkpt lat="49.17454" lon="-0.42908">
        <ele>53</ele>
        <time>2023-04-21T13:20:39Z</time>
      </trkpt>
      <trkpt lat="49.17458" lon="-0.42917">
        <ele>53</ele>
        <time>2023-04-21T13:20:40Z</time>
      </trkpt>
      <trkpt lat="49.17462" lon="-0.42925">
        <ele>53</ele>
        <time>2023-04-21T13:20:41Z</time>
      </trkpt>
      <trkpt lat="49.17466" lon="-0.42933">
        <ele>53</ele>
        <time>2023-04-21T13:20:42Z</time>
      </trkpt>
      <trkpt lat="49.17471" lon="-0.42942">
        <ele>52.8</ele>
        <time>2023-04-21T13:20:43Z</time>
      </trkpt>
      <trkpt lat="49.17475" lon="-0.4295">
        <ele>52.8</ele>
        <time>2023-04-21T13:20:44Z</time>
      </trkpt>
      <trkpt lat="49.17479" lon="-0.42958">
        <ele>52.6</ele>
        <time>2023-04-21T13:20:45Z</time>
      </trkpt>
      <trkpt lat="49.17483" lon="-0.42966">
        <ele>52.6</ele>
        <time>2023-04-21T13:20:46Z</time>
      </trkpt>
      <trkpt lat="49.17487" lon="-0.42975">
        <ele>52.4</ele>
        <time>2023-04-21T13:20:47Z</time>
      </trkpt>
      <trkpt lat="49.17491" lon="-0.42983">
        <ele>52.2</ele>
        <time>2023-04-21T13:20:48Z</time>
      </trkpt>
      <trkpt lat="49.17495" lon="-0.4299">
        <ele>52.2</ele>
        <time>2023-04-21T13:20:49Z</time>
      </trkpt>
      <trkpt lat="49.17499" lon="-0.42998">
        <ele>52</ele>
        <time>2023-04-21T13:20:50Z</time>
      </trkpt>
      <trkpt lat="49.17503" lon="-0.43005">
        <ele>52</ele>
        <time>2023-04-21T13:20:51Z</time>
      </trkpt>
      <trkpt lat="49.17507" lon="-0.43012">
        <ele>52</ele>
        <time>2023-04-21T13:20:52Z</time>
      </trkpt>
      <trkpt lat="49.17511" lon="-0.43019">
        <ele>52</ele>
        <time>2023-04-21T13:20:53Z</time>
      </trkpt>
      <trkpt lat="49.17516" lon="-0.43025">
        <ele>52</ele>
        <time>2023-04-21T13:20:54Z</time>
      </trkpt>
      <trkpt lat="49.1752" lon="-0.43031">
        <ele>52</ele>
        <time>2023-04-21T13:20:55Z</time>
      </trkpt>
      <trkpt lat="49.17524" lon="-0.43037">
        <ele>52</ele>
        <time>2023-04-21T13:20:56Z</time>
      </trkpt>
      <trkpt lat="49.17529" lon="-0.43042">
        <ele>52.2</ele>
        <time>2023-04-21T13:20:57Z</time>
      </trkpt>
      <trkpt lat="49.17533" lon="-0.43047">
        <ele>52.2</ele>
        <time>2023-04-21T13:20:58Z</time>
      </trkpt>
      <trkpt lat="49.17537" lon="-0.43052">
        <ele>52.2</ele>
        <time>2023-04-21T13:20:59Z</time>
      </trkpt>
      <trkpt lat="49.17542" lon="-0.43058">
        <ele>52.2</ele>
        <time>2023-04-21T13:21:00Z</time>
      </trkpt>
      <trkpt lat="49.17546" lon="-0.43063">
        <ele>52.2</ele>
        <time>2023-04-21T13:21:01Z</time>
      </trkpt>
      <trkpt lat="49.1755" lon="-0.43068">
        <ele>52.2</ele>
        <time>2023-04-21T13:21:02Z</time>
      </trkpt>
      <trkpt lat="49.17554" lon="-0.43074">
        <ele>52.2</ele>
        <time>2023-04-21T13:21:03Z</time>
      </trkpt>
      <trkpt lat="49.17559" lon="-0.43078">
        <ele>52.2</ele>
        <time>2023-04-21T13:21:04Z</time>
      </trkpt>
      <trkpt lat="49.17563" lon="-0.43082">
        <ele>52.2</ele>
        <time>2023-04-21T13:21:05Z</time>
      </trkpt>
      <trkpt lat="49.17568" lon="-0.43086">
        <ele>52.2</ele>
        <time>2023-04-21T13:21:06Z</time>
      </trkpt>
      <trkpt lat="49.17573" lon="-0.43089">
        <ele>52.2</ele>
        <time>2023-04-21T13:21:07Z</time>
      </trkpt>
      <trkpt lat="49.17578" lon="-0.43091">
        <ele>52</ele>
        <time>2023-04-21T13:21:08Z</time>
      </trkpt>
      <trkpt lat="49.17583" lon="-0.43091">
        <ele>52</ele>
        <time>2023-04-21T13:21:09Z</time>
      </trkpt>
      <trkpt lat="49.17588" lon="-0.43093">
        <ele>52</ele>
        <time>2023-04-21T13:21:10Z</time>
      </trkpt>
      <trkpt lat="49.17593" lon="-0.43096">
        <ele>52</ele>
        <time>2023-04-21T13:21:11Z</time>
      </trkpt>
      <trkpt lat="49.17597" lon="-0.43101">
        <ele>52</ele>
        <time>2023-04-21T13:21:12Z</time>
      </trkpt>
      <trkpt lat="49.176" lon="-0.43107">
        <ele>52</ele>
        <time>2023-04-21T13:21:13Z</time>
      </trkpt>
      <trkpt lat="49.17602" lon="-0.43114">
        <ele>52.2</ele>
        <time>2023-04-21T13:21:14Z</time>
      </trkpt>
      <trkpt lat="49.17603" lon="-0.43122">
        <ele>52.2</ele>
        <time>2023-04-21T13:21:15Z</time>
      </trkpt>
      <trkpt lat="49.17604" lon="-0.4313">
        <ele>52.4</ele>
        <time>2023-04-21T13:21:16Z</time>
      </trkpt>
      <trkpt lat="49.17606" lon="-0.43138">
        <ele>52.6</ele>
        <time>2023-04-21T13:21:17Z</time>
      </trkpt>
      <trkpt lat="49.17609" lon="-0.43145">
        <ele>52.8</ele>
        <time>2023-04-21T13:21:18Z</time>
      </trkpt>
      <trkpt lat="49.17612" lon="-0.43153">
        <ele>52.8</ele>
        <time>2023-04-21T13:21:19Z</time>
      </trkpt>
      <trkpt lat="49.17615" lon="-0.4316">
        <ele>53</ele>
        <time>2023-04-21T13:21:20Z</time>
      </trkpt>
      <trkpt lat="49.17619" lon="-0.43167">
        <ele>53</ele>
        <time>2023-04-21T13:21:21Z</time>
      </trkpt>
      <trkpt lat="49.17624" lon="-0.43174">
        <ele>53.2</ele>
        <time>2023-04-21T13:21:22Z</time>
      </trkpt>
      <trkpt lat="49.17628" lon="-0.43181">
        <ele>53.4</ele>
        <time>2023-04-21T13:21:23Z</time>
      </trkpt>
      <trkpt lat="49.17633" lon="-0.43187">
        <ele>53.6</ele>
        <time>2023-04-21T13:21:24Z</time>
      </trkpt>
      <trkpt lat="49.17638" lon="-0.43194">
        <ele>53.8</ele>
        <time>2023-04-21T13:21:25Z</time>
      </trkpt>
      <trkpt lat="49.17642" lon="-0.43201">
        <ele>54</ele>
        <time>2023-04-21T13:21:26Z</time>
      </trkpt>
      <trkpt lat="49.17646" lon="-0.43208">
        <ele>54</ele>
        <time>2023-04-21T13:21:27Z</time>
      </trkpt>
      <trkpt lat="49.17651" lon="-0.43215">
        <ele>54.2</ele>
        <time>2023-04-21T13:21:28Z</time>
      </trkpt>
      <trkpt lat="49.17655" lon="-0.43222">
        <ele>54.4</ele>
        <time>2023-04-21T13:21:29Z</time>
      </trkpt>
      <trkpt lat="49.17659" lon="-0.43229">
        <ele>54.6</ele>
        <time>2023-04-21T13:21:30Z</time>
      </trkpt>
      <trkpt lat="49.17663" lon="-0.43236">
        <ele>54.8</ele>
        <time>2023-04-21T13:21:31Z</time>
      </trkpt>
      <trkpt lat="49.17667" lon="-0.43244">
        <ele>54.8</ele>
        <time>2023-04-21T13:21:32Z</time>
      </trkpt>
      <trkpt lat="49.17671" lon="-0.43251">
        <ele>55</ele>
        <time>2023-04-21T13:21:33Z</time>
      </trkpt>
      <trkpt lat="49.17675" lon="-0.43258">
        <ele>55</ele>
        <time>2023-04-21T13:21:34Z</time>
      </trkpt>
      <trkpt lat="49.17679" lon="-0.43266">
        <ele>55</ele>
        <time>2023-04-21T13:21:35Z</time>
      </trkpt>
      <trkpt lat="49.17683" lon="-0.43273">
        <ele>55</ele>
        <time>2023-04-21T13:21:36Z</time>
      </trkpt>
      <trkpt lat="49.17688" lon="-0.4328">
        <ele>55</ele>
        <time>2023-04-21T13:21:37Z</time>
      </trkpt>
      <trkpt lat="49.17692" lon="-0.43287">
        <ele>55</ele>
        <time>2023-04-21T13:21:38Z</time>
      </trkpt>
      <trkpt lat="49.17696" lon="-0.43294">
        <ele>55</ele>
        <time>2023-04-21T13:21:39Z</time>
      </trkpt>
      <trkpt lat="49.177" lon="-0.43301">
        <ele>55</ele>
        <time>2023-04-21T13:21:40Z</time>
      </trkpt>
      <trkpt lat="49.17704" lon="-0.43308">
        <ele>55</ele>
        <time>2023-04-21T13:21:41Z</time>
      </trkpt>
      <trkpt lat="49.17709" lon="-0.43316">
        <ele>55</ele>
        <time>2023-04-21T13:21:42Z</time>
      </trkpt>
      <trkpt lat="49.17713" lon="-0.43323">
        <ele>54.8</ele>
        <time>2023-04-21T13:21:43Z</time>
      </trkpt>
      <trkpt lat="49.17717" lon="-0.4333">
        <ele>54.8</ele>
        <time>2023-04-21T13:21:44Z</time>
      </trkpt>
      <trkpt lat="49.17721" lon="-0.43337">
        <ele>54.8</ele>
        <time>2023-04-21T13:21:45Z</time>
      </trkpt>
      <trkpt lat="49.17725" lon="-0.43345">
        <ele>54.8</ele>
        <time>2023-04-21T13:21:46Z</time>
      </trkpt>
      <trkpt lat="49.17729" lon="-0.43352">
        <ele>54.8</ele>
        <time>2023-04-21T13:21:47Z</time>
      </trkpt>
      <trkpt lat="49.17733" lon="-0.43359">
        <ele>54.8</ele>
        <time>2023-04-21T13:21:48Z</time>
      </trkpt>
      <trkpt lat="49.17737" lon="-0.43367">
        <ele>54.6</ele>
        <time>2023-04-21T13:21:49Z</time>
      </trkpt>
      <trkpt lat="49.17741" lon="-0.43374">
        <ele>54.6</ele>
        <time>2023-04-21T13:21:50Z</time>
      </trkpt>
      <trkpt lat="49.17745" lon="-0.43382">
        <ele>54.8</ele>
        <time>2023-04-21T13:21:51Z</time>
      </trkpt>
      <trkpt lat="49.17749" lon="-0.43389">
        <ele>54.8</ele>
        <time>2023-04-21T13:21:52Z</time>
      </trkpt>
      <trkpt lat="49.17753" lon="-0.43396">
        <ele>54.8</ele>
        <time>2023-04-21T13:21:53Z</time>
      </trkpt>
      <trkpt lat="49.17757" lon="-0.43404">
        <ele>55</ele>
        <time>2023-04-21T13:21:54Z</time>
      </trkpt>
      <trkpt lat="49.17761" lon="-0.43411">
        <ele>55</ele>
        <time>2023-04-21T13:21:55Z</time>
      </trkpt>
      <trkpt lat="49.17765" lon="-0.43418">
        <ele>55.2</ele>
        <time>2023-04-21T13:21:56Z</time>
      </trkpt>
      <trkpt lat="49.17769" lon="-0.43426">
        <ele>55.2</ele>
        <time>2023-04-21T13:21:57Z</time>
      </trkpt>
      <trkpt lat="49.17773" lon="-0.43433">
        <ele>55.6</ele>
        <time>2023-04-21T13:21:58Z</time>
      </trkpt>
      <trkpt lat="49.17777" lon="-0.4344">
        <ele>55.6</ele>
        <time>2023-04-21T13:21:59Z</time>
      </trkpt>
      <trkpt lat="49.17781" lon="-0.43447">
        <ele>55.8</ele>
        <time>2023-04-21T13:22:00Z</time>
      </trkpt>
      <trkpt lat="49.17785" lon="-0.43455">
        <ele>56</ele>
        <time>2023-04-21T13:22:01Z</time>
      </trkpt>
      <trkpt lat="49.17789" lon="-0.43462">
        <ele>56</ele>
        <time>2023-04-21T13:22:02Z</time>
      </trkpt>
      <trkpt lat="49.17793" lon="-0.43469">
        <ele>56</ele>
        <time>2023-04-21T13:22:03Z</time>
      </trkpt>
      <trkpt lat="49.17797" lon="-0.43476">
        <ele>56.2</ele>
        <time>2023-04-21T13:22:04Z</time>
      </trkpt>
      <trkpt lat="49.178" lon="-0.43483">
        <ele>56.4</ele>
        <time>2023-04-21T13:22:05Z</time>
      </trkpt>
      <trkpt lat="49.17804" lon="-0.4349">
        <ele>56.6</ele>
        <time>2023-04-21T13:22:06Z</time>
      </trkpt>
      <trkpt lat="49.17808" lon="-0.43497">
        <ele>56.8</ele>
        <time>2023-04-21T13:22:07Z</time>
      </trkpt>
      <trkpt lat="49.17811" lon="-0.43504">
        <ele>56.8</ele>
        <time>2023-04-21T13:22:08Z</time>
      </trkpt>
      <trkpt lat="49.17815" lon="-0.43511">
        <ele>56.8</ele>
        <time>2023-04-21T13:22:09Z</time>
      </trkpt>
      <trkpt lat="49.17819" lon="-0.43517">
        <ele>56.8</ele>
        <time>2023-04-21T13:22:10Z</time>
      </trkpt>
      <trkpt lat="49.17822" lon="-0.43524">
        <ele>57</ele>
        <time>2023-04-21T13:22:11Z</time>
      </trkpt>
      <trkpt lat="49.17826" lon="-0.43531">
        <ele>57</ele>
        <time>2023-04-21T13:22:12Z</time>
      </trkpt>
      <trkpt lat="49.17829" lon="-0.43537">
        <ele>57</ele>
        <time>2023-04-21T13:22:13Z</time>
      </trkpt>
      <trkpt lat="49.17833" lon="-0.43544">
        <ele>57</ele>
        <time>2023-04-21T13:22:14Z</time>
      </trkpt>
      <trkpt lat="49.17836" lon="-0.4355">
        <ele>57</ele>
        <time>2023-04-21T13:22:15Z</time>
      </trkpt>
      <trkpt lat="49.1784" lon="-0.43557">
        <ele>57</ele>
        <time>2023-04-21T13:22:16Z</time>
      </trkpt>
      <trkpt lat="49.17843" lon="-0.43563">
        <ele>57</ele>
        <time>2023-04-21T13:22:17Z</time>
      </trkpt>
      <trkpt lat="49.17847" lon="-0.4357">
        <ele>57</ele>
        <time>2023-04-21T13:22:18Z</time>
      </trkpt>
      <trkpt lat="49.1785" lon="-0.43576">
        <ele>56.8</ele>
        <time>2023-04-21T13:22:19Z</time>
      </trkpt>
      <trkpt lat="49.17853" lon="-0.43582">
        <ele>56.8</ele>
        <time>2023-04-21T13:22:20Z</time>
      </trkpt>
      <trkpt lat="49.17857" lon="-0.43588">
        <ele>56.8</ele>
        <time>2023-04-21T13:22:21Z</time>
      </trkpt>
      <trkpt lat="49.1786" lon="-0.43595">
        <ele>57</ele>
        <time>2023-04-21T13:22:22Z</time>
      </trkpt>
      <trkpt lat="49.17863" lon="-0.43601">
        <ele>57</ele>
        <time>2023-04-21T13:22:23Z</time>
      </trkpt>
      <trkpt lat="49.17867" lon="-0.43607">
        <ele>57</ele>
        <time>2023-04-21T13:22:24Z</time>
      </trkpt>
      <trkpt lat="49.1787" lon="-0.43613">
        <ele>57</ele>
        <time>2023-04-21T13:22:25Z</time>
      </trkpt>
      <trkpt lat="49.17873" lon="-0.43619">
        <ele>57.2</ele>
        <time>2023-04-21T13:22:26Z</time>
      </trkpt>
      <trkpt lat="49.17876" lon="-0.43625">
        <ele>57.2</ele>
        <time>2023-04-21T13:22:27Z</time>
      </trkpt>
      <trkpt lat="49.1788" lon="-0.43631">
        <ele>57.2</ele>
        <time>2023-04-21T13:22:28Z</time>
      </trkpt>
      <trkpt lat="49.17883" lon="-0.43637">
        <ele>57.4</ele>
        <time>2023-04-21T13:22:29Z</time>
      </trkpt>
      <trkpt lat="49.17886" lon="-0.43643">
        <ele>57.6</ele>
        <time>2023-04-21T13:22:30Z</time>
      </trkpt>
      <trkpt lat="49.17889" lon="-0.43649">
        <ele>57.6</ele>
        <time>2023-04-21T13:22:31Z</time>
      </trkpt>
      <trkpt lat="49.17893" lon="-0.43655">
        <ele>57.8</ele>
        <time>2023-04-21T13:22:32Z</time>
      </trkpt>
      <trkpt lat="49.17896" lon="-0.43661">
        <ele>58</ele>
        <time>2023-04-21T13:22:33Z</time>
      </trkpt>
      <trkpt lat="49.17899" lon="-0.43667">
        <ele>58</ele>
        <time>2023-04-21T13:22:34Z</time>
      </trkpt>
      <trkpt lat="49.17902" lon="-0.43673">
        <ele>58</ele>
        <time>2023-04-21T13:22:35Z</time>
      </trkpt>
      <trkpt lat="49.17906" lon="-0.43679">
        <ele>58</ele>
        <time>2023-04-21T13:22:36Z</time>
      </trkpt>
      <trkpt lat="49.17909" lon="-0.43685">
        <ele>58.2</ele>
        <time>2023-04-21T13:22:37Z</time>
      </trkpt>
      <trkpt lat="49.17912" lon="-0.43691">
        <ele>58.2</ele>
        <time>2023-04-21T13:22:38Z</time>
      </trkpt>
      <trkpt lat="49.17915" lon="-0.43697">
        <ele>58.4</ele>
        <time>2023-04-21T13:22:39Z</time>
      </trkpt>
      <trkpt lat="49.17919" lon="-0.43703">
        <ele>58.6</ele>
        <time>2023-04-21T13:22:40Z</time>
      </trkpt>
      <trkpt lat="49.17922" lon="-0.43709">
        <ele>58.6</ele>
        <time>2023-04-21T13:22:41Z</time>
      </trkpt>
      <trkpt lat="49.17925" lon="-0.43715">
        <ele>58.8</ele>
        <time>2023-04-21T13:22:42Z</time>
      </trkpt>
      <trkpt lat="49.17928" lon="-0.43721">
        <ele>59</ele>
        <time>2023-04-21T13:22:43Z</time>
      </trkpt>
      <trkpt lat="49.17931" lon="-0.43727">
        <ele>59</ele>
        <time>2023-04-21T13:22:44Z</time>
      </trkpt>
      <trkpt lat="49.17935" lon="-0.43733">
        <ele>59.2</ele>
        <time>2023-04-21T13:22:45Z</time>
      </trkpt>
      <trkpt lat="49.17938" lon="-0.43739">
        <ele>59.4</ele>
        <time>2023-04-21T13:22:46Z</time>
      </trkpt>
      <trkpt lat="49.17941" lon="-0.43745">
        <ele>59.6</ele>
        <time>2023-04-21T13:22:47Z</time>
      </trkpt>
      <trkpt lat="49.17944" lon="-0.43752">
        <ele>59.8</ele>
        <time>2023-04-21T13:22:48Z</time>
      </trkpt>
      <trkpt lat="49.17948" lon="-0.43758">
        <ele>59.8</ele>
        <time>2023-04-21T13:22:49Z</time>
      </trkpt>
      <trkpt lat="49.17951" lon="-0.43764">
        <ele>60</ele>
        <time>2023-04-21T13:22:50Z</time>
      </trkpt>
      <trkpt lat="49.17954" lon="-0.4377">
        <ele>60</ele>
        <time>2023-04-21T13:22:51Z</time>
      </trkpt>
      <trkpt lat="49.17957" lon="-0.43776">
        <ele>60</ele>
        <time>2023-04-21T13:22:52Z</time>
      </trkpt>
      <trkpt lat="49.17961" lon="-0.43783">
        <ele>60.2</ele>
        <time>2023-04-21T13:22:53Z</time>
      </trkpt>
      <trkpt lat="49.17964" lon="-0.43789">
        <ele>60.2</ele>
        <time>2023-04-21T13:22:54Z</time>
      </trkpt>
      <trkpt lat="49.17967" lon="-0.43795">
        <ele>60.4</ele>
        <time>2023-04-21T13:22:55Z</time>
      </trkpt>
      <trkpt lat="49.1797" lon="-0.43801">
        <ele>60.6</ele>
        <time>2023-04-21T13:22:56Z</time>
      </trkpt>
      <trkpt lat="49.17974" lon="-0.43807">
        <ele>60.6</ele>
        <time>2023-04-21T13:22:57Z</time>
      </trkpt>
      <trkpt lat="49.17977" lon="-0.43814">
        <ele>60.8</ele>
        <time>2023-04-21T13:22:58Z</time>
      </trkpt>
      <trkpt lat="49.1798" lon="-0.4382">
        <ele>60.8</ele>
        <time>2023-04-21T13:22:59Z</time>
      </trkpt>
      <trkpt lat="49.17984" lon="-0.43826">
        <ele>60.8</ele>
        <time>2023-04-21T13:23:00Z</time>
      </trkpt>
      <trkpt lat="49.17987" lon="-0.43832">
        <ele>60.8</ele>
        <time>2023-04-21T13:23:01Z</time>
      </trkpt>
      <trkpt lat="49.1799" lon="-0.43839">
        <ele>61</ele>
        <time>2023-04-21T13:23:02Z</time>
      </trkpt>
      <trkpt lat="49.17993" lon="-0.43845">
        <ele>61</ele>
        <time>2023-04-21T13:23:03Z</time>
      </trkpt>
      <trkpt lat="49.17997" lon="-0.43851">
        <ele>61</ele>
        <time>2023-04-21T13:23:04Z</time>
      </trkpt>
      <trkpt lat="49.18" lon="-0.43857">
        <ele>61</ele>
        <time>2023-04-21T13:23:05Z</time>
      </trkpt>
      <trkpt lat="49.18003" lon="-0.43863">
        <ele>61</ele>
        <time>2023-04-21T13:23:06Z</time>
      </trkpt>
      <trkpt lat="49.18007" lon="-0.4387">
        <ele>61</ele>
        <time>2023-04-21T13:23:07Z</time>
      </trkpt>
      <trkpt lat="49.1801" lon="-0.43876">
        <ele>61.2</ele>
        <time>2023-04-21T13:23:08Z</time>
      </trkpt>
      <trkpt lat="49.18013" lon="-0.43882">
        <ele>61.2</ele>
        <time>2023-04-21T13:23:09Z</time>
      </trkpt>
      <trkpt lat="49.18016" lon="-0.43888">
        <ele>61.2</ele>
        <time>2023-04-21T13:23:10Z</time>
      </trkpt>
      <trkpt lat="49.18019" lon="-0.43894">
        <ele>61.4</ele>
        <time>2023-04-21T13:23:11Z</time>
      </trkpt>
      <trkpt lat="49.18023" lon="-0.439">
        <ele>61.6</ele>
        <time>2023-04-21T13:23:12Z</time>
      </trkpt>
      <trkpt lat="49.18026" lon="-0.43906">
        <ele>61.6</ele>
        <time>2023-04-21T13:23:13Z</time>
      </trkpt>
      <trkpt lat="49.18029" lon="-0.43912">
        <ele>61.8</ele>
        <time>2023-04-21T13:23:14Z</time>
      </trkpt>
      <trkpt lat="49.18033" lon="-0.43919">
        <ele>61.8</ele>
        <time>2023-04-21T13:23:15Z</time>
      </trkpt>
      <trkpt lat="49.18036" lon="-0.43925">
        <ele>61.8</ele>
        <time>2023-04-21T13:23:16Z</time>
      </trkpt>
      <trkpt lat="49.18039" lon="-0.43931">
        <ele>61.8</ele>
        <time>2023-04-21T13:23:17Z</time>
      </trkpt>
      <trkpt lat="49.18043" lon="-0.43937">
        <ele>61.8</ele>
        <time>2023-04-21T13:23:18Z</time>
      </trkpt>
      <trkpt lat="49.18047" lon="-0.43944">
        <ele>61.8</ele>
        <time>2023-04-21T13:23:19Z</time>
      </trkpt>
      <trkpt lat="49.1805" lon="-0.4395">
        <ele>61.8</ele>
        <time>2023-04-21T13:23:20Z</time>
      </trkpt>
      <trkpt lat="49.18054" lon="-0.43956">
        <ele>61.8</ele>
        <time>2023-04-21T13:23:21Z</time>
      </trkpt>
      <trkpt lat="49.18058" lon="-0.43962">
        <ele>61.6</ele>
        <time>2023-04-21T13:23:22Z</time>
      </trkpt>
      <trkpt lat="49.18062" lon="-0.43968">
        <ele>61.6</ele>
        <time>2023-04-21T13:23:23Z</time>
      </trkpt>
      <trkpt lat="49.18066" lon="-0.43974">
        <ele>61.6</ele>
        <time>2023-04-21T13:23:24Z</time>
      </trkpt>
      <trkpt lat="49.1807" lon="-0.43979">
        <ele>61.4</ele>
        <time>2023-04-21T13:23:25Z</time>
      </trkpt>
      <trkpt lat="49.18075" lon="-0.43984">
        <ele>61.2</ele>
        <time>2023-04-21T13:23:26Z</time>
      </trkpt>
      <trkpt lat="49.18079" lon="-0.43989">
        <ele>61.2</ele>
        <time>2023-04-21T13:23:27Z</time>
      </trkpt>
      <trkpt lat="49.18083" lon="-0.43994">
        <ele>61</ele>
        <time>2023-04-21T13:23:28Z</time>
      </trkpt>
      <trkpt lat="49.18088" lon="-0.43999">
        <ele>61</ele>
        <time>2023-04-21T13:23:29Z</time>
      </trkpt>
      <trkpt lat="49.18092" lon="-0.44004">
        <ele>61</ele>
        <time>2023-04-21T13:23:30Z</time>
      </trkpt>
      <trkpt lat="49.18096" lon="-0.44008">
        <ele>60.8</ele>
        <time>2023-04-21T13:23:31Z</time>
      </trkpt>
      <trkpt lat="49.18101" lon="-0.44013">
        <ele>60.8</ele>
        <time>2023-04-21T13:23:32Z</time>
      </trkpt>
      <trkpt lat="49.18106" lon="-0.44017">
        <ele>60.6</ele>
        <time>2023-04-21T13:23:33Z</time>
      </trkpt>
      <trkpt lat="49.18111" lon="-0.44022">
        <ele>60.6</ele>
        <time>2023-04-21T13:23:34Z</time>
      </trkpt>
      <trkpt lat="49.18116" lon="-0.44026">
        <ele>60.4</ele>
        <time>2023-04-21T13:23:35Z</time>
      </trkpt>
      <trkpt lat="49.18121" lon="-0.4403">
        <ele>60.4</ele>
        <time>2023-04-21T13:23:36Z</time>
      </trkpt>
      <trkpt lat="49.18126" lon="-0.44034">
        <ele>60.2</ele>
        <time>2023-04-21T13:23:37Z</time>
      </trkpt>
      <trkpt lat="49.18131" lon="-0.44038">
        <ele>60.2</ele>
        <time>2023-04-21T13:23:38Z</time>
      </trkpt>
      <trkpt lat="49.18136" lon="-0.44041">
        <ele>60.2</ele>
        <time>2023-04-21T13:23:39Z</time>
      </trkpt>
      <trkpt lat="49.18141" lon="-0.44045">
        <ele>60</ele>
        <time>2023-04-21T13:23:40Z</time>
      </trkpt>
      <trkpt lat="49.18146" lon="-0.44048">
        <ele>60</ele>
        <time>2023-04-21T13:23:41Z</time>
      </trkpt>
      <trkpt lat="49.18151" lon="-0.44051">
        <ele>60</ele>
        <time>2023-04-21T13:23:42Z</time>
      </trkpt>
      <trkpt lat="49.18157" lon="-0.44053">
        <ele>60</ele>
        <time>2023-04-21T13:23:43Z</time>
      </trkpt>
      <trkpt lat="49.18162" lon="-0.44056">
        <ele>60</ele>
        <time>2023-04-21T13:23:44Z</time>
      </trkpt>
      <trkpt lat="49.18168" lon="-0.44059">
        <ele>60</ele>
        <time>2023-04-21T13:23:45Z</time>
      </trkpt>
      <trkpt lat="49.18173" lon="-0.44061">
        <ele>59.8</ele>
        <time>2023-04-21T13:23:46Z</time>
      </trkpt>
      <trkpt lat="49.18178" lon="-0.44063">
        <ele>59.8</ele>
        <time>2023-04-21T13:23:47Z</time>
      </trkpt>
      <trkpt lat="49.18184" lon="-0.44066">
        <ele>59.6</ele>
        <time>2023-04-21T13:23:48Z</time>
      </trkpt>
      <trkpt lat="49.18189" lon="-0.44067">
        <ele>59.4</ele>
        <time>2023-04-21T13:23:49Z</time>
      </trkpt>
      <trkpt lat="49.18195" lon="-0.44069">
        <ele>59.2</ele>
        <time>2023-04-21T13:23:50Z</time>
      </trkpt>
      <trkpt lat="49.182" lon="-0.4407">
        <ele>59</ele>
        <time>2023-04-21T13:23:51Z</time>
      </trkpt>
      <trkpt lat="49.18206" lon="-0.44071">
        <ele>59</ele>
        <time>2023-04-21T13:23:52Z</time>
      </trkpt>
      <trkpt lat="49.18212" lon="-0.44072">
        <ele>58.8</ele>
        <time>2023-04-21T13:23:53Z</time>
      </trkpt>
      <trkpt lat="49.18218" lon="-0.44073">
        <ele>58.8</ele>
        <time>2023-04-21T13:23:54Z</time>
      </trkpt>
      <trkpt lat="49.18223" lon="-0.44074">
        <ele>58.6</ele>
        <time>2023-04-21T13:23:55Z</time>
      </trkpt>
      <trkpt lat="49.1823" lon="-0.44074">
        <ele>58.4</ele>
        <time>2023-04-21T13:23:56Z</time>
      </trkpt>
      <trkpt lat="49.18236" lon="-0.44074">
        <ele>58.2</ele>
        <time>2023-04-21T13:23:57Z</time>
      </trkpt>
      <trkpt lat="49.18242" lon="-0.44074">
        <ele>58</ele>
        <time>2023-04-21T13:23:58Z</time>
      </trkpt>
      <trkpt lat="49.18248" lon="-0.44074">
        <ele>58</ele>
        <time>2023-04-21T13:23:59Z</time>
      </trkpt>
      <trkpt lat="49.18254" lon="-0.44073">
        <ele>58</ele>
        <time>2023-04-21T13:24:00Z</time>
      </trkpt>
      <trkpt lat="49.18261" lon="-0.44072">
        <ele>58</ele>
        <time>2023-04-21T13:24:01Z</time>
      </trkpt>
      <trkpt lat="49.18267" lon="-0.44071">
        <ele>58</ele>
        <time>2023-04-21T13:24:02Z</time>
      </trkpt>
      <trkpt lat="49.18273" lon="-0.4407">
        <ele>57.8</ele>
        <time>2023-04-21T13:24:03Z</time>
      </trkpt>
      <trkpt lat="49.18279" lon="-0.44069">
        <ele>57.8</ele>
        <time>2023-04-21T13:24:04Z</time>
      </trkpt>
      <trkpt lat="49.18285" lon="-0.44068">
        <ele>57.8</ele>
        <time>2023-04-21T13:24:05Z</time>
      </trkpt>
      <trkpt lat="49.1829" lon="-0.44066">
        <ele>57.8</ele>
        <time>2023-04-21T13:24:06Z</time>
      </trkpt>
      <trkpt lat="49.18295" lon="-0.44065">
        <ele>57.8</ele>
        <time>2023-04-21T13:24:07Z</time>
      </trkpt>
      <trkpt lat="49.18299" lon="-0.44064">
        <ele>57.8</ele>
        <time>2023-04-21T13:24:08Z</time>
      </trkpt>
      <trkpt lat="49.18303" lon="-0.44062">
        <ele>57.8</ele>
        <time>2023-04-21T13:24:09Z</time>
      </trkpt>
      <trkpt lat="49.18307" lon="-0.44061">
        <ele>57.8</ele>
        <time>2023-04-21T13:24:10Z</time>
      </trkpt>
      <trkpt lat="49.18311" lon="-0.4406">
        <ele>57.8</ele>
        <time>2023-04-21T13:24:11Z</time>
      </trkpt>
      <trkpt lat="49.18315" lon="-0.4406">
        <ele>57.8</ele>
        <time>2023-04-21T13:24:12Z</time>
      </trkpt>
      <trkpt lat="49.1832" lon="-0.44059">
        <ele>57.8</ele>
        <time>2023-04-21T13:24:13Z</time>
      </trkpt>
      <trkpt lat="49.18324" lon="-0.44058">
        <ele>57.8</ele>
        <time>2023-04-21T13:24:14Z</time>
      </trkpt>
      <trkpt lat="49.18329" lon="-0.44057">
        <ele>57.8</ele>
        <time>2023-04-21T13:24:15Z</time>
      </trkpt>
      <trkpt lat="49.18333" lon="-0.44055">
        <ele>57.8</ele>
        <time>2023-04-21T13:24:16Z</time>
      </trkpt>
      <trkpt lat="49.18337" lon="-0.44051">
        <ele>57.6</ele>
        <time>2023-04-21T13:24:17Z</time>
      </trkpt>
      <trkpt lat="49.1834" lon="-0.44046">
        <ele>57.4</ele>
        <time>2023-04-21T13:24:18Z</time>
      </trkpt>
      <trkpt lat="49.18342" lon="-0.44039">
        <ele>57.2</ele>
        <time>2023-04-21T13:24:19Z</time>
      </trkpt>
      <trkpt lat="49.18344" lon="-0.44031">
        <ele>57</ele>
        <time>2023-04-21T13:24:20Z</time>
      </trkpt>
      <trkpt lat="49.18346" lon="-0.44023">
        <ele>57</ele>
        <time>2023-04-21T13:24:21Z</time>
      </trkpt>
      <trkpt lat="49.18348" lon="-0.44015">
        <ele>57</ele>
        <time>2023-04-21T13:24:22Z</time>
      </trkpt>
      <trkpt lat="49.18351" lon="-0.44007">
        <ele>56.8</ele>
        <time>2023-04-21T13:24:23Z</time>
      </trkpt>
      <trkpt lat="49.18353" lon="-0.43999">
        <ele>56.8</ele>
        <time>2023-04-21T13:24:24Z</time>
      </trkpt>
      <trkpt lat="49.18355" lon="-0.4399">
        <ele>56.8</ele>
        <time>2023-04-21T13:24:25Z</time>
      </trkpt>
      <trkpt lat="49.18358" lon="-0.43982">
        <ele>56.8</ele>
        <time>2023-04-21T13:24:26Z</time>
      </trkpt>
      <trkpt lat="49.1836" lon="-0.43974">
        <ele>56.8</ele>
        <time>2023-04-21T13:24:27Z</time>
      </trkpt>
      <trkpt lat="49.18363" lon="-0.43966">
        <ele>56.6</ele>
        <time>2023-04-21T13:24:28Z</time>
      </trkpt>
      <trkpt lat="49.18365" lon="-0.43957">
        <ele>56.6</ele>
        <time>2023-04-21T13:24:29Z</time>
      </trkpt>
      <trkpt lat="49.18367" lon="-0.43949">
        <ele>56.6</ele>
        <time>2023-04-21T13:24:30Z</time>
      </trkpt>
      <trkpt lat="49.1837" lon="-0.43941">
        <ele>56.6</ele>
        <time>2023-04-21T13:24:31Z</time>
      </trkpt>
      <trkpt lat="49.18372" lon="-0.43932">
        <ele>56.6</ele>
        <time>2023-04-21T13:24:32Z</time>
      </trkpt>
      <trkpt lat="49.18375" lon="-0.43924">
        <ele>56.6</ele>
        <time>2023-04-21T13:24:33Z</time>
      </trkpt>
      <trkpt lat="49.18377" lon="-0.43916">
        <ele>56.6</ele>
        <time>2023-04-21T13:24:34Z</time>
      </trkpt>
      <trkpt lat="49.1838" lon="-0.43907">
        <ele>56.4</ele>
        <time>2023-04-21T13:24:35Z</time>
      </trkpt>
      <trkpt lat="49.18382" lon="-0.43899">
        <ele>56.2</ele>
        <time>2023-04-21T13:24:36Z</time>
      </trkpt>
      <trkpt lat="49.18384" lon="-0.43891">
        <ele>56.2</ele>
        <time>2023-04-21T13:24:37Z</time>
      </trkpt>
      <trkpt lat="49.18387" lon="-0.43882">
        <ele>56.2</ele>
        <time>2023-04-21T13:24:38Z</time>
      </trkpt>
      <trkpt lat="49.1839" lon="-0.43874">
        <ele>56.2</ele>
        <time>2023-04-21T13:24:39Z</time>
      </trkpt>
      <trkpt lat="49.18392" lon="-0.43865">
        <ele>56</ele>
        <time>2023-04-21T13:24:40Z</time>
      </trkpt>
      <trkpt lat="49.18395" lon="-0.43857">
        <ele>56</ele>
        <time>2023-04-21T13:24:41Z</time>
      </trkpt>
      <trkpt lat="49.18398" lon="-0.43848">
        <ele>56</ele>
        <time>2023-04-21T13:24:42Z</time>
      </trkpt>
      <trkpt lat="49.18401" lon="-0.4384">
        <ele>56</ele>
        <time>2023-04-21T13:24:43Z</time>
      </trkpt>
      <trkpt lat="49.18404" lon="-0.43831">
        <ele>56</ele>
        <time>2023-04-21T13:24:44Z</time>
      </trkpt>
      <trkpt lat="49.18407" lon="-0.43823">
        <ele>56</ele>
        <time>2023-04-21T13:24:45Z</time>
      </trkpt>
      <trkpt lat="49.1841" lon="-0.43814">
        <ele>55.8</ele>
        <time>2023-04-21T13:24:46Z</time>
      </trkpt>
      <trkpt lat="49.18414" lon="-0.43806">
        <ele>55.8</ele>
        <time>2023-04-21T13:24:47Z</time>
      </trkpt>
      <trkpt lat="49.18417" lon="-0.43798">
        <ele>55.6</ele>
        <time>2023-04-21T13:24:48Z</time>
      </trkpt>
      <trkpt lat="49.18421" lon="-0.43789">
        <ele>55.4</ele>
        <time>2023-04-21T13:24:49Z</time>
      </trkpt>
      <trkpt lat="49.18424" lon="-0.43781">
        <ele>55.2</ele>
        <time>2023-04-21T13:24:50Z</time>
      </trkpt>
      <trkpt lat="49.18427" lon="-0.43773">
        <ele>55</ele>
        <time>2023-04-21T13:24:51Z</time>
      </trkpt>
      <trkpt lat="49.18431" lon="-0.43765">
        <ele>54.8</ele>
        <time>2023-04-21T13:24:52Z</time>
      </trkpt>
      <trkpt lat="49.18434" lon="-0.43757">
        <ele>54.6</ele>
        <time>2023-04-21T13:24:53Z</time>
      </trkpt>
      <trkpt lat="49.18437" lon="-0.43748">
        <ele>54.6</ele>
        <time>2023-04-21T13:24:54Z</time>
      </trkpt>
      <trkpt lat="49.18441" lon="-0.4374">
        <ele>54.6</ele>
        <time>2023-04-21T13:24:55Z</time>
      </trkpt>
      <trkpt lat="49.18444" lon="-0.43732">
        <ele>54.6</ele>
        <time>2023-04-21T13:24:56Z</time>
      </trkpt>
      <trkpt lat="49.18447" lon="-0.43724">
        <ele>54.6</ele>
        <time>2023-04-21T13:24:57Z</time>
      </trkpt>
      <trkpt lat="49.18451" lon="-0.43716">
        <ele>54.4</ele>
        <time>2023-04-21T13:24:58Z</time>
      </trkpt>
      <trkpt lat="49.18454" lon="-0.43708">
        <ele>54.4</ele>
        <time>2023-04-21T13:24:59Z</time>
      </trkpt>
      <trkpt lat="49.18457" lon="-0.43699">
        <ele>54.2</ele>
        <time>2023-04-21T13:25:00Z</time>
      </trkpt>
      <trkpt lat="49.18461" lon="-0.43691">
        <ele>54.2</ele>
        <time>2023-04-21T13:25:01Z</time>
      </trkpt>
      <trkpt lat="49.18464" lon="-0.43682">
        <ele>54.2</ele>
        <time>2023-04-21T13:25:02Z</time>
      </trkpt>
      <trkpt lat="49.18467" lon="-0.43674">
        <ele>54</ele>
        <time>2023-04-21T13:25:03Z</time>
      </trkpt>
      <trkpt lat="49.1847" lon="-0.43665">
        <ele>54</ele>
        <time>2023-04-21T13:25:04Z</time>
      </trkpt>
      <trkpt lat="49.18473" lon="-0.43657">
        <ele>54</ele>
        <time>2023-04-21T13:25:05Z</time>
      </trkpt>
      <trkpt lat="49.18476" lon="-0.43649">
        <ele>54</ele>
        <time>2023-04-21T13:25:06Z</time>
      </trkpt>
      <trkpt lat="49.18479" lon="-0.4364">
        <ele>54</ele>
        <time>2023-04-21T13:25:07Z</time>
      </trkpt>
      <trkpt lat="49.18482" lon="-0.43632">
        <ele>54.2</ele>
        <time>2023-04-21T13:25:08Z</time>
      </trkpt>
      <trkpt lat="49.18485" lon="-0.43623">
        <ele>54.2</ele>
        <time>2023-04-21T13:25:09Z</time>
      </trkpt>
      <trkpt lat="49.18488" lon="-0.43615">
        <ele>54.4</ele>
        <time>2023-04-21T13:25:10Z</time>
      </trkpt>
      <trkpt lat="49.1849" lon="-0.43606">
        <ele>54.6</ele>
        <time>2023-04-21T13:25:11Z</time>
      </trkpt>
      <trkpt lat="49.18493" lon="-0.43598">
        <ele>54.8</ele>
        <time>2023-04-21T13:25:12Z</time>
      </trkpt>
      <trkpt lat="49.18496" lon="-0.43589">
        <ele>55</ele>
        <time>2023-04-21T13:25:13Z</time>
      </trkpt>
      <trkpt lat="49.18499" lon="-0.4358">
        <ele>55</ele>
        <time>2023-04-21T13:25:14Z</time>
      </trkpt>
      <trkpt lat="49.18502" lon="-0.43571">
        <ele>54.8</ele>
        <time>2023-04-21T13:25:15Z</time>
      </trkpt>
      <trkpt lat="49.18504" lon="-0.43562">
        <ele>54.6</ele>
        <time>2023-04-21T13:25:16Z</time>
      </trkpt>
      <trkpt lat="49.18507" lon="-0.43553">
        <ele>54.4</ele>
        <time>2023-04-21T13:25:17Z</time>
      </trkpt>
      <trkpt lat="49.1851" lon="-0.43544">
        <ele>54.2</ele>
        <time>2023-04-21T13:25:18Z</time>
      </trkpt>
      <trkpt lat="49.18513" lon="-0.43535">
        <ele>54</ele>
        <time>2023-04-21T13:25:19Z</time>
      </trkpt>
      <trkpt lat="49.18516" lon="-0.43526">
        <ele>53.8</ele>
        <time>2023-04-21T13:25:20Z</time>
      </trkpt>
      <trkpt lat="49.18519" lon="-0.43517">
        <ele>53.8</ele>
        <time>2023-04-21T13:25:21Z</time>
      </trkpt>
      <trkpt lat="49.18521" lon="-0.43508">
        <ele>53.6</ele>
        <time>2023-04-21T13:25:22Z</time>
      </trkpt>
      <trkpt lat="49.18524" lon="-0.43499">
        <ele>53.4</ele>
        <time>2023-04-21T13:25:23Z</time>
      </trkpt>
      <trkpt lat="49.18526" lon="-0.4349">
        <ele>53.4</ele>
        <time>2023-04-21T13:25:24Z</time>
      </trkpt>
      <trkpt lat="49.18529" lon="-0.43481">
        <ele>53.2</ele>
        <time>2023-04-21T13:25:25Z</time>
      </trkpt>
      <trkpt lat="49.18531" lon="-0.43471">
        <ele>53.2</ele>
        <time>2023-04-21T13:25:26Z</time>
      </trkpt>
      <trkpt lat="49.18533" lon="-0.43462">
        <ele>53.2</ele>
        <time>2023-04-21T13:25:27Z</time>
      </trkpt>
      <trkpt lat="49.18535" lon="-0.43453">
        <ele>53.2</ele>
        <time>2023-04-21T13:25:28Z</time>
      </trkpt>
      <trkpt lat="49.18538" lon="-0.43444">
        <ele>53</ele>
        <time>2023-04-21T13:25:29Z</time>
      </trkpt>
      <trkpt lat="49.1854" lon="-0.43434">
        <ele>53</ele>
        <time>2023-04-21T13:25:30Z</time>
      </trkpt>
      <trkpt lat="49.18542" lon="-0.43425">
        <ele>53</ele>
        <time>2023-04-21T13:25:31Z</time>
      </trkpt>
      <trkpt lat="49.18544" lon="-0.43415">
        <ele>53</ele>
        <time>2023-04-21T13:25:32Z</time>
      </trkpt>
      <trkpt lat="49.18546" lon="-0.43405">
        <ele>52.8</ele>
        <time>2023-04-21T13:25:33Z</time>
      </trkpt>
      <trkpt lat="49.18548" lon="-0.43396">
        <ele>52.8</ele>
        <time>2023-04-21T13:25:34Z</time>
      </trkpt>
      <trkpt lat="49.1855" lon="-0.43386">
        <ele>52.8</ele>
        <time>2023-04-21T13:25:35Z</time>
      </trkpt>
      <trkpt lat="49.18552" lon="-0.43376">
        <ele>52.6</ele>
        <time>2023-04-21T13:25:36Z</time>
      </trkpt>
      <trkpt lat="49.18554" lon="-0.43366">
        <ele>52.6</ele>
        <time>2023-04-21T13:25:37Z</time>
      </trkpt>
      <trkpt lat="49.18556" lon="-0.43356">
        <ele>52.4</ele>
        <time>2023-04-21T13:25:38Z</time>
      </trkpt>
      <trkpt lat="49.18558" lon="-0.43346">
        <ele>52.2</ele>
        <time>2023-04-21T13:25:39Z</time>
      </trkpt>
      <trkpt lat="49.1856" lon="-0.43336">
        <ele>52.2</ele>
        <time>2023-04-21T13:25:40Z</time>
      </trkpt>
      <trkpt lat="49.18562" lon="-0.43326">
        <ele>52.2</ele>
        <time>2023-04-21T13:25:41Z</time>
      </trkpt>
      <trkpt lat="49.18565" lon="-0.43316">
        <ele>52</ele>
        <time>2023-04-21T13:25:42Z</time>
      </trkpt>
      <trkpt lat="49.18567" lon="-0.43306">
        <ele>52</ele>
        <time>2023-04-21T13:25:43Z</time>
      </trkpt>
      <trkpt lat="49.18569" lon="-0.43296">
        <ele>51.8</ele>
        <time>2023-04-21T13:25:44Z</time>
      </trkpt>
      <trkpt lat="49.18571" lon="-0.43286">
        <ele>51.8</ele>
        <time>2023-04-21T13:25:45Z</time>
      </trkpt>
      <trkpt lat="49.18573" lon="-0.43276">
        <ele>51.6</ele>
        <time>2023-04-21T13:25:46Z</time>
      </trkpt>
      <trkpt lat="49.18575" lon="-0.43266">
        <ele>51.4</ele>
        <time>2023-04-21T13:25:47Z</time>
      </trkpt>
      <trkpt lat="49.18577" lon="-0.43256">
        <ele>51.2</ele>
        <time>2023-04-21T13:25:48Z</time>
      </trkpt>
      <trkpt lat="49.1858" lon="-0.43246">
        <ele>51</ele>
        <time>2023-04-21T13:25:49Z</time>
      </trkpt>
      <trkpt lat="49.18582" lon="-0.43236">
        <ele>50.8</ele>
        <time>2023-04-21T13:25:50Z</time>
      </trkpt>
      <trkpt lat="49.18584" lon="-0.43226">
        <ele>50.4</ele>
        <time>2023-04-21T13:25:51Z</time>
      </trkpt>
      <trkpt lat="49.18586" lon="-0.43216">
        <ele>50</ele>
        <time>2023-04-21T13:25:52Z</time>
      </trkpt>
      <trkpt lat="49.18588" lon="-0.43205">
        <ele>49.8</ele>
        <time>2023-04-21T13:25:53Z</time>
      </trkpt>
      <trkpt lat="49.1859" lon="-0.43195">
        <ele>49.6</ele>
        <time>2023-04-21T13:25:54Z</time>
      </trkpt>
      <trkpt lat="49.18593" lon="-0.43185">
        <ele>49.2</ele>
        <time>2023-04-21T13:25:55Z</time>
      </trkpt>
      <trkpt lat="49.18595" lon="-0.43174">
        <ele>49</ele>
        <time>2023-04-21T13:25:56Z</time>
      </trkpt>
      <trkpt lat="49.18597" lon="-0.43164">
        <ele>48.8</ele>
        <time>2023-04-21T13:25:57Z</time>
      </trkpt>
      <trkpt lat="49.18599" lon="-0.43154">
        <ele>48.8</ele>
        <time>2023-04-21T13:25:58Z</time>
      </trkpt>
      <trkpt lat="49.18602" lon="-0.43143">
        <ele>48.8</ele>
        <time>2023-04-21T13:25:59Z</time>
      </trkpt>
      <trkpt lat="49.18604" lon="-0.43133">
        <ele>48.8</ele>
        <time>2023-04-21T13:26:00Z</time>
      </trkpt>
      <trkpt lat="49.18606" lon="-0.43122">
        <ele>48.6</ele>
        <time>2023-04-21T13:26:01Z</time>
      </trkpt>
      <trkpt lat="49.18608" lon="-0.43112">
        <ele>48.6</ele>
        <time>2023-04-21T13:26:02Z</time>
      </trkpt>
      <trkpt lat="49.18611" lon="-0.43101">
        <ele>48.4</ele>
        <time>2023-04-21T13:26:03Z</time>
      </trkpt>
      <trkpt lat="49.18613" lon="-0.43091">
        <ele>48.2</ele>
        <time>2023-04-21T13:26:04Z</time>
      </trkpt>
      <trkpt lat="49.18615" lon="-0.4308">
        <ele>48.2</ele>
        <time>2023-04-21T13:26:05Z</time>
      </trkpt>
      <trkpt lat="49.18618" lon="-0.43069">
        <ele>48</ele>
        <time>2023-04-21T13:26:06Z</time>
      </trkpt>
      <trkpt lat="49.1862" lon="-0.43059">
        <ele>47.8</ele>
        <time>2023-04-21T13:26:07Z</time>
      </trkpt>
      <trkpt lat="49.18622" lon="-0.43048">
        <ele>47.6</ele>
        <time>2023-04-21T13:26:08Z</time>
      </trkpt>
      <trkpt lat="49.18625" lon="-0.43038">
        <ele>47.6</ele>
        <time>2023-04-21T13:26:09Z</time>
      </trkpt>
      <trkpt lat="49.18627" lon="-0.43028">
        <ele>47.2</ele>
        <time>2023-04-21T13:26:10Z</time>
      </trkpt>
      <trkpt lat="49.18629" lon="-0.43018">
        <ele>47</ele>
        <time>2023-04-21T13:26:11Z</time>
      </trkpt>
      <trkpt lat="49.18631" lon="-0.43008">
        <ele>47</ele>
        <time>2023-04-21T13:26:12Z</time>
      </trkpt>
      <trkpt lat="49.18633" lon="-0.42998">
        <ele>46.8</ele>
        <time>2023-04-21T13:26:13Z</time>
      </trkpt>
      <trkpt lat="49.18635" lon="-0.42989">
        <ele>46.8</ele>
        <time>2023-04-21T13:26:14Z</time>
      </trkpt>
      <trkpt lat="49.18637" lon="-0.4298">
        <ele>46.8</ele>
        <time>2023-04-21T13:26:15Z</time>
      </trkpt>
      <trkpt lat="49.1864" lon="-0.4297">
        <ele>46.8</ele>
        <time>2023-04-21T13:26:16Z</time>
      </trkpt>
      <trkpt lat="49.18641" lon="-0.42961">
        <ele>46.6</ele>
        <time>2023-04-21T13:26:17Z</time>
      </trkpt>
      <trkpt lat="49.18643" lon="-0.42953">
        <ele>46.6</ele>
        <time>2023-04-21T13:26:18Z</time>
      </trkpt>
      <trkpt lat="49.18645" lon="-0.42944">
        <ele>46.6</ele>
        <time>2023-04-21T13:26:19Z</time>
      </trkpt>
      <trkpt lat="49.18647" lon="-0.42935">
        <ele>46.6</ele>
        <time>2023-04-21T13:26:20Z</time>
      </trkpt>
      <trkpt lat="49.18649" lon="-0.42926">
        <ele>46.4</ele>
        <time>2023-04-21T13:26:21Z</time>
      </trkpt>
      <trkpt lat="49.18651" lon="-0.42918">
        <ele>46.4</ele>
        <time>2023-04-21T13:26:22Z</time>
      </trkpt>
      <trkpt lat="49.18652" lon="-0.42909">
        <ele>46.4</ele>
        <time>2023-04-21T13:26:23Z</time>
      </trkpt>
      <trkpt lat="49.18654" lon="-0.429">
        <ele>46.4</ele>
        <time>2023-04-21T13:26:24Z</time>
      </trkpt>
      <trkpt lat="49.18656" lon="-0.42892">
        <ele>46.6</ele>
        <time>2023-04-21T13:26:25Z</time>
      </trkpt>
      <trkpt lat="49.18658" lon="-0.42883">
        <ele>46.6</ele>
        <time>2023-04-21T13:26:26Z</time>
      </trkpt>
      <trkpt lat="49.1866" lon="-0.42874">
        <ele>46.6</ele>
        <time>2023-04-21T13:26:27Z</time>
      </trkpt>
      <trkpt lat="49.18661" lon="-0.42865">
        <ele>46.8</ele>
        <time>2023-04-21T13:26:28Z</time>
      </trkpt>
      <trkpt lat="49.18663" lon="-0.42856">
        <ele>46.8</ele>
        <time>2023-04-21T13:26:29Z</time>
      </trkpt>
      <trkpt lat="49.18665" lon="-0.42846">
        <ele>46.8</ele>
        <time>2023-04-21T13:26:30Z</time>
      </trkpt>
      <trkpt lat="49.18667" lon="-0.42837">
        <ele>47</ele>
        <time>2023-04-21T13:26:31Z</time>
      </trkpt>
      <trkpt lat="49.18669" lon="-0.42827">
        <ele>47</ele>
        <time>2023-04-21T13:26:32Z</time>
      </trkpt>
      <trkpt lat="49.18671" lon="-0.42818">
        <ele>46.8</ele>
        <time>2023-04-21T13:26:33Z</time>
      </trkpt>
      <trkpt lat="49.18673" lon="-0.42808">
        <ele>46.8</ele>
        <time>2023-04-21T13:26:34Z</time>
      </trkpt>
      <trkpt lat="49.18675" lon="-0.42798">
        <ele>46.6</ele>
        <time>2023-04-21T13:26:35Z</time>
      </trkpt>
      <trkpt lat="49.18677" lon="-0.42788">
        <ele>46.6</ele>
        <time>2023-04-21T13:26:36Z</time>
      </trkpt>
      <trkpt lat="49.1868" lon="-0.42778">
        <ele>46.6</ele>
        <time>2023-04-21T13:26:37Z</time>
      </trkpt>
      <trkpt lat="49.18682" lon="-0.42768">
        <ele>46.6</ele>
        <time>2023-04-21T13:26:38Z</time>
      </trkpt>
      <trkpt lat="49.18684" lon="-0.42758">
        <ele>46.6</ele>
        <time>2023-04-21T13:26:39Z</time>
      </trkpt>
      <trkpt lat="49.18686" lon="-0.42748">
        <ele>46.6</ele>
        <time>2023-04-21T13:26:40Z</time>
      </trkpt>
      <trkpt lat="49.18688" lon="-0.42738">
        <ele>47</ele>
        <time>2023-04-21T13:26:41Z</time>
      </trkpt>
      <trkpt lat="49.18689" lon="-0.42728">
        <ele>47.2</ele>
        <time>2023-04-21T13:26:42Z</time>
      </trkpt>
      <trkpt lat="49.18691" lon="-0.42719">
        <ele>47.6</ele>
        <time>2023-04-21T13:26:43Z</time>
      </trkpt>
      <trkpt lat="49.18693" lon="-0.42709">
        <ele>47.8</ele>
        <time>2023-04-21T13:26:44Z</time>
      </trkpt>
      <trkpt lat="49.18695" lon="-0.427">
        <ele>48</ele>
        <time>2023-04-21T13:26:45Z</time>
      </trkpt>
      <trkpt lat="49.18696" lon="-0.42691">
        <ele>48.4</ele>
        <time>2023-04-21T13:26:46Z</time>
      </trkpt>
      <trkpt lat="49.18697" lon="-0.42682">
        <ele>48.8</ele>
        <time>2023-04-21T13:26:47Z</time>
      </trkpt>
      <trkpt lat="49.18699" lon="-0.42673">
        <ele>49</ele>
        <time>2023-04-21T13:26:48Z</time>
      </trkpt>
      <trkpt lat="49.187" lon="-0.42664">
        <ele>49.2</ele>
        <time>2023-04-21T13:26:49Z</time>
      </trkpt>
      <trkpt lat="49.18701" lon="-0.42655">
        <ele>49.8</ele>
        <time>2023-04-21T13:26:50Z</time>
      </trkpt>
      <trkpt lat="49.18702" lon="-0.42647">
        <ele>50.2</ele>
        <time>2023-04-21T13:26:51Z</time>
      </trkpt>
      <trkpt lat="49.18702" lon="-0.42638">
        <ele>50.6</ele>
        <time>2023-04-21T13:26:52Z</time>
      </trkpt>
      <trkpt lat="49.18703" lon="-0.4263">
        <ele>51</ele>
        <time>2023-04-21T13:26:53Z</time>
      </trkpt>
      <trkpt lat="49.18704" lon="-0.42621">
        <ele>51.4</ele>
        <time>2023-04-21T13:26:54Z</time>
      </trkpt>
      <trkpt lat="49.18704" lon="-0.42613">
        <ele>51.8</ele>
        <time>2023-04-21T13:26:55Z</time>
      </trkpt>
      <trkpt lat="49.18705" lon="-0.42605">
        <ele>52</ele>
        <time>2023-04-21T13:26:56Z</time>
      </trkpt>
      <trkpt lat="49.18705" lon="-0.42597">
        <ele>52.4</ele>
        <time>2023-04-21T13:26:57Z</time>
      </trkpt>
      <trkpt lat="49.18706" lon="-0.42589">
        <ele>52.8</ele>
        <time>2023-04-21T13:26:58Z</time>
      </trkpt>
      <trkpt lat="49.18706" lon="-0.42581">
        <ele>53</ele>
        <time>2023-04-21T13:26:59Z</time>
      </trkpt>
      <trkpt lat="49.18707" lon="-0.42573">
        <ele>53</ele>
        <time>2023-04-21T13:27:00Z</time>
      </trkpt>
      <trkpt lat="49.18707" lon="-0.42565">
        <ele>53.2</ele>
        <time>2023-04-21T13:27:01Z</time>
      </trkpt>
      <trkpt lat="49.18708" lon="-0.42557">
        <ele>53.2</ele>
        <time>2023-04-21T13:27:02Z</time>
      </trkpt>
      <trkpt lat="49.18708" lon="-0.42549">
        <ele>53.4</ele>
        <time>2023-04-21T13:27:03Z</time>
      </trkpt>
      <trkpt lat="49.18708" lon="-0.42541">
        <ele>53.6</ele>
        <time>2023-04-21T13:27:04Z</time>
      </trkpt>
      <trkpt lat="49.18709" lon="-0.42532">
        <ele>53.6</ele>
        <time>2023-04-21T13:27:05Z</time>
      </trkpt>
      <trkpt lat="49.18709" lon="-0.42524">
        <ele>53.8</ele>
        <time>2023-04-21T13:27:06Z</time>
      </trkpt>
      <trkpt lat="49.1871" lon="-0.42515">
        <ele>53.8</ele>
        <time>2023-04-21T13:27:07Z</time>
      </trkpt>
      <trkpt lat="49.1871" lon="-0.42506">
        <ele>54</ele>
        <time>2023-04-21T13:27:08Z</time>
      </trkpt>
      <trkpt lat="49.1871" lon="-0.42497">
        <ele>54</ele>
        <time>2023-04-21T13:27:09Z</time>
      </trkpt>
      <trkpt lat="49.18711" lon="-0.42488">
        <ele>54</ele>
        <time>2023-04-21T13:27:10Z</time>
      </trkpt>
      <trkpt lat="49.18711" lon="-0.42479">
        <ele>53.8</ele>
        <time>2023-04-21T13:27:11Z</time>
      </trkpt>
      <trkpt lat="49.18711" lon="-0.4247">
        <ele>53.8</ele>
        <time>2023-04-21T13:27:12Z</time>
      </trkpt>
      <trkpt lat="49.18711" lon="-0.42461">
        <ele>53.6</ele>
        <time>2023-04-21T13:27:13Z</time>
      </trkpt>
      <trkpt lat="49.18712" lon="-0.42452">
        <ele>53.6</ele>
        <time>2023-04-21T13:27:14Z</time>
      </trkpt>
      <trkpt lat="49.18712" lon="-0.42443">
        <ele>53.4</ele>
        <time>2023-04-21T13:27:15Z</time>
      </trkpt>
      <trkpt lat="49.18713" lon="-0.42434">
        <ele>53.2</ele>
        <time>2023-04-21T13:27:16Z</time>
      </trkpt>
      <trkpt lat="49.18714" lon="-0.42425">
        <ele>53.2</ele>
        <time>2023-04-21T13:27:17Z</time>
      </trkpt>
      <trkpt lat="49.18715" lon="-0.42416">
        <ele>53.2</ele>
        <time>2023-04-21T13:27:18Z</time>
      </trkpt>
      <trkpt lat="49.18716" lon="-0.42406">
        <ele>53.2</ele>
        <time>2023-04-21T13:27:19Z</time>
      </trkpt>
      <trkpt lat="49.18716" lon="-0.42397">
        <ele>53.2</ele>
        <time>2023-04-21T13:27:20Z</time>
      </trkpt>
      <trkpt lat="49.18715" lon="-0.42388">
        <ele>53.2</ele>
        <time>2023-04-21T13:27:21Z</time>
      </trkpt>
      <trkpt lat="49.18716" lon="-0.42378">
        <ele>53.4</ele>
        <time>2023-04-21T13:27:22Z</time>
      </trkpt>
      <trkpt lat="49.18716" lon="-0.4237">
        <ele>53.4</ele>
        <time>2023-04-21T13:27:23Z</time>
      </trkpt>
      <trkpt lat="49.18716" lon="-0.42361">
        <ele>53.6</ele>
        <time>2023-04-21T13:27:24Z</time>
      </trkpt>
      <trkpt lat="49.18716" lon="-0.42353">
        <ele>53.6</ele>
        <time>2023-04-21T13:27:25Z</time>
      </trkpt>
      <trkpt lat="49.18716" lon="-0.42345">
        <ele>53.6</ele>
        <time>2023-04-21T13:27:26Z</time>
      </trkpt>
      <trkpt lat="49.18716" lon="-0.42337">
        <ele>53.6</ele>
        <time>2023-04-21T13:27:27Z</time>
      </trkpt>
      <trkpt lat="49.18716" lon="-0.42329">
        <ele>53.6</ele>
        <time>2023-04-21T13:27:28Z</time>
      </trkpt>
      <trkpt lat="49.18716" lon="-0.42322">
        <ele>53.6</ele>
        <time>2023-04-21T13:27:29Z</time>
      </trkpt>
      <trkpt lat="49.18716" lon="-0.42314">
        <ele>53.6</ele>
        <time>2023-04-21T13:27:30Z</time>
      </trkpt>
      <trkpt lat="49.18716" lon="-0.42307">
        <ele>53.6</ele>
        <time>2023-04-21T13:27:31Z</time>
      </trkpt>
      <trkpt lat="49.18716" lon="-0.423">
        <ele>53.6</ele>
        <time>2023-04-21T13:27:32Z</time>
      </trkpt>
      <trkpt lat="49.18716" lon="-0.42293">
        <ele>53.6</ele>
        <time>2023-04-21T13:27:33Z</time>
      </trkpt>
      <trkpt lat="49.18716" lon="-0.42287">
        <ele>53.6</ele>
        <time>2023-04-21T13:27:34Z</time>
      </trkpt>
      <trkpt lat="49.18716" lon="-0.4228">
        <ele>53.6</ele>
        <time>2023-04-21T13:27:35Z</time>
      </trkpt>
      <trkpt lat="49.18716" lon="-0.42273">
        <ele>53.6</ele>
        <time>2023-04-21T13:27:36Z</time>
      </trkpt>
      <trkpt lat="49.18715" lon="-0.42266">
        <ele>53.6</ele>
        <time>2023-04-21T13:27:37Z</time>
      </trkpt>
      <trkpt lat="49.18715" lon="-0.42259">
        <ele>53.6</ele>
        <time>2023-04-21T13:27:38Z</time>
      </trkpt>
      <trkpt lat="49.18715" lon="-0.42253">
        <ele>53.6</ele>
        <time>2023-04-21T13:27:39Z</time>
      </trkpt>
      <trkpt lat="49.18715" lon="-0.42246">
        <ele>53.6</ele>
        <time>2023-04-21T13:27:40Z</time>
      </trkpt>
      <trkpt lat="49.18716" lon="-0.42238">
        <ele>53.6</ele>
        <time>2023-04-21T13:27:41Z</time>
      </trkpt>
      <trkpt lat="49.18716" lon="-0.42231">
        <ele>53.6</ele>
        <time>2023-04-21T13:27:42Z</time>
      </trkpt>
      <trkpt lat="49.18716" lon="-0.42223">
        <ele>53.6</ele>
        <time>2023-04-21T13:27:43Z</time>
      </trkpt>
      <trkpt lat="49.18716" lon="-0.42215">
        <ele>53.6</ele>
        <time>2023-04-21T13:27:44Z</time>
      </trkpt>
      <trkpt lat="49.18716" lon="-0.42206">
        <ele>53.6</ele>
        <time>2023-04-21T13:27:45Z</time>
      </trkpt>
      <trkpt lat="49.18716" lon="-0.42198">
        <ele>53.6</ele>
        <time>2023-04-21T13:27:46Z</time>
      </trkpt>
      <trkpt lat="49.18716" lon="-0.4219">
        <ele>53.6</ele>
        <time>2023-04-21T13:27:47Z</time>
      </trkpt>
      <trkpt lat="49.18716" lon="-0.42182">
        <ele>53.6</ele>
        <time>2023-04-21T13:27:48Z</time>
      </trkpt>
      <trkpt lat="49.18716" lon="-0.42174">
        <ele>53.6</ele>
        <time>2023-04-21T13:27:49Z</time>
      </trkpt>
      <trkpt lat="49.18716" lon="-0.42166">
        <ele>53.6</ele>
        <time>2023-04-21T13:27:50Z</time>
      </trkpt>
      <trkpt lat="49.18716" lon="-0.42159">
        <ele>53.6</ele>
        <time>2023-04-21T13:27:51Z</time>
      </trkpt>
      <trkpt lat="49.18716" lon="-0.42151">
        <ele>53.6</ele>
        <time>2023-04-21T13:27:52Z</time>
      </trkpt>
      <trkpt lat="49.18716" lon="-0.42143">
        <ele>53.6</ele>
        <time>2023-04-21T13:27:53Z</time>
      </trkpt>
      <trkpt lat="49.18716" lon="-0.42135">
        <ele>53.6</ele>
        <time>2023-04-21T13:27:54Z</time>
      </trkpt>
      <trkpt lat="49.18716" lon="-0.42127">
        <ele>53.6</ele>
        <time>2023-04-21T13:27:55Z</time>
      </trkpt>
      <trkpt lat="49.18716" lon="-0.42119">
        <ele>53.6</ele>
        <time>2023-04-21T13:27:56Z</time>
      </trkpt>
      <trkpt lat="49.18716" lon="-0.42111">
        <ele>53.6</ele>
        <time>2023-04-21T13:27:57Z</time>
      </trkpt>
      <trkpt lat="49.18716" lon="-0.42103">
        <ele>53.4</ele>
        <time>2023-04-21T13:27:58Z</time>
      </trkpt>
      <trkpt lat="49.18717" lon="-0.42095">
        <ele>53.4</ele>
        <time>2023-04-21T13:27:59Z</time>
      </trkpt>
      <trkpt lat="49.18717" lon="-0.42087">
        <ele>53.4</ele>
        <time>2023-04-21T13:28:00Z</time>
      </trkpt>
      <trkpt lat="49.18717" lon="-0.42079">
        <ele>53.4</ele>
        <time>2023-04-21T13:28:01Z</time>
      </trkpt>
      <trkpt lat="49.18717" lon="-0.42071">
        <ele>53.6</ele>
        <time>2023-04-21T13:28:02Z</time>
      </trkpt>
      <trkpt lat="49.18717" lon="-0.42063">
        <ele>53.6</ele>
        <time>2023-04-21T13:28:03Z</time>
      </trkpt>
      <trkpt lat="49.18717" lon="-0.42055">
        <ele>53.6</ele>
        <time>2023-04-21T13:28:04Z</time>
      </trkpt>
      <trkpt lat="49.18718" lon="-0.42047">
        <ele>53.8</ele>
        <time>2023-04-21T13:28:05Z</time>
      </trkpt>
      <trkpt lat="49.18718" lon="-0.42039">
        <ele>53.8</ele>
        <time>2023-04-21T13:28:06Z</time>
      </trkpt>
      <trkpt lat="49.18718" lon="-0.42031">
        <ele>54</ele>
        <time>2023-04-21T13:28:07Z</time>
      </trkpt>
      <trkpt lat="49.18718" lon="-0.42023">
        <ele>54</ele>
        <time>2023-04-21T13:28:08Z</time>
      </trkpt>
      <trkpt lat="49.18719" lon="-0.42014">
        <ele>54</ele>
        <time>2023-04-21T13:28:09Z</time>
      </trkpt>
      <trkpt lat="49.18719" lon="-0.42006">
        <ele>54</ele>
        <time>2023-04-21T13:28:10Z</time>
      </trkpt>
      <trkpt lat="49.18719" lon="-0.41998">
        <ele>54</ele>
        <time>2023-04-21T13:28:11Z</time>
      </trkpt>
      <trkpt lat="49.18719" lon="-0.4199">
        <ele>54</ele>
        <time>2023-04-21T13:28:12Z</time>
      </trkpt>
      <trkpt lat="49.18719" lon="-0.41982">
        <ele>54</ele>
        <time>2023-04-21T13:28:13Z</time>
      </trkpt>
      <trkpt lat="49.1872" lon="-0.41974">
        <ele>54</ele>
        <time>2023-04-21T13:28:14Z</time>
      </trkpt>
      <trkpt lat="49.1872" lon="-0.41966">
        <ele>54</ele>
        <time>2023-04-21T13:28:15Z</time>
      </trkpt>
      <trkpt lat="49.1872" lon="-0.41958">
        <ele>54</ele>
        <time>2023-04-21T13:28:16Z</time>
      </trkpt>
      <trkpt lat="49.1872" lon="-0.4195">
        <ele>54</ele>
        <time>2023-04-21T13:28:17Z</time>
      </trkpt>
      <trkpt lat="49.1872" lon="-0.41942">
        <ele>54</ele>
        <time>2023-04-21T13:28:18Z</time>
      </trkpt>
      <trkpt lat="49.1872" lon="-0.41935">
        <ele>54</ele>
        <time>2023-04-21T13:28:19Z</time>
      </trkpt>
      <trkpt lat="49.1872" lon="-0.41927">
        <ele>54</ele>
        <time>2023-04-21T13:28:20Z</time>
      </trkpt>
      <trkpt lat="49.1872" lon="-0.41919">
        <ele>54</ele>
        <time>2023-04-21T13:28:21Z</time>
      </trkpt>
      <trkpt lat="49.1872" lon="-0.41911">
        <ele>54</ele>
        <time>2023-04-21T13:28:22Z</time>
      </trkpt>
      <trkpt lat="49.18721" lon="-0.41903">
        <ele>54.2</ele>
        <time>2023-04-21T13:28:23Z</time>
      </trkpt>
      <trkpt lat="49.18721" lon="-0.41895">
        <ele>54.2</ele>
        <time>2023-04-21T13:28:24Z</time>
      </trkpt>
      <trkpt lat="49.18721" lon="-0.41887">
        <ele>54.6</ele>
        <time>2023-04-21T13:28:25Z</time>
      </trkpt>
      <trkpt lat="49.18721" lon="-0.41879">
        <ele>54.8</ele>
        <time>2023-04-21T13:28:26Z</time>
      </trkpt>
      <trkpt lat="49.18721" lon="-0.41871">
        <ele>54.8</ele>
        <time>2023-04-21T13:28:27Z</time>
      </trkpt>
      <trkpt lat="49.18721" lon="-0.41863">
        <ele>55</ele>
        <time>2023-04-21T13:28:28Z</time>
      </trkpt>
      <trkpt lat="49.18722" lon="-0.41855">
        <ele>55.2</ele>
        <time>2023-04-21T13:28:29Z</time>
      </trkpt>
      <trkpt lat="49.18722" lon="-0.41847">
        <ele>55.2</ele>
        <time>2023-04-21T13:28:30Z</time>
      </trkpt>
      <trkpt lat="49.18722" lon="-0.41839">
        <ele>55.6</ele>
        <time>2023-04-21T13:28:31Z</time>
      </trkpt>
      <trkpt lat="49.18722" lon="-0.41831">
        <ele>55.6</ele>
        <time>2023-04-21T13:28:32Z</time>
      </trkpt>
      <trkpt lat="49.18722" lon="-0.41823">
        <ele>55.6</ele>
        <time>2023-04-21T13:28:33Z</time>
      </trkpt>
      <trkpt lat="49.18722" lon="-0.41815">
        <ele>55.6</ele>
        <time>2023-04-21T13:28:34Z</time>
      </trkpt>
      <trkpt lat="49.18722" lon="-0.41807">
        <ele>55.6</ele>
        <time>2023-04-21T13:28:35Z</time>
      </trkpt>
      <trkpt lat="49.18722" lon="-0.41799">
        <ele>55.6</ele>
        <time>2023-04-21T13:28:36Z</time>
      </trkpt>
      <trkpt lat="49.18723" lon="-0.41791">
        <ele>55.6</ele>
        <time>2023-04-21T13:28:37Z</time>
      </trkpt>
      <trkpt lat="49.18723" lon="-0.41783">
        <ele>55.6</ele>
        <time>2023-04-21T13:28:38Z</time>
      </trkpt>
      <trkpt lat="49.18723" lon="-0.41775">
        <ele>55.6</ele>
        <time>2023-04-21T13:28:39Z</time>
      </trkpt>
      <trkpt lat="49.18723" lon="-0.41767">
        <ele>55.6</ele>
        <time>2023-04-21T13:28:40Z</time>
      </trkpt>
      <trkpt lat="49.18723" lon="-0.41759">
        <ele>55.6</ele>
        <time>2023-04-21T13:28:41Z</time>
      </trkpt>
      <trkpt lat="49.18723" lon="-0.41751">
        <ele>55.4</ele>
        <time>2023-04-21T13:28:42Z</time>
      </trkpt>
      <trkpt lat="49.18723" lon="-0.41743">
        <ele>55.6</ele>
        <time>2023-04-21T13:28:43Z</time>
      </trkpt>
      <trkpt lat="49.18724" lon="-0.41735">
        <ele>55.6</ele>
        <time>2023-04-21T13:28:44Z</time>
      </trkpt>
      <trkpt lat="49.18724" lon="-0.41728">
        <ele>55.6</ele>
        <time>2023-04-21T13:28:45Z</time>
      </trkpt>
      <trkpt lat="49.18724" lon="-0.4172">
        <ele>55.6</ele>
        <time>2023-04-21T13:28:46Z</time>
      </trkpt>
      <trkpt lat="49.18724" lon="-0.41712">
        <ele>55.6</ele>
        <time>2023-04-21T13:28:47Z</time>
      </trkpt>
      <trkpt lat="49.18724" lon="-0.41704">
        <ele>55.6</ele>
        <time>2023-04-21T13:28:48Z</time>
      </trkpt>
      <trkpt lat="49.18724" lon="-0.41696">
        <ele>55.6</ele>
        <time>2023-04-21T13:28:49Z</time>
      </trkpt>
      <trkpt lat="49.18725" lon="-0.41688">
        <ele>55.6</ele>
        <time>2023-04-21T13:28:50Z</time>
      </trkpt>
      <trkpt lat="49.18725" lon="-0.4168">
        <ele>55.6</ele>
        <time>2023-04-21T13:28:51Z</time>
      </trkpt>
      <trkpt lat="49.18725" lon="-0.41672">
        <ele>55.6</ele>
        <time>2023-04-21T13:28:52Z</time>
      </trkpt>
      <trkpt lat="49.18725" lon="-0.41664">
        <ele>55.6</ele>
        <time>2023-04-21T13:28:53Z</time>
      </trkpt>
      <trkpt lat="49.18725" lon="-0.41656">
        <ele>55.6</ele>
        <time>2023-04-21T13:28:54Z</time>
      </trkpt>
      <trkpt lat="49.18725" lon="-0.41648">
        <ele>55.6</ele>
        <time>2023-04-21T13:28:55Z</time>
      </trkpt>
      <trkpt lat="49.18725" lon="-0.4164">
        <ele>55.6</ele>
        <time>2023-04-21T13:28:56Z</time>
      </trkpt>
      <trkpt lat="49.18725" lon="-0.41632">
        <ele>55.6</ele>
        <time>2023-04-21T13:28:57Z</time>
      </trkpt>
      <trkpt lat="49.18726" lon="-0.41623">
        <ele>55.8</ele>
        <time>2023-04-21T13:28:58Z</time>
      </trkpt>
      <trkpt lat="49.18726" lon="-0.41615">
        <ele>55.8</ele>
        <time>2023-04-21T13:28:59Z</time>
      </trkpt>
      <trkpt lat="49.18726" lon="-0.41607">
        <ele>55.8</ele>
        <time>2023-04-21T13:29:00Z</time>
      </trkpt>
      <trkpt lat="49.18726" lon="-0.41598">
        <ele>55.8</ele>
        <time>2023-04-21T13:29:01Z</time>
      </trkpt>
      <trkpt lat="49.18726" lon="-0.4159">
        <ele>55.8</ele>
        <time>2023-04-21T13:29:02Z</time>
      </trkpt>
      <trkpt lat="49.18726" lon="-0.41581">
        <ele>55.8</ele>
        <time>2023-04-21T13:29:03Z</time>
      </trkpt>
      <trkpt lat="49.18727" lon="-0.41573">
        <ele>55.8</ele>
        <time>2023-04-21T13:29:04Z</time>
      </trkpt>
      <trkpt lat="49.18727" lon="-0.41564">
        <ele>56</ele>
        <time>2023-04-21T13:29:05Z</time>
      </trkpt>
      <trkpt lat="49.18727" lon="-0.41556">
        <ele>56</ele>
        <time>2023-04-21T13:29:06Z</time>
      </trkpt>
      <trkpt lat="49.18727" lon="-0.41548">
        <ele>56</ele>
        <time>2023-04-21T13:29:07Z</time>
      </trkpt>
      <trkpt lat="49.18727" lon="-0.41539">
        <ele>56.2</ele>
        <time>2023-04-21T13:29:08Z</time>
      </trkpt>
      <trkpt lat="49.18727" lon="-0.41531">
        <ele>56.2</ele>
        <time>2023-04-21T13:29:09Z</time>
      </trkpt>
      <trkpt lat="49.18728" lon="-0.41522">
        <ele>56.4</ele>
        <time>2023-04-21T13:29:10Z</time>
      </trkpt>
      <trkpt lat="49.18728" lon="-0.41514">
        <ele>56.6</ele>
        <time>2023-04-21T13:29:11Z</time>
      </trkpt>
      <trkpt lat="49.18728" lon="-0.41505">
        <ele>56.6</ele>
        <time>2023-04-21T13:29:12Z</time>
      </trkpt>
      <trkpt lat="49.18728" lon="-0.41497">
        <ele>56.6</ele>
        <time>2023-04-21T13:29:13Z</time>
      </trkpt>
      <trkpt lat="49.18728" lon="-0.41489">
        <ele>56.6</ele>
        <time>2023-04-21T13:29:14Z</time>
      </trkpt>
      <trkpt lat="49.18728" lon="-0.4148">
        <ele>56.6</ele>
        <time>2023-04-21T13:29:15Z</time>
      </trkpt>
      <trkpt lat="49.18728" lon="-0.41472">
        <ele>56.6</ele>
        <time>2023-04-21T13:29:16Z</time>
      </trkpt>
      <trkpt lat="49.18728" lon="-0.41463">
        <ele>56.8</ele>
        <time>2023-04-21T13:29:17Z</time>
      </trkpt>
      <trkpt lat="49.18728" lon="-0.41455">
        <ele>56.8</ele>
        <time>2023-04-21T13:29:18Z</time>
      </trkpt>
      <trkpt lat="49.18729" lon="-0.41446">
        <ele>56.8</ele>
        <time>2023-04-21T13:29:19Z</time>
      </trkpt>
      <trkpt lat="49.18729" lon="-0.41438">
        <ele>56.8</ele>
        <time>2023-04-21T13:29:20Z</time>
      </trkpt>
      <trkpt lat="49.18729" lon="-0.41429">
        <ele>56.8</ele>
        <time>2023-04-21T13:29:21Z</time>
      </trkpt>
      <trkpt lat="49.18729" lon="-0.41421">
        <ele>56.8</ele>
        <time>2023-04-21T13:29:22Z</time>
      </trkpt>
      <trkpt lat="49.18729" lon="-0.41412">
        <ele>56.6</ele>
        <time>2023-04-21T13:29:23Z</time>
      </trkpt>
      <trkpt lat="49.18729" lon="-0.41404">
        <ele>56.6</ele>
        <time>2023-04-21T13:29:24Z</time>
      </trkpt>
      <trkpt lat="49.18729" lon="-0.41395">
        <ele>56.2</ele>
        <time>2023-04-21T13:29:25Z</time>
      </trkpt>
      <trkpt lat="49.18729" lon="-0.41387">
        <ele>56</ele>
        <time>2023-04-21T13:29:26Z</time>
      </trkpt>
      <trkpt lat="49.18729" lon="-0.41378">
        <ele>56</ele>
        <time>2023-04-21T13:29:27Z</time>
      </trkpt>
      <trkpt lat="49.1873" lon="-0.41369">
        <ele>55.8</ele>
        <time>2023-04-21T13:29:28Z</time>
      </trkpt>
      <trkpt lat="49.1873" lon="-0.41361">
        <ele>55.6</ele>
        <time>2023-04-21T13:29:29Z</time>
      </trkpt>
      <trkpt lat="49.1873" lon="-0.41352">
        <ele>55.6</ele>
        <time>2023-04-21T13:29:30Z</time>
      </trkpt>
      <trkpt lat="49.1873" lon="-0.41343">
        <ele>55.2</ele>
        <time>2023-04-21T13:29:31Z</time>
      </trkpt>
      <trkpt lat="49.1873" lon="-0.41334">
        <ele>55</ele>
        <time>2023-04-21T13:29:32Z</time>
      </trkpt>
      <trkpt lat="49.18731" lon="-0.41325">
        <ele>55.2</ele>
        <time>2023-04-21T13:29:33Z</time>
      </trkpt>
      <trkpt lat="49.18731" lon="-0.41316">
        <ele>55.2</ele>
        <time>2023-04-21T13:29:34Z</time>
      </trkpt>
      <trkpt lat="49.18731" lon="-0.41307">
        <ele>55.4</ele>
        <time>2023-04-21T13:29:35Z</time>
      </trkpt>
      <trkpt lat="49.18731" lon="-0.41298">
        <ele>55.6</ele>
        <time>2023-04-21T13:29:36Z</time>
      </trkpt>
      <trkpt lat="49.18731" lon="-0.41289">
        <ele>55.6</ele>
        <time>2023-04-21T13:29:37Z</time>
      </trkpt>
      <trkpt lat="49.18731" lon="-0.4128">
        <ele>55.8</ele>
        <time>2023-04-21T13:29:38Z</time>
      </trkpt>
      <trkpt lat="49.18731" lon="-0.41271">
        <ele>55.8</ele>
        <time>2023-04-21T13:29:39Z</time>
      </trkpt>
      <trkpt lat="49.18731" lon="-0.41262">
        <ele>55.8</ele>
        <time>2023-04-21T13:29:40Z</time>
      </trkpt>
      <trkpt lat="49.18731" lon="-0.41253">
        <ele>56</ele>
        <time>2023-04-21T13:29:41Z</time>
      </trkpt>
      <trkpt lat="49.18731" lon="-0.41244">
        <ele>56</ele>
        <time>2023-04-21T13:29:42Z</time>
      </trkpt>
      <trkpt lat="49.18731" lon="-0.41235">
        <ele>55.8</ele>
        <time>2023-04-21T13:29:43Z</time>
      </trkpt>
      <trkpt lat="49.18731" lon="-0.41226">
        <ele>55.6</ele>
        <time>2023-04-21T13:29:44Z</time>
      </trkpt>
      <trkpt lat="49.18731" lon="-0.41217">
        <ele>55.6</ele>
        <time>2023-04-21T13:29:45Z</time>
      </trkpt>
      <trkpt lat="49.18731" lon="-0.41209">
        <ele>55.4</ele>
        <time>2023-04-21T13:29:46Z</time>
      </trkpt>
      <trkpt lat="49.18731" lon="-0.412">
        <ele>55.2</ele>
        <time>2023-04-21T13:29:47Z</time>
      </trkpt>
      <trkpt lat="49.18731" lon="-0.41191">
        <ele>55.2</ele>
        <time>2023-04-21T13:29:48Z</time>
      </trkpt>
      <trkpt lat="49.18731" lon="-0.41182">
        <ele>55</ele>
        <time>2023-04-21T13:29:49Z</time>
      </trkpt>
      <trkpt lat="49.1873" lon="-0.41173">
        <ele>55</ele>
        <time>2023-04-21T13:29:50Z</time>
      </trkpt>
      <trkpt lat="49.1873" lon="-0.41164">
        <ele>54.8</ele>
        <time>2023-04-21T13:29:51Z</time>
      </trkpt>
      <trkpt lat="49.18729" lon="-0.41156">
        <ele>54.6</ele>
        <time>2023-04-21T13:29:52Z</time>
      </trkpt>
      <trkpt lat="49.18728" lon="-0.41147">
        <ele>54.4</ele>
        <time>2023-04-21T13:29:53Z</time>
      </trkpt>
      <trkpt lat="49.18726" lon="-0.41138">
        <ele>54</ele>
        <time>2023-04-21T13:29:54Z</time>
      </trkpt>
      <trkpt lat="49.18724" lon="-0.4113">
        <ele>54</ele>
        <time>2023-04-21T13:29:55Z</time>
      </trkpt>
      <trkpt lat="49.18722" lon="-0.41121">
        <ele>53.6</ele>
        <time>2023-04-21T13:29:56Z</time>
      </trkpt>
      <trkpt lat="49.1872" lon="-0.41114">
        <ele>53.2</ele>
        <time>2023-04-21T13:29:57Z</time>
      </trkpt>
      <trkpt lat="49.18718" lon="-0.41107">
        <ele>53</ele>
        <time>2023-04-21T13:29:58Z</time>
      </trkpt>
      <trkpt lat="49.18717" lon="-0.41101">
        <ele>53</ele>
        <time>2023-04-21T13:29:59Z</time>
      </trkpt>
      <trkpt lat="49.18715" lon="-0.41096">
        <ele>52.8</ele>
        <time>2023-04-21T13:30:00Z</time>
      </trkpt>
      <trkpt lat="49.18714" lon="-0.41092">
        <ele>52.6</ele>
        <time>2023-04-21T13:30:01Z</time>
      </trkpt>
      <trkpt lat="49.18713" lon="-0.41088">
        <ele>52.4</ele>
        <time>2023-04-21T13:30:02Z</time>
      </trkpt>
      <trkpt lat="49.18712" lon="-0.41083">
        <ele>52.2</ele>
        <time>2023-04-21T13:30:03Z</time>
      </trkpt>
      <trkpt lat="49.1871" lon="-0.41077">
        <ele>52.2</ele>
        <time>2023-04-21T13:30:04Z</time>
      </trkpt>
      <trkpt lat="49.18709" lon="-0.41071">
        <ele>52</ele>
        <time>2023-04-21T13:30:05Z</time>
      </trkpt>
      <trkpt lat="49.18708" lon="-0.41063">
        <ele>52</ele>
        <time>2023-04-21T13:30:06Z</time>
      </trkpt>
      <trkpt lat="49.18708" lon="-0.41055">
        <ele>52</ele>
        <time>2023-04-21T13:30:07Z</time>
      </trkpt>
      <trkpt lat="49.1871" lon="-0.41047">
        <ele>52.4</ele>
        <time>2023-04-21T13:30:08Z</time>
      </trkpt>
      <trkpt lat="49.18713" lon="-0.41041">
        <ele>52.8</ele>
        <time>2023-04-21T13:30:09Z</time>
      </trkpt>
      <trkpt lat="49.18718" lon="-0.41035">
        <ele>53</ele>
        <time>2023-04-21T13:30:10Z</time>
      </trkpt>
      <trkpt lat="49.18722" lon="-0.4103">
        <ele>53.8</ele>
        <time>2023-04-21T13:30:11Z</time>
      </trkpt>
      <trkpt lat="49.18727" lon="-0.41025">
        <ele>54.2</ele>
        <time>2023-04-21T13:30:12Z</time>
      </trkpt>
      <trkpt lat="49.18731" lon="-0.41019">
        <ele>54.6</ele>
        <time>2023-04-21T13:30:13Z</time>
      </trkpt>
      <trkpt lat="49.18733" lon="-0.41012">
        <ele>55</ele>
        <time>2023-04-21T13:30:14Z</time>
      </trkpt>
      <trkpt lat="49.18734" lon="-0.41004">
        <ele>55.2</ele>
        <time>2023-04-21T13:30:15Z</time>
      </trkpt>
      <trkpt lat="49.18735" lon="-0.40995">
        <ele>55.2</ele>
        <time>2023-04-21T13:30:16Z</time>
      </trkpt>
      <trkpt lat="49.18735" lon="-0.40987">
        <ele>55</ele>
        <time>2023-04-21T13:30:17Z</time>
      </trkpt>
      <trkpt lat="49.18734" lon="-0.40978">
        <ele>55</ele>
        <time>2023-04-21T13:30:18Z</time>
      </trkpt>
      <trkpt lat="49.18733" lon="-0.40969">
        <ele>54.6</ele>
        <time>2023-04-21T13:30:19Z</time>
      </trkpt>
      <trkpt lat="49.18733" lon="-0.40961">
        <ele>54.4</ele>
        <time>2023-04-21T13:30:20Z</time>
      </trkpt>
      <trkpt lat="49.18732" lon="-0.40952">
        <ele>54.2</ele>
        <time>2023-04-21T13:30:21Z</time>
      </trkpt>
      <trkpt lat="49.18732" lon="-0.40943">
        <ele>54</ele>
        <time>2023-04-21T13:30:22Z</time>
      </trkpt>
      <trkpt lat="49.18731" lon="-0.40934">
        <ele>53.8</ele>
        <time>2023-04-21T13:30:23Z</time>
      </trkpt>
      <trkpt lat="49.18731" lon="-0.40924">
        <ele>53.6</ele>
        <time>2023-04-21T13:30:24Z</time>
      </trkpt>
      <trkpt lat="49.1873" lon="-0.40915">
        <ele>53.2</ele>
        <time>2023-04-21T13:30:25Z</time>
      </trkpt>
      <trkpt lat="49.1873" lon="-0.40906">
        <ele>53.2</ele>
        <time>2023-04-21T13:30:26Z</time>
      </trkpt>
      <trkpt lat="49.18729" lon="-0.40896">
        <ele>53</ele>
        <time>2023-04-21T13:30:27Z</time>
      </trkpt>
      <trkpt lat="49.18729" lon="-0.40886">
        <ele>53</ele>
        <time>2023-04-21T13:30:28Z</time>
      </trkpt>
      <trkpt lat="49.18728" lon="-0.40876">
        <ele>52.8</ele>
        <time>2023-04-21T13:30:29Z</time>
      </trkpt>
      <trkpt lat="49.18727" lon="-0.40867">
        <ele>52.6</ele>
        <time>2023-04-21T13:30:30Z</time>
      </trkpt>
      <trkpt lat="49.18727" lon="-0.40857">
        <ele>52.6</ele>
        <time>2023-04-21T13:30:31Z</time>
      </trkpt>
      <trkpt lat="49.18726" lon="-0.40847">
        <ele>52.4</ele>
        <time>2023-04-21T13:30:32Z</time>
      </trkpt>
      <trkpt lat="49.18725" lon="-0.40838">
        <ele>52.2</ele>
        <time>2023-04-21T13:30:33Z</time>
      </trkpt>
      <trkpt lat="49.18725" lon="-0.40828">
        <ele>52.2</ele>
        <time>2023-04-21T13:30:34Z</time>
      </trkpt>
      <trkpt lat="49.18724" lon="-0.40819">
        <ele>52</ele>
        <time>2023-04-21T13:30:35Z</time>
      </trkpt>
      <trkpt lat="49.18724" lon="-0.40809">
        <ele>52</ele>
        <time>2023-04-21T13:30:36Z</time>
      </trkpt>
      <trkpt lat="49.18723" lon="-0.408">
        <ele>52</ele>
        <time>2023-04-21T13:30:37Z</time>
      </trkpt>
      <trkpt lat="49.18723" lon="-0.40791">
        <ele>52</ele>
        <time>2023-04-21T13:30:38Z</time>
      </trkpt>
      <trkpt lat="49.18722" lon="-0.40781">
        <ele>52</ele>
        <time>2023-04-21T13:30:39Z</time>
      </trkpt>
      <trkpt lat="49.18722" lon="-0.40772">
        <ele>52</ele>
        <time>2023-04-21T13:30:40Z</time>
      </trkpt>
      <trkpt lat="49.18721" lon="-0.40762">
        <ele>52</ele>
        <time>2023-04-21T13:30:41Z</time>
      </trkpt>
      <trkpt lat="49.18721" lon="-0.40753">
        <ele>52</ele>
        <time>2023-04-21T13:30:42Z</time>
      </trkpt>
      <trkpt lat="49.18721" lon="-0.40744">
        <ele>52</ele>
        <time>2023-04-21T13:30:43Z</time>
      </trkpt>
      <trkpt lat="49.18721" lon="-0.40735">
        <ele>52</ele>
        <time>2023-04-21T13:30:44Z</time>
      </trkpt>
      <trkpt lat="49.18721" lon="-0.40726">
        <ele>52</ele>
        <time>2023-04-21T13:30:45Z</time>
      </trkpt>
      <trkpt lat="49.18721" lon="-0.40717">
        <ele>52</ele>
        <time>2023-04-21T13:30:46Z</time>
      </trkpt>
      <trkpt lat="49.18721" lon="-0.40708">
        <ele>52</ele>
        <time>2023-04-21T13:30:47Z</time>
      </trkpt>
      <trkpt lat="49.18721" lon="-0.407">
        <ele>52</ele>
        <time>2023-04-21T13:30:48Z</time>
      </trkpt>
      <trkpt lat="49.18721" lon="-0.40691">
        <ele>52.2</ele>
        <time>2023-04-21T13:30:49Z</time>
      </trkpt>
      <trkpt lat="49.18722" lon="-0.40683">
        <ele>52.2</ele>
        <time>2023-04-21T13:30:50Z</time>
      </trkpt>
      <trkpt lat="49.18722" lon="-0.40674">
        <ele>52.2</ele>
        <time>2023-04-21T13:30:51Z</time>
      </trkpt>
      <trkpt lat="49.18723" lon="-0.40666">
        <ele>52.4</ele>
        <time>2023-04-21T13:30:52Z</time>
      </trkpt>
      <trkpt lat="49.18724" lon="-0.40658">
        <ele>52.4</ele>
        <time>2023-04-21T13:30:53Z</time>
      </trkpt>
      <trkpt lat="49.18724" lon="-0.40649">
        <ele>52.4</ele>
        <time>2023-04-21T13:30:54Z</time>
      </trkpt>
      <trkpt lat="49.18724" lon="-0.40641">
        <ele>52.2</ele>
        <time>2023-04-21T13:30:55Z</time>
      </trkpt>
      <trkpt lat="49.18725" lon="-0.40632">
        <ele>52.2</ele>
        <time>2023-04-21T13:30:56Z</time>
      </trkpt>
      <trkpt lat="49.18725" lon="-0.40623">
        <ele>52.2</ele>
        <time>2023-04-21T13:30:57Z</time>
      </trkpt>
      <trkpt lat="49.18725" lon="-0.40615">
        <ele>52.2</ele>
        <time>2023-04-21T13:30:58Z</time>
      </trkpt>
      <trkpt lat="49.18725" lon="-0.40606">
        <ele>52</ele>
        <time>2023-04-21T13:30:59Z</time>
      </trkpt>
      <trkpt lat="49.18726" lon="-0.40597">
        <ele>52</ele>
        <time>2023-04-21T13:31:00Z</time>
      </trkpt>
      <trkpt lat="49.18726" lon="-0.40588">
        <ele>52</ele>
        <time>2023-04-21T13:31:01Z</time>
      </trkpt>
      <trkpt lat="49.18726" lon="-0.40579">
        <ele>52</ele>
        <time>2023-04-21T13:31:02Z</time>
      </trkpt>
      <trkpt lat="49.18726" lon="-0.40569">
        <ele>51.8</ele>
        <time>2023-04-21T13:31:03Z</time>
      </trkpt>
      <trkpt lat="49.18726" lon="-0.4056">
        <ele>51.8</ele>
        <time>2023-04-21T13:31:04Z</time>
      </trkpt>
      <trkpt lat="49.18726" lon="-0.4055">
        <ele>51.6</ele>
        <time>2023-04-21T13:31:05Z</time>
      </trkpt>
      <trkpt lat="49.18726" lon="-0.40541">
        <ele>51.4</ele>
        <time>2023-04-21T13:31:06Z</time>
      </trkpt>
      <trkpt lat="49.18725" lon="-0.40531">
        <ele>51.2</ele>
        <time>2023-04-21T13:31:07Z</time>
      </trkpt>
      <trkpt lat="49.18724" lon="-0.40521">
        <ele>51</ele>
        <time>2023-04-21T13:31:08Z</time>
      </trkpt>
      <trkpt lat="49.18723" lon="-0.40511">
        <ele>51</ele>
        <time>2023-04-21T13:31:09Z</time>
      </trkpt>
      <trkpt lat="49.18722" lon="-0.40501">
        <ele>50.8</ele>
        <time>2023-04-21T13:31:10Z</time>
      </trkpt>
      <trkpt lat="49.18721" lon="-0.40491">
        <ele>50.6</ele>
        <time>2023-04-21T13:31:11Z</time>
      </trkpt>
      <trkpt lat="49.18721" lon="-0.40481">
        <ele>50.2</ele>
        <time>2023-04-21T13:31:12Z</time>
      </trkpt>
      <trkpt lat="49.1872" lon="-0.40471">
        <ele>50.2</ele>
        <time>2023-04-21T13:31:13Z</time>
      </trkpt>
      <trkpt lat="49.1872" lon="-0.40461">
        <ele>50</ele>
        <time>2023-04-21T13:31:14Z</time>
      </trkpt>
      <trkpt lat="49.18719" lon="-0.40452">
        <ele>50</ele>
        <time>2023-04-21T13:31:15Z</time>
      </trkpt>
      <trkpt lat="49.18718" lon="-0.40442">
        <ele>49.8</ele>
        <time>2023-04-21T13:31:16Z</time>
      </trkpt>
      <trkpt lat="49.18718" lon="-0.40433">
        <ele>49.6</ele>
        <time>2023-04-21T13:31:17Z</time>
      </trkpt>
      <trkpt lat="49.18717" lon="-0.40423">
        <ele>49.6</ele>
        <time>2023-04-21T13:31:18Z</time>
      </trkpt>
      <trkpt lat="49.18716" lon="-0.40414">
        <ele>49.2</ele>
        <time>2023-04-21T13:31:19Z</time>
      </trkpt>
      <trkpt lat="49.18715" lon="-0.40404">
        <ele>49</ele>
        <time>2023-04-21T13:31:20Z</time>
      </trkpt>
      <trkpt lat="49.18714" lon="-0.40395">
        <ele>49</ele>
        <time>2023-04-21T13:31:21Z</time>
      </trkpt>
      <trkpt lat="49.18713" lon="-0.40385">
        <ele>48.6</ele>
        <time>2023-04-21T13:31:22Z</time>
      </trkpt>
      <trkpt lat="49.18713" lon="-0.40375">
        <ele>48.4</ele>
        <time>2023-04-21T13:31:23Z</time>
      </trkpt>
      <trkpt lat="49.18712" lon="-0.40365">
        <ele>48.2</ele>
        <time>2023-04-21T13:31:24Z</time>
      </trkpt>
      <trkpt lat="49.18711" lon="-0.40355">
        <ele>48</ele>
        <time>2023-04-21T13:31:25Z</time>
      </trkpt>
      <trkpt lat="49.18711" lon="-0.40345">
        <ele>47.8</ele>
        <time>2023-04-21T13:31:26Z</time>
      </trkpt>
      <trkpt lat="49.1871" lon="-0.40335">
        <ele>47.6</ele>
        <time>2023-04-21T13:31:27Z</time>
      </trkpt>
      <trkpt lat="49.18709" lon="-0.40325">
        <ele>47.4</ele>
        <time>2023-04-21T13:31:28Z</time>
      </trkpt>
      <trkpt lat="49.18708" lon="-0.40316">
        <ele>47.2</ele>
        <time>2023-04-21T13:31:29Z</time>
      </trkpt>
      <trkpt lat="49.18707" lon="-0.40306">
        <ele>47</ele>
        <time>2023-04-21T13:31:30Z</time>
      </trkpt>
      <trkpt lat="49.18706" lon="-0.40297">
        <ele>47</ele>
        <time>2023-04-21T13:31:31Z</time>
      </trkpt>
      <trkpt lat="49.18707" lon="-0.4029">
        <ele>47</ele>
        <time>2023-04-21T13:31:32Z</time>
      </trkpt>
      <trkpt lat="49.18709" lon="-0.40284">
        <ele>47</ele>
        <time>2023-04-21T13:31:33Z</time>
      </trkpt>
      <trkpt lat="49.18713" lon="-0.40281">
        <ele>47</ele>
        <time>2023-04-21T13:31:34Z</time>
      </trkpt>
      <trkpt lat="49.18717" lon="-0.40278">
        <ele>47</ele>
        <time>2023-04-21T13:31:35Z</time>
      </trkpt>
      <trkpt lat="49.18721" lon="-0.40276">
        <ele>47.2</ele>
        <time>2023-04-21T13:31:36Z</time>
      </trkpt>
      <trkpt lat="49.18725" lon="-0.40275">
        <ele>47.4</ele>
        <time>2023-04-21T13:31:37Z</time>
      </trkpt>
      <trkpt lat="49.18729" lon="-0.40275">
        <ele>47.6</ele>
        <time>2023-04-21T13:31:38Z</time>
      </trkpt>
      <trkpt lat="49.18732" lon="-0.40275">
        <ele>47.8</ele>
        <time>2023-04-21T13:31:39Z</time>
      </trkpt>
      <trkpt lat="49.18737" lon="-0.40274">
        <ele>47.8</ele>
        <time>2023-04-21T13:31:40Z</time>
      </trkpt>
      <trkpt lat="49.18742" lon="-0.40272">
        <ele>48</ele>
        <time>2023-04-21T13:31:41Z</time>
      </trkpt>
      <trkpt lat="49.18747" lon="-0.40269">
        <ele>48</ele>
        <time>2023-04-21T13:31:42Z</time>
      </trkpt>
      <trkpt lat="49.18752" lon="-0.40266">
        <ele>48.2</ele>
        <time>2023-04-21T13:31:43Z</time>
      </trkpt>
      <trkpt lat="49.18757" lon="-0.40264">
        <ele>48.6</ele>
        <time>2023-04-21T13:31:44Z</time>
      </trkpt>
      <trkpt lat="49.18762" lon="-0.40261">
        <ele>49</ele>
        <time>2023-04-21T13:31:45Z</time>
      </trkpt>
      <trkpt lat="49.18767" lon="-0.40259">
        <ele>49.2</ele>
        <time>2023-04-21T13:31:46Z</time>
      </trkpt>
      <trkpt lat="49.18772" lon="-0.40256">
        <ele>49.4</ele>
        <time>2023-04-21T13:31:47Z</time>
      </trkpt>
      <trkpt lat="49.18777" lon="-0.40254">
        <ele>49.8</ele>
        <time>2023-04-21T13:31:48Z</time>
      </trkpt>
      <trkpt lat="49.18782" lon="-0.40251">
        <ele>50</ele>
        <time>2023-04-21T13:31:49Z</time>
      </trkpt>
      <trkpt lat="49.18787" lon="-0.40249">
        <ele>50.2</ele>
        <time>2023-04-21T13:31:50Z</time>
      </trkpt>
      <trkpt lat="49.18792" lon="-0.40246">
        <ele>50.4</ele>
        <time>2023-04-21T13:31:51Z</time>
      </trkpt>
      <trkpt lat="49.18797" lon="-0.40244">
        <ele>50.8</ele>
        <time>2023-04-21T13:31:52Z</time>
      </trkpt>
      <trkpt lat="49.18801" lon="-0.40242">
        <ele>51</ele>
        <time>2023-04-21T13:31:53Z</time>
      </trkpt>
      <trkpt lat="49.18806" lon="-0.4024">
        <ele>51.2</ele>
        <time>2023-04-21T13:31:54Z</time>
      </trkpt>
      <trkpt lat="49.18811" lon="-0.40238">
        <ele>51.4</ele>
        <time>2023-04-21T13:31:55Z</time>
      </trkpt>
      <trkpt lat="49.18816" lon="-0.40237">
        <ele>51.8</ele>
        <time>2023-04-21T13:31:56Z</time>
      </trkpt>
      <trkpt lat="49.18821" lon="-0.40235">
        <ele>52</ele>
        <time>2023-04-21T13:31:57Z</time>
      </trkpt>
      <trkpt lat="49.18826" lon="-0.40234">
        <ele>52.2</ele>
        <time>2023-04-21T13:31:58Z</time>
      </trkpt>
      <trkpt lat="49.1883" lon="-0.40233">
        <ele>52.4</ele>
        <time>2023-04-21T13:31:59Z</time>
      </trkpt>
      <trkpt lat="49.18835" lon="-0.40232">
        <ele>52.8</ele>
        <time>2023-04-21T13:32:00Z</time>
      </trkpt>
      <trkpt lat="49.18839" lon="-0.40232">
        <ele>53</ele>
        <time>2023-04-21T13:32:01Z</time>
      </trkpt>
      <trkpt lat="49.18844" lon="-0.40231">
        <ele>53.2</ele>
        <time>2023-04-21T13:32:02Z</time>
      </trkpt>
      <trkpt lat="49.18848" lon="-0.40231">
        <ele>53.4</ele>
        <time>2023-04-21T13:32:03Z</time>
      </trkpt>
      <trkpt lat="49.18852" lon="-0.40231">
        <ele>53.8</ele>
        <time>2023-04-21T13:32:04Z</time>
      </trkpt>
      <trkpt lat="49.18857" lon="-0.40231">
        <ele>54</ele>
        <time>2023-04-21T13:32:05Z</time>
      </trkpt>
      <trkpt lat="49.18861" lon="-0.4023">
        <ele>54.2</ele>
        <time>2023-04-21T13:32:06Z</time>
      </trkpt>
      <trkpt lat="49.18865" lon="-0.40228">
        <ele>54.4</ele>
        <time>2023-04-21T13:32:07Z</time>
      </trkpt>
      <trkpt lat="49.18868" lon="-0.40225">
        <ele>54.6</ele>
        <time>2023-04-21T13:32:08Z</time>
      </trkpt>
      <trkpt lat="49.1887" lon="-0.4022">
        <ele>54.4</ele>
        <time>2023-04-21T13:32:09Z</time>
      </trkpt>
      <trkpt lat="49.1887" lon="-0.40214">
        <ele>54.4</ele>
        <time>2023-04-21T13:32:10Z</time>
      </trkpt>
      <trkpt lat="49.18871" lon="-0.40208">
        <ele>54.2</ele>
        <time>2023-04-21T13:32:11Z</time>
      </trkpt>
      <trkpt lat="49.18872" lon="-0.40202">
        <ele>54.2</ele>
        <time>2023-04-21T13:32:12Z</time>
      </trkpt>
      <trkpt lat="49.18872" lon="-0.40197">
        <ele>54</ele>
        <time>2023-04-21T13:32:13Z</time>
      </trkpt>
      <trkpt lat="49.18873" lon="-0.40192">
        <ele>54</ele>
        <time>2023-04-21T13:32:14Z</time>
      </trkpt>
      <trkpt lat="49.18874" lon="-0.40186">
        <ele>54</ele>
        <time>2023-04-21T13:32:15Z</time>
      </trkpt>
      <trkpt lat="49.18874" lon="-0.40181">
        <ele>53.8</ele>
        <time>2023-04-21T13:32:16Z</time>
      </trkpt>
      <trkpt lat="49.18875" lon="-0.40175">
        <ele>53.8</ele>
        <time>2023-04-21T13:32:17Z</time>
      </trkpt>
      <trkpt lat="49.18876" lon="-0.4017">
        <ele>53.6</ele>
        <time>2023-04-21T13:32:18Z</time>
      </trkpt>
      <trkpt lat="49.18877" lon="-0.40164">
        <ele>53.6</ele>
        <time>2023-04-21T13:32:19Z</time>
      </trkpt>
      <trkpt lat="49.18877" lon="-0.40159">
        <ele>53.6</ele>
        <time>2023-04-21T13:32:20Z</time>
      </trkpt>
      <trkpt lat="49.18878" lon="-0.40154">
        <ele>53.6</ele>
        <time>2023-04-21T13:32:21Z</time>
      </trkpt>
      <trkpt lat="49.1888" lon="-0.40148">
        <ele>53.8</ele>
        <time>2023-04-21T13:32:22Z</time>
      </trkpt>
      <trkpt lat="49.18881" lon="-0.40143">
        <ele>53.8</ele>
        <time>2023-04-21T13:32:23Z</time>
      </trkpt>
      <trkpt lat="49.18882" lon="-0.40138">
        <ele>53.8</ele>
        <time>2023-04-21T13:32:24Z</time>
      </trkpt>
      <trkpt lat="49.18884" lon="-0.40133">
        <ele>54</ele>
        <time>2023-04-21T13:32:25Z</time>
      </trkpt>
      <trkpt lat="49.18885" lon="-0.40129">
        <ele>54</ele>
        <time>2023-04-21T13:32:26Z</time>
      </trkpt>
      <trkpt lat="49.18885" lon="-0.40126">
        <ele>54</ele>
        <time>2023-04-21T13:32:27Z</time>
      </trkpt>
      <trkpt lat="49.18885" lon="-0.40124">
        <ele>54</ele>
        <time>2023-04-21T13:32:28Z</time>
      </trkpt>
      <trkpt lat="49.18884" lon="-0.40123">
        <ele>53.8</ele>
        <time>2023-04-21T13:32:29Z</time>
      </trkpt>
      <trkpt lat="49.18883" lon="-0.40122">
        <ele>53.8</ele>
        <time>2023-04-21T13:32:30Z</time>
      </trkpt>
      <trkpt lat="49.18882" lon="-0.40121">
        <ele>53.8</ele>
        <time>2023-04-21T13:32:31Z</time>
      </trkpt>
      <trkpt lat="49.18881" lon="-0.40121">
        <ele>53.6</ele>
        <time>2023-04-21T13:32:32Z</time>
      </trkpt>
      <trkpt lat="49.18881" lon="-0.4012">
        <ele>53.6</ele>
        <time>2023-04-21T13:32:33Z</time>
      </trkpt>
      <trkpt lat="49.18881" lon="-0.4012">
        <ele>53.6</ele>
        <time>2023-04-21T13:32:34Z</time>
      </trkpt>
      <trkpt lat="49.18881" lon="-0.4012">
        <ele>53.6</ele>
        <time>2023-04-21T13:32:35Z</time>
      </trkpt>
      <trkpt lat="49.18881" lon="-0.4012">
        <ele>53.6</ele>
        <time>2023-04-21T13:32:36Z</time>
      </trkpt>
      <trkpt lat="49.18881" lon="-0.4012">
        <ele>53.6</ele>
        <time>2023-04-21T13:32:37Z</time>
      </trkpt>
      <trkpt lat="49.18881" lon="-0.4012">
        <ele>53.6</ele>
        <time>2023-04-21T13:32:38Z</time>
      </trkpt>
      <trkpt lat="49.18881" lon="-0.4012">
        <ele>53.6</ele>
        <time>2023-04-21T13:32:39Z</time>
      </trkpt>
      <trkpt lat="49.18881" lon="-0.4012">
        <ele>53.6</ele>
        <time>2023-04-21T13:32:40Z</time>
      </trkpt>
      <trkpt lat="49.18881" lon="-0.4012">
        <ele>53.6</ele>
        <time>2023-04-21T13:32:41Z</time>
      </trkpt>
      <trkpt lat="49.18881" lon="-0.4012">
        <ele>53.6</ele>
        <time>2023-04-21T13:32:42Z</time>
      </trkpt>
      <trkpt lat="49.18881" lon="-0.4012">
        <ele>53.6</ele>
        <time>2023-04-21T13:32:43Z</time>
      </trkpt>
      <trkpt lat="49.18881" lon="-0.4012">
        <ele>53.6</ele>
        <time>2023-04-21T13:32:44Z</time>
      </trkpt>
      <trkpt lat="49.18881" lon="-0.4012">
        <ele>53.6</ele>
        <time>2023-04-21T13:32:45Z</time>
      </trkpt>
      <trkpt lat="49.18881" lon="-0.4012">
        <ele>53.6</ele>
        <time>2023-04-21T13:32:46Z</time>
      </trkpt>
      <trkpt lat="49.18881" lon="-0.4012">
        <ele>53.6</ele>
        <time>2023-04-21T13:32:47Z</time>
      </trkpt>
      <trkpt lat="49.18881" lon="-0.4012">
        <ele>53.6</ele>
        <time>2023-04-21T13:32:48Z</time>
      </trkpt>
      <trkpt lat="49.18881" lon="-0.4012">
        <ele>53.6</ele>
        <time>2023-04-21T13:32:49Z</time>
      </trkpt>
      <trkpt lat="49.18881" lon="-0.4012">
        <ele>53.6</ele>
        <time>2023-04-21T13:32:50Z</time>
      </trkpt>
      <trkpt lat="49.18881" lon="-0.4012">
        <ele>53.6</ele>
        <time>2023-04-21T13:32:51Z</time>
      </trkpt>
      <trkpt lat="49.1888" lon="-0.4012">
        <ele>53.6</ele>
        <time>2023-04-21T13:32:52Z</time>
      </trkpt>
      <trkpt lat="49.1888" lon="-0.4012">
        <ele>53.6</ele>
        <time>2023-04-21T13:32:53Z</time>
      </trkpt>
      <trkpt lat="49.1888" lon="-0.40119">
        <ele>53.6</ele>
        <time>2023-04-21T13:32:54Z</time>
      </trkpt>
      <trkpt lat="49.1888" lon="-0.40119">
        <ele>53.6</ele>
        <time>2023-04-21T13:32:55Z</time>
      </trkpt>
      <trkpt lat="49.1888" lon="-0.40119">
        <ele>53.6</ele>
        <time>2023-04-21T13:32:56Z</time>
      </trkpt>
      <trkpt lat="49.18879" lon="-0.40119">
        <ele>53.6</ele>
        <time>2023-04-21T13:32:57Z</time>
      </trkpt>
      <trkpt lat="49.18879" lon="-0.40119">
        <ele>53.6</ele>
        <time>2023-04-21T13:32:58Z</time>
      </trkpt>
      <trkpt lat="49.18879" lon="-0.40119">
        <ele>53.6</ele>
        <time>2023-04-21T13:32:59Z</time>
      </trkpt>
      <trkpt lat="49.18879" lon="-0.40119">
        <ele>53.6</ele>
        <time>2023-04-21T13:33:00Z</time>
      </trkpt>
      <trkpt lat="49.18878" lon="-0.40117">
        <ele>53.4</ele>
        <time>2023-04-21T13:33:01Z</time>
      </trkpt>
      <trkpt lat="49.18878" lon="-0.40115">
        <ele>53.4</ele>
        <time>2023-04-21T13:33:02Z</time>
      </trkpt>
      <trkpt lat="49.18876" lon="-0.40112">
        <ele>53.2</ele>
        <time>2023-04-21T13:33:03Z</time>
      </trkpt>
      <trkpt lat="49.18874" lon="-0.40108">
        <ele>53</ele>
        <time>2023-04-21T13:33:04Z</time>
      </trkpt>
      <trkpt lat="49.18871" lon="-0.40104">
        <ele>52.8</ele>
        <time>2023-04-21T13:33:05Z</time>
      </trkpt>
      <trkpt lat="49.18867" lon="-0.401">
        <ele>52.6</ele>
        <time>2023-04-21T13:33:06Z</time>
      </trkpt>
      <trkpt lat="49.18864" lon="-0.40097">
        <ele>52.2</ele>
        <time>2023-04-21T13:33:07Z</time>
      </trkpt>
      <trkpt lat="49.1886" lon="-0.40094">
        <ele>52</ele>
        <time>2023-04-21T13:33:08Z</time>
      </trkpt>
      <trkpt lat="49.18857" lon="-0.40091">
        <ele>51.8</ele>
        <time>2023-04-21T13:33:09Z</time>
      </trkpt>
      <trkpt lat="49.18855" lon="-0.40089">
        <ele>51.6</ele>
        <time>2023-04-21T13:33:10Z</time>
      </trkpt>
      <trkpt lat="49.18853" lon="-0.40086">
        <ele>51.6</ele>
        <time>2023-04-21T13:33:11Z</time>
      </trkpt>
      <trkpt lat="49.18853" lon="-0.40083">
        <ele>51.4</ele>
        <time>2023-04-21T13:33:12Z</time>
      </trkpt>
      <trkpt lat="49.18855" lon="-0.40079">
        <ele>51.6</ele>
        <time>2023-04-21T13:33:13Z</time>
      </trkpt>
    </trkseg>
  </trk>
</gpx>